<?xml version="1.0" encoding="UTF-8" standalone="no" ?>
<gpx xmlns="http://www.topografix.com/GPX/1/1" xmlns:xsi="http://www.w3.org/2001/XMLSchema-instance" xsi:schemaLocation="http://www.topografix.com/GPX/1/1 http://www.topografix.com/GPX/1/1/gpx.xsd" version="1.1" creator="VisuGPX - https://www.visugpx.com">
  <metadata>
    <name>Circuit Moto dans les Corbières 03/06/2016</name>
    <desc><![CDATA[Un beau circuit pour ceux qui aiment les virages...et passage par les Gorges de Galamus qui valent le détour ]]></desc>
  </metadata>
  <wpt lat="42.96002" lon="2.52669">
    <ele>537</ele>
    <name><![CDATA[Le Kezako]]></name>
    <desc><![CDATA[]]></desc>
    <link href="0006_Le Kezako.jpg"></link>
    <type><![CDATA[Not specified]]></type>
  </wpt>
  <trk>
    <name><![CDATA[Track 3]]></name>
    <desc><![CDATA[]]></desc>
    <trkseg>
      <trkpt lat="42.69512" lon="2.90357">
        <ele>66.84729</ele>
        <time>2016-06-03T07:57:59Z</time>
      </trkpt>
      <trkpt lat="42.69516" lon="2.90353">
        <ele>61.117798</ele>
        <time>2016-06-03T07:58:19Z</time>
      </trkpt>
      <trkpt lat="42.69517" lon="2.90353">
        <ele>61.995544</ele>
        <time>2016-06-03T07:58:28Z</time>
      </trkpt>
      <trkpt lat="42.69517" lon="2.90353">
        <ele>63.003357</ele>
        <time>2016-06-03T07:59:17Z</time>
      </trkpt>
      <trkpt lat="42.69518" lon="2.90355">
        <ele>61.690552</ele>
        <time>2016-06-03T07:59:25Z</time>
      </trkpt>
      <trkpt lat="42.69518" lon="2.90354">
        <ele>59.966431</ele>
        <time>2016-06-03T07:59:56Z</time>
      </trkpt>
      <trkpt lat="42.69517" lon="2.90355">
        <ele>60.359131</ele>
        <time>2016-06-03T07:59:57Z</time>
      </trkpt>
      <trkpt lat="42.69519" lon="2.90355">
        <ele>60.125122</ele>
        <time>2016-06-03T07:59:58Z</time>
      </trkpt>
      <trkpt lat="42.69518" lon="2.90355">
        <ele>60.35022</ele>
        <time>2016-06-03T08:00:01Z</time>
      </trkpt>
      <trkpt lat="42.69519" lon="2.90355">
        <ele>59.99707</ele>
        <time>2016-06-03T08:00:09Z</time>
      </trkpt>
      <trkpt lat="42.69519" lon="2.90355">
        <ele>60.09729</ele>
        <time>2016-06-03T08:00:30Z</time>
      </trkpt>
      <trkpt lat="42.69524" lon="2.90359">
        <ele>59.796448</ele>
        <time>2016-06-03T08:00:34Z</time>
      </trkpt>
      <trkpt lat="42.6953" lon="2.90364">
        <ele>58.238831</ele>
        <time>2016-06-03T08:00:36Z</time>
      </trkpt>
      <trkpt lat="42.69539" lon="2.90381">
        <ele>53.948608</ele>
        <time>2016-06-03T08:00:39Z</time>
      </trkpt>
      <trkpt lat="42.69547" lon="2.90389">
        <ele>52.733215</ele>
        <time>2016-06-03T08:00:42Z</time>
      </trkpt>
      <trkpt lat="42.6955" lon="2.90391">
        <ele>52.591187</ele>
        <time>2016-06-03T08:00:43Z</time>
      </trkpt>
      <trkpt lat="42.69547" lon="2.90395">
        <ele>50.266846</ele>
        <time>2016-06-03T08:00:44Z</time>
      </trkpt>
      <trkpt lat="42.69549" lon="2.90397">
        <ele>50.327148</ele>
        <time>2016-06-03T08:00:45Z</time>
      </trkpt>
      <trkpt lat="42.69549" lon="2.90398">
        <ele>49.067627</ele>
        <time>2016-06-03T08:00:46Z</time>
      </trkpt>
      <trkpt lat="42.6955" lon="2.90401">
        <ele>46.692444</ele>
        <time>2016-06-03T08:00:48Z</time>
      </trkpt>
      <trkpt lat="42.69554" lon="2.90405">
        <ele>46.824036</ele>
        <time>2016-06-03T08:00:51Z</time>
      </trkpt>
      <trkpt lat="42.69558" lon="2.9041">
        <ele>47.079651</ele>
        <time>2016-06-03T08:00:53Z</time>
      </trkpt>
      <trkpt lat="42.69563" lon="2.90411">
        <ele>45.709534</ele>
        <time>2016-06-03T08:00:54Z</time>
      </trkpt>
      <trkpt lat="42.69591" lon="2.90391">
        <ele>41.497314</ele>
        <time>2016-06-03T08:00:58Z</time>
      </trkpt>
      <trkpt lat="42.6961" lon="2.90379">
        <ele>41.565613</ele>
        <time>2016-06-03T08:01:02Z</time>
      </trkpt>
      <trkpt lat="42.69616" lon="2.9037">
        <ele>40.166443</ele>
        <time>2016-06-03T08:01:04Z</time>
      </trkpt>
      <trkpt lat="42.69626" lon="2.90362">
        <ele>41.046997</ele>
        <time>2016-06-03T08:01:07Z</time>
      </trkpt>
      <trkpt lat="42.69638" lon="2.90356">
        <ele>41.218445</ele>
        <time>2016-06-03T08:01:10Z</time>
      </trkpt>
      <trkpt lat="42.69644" lon="2.90352">
        <ele>41.354431</ele>
        <time>2016-06-03T08:01:12Z</time>
      </trkpt>
      <trkpt lat="42.69647" lon="2.90349">
        <ele>41.093628</ele>
        <time>2016-06-03T08:01:13Z</time>
      </trkpt>
      <trkpt lat="42.69645" lon="2.90335">
        <ele>39.200378</ele>
        <time>2016-06-03T08:01:15Z</time>
      </trkpt>
      <trkpt lat="42.69621" lon="2.90309">
        <ele>38.721008</ele>
        <time>2016-06-03T08:01:19Z</time>
      </trkpt>
      <trkpt lat="42.69602" lon="2.90293">
        <ele>38.512573</ele>
        <time>2016-06-03T08:01:22Z</time>
      </trkpt>
      <trkpt lat="42.69588" lon="2.90285">
        <ele>39.702881</ele>
        <time>2016-06-03T08:01:24Z</time>
      </trkpt>
      <trkpt lat="42.69576" lon="2.90273">
        <ele>40.94043</ele>
        <time>2016-06-03T08:01:26Z</time>
      </trkpt>
      <trkpt lat="42.69544" lon="2.90241">
        <ele>41.007568</ele>
        <time>2016-06-03T08:01:30Z</time>
      </trkpt>
      <trkpt lat="42.69511" lon="2.9021">
        <ele>41.498962</ele>
        <time>2016-06-03T08:01:34Z</time>
      </trkpt>
      <trkpt lat="42.695" lon="2.90195">
        <ele>41.015808</ele>
        <time>2016-06-03T08:01:36Z</time>
      </trkpt>
      <trkpt lat="42.6947" lon="2.90169">
        <ele>44.128052</ele>
        <time>2016-06-03T08:01:40Z</time>
      </trkpt>
      <trkpt lat="42.69458" lon="2.90155">
        <ele>43.914978</ele>
        <time>2016-06-03T08:01:42Z</time>
      </trkpt>
      <trkpt lat="42.6944" lon="2.90139">
        <ele>43.757446</ele>
        <time>2016-06-03T08:01:44Z</time>
      </trkpt>
      <trkpt lat="42.69414" lon="2.90115">
        <ele>43.060791</ele>
        <time>2016-06-03T08:01:47Z</time>
      </trkpt>
      <trkpt lat="42.6939" lon="2.90094">
        <ele>44.511353</ele>
        <time>2016-06-03T08:01:50Z</time>
      </trkpt>
      <trkpt lat="42.69365" lon="2.90071">
        <ele>45.466064</ele>
        <time>2016-06-03T08:01:53Z</time>
      </trkpt>
      <trkpt lat="42.69341" lon="2.90046">
        <ele>41.783264</ele>
        <time>2016-06-03T08:01:56Z</time>
      </trkpt>
      <trkpt lat="42.69316" lon="2.90022">
        <ele>43.254395</ele>
        <time>2016-06-03T08:01:59Z</time>
      </trkpt>
      <trkpt lat="42.69299" lon="2.90002">
        <ele>42.162842</ele>
        <time>2016-06-03T08:02:02Z</time>
      </trkpt>
      <trkpt lat="42.69277" lon="2.8998">
        <ele>43.103238</ele>
        <time>2016-06-03T08:02:05Z</time>
      </trkpt>
      <trkpt lat="42.69243" lon="2.89949">
        <ele>43.882988</ele>
        <time>2016-06-03T08:02:09Z</time>
      </trkpt>
      <trkpt lat="42.69224" lon="2.89932">
        <ele>44.044663</ele>
        <time>2016-06-03T08:02:11Z</time>
      </trkpt>
      <trkpt lat="42.69201" lon="2.89908">
        <ele>43.236358</ele>
        <time>2016-06-03T08:02:14Z</time>
      </trkpt>
      <trkpt lat="42.69173" lon="2.89885">
        <ele>43.426744</ele>
        <time>2016-06-03T08:02:18Z</time>
      </trkpt>
      <trkpt lat="42.69161" lon="2.89873">
        <ele>43.897521</ele>
        <time>2016-06-03T08:02:21Z</time>
      </trkpt>
      <trkpt lat="42.69155" lon="2.89865">
        <ele>43.906311</ele>
        <time>2016-06-03T08:02:23Z</time>
      </trkpt>
      <trkpt lat="42.69147" lon="2.89858">
        <ele>44.659579</ele>
        <time>2016-06-03T08:02:26Z</time>
      </trkpt>
      <trkpt lat="42.69145" lon="2.89857">
        <ele>45.507617</ele>
        <time>2016-06-03T08:02:34Z</time>
      </trkpt>
      <trkpt lat="42.69144" lon="2.89855">
        <ele>44.921956</ele>
        <time>2016-06-03T08:02:38Z</time>
      </trkpt>
      <trkpt lat="42.69134" lon="2.89843">
        <ele>44.74829</ele>
        <time>2016-06-03T08:02:41Z</time>
      </trkpt>
      <trkpt lat="42.69126" lon="2.89821">
        <ele>44.706429</ele>
        <time>2016-06-03T08:02:43Z</time>
      </trkpt>
      <trkpt lat="42.69124" lon="2.89791">
        <ele>44.589708</ele>
        <time>2016-06-03T08:02:45Z</time>
      </trkpt>
      <trkpt lat="42.69128" lon="2.89726">
        <ele>43.656999</ele>
        <time>2016-06-03T08:02:49Z</time>
      </trkpt>
      <trkpt lat="42.6913" lon="2.89678">
        <ele>42.956088</ele>
        <time>2016-06-03T08:02:52Z</time>
      </trkpt>
      <trkpt lat="42.69134" lon="2.89625">
        <ele>43.616167</ele>
        <time>2016-06-03T08:02:55Z</time>
      </trkpt>
      <trkpt lat="42.69137" lon="2.89566">
        <ele>41.553713</ele>
        <time>2016-06-03T08:02:58Z</time>
      </trkpt>
      <trkpt lat="42.69143" lon="2.89501">
        <ele>39.031812</ele>
        <time>2016-06-03T08:03:02Z</time>
      </trkpt>
      <trkpt lat="42.69147" lon="2.89443">
        <ele>37.753641</ele>
        <time>2016-06-03T08:03:06Z</time>
      </trkpt>
      <trkpt lat="42.69152" lon="2.89381">
        <ele>36.085982</ele>
        <time>2016-06-03T08:03:11Z</time>
      </trkpt>
      <trkpt lat="42.69153" lon="2.89357">
        <ele>35.732217</ele>
        <time>2016-06-03T08:03:13Z</time>
      </trkpt>
      <trkpt lat="42.69161" lon="2.89333">
        <ele>35.016164</ele>
        <time>2016-06-03T08:03:15Z</time>
      </trkpt>
      <trkpt lat="42.69182" lon="2.89297">
        <ele>34.343003</ele>
        <time>2016-06-03T08:03:18Z</time>
      </trkpt>
      <trkpt lat="42.69206" lon="2.89263">
        <ele>34.884411</ele>
        <time>2016-06-03T08:03:21Z</time>
      </trkpt>
      <trkpt lat="42.69235" lon="2.89223">
        <ele>34.42922</ele>
        <time>2016-06-03T08:03:25Z</time>
      </trkpt>
      <trkpt lat="42.69265" lon="2.89186">
        <ele>33.826099</ele>
        <time>2016-06-03T08:03:29Z</time>
      </trkpt>
      <trkpt lat="42.69281" lon="2.8916">
        <ele>33.472019</ele>
        <time>2016-06-03T08:03:32Z</time>
      </trkpt>
      <trkpt lat="42.69288" lon="2.89156">
        <ele>33.386523</ele>
        <time>2016-06-03T08:03:33Z</time>
      </trkpt>
      <trkpt lat="42.69297" lon="2.89136">
        <ele>33.121422</ele>
        <time>2016-06-03T08:03:35Z</time>
      </trkpt>
      <trkpt lat="42.69314" lon="2.89115">
        <ele>32.705633</ele>
        <time>2016-06-03T08:03:38Z</time>
      </trkpt>
      <trkpt lat="42.69327" lon="2.891">
        <ele>32.397139</ele>
        <time>2016-06-03T08:03:40Z</time>
      </trkpt>
      <trkpt lat="42.69344" lon="2.89076">
        <ele>32.390683</ele>
        <time>2016-06-03T08:03:43Z</time>
      </trkpt>
      <trkpt lat="42.69366" lon="2.89047">
        <ele>31.236873</ele>
        <time>2016-06-03T08:03:46Z</time>
      </trkpt>
      <trkpt lat="42.6939" lon="2.89017">
        <ele>30.370875</ele>
        <time>2016-06-03T08:03:49Z</time>
      </trkpt>
      <trkpt lat="42.6942" lon="2.88977">
        <ele>28.467031</ele>
        <time>2016-06-03T08:03:53Z</time>
      </trkpt>
      <trkpt lat="42.69439" lon="2.88948">
        <ele>27.868421</ele>
        <time>2016-06-03T08:03:56Z</time>
      </trkpt>
      <trkpt lat="42.69453" lon="2.88927">
        <ele>27.514657</ele>
        <time>2016-06-03T08:03:58Z</time>
      </trkpt>
      <trkpt lat="42.69469" lon="2.88911">
        <ele>26.410198</ele>
        <time>2016-06-03T08:04:00Z</time>
      </trkpt>
      <trkpt lat="42.69489" lon="2.88904">
        <ele>26.187669</ele>
        <time>2016-06-03T08:04:02Z</time>
      </trkpt>
      <trkpt lat="42.69516" lon="2.88892">
        <ele>26.255147</ele>
        <time>2016-06-03T08:04:05Z</time>
      </trkpt>
      <trkpt lat="42.69533" lon="2.88888">
        <ele>26.078769</ele>
        <time>2016-06-03T08:04:07Z</time>
      </trkpt>
      <trkpt lat="42.69554" lon="2.88877">
        <ele>26.870995</ele>
        <time>2016-06-03T08:04:10Z</time>
      </trkpt>
      <trkpt lat="42.6958" lon="2.88861">
        <ele>26.556422</ele>
        <time>2016-06-03T08:04:13Z</time>
      </trkpt>
      <trkpt lat="42.69595" lon="2.88855">
        <ele>26.196588</ele>
        <time>2016-06-03T08:04:15Z</time>
      </trkpt>
      <trkpt lat="42.696" lon="2.88851">
        <ele>26.354862</ele>
        <time>2016-06-03T08:04:16Z</time>
      </trkpt>
      <trkpt lat="42.6961" lon="2.88852">
        <ele>26.287534</ele>
        <time>2016-06-03T08:04:18Z</time>
      </trkpt>
      <trkpt lat="42.69619" lon="2.88846">
        <ele>26.215677</ele>
        <time>2016-06-03T08:04:21Z</time>
      </trkpt>
      <trkpt lat="42.6962" lon="2.88845">
        <ele>26.302164</ele>
        <time>2016-06-03T08:04:30Z</time>
      </trkpt>
      <trkpt lat="42.69618" lon="2.88841">
        <ele>26.410014</ele>
        <time>2016-06-03T08:04:41Z</time>
      </trkpt>
      <trkpt lat="42.69618" lon="2.88839">
        <ele>26.408075</ele>
        <time>2016-06-03T08:04:43Z</time>
      </trkpt>
      <trkpt lat="42.69632" lon="2.88834">
        <ele>26.431226</ele>
        <time>2016-06-03T08:04:46Z</time>
      </trkpt>
      <trkpt lat="42.69655" lon="2.88825">
        <ele>26.400654</ele>
        <time>2016-06-03T08:04:49Z</time>
      </trkpt>
      <trkpt lat="42.69666" lon="2.88817">
        <ele>26.473284</ele>
        <time>2016-06-03T08:04:51Z</time>
      </trkpt>
      <trkpt lat="42.69682" lon="2.88814">
        <ele>26.050676</ele>
        <time>2016-06-03T08:04:53Z</time>
      </trkpt>
      <trkpt lat="42.69703" lon="2.88806">
        <ele>26.45472</ele>
        <time>2016-06-03T08:04:56Z</time>
      </trkpt>
      <trkpt lat="42.69724" lon="2.88795">
        <ele>26.555605</ele>
        <time>2016-06-03T08:04:59Z</time>
      </trkpt>
      <trkpt lat="42.69744" lon="2.88784">
        <ele>26.657985</ele>
        <time>2016-06-03T08:05:02Z</time>
      </trkpt>
      <trkpt lat="42.69756" lon="2.88775">
        <ele>25.995412</ele>
        <time>2016-06-03T08:05:04Z</time>
      </trkpt>
      <trkpt lat="42.69782" lon="2.88767">
        <ele>26.093102</ele>
        <time>2016-06-03T08:05:08Z</time>
      </trkpt>
      <trkpt lat="42.69815" lon="2.88755">
        <ele>25.82881</ele>
        <time>2016-06-03T08:05:12Z</time>
      </trkpt>
      <trkpt lat="42.69821" lon="2.88752">
        <ele>26.007994</ele>
        <time>2016-06-03T08:05:12Z</time>
      </trkpt>
      <trkpt lat="42.69824" lon="2.88747">
        <ele>25.842954</ele>
        <time>2016-06-03T08:05:13Z</time>
      </trkpt>
      <trkpt lat="42.69857" lon="2.8873">
        <ele>26.34138</ele>
        <time>2016-06-03T08:05:17Z</time>
      </trkpt>
      <trkpt lat="42.6989" lon="2.88717">
        <ele>26.628624</ele>
        <time>2016-06-03T08:05:20Z</time>
      </trkpt>
      <trkpt lat="42.69918" lon="2.88702">
        <ele>26.517085</ele>
        <time>2016-06-03T08:05:23Z</time>
      </trkpt>
      <trkpt lat="42.69947" lon="2.8869">
        <ele>26.539388</ele>
        <time>2016-06-03T08:05:26Z</time>
      </trkpt>
      <trkpt lat="42.6998" lon="2.88672">
        <ele>25.16839</ele>
        <time>2016-06-03T08:05:29Z</time>
      </trkpt>
      <trkpt lat="42.70019" lon="2.88654">
        <ele>26.478026</ele>
        <time>2016-06-03T08:05:32Z</time>
      </trkpt>
      <trkpt lat="42.70058" lon="2.88631">
        <ele>26.811711</ele>
        <time>2016-06-03T08:05:35Z</time>
      </trkpt>
      <trkpt lat="42.70089" lon="2.88618">
        <ele>27.71251</ele>
        <time>2016-06-03T08:05:37Z</time>
      </trkpt>
      <trkpt lat="42.70119" lon="2.886">
        <ele>28.535634</ele>
        <time>2016-06-03T08:05:39Z</time>
      </trkpt>
      <trkpt lat="42.70155" lon="2.88585">
        <ele>28.67708</ele>
        <time>2016-06-03T08:05:41Z</time>
      </trkpt>
      <trkpt lat="42.70214" lon="2.8855">
        <ele>30.592844</ele>
        <time>2016-06-03T08:05:45Z</time>
      </trkpt>
      <trkpt lat="42.70282" lon="2.88517">
        <ele>29.187222</ele>
        <time>2016-06-03T08:05:49Z</time>
      </trkpt>
      <trkpt lat="42.70337" lon="2.88487">
        <ele>29.243074</ele>
        <time>2016-06-03T08:05:52Z</time>
      </trkpt>
      <trkpt lat="42.70427" lon="2.88436">
        <ele>26.389793</ele>
        <time>2016-06-03T08:05:57Z</time>
      </trkpt>
      <trkpt lat="42.70499" lon="2.88395">
        <ele>26.345675</ele>
        <time>2016-06-03T08:06:01Z</time>
      </trkpt>
      <trkpt lat="42.70556" lon="2.88362">
        <ele>25.690438</ele>
        <time>2016-06-03T08:06:04Z</time>
      </trkpt>
      <trkpt lat="42.70618" lon="2.88317">
        <ele>25.416309</ele>
        <time>2016-06-03T08:06:07Z</time>
      </trkpt>
      <trkpt lat="42.70679" lon="2.88255">
        <ele>27.027188</ele>
        <time>2016-06-03T08:06:10Z</time>
      </trkpt>
      <trkpt lat="42.70726" lon="2.88187">
        <ele>25.711338</ele>
        <time>2016-06-03T08:06:13Z</time>
      </trkpt>
      <trkpt lat="42.70755" lon="2.88135">
        <ele>28.662391</ele>
        <time>2016-06-03T08:06:15Z</time>
      </trkpt>
      <trkpt lat="42.70794" lon="2.88041">
        <ele>27.480631</ele>
        <time>2016-06-03T08:06:18Z</time>
      </trkpt>
      <trkpt lat="42.70829" lon="2.87938">
        <ele>28.978073</ele>
        <time>2016-06-03T08:06:21Z</time>
      </trkpt>
      <trkpt lat="42.70863" lon="2.87828">
        <ele>32.625866</ele>
        <time>2016-06-03T08:06:24Z</time>
      </trkpt>
      <trkpt lat="42.70901" lon="2.87722">
        <ele>31.94143</ele>
        <time>2016-06-03T08:06:27Z</time>
      </trkpt>
      <trkpt lat="42.70928" lon="2.87656">
        <ele>32.76147</ele>
        <time>2016-06-03T08:06:29Z</time>
      </trkpt>
      <trkpt lat="42.70977" lon="2.87567">
        <ele>33.572919</ele>
        <time>2016-06-03T08:06:32Z</time>
      </trkpt>
      <trkpt lat="42.71033" lon="2.87486">
        <ele>33.382266</ele>
        <time>2016-06-03T08:06:35Z</time>
      </trkpt>
      <trkpt lat="42.71095" lon="2.87412">
        <ele>34.38487</ele>
        <time>2016-06-03T08:06:38Z</time>
      </trkpt>
      <trkpt lat="42.71139" lon="2.8737">
        <ele>33.899547</ele>
        <time>2016-06-03T08:06:40Z</time>
      </trkpt>
      <trkpt lat="42.71184" lon="2.87338">
        <ele>33.65663</ele>
        <time>2016-06-03T08:06:42Z</time>
      </trkpt>
      <trkpt lat="42.71232" lon="2.87313">
        <ele>32.53809</ele>
        <time>2016-06-03T08:06:44Z</time>
      </trkpt>
      <trkpt lat="42.71309" lon="2.87296">
        <ele>32.897632</ele>
        <time>2016-06-03T08:06:47Z</time>
      </trkpt>
      <trkpt lat="42.71384" lon="2.87294">
        <ele>32.651988</ele>
        <time>2016-06-03T08:06:50Z</time>
      </trkpt>
      <trkpt lat="42.71449" lon="2.873">
        <ele>30.734778</ele>
        <time>2016-06-03T08:06:53Z</time>
      </trkpt>
      <trkpt lat="42.71531" lon="2.87312">
        <ele>31.696898</ele>
        <time>2016-06-03T08:06:57Z</time>
      </trkpt>
      <trkpt lat="42.71613" lon="2.8733">
        <ele>31.297397</ele>
        <time>2016-06-03T08:07:01Z</time>
      </trkpt>
      <trkpt lat="42.71677" lon="2.87342">
        <ele>32.786369</ele>
        <time>2016-06-03T08:07:04Z</time>
      </trkpt>
      <trkpt lat="42.71761" lon="2.87364">
        <ele>33.057313</ele>
        <time>2016-06-03T08:07:08Z</time>
      </trkpt>
      <trkpt lat="42.71851" lon="2.87391">
        <ele>31.903936</ele>
        <time>2016-06-03T08:07:12Z</time>
      </trkpt>
      <trkpt lat="42.71932" lon="2.87412">
        <ele>32.329449</ele>
        <time>2016-06-03T08:07:15Z</time>
      </trkpt>
      <trkpt lat="42.71987" lon="2.8743">
        <ele>33.936372</ele>
        <time>2016-06-03T08:07:17Z</time>
      </trkpt>
      <trkpt lat="42.72069" lon="2.87466">
        <ele>34.057592</ele>
        <time>2016-06-03T08:07:20Z</time>
      </trkpt>
      <trkpt lat="42.72145" lon="2.87506">
        <ele>34.457851</ele>
        <time>2016-06-03T08:07:23Z</time>
      </trkpt>
      <trkpt lat="42.72272" lon="2.87582">
        <ele>32.741116</ele>
        <time>2016-06-03T08:07:28Z</time>
      </trkpt>
      <trkpt lat="42.72373" lon="2.87646">
        <ele>33.881985</ele>
        <time>2016-06-03T08:07:32Z</time>
      </trkpt>
      <trkpt lat="42.72452" lon="2.877">
        <ele>33.30331</ele>
        <time>2016-06-03T08:07:35Z</time>
      </trkpt>
      <trkpt lat="42.72528" lon="2.87759">
        <ele>33.391872</ele>
        <time>2016-06-03T08:07:38Z</time>
      </trkpt>
      <trkpt lat="42.72682" lon="2.87888">
        <ele>36.424465</ele>
        <time>2016-06-03T08:07:44Z</time>
      </trkpt>
      <trkpt lat="42.72762" lon="2.87949">
        <ele>36.620632</ele>
        <time>2016-06-03T08:07:47Z</time>
      </trkpt>
      <trkpt lat="42.72839" lon="2.88007">
        <ele>37.260098</ele>
        <time>2016-06-03T08:07:50Z</time>
      </trkpt>
      <trkpt lat="42.72943" lon="2.88085">
        <ele>35.492214</ele>
        <time>2016-06-03T08:07:54Z</time>
      </trkpt>
      <trkpt lat="42.73077" lon="2.88176">
        <ele>36.456142</ele>
        <time>2016-06-03T08:07:59Z</time>
      </trkpt>
      <trkpt lat="42.73204" lon="2.88255">
        <ele>37.920315</ele>
        <time>2016-06-03T08:08:04Z</time>
      </trkpt>
      <trkpt lat="42.73279" lon="2.88301">
        <ele>39.539761</ele>
        <time>2016-06-03T08:08:07Z</time>
      </trkpt>
      <trkpt lat="42.73384" lon="2.88362">
        <ele>38.495449</ele>
        <time>2016-06-03T08:08:11Z</time>
      </trkpt>
      <trkpt lat="42.73462" lon="2.88407">
        <ele>38.153896</ele>
        <time>2016-06-03T08:08:14Z</time>
      </trkpt>
      <trkpt lat="42.73569" lon="2.88471">
        <ele>39.642239</ele>
        <time>2016-06-03T08:08:18Z</time>
      </trkpt>
      <trkpt lat="42.73702" lon="2.88556">
        <ele>39.454006</ele>
        <time>2016-06-03T08:08:23Z</time>
      </trkpt>
      <trkpt lat="42.73779" lon="2.88609">
        <ele>38.218533</ele>
        <time>2016-06-03T08:08:26Z</time>
      </trkpt>
      <trkpt lat="42.73881" lon="2.88684">
        <ele>37.60458</ele>
        <time>2016-06-03T08:08:30Z</time>
      </trkpt>
      <trkpt lat="42.73983" lon="2.88761">
        <ele>37.704128</ele>
        <time>2016-06-03T08:08:34Z</time>
      </trkpt>
      <trkpt lat="42.74033" lon="2.88802">
        <ele>35.285793</ele>
        <time>2016-06-03T08:08:36Z</time>
      </trkpt>
      <trkpt lat="42.7411" lon="2.88858">
        <ele>35.129238</ele>
        <time>2016-06-03T08:08:39Z</time>
      </trkpt>
      <trkpt lat="42.74214" lon="2.8894">
        <ele>35.413845</ele>
        <time>2016-06-03T08:08:43Z</time>
      </trkpt>
      <trkpt lat="42.74287" lon="2.89004">
        <ele>34.758938</ele>
        <time>2016-06-03T08:08:46Z</time>
      </trkpt>
      <trkpt lat="42.74328" lon="2.89053">
        <ele>36.043606</ele>
        <time>2016-06-03T08:08:48Z</time>
      </trkpt>
      <trkpt lat="42.74382" lon="2.89133">
        <ele>36.111111</ele>
        <time>2016-06-03T08:08:51Z</time>
      </trkpt>
      <trkpt lat="42.74435" lon="2.89214">
        <ele>35.24081</ele>
        <time>2016-06-03T08:08:54Z</time>
      </trkpt>
      <trkpt lat="42.74495" lon="2.89284">
        <ele>33.920986</ele>
        <time>2016-06-03T08:08:57Z</time>
      </trkpt>
      <trkpt lat="42.74564" lon="2.89337">
        <ele>30.64883</ele>
        <time>2016-06-03T08:09:00Z</time>
      </trkpt>
      <trkpt lat="42.74617" lon="2.89368">
        <ele>28.706203</ele>
        <time>2016-06-03T08:09:02Z</time>
      </trkpt>
      <trkpt lat="42.74705" lon="2.89399">
        <ele>30.04269</ele>
        <time>2016-06-03T08:09:05Z</time>
      </trkpt>
      <trkpt lat="42.74817" lon="2.8943">
        <ele>30.095669</ele>
        <time>2016-06-03T08:09:09Z</time>
      </trkpt>
      <trkpt lat="42.74946" lon="2.89468">
        <ele>31.694424</ele>
        <time>2016-06-03T08:09:14Z</time>
      </trkpt>
      <trkpt lat="42.75081" lon="2.89508">
        <ele>34.11166</ele>
        <time>2016-06-03T08:09:19Z</time>
      </trkpt>
      <trkpt lat="42.75189" lon="2.89539">
        <ele>33.14468</ele>
        <time>2016-06-03T08:09:23Z</time>
      </trkpt>
      <trkpt lat="42.7527" lon="2.8956">
        <ele>32.499844</ele>
        <time>2016-06-03T08:09:26Z</time>
      </trkpt>
      <trkpt lat="42.7535" lon="2.89583">
        <ele>30.358242</ele>
        <time>2016-06-03T08:09:29Z</time>
      </trkpt>
      <trkpt lat="42.75464" lon="2.89609">
        <ele>23.258877</ele>
        <time>2016-06-03T08:09:33Z</time>
      </trkpt>
      <trkpt lat="42.75609" lon="2.89647">
        <ele>19.831142</ele>
        <time>2016-06-03T08:09:38Z</time>
      </trkpt>
      <trkpt lat="42.75731" lon="2.89678">
        <ele>21.075527</ele>
        <time>2016-06-03T08:09:42Z</time>
      </trkpt>
      <trkpt lat="42.75817" lon="2.89704">
        <ele>20.208279</ele>
        <time>2016-06-03T08:09:45Z</time>
      </trkpt>
      <trkpt lat="42.75928" lon="2.89741">
        <ele>20.983364</ele>
        <time>2016-06-03T08:09:49Z</time>
      </trkpt>
      <trkpt lat="42.76013" lon="2.89767">
        <ele>20.750027</ele>
        <time>2016-06-03T08:09:52Z</time>
      </trkpt>
      <trkpt lat="42.76099" lon="2.89788">
        <ele>21.354214</ele>
        <time>2016-06-03T08:09:55Z</time>
      </trkpt>
      <trkpt lat="42.7621" lon="2.89823">
        <ele>20.645168</ele>
        <time>2016-06-03T08:09:59Z</time>
      </trkpt>
      <trkpt lat="42.76268" lon="2.89839">
        <ele>19.391689</ele>
        <time>2016-06-03T08:10:01Z</time>
      </trkpt>
      <trkpt lat="42.76382" lon="2.89878">
        <ele>19.067043</ele>
        <time>2016-06-03T08:10:05Z</time>
      </trkpt>
      <trkpt lat="42.76527" lon="2.89922">
        <ele>19.843227</ele>
        <time>2016-06-03T08:10:10Z</time>
      </trkpt>
      <trkpt lat="42.76599" lon="2.89943">
        <ele>20.097012</ele>
        <time>2016-06-03T08:10:13Z</time>
      </trkpt>
      <trkpt lat="42.76665" lon="2.89963">
        <ele>18.548916</ele>
        <time>2016-06-03T08:10:16Z</time>
      </trkpt>
      <trkpt lat="42.76742" lon="2.89989">
        <ele>18.730312</ele>
        <time>2016-06-03T08:10:20Z</time>
      </trkpt>
      <trkpt lat="42.76784" lon="2.90003">
        <ele>13.038258</ele>
        <time>2016-06-03T08:10:23Z</time>
      </trkpt>
      <trkpt lat="42.76822" lon="2.9002">
        <ele>13.180533</ele>
        <time>2016-06-03T08:10:26Z</time>
      </trkpt>
      <trkpt lat="42.76843" lon="2.90034">
        <ele>13.375313</ele>
        <time>2016-06-03T08:10:28Z</time>
      </trkpt>
      <trkpt lat="42.7685" lon="2.90042">
        <ele>13.394142</ele>
        <time>2016-06-03T08:10:29Z</time>
      </trkpt>
      <trkpt lat="42.7685" lon="2.90063">
        <ele>13.398801</ele>
        <time>2016-06-03T08:10:31Z</time>
      </trkpt>
      <trkpt lat="42.76844" lon="2.90082">
        <ele>13.695961</ele>
        <time>2016-06-03T08:10:33Z</time>
      </trkpt>
      <trkpt lat="42.7683" lon="2.90099">
        <ele>13.407941</ele>
        <time>2016-06-03T08:10:36Z</time>
      </trkpt>
      <trkpt lat="42.76826" lon="2.90098">
        <ele>13.495007</ele>
        <time>2016-06-03T08:10:38Z</time>
      </trkpt>
      <trkpt lat="42.76822" lon="2.90106">
        <ele>13.433429</ele>
        <time>2016-06-03T08:10:40Z</time>
      </trkpt>
      <trkpt lat="42.76826" lon="2.90118">
        <ele>13.597172</ele>
        <time>2016-06-03T08:10:42Z</time>
      </trkpt>
      <trkpt lat="42.76832" lon="2.90163">
        <ele>13.453228</ele>
        <time>2016-06-03T08:10:46Z</time>
      </trkpt>
      <trkpt lat="42.76846" lon="2.90179">
        <ele>13.568389</ele>
        <time>2016-06-03T08:10:48Z</time>
      </trkpt>
      <trkpt lat="42.76866" lon="2.90187">
        <ele>14.023283</ele>
        <time>2016-06-03T08:10:50Z</time>
      </trkpt>
      <trkpt lat="42.76925" lon="2.90204">
        <ele>12.922626</ele>
        <time>2016-06-03T08:10:54Z</time>
      </trkpt>
      <trkpt lat="42.7699" lon="2.9022">
        <ele>14.077859</ele>
        <time>2016-06-03T08:10:58Z</time>
      </trkpt>
      <trkpt lat="42.77035" lon="2.9023">
        <ele>13.790814</ele>
        <time>2016-06-03T08:11:01Z</time>
      </trkpt>
      <trkpt lat="42.77062" lon="2.90239">
        <ele>14.244653</ele>
        <time>2016-06-03T08:11:03Z</time>
      </trkpt>
      <trkpt lat="42.77078" lon="2.90239">
        <ele>14.483782</ele>
        <time>2016-06-03T08:11:04Z</time>
      </trkpt>
      <trkpt lat="42.77109" lon="2.90218">
        <ele>14.584791</ele>
        <time>2016-06-03T08:11:06Z</time>
      </trkpt>
      <trkpt lat="42.77163" lon="2.90199">
        <ele>15.064231</ele>
        <time>2016-06-03T08:11:10Z</time>
      </trkpt>
      <trkpt lat="42.77185" lon="2.90187">
        <ele>14.904455</ele>
        <time>2016-06-03T08:11:13Z</time>
      </trkpt>
      <trkpt lat="42.77199" lon="2.90164">
        <ele>14.845472</ele>
        <time>2016-06-03T08:11:15Z</time>
      </trkpt>
      <trkpt lat="42.77218" lon="2.90122">
        <ele>12.663762</ele>
        <time>2016-06-03T08:11:18Z</time>
      </trkpt>
      <trkpt lat="42.77217" lon="2.90099">
        <ele>11.923304</ele>
        <time>2016-06-03T08:11:20Z</time>
      </trkpt>
      <trkpt lat="42.77211" lon="2.90081">
        <ele>13.063382</ele>
        <time>2016-06-03T08:11:22Z</time>
      </trkpt>
      <trkpt lat="42.77198" lon="2.90074">
        <ele>14.205811</ele>
        <time>2016-06-03T08:11:24Z</time>
      </trkpt>
      <trkpt lat="42.77178" lon="2.90074">
        <ele>15.410368</ele>
        <time>2016-06-03T08:11:26Z</time>
      </trkpt>
      <trkpt lat="42.77146" lon="2.90069">
        <ele>15.901817</ele>
        <time>2016-06-03T08:11:29Z</time>
      </trkpt>
      <trkpt lat="42.77131" lon="2.90057">
        <ele>15.136669</ele>
        <time>2016-06-03T08:11:31Z</time>
      </trkpt>
      <trkpt lat="42.77123" lon="2.90034">
        <ele>14.537602</ele>
        <time>2016-06-03T08:11:33Z</time>
      </trkpt>
      <trkpt lat="42.77121" lon="2.89976">
        <ele>14.890458</ele>
        <time>2016-06-03T08:11:36Z</time>
      </trkpt>
      <trkpt lat="42.77122" lon="2.89892">
        <ele>14.056325</ele>
        <time>2016-06-03T08:11:41Z</time>
      </trkpt>
      <trkpt lat="42.77113" lon="2.89869">
        <ele>14.688044</ele>
        <time>2016-06-03T08:11:43Z</time>
      </trkpt>
      <trkpt lat="42.77103" lon="2.89855">
        <ele>13.943918</ele>
        <time>2016-06-03T08:11:45Z</time>
      </trkpt>
      <trkpt lat="42.77102" lon="2.89837">
        <ele>14.199344</ele>
        <time>2016-06-03T08:11:47Z</time>
      </trkpt>
      <trkpt lat="42.77113" lon="2.89788">
        <ele>15.071991</ele>
        <time>2016-06-03T08:11:50Z</time>
      </trkpt>
      <trkpt lat="42.7712" lon="2.89747">
        <ele>16.027112</ele>
        <time>2016-06-03T08:11:52Z</time>
      </trkpt>
      <trkpt lat="42.77122" lon="2.89678">
        <ele>16.076627</ele>
        <time>2016-06-03T08:11:55Z</time>
      </trkpt>
      <trkpt lat="42.77122" lon="2.89567">
        <ele>16.473743</ele>
        <time>2016-06-03T08:11:59Z</time>
      </trkpt>
      <trkpt lat="42.77122" lon="2.8946">
        <ele>20.759526</ele>
        <time>2016-06-03T08:12:03Z</time>
      </trkpt>
      <trkpt lat="42.7712" lon="2.89345">
        <ele>25.353191</ele>
        <time>2016-06-03T08:12:07Z</time>
      </trkpt>
      <trkpt lat="42.7712" lon="2.89194">
        <ele>25.577961</ele>
        <time>2016-06-03T08:12:12Z</time>
      </trkpt>
      <trkpt lat="42.77121" lon="2.89106">
        <ele>22.942679</ele>
        <time>2016-06-03T08:12:15Z</time>
      </trkpt>
      <trkpt lat="42.77119" lon="2.88982">
        <ele>20.061843</ele>
        <time>2016-06-03T08:12:20Z</time>
      </trkpt>
      <trkpt lat="42.77119" lon="2.88888">
        <ele>18.898614</ele>
        <time>2016-06-03T08:12:22Z</time>
      </trkpt>
      <trkpt lat="42.77119" lon="2.88769">
        <ele>17.484863</ele>
        <time>2016-06-03T08:12:27Z</time>
      </trkpt>
      <trkpt lat="42.77119" lon="2.88694">
        <ele>18.014172</ele>
        <time>2016-06-03T08:12:30Z</time>
      </trkpt>
      <trkpt lat="42.77118" lon="2.886">
        <ele>17.565326</ele>
        <time>2016-06-03T08:12:34Z</time>
      </trkpt>
      <trkpt lat="42.77118" lon="2.88532">
        <ele>17.802668</ele>
        <time>2016-06-03T08:12:37Z</time>
      </trkpt>
      <trkpt lat="42.77119" lon="2.88467">
        <ele>18.073169</ele>
        <time>2016-06-03T08:12:41Z</time>
      </trkpt>
      <trkpt lat="42.77125" lon="2.88427">
        <ele>18.060676</ele>
        <time>2016-06-03T08:12:45Z</time>
      </trkpt>
      <trkpt lat="42.77121" lon="2.88393">
        <ele>18.254641</ele>
        <time>2016-06-03T08:12:48Z</time>
      </trkpt>
      <trkpt lat="42.7712" lon="2.88353">
        <ele>18.961792</ele>
        <time>2016-06-03T08:12:51Z</time>
      </trkpt>
      <trkpt lat="42.7712" lon="2.883">
        <ele>18.608662</ele>
        <time>2016-06-03T08:12:55Z</time>
      </trkpt>
      <trkpt lat="42.77122" lon="2.88262">
        <ele>18.543986</ele>
        <time>2016-06-03T08:12:58Z</time>
      </trkpt>
      <trkpt lat="42.77123" lon="2.88237">
        <ele>18.304802</ele>
        <time>2016-06-03T08:13:00Z</time>
      </trkpt>
      <trkpt lat="42.7712" lon="2.88191">
        <ele>18.702627</ele>
        <time>2016-06-03T08:13:04Z</time>
      </trkpt>
      <trkpt lat="42.77119" lon="2.88153">
        <ele>18.735985</ele>
        <time>2016-06-03T08:13:07Z</time>
      </trkpt>
      <trkpt lat="42.7712" lon="2.88092">
        <ele>19.248245</ele>
        <time>2016-06-03T08:13:12Z</time>
      </trkpt>
      <trkpt lat="42.7712" lon="2.88041">
        <ele>19.584033</ele>
        <time>2016-06-03T08:13:16Z</time>
      </trkpt>
      <trkpt lat="42.7712" lon="2.87992">
        <ele>19.396199</ele>
        <time>2016-06-03T08:13:20Z</time>
      </trkpt>
      <trkpt lat="42.77119" lon="2.87924">
        <ele>19.347956</ele>
        <time>2016-06-03T08:13:24Z</time>
      </trkpt>
      <trkpt lat="42.77117" lon="2.8786">
        <ele>20.696201</ele>
        <time>2016-06-03T08:13:28Z</time>
      </trkpt>
      <trkpt lat="42.77113" lon="2.87819">
        <ele>20.325844</ele>
        <time>2016-06-03T08:13:31Z</time>
      </trkpt>
      <trkpt lat="42.77105" lon="2.87793">
        <ele>20.674236</ele>
        <time>2016-06-03T08:13:33Z</time>
      </trkpt>
      <trkpt lat="42.77083" lon="2.87761">
        <ele>20.961451</ele>
        <time>2016-06-03T08:13:36Z</time>
      </trkpt>
      <trkpt lat="42.77047" lon="2.87732">
        <ele>21.158381</ele>
        <time>2016-06-03T08:13:40Z</time>
      </trkpt>
      <trkpt lat="42.77016" lon="2.87709">
        <ele>20.86158</ele>
        <time>2016-06-03T08:13:44Z</time>
      </trkpt>
      <trkpt lat="42.76981" lon="2.87682">
        <ele>21.013146</ele>
        <time>2016-06-03T08:13:48Z</time>
      </trkpt>
      <trkpt lat="42.76964" lon="2.87669">
        <ele>20.36879</ele>
        <time>2016-06-03T08:13:50Z</time>
      </trkpt>
      <trkpt lat="42.76951" lon="2.87656">
        <ele>20.795543</ele>
        <time>2016-06-03T08:13:52Z</time>
      </trkpt>
      <trkpt lat="42.76918" lon="2.8763">
        <ele>20.769141</ele>
        <time>2016-06-03T08:13:56Z</time>
      </trkpt>
      <trkpt lat="42.76903" lon="2.87616">
        <ele>20.140337</ele>
        <time>2016-06-03T08:13:58Z</time>
      </trkpt>
      <trkpt lat="42.76887" lon="2.87607">
        <ele>19.919625</ele>
        <time>2016-06-03T08:14:00Z</time>
      </trkpt>
      <trkpt lat="42.76868" lon="2.87581">
        <ele>19.875385</ele>
        <time>2016-06-03T08:14:04Z</time>
      </trkpt>
      <trkpt lat="42.76855" lon="2.87553">
        <ele>20.160915</ele>
        <time>2016-06-03T08:14:07Z</time>
      </trkpt>
      <trkpt lat="42.76848" lon="2.87527">
        <ele>20.371936</ele>
        <time>2016-06-03T08:14:10Z</time>
      </trkpt>
      <trkpt lat="42.76847" lon="2.87497">
        <ele>20.090621</ele>
        <time>2016-06-03T08:14:13Z</time>
      </trkpt>
      <trkpt lat="42.76846" lon="2.87464">
        <ele>20.468786</ele>
        <time>2016-06-03T08:14:16Z</time>
      </trkpt>
      <trkpt lat="42.76848" lon="2.87433">
        <ele>20.207703</ele>
        <time>2016-06-03T08:14:19Z</time>
      </trkpt>
      <trkpt lat="42.76845" lon="2.87411">
        <ele>20.650718</ele>
        <time>2016-06-03T08:14:21Z</time>
      </trkpt>
      <trkpt lat="42.76847" lon="2.87389">
        <ele>20.609517</ele>
        <time>2016-06-03T08:14:23Z</time>
      </trkpt>
      <trkpt lat="42.76852" lon="2.87363">
        <ele>20.372891</ele>
        <time>2016-06-03T08:14:25Z</time>
      </trkpt>
      <trkpt lat="42.76859" lon="2.87344">
        <ele>20.8985</ele>
        <time>2016-06-03T08:14:27Z</time>
      </trkpt>
      <trkpt lat="42.7686" lon="2.87309">
        <ele>21.134825</ele>
        <time>2016-06-03T08:14:30Z</time>
      </trkpt>
      <trkpt lat="42.76861" lon="2.8729">
        <ele>20.883615</ele>
        <time>2016-06-03T08:14:32Z</time>
      </trkpt>
      <trkpt lat="42.76863" lon="2.87261">
        <ele>20.78207</ele>
        <time>2016-06-03T08:14:35Z</time>
      </trkpt>
      <trkpt lat="42.76864" lon="2.87231">
        <ele>21.118931</ele>
        <time>2016-06-03T08:14:38Z</time>
      </trkpt>
      <trkpt lat="42.76865" lon="2.87216">
        <ele>21.57468</ele>
        <time>2016-06-03T08:14:40Z</time>
      </trkpt>
      <trkpt lat="42.76865" lon="2.87191">
        <ele>21.598591</ele>
        <time>2016-06-03T08:14:44Z</time>
      </trkpt>
      <trkpt lat="42.76865" lon="2.87186">
        <ele>21.594861</ele>
        <time>2016-06-03T08:14:45Z</time>
      </trkpt>
      <trkpt lat="42.76859" lon="2.87174">
        <ele>21.701665</ele>
        <time>2016-06-03T08:14:47Z</time>
      </trkpt>
      <trkpt lat="42.76861" lon="2.87161">
        <ele>21.880964</ele>
        <time>2016-06-03T08:14:49Z</time>
      </trkpt>
      <trkpt lat="42.76873" lon="2.87138">
        <ele>21.494478</ele>
        <time>2016-06-03T08:14:52Z</time>
      </trkpt>
      <trkpt lat="42.76884" lon="2.87122">
        <ele>21.527382</ele>
        <time>2016-06-03T08:14:55Z</time>
      </trkpt>
      <trkpt lat="42.76905" lon="2.87123">
        <ele>21.471486</ele>
        <time>2016-06-03T08:14:58Z</time>
      </trkpt>
      <trkpt lat="42.76915" lon="2.87124">
        <ele>21.171954</ele>
        <time>2016-06-03T08:15:00Z</time>
      </trkpt>
      <trkpt lat="42.7693" lon="2.87124">
        <ele>21.334511</ele>
        <time>2016-06-03T08:15:03Z</time>
      </trkpt>
      <trkpt lat="42.76943" lon="2.87126">
        <ele>21.456143</ele>
        <time>2016-06-03T08:15:05Z</time>
      </trkpt>
      <trkpt lat="42.76956" lon="2.87123">
        <ele>21.476855</ele>
        <time>2016-06-03T08:15:07Z</time>
      </trkpt>
      <trkpt lat="42.76981" lon="2.87123">
        <ele>22.085493</ele>
        <time>2016-06-03T08:15:11Z</time>
      </trkpt>
      <trkpt lat="42.76999" lon="2.87121">
        <ele>21.540539</ele>
        <time>2016-06-03T08:15:14Z</time>
      </trkpt>
      <trkpt lat="42.77007" lon="2.87123">
        <ele>21.892745</ele>
        <time>2016-06-03T08:15:17Z</time>
      </trkpt>
      <trkpt lat="42.77015" lon="2.8712">
        <ele>22.044465</ele>
        <time>2016-06-03T08:15:20Z</time>
      </trkpt>
      <trkpt lat="42.7702" lon="2.87114">
        <ele>22.291476</ele>
        <time>2016-06-03T08:15:21Z</time>
      </trkpt>
      <trkpt lat="42.77024" lon="2.87115">
        <ele>22.328086</ele>
        <time>2016-06-03T08:15:24Z</time>
      </trkpt>
      <trkpt lat="42.77035" lon="2.87113">
        <ele>22.469284</ele>
        <time>2016-06-03T08:15:28Z</time>
      </trkpt>
      <trkpt lat="42.77048" lon="2.87115">
        <ele>22.099724</ele>
        <time>2016-06-03T08:15:31Z</time>
      </trkpt>
      <trkpt lat="42.77058" lon="2.87118">
        <ele>22.316724</ele>
        <time>2016-06-03T08:15:34Z</time>
      </trkpt>
      <trkpt lat="42.77068" lon="2.87119">
        <ele>22.287542</ele>
        <time>2016-06-03T08:15:37Z</time>
      </trkpt>
      <trkpt lat="42.7708" lon="2.87124">
        <ele>22.444802</ele>
        <time>2016-06-03T08:15:40Z</time>
      </trkpt>
      <trkpt lat="42.77093" lon="2.87127">
        <ele>22.45946</ele>
        <time>2016-06-03T08:15:43Z</time>
      </trkpt>
      <trkpt lat="42.77123" lon="2.87135">
        <ele>22.979439</ele>
        <time>2016-06-03T08:15:47Z</time>
      </trkpt>
      <trkpt lat="42.77163" lon="2.87143">
        <ele>24.33401</ele>
        <time>2016-06-03T08:15:51Z</time>
      </trkpt>
      <trkpt lat="42.77215" lon="2.87153">
        <ele>24.227267</ele>
        <time>2016-06-03T08:15:56Z</time>
      </trkpt>
      <trkpt lat="42.7726" lon="2.87163">
        <ele>23.083731</ele>
        <time>2016-06-03T08:16:01Z</time>
      </trkpt>
      <trkpt lat="42.77289" lon="2.8717">
        <ele>22.526212</ele>
        <time>2016-06-03T08:16:04Z</time>
      </trkpt>
      <trkpt lat="42.77321" lon="2.87174">
        <ele>21.63733</ele>
        <time>2016-06-03T08:16:07Z</time>
      </trkpt>
      <trkpt lat="42.77354" lon="2.87175">
        <ele>20.898769</ele>
        <time>2016-06-03T08:16:10Z</time>
      </trkpt>
      <trkpt lat="42.774" lon="2.87172">
        <ele>19.538514</ele>
        <time>2016-06-03T08:16:15Z</time>
      </trkpt>
      <trkpt lat="42.77429" lon="2.87171">
        <ele>18.818451</ele>
        <time>2016-06-03T08:16:19Z</time>
      </trkpt>
      <trkpt lat="42.77448" lon="2.87174">
        <ele>19.094499</ele>
        <time>2016-06-03T08:16:22Z</time>
      </trkpt>
      <trkpt lat="42.77458" lon="2.87171">
        <ele>18.858025</ele>
        <time>2016-06-03T08:16:24Z</time>
      </trkpt>
      <trkpt lat="42.77476" lon="2.87155">
        <ele>19.120804</ele>
        <time>2016-06-03T08:16:27Z</time>
      </trkpt>
      <trkpt lat="42.7751" lon="2.87129">
        <ele>19.409446</ele>
        <time>2016-06-03T08:16:31Z</time>
      </trkpt>
      <trkpt lat="42.77549" lon="2.87103">
        <ele>20.051868</ele>
        <time>2016-06-03T08:16:35Z</time>
      </trkpt>
      <trkpt lat="42.77581" lon="2.87079">
        <ele>19.586061</ele>
        <time>2016-06-03T08:16:38Z</time>
      </trkpt>
      <trkpt lat="42.77597" lon="2.87061">
        <ele>19.388053</ele>
        <time>2016-06-03T08:16:40Z</time>
      </trkpt>
      <trkpt lat="42.77618" lon="2.8702">
        <ele>20.376919</ele>
        <time>2016-06-03T08:16:43Z</time>
      </trkpt>
      <trkpt lat="42.77649" lon="2.86965">
        <ele>20.707085</ele>
        <time>2016-06-03T08:16:47Z</time>
      </trkpt>
      <trkpt lat="42.77671" lon="2.86927">
        <ele>21.925948</ele>
        <time>2016-06-03T08:16:50Z</time>
      </trkpt>
      <trkpt lat="42.77691" lon="2.86889">
        <ele>21.339656</ele>
        <time>2016-06-03T08:16:53Z</time>
      </trkpt>
      <trkpt lat="42.77705" lon="2.86869">
        <ele>21.472403</ele>
        <time>2016-06-03T08:16:55Z</time>
      </trkpt>
      <trkpt lat="42.77721" lon="2.8684">
        <ele>21.506487</ele>
        <time>2016-06-03T08:16:58Z</time>
      </trkpt>
      <trkpt lat="42.77731" lon="2.86817">
        <ele>21.519801</ele>
        <time>2016-06-03T08:17:00Z</time>
      </trkpt>
      <trkpt lat="42.77736" lon="2.86791">
        <ele>20.698171</ele>
        <time>2016-06-03T08:17:02Z</time>
      </trkpt>
      <trkpt lat="42.77738" lon="2.86757">
        <ele>19.642373</ele>
        <time>2016-06-03T08:17:05Z</time>
      </trkpt>
      <trkpt lat="42.77742" lon="2.8674">
        <ele>19.45588</ele>
        <time>2016-06-03T08:17:07Z</time>
      </trkpt>
      <trkpt lat="42.77751" lon="2.86728">
        <ele>19.311614</ele>
        <time>2016-06-03T08:17:09Z</time>
      </trkpt>
      <trkpt lat="42.77761" lon="2.86725">
        <ele>19.207239</ele>
        <time>2016-06-03T08:17:11Z</time>
      </trkpt>
      <trkpt lat="42.77766" lon="2.86725">
        <ele>19.441367</ele>
        <time>2016-06-03T08:17:12Z</time>
      </trkpt>
      <trkpt lat="42.77784" lon="2.86744">
        <ele>20.015944</ele>
        <time>2016-06-03T08:17:14Z</time>
      </trkpt>
      <trkpt lat="42.77811" lon="2.86767">
        <ele>22.369945</ele>
        <time>2016-06-03T08:17:17Z</time>
      </trkpt>
      <trkpt lat="42.77842" lon="2.86796">
        <ele>22.377918</ele>
        <time>2016-06-03T08:17:20Z</time>
      </trkpt>
      <trkpt lat="42.77872" lon="2.86823">
        <ele>22.710692</ele>
        <time>2016-06-03T08:17:23Z</time>
      </trkpt>
      <trkpt lat="42.77906" lon="2.86856">
        <ele>23.175928</ele>
        <time>2016-06-03T08:17:27Z</time>
      </trkpt>
      <trkpt lat="42.77933" lon="2.8688">
        <ele>24.614329</ele>
        <time>2016-06-03T08:17:30Z</time>
      </trkpt>
      <trkpt lat="42.77951" lon="2.869">
        <ele>24.322394</ele>
        <time>2016-06-03T08:17:32Z</time>
      </trkpt>
      <trkpt lat="42.77986" lon="2.86942">
        <ele>24.818514</ele>
        <time>2016-06-03T08:17:35Z</time>
      </trkpt>
      <trkpt lat="42.78011" lon="2.86973">
        <ele>23.792093</ele>
        <time>2016-06-03T08:17:37Z</time>
      </trkpt>
      <trkpt lat="42.78043" lon="2.87026">
        <ele>24.710889</ele>
        <time>2016-06-03T08:17:40Z</time>
      </trkpt>
      <trkpt lat="42.78084" lon="2.87094">
        <ele>23.774735</ele>
        <time>2016-06-03T08:17:44Z</time>
      </trkpt>
      <trkpt lat="42.78107" lon="2.87132">
        <ele>24.23586</ele>
        <time>2016-06-03T08:17:46Z</time>
      </trkpt>
      <trkpt lat="42.78151" lon="2.87218">
        <ele>23.414084</ele>
        <time>2016-06-03T08:17:50Z</time>
      </trkpt>
      <trkpt lat="42.78196" lon="2.87313">
        <ele>23.418721</ele>
        <time>2016-06-03T08:17:54Z</time>
      </trkpt>
      <trkpt lat="42.78227" lon="2.87374">
        <ele>22.67993</ele>
        <time>2016-06-03T08:17:57Z</time>
      </trkpt>
      <trkpt lat="42.78253" lon="2.87438">
        <ele>22.931675</ele>
        <time>2016-06-03T08:18:00Z</time>
      </trkpt>
      <trkpt lat="42.78279" lon="2.87479">
        <ele>23.63151</ele>
        <time>2016-06-03T08:18:03Z</time>
      </trkpt>
      <trkpt lat="42.7831" lon="2.87496">
        <ele>24.841319</ele>
        <time>2016-06-03T08:18:06Z</time>
      </trkpt>
      <trkpt lat="42.78338" lon="2.87508">
        <ele>24.597115</ele>
        <time>2016-06-03T08:18:08Z</time>
      </trkpt>
      <trkpt lat="42.78365" lon="2.87522">
        <ele>25.065059</ele>
        <time>2016-06-03T08:18:10Z</time>
      </trkpt>
      <trkpt lat="42.78397" lon="2.87527">
        <ele>25.131125</ele>
        <time>2016-06-03T08:18:12Z</time>
      </trkpt>
      <trkpt lat="42.7845" lon="2.87525">
        <ele>26.439043</ele>
        <time>2016-06-03T08:18:15Z</time>
      </trkpt>
      <trkpt lat="42.78487" lon="2.87524">
        <ele>26.071235</ele>
        <time>2016-06-03T08:18:17Z</time>
      </trkpt>
      <trkpt lat="42.78539" lon="2.87531">
        <ele>26.347501</ele>
        <time>2016-06-03T08:18:20Z</time>
      </trkpt>
      <trkpt lat="42.78621" lon="2.87539">
        <ele>27.122739</ele>
        <time>2016-06-03T08:18:24Z</time>
      </trkpt>
      <trkpt lat="42.78705" lon="2.87545">
        <ele>27.472941</ele>
        <time>2016-06-03T08:18:28Z</time>
      </trkpt>
      <trkpt lat="42.78827" lon="2.87553">
        <ele>27.790933</ele>
        <time>2016-06-03T08:18:34Z</time>
      </trkpt>
      <trkpt lat="42.78888" lon="2.87551">
        <ele>28.569606</ele>
        <time>2016-06-03T08:18:37Z</time>
      </trkpt>
      <trkpt lat="42.78947" lon="2.87541">
        <ele>28.463395</ele>
        <time>2016-06-03T08:18:40Z</time>
      </trkpt>
      <trkpt lat="42.79029" lon="2.87528">
        <ele>29.630211</ele>
        <time>2016-06-03T08:18:44Z</time>
      </trkpt>
      <trkpt lat="42.7911" lon="2.87517">
        <ele>30.308257</ele>
        <time>2016-06-03T08:18:48Z</time>
      </trkpt>
      <trkpt lat="42.79168" lon="2.87517">
        <ele>29.633658</ele>
        <time>2016-06-03T08:18:51Z</time>
      </trkpt>
      <trkpt lat="42.79228" lon="2.87525">
        <ele>32.237346</ele>
        <time>2016-06-03T08:18:54Z</time>
      </trkpt>
      <trkpt lat="42.79308" lon="2.87535">
        <ele>32.480095</ele>
        <time>2016-06-03T08:18:58Z</time>
      </trkpt>
      <trkpt lat="42.79355" lon="2.87542">
        <ele>31.003743</ele>
        <time>2016-06-03T08:19:01Z</time>
      </trkpt>
      <trkpt lat="42.79387" lon="2.87551">
        <ele>31.905388</ele>
        <time>2016-06-03T08:19:04Z</time>
      </trkpt>
      <trkpt lat="42.79409" lon="2.8756">
        <ele>31.356494</ele>
        <time>2016-06-03T08:19:07Z</time>
      </trkpt>
      <trkpt lat="42.7942" lon="2.87567">
        <ele>31.561513</ele>
        <time>2016-06-03T08:19:10Z</time>
      </trkpt>
      <trkpt lat="42.79432" lon="2.87581">
        <ele>31.731031</ele>
        <time>2016-06-03T08:19:13Z</time>
      </trkpt>
      <trkpt lat="42.79449" lon="2.8759">
        <ele>32.060063</ele>
        <time>2016-06-03T08:19:16Z</time>
      </trkpt>
      <trkpt lat="42.79457" lon="2.87591">
        <ele>32.141367</ele>
        <time>2016-06-03T08:19:17Z</time>
      </trkpt>
      <trkpt lat="42.79474" lon="2.87582">
        <ele>31.806127</ele>
        <time>2016-06-03T08:19:19Z</time>
      </trkpt>
      <trkpt lat="42.79495" lon="2.87581">
        <ele>31.855561</ele>
        <time>2016-06-03T08:19:21Z</time>
      </trkpt>
      <trkpt lat="42.79536" lon="2.87595">
        <ele>33.03079</ele>
        <time>2016-06-03T08:19:24Z</time>
      </trkpt>
      <trkpt lat="42.79611" lon="2.87626">
        <ele>33.897597</ele>
        <time>2016-06-03T08:19:29Z</time>
      </trkpt>
      <trkpt lat="42.79661" lon="2.87645">
        <ele>35.116309</ele>
        <time>2016-06-03T08:19:32Z</time>
      </trkpt>
      <trkpt lat="42.79714" lon="2.87669">
        <ele>34.862454</ele>
        <time>2016-06-03T08:19:35Z</time>
      </trkpt>
      <trkpt lat="42.79767" lon="2.87696">
        <ele>36.271272</ele>
        <time>2016-06-03T08:19:38Z</time>
      </trkpt>
      <trkpt lat="42.79788" lon="2.87703">
        <ele>34.641461</ele>
        <time>2016-06-03T08:19:39Z</time>
      </trkpt>
      <trkpt lat="42.79798" lon="2.87714">
        <ele>34.641461</ele>
        <time>2016-06-03T08:19:40Z</time>
      </trkpt>
      <trkpt lat="42.79859" lon="2.87733">
        <ele>34.622006</ele>
        <time>2016-06-03T08:19:43Z</time>
      </trkpt>
      <trkpt lat="42.79918" lon="2.87744">
        <ele>35.266465</ele>
        <time>2016-06-03T08:19:46Z</time>
      </trkpt>
      <trkpt lat="42.79983" lon="2.87749">
        <ele>36.598473</ele>
        <time>2016-06-03T08:19:49Z</time>
      </trkpt>
      <trkpt lat="42.80031" lon="2.8775">
        <ele>37.523209</ele>
        <time>2016-06-03T08:19:51Z</time>
      </trkpt>
      <trkpt lat="42.80096" lon="2.8776">
        <ele>37.129906</ele>
        <time>2016-06-03T08:19:54Z</time>
      </trkpt>
      <trkpt lat="42.80161" lon="2.87773">
        <ele>37.943057</ele>
        <time>2016-06-03T08:19:57Z</time>
      </trkpt>
      <trkpt lat="42.802" lon="2.87786">
        <ele>37.704796</ele>
        <time>2016-06-03T08:19:59Z</time>
      </trkpt>
      <trkpt lat="42.80279" lon="2.87829">
        <ele>38.90676</ele>
        <time>2016-06-03T08:20:03Z</time>
      </trkpt>
      <trkpt lat="42.80316" lon="2.87848">
        <ele>38.695079</ele>
        <time>2016-06-03T08:20:05Z</time>
      </trkpt>
      <trkpt lat="42.8038" lon="2.87866">
        <ele>38.291543</ele>
        <time>2016-06-03T08:20:08Z</time>
      </trkpt>
      <trkpt lat="42.80469" lon="2.87883">
        <ele>39.797783</ele>
        <time>2016-06-03T08:20:12Z</time>
      </trkpt>
      <trkpt lat="42.80523" lon="2.87893">
        <ele>39.245413</ele>
        <time>2016-06-03T08:20:15Z</time>
      </trkpt>
      <trkpt lat="42.80584" lon="2.87889">
        <ele>40.175092</ele>
        <time>2016-06-03T08:20:18Z</time>
      </trkpt>
      <trkpt lat="42.80641" lon="2.87873">
        <ele>41.336481</ele>
        <time>2016-06-03T08:20:21Z</time>
      </trkpt>
      <trkpt lat="42.80698" lon="2.8784">
        <ele>43.561725</ele>
        <time>2016-06-03T08:20:24Z</time>
      </trkpt>
      <trkpt lat="42.80782" lon="2.87802">
        <ele>43.480625</ele>
        <time>2016-06-03T08:20:28Z</time>
      </trkpt>
      <trkpt lat="42.80885" lon="2.87759">
        <ele>44.80578</ele>
        <time>2016-06-03T08:20:33Z</time>
      </trkpt>
      <trkpt lat="42.80948" lon="2.87727">
        <ele>44.600735</ele>
        <time>2016-06-03T08:20:36Z</time>
      </trkpt>
      <trkpt lat="42.80987" lon="2.87699">
        <ele>45.903879</ele>
        <time>2016-06-03T08:20:38Z</time>
      </trkpt>
      <trkpt lat="42.8105" lon="2.87659">
        <ele>46.013568</ele>
        <time>2016-06-03T08:20:41Z</time>
      </trkpt>
      <trkpt lat="42.81111" lon="2.87631">
        <ele>46.478991</ele>
        <time>2016-06-03T08:20:44Z</time>
      </trkpt>
      <trkpt lat="42.81148" lon="2.87623">
        <ele>47.280298</ele>
        <time>2016-06-03T08:20:46Z</time>
      </trkpt>
      <trkpt lat="42.81209" lon="2.87628">
        <ele>46.721797</ele>
        <time>2016-06-03T08:20:49Z</time>
      </trkpt>
      <trkpt lat="42.81289" lon="2.87644">
        <ele>47.527821</ele>
        <time>2016-06-03T08:20:53Z</time>
      </trkpt>
      <trkpt lat="42.81352" lon="2.87663">
        <ele>47.415263</ele>
        <time>2016-06-03T08:20:56Z</time>
      </trkpt>
      <trkpt lat="42.81438" lon="2.87695">
        <ele>47.018996</ele>
        <time>2016-06-03T08:21:00Z</time>
      </trkpt>
      <trkpt lat="42.81509" lon="2.8772">
        <ele>47.08751</ele>
        <time>2016-06-03T08:21:03Z</time>
      </trkpt>
      <trkpt lat="42.81578" lon="2.87748">
        <ele>47.798462</ele>
        <time>2016-06-03T08:21:06Z</time>
      </trkpt>
      <trkpt lat="42.81619" lon="2.87767">
        <ele>47.073042</ele>
        <time>2016-06-03T08:21:08Z</time>
      </trkpt>
      <trkpt lat="42.81662" lon="2.87773">
        <ele>46.772102</ele>
        <time>2016-06-03T08:21:10Z</time>
      </trkpt>
      <trkpt lat="42.81727" lon="2.87777">
        <ele>45.818579</ele>
        <time>2016-06-03T08:21:13Z</time>
      </trkpt>
      <trkpt lat="42.81769" lon="2.87784">
        <ele>45.944655</ele>
        <time>2016-06-03T08:21:15Z</time>
      </trkpt>
      <trkpt lat="42.81823" lon="2.87808">
        <ele>46.325528</ele>
        <time>2016-06-03T08:21:18Z</time>
      </trkpt>
      <trkpt lat="42.81854" lon="2.87823">
        <ele>46.126798</ele>
        <time>2016-06-03T08:21:20Z</time>
      </trkpt>
      <trkpt lat="42.81888" lon="2.87833">
        <ele>47.246382</ele>
        <time>2016-06-03T08:21:22Z</time>
      </trkpt>
      <trkpt lat="42.81948" lon="2.87835">
        <ele>47.291982</ele>
        <time>2016-06-03T08:21:25Z</time>
      </trkpt>
      <trkpt lat="42.82021" lon="2.87844">
        <ele>47.427955</ele>
        <time>2016-06-03T08:21:29Z</time>
      </trkpt>
      <trkpt lat="42.82077" lon="2.87867">
        <ele>48.292936</ele>
        <time>2016-06-03T08:21:32Z</time>
      </trkpt>
      <trkpt lat="42.82141" lon="2.87892">
        <ele>49.029844</ele>
        <time>2016-06-03T08:21:35Z</time>
      </trkpt>
      <trkpt lat="42.82222" lon="2.87913">
        <ele>50.257413</ele>
        <time>2016-06-03T08:21:39Z</time>
      </trkpt>
      <trkpt lat="42.82266" lon="2.87919">
        <ele>50.834611</ele>
        <time>2016-06-03T08:21:41Z</time>
      </trkpt>
      <trkpt lat="42.8235" lon="2.87904">
        <ele>53.579897</ele>
        <time>2016-06-03T08:21:45Z</time>
      </trkpt>
      <trkpt lat="42.82394" lon="2.87892">
        <ele>55.341284</ele>
        <time>2016-06-03T08:21:47Z</time>
      </trkpt>
      <trkpt lat="42.82482" lon="2.8788">
        <ele>55.440761</ele>
        <time>2016-06-03T08:21:51Z</time>
      </trkpt>
      <trkpt lat="42.82539" lon="2.87871">
        <ele>56.063948</ele>
        <time>2016-06-03T08:21:54Z</time>
      </trkpt>
      <trkpt lat="42.82572" lon="2.87861">
        <ele>57.162517</ele>
        <time>2016-06-03T08:21:56Z</time>
      </trkpt>
      <trkpt lat="42.82604" lon="2.8784">
        <ele>58.586404</ele>
        <time>2016-06-03T08:21:58Z</time>
      </trkpt>
      <trkpt lat="42.82654" lon="2.87801">
        <ele>56.7963</ele>
        <time>2016-06-03T08:22:01Z</time>
      </trkpt>
      <trkpt lat="42.82709" lon="2.87758">
        <ele>59.900902</ele>
        <time>2016-06-03T08:22:04Z</time>
      </trkpt>
      <trkpt lat="42.82786" lon="2.87702">
        <ele>60.263239</ele>
        <time>2016-06-03T08:22:08Z</time>
      </trkpt>
      <trkpt lat="42.82843" lon="2.8766">
        <ele>64.402255</ele>
        <time>2016-06-03T08:22:11Z</time>
      </trkpt>
      <trkpt lat="42.82898" lon="2.87616">
        <ele>66.374207</ele>
        <time>2016-06-03T08:22:14Z</time>
      </trkpt>
      <trkpt lat="42.82932" lon="2.87587">
        <ele>70.449324</ele>
        <time>2016-06-03T08:22:16Z</time>
      </trkpt>
      <trkpt lat="42.82995" lon="2.8754">
        <ele>71.466576</ele>
        <time>2016-06-03T08:22:20Z</time>
      </trkpt>
      <trkpt lat="42.83024" lon="2.87526">
        <ele>71.234134</ele>
        <time>2016-06-03T08:22:22Z</time>
      </trkpt>
      <trkpt lat="42.8307" lon="2.87521">
        <ele>70.350169</ele>
        <time>2016-06-03T08:22:25Z</time>
      </trkpt>
      <trkpt lat="42.83098" lon="2.87518">
        <ele>71.413714</ele>
        <time>2016-06-03T08:22:27Z</time>
      </trkpt>
      <trkpt lat="42.8311" lon="2.87519">
        <ele>71.413714</ele>
        <time>2016-06-03T08:22:28Z</time>
      </trkpt>
      <trkpt lat="42.83133" lon="2.87504">
        <ele>71.44655</ele>
        <time>2016-06-03T08:22:30Z</time>
      </trkpt>
      <trkpt lat="42.83154" lon="2.87475">
        <ele>72.689018</ele>
        <time>2016-06-03T08:22:32Z</time>
      </trkpt>
      <trkpt lat="42.83174" lon="2.87435">
        <ele>72.704886</ele>
        <time>2016-06-03T08:22:34Z</time>
      </trkpt>
      <trkpt lat="42.83202" lon="2.8736">
        <ele>72.849322</ele>
        <time>2016-06-03T08:22:37Z</time>
      </trkpt>
      <trkpt lat="42.83238" lon="2.87257">
        <ele>73.949258</ele>
        <time>2016-06-03T08:22:41Z</time>
      </trkpt>
      <trkpt lat="42.83263" lon="2.8718">
        <ele>76.180138</ele>
        <time>2016-06-03T08:22:44Z</time>
      </trkpt>
      <trkpt lat="42.83289" lon="2.87113">
        <ele>76.728779</ele>
        <time>2016-06-03T08:22:47Z</time>
      </trkpt>
      <trkpt lat="42.83311" lon="2.87071">
        <ele>76.73763</ele>
        <time>2016-06-03T08:22:49Z</time>
      </trkpt>
      <trkpt lat="42.83368" lon="2.86993">
        <ele>79.337362</ele>
        <time>2016-06-03T08:22:53Z</time>
      </trkpt>
      <trkpt lat="42.83397" lon="2.86953">
        <ele>79.361354</ele>
        <time>2016-06-03T08:22:55Z</time>
      </trkpt>
      <trkpt lat="42.83429" lon="2.86916">
        <ele>80.59634</ele>
        <time>2016-06-03T08:22:58Z</time>
      </trkpt>
      <trkpt lat="42.8345" lon="2.869">
        <ele>81.514991</ele>
        <time>2016-06-03T08:23:00Z</time>
      </trkpt>
      <trkpt lat="42.8349" lon="2.86893">
        <ele>84.076457</ele>
        <time>2016-06-03T08:23:03Z</time>
      </trkpt>
      <trkpt lat="42.83525" lon="2.86895">
        <ele>86.523721</ele>
        <time>2016-06-03T08:23:06Z</time>
      </trkpt>
      <trkpt lat="42.83542" lon="2.86905">
        <ele>86.406103</ele>
        <time>2016-06-03T08:23:08Z</time>
      </trkpt>
      <trkpt lat="42.83551" lon="2.86928">
        <ele>88.070876</ele>
        <time>2016-06-03T08:23:10Z</time>
      </trkpt>
      <trkpt lat="42.83546" lon="2.86952">
        <ele>89.282566</ele>
        <time>2016-06-03T08:23:12Z</time>
      </trkpt>
      <trkpt lat="42.83545" lon="2.86975">
        <ele>90.728656</ele>
        <time>2016-06-03T08:23:14Z</time>
      </trkpt>
      <trkpt lat="42.83548" lon="2.87002">
        <ele>92.793325</ele>
        <time>2016-06-03T08:23:16Z</time>
      </trkpt>
      <trkpt lat="42.83554" lon="2.87015">
        <ele>93.935255</ele>
        <time>2016-06-03T08:23:17Z</time>
      </trkpt>
      <trkpt lat="42.83578" lon="2.87044">
        <ele>94.092149</ele>
        <time>2016-06-03T08:23:19Z</time>
      </trkpt>
      <trkpt lat="42.83612" lon="2.87104">
        <ele>97.652668</ele>
        <time>2016-06-03T08:23:22Z</time>
      </trkpt>
      <trkpt lat="42.83634" lon="2.87139">
        <ele>99.699949</ele>
        <time>2016-06-03T08:23:24Z</time>
      </trkpt>
      <trkpt lat="42.83638" lon="2.87152">
        <ele>99.699949</ele>
        <time>2016-06-03T08:23:25Z</time>
      </trkpt>
      <trkpt lat="42.83657" lon="2.87169">
        <ele>100.166508</ele>
        <time>2016-06-03T08:23:27Z</time>
      </trkpt>
      <trkpt lat="42.83667" lon="2.87174">
        <ele>101.986517</ele>
        <time>2016-06-03T08:23:28Z</time>
      </trkpt>
      <trkpt lat="42.83699" lon="2.87168">
        <ele>103.944245</ele>
        <time>2016-06-03T08:23:30Z</time>
      </trkpt>
      <trkpt lat="42.83727" lon="2.87155">
        <ele>105.61116</ele>
        <time>2016-06-03T08:23:32Z</time>
      </trkpt>
      <trkpt lat="42.83747" lon="2.87137">
        <ele>108.403428</ele>
        <time>2016-06-03T08:23:34Z</time>
      </trkpt>
      <trkpt lat="42.83762" lon="2.8712">
        <ele>108.219611</ele>
        <time>2016-06-03T08:23:36Z</time>
      </trkpt>
      <trkpt lat="42.83779" lon="2.87117">
        <ele>109.372665</ele>
        <time>2016-06-03T08:23:38Z</time>
      </trkpt>
      <trkpt lat="42.83794" lon="2.87127">
        <ele>110.443226</ele>
        <time>2016-06-03T08:23:40Z</time>
      </trkpt>
      <trkpt lat="42.83796" lon="2.87137">
        <ele>110.283845</ele>
        <time>2016-06-03T08:23:41Z</time>
      </trkpt>
      <trkpt lat="42.83782" lon="2.87157">
        <ele>111.033539</ele>
        <time>2016-06-03T08:23:43Z</time>
      </trkpt>
      <trkpt lat="42.83772" lon="2.8718">
        <ele>112.88001</ele>
        <time>2016-06-03T08:23:45Z</time>
      </trkpt>
      <trkpt lat="42.83764" lon="2.87207">
        <ele>113.639951</ele>
        <time>2016-06-03T08:23:47Z</time>
      </trkpt>
      <trkpt lat="42.83789" lon="2.87275">
        <ele>116.21182</ele>
        <time>2016-06-03T08:23:50Z</time>
      </trkpt>
      <trkpt lat="42.83809" lon="2.87346">
        <ele>116.7765</ele>
        <time>2016-06-03T08:23:53Z</time>
      </trkpt>
      <trkpt lat="42.83825" lon="2.87397">
        <ele>119.854779</ele>
        <time>2016-06-03T08:23:55Z</time>
      </trkpt>
      <trkpt lat="42.83837" lon="2.87441">
        <ele>122.075985</ele>
        <time>2016-06-03T08:23:57Z</time>
      </trkpt>
      <trkpt lat="42.8385" lon="2.87505">
        <ele>125.754893</ele>
        <time>2016-06-03T08:24:01Z</time>
      </trkpt>
      <trkpt lat="42.83861" lon="2.87525">
        <ele>126.158973</ele>
        <time>2016-06-03T08:24:03Z</time>
      </trkpt>
      <trkpt lat="42.8391" lon="2.87534">
        <ele>129.663333</ele>
        <time>2016-06-03T08:24:07Z</time>
      </trkpt>
      <trkpt lat="42.83933" lon="2.87532">
        <ele>130.981228</ele>
        <time>2016-06-03T08:24:09Z</time>
      </trkpt>
      <trkpt lat="42.83951" lon="2.87519">
        <ele>131.53936</ele>
        <time>2016-06-03T08:24:11Z</time>
      </trkpt>
      <trkpt lat="42.83969" lon="2.87497">
        <ele>132.376801</ele>
        <time>2016-06-03T08:24:13Z</time>
      </trkpt>
      <trkpt lat="42.83982" lon="2.87476">
        <ele>132.312414</ele>
        <time>2016-06-03T08:24:15Z</time>
      </trkpt>
      <trkpt lat="42.84003" lon="2.87467">
        <ele>132.446657</ele>
        <time>2016-06-03T08:24:17Z</time>
      </trkpt>
      <trkpt lat="42.84027" lon="2.87471">
        <ele>133.401006</ele>
        <time>2016-06-03T08:24:19Z</time>
      </trkpt>
      <trkpt lat="42.84049" lon="2.8748">
        <ele>133.882155</ele>
        <time>2016-06-03T08:24:21Z</time>
      </trkpt>
      <trkpt lat="42.84073" lon="2.87484">
        <ele>134.89203</ele>
        <time>2016-06-03T08:24:23Z</time>
      </trkpt>
      <trkpt lat="42.841" lon="2.87472">
        <ele>136.932894</ele>
        <time>2016-06-03T08:24:25Z</time>
      </trkpt>
      <trkpt lat="42.84146" lon="2.87448">
        <ele>135.921113</ele>
        <time>2016-06-03T08:24:28Z</time>
      </trkpt>
      <trkpt lat="42.84198" lon="2.87431">
        <ele>137.843347</ele>
        <time>2016-06-03T08:24:30Z</time>
      </trkpt>
      <trkpt lat="42.84244" lon="2.87422">
        <ele>139.123555</ele>
        <time>2016-06-03T08:24:33Z</time>
      </trkpt>
      <trkpt lat="42.84268" lon="2.87422">
        <ele>139.844813</ele>
        <time>2016-06-03T08:24:36Z</time>
      </trkpt>
      <trkpt lat="42.8429" lon="2.87433">
        <ele>139.751189</ele>
        <time>2016-06-03T08:24:38Z</time>
      </trkpt>
      <trkpt lat="42.84321" lon="2.87473">
        <ele>142.810116</ele>
        <time>2016-06-03T08:24:41Z</time>
      </trkpt>
      <trkpt lat="42.84345" lon="2.87496">
        <ele>143.588663</ele>
        <time>2016-06-03T08:24:43Z</time>
      </trkpt>
      <trkpt lat="42.84389" lon="2.87517">
        <ele>145.899333</ele>
        <time>2016-06-03T08:24:46Z</time>
      </trkpt>
      <trkpt lat="42.84423" lon="2.87523">
        <ele>145.880737</ele>
        <time>2016-06-03T08:24:48Z</time>
      </trkpt>
      <trkpt lat="42.84487" lon="2.87542">
        <ele>146.067079</ele>
        <time>2016-06-03T08:24:52Z</time>
      </trkpt>
      <trkpt lat="42.84507" lon="2.87558">
        <ele>147.339897</ele>
        <time>2016-06-03T08:24:54Z</time>
      </trkpt>
      <trkpt lat="42.84523" lon="2.87585">
        <ele>147.146117</ele>
        <time>2016-06-03T08:24:56Z</time>
      </trkpt>
      <trkpt lat="42.84538" lon="2.87629">
        <ele>147.649927</ele>
        <time>2016-06-03T08:24:59Z</time>
      </trkpt>
      <trkpt lat="42.8455" lon="2.8765">
        <ele>148.036519</ele>
        <time>2016-06-03T08:25:01Z</time>
      </trkpt>
      <trkpt lat="42.84571" lon="2.87656">
        <ele>149.152923</ele>
        <time>2016-06-03T08:25:03Z</time>
      </trkpt>
      <trkpt lat="42.84596" lon="2.87642">
        <ele>150.804274</ele>
        <time>2016-06-03T08:25:05Z</time>
      </trkpt>
      <trkpt lat="42.84621" lon="2.87621">
        <ele>152.044975</ele>
        <time>2016-06-03T08:25:07Z</time>
      </trkpt>
      <trkpt lat="42.84649" lon="2.87609">
        <ele>151.402122</ele>
        <time>2016-06-03T08:25:09Z</time>
      </trkpt>
      <trkpt lat="42.84698" lon="2.87599">
        <ele>154.565189</ele>
        <time>2016-06-03T08:25:12Z</time>
      </trkpt>
      <trkpt lat="42.84752" lon="2.8759">
        <ele>153.58937</ele>
        <time>2016-06-03T08:25:15Z</time>
      </trkpt>
      <trkpt lat="42.84811" lon="2.87576">
        <ele>154.835598</ele>
        <time>2016-06-03T08:25:18Z</time>
      </trkpt>
      <trkpt lat="42.84895" lon="2.87552">
        <ele>151.169179</ele>
        <time>2016-06-03T08:25:23Z</time>
      </trkpt>
      <trkpt lat="42.84925" lon="2.87544">
        <ele>151.234232</ele>
        <time>2016-06-03T08:25:25Z</time>
      </trkpt>
      <trkpt lat="42.84956" lon="2.8755">
        <ele>151.520291</ele>
        <time>2016-06-03T08:25:27Z</time>
      </trkpt>
      <trkpt lat="42.85003" lon="2.87567">
        <ele>155.609512</ele>
        <time>2016-06-03T08:25:30Z</time>
      </trkpt>
      <trkpt lat="42.85034" lon="2.87568">
        <ele>157.841454</ele>
        <time>2016-06-03T08:25:32Z</time>
      </trkpt>
      <trkpt lat="42.85086" lon="2.87556">
        <ele>160.503749</ele>
        <time>2016-06-03T08:25:35Z</time>
      </trkpt>
      <trkpt lat="42.85123" lon="2.87553">
        <ele>161.335389</ele>
        <time>2016-06-03T08:25:37Z</time>
      </trkpt>
      <trkpt lat="42.85192" lon="2.87569">
        <ele>165.278975</ele>
        <time>2016-06-03T08:25:41Z</time>
      </trkpt>
      <trkpt lat="42.85246" lon="2.87576">
        <ele>165.410899</ele>
        <time>2016-06-03T08:25:44Z</time>
      </trkpt>
      <trkpt lat="42.85305" lon="2.8757">
        <ele>166.590959</ele>
        <time>2016-06-03T08:25:47Z</time>
      </trkpt>
      <trkpt lat="42.85387" lon="2.87557">
        <ele>170.895703</ele>
        <time>2016-06-03T08:25:52Z</time>
      </trkpt>
      <trkpt lat="42.85414" lon="2.87554">
        <ele>172.425796</ele>
        <time>2016-06-03T08:25:54Z</time>
      </trkpt>
      <trkpt lat="42.85437" lon="2.8756">
        <ele>172.120148</ele>
        <time>2016-06-03T08:25:56Z</time>
      </trkpt>
      <trkpt lat="42.85461" lon="2.87576">
        <ele>172.713434</ele>
        <time>2016-06-03T08:25:58Z</time>
      </trkpt>
      <trkpt lat="42.85502" lon="2.87614">
        <ele>175.527918</ele>
        <time>2016-06-03T08:26:01Z</time>
      </trkpt>
      <trkpt lat="42.85535" lon="2.87635">
        <ele>177.475782</ele>
        <time>2016-06-03T08:26:03Z</time>
      </trkpt>
      <trkpt lat="42.85567" lon="2.87644">
        <ele>176.164378</ele>
        <time>2016-06-03T08:26:05Z</time>
      </trkpt>
      <trkpt lat="42.85609" lon="2.87642">
        <ele>178.099655</ele>
        <time>2016-06-03T08:26:08Z</time>
      </trkpt>
      <trkpt lat="42.8564" lon="2.87646">
        <ele>177.345977</ele>
        <time>2016-06-03T08:26:10Z</time>
      </trkpt>
      <trkpt lat="42.85684" lon="2.8766">
        <ele>176.159529</ele>
        <time>2016-06-03T08:26:13Z</time>
      </trkpt>
      <trkpt lat="42.85716" lon="2.87659">
        <ele>174.212038</ele>
        <time>2016-06-03T08:26:15Z</time>
      </trkpt>
      <trkpt lat="42.85783" lon="2.87638">
        <ele>171.057174</ele>
        <time>2016-06-03T08:26:19Z</time>
      </trkpt>
      <trkpt lat="42.85835" lon="2.87629">
        <ele>167.065437</ele>
        <time>2016-06-03T08:26:22Z</time>
      </trkpt>
      <trkpt lat="42.85888" lon="2.87621">
        <ele>164.529431</ele>
        <time>2016-06-03T08:26:25Z</time>
      </trkpt>
      <trkpt lat="42.85957" lon="2.87609">
        <ele>164.506166</ele>
        <time>2016-06-03T08:26:29Z</time>
      </trkpt>
      <trkpt lat="42.85998" lon="2.87602">
        <ele>164.528852</ele>
        <time>2016-06-03T08:26:32Z</time>
      </trkpt>
      <trkpt lat="42.86022" lon="2.87609">
        <ele>163.854034</ele>
        <time>2016-06-03T08:26:34Z</time>
      </trkpt>
      <trkpt lat="42.86042" lon="2.87631">
        <ele>164.348428</ele>
        <time>2016-06-03T08:26:36Z</time>
      </trkpt>
      <trkpt lat="42.86053" lon="2.87664">
        <ele>166.014741</ele>
        <time>2016-06-03T08:26:38Z</time>
      </trkpt>
      <trkpt lat="42.86064" lon="2.87703">
        <ele>167.004427</ele>
        <time>2016-06-03T08:26:40Z</time>
      </trkpt>
      <trkpt lat="42.86082" lon="2.87743">
        <ele>167.358788</ele>
        <time>2016-06-03T08:26:42Z</time>
      </trkpt>
      <trkpt lat="42.86121" lon="2.87818">
        <ele>169.726075</ele>
        <time>2016-06-03T08:26:46Z</time>
      </trkpt>
      <trkpt lat="42.86142" lon="2.87846">
        <ele>168.683867</ele>
        <time>2016-06-03T08:26:48Z</time>
      </trkpt>
      <trkpt lat="42.86179" lon="2.87874">
        <ele>168.198288</ele>
        <time>2016-06-03T08:26:51Z</time>
      </trkpt>
      <trkpt lat="42.86208" lon="2.87874">
        <ele>167.549264</ele>
        <time>2016-06-03T08:26:53Z</time>
      </trkpt>
      <trkpt lat="42.86235" lon="2.87869">
        <ele>166.04801</ele>
        <time>2016-06-03T08:26:55Z</time>
      </trkpt>
      <trkpt lat="42.86258" lon="2.87851">
        <ele>165.104531</ele>
        <time>2016-06-03T08:26:57Z</time>
      </trkpt>
      <trkpt lat="42.86279" lon="2.87827">
        <ele>164.122631</ele>
        <time>2016-06-03T08:26:59Z</time>
      </trkpt>
      <trkpt lat="42.86296" lon="2.87789">
        <ele>162.875911</ele>
        <time>2016-06-03T08:27:01Z</time>
      </trkpt>
      <trkpt lat="42.86315" lon="2.87724">
        <ele>160.782064</ele>
        <time>2016-06-03T08:27:04Z</time>
      </trkpt>
      <trkpt lat="42.86327" lon="2.8766">
        <ele>159.122548</ele>
        <time>2016-06-03T08:27:07Z</time>
      </trkpt>
      <trkpt lat="42.86339" lon="2.87625">
        <ele>158.425481</ele>
        <time>2016-06-03T08:27:09Z</time>
      </trkpt>
      <trkpt lat="42.86361" lon="2.87598">
        <ele>156.787504</ele>
        <time>2016-06-03T08:27:11Z</time>
      </trkpt>
      <trkpt lat="42.8639" lon="2.87578">
        <ele>156.706438</ele>
        <time>2016-06-03T08:27:13Z</time>
      </trkpt>
      <trkpt lat="42.86451" lon="2.87531">
        <ele>155.831254</ele>
        <time>2016-06-03T08:27:18Z</time>
      </trkpt>
      <trkpt lat="42.86475" lon="2.8751">
        <ele>155.142563</ele>
        <time>2016-06-03T08:27:21Z</time>
      </trkpt>
      <trkpt lat="42.86486" lon="2.87504">
        <ele>155.443084</ele>
        <time>2016-06-03T08:27:23Z</time>
      </trkpt>
      <trkpt lat="42.86497" lon="2.87506">
        <ele>155.167906</ele>
        <time>2016-06-03T08:27:25Z</time>
      </trkpt>
      <trkpt lat="42.86529" lon="2.8754">
        <ele>155.112073</ele>
        <time>2016-06-03T08:27:29Z</time>
      </trkpt>
      <trkpt lat="42.86546" lon="2.87558">
        <ele>154.909321</ele>
        <time>2016-06-03T08:27:31Z</time>
      </trkpt>
      <trkpt lat="42.86575" lon="2.87581">
        <ele>155.728642</ele>
        <time>2016-06-03T08:27:34Z</time>
      </trkpt>
      <trkpt lat="42.86626" lon="2.87617">
        <ele>155.489268</ele>
        <time>2016-06-03T08:27:38Z</time>
      </trkpt>
      <trkpt lat="42.86659" lon="2.87653">
        <ele>156.63503</ele>
        <time>2016-06-03T08:27:41Z</time>
      </trkpt>
      <trkpt lat="42.86683" lon="2.87685">
        <ele>156.310931</ele>
        <time>2016-06-03T08:27:44Z</time>
      </trkpt>
      <trkpt lat="42.86713" lon="2.87718">
        <ele>157.357688</ele>
        <time>2016-06-03T08:27:47Z</time>
      </trkpt>
      <trkpt lat="42.86743" lon="2.87756">
        <ele>156.458307</ele>
        <time>2016-06-03T08:27:50Z</time>
      </trkpt>
      <trkpt lat="42.86776" lon="2.87791">
        <ele>156.475981</ele>
        <time>2016-06-03T08:27:53Z</time>
      </trkpt>
      <trkpt lat="42.86805" lon="2.87821">
        <ele>156.18149</ele>
        <time>2016-06-03T08:27:56Z</time>
      </trkpt>
      <trkpt lat="42.86822" lon="2.87839">
        <ele>155.882481</ele>
        <time>2016-06-03T08:28:01Z</time>
      </trkpt>
      <trkpt lat="42.86829" lon="2.87837">
        <ele>155.78587</ele>
        <time>2016-06-03T08:28:03Z</time>
      </trkpt>
      <trkpt lat="42.86836" lon="2.87829">
        <ele>155.684454</ele>
        <time>2016-06-03T08:28:05Z</time>
      </trkpt>
      <trkpt lat="42.86848" lon="2.87793">
        <ele>156.242994</ele>
        <time>2016-06-03T08:28:09Z</time>
      </trkpt>
      <trkpt lat="42.86866" lon="2.87744">
        <ele>157.346589</ele>
        <time>2016-06-03T08:28:14Z</time>
      </trkpt>
      <trkpt lat="42.8688" lon="2.87708">
        <ele>158.749691</ele>
        <time>2016-06-03T08:28:17Z</time>
      </trkpt>
      <trkpt lat="42.869" lon="2.87658">
        <ele>159.978578</ele>
        <time>2016-06-03T08:28:22Z</time>
      </trkpt>
      <trkpt lat="42.8691" lon="2.87622">
        <ele>160.960415</ele>
        <time>2016-06-03T08:28:25Z</time>
      </trkpt>
      <trkpt lat="42.86925" lon="2.87575">
        <ele>162.813262</ele>
        <time>2016-06-03T08:28:29Z</time>
      </trkpt>
      <trkpt lat="42.86932" lon="2.87554">
        <ele>163.440097</ele>
        <time>2016-06-03T08:28:31Z</time>
      </trkpt>
      <trkpt lat="42.86936" lon="2.87531">
        <ele>163.644557</ele>
        <time>2016-06-03T08:28:33Z</time>
      </trkpt>
      <trkpt lat="42.86954" lon="2.8748">
        <ele>164.932178</ele>
        <time>2016-06-03T08:28:37Z</time>
      </trkpt>
      <trkpt lat="42.86962" lon="2.87454">
        <ele>166.226</ele>
        <time>2016-06-03T08:28:39Z</time>
      </trkpt>
      <trkpt lat="42.86967" lon="2.87429">
        <ele>166.509195</ele>
        <time>2016-06-03T08:28:41Z</time>
      </trkpt>
      <trkpt lat="42.86971" lon="2.87413">
        <ele>166.827331</ele>
        <time>2016-06-03T08:28:43Z</time>
      </trkpt>
      <trkpt lat="42.86973" lon="2.87394">
        <ele>167.240058</ele>
        <time>2016-06-03T08:28:46Z</time>
      </trkpt>
      <trkpt lat="42.86971" lon="2.87377">
        <ele>167.614661</ele>
        <time>2016-06-03T08:28:49Z</time>
      </trkpt>
      <trkpt lat="42.8697" lon="2.87366">
        <ele>167.59748</ele>
        <time>2016-06-03T08:28:52Z</time>
      </trkpt>
      <trkpt lat="42.86976" lon="2.87358">
        <ele>167.733137</ele>
        <time>2016-06-03T08:28:54Z</time>
      </trkpt>
      <trkpt lat="42.86983" lon="2.87352">
        <ele>168.351098</ele>
        <time>2016-06-03T08:28:56Z</time>
      </trkpt>
      <trkpt lat="42.87008" lon="2.87343">
        <ele>169.72707</ele>
        <time>2016-06-03T08:29:00Z</time>
      </trkpt>
      <trkpt lat="42.87015" lon="2.87342">
        <ele>169.72707</ele>
        <time>2016-06-03T08:29:01Z</time>
      </trkpt>
      <trkpt lat="42.87034" lon="2.87359">
        <ele>170.086636</ele>
        <time>2016-06-03T08:29:04Z</time>
      </trkpt>
      <trkpt lat="42.87044" lon="2.87373">
        <ele>170.198341</ele>
        <time>2016-06-03T08:29:06Z</time>
      </trkpt>
      <trkpt lat="42.87047" lon="2.87382">
        <ele>169.864777</ele>
        <time>2016-06-03T08:29:07Z</time>
      </trkpt>
      <trkpt lat="42.87063" lon="2.87398">
        <ele>169.611492</ele>
        <time>2016-06-03T08:29:10Z</time>
      </trkpt>
      <trkpt lat="42.87081" lon="2.87409">
        <ele>169.549654</ele>
        <time>2016-06-03T08:29:12Z</time>
      </trkpt>
      <trkpt lat="42.8709" lon="2.87416">
        <ele>169.076253</ele>
        <time>2016-06-03T08:29:14Z</time>
      </trkpt>
      <trkpt lat="42.8709" lon="2.87418">
        <ele>169.305011</ele>
        <time>2016-06-03T08:29:16Z</time>
      </trkpt>
      <trkpt lat="42.87091" lon="2.87419">
        <ele>169.213668</ele>
        <time>2016-06-03T08:29:18Z</time>
      </trkpt>
      <trkpt lat="42.8709" lon="2.87418">
        <ele>169.346151</ele>
        <time>2016-06-03T08:29:27Z</time>
      </trkpt>
      <trkpt lat="42.87089" lon="2.87417">
        <ele>169.277669</ele>
        <time>2016-06-03T08:29:38Z</time>
      </trkpt>
      <trkpt lat="42.87105" lon="2.87427">
        <ele>169.829809</ele>
        <time>2016-06-03T08:29:42Z</time>
      </trkpt>
      <trkpt lat="42.8712" lon="2.87435">
        <ele>169.254742</ele>
        <time>2016-06-03T08:29:45Z</time>
      </trkpt>
      <trkpt lat="42.87127" lon="2.87441">
        <ele>169.175317</ele>
        <time>2016-06-03T08:29:47Z</time>
      </trkpt>
      <trkpt lat="42.87137" lon="2.87476">
        <ele>168.215105</ele>
        <time>2016-06-03T08:29:50Z</time>
      </trkpt>
      <trkpt lat="42.87154" lon="2.87522">
        <ele>165.975208</ele>
        <time>2016-06-03T08:29:53Z</time>
      </trkpt>
      <trkpt lat="42.87178" lon="2.8759">
        <ele>164.295616</ele>
        <time>2016-06-03T08:29:57Z</time>
      </trkpt>
      <trkpt lat="42.87193" lon="2.87636">
        <ele>163.025577</ele>
        <time>2016-06-03T08:30:00Z</time>
      </trkpt>
      <trkpt lat="42.87215" lon="2.87705">
        <ele>161.919262</ele>
        <time>2016-06-03T08:30:04Z</time>
      </trkpt>
      <trkpt lat="42.87231" lon="2.8775">
        <ele>160.895645</ele>
        <time>2016-06-03T08:30:07Z</time>
      </trkpt>
      <trkpt lat="42.87242" lon="2.87787">
        <ele>161.412401</ele>
        <time>2016-06-03T08:30:10Z</time>
      </trkpt>
      <trkpt lat="42.87259" lon="2.87828">
        <ele>161.977876</ele>
        <time>2016-06-03T08:30:13Z</time>
      </trkpt>
      <trkpt lat="42.87283" lon="2.87875">
        <ele>162.509106</ele>
        <time>2016-06-03T08:30:16Z</time>
      </trkpt>
      <trkpt lat="42.87314" lon="2.8794">
        <ele>162.821609</ele>
        <time>2016-06-03T08:30:20Z</time>
      </trkpt>
      <trkpt lat="42.87337" lon="2.87983">
        <ele>164.3296</ele>
        <time>2016-06-03T08:30:23Z</time>
      </trkpt>
      <trkpt lat="42.87379" lon="2.88032">
        <ele>164.271199</ele>
        <time>2016-06-03T08:30:27Z</time>
      </trkpt>
      <trkpt lat="42.8741" lon="2.88076">
        <ele>163.557832</ele>
        <time>2016-06-03T08:30:30Z</time>
      </trkpt>
      <trkpt lat="42.87436" lon="2.88123">
        <ele>163.834195</ele>
        <time>2016-06-03T08:30:33Z</time>
      </trkpt>
      <trkpt lat="42.87455" lon="2.88172">
        <ele>164.658179</ele>
        <time>2016-06-03T08:30:36Z</time>
      </trkpt>
      <trkpt lat="42.87469" lon="2.88222">
        <ele>164.898829</ele>
        <time>2016-06-03T08:30:39Z</time>
      </trkpt>
      <trkpt lat="42.87494" lon="2.88269">
        <ele>165.299185</ele>
        <time>2016-06-03T08:30:42Z</time>
      </trkpt>
      <trkpt lat="42.87528" lon="2.8834">
        <ele>166.310066</ele>
        <time>2016-06-03T08:30:46Z</time>
      </trkpt>
      <trkpt lat="42.87564" lon="2.88416">
        <ele>167.38787</ele>
        <time>2016-06-03T08:30:50Z</time>
      </trkpt>
      <trkpt lat="42.87586" lon="2.88473">
        <ele>166.669433</ele>
        <time>2016-06-03T08:30:53Z</time>
      </trkpt>
      <trkpt lat="42.8761" lon="2.88522">
        <ele>167.964171</ele>
        <time>2016-06-03T08:30:56Z</time>
      </trkpt>
      <trkpt lat="42.87634" lon="2.88599">
        <ele>167.669016</ele>
        <time>2016-06-03T08:31:00Z</time>
      </trkpt>
      <trkpt lat="42.87643" lon="2.88637">
        <ele>166.893957</ele>
        <time>2016-06-03T08:31:02Z</time>
      </trkpt>
      <trkpt lat="42.87651" lon="2.88697">
        <ele>167.274622</ele>
        <time>2016-06-03T08:31:05Z</time>
      </trkpt>
      <trkpt lat="42.87662" lon="2.88754">
        <ele>166.63004</ele>
        <time>2016-06-03T08:31:08Z</time>
      </trkpt>
      <trkpt lat="42.87688" lon="2.8886">
        <ele>166.234705</ele>
        <time>2016-06-03T08:31:13Z</time>
      </trkpt>
      <trkpt lat="42.87703" lon="2.88923">
        <ele>166.432764</ele>
        <time>2016-06-03T08:31:16Z</time>
      </trkpt>
      <trkpt lat="42.87721" lon="2.88993">
        <ele>166.600948</ele>
        <time>2016-06-03T08:31:19Z</time>
      </trkpt>
      <trkpt lat="42.87737" lon="2.89073">
        <ele>164.759579</ele>
        <time>2016-06-03T08:31:23Z</time>
      </trkpt>
      <trkpt lat="42.87757" lon="2.89144">
        <ele>165.510284</ele>
        <time>2016-06-03T08:31:27Z</time>
      </trkpt>
      <trkpt lat="42.87785" lon="2.89233">
        <ele>167.154705</ele>
        <time>2016-06-03T08:31:31Z</time>
      </trkpt>
      <trkpt lat="42.87798" lon="2.89272">
        <ele>168.059674</ele>
        <time>2016-06-03T08:31:33Z</time>
      </trkpt>
      <trkpt lat="42.87823" lon="2.8932">
        <ele>170.011312</ele>
        <time>2016-06-03T08:31:36Z</time>
      </trkpt>
      <trkpt lat="42.87842" lon="2.89344">
        <ele>171.709745</ele>
        <time>2016-06-03T08:31:38Z</time>
      </trkpt>
      <trkpt lat="42.87868" lon="2.89364">
        <ele>172.392142</ele>
        <time>2016-06-03T08:31:39Z</time>
      </trkpt>
      <trkpt lat="42.87917" lon="2.89386">
        <ele>175.015498</ele>
        <time>2016-06-03T08:31:43Z</time>
      </trkpt>
      <trkpt lat="42.87943" lon="2.89407">
        <ele>175.246484</ele>
        <time>2016-06-03T08:31:44Z</time>
      </trkpt>
      <trkpt lat="42.87979" lon="2.8945">
        <ele>178.144001</ele>
        <time>2016-06-03T08:31:48Z</time>
      </trkpt>
      <trkpt lat="42.88032" lon="2.89517">
        <ele>180.083864</ele>
        <time>2016-06-03T08:31:52Z</time>
      </trkpt>
      <trkpt lat="42.88063" lon="2.89555">
        <ele>179.923753</ele>
        <time>2016-06-03T08:31:55Z</time>
      </trkpt>
      <trkpt lat="42.88085" lon="2.89576">
        <ele>183.224156</ele>
        <time>2016-06-03T08:31:57Z</time>
      </trkpt>
      <trkpt lat="42.88136" lon="2.89594">
        <ele>183.010494</ele>
        <time>2016-06-03T08:32:00Z</time>
      </trkpt>
      <trkpt lat="42.88166" lon="2.89609">
        <ele>184.392888</ele>
        <time>2016-06-03T08:32:02Z</time>
      </trkpt>
      <trkpt lat="42.88194" lon="2.89634">
        <ele>185.324298</ele>
        <time>2016-06-03T08:32:04Z</time>
      </trkpt>
      <trkpt lat="42.88253" lon="2.89707">
        <ele>190.649862</ele>
        <time>2016-06-03T08:32:08Z</time>
      </trkpt>
      <trkpt lat="42.88312" lon="2.89786">
        <ele>194.966799</ele>
        <time>2016-06-03T08:32:12Z</time>
      </trkpt>
      <trkpt lat="42.88369" lon="2.89858">
        <ele>196.614755</ele>
        <time>2016-06-03T08:32:16Z</time>
      </trkpt>
      <trkpt lat="42.884" lon="2.89889">
        <ele>197.667974</ele>
        <time>2016-06-03T08:32:19Z</time>
      </trkpt>
      <trkpt lat="42.88426" lon="2.89899">
        <ele>200.273832</ele>
        <time>2016-06-03T08:32:21Z</time>
      </trkpt>
      <trkpt lat="42.88501" lon="2.89909">
        <ele>201.591179</ele>
        <time>2016-06-03T08:32:26Z</time>
      </trkpt>
      <trkpt lat="42.88573" lon="2.89933">
        <ele>203.620178</ele>
        <time>2016-06-03T08:32:30Z</time>
      </trkpt>
      <trkpt lat="42.88632" lon="2.89954">
        <ele>207.464255</ele>
        <time>2016-06-03T08:32:33Z</time>
      </trkpt>
      <trkpt lat="42.88696" lon="2.89979">
        <ele>206.910695</ele>
        <time>2016-06-03T08:32:37Z</time>
      </trkpt>
      <trkpt lat="42.88722" lon="2.9">
        <ele>208.937048</ele>
        <time>2016-06-03T08:32:39Z</time>
      </trkpt>
      <trkpt lat="42.88761" lon="2.90046">
        <ele>211.520875</ele>
        <time>2016-06-03T08:32:42Z</time>
      </trkpt>
      <trkpt lat="42.88794" lon="2.90087">
        <ele>210.412301</ele>
        <time>2016-06-03T08:32:45Z</time>
      </trkpt>
      <trkpt lat="42.88813" lon="2.90105">
        <ele>210.807279</ele>
        <time>2016-06-03T08:32:47Z</time>
      </trkpt>
      <trkpt lat="42.88839" lon="2.90115">
        <ele>212.124159</ele>
        <time>2016-06-03T08:32:49Z</time>
      </trkpt>
      <trkpt lat="42.88889" lon="2.9013">
        <ele>212.999092</ele>
        <time>2016-06-03T08:32:52Z</time>
      </trkpt>
      <trkpt lat="42.88926" lon="2.90146">
        <ele>216.027155</ele>
        <time>2016-06-03T08:32:54Z</time>
      </trkpt>
      <trkpt lat="42.89002" lon="2.90196">
        <ele>217.758232</ele>
        <time>2016-06-03T08:32:59Z</time>
      </trkpt>
      <trkpt lat="42.89038" lon="2.90218">
        <ele>219.359394</ele>
        <time>2016-06-03T08:33:02Z</time>
      </trkpt>
      <trkpt lat="42.89083" lon="2.90231">
        <ele>220.402131</ele>
        <time>2016-06-03T08:33:05Z</time>
      </trkpt>
      <trkpt lat="42.89129" lon="2.90242">
        <ele>220.370359</ele>
        <time>2016-06-03T08:33:08Z</time>
      </trkpt>
      <trkpt lat="42.89159" lon="2.90257">
        <ele>220.143869</ele>
        <time>2016-06-03T08:33:10Z</time>
      </trkpt>
      <trkpt lat="42.89221" lon="2.90298">
        <ele>224.803469</ele>
        <time>2016-06-03T08:33:14Z</time>
      </trkpt>
      <trkpt lat="42.89283" lon="2.90343">
        <ele>227.277118</ele>
        <time>2016-06-03T08:33:18Z</time>
      </trkpt>
      <trkpt lat="42.89329" lon="2.90382">
        <ele>228.382188</ele>
        <time>2016-06-03T08:33:21Z</time>
      </trkpt>
      <trkpt lat="42.89373" lon="2.90432">
        <ele>229.569544</ele>
        <time>2016-06-03T08:33:24Z</time>
      </trkpt>
      <trkpt lat="42.89444" lon="2.90532">
        <ele>235.535959</ele>
        <time>2016-06-03T08:33:29Z</time>
      </trkpt>
      <trkpt lat="42.89484" lon="2.90591">
        <ele>240.201945</ele>
        <time>2016-06-03T08:33:32Z</time>
      </trkpt>
      <trkpt lat="42.89517" lon="2.90646">
        <ele>240.849428</ele>
        <time>2016-06-03T08:33:35Z</time>
      </trkpt>
      <trkpt lat="42.8955" lon="2.90689">
        <ele>242.788661</ele>
        <time>2016-06-03T08:33:38Z</time>
      </trkpt>
      <trkpt lat="42.8959" lon="2.90724">
        <ele>243.693328</ele>
        <time>2016-06-03T08:33:41Z</time>
      </trkpt>
      <trkpt lat="42.89652" lon="2.9077">
        <ele>246.903368</ele>
        <time>2016-06-03T08:33:45Z</time>
      </trkpt>
      <trkpt lat="42.89723" lon="2.90821">
        <ele>250.900404</ele>
        <time>2016-06-03T08:33:49Z</time>
      </trkpt>
      <trkpt lat="42.89771" lon="2.90856">
        <ele>252.021723</ele>
        <time>2016-06-03T08:33:52Z</time>
      </trkpt>
      <trkpt lat="42.89827" lon="2.90894">
        <ele>252.357805</ele>
        <time>2016-06-03T08:33:56Z</time>
      </trkpt>
      <trkpt lat="42.89863" lon="2.9092">
        <ele>254.541546</ele>
        <time>2016-06-03T08:33:59Z</time>
      </trkpt>
      <trkpt lat="42.8988" lon="2.90938">
        <ele>253.250613</ele>
        <time>2016-06-03T08:34:01Z</time>
      </trkpt>
      <trkpt lat="42.89889" lon="2.90964">
        <ele>252.570516</ele>
        <time>2016-06-03T08:34:03Z</time>
      </trkpt>
      <trkpt lat="42.89888" lon="2.90997">
        <ele>253.127736</ele>
        <time>2016-06-03T08:34:05Z</time>
      </trkpt>
      <trkpt lat="42.89879" lon="2.91028">
        <ele>253.341064</ele>
        <time>2016-06-03T08:34:07Z</time>
      </trkpt>
      <trkpt lat="42.89863" lon="2.9105">
        <ele>253.49416</ele>
        <time>2016-06-03T08:34:09Z</time>
      </trkpt>
      <trkpt lat="42.89852" lon="2.91076">
        <ele>252.906418</ele>
        <time>2016-06-03T08:34:11Z</time>
      </trkpt>
      <trkpt lat="42.89849" lon="2.91115">
        <ele>253.695027</ele>
        <time>2016-06-03T08:34:13Z</time>
      </trkpt>
      <trkpt lat="42.89853" lon="2.91176">
        <ele>254.481058</ele>
        <time>2016-06-03T08:34:16Z</time>
      </trkpt>
      <trkpt lat="42.89859" lon="2.91214">
        <ele>256.15796</ele>
        <time>2016-06-03T08:34:18Z</time>
      </trkpt>
      <trkpt lat="42.8987" lon="2.91248">
        <ele>256.467287</ele>
        <time>2016-06-03T08:34:20Z</time>
      </trkpt>
      <trkpt lat="42.89904" lon="2.91298">
        <ele>258.808404</ele>
        <time>2016-06-03T08:34:23Z</time>
      </trkpt>
      <trkpt lat="42.89921" lon="2.91331">
        <ele>258.348712</ele>
        <time>2016-06-03T08:34:25Z</time>
      </trkpt>
      <trkpt lat="42.89941" lon="2.91382">
        <ele>261.755103</ele>
        <time>2016-06-03T08:34:28Z</time>
      </trkpt>
      <trkpt lat="42.89955" lon="2.91408">
        <ele>262.811066</ele>
        <time>2016-06-03T08:34:30Z</time>
      </trkpt>
      <trkpt lat="42.89971" lon="2.91426">
        <ele>263.500012</ele>
        <time>2016-06-03T08:34:32Z</time>
      </trkpt>
      <trkpt lat="42.90024" lon="2.91418">
        <ele>265.926867</ele>
        <time>2016-06-03T08:34:36Z</time>
      </trkpt>
      <trkpt lat="42.90047" lon="2.91416">
        <ele>265.858079</ele>
        <time>2016-06-03T08:34:38Z</time>
      </trkpt>
      <trkpt lat="42.90068" lon="2.91422">
        <ele>265.174833</ele>
        <time>2016-06-03T08:34:40Z</time>
      </trkpt>
      <trkpt lat="42.90092" lon="2.91449">
        <ele>266.329236</ele>
        <time>2016-06-03T08:34:43Z</time>
      </trkpt>
      <trkpt lat="42.90109" lon="2.91462">
        <ele>267.091221</ele>
        <time>2016-06-03T08:34:45Z</time>
      </trkpt>
      <trkpt lat="42.90163" lon="2.91463">
        <ele>269.521327</ele>
        <time>2016-06-03T08:34:49Z</time>
      </trkpt>
      <trkpt lat="42.90204" lon="2.91461">
        <ele>271.76788</ele>
        <time>2016-06-03T08:34:52Z</time>
      </trkpt>
      <trkpt lat="42.90248" lon="2.91453">
        <ele>273.338261</ele>
        <time>2016-06-03T08:34:55Z</time>
      </trkpt>
      <trkpt lat="42.90274" lon="2.91445">
        <ele>273.03712</ele>
        <time>2016-06-03T08:34:57Z</time>
      </trkpt>
      <trkpt lat="42.90313" lon="2.91424">
        <ele>273.143297</ele>
        <time>2016-06-03T08:35:00Z</time>
      </trkpt>
      <trkpt lat="42.90339" lon="2.91414">
        <ele>271.634625</ele>
        <time>2016-06-03T08:35:02Z</time>
      </trkpt>
      <trkpt lat="42.90369" lon="2.9141">
        <ele>271.115644</ele>
        <time>2016-06-03T08:35:04Z</time>
      </trkpt>
      <trkpt lat="42.90421" lon="2.91409">
        <ele>270.434923</ele>
        <time>2016-06-03T08:35:07Z</time>
      </trkpt>
      <trkpt lat="42.90483" lon="2.91404">
        <ele>267.338048</ele>
        <time>2016-06-03T08:35:11Z</time>
      </trkpt>
      <trkpt lat="42.90526" lon="2.91406">
        <ele>264.917983</ele>
        <time>2016-06-03T08:35:14Z</time>
      </trkpt>
      <trkpt lat="42.90569" lon="2.91407">
        <ele>262.882245</ele>
        <time>2016-06-03T08:35:17Z</time>
      </trkpt>
      <trkpt lat="42.90595" lon="2.91403">
        <ele>259.771422</ele>
        <time>2016-06-03T08:35:19Z</time>
      </trkpt>
      <trkpt lat="42.90621" lon="2.91406">
        <ele>258.083942</ele>
        <time>2016-06-03T08:35:21Z</time>
      </trkpt>
      <trkpt lat="42.90646" lon="2.9142">
        <ele>256.65954</ele>
        <time>2016-06-03T08:35:23Z</time>
      </trkpt>
      <trkpt lat="42.9067" lon="2.91446">
        <ele>255.056397</ele>
        <time>2016-06-03T08:35:25Z</time>
      </trkpt>
      <trkpt lat="42.907" lon="2.91491">
        <ele>253.124633</ele>
        <time>2016-06-03T08:35:28Z</time>
      </trkpt>
      <trkpt lat="42.90725" lon="2.91533">
        <ele>249.863634</ele>
        <time>2016-06-03T08:35:31Z</time>
      </trkpt>
      <trkpt lat="42.90743" lon="2.91553">
        <ele>250.42805</ele>
        <time>2016-06-03T08:35:33Z</time>
      </trkpt>
      <trkpt lat="42.908" lon="2.91571">
        <ele>249.26127</ele>
        <time>2016-06-03T08:35:37Z</time>
      </trkpt>
      <trkpt lat="42.90885" lon="2.91599">
        <ele>252.594712</ele>
        <time>2016-06-03T08:35:42Z</time>
      </trkpt>
      <trkpt lat="42.9094" lon="2.91616">
        <ele>253.483816</ele>
        <time>2016-06-03T08:35:46Z</time>
      </trkpt>
      <trkpt lat="42.90961" lon="2.9162">
        <ele>255.708576</ele>
        <time>2016-06-03T08:35:48Z</time>
      </trkpt>
      <trkpt lat="42.90977" lon="2.91616">
        <ele>255.962929</ele>
        <time>2016-06-03T08:35:50Z</time>
      </trkpt>
      <trkpt lat="42.90996" lon="2.91584">
        <ele>257.992359</ele>
        <time>2016-06-03T08:35:53Z</time>
      </trkpt>
      <trkpt lat="42.91015" lon="2.91545">
        <ele>256.458382</ele>
        <time>2016-06-03T08:35:56Z</time>
      </trkpt>
      <trkpt lat="42.91034" lon="2.91501">
        <ele>254.072678</ele>
        <time>2016-06-03T08:35:59Z</time>
      </trkpt>
      <trkpt lat="42.91041" lon="2.91473">
        <ele>252.210549</ele>
        <time>2016-06-03T08:36:01Z</time>
      </trkpt>
      <trkpt lat="42.91043" lon="2.91447">
        <ele>251.684302</ele>
        <time>2016-06-03T08:36:03Z</time>
      </trkpt>
      <trkpt lat="42.9104" lon="2.91422">
        <ele>250.202357</ele>
        <time>2016-06-03T08:36:05Z</time>
      </trkpt>
      <trkpt lat="42.91034" lon="2.91401">
        <ele>249.194864</ele>
        <time>2016-06-03T08:36:07Z</time>
      </trkpt>
      <trkpt lat="42.91034" lon="2.91374">
        <ele>248.736458</ele>
        <time>2016-06-03T08:36:09Z</time>
      </trkpt>
      <trkpt lat="42.91037" lon="2.91333">
        <ele>247.046207</ele>
        <time>2016-06-03T08:36:12Z</time>
      </trkpt>
      <trkpt lat="42.91032" lon="2.91301">
        <ele>245.770346</ele>
        <time>2016-06-03T08:36:14Z</time>
      </trkpt>
      <trkpt lat="42.91012" lon="2.91227">
        <ele>243.586748</ele>
        <time>2016-06-03T08:36:18Z</time>
      </trkpt>
      <trkpt lat="42.90998" lon="2.91155">
        <ele>240.20887</ele>
        <time>2016-06-03T08:36:22Z</time>
      </trkpt>
      <trkpt lat="42.9098" lon="2.91068">
        <ele>236.148641</ele>
        <time>2016-06-03T08:36:27Z</time>
      </trkpt>
      <trkpt lat="42.90978" lon="2.91035">
        <ele>234.30161</ele>
        <time>2016-06-03T08:36:29Z</time>
      </trkpt>
      <trkpt lat="42.90973" lon="2.9098">
        <ele>232.668277</ele>
        <time>2016-06-03T08:36:32Z</time>
      </trkpt>
      <trkpt lat="42.90969" lon="2.90954">
        <ele>230.10146</ele>
        <time>2016-06-03T08:36:34Z</time>
      </trkpt>
      <trkpt lat="42.9097" lon="2.90933">
        <ele>228.820976</ele>
        <time>2016-06-03T08:36:36Z</time>
      </trkpt>
      <trkpt lat="42.90964" lon="2.90911">
        <ele>228.060721</ele>
        <time>2016-06-03T08:36:38Z</time>
      </trkpt>
      <trkpt lat="42.90968" lon="2.90893">
        <ele>227.060376</ele>
        <time>2016-06-03T08:36:40Z</time>
      </trkpt>
      <trkpt lat="42.90968" lon="2.90883">
        <ele>226.413791</ele>
        <time>2016-06-03T08:36:41Z</time>
      </trkpt>
      <trkpt lat="42.90976" lon="2.90864">
        <ele>225.710634</ele>
        <time>2016-06-03T08:36:43Z</time>
      </trkpt>
      <trkpt lat="42.90977" lon="2.90809">
        <ele>223.990784</ele>
        <time>2016-06-03T08:36:47Z</time>
      </trkpt>
      <trkpt lat="42.90976" lon="2.90783">
        <ele>223.050965</ele>
        <time>2016-06-03T08:36:49Z</time>
      </trkpt>
      <trkpt lat="42.9098" lon="2.90767">
        <ele>222.961234</ele>
        <time>2016-06-03T08:36:51Z</time>
      </trkpt>
      <trkpt lat="42.90995" lon="2.9076">
        <ele>223.693909</ele>
        <time>2016-06-03T08:36:53Z</time>
      </trkpt>
      <trkpt lat="42.91008" lon="2.90771">
        <ele>225.191321</ele>
        <time>2016-06-03T08:36:55Z</time>
      </trkpt>
      <trkpt lat="42.91028" lon="2.90801">
        <ele>227.240161</ele>
        <time>2016-06-03T08:36:58Z</time>
      </trkpt>
      <trkpt lat="42.91057" lon="2.90833">
        <ele>228.918914</ele>
        <time>2016-06-03T08:37:01Z</time>
      </trkpt>
      <trkpt lat="42.91091" lon="2.90861">
        <ele>230.770982</ele>
        <time>2016-06-03T08:37:04Z</time>
      </trkpt>
      <trkpt lat="42.91098" lon="2.90866">
        <ele>230.811254</ele>
        <time>2016-06-03T08:37:05Z</time>
      </trkpt>
      <trkpt lat="42.91119" lon="2.90863">
        <ele>231.417209</ele>
        <time>2016-06-03T08:37:07Z</time>
      </trkpt>
      <trkpt lat="42.91138" lon="2.90862">
        <ele>231.479913</ele>
        <time>2016-06-03T08:37:09Z</time>
      </trkpt>
      <trkpt lat="42.91163" lon="2.90881">
        <ele>232.975832</ele>
        <time>2016-06-03T08:37:12Z</time>
      </trkpt>
      <trkpt lat="42.91194" lon="2.90891">
        <ele>234.523438</ele>
        <time>2016-06-03T08:37:15Z</time>
      </trkpt>
      <trkpt lat="42.91218" lon="2.90908">
        <ele>234.495493</ele>
        <time>2016-06-03T08:37:17Z</time>
      </trkpt>
      <trkpt lat="42.91245" lon="2.9094">
        <ele>237.412222</ele>
        <time>2016-06-03T08:37:20Z</time>
      </trkpt>
      <trkpt lat="42.91264" lon="2.90958">
        <ele>236.508546</ele>
        <time>2016-06-03T08:37:22Z</time>
      </trkpt>
      <trkpt lat="42.91281" lon="2.90964">
        <ele>236.779934</ele>
        <time>2016-06-03T08:37:24Z</time>
      </trkpt>
      <trkpt lat="42.9132" lon="2.9094">
        <ele>238.688134</ele>
        <time>2016-06-03T08:37:28Z</time>
      </trkpt>
      <trkpt lat="42.91339" lon="2.90926">
        <ele>240.081122</ele>
        <time>2016-06-03T08:37:30Z</time>
      </trkpt>
      <trkpt lat="42.91359" lon="2.90921">
        <ele>239.655056</ele>
        <time>2016-06-03T08:37:32Z</time>
      </trkpt>
      <trkpt lat="42.91388" lon="2.90929">
        <ele>242.111216</ele>
        <time>2016-06-03T08:37:35Z</time>
      </trkpt>
      <trkpt lat="42.91406" lon="2.90926">
        <ele>242.612477</ele>
        <time>2016-06-03T08:37:37Z</time>
      </trkpt>
      <trkpt lat="42.9143" lon="2.90907">
        <ele>243.255909</ele>
        <time>2016-06-03T08:37:40Z</time>
      </trkpt>
      <trkpt lat="42.91443" lon="2.90912">
        <ele>242.667585</ele>
        <time>2016-06-03T08:37:42Z</time>
      </trkpt>
      <trkpt lat="42.91452" lon="2.90923">
        <ele>243.551437</ele>
        <time>2016-06-03T08:37:44Z</time>
      </trkpt>
      <trkpt lat="42.91459" lon="2.90942">
        <ele>244.019299</ele>
        <time>2016-06-03T08:37:46Z</time>
      </trkpt>
      <trkpt lat="42.91475" lon="2.90945">
        <ele>245.627385</ele>
        <time>2016-06-03T08:37:48Z</time>
      </trkpt>
      <trkpt lat="42.91499" lon="2.90941">
        <ele>246.447973</ele>
        <time>2016-06-03T08:37:50Z</time>
      </trkpt>
      <trkpt lat="42.91511" lon="2.90935">
        <ele>246.236806</ele>
        <time>2016-06-03T08:37:51Z</time>
      </trkpt>
      <trkpt lat="42.91517" lon="2.90925">
        <ele>247.309437</ele>
        <time>2016-06-03T08:37:53Z</time>
      </trkpt>
      <trkpt lat="42.91534" lon="2.90932">
        <ele>247.176227</ele>
        <time>2016-06-03T08:37:55Z</time>
      </trkpt>
      <trkpt lat="42.9155" lon="2.90942">
        <ele>248.452217</ele>
        <time>2016-06-03T08:37:57Z</time>
      </trkpt>
      <trkpt lat="42.91587" lon="2.9095">
        <ele>250.847978</ele>
        <time>2016-06-03T08:38:00Z</time>
      </trkpt>
      <trkpt lat="42.91611" lon="2.90966">
        <ele>248.718717</ele>
        <time>2016-06-03T08:38:02Z</time>
      </trkpt>
      <trkpt lat="42.91635" lon="2.90987">
        <ele>252.953444</ele>
        <time>2016-06-03T08:38:04Z</time>
      </trkpt>
      <trkpt lat="42.91663" lon="2.91009">
        <ele>253.505723</ele>
        <time>2016-06-03T08:38:06Z</time>
      </trkpt>
      <trkpt lat="42.91695" lon="2.9105">
        <ele>255.743469</ele>
        <time>2016-06-03T08:38:09Z</time>
      </trkpt>
      <trkpt lat="42.91713" lon="2.91069">
        <ele>257.728493</ele>
        <time>2016-06-03T08:38:11Z</time>
      </trkpt>
      <trkpt lat="42.91754" lon="2.91089">
        <ele>257.504792</ele>
        <time>2016-06-03T08:38:14Z</time>
      </trkpt>
      <trkpt lat="42.91778" lon="2.91093">
        <ele>257.514154</ele>
        <time>2016-06-03T08:38:16Z</time>
      </trkpt>
      <trkpt lat="42.91802" lon="2.91092">
        <ele>258.505118</ele>
        <time>2016-06-03T08:38:18Z</time>
      </trkpt>
      <trkpt lat="42.91821" lon="2.91099">
        <ele>257.721961</ele>
        <time>2016-06-03T08:38:20Z</time>
      </trkpt>
      <trkpt lat="42.91845" lon="2.91124">
        <ele>258.586212</ele>
        <time>2016-06-03T08:38:23Z</time>
      </trkpt>
      <trkpt lat="42.91868" lon="2.91129">
        <ele>259.045173</ele>
        <time>2016-06-03T08:38:25Z</time>
      </trkpt>
      <trkpt lat="42.9191" lon="2.91131">
        <ele>259.517088</ele>
        <time>2016-06-03T08:38:28Z</time>
      </trkpt>
      <trkpt lat="42.91936" lon="2.91137">
        <ele>258.361258</ele>
        <time>2016-06-03T08:38:30Z</time>
      </trkpt>
      <trkpt lat="42.9198" lon="2.91159">
        <ele>258.896636</ele>
        <time>2016-06-03T08:38:33Z</time>
      </trkpt>
      <trkpt lat="42.92017" lon="2.91182">
        <ele>257.905099</ele>
        <time>2016-06-03T08:38:36Z</time>
      </trkpt>
      <trkpt lat="42.92041" lon="2.91185">
        <ele>258.405323</ele>
        <time>2016-06-03T08:38:38Z</time>
      </trkpt>
      <trkpt lat="42.92065" lon="2.91183">
        <ele>258.089703</ele>
        <time>2016-06-03T08:38:40Z</time>
      </trkpt>
      <trkpt lat="42.92088" lon="2.91169">
        <ele>256.864689</ele>
        <time>2016-06-03T08:38:42Z</time>
      </trkpt>
      <trkpt lat="42.92109" lon="2.91145">
        <ele>257.895455</ele>
        <time>2016-06-03T08:38:44Z</time>
      </trkpt>
      <trkpt lat="42.92133" lon="2.91103">
        <ele>254.054248</ele>
        <time>2016-06-03T08:38:47Z</time>
      </trkpt>
      <trkpt lat="42.92143" lon="2.91071">
        <ele>253.645914</ele>
        <time>2016-06-03T08:38:49Z</time>
      </trkpt>
      <trkpt lat="42.92151" lon="2.91">
        <ele>251.753483</ele>
        <time>2016-06-03T08:38:53Z</time>
      </trkpt>
      <trkpt lat="42.92161" lon="2.90956">
        <ele>250.382213</ele>
        <time>2016-06-03T08:38:56Z</time>
      </trkpt>
      <trkpt lat="42.92167" lon="2.90906">
        <ele>247.79232</ele>
        <time>2016-06-03T08:38:59Z</time>
      </trkpt>
      <trkpt lat="42.9217" lon="2.9087">
        <ele>245.127355</ele>
        <time>2016-06-03T08:39:01Z</time>
      </trkpt>
      <trkpt lat="42.92177" lon="2.90839">
        <ele>243.540776</ele>
        <time>2016-06-03T08:39:03Z</time>
      </trkpt>
      <trkpt lat="42.92191" lon="2.90804">
        <ele>240.448407</ele>
        <time>2016-06-03T08:39:06Z</time>
      </trkpt>
      <trkpt lat="42.92199" lon="2.9079">
        <ele>238.93813</ele>
        <time>2016-06-03T08:39:08Z</time>
      </trkpt>
      <trkpt lat="42.92196" lon="2.90774">
        <ele>238.615196</ele>
        <time>2016-06-03T08:39:10Z</time>
      </trkpt>
      <trkpt lat="42.92176" lon="2.90752">
        <ele>236.779378</ele>
        <time>2016-06-03T08:39:13Z</time>
      </trkpt>
      <trkpt lat="42.9216" lon="2.90732">
        <ele>235.788828</ele>
        <time>2016-06-03T08:39:15Z</time>
      </trkpt>
      <trkpt lat="42.9215" lon="2.90704">
        <ele>234.869424</ele>
        <time>2016-06-03T08:39:17Z</time>
      </trkpt>
      <trkpt lat="42.92139" lon="2.90656">
        <ele>233.147573</ele>
        <time>2016-06-03T08:39:20Z</time>
      </trkpt>
      <trkpt lat="42.92137" lon="2.90629">
        <ele>231.586821</ele>
        <time>2016-06-03T08:39:22Z</time>
      </trkpt>
      <trkpt lat="42.92136" lon="2.90611">
        <ele>230.224773</ele>
        <time>2016-06-03T08:39:24Z</time>
      </trkpt>
      <trkpt lat="42.92128" lon="2.90596">
        <ele>229.067732</ele>
        <time>2016-06-03T08:39:26Z</time>
      </trkpt>
      <trkpt lat="42.92122" lon="2.90597">
        <ele>229.093198</ele>
        <time>2016-06-03T08:39:27Z</time>
      </trkpt>
      <trkpt lat="42.92111" lon="2.90579">
        <ele>227.364093</ele>
        <time>2016-06-03T08:39:30Z</time>
      </trkpt>
      <trkpt lat="42.92116" lon="2.90551">
        <ele>226.304992</ele>
        <time>2016-06-03T08:39:33Z</time>
      </trkpt>
      <trkpt lat="42.92124" lon="2.90533">
        <ele>225.349357</ele>
        <time>2016-06-03T08:39:35Z</time>
      </trkpt>
      <trkpt lat="42.92136" lon="2.90518">
        <ele>225.074931</ele>
        <time>2016-06-03T08:39:37Z</time>
      </trkpt>
      <trkpt lat="42.92151" lon="2.90508">
        <ele>223.973597</ele>
        <time>2016-06-03T08:39:39Z</time>
      </trkpt>
      <trkpt lat="42.92194" lon="2.90491">
        <ele>220.432221</ele>
        <time>2016-06-03T08:39:44Z</time>
      </trkpt>
      <trkpt lat="42.92212" lon="2.90479">
        <ele>221.086522</ele>
        <time>2016-06-03T08:39:46Z</time>
      </trkpt>
      <trkpt lat="42.92237" lon="2.90445">
        <ele>218.737413</ele>
        <time>2016-06-03T08:39:49Z</time>
      </trkpt>
      <trkpt lat="42.92256" lon="2.90412">
        <ele>216.50818</ele>
        <time>2016-06-03T08:39:52Z</time>
      </trkpt>
      <trkpt lat="42.92266" lon="2.90386">
        <ele>215.511759</ele>
        <time>2016-06-03T08:39:54Z</time>
      </trkpt>
      <trkpt lat="42.92275" lon="2.90339">
        <ele>213.437811</ele>
        <time>2016-06-03T08:39:57Z</time>
      </trkpt>
      <trkpt lat="42.92278" lon="2.90319">
        <ele>211.582084</ele>
        <time>2016-06-03T08:39:58Z</time>
      </trkpt>
      <trkpt lat="42.92304" lon="2.90278">
        <ele>210.215741</ele>
        <time>2016-06-03T08:40:01Z</time>
      </trkpt>
      <trkpt lat="42.92316" lon="2.9025">
        <ele>208.68268</ele>
        <time>2016-06-03T08:40:03Z</time>
      </trkpt>
      <trkpt lat="42.92339" lon="2.90215">
        <ele>206.286109</ele>
        <time>2016-06-03T08:40:06Z</time>
      </trkpt>
      <trkpt lat="42.92355" lon="2.9018">
        <ele>204.248342</ele>
        <time>2016-06-03T08:40:09Z</time>
      </trkpt>
      <trkpt lat="42.92363" lon="2.90154">
        <ele>203.397548</ele>
        <time>2016-06-03T08:40:11Z</time>
      </trkpt>
      <trkpt lat="42.92371" lon="2.90133">
        <ele>202.098222</ele>
        <time>2016-06-03T08:40:13Z</time>
      </trkpt>
      <trkpt lat="42.92383" lon="2.90121">
        <ele>201.367613</ele>
        <time>2016-06-03T08:40:15Z</time>
      </trkpt>
      <trkpt lat="42.9239" lon="2.90116">
        <ele>200.744633</ele>
        <time>2016-06-03T08:40:16Z</time>
      </trkpt>
      <trkpt lat="42.92415" lon="2.90123">
        <ele>199.878589</ele>
        <time>2016-06-03T08:40:19Z</time>
      </trkpt>
      <trkpt lat="42.92425" lon="2.90137">
        <ele>199.194066</ele>
        <time>2016-06-03T08:40:21Z</time>
      </trkpt>
      <trkpt lat="42.9243" lon="2.90148">
        <ele>198.632794</ele>
        <time>2016-06-03T08:40:22Z</time>
      </trkpt>
      <trkpt lat="42.92427" lon="2.90193">
        <ele>199.119056</ele>
        <time>2016-06-03T08:40:25Z</time>
      </trkpt>
      <trkpt lat="42.92411" lon="2.90256">
        <ele>198.031843</ele>
        <time>2016-06-03T08:40:29Z</time>
      </trkpt>
      <trkpt lat="42.92406" lon="2.90294">
        <ele>196.464632</ele>
        <time>2016-06-03T08:40:32Z</time>
      </trkpt>
      <trkpt lat="42.92412" lon="2.90326">
        <ele>196.011397</ele>
        <time>2016-06-03T08:40:34Z</time>
      </trkpt>
      <trkpt lat="42.9244" lon="2.90419">
        <ele>193.663029</ele>
        <time>2016-06-03T08:40:39Z</time>
      </trkpt>
      <trkpt lat="42.92453" lon="2.90472">
        <ele>191.775579</ele>
        <time>2016-06-03T08:40:42Z</time>
      </trkpt>
      <trkpt lat="42.92472" lon="2.90516">
        <ele>190.884989</ele>
        <time>2016-06-03T08:40:45Z</time>
      </trkpt>
      <trkpt lat="42.92487" lon="2.90538">
        <ele>188.273752</ele>
        <time>2016-06-03T08:40:47Z</time>
      </trkpt>
      <trkpt lat="42.92504" lon="2.90546">
        <ele>187.683732</ele>
        <time>2016-06-03T08:40:49Z</time>
      </trkpt>
      <trkpt lat="42.92535" lon="2.90534">
        <ele>187.410422</ele>
        <time>2016-06-03T08:40:52Z</time>
      </trkpt>
      <trkpt lat="42.92577" lon="2.90518">
        <ele>185.925927</ele>
        <time>2016-06-03T08:40:55Z</time>
      </trkpt>
      <trkpt lat="42.92618" lon="2.90506">
        <ele>183.958211</ele>
        <time>2016-06-03T08:40:58Z</time>
      </trkpt>
      <trkpt lat="42.92645" lon="2.90493">
        <ele>181.314241</ele>
        <time>2016-06-03T08:41:00Z</time>
      </trkpt>
      <trkpt lat="42.92676" lon="2.90487">
        <ele>180.983427</ele>
        <time>2016-06-03T08:41:03Z</time>
      </trkpt>
      <trkpt lat="42.92694" lon="2.9049">
        <ele>179.544468</ele>
        <time>2016-06-03T08:41:05Z</time>
      </trkpt>
      <trkpt lat="42.92709" lon="2.90501">
        <ele>177.926441</ele>
        <time>2016-06-03T08:41:07Z</time>
      </trkpt>
      <trkpt lat="42.92723" lon="2.90518">
        <ele>177.988402</ele>
        <time>2016-06-03T08:41:10Z</time>
      </trkpt>
      <trkpt lat="42.92725" lon="2.90522">
        <ele>179.008523</ele>
        <time>2016-06-03T08:41:16Z</time>
      </trkpt>
      <trkpt lat="42.92727" lon="2.90524">
        <ele>178.386906</ele>
        <time>2016-06-03T08:41:18Z</time>
      </trkpt>
      <trkpt lat="42.92738" lon="2.90512">
        <ele>178.927736</ele>
        <time>2016-06-03T08:41:21Z</time>
      </trkpt>
      <trkpt lat="42.9276" lon="2.9047">
        <ele>180.688841</ele>
        <time>2016-06-03T08:41:25Z</time>
      </trkpt>
      <trkpt lat="42.92783" lon="2.90424">
        <ele>181.243462</ele>
        <time>2016-06-03T08:41:28Z</time>
      </trkpt>
      <trkpt lat="42.928" lon="2.90396">
        <ele>181.248198</ele>
        <time>2016-06-03T08:41:30Z</time>
      </trkpt>
      <trkpt lat="42.92825" lon="2.90347">
        <ele>180.692395</ele>
        <time>2016-06-03T08:41:33Z</time>
      </trkpt>
      <trkpt lat="42.92841" lon="2.90315">
        <ele>182.682126</ele>
        <time>2016-06-03T08:41:35Z</time>
      </trkpt>
      <trkpt lat="42.92853" lon="2.90278">
        <ele>183.447846</ele>
        <time>2016-06-03T08:41:37Z</time>
      </trkpt>
      <trkpt lat="42.92861" lon="2.90238">
        <ele>183.65073</ele>
        <time>2016-06-03T08:41:39Z</time>
      </trkpt>
      <trkpt lat="42.92863" lon="2.90176">
        <ele>184.194581</ele>
        <time>2016-06-03T08:41:42Z</time>
      </trkpt>
      <trkpt lat="42.9286" lon="2.90061">
        <ele>186.20221</ele>
        <time>2016-06-03T08:41:47Z</time>
      </trkpt>
      <trkpt lat="42.92859" lon="2.89999">
        <ele>188.419053</ele>
        <time>2016-06-03T08:41:50Z</time>
      </trkpt>
      <trkpt lat="42.92862" lon="2.89963">
        <ele>187.689005</ele>
        <time>2016-06-03T08:41:52Z</time>
      </trkpt>
      <trkpt lat="42.92867" lon="2.89927">
        <ele>188.69187</ele>
        <time>2016-06-03T08:41:54Z</time>
      </trkpt>
      <trkpt lat="42.92879" lon="2.89889">
        <ele>189.746902</ele>
        <time>2016-06-03T08:41:56Z</time>
      </trkpt>
      <trkpt lat="42.92897" lon="2.89803">
        <ele>190.028766</ele>
        <time>2016-06-03T08:42:00Z</time>
      </trkpt>
      <trkpt lat="42.92908" lon="2.89765">
        <ele>190.828928</ele>
        <time>2016-06-03T08:42:02Z</time>
      </trkpt>
      <trkpt lat="42.92922" lon="2.89732">
        <ele>192.363389</ele>
        <time>2016-06-03T08:42:04Z</time>
      </trkpt>
      <trkpt lat="42.92954" lon="2.89684">
        <ele>191.915927</ele>
        <time>2016-06-03T08:42:07Z</time>
      </trkpt>
      <trkpt lat="42.92976" lon="2.89665">
        <ele>191.71829</ele>
        <time>2016-06-03T08:42:09Z</time>
      </trkpt>
      <trkpt lat="42.9299" lon="2.89647">
        <ele>192.41134</ele>
        <time>2016-06-03T08:42:11Z</time>
      </trkpt>
      <trkpt lat="42.92995" lon="2.89637">
        <ele>192.669402</ele>
        <time>2016-06-03T08:42:12Z</time>
      </trkpt>
      <trkpt lat="42.92994" lon="2.89616">
        <ele>194.444608</ele>
        <time>2016-06-03T08:42:14Z</time>
      </trkpt>
      <trkpt lat="42.92988" lon="2.89563">
        <ele>194.318216</ele>
        <time>2016-06-03T08:42:17Z</time>
      </trkpt>
      <trkpt lat="42.92987" lon="2.89501">
        <ele>197.906906</ele>
        <time>2016-06-03T08:42:20Z</time>
      </trkpt>
      <trkpt lat="42.92988" lon="2.89455">
        <ele>200.283698</ele>
        <time>2016-06-03T08:42:22Z</time>
      </trkpt>
      <trkpt lat="42.92995" lon="2.89389">
        <ele>203.276544</ele>
        <time>2016-06-03T08:42:25Z</time>
      </trkpt>
      <trkpt lat="42.93009" lon="2.89303">
        <ele>205.755263</ele>
        <time>2016-06-03T08:42:29Z</time>
      </trkpt>
      <trkpt lat="42.9302" lon="2.89235">
        <ele>205.630969</ele>
        <time>2016-06-03T08:42:32Z</time>
      </trkpt>
      <trkpt lat="42.93038" lon="2.89175">
        <ele>205.73369</ele>
        <time>2016-06-03T08:42:35Z</time>
      </trkpt>
      <trkpt lat="42.93057" lon="2.89111">
        <ele>208.338475</ele>
        <time>2016-06-03T08:42:38Z</time>
      </trkpt>
      <trkpt lat="42.93076" lon="2.89038">
        <ele>209.715017</ele>
        <time>2016-06-03T08:42:41Z</time>
      </trkpt>
      <trkpt lat="42.93098" lon="2.88963">
        <ele>212.533334</ele>
        <time>2016-06-03T08:42:44Z</time>
      </trkpt>
      <trkpt lat="42.9311" lon="2.88919">
        <ele>213.092415</ele>
        <time>2016-06-03T08:42:46Z</time>
      </trkpt>
      <trkpt lat="42.93122" lon="2.88883">
        <ele>213.81061</ele>
        <time>2016-06-03T08:42:48Z</time>
      </trkpt>
      <trkpt lat="42.93166" lon="2.88802">
        <ele>219.619669</ele>
        <time>2016-06-03T08:42:52Z</time>
      </trkpt>
      <trkpt lat="42.93202" lon="2.88741">
        <ele>219.092114</ele>
        <time>2016-06-03T08:42:55Z</time>
      </trkpt>
      <trkpt lat="42.93226" lon="2.88707">
        <ele>220.611437</ele>
        <time>2016-06-03T08:42:57Z</time>
      </trkpt>
      <trkpt lat="42.93263" lon="2.88666">
        <ele>222.695729</ele>
        <time>2016-06-03T08:43:00Z</time>
      </trkpt>
      <trkpt lat="42.93309" lon="2.88636">
        <ele>223.919871</ele>
        <time>2016-06-03T08:43:03Z</time>
      </trkpt>
      <trkpt lat="42.93342" lon="2.88613">
        <ele>226.016174</ele>
        <time>2016-06-03T08:43:05Z</time>
      </trkpt>
      <trkpt lat="42.93391" lon="2.88589">
        <ele>226.533405</ele>
        <time>2016-06-03T08:43:08Z</time>
      </trkpt>
      <trkpt lat="42.93434" lon="2.88574">
        <ele>228.255536</ele>
        <time>2016-06-03T08:43:11Z</time>
      </trkpt>
      <trkpt lat="42.93456" lon="2.88575">
        <ele>228.295767</ele>
        <time>2016-06-03T08:43:13Z</time>
      </trkpt>
      <trkpt lat="42.93489" lon="2.88583">
        <ele>229.632855</ele>
        <time>2016-06-03T08:43:16Z</time>
      </trkpt>
      <trkpt lat="42.93512" lon="2.88576">
        <ele>230.217043</ele>
        <time>2016-06-03T08:43:18Z</time>
      </trkpt>
      <trkpt lat="42.93547" lon="2.88543">
        <ele>232.063099</ele>
        <time>2016-06-03T08:43:21Z</time>
      </trkpt>
      <trkpt lat="42.93588" lon="2.88502">
        <ele>233.936888</ele>
        <time>2016-06-03T08:43:24Z</time>
      </trkpt>
      <trkpt lat="42.93623" lon="2.88468">
        <ele>235.242978</ele>
        <time>2016-06-03T08:43:27Z</time>
      </trkpt>
      <trkpt lat="42.93643" lon="2.88441">
        <ele>235.90254</ele>
        <time>2016-06-03T08:43:29Z</time>
      </trkpt>
      <trkpt lat="42.93673" lon="2.88392">
        <ele>237.334228</ele>
        <time>2016-06-03T08:43:32Z</time>
      </trkpt>
      <trkpt lat="42.93707" lon="2.88341">
        <ele>237.411742</ele>
        <time>2016-06-03T08:43:35Z</time>
      </trkpt>
      <trkpt lat="42.93748" lon="2.88295">
        <ele>239.588479</ele>
        <time>2016-06-03T08:43:38Z</time>
      </trkpt>
      <trkpt lat="42.93786" lon="2.88255">
        <ele>240.127829</ele>
        <time>2016-06-03T08:43:41Z</time>
      </trkpt>
      <trkpt lat="42.93809" lon="2.88225">
        <ele>240.732659</ele>
        <time>2016-06-03T08:43:43Z</time>
      </trkpt>
      <trkpt lat="42.93835" lon="2.88176">
        <ele>239.643351</ele>
        <time>2016-06-03T08:43:46Z</time>
      </trkpt>
      <trkpt lat="42.93857" lon="2.88103">
        <ele>243.939663</ele>
        <time>2016-06-03T08:43:50Z</time>
      </trkpt>
      <trkpt lat="42.93879" lon="2.88043">
        <ele>241.352145</ele>
        <time>2016-06-03T08:43:53Z</time>
      </trkpt>
      <trkpt lat="42.93908" lon="2.87972">
        <ele>239.55411</ele>
        <time>2016-06-03T08:43:56Z</time>
      </trkpt>
      <trkpt lat="42.93936" lon="2.87908">
        <ele>238.862378</ele>
        <time>2016-06-03T08:43:59Z</time>
      </trkpt>
      <trkpt lat="42.93962" lon="2.87847">
        <ele>234.577879</ele>
        <time>2016-06-03T08:44:02Z</time>
      </trkpt>
      <trkpt lat="42.93981" lon="2.87778">
        <ele>233.443812</ele>
        <time>2016-06-03T08:44:05Z</time>
      </trkpt>
      <trkpt lat="42.93995" lon="2.87712">
        <ele>231.986044</ele>
        <time>2016-06-03T08:44:08Z</time>
      </trkpt>
      <trkpt lat="42.93999" lon="2.87665">
        <ele>230.180985</ele>
        <time>2016-06-03T08:44:10Z</time>
      </trkpt>
      <trkpt lat="42.94004" lon="2.87606">
        <ele>229.47423</ele>
        <time>2016-06-03T08:44:13Z</time>
      </trkpt>
      <trkpt lat="42.94011" lon="2.87567">
        <ele>227.61429</ele>
        <time>2016-06-03T08:44:15Z</time>
      </trkpt>
      <trkpt lat="42.9403" lon="2.87518">
        <ele>225.831659</ele>
        <time>2016-06-03T08:44:18Z</time>
      </trkpt>
      <trkpt lat="42.94049" lon="2.87489">
        <ele>224.050405</ele>
        <time>2016-06-03T08:44:20Z</time>
      </trkpt>
      <trkpt lat="42.94081" lon="2.87453">
        <ele>222.433965</ele>
        <time>2016-06-03T08:44:23Z</time>
      </trkpt>
      <trkpt lat="42.94098" lon="2.87425">
        <ele>219.799627</ele>
        <time>2016-06-03T08:44:25Z</time>
      </trkpt>
      <trkpt lat="42.94114" lon="2.87395">
        <ele>219.84656</ele>
        <time>2016-06-03T08:44:27Z</time>
      </trkpt>
      <trkpt lat="42.94134" lon="2.87368">
        <ele>218.537664</ele>
        <time>2016-06-03T08:44:29Z</time>
      </trkpt>
      <trkpt lat="42.94177" lon="2.87333">
        <ele>216.413261</ele>
        <time>2016-06-03T08:44:32Z</time>
      </trkpt>
      <trkpt lat="42.94221" lon="2.87309">
        <ele>211.687685</ele>
        <time>2016-06-03T08:44:35Z</time>
      </trkpt>
      <trkpt lat="42.94246" lon="2.87293">
        <ele>211.655009</ele>
        <time>2016-06-03T08:44:37Z</time>
      </trkpt>
      <trkpt lat="42.94283" lon="2.8727">
        <ele>210.757055</ele>
        <time>2016-06-03T08:44:40Z</time>
      </trkpt>
      <trkpt lat="42.9431" lon="2.87265">
        <ele>207.893985</ele>
        <time>2016-06-03T08:44:42Z</time>
      </trkpt>
      <trkpt lat="42.94352" lon="2.87271">
        <ele>206.433269</ele>
        <time>2016-06-03T08:44:45Z</time>
      </trkpt>
      <trkpt lat="42.9439" lon="2.87272">
        <ele>203.251936</ele>
        <time>2016-06-03T08:44:48Z</time>
      </trkpt>
      <trkpt lat="42.94412" lon="2.87257">
        <ele>201.670576</ele>
        <time>2016-06-03T08:44:49Z</time>
      </trkpt>
      <trkpt lat="42.94434" lon="2.87229">
        <ele>201.488802</ele>
        <time>2016-06-03T08:44:51Z</time>
      </trkpt>
      <trkpt lat="42.94465" lon="2.87172">
        <ele>200.632442</ele>
        <time>2016-06-03T08:44:55Z</time>
      </trkpt>
      <trkpt lat="42.94507" lon="2.87095">
        <ele>195.587598</ele>
        <time>2016-06-03T08:44:58Z</time>
      </trkpt>
      <trkpt lat="42.94538" lon="2.87043">
        <ele>192.881631</ele>
        <time>2016-06-03T08:45:01Z</time>
      </trkpt>
      <trkpt lat="42.94564" lon="2.87012">
        <ele>191.846217</ele>
        <time>2016-06-03T08:45:03Z</time>
      </trkpt>
      <trkpt lat="42.94608" lon="2.8698">
        <ele>188.194074</ele>
        <time>2016-06-03T08:45:06Z</time>
      </trkpt>
      <trkpt lat="42.94648" lon="2.86952">
        <ele>185.565094</ele>
        <time>2016-06-03T08:45:09Z</time>
      </trkpt>
      <trkpt lat="42.94683" lon="2.86921">
        <ele>184.220329</ele>
        <time>2016-06-03T08:45:12Z</time>
      </trkpt>
      <trkpt lat="42.94701" lon="2.86896">
        <ele>182.180377</ele>
        <time>2016-06-03T08:45:14Z</time>
      </trkpt>
      <trkpt lat="42.94722" lon="2.86855">
        <ele>178.531888</ele>
        <time>2016-06-03T08:45:17Z</time>
      </trkpt>
      <trkpt lat="42.94741" lon="2.86811">
        <ele>178.151828</ele>
        <time>2016-06-03T08:45:20Z</time>
      </trkpt>
      <trkpt lat="42.94762" lon="2.86755">
        <ele>179.320112</ele>
        <time>2016-06-03T08:45:23Z</time>
      </trkpt>
      <trkpt lat="42.94775" lon="2.86717">
        <ele>175.568244</ele>
        <time>2016-06-03T08:45:25Z</time>
      </trkpt>
      <trkpt lat="42.94788" lon="2.8669">
        <ele>174.956309</ele>
        <time>2016-06-03T08:45:27Z</time>
      </trkpt>
      <trkpt lat="42.94812" lon="2.86665">
        <ele>174.80412</ele>
        <time>2016-06-03T08:45:29Z</time>
      </trkpt>
      <trkpt lat="42.94851" lon="2.86636">
        <ele>172.742231</ele>
        <time>2016-06-03T08:45:32Z</time>
      </trkpt>
      <trkpt lat="42.94862" lon="2.86626">
        <ele>172.315621</ele>
        <time>2016-06-03T08:45:33Z</time>
      </trkpt>
      <trkpt lat="42.94884" lon="2.86583">
        <ele>170.235841</ele>
        <time>2016-06-03T08:45:36Z</time>
      </trkpt>
      <trkpt lat="42.94901" lon="2.86515">
        <ele>168.943027</ele>
        <time>2016-06-03T08:45:39Z</time>
      </trkpt>
      <trkpt lat="42.94925" lon="2.86439">
        <ele>165.065586</ele>
        <time>2016-06-03T08:45:43Z</time>
      </trkpt>
      <trkpt lat="42.94931" lon="2.8641">
        <ele>164.561415</ele>
        <time>2016-06-03T08:45:45Z</time>
      </trkpt>
      <trkpt lat="42.94928" lon="2.86378">
        <ele>163.745798</ele>
        <time>2016-06-03T08:45:47Z</time>
      </trkpt>
      <trkpt lat="42.9492" lon="2.86349">
        <ele>162.188053</ele>
        <time>2016-06-03T08:45:49Z</time>
      </trkpt>
      <trkpt lat="42.94919" lon="2.86327">
        <ele>162.399262</ele>
        <time>2016-06-03T08:45:51Z</time>
      </trkpt>
      <trkpt lat="42.94928" lon="2.86287">
        <ele>160.554544</ele>
        <time>2016-06-03T08:45:54Z</time>
      </trkpt>
      <trkpt lat="42.94939" lon="2.86225">
        <ele>161.690981</ele>
        <time>2016-06-03T08:45:57Z</time>
      </trkpt>
      <trkpt lat="42.94945" lon="2.8618">
        <ele>161.676127</ele>
        <time>2016-06-03T08:45:59Z</time>
      </trkpt>
      <trkpt lat="42.94949" lon="2.8611">
        <ele>162.094083</ele>
        <time>2016-06-03T08:46:02Z</time>
      </trkpt>
      <trkpt lat="42.94955" lon="2.86052">
        <ele>160.576889</ele>
        <time>2016-06-03T08:46:05Z</time>
      </trkpt>
      <trkpt lat="42.94967" lon="2.86015">
        <ele>159.276655</ele>
        <time>2016-06-03T08:46:07Z</time>
      </trkpt>
      <trkpt lat="42.94984" lon="2.85977">
        <ele>159.888269</ele>
        <time>2016-06-03T08:46:09Z</time>
      </trkpt>
      <trkpt lat="42.95004" lon="2.85942">
        <ele>159.206827</ele>
        <time>2016-06-03T08:46:11Z</time>
      </trkpt>
      <trkpt lat="42.95054" lon="2.85881">
        <ele>159.261742</ele>
        <time>2016-06-03T08:46:15Z</time>
      </trkpt>
      <trkpt lat="42.95075" lon="2.85854">
        <ele>158.0329</ele>
        <time>2016-06-03T08:46:17Z</time>
      </trkpt>
      <trkpt lat="42.95092" lon="2.85821">
        <ele>157.477382</ele>
        <time>2016-06-03T08:46:19Z</time>
      </trkpt>
      <trkpt lat="42.95106" lon="2.85763">
        <ele>156.155174</ele>
        <time>2016-06-03T08:46:22Z</time>
      </trkpt>
      <trkpt lat="42.95129" lon="2.85708">
        <ele>153.924784</ele>
        <time>2016-06-03T08:46:25Z</time>
      </trkpt>
      <trkpt lat="42.95154" lon="2.8565">
        <ele>153.355849</ele>
        <time>2016-06-03T08:46:28Z</time>
      </trkpt>
      <trkpt lat="42.9517" lon="2.85576">
        <ele>151.056085</ele>
        <time>2016-06-03T08:46:31Z</time>
      </trkpt>
      <trkpt lat="42.95181" lon="2.85527">
        <ele>150.384027</ele>
        <time>2016-06-03T08:46:33Z</time>
      </trkpt>
      <trkpt lat="42.95199" lon="2.85421">
        <ele>150.567716</ele>
        <time>2016-06-03T08:46:37Z</time>
      </trkpt>
      <trkpt lat="42.95221" lon="2.85319">
        <ele>149.369917</ele>
        <time>2016-06-03T08:46:41Z</time>
      </trkpt>
      <trkpt lat="42.9523" lon="2.85244">
        <ele>147.90965</ele>
        <time>2016-06-03T08:46:44Z</time>
      </trkpt>
      <trkpt lat="42.95229" lon="2.85198">
        <ele>148.132608</ele>
        <time>2016-06-03T08:46:46Z</time>
      </trkpt>
      <trkpt lat="42.95237" lon="2.85137">
        <ele>147.669659</ele>
        <time>2016-06-03T08:46:49Z</time>
      </trkpt>
      <trkpt lat="42.95255" lon="2.85072">
        <ele>148.600015</ele>
        <time>2016-06-03T08:46:52Z</time>
      </trkpt>
      <trkpt lat="42.95278" lon="2.84966">
        <ele>147.391847</ele>
        <time>2016-06-03T08:46:56Z</time>
      </trkpt>
      <trkpt lat="42.95287" lon="2.8491">
        <ele>145.16178</ele>
        <time>2016-06-03T08:46:58Z</time>
      </trkpt>
      <trkpt lat="42.95305" lon="2.8483">
        <ele>146.134106</ele>
        <time>2016-06-03T08:47:01Z</time>
      </trkpt>
      <trkpt lat="42.9532" lon="2.84781">
        <ele>143.916095</ele>
        <time>2016-06-03T08:47:03Z</time>
      </trkpt>
      <trkpt lat="42.95339" lon="2.84736">
        <ele>144.527682</ele>
        <time>2016-06-03T08:47:05Z</time>
      </trkpt>
      <trkpt lat="42.95359" lon="2.84696">
        <ele>143.881641</ele>
        <time>2016-06-03T08:47:07Z</time>
      </trkpt>
      <trkpt lat="42.95372" lon="2.84653">
        <ele>145.034582</ele>
        <time>2016-06-03T08:47:09Z</time>
      </trkpt>
      <trkpt lat="42.95385" lon="2.84553">
        <ele>141.957504</ele>
        <time>2016-06-03T08:47:13Z</time>
      </trkpt>
      <trkpt lat="42.95393" lon="2.84506">
        <ele>141.281502</ele>
        <time>2016-06-03T08:47:15Z</time>
      </trkpt>
      <trkpt lat="42.95409" lon="2.84439">
        <ele>139.946503</ele>
        <time>2016-06-03T08:47:18Z</time>
      </trkpt>
      <trkpt lat="42.95421" lon="2.84403">
        <ele>139.993899</ele>
        <time>2016-06-03T08:47:20Z</time>
      </trkpt>
      <trkpt lat="42.95443" lon="2.8436">
        <ele>140.048117</ele>
        <time>2016-06-03T08:47:23Z</time>
      </trkpt>
      <trkpt lat="42.95476" lon="2.84322">
        <ele>140.181865</ele>
        <time>2016-06-03T08:47:26Z</time>
      </trkpt>
      <trkpt lat="42.95494" lon="2.84296">
        <ele>138.900351</ele>
        <time>2016-06-03T08:47:28Z</time>
      </trkpt>
      <trkpt lat="42.95507" lon="2.84268">
        <ele>139.55993</ele>
        <time>2016-06-03T08:47:30Z</time>
      </trkpt>
      <trkpt lat="42.95518" lon="2.84222">
        <ele>138.607394</ele>
        <time>2016-06-03T08:47:33Z</time>
      </trkpt>
      <trkpt lat="42.95518" lon="2.84195">
        <ele>137.655717</ele>
        <time>2016-06-03T08:47:35Z</time>
      </trkpt>
      <trkpt lat="42.95511" lon="2.84172">
        <ele>136.800744</ele>
        <time>2016-06-03T08:47:37Z</time>
      </trkpt>
      <trkpt lat="42.95498" lon="2.84143">
        <ele>136.208016</ele>
        <time>2016-06-03T08:47:40Z</time>
      </trkpt>
      <trkpt lat="42.95498" lon="2.84124">
        <ele>136.016657</ele>
        <time>2016-06-03T08:47:42Z</time>
      </trkpt>
      <trkpt lat="42.95502" lon="2.84112">
        <ele>135.720323</ele>
        <time>2016-06-03T08:47:43Z</time>
      </trkpt>
      <trkpt lat="42.95509" lon="2.84104">
        <ele>135.794715</ele>
        <time>2016-06-03T08:47:44Z</time>
      </trkpt>
      <trkpt lat="42.9554" lon="2.84101">
        <ele>135.302636</ele>
        <time>2016-06-03T08:47:46Z</time>
      </trkpt>
      <trkpt lat="42.95575" lon="2.84103">
        <ele>135.735423</ele>
        <time>2016-06-03T08:47:49Z</time>
      </trkpt>
      <trkpt lat="42.95601" lon="2.84099">
        <ele>133.631785</ele>
        <time>2016-06-03T08:47:52Z</time>
      </trkpt>
      <trkpt lat="42.95617" lon="2.84095">
        <ele>132.941939</ele>
        <time>2016-06-03T08:47:54Z</time>
      </trkpt>
      <trkpt lat="42.95643" lon="2.8409">
        <ele>133.146167</ele>
        <time>2016-06-03T08:47:57Z</time>
      </trkpt>
      <trkpt lat="42.95658" lon="2.84086">
        <ele>133.516462</ele>
        <time>2016-06-03T08:47:59Z</time>
      </trkpt>
      <trkpt lat="42.95666" lon="2.84087">
        <ele>133.613238</ele>
        <time>2016-06-03T08:48:00Z</time>
      </trkpt>
      <trkpt lat="42.95675" lon="2.84073">
        <ele>133.977154</ele>
        <time>2016-06-03T08:48:02Z</time>
      </trkpt>
      <trkpt lat="42.9569" lon="2.84061">
        <ele>133.623266</ele>
        <time>2016-06-03T08:48:04Z</time>
      </trkpt>
      <trkpt lat="42.95723" lon="2.8404">
        <ele>132.627156</ele>
        <time>2016-06-03T08:48:08Z</time>
      </trkpt>
      <trkpt lat="42.95745" lon="2.84019">
        <ele>131.573488</ele>
        <time>2016-06-03T08:48:11Z</time>
      </trkpt>
      <trkpt lat="42.95756" lon="2.84003">
        <ele>130.890434</ele>
        <time>2016-06-03T08:48:13Z</time>
      </trkpt>
      <trkpt lat="42.9577" lon="2.83991">
        <ele>130.46496</ele>
        <time>2016-06-03T08:48:16Z</time>
      </trkpt>
      <trkpt lat="42.95777" lon="2.83979">
        <ele>130.168561</ele>
        <time>2016-06-03T08:48:19Z</time>
      </trkpt>
      <trkpt lat="42.95784" lon="2.83977">
        <ele>130.562481</ele>
        <time>2016-06-03T08:48:21Z</time>
      </trkpt>
      <trkpt lat="42.95812" lon="2.83998">
        <ele>130.884414</ele>
        <time>2016-06-03T08:48:25Z</time>
      </trkpt>
      <trkpt lat="42.95848" lon="2.84015">
        <ele>131.003206</ele>
        <time>2016-06-03T08:48:29Z</time>
      </trkpt>
      <trkpt lat="42.95883" lon="2.84031">
        <ele>131.732214</ele>
        <time>2016-06-03T08:48:33Z</time>
      </trkpt>
      <trkpt lat="42.95902" lon="2.84041">
        <ele>131.533034</ele>
        <time>2016-06-03T08:48:35Z</time>
      </trkpt>
      <trkpt lat="42.95925" lon="2.84049">
        <ele>131.827261</ele>
        <time>2016-06-03T08:48:37Z</time>
      </trkpt>
      <trkpt lat="42.95951" lon="2.84065">
        <ele>131.053597</ele>
        <time>2016-06-03T08:48:40Z</time>
      </trkpt>
      <trkpt lat="42.95973" lon="2.84073">
        <ele>131.022456</ele>
        <time>2016-06-03T08:48:43Z</time>
      </trkpt>
      <trkpt lat="42.95983" lon="2.84078">
        <ele>131.018373</ele>
        <time>2016-06-03T08:48:45Z</time>
      </trkpt>
      <trkpt lat="42.96018" lon="2.8407">
        <ele>130.196531</ele>
        <time>2016-06-03T08:48:50Z</time>
      </trkpt>
      <trkpt lat="42.96059" lon="2.84085">
        <ele>130.662595</ele>
        <time>2016-06-03T08:48:54Z</time>
      </trkpt>
      <trkpt lat="42.9611" lon="2.84108">
        <ele>130.228525</ele>
        <time>2016-06-03T08:48:58Z</time>
      </trkpt>
      <trkpt lat="42.96152" lon="2.84134">
        <ele>130.350091</ele>
        <time>2016-06-03T08:49:01Z</time>
      </trkpt>
      <trkpt lat="42.96217" lon="2.84165">
        <ele>128.789278</ele>
        <time>2016-06-03T08:49:05Z</time>
      </trkpt>
      <trkpt lat="42.9626" lon="2.84184">
        <ele>127.413249</ele>
        <time>2016-06-03T08:49:08Z</time>
      </trkpt>
      <trkpt lat="42.96302" lon="2.84204">
        <ele>129.712033</ele>
        <time>2016-06-03T08:49:11Z</time>
      </trkpt>
      <trkpt lat="42.96349" lon="2.84232">
        <ele>128.043373</ele>
        <time>2016-06-03T08:49:14Z</time>
      </trkpt>
      <trkpt lat="42.96394" lon="2.84258">
        <ele>127.297288</ele>
        <time>2016-06-03T08:49:17Z</time>
      </trkpt>
      <trkpt lat="42.96434" lon="2.84277">
        <ele>124.869507</ele>
        <time>2016-06-03T08:49:20Z</time>
      </trkpt>
      <trkpt lat="42.96461" lon="2.84287">
        <ele>126.453512</ele>
        <time>2016-06-03T08:49:22Z</time>
      </trkpt>
      <trkpt lat="42.96487" lon="2.84288">
        <ele>126.125583</ele>
        <time>2016-06-03T08:49:24Z</time>
      </trkpt>
      <trkpt lat="42.9652" lon="2.84284">
        <ele>124.896485</ele>
        <time>2016-06-03T08:49:26Z</time>
      </trkpt>
      <trkpt lat="42.96566" lon="2.84275">
        <ele>125.012665</ele>
        <time>2016-06-03T08:49:29Z</time>
      </trkpt>
      <trkpt lat="42.9662" lon="2.84278">
        <ele>124.764127</ele>
        <time>2016-06-03T08:49:32Z</time>
      </trkpt>
      <trkpt lat="42.96675" lon="2.84285">
        <ele>125.426914</ele>
        <time>2016-06-03T08:49:35Z</time>
      </trkpt>
      <trkpt lat="42.96726" lon="2.84286">
        <ele>123.104011</ele>
        <time>2016-06-03T08:49:38Z</time>
      </trkpt>
      <trkpt lat="42.96762" lon="2.84277">
        <ele>122.587425</ele>
        <time>2016-06-03T08:49:40Z</time>
      </trkpt>
      <trkpt lat="42.96823" lon="2.84245">
        <ele>123.538834</ele>
        <time>2016-06-03T08:49:43Z</time>
      </trkpt>
      <trkpt lat="42.96904" lon="2.84205">
        <ele>122.927802</ele>
        <time>2016-06-03T08:49:47Z</time>
      </trkpt>
      <trkpt lat="42.96943" lon="2.84184">
        <ele>121.820241</ele>
        <time>2016-06-03T08:49:49Z</time>
      </trkpt>
      <trkpt lat="42.96991" lon="2.84146">
        <ele>120.657114</ele>
        <time>2016-06-03T08:49:52Z</time>
      </trkpt>
      <trkpt lat="42.97038" lon="2.84114">
        <ele>120.840732</ele>
        <time>2016-06-03T08:49:55Z</time>
      </trkpt>
      <trkpt lat="42.97099" lon="2.84098">
        <ele>117.967553</ele>
        <time>2016-06-03T08:49:58Z</time>
      </trkpt>
      <trkpt lat="42.97159" lon="2.84076">
        <ele>117.807455</ele>
        <time>2016-06-03T08:50:01Z</time>
      </trkpt>
      <trkpt lat="42.97195" lon="2.84058">
        <ele>116.809488</ele>
        <time>2016-06-03T08:50:03Z</time>
      </trkpt>
      <trkpt lat="42.97257" lon="2.84017">
        <ele>118.866385</ele>
        <time>2016-06-03T08:50:06Z</time>
      </trkpt>
      <trkpt lat="42.97296" lon="2.83993">
        <ele>117.091838</ele>
        <time>2016-06-03T08:50:08Z</time>
      </trkpt>
      <trkpt lat="42.97353" lon="2.83964">
        <ele>116.978594</ele>
        <time>2016-06-03T08:50:11Z</time>
      </trkpt>
      <trkpt lat="42.97384" lon="2.83939">
        <ele>116.195195</ele>
        <time>2016-06-03T08:50:13Z</time>
      </trkpt>
      <trkpt lat="42.97412" lon="2.83903">
        <ele>116.594715</ele>
        <time>2016-06-03T08:50:15Z</time>
      </trkpt>
      <trkpt lat="42.97435" lon="2.83865">
        <ele>118.278073</ele>
        <time>2016-06-03T08:50:17Z</time>
      </trkpt>
      <trkpt lat="42.97479" lon="2.83816">
        <ele>116.02225</ele>
        <time>2016-06-03T08:50:20Z</time>
      </trkpt>
      <trkpt lat="42.97548" lon="2.83749">
        <ele>115.605673</ele>
        <time>2016-06-03T08:50:24Z</time>
      </trkpt>
      <trkpt lat="42.97603" lon="2.83692">
        <ele>112.454596</ele>
        <time>2016-06-03T08:50:27Z</time>
      </trkpt>
      <trkpt lat="42.9767" lon="2.83606">
        <ele>114.238938</ele>
        <time>2016-06-03T08:50:31Z</time>
      </trkpt>
      <trkpt lat="42.97711" lon="2.83549">
        <ele>113.310588</ele>
        <time>2016-06-03T08:50:34Z</time>
      </trkpt>
      <trkpt lat="42.97741" lon="2.83513">
        <ele>114.320146</ele>
        <time>2016-06-03T08:50:36Z</time>
      </trkpt>
      <trkpt lat="42.97785" lon="2.83465">
        <ele>111.022622</ele>
        <time>2016-06-03T08:50:39Z</time>
      </trkpt>
      <trkpt lat="42.9782" lon="2.83414">
        <ele>110.863487</ele>
        <time>2016-06-03T08:50:42Z</time>
      </trkpt>
      <trkpt lat="42.97843" lon="2.83386">
        <ele>109.428824</ele>
        <time>2016-06-03T08:50:44Z</time>
      </trkpt>
      <trkpt lat="42.97886" lon="2.8338">
        <ele>110.330974</ele>
        <time>2016-06-03T08:50:47Z</time>
      </trkpt>
      <trkpt lat="42.97935" lon="2.83393">
        <ele>110.11037</ele>
        <time>2016-06-03T08:50:50Z</time>
      </trkpt>
      <trkpt lat="42.98022" lon="2.83427">
        <ele>106.962688</ele>
        <time>2016-06-03T08:50:54Z</time>
      </trkpt>
      <trkpt lat="42.9813" lon="2.83466">
        <ele>107.110824</ele>
        <time>2016-06-03T08:50:59Z</time>
      </trkpt>
      <trkpt lat="42.9818" lon="2.83487">
        <ele>107.561949</ele>
        <time>2016-06-03T08:51:02Z</time>
      </trkpt>
      <trkpt lat="42.98211" lon="2.83495">
        <ele>107.226606</ele>
        <time>2016-06-03T08:51:04Z</time>
      </trkpt>
      <trkpt lat="42.98241" lon="2.83492">
        <ele>107.170974</ele>
        <time>2016-06-03T08:51:06Z</time>
      </trkpt>
      <trkpt lat="42.9829" lon="2.83462">
        <ele>106.8768</ele>
        <time>2016-06-03T08:51:09Z</time>
      </trkpt>
      <trkpt lat="42.98316" lon="2.8344">
        <ele>108.298223</ele>
        <time>2016-06-03T08:51:11Z</time>
      </trkpt>
      <trkpt lat="42.98344" lon="2.83428">
        <ele>108.465609</ele>
        <time>2016-06-03T08:51:13Z</time>
      </trkpt>
      <trkpt lat="42.98386" lon="2.8343">
        <ele>106.327286</ele>
        <time>2016-06-03T08:51:16Z</time>
      </trkpt>
      <trkpt lat="42.98406" lon="2.8342">
        <ele>106.02838</ele>
        <time>2016-06-03T08:51:18Z</time>
      </trkpt>
      <trkpt lat="42.98423" lon="2.83404">
        <ele>106.862506</ele>
        <time>2016-06-03T08:51:20Z</time>
      </trkpt>
      <trkpt lat="42.98433" lon="2.83381">
        <ele>106.174774</ele>
        <time>2016-06-03T08:51:21Z</time>
      </trkpt>
      <trkpt lat="42.98471" lon="2.83345">
        <ele>106.767838</ele>
        <time>2016-06-03T08:51:24Z</time>
      </trkpt>
      <trkpt lat="42.98524" lon="2.83321">
        <ele>107.285981</ele>
        <time>2016-06-03T08:51:27Z</time>
      </trkpt>
      <trkpt lat="42.9858" lon="2.83306">
        <ele>108.082498</ele>
        <time>2016-06-03T08:51:30Z</time>
      </trkpt>
      <trkpt lat="42.98631" lon="2.83297">
        <ele>105.888315</ele>
        <time>2016-06-03T08:51:33Z</time>
      </trkpt>
      <trkpt lat="42.98661" lon="2.83289">
        <ele>105.042673</ele>
        <time>2016-06-03T08:51:35Z</time>
      </trkpt>
      <trkpt lat="42.98688" lon="2.83268">
        <ele>105.637094</ele>
        <time>2016-06-03T08:51:37Z</time>
      </trkpt>
      <trkpt lat="42.9872" lon="2.83211">
        <ele>105.271101</ele>
        <time>2016-06-03T08:51:40Z</time>
      </trkpt>
      <trkpt lat="42.98738" lon="2.8317">
        <ele>103.417152</ele>
        <time>2016-06-03T08:51:42Z</time>
      </trkpt>
      <trkpt lat="42.98761" lon="2.83073">
        <ele>103.967011</ele>
        <time>2016-06-03T08:51:46Z</time>
      </trkpt>
      <trkpt lat="42.98777" lon="2.83002">
        <ele>101.325157</ele>
        <time>2016-06-03T08:51:49Z</time>
      </trkpt>
      <trkpt lat="42.98779" lon="2.82926">
        <ele>102.925812</ele>
        <time>2016-06-03T08:51:52Z</time>
      </trkpt>
      <trkpt lat="42.98776" lon="2.8288">
        <ele>102.53385</ele>
        <time>2016-06-03T08:51:54Z</time>
      </trkpt>
      <trkpt lat="42.9878" lon="2.82841">
        <ele>101.864735</ele>
        <time>2016-06-03T08:51:56Z</time>
      </trkpt>
      <trkpt lat="42.98788" lon="2.82806">
        <ele>102.508661</ele>
        <time>2016-06-03T08:51:59Z</time>
      </trkpt>
      <trkpt lat="42.98803" lon="2.82782">
        <ele>101.049397</ele>
        <time>2016-06-03T08:52:00Z</time>
      </trkpt>
      <trkpt lat="42.98824" lon="2.82767">
        <ele>100.770897</ele>
        <time>2016-06-03T08:52:02Z</time>
      </trkpt>
      <trkpt lat="42.98849" lon="2.82759">
        <ele>102.140569</ele>
        <time>2016-06-03T08:52:05Z</time>
      </trkpt>
      <trkpt lat="42.98919" lon="2.82749">
        <ele>101.204602</ele>
        <time>2016-06-03T08:52:09Z</time>
      </trkpt>
      <trkpt lat="42.98949" lon="2.82749">
        <ele>100.021417</ele>
        <time>2016-06-03T08:52:11Z</time>
      </trkpt>
      <trkpt lat="42.98979" lon="2.82758">
        <ele>101.764098</ele>
        <time>2016-06-03T08:52:13Z</time>
      </trkpt>
      <trkpt lat="42.99006" lon="2.82771">
        <ele>98.031985</ele>
        <time>2016-06-03T08:52:15Z</time>
      </trkpt>
      <trkpt lat="42.99038" lon="2.8277">
        <ele>96.995193</ele>
        <time>2016-06-03T08:52:17Z</time>
      </trkpt>
      <trkpt lat="42.99089" lon="2.82744">
        <ele>98.881661</ele>
        <time>2016-06-03T08:52:20Z</time>
      </trkpt>
      <trkpt lat="42.99183" lon="2.82694">
        <ele>98.371118</ele>
        <time>2016-06-03T08:52:25Z</time>
      </trkpt>
      <trkpt lat="42.99233" lon="2.82669">
        <ele>97.374633</ele>
        <time>2016-06-03T08:52:28Z</time>
      </trkpt>
      <trkpt lat="42.99267" lon="2.82659">
        <ele>98.245379</ele>
        <time>2016-06-03T08:52:30Z</time>
      </trkpt>
      <trkpt lat="42.99304" lon="2.82658">
        <ele>97.168282</ele>
        <time>2016-06-03T08:52:32Z</time>
      </trkpt>
      <trkpt lat="42.99342" lon="2.82664">
        <ele>99.460617</ele>
        <time>2016-06-03T08:52:34Z</time>
      </trkpt>
      <trkpt lat="42.99418" lon="2.82688">
        <ele>99.559919</ele>
        <time>2016-06-03T08:52:38Z</time>
      </trkpt>
      <trkpt lat="42.99472" lon="2.82712">
        <ele>97.607</ele>
        <time>2016-06-03T08:52:41Z</time>
      </trkpt>
      <trkpt lat="42.99516" lon="2.82728">
        <ele>97.855107</ele>
        <time>2016-06-03T08:52:44Z</time>
      </trkpt>
      <trkpt lat="42.99547" lon="2.82726">
        <ele>97.388917</ele>
        <time>2016-06-03T08:52:46Z</time>
      </trkpt>
      <trkpt lat="42.99594" lon="2.82701">
        <ele>98.567436</ele>
        <time>2016-06-03T08:52:49Z</time>
      </trkpt>
      <trkpt lat="42.99624" lon="2.82675">
        <ele>96.552312</ele>
        <time>2016-06-03T08:52:51Z</time>
      </trkpt>
      <trkpt lat="42.9966" lon="2.82655">
        <ele>95.999612</ele>
        <time>2016-06-03T08:52:53Z</time>
      </trkpt>
      <trkpt lat="42.99696" lon="2.82639">
        <ele>96.123203</ele>
        <time>2016-06-03T08:52:55Z</time>
      </trkpt>
      <trkpt lat="42.99737" lon="2.82622">
        <ele>94.882365</ele>
        <time>2016-06-03T08:52:57Z</time>
      </trkpt>
      <trkpt lat="42.9983" lon="2.82577">
        <ele>92.97801</ele>
        <time>2016-06-03T08:53:02Z</time>
      </trkpt>
      <trkpt lat="42.99885" lon="2.82557">
        <ele>92.564769</ele>
        <time>2016-06-03T08:53:07Z</time>
      </trkpt>
      <trkpt lat="42.99891" lon="2.82556">
        <ele>92.405394</ele>
        <time>2016-06-03T08:53:08Z</time>
      </trkpt>
      <trkpt lat="42.99891" lon="2.82554">
        <ele>92.071615</ele>
        <time>2016-06-03T08:53:09Z</time>
      </trkpt>
      <trkpt lat="42.99895" lon="2.82551">
        <ele>92.188858</ele>
        <time>2016-06-03T08:53:11Z</time>
      </trkpt>
      <trkpt lat="42.99899" lon="2.82541">
        <ele>91.985448</ele>
        <time>2016-06-03T08:53:14Z</time>
      </trkpt>
      <trkpt lat="42.99896" lon="2.8251">
        <ele>92.352187</ele>
        <time>2016-06-03T08:53:17Z</time>
      </trkpt>
      <trkpt lat="42.99898" lon="2.82472">
        <ele>92.818548</ele>
        <time>2016-06-03T08:53:20Z</time>
      </trkpt>
      <trkpt lat="42.99903" lon="2.82429">
        <ele>92.900504</ele>
        <time>2016-06-03T08:53:23Z</time>
      </trkpt>
      <trkpt lat="42.99902" lon="2.82403">
        <ele>93.513198</ele>
        <time>2016-06-03T08:53:25Z</time>
      </trkpt>
      <trkpt lat="42.99896" lon="2.82373">
        <ele>93.806761</ele>
        <time>2016-06-03T08:53:27Z</time>
      </trkpt>
      <trkpt lat="42.9988" lon="2.82331">
        <ele>94.523183</ele>
        <time>2016-06-03T08:53:30Z</time>
      </trkpt>
      <trkpt lat="42.99866" lon="2.82294">
        <ele>94.310851</ele>
        <time>2016-06-03T08:53:33Z</time>
      </trkpt>
      <trkpt lat="42.99859" lon="2.82268">
        <ele>94.505886</ele>
        <time>2016-06-03T08:53:35Z</time>
      </trkpt>
      <trkpt lat="42.99842" lon="2.8222">
        <ele>94.663112</ele>
        <time>2016-06-03T08:53:39Z</time>
      </trkpt>
      <trkpt lat="42.99832" lon="2.82187">
        <ele>94.517364</ele>
        <time>2016-06-03T08:53:42Z</time>
      </trkpt>
      <trkpt lat="42.99817" lon="2.82148">
        <ele>94.519816</ele>
        <time>2016-06-03T08:53:46Z</time>
      </trkpt>
      <trkpt lat="42.99804" lon="2.82116">
        <ele>95.222785</ele>
        <time>2016-06-03T08:53:49Z</time>
      </trkpt>
      <trkpt lat="42.99792" lon="2.82082">
        <ele>93.573814</ele>
        <time>2016-06-03T08:53:52Z</time>
      </trkpt>
      <trkpt lat="42.99777" lon="2.82043">
        <ele>93.360662</ele>
        <time>2016-06-03T08:53:56Z</time>
      </trkpt>
      <trkpt lat="42.99763" lon="2.82004">
        <ele>93.273178</ele>
        <time>2016-06-03T08:54:00Z</time>
      </trkpt>
      <trkpt lat="42.99752" lon="2.81973">
        <ele>92.605082</ele>
        <time>2016-06-03T08:54:03Z</time>
      </trkpt>
      <trkpt lat="42.99743" lon="2.81944">
        <ele>92.509983</ele>
        <time>2016-06-03T08:54:06Z</time>
      </trkpt>
      <trkpt lat="42.99726" lon="2.81898">
        <ele>93.008308</ele>
        <time>2016-06-03T08:54:10Z</time>
      </trkpt>
      <trkpt lat="42.99711" lon="2.81856">
        <ele>92.372687</ele>
        <time>2016-06-03T08:54:14Z</time>
      </trkpt>
      <trkpt lat="42.99704" lon="2.81835">
        <ele>91.160257</ele>
        <time>2016-06-03T08:54:16Z</time>
      </trkpt>
      <trkpt lat="42.99697" lon="2.81809">
        <ele>91.82581</ele>
        <time>2016-06-03T08:54:19Z</time>
      </trkpt>
      <trkpt lat="42.99683" lon="2.81772">
        <ele>91.708926</ele>
        <time>2016-06-03T08:54:23Z</time>
      </trkpt>
      <trkpt lat="42.99676" lon="2.81756">
        <ele>91.685126</ele>
        <time>2016-06-03T08:54:25Z</time>
      </trkpt>
      <trkpt lat="42.99671" lon="2.81736">
        <ele>92.077948</ele>
        <time>2016-06-03T08:54:28Z</time>
      </trkpt>
      <trkpt lat="42.99667" lon="2.81724">
        <ele>92.321105</ele>
        <time>2016-06-03T08:54:30Z</time>
      </trkpt>
      <trkpt lat="42.99654" lon="2.81706">
        <ele>91.971551</ele>
        <time>2016-06-03T08:54:33Z</time>
      </trkpt>
      <trkpt lat="42.99643" lon="2.8169">
        <ele>91.518958</ele>
        <time>2016-06-03T08:54:36Z</time>
      </trkpt>
      <trkpt lat="42.99639" lon="2.81681">
        <ele>91.535106</ele>
        <time>2016-06-03T08:54:38Z</time>
      </trkpt>
      <trkpt lat="42.99631" lon="2.81668">
        <ele>91.608099</ele>
        <time>2016-06-03T08:54:41Z</time>
      </trkpt>
      <trkpt lat="42.99621" lon="2.81655">
        <ele>91.456598</ele>
        <time>2016-06-03T08:54:45Z</time>
      </trkpt>
      <trkpt lat="42.99616" lon="2.81649">
        <ele>91.575058</ele>
        <time>2016-06-03T08:54:47Z</time>
      </trkpt>
      <trkpt lat="42.9961" lon="2.81646">
        <ele>91.62664</ele>
        <time>2016-06-03T08:54:48Z</time>
      </trkpt>
      <trkpt lat="42.99607" lon="2.81637">
        <ele>91.874426</ele>
        <time>2016-06-03T08:54:50Z</time>
      </trkpt>
      <trkpt lat="42.99595" lon="2.8162">
        <ele>92.000054</ele>
        <time>2016-06-03T08:54:54Z</time>
      </trkpt>
      <trkpt lat="42.99585" lon="2.81608">
        <ele>92.105086</ele>
        <time>2016-06-03T08:54:56Z</time>
      </trkpt>
      <trkpt lat="42.99579" lon="2.81604">
        <ele>92.389979</ele>
        <time>2016-06-03T08:54:57Z</time>
      </trkpt>
      <trkpt lat="42.99568" lon="2.81585">
        <ele>92.419582</ele>
        <time>2016-06-03T08:55:00Z</time>
      </trkpt>
      <trkpt lat="42.99547" lon="2.8156">
        <ele>92.931468</ele>
        <time>2016-06-03T08:55:04Z</time>
      </trkpt>
      <trkpt lat="42.99535" lon="2.81547">
        <ele>92.879382</ele>
        <time>2016-06-03T08:55:07Z</time>
      </trkpt>
      <trkpt lat="42.99524" lon="2.81532">
        <ele>92.8083</ele>
        <time>2016-06-03T08:55:10Z</time>
      </trkpt>
      <trkpt lat="42.99518" lon="2.81524">
        <ele>92.921053</ele>
        <time>2016-06-03T08:55:13Z</time>
      </trkpt>
      <trkpt lat="42.99512" lon="2.81519">
        <ele>92.883179</ele>
        <time>2016-06-03T08:55:15Z</time>
      </trkpt>
      <trkpt lat="42.9951" lon="2.81516">
        <ele>92.87857</ele>
        <time>2016-06-03T08:55:17Z</time>
      </trkpt>
      <trkpt lat="42.9951" lon="2.81517">
        <ele>92.924653</ele>
        <time>2016-06-03T08:55:18Z</time>
      </trkpt>
      <trkpt lat="42.99509" lon="2.81515">
        <ele>92.996354</ele>
        <time>2016-06-03T08:55:19Z</time>
      </trkpt>
      <trkpt lat="42.9951" lon="2.81516">
        <ele>92.966154</ele>
        <time>2016-06-03T08:55:29Z</time>
      </trkpt>
      <trkpt lat="42.9951" lon="2.81516">
        <ele>93.080578</ele>
        <time>2016-06-03T08:56:26Z</time>
      </trkpt>
      <trkpt lat="42.9951" lon="2.81507">
        <ele>93.144227</ele>
        <time>2016-06-03T08:56:27Z</time>
      </trkpt>
      <trkpt lat="42.99508" lon="2.81518">
        <ele>93.210256</ele>
        <time>2016-06-03T08:56:37Z</time>
      </trkpt>
      <trkpt lat="42.99508" lon="2.81518">
        <ele>92.25013</ele>
        <time>2016-06-03T08:57:14Z</time>
      </trkpt>
      <trkpt lat="42.99508" lon="2.81518">
        <ele>92.797017</ele>
        <time>2016-06-03T08:58:47Z</time>
      </trkpt>
      <trkpt lat="42.99508" lon="2.81518">
        <ele>92.65045</ele>
        <time>2016-06-03T08:59:41Z</time>
      </trkpt>
      <trkpt lat="42.99508" lon="2.81518">
        <ele>92.364782</ele>
        <time>2016-06-03T09:00:12Z</time>
      </trkpt>
      <trkpt lat="42.99508" lon="2.81518">
        <ele>92.363449</ele>
        <time>2016-06-03T09:00:15Z</time>
      </trkpt>
      <trkpt lat="42.99508" lon="2.81518">
        <ele>92.752592</ele>
        <time>2016-06-03T09:06:41Z</time>
      </trkpt>
      <trkpt lat="42.99508" lon="2.81518">
        <ele>93.103426</ele>
        <time>2016-06-03T09:08:13Z</time>
      </trkpt>
      <trkpt lat="42.99508" lon="2.81519">
        <ele>92.915541</ele>
        <time>2016-06-03T09:08:15Z</time>
      </trkpt>
      <trkpt lat="42.99508" lon="2.8152">
        <ele>93.14264</ele>
        <time>2016-06-03T09:08:26Z</time>
      </trkpt>
      <trkpt lat="42.99504" lon="2.81517">
        <ele>93.00406</ele>
        <time>2016-06-03T09:08:37Z</time>
      </trkpt>
      <trkpt lat="42.99505" lon="2.8151">
        <ele>93.033864</ele>
        <time>2016-06-03T09:08:47Z</time>
      </trkpt>
      <trkpt lat="42.99505" lon="2.8151">
        <ele>93.087138</ele>
        <time>2016-06-03T09:09:09Z</time>
      </trkpt>
      <trkpt lat="42.99505" lon="2.81508">
        <ele>93.324972</ele>
        <time>2016-06-03T09:09:21Z</time>
      </trkpt>
      <trkpt lat="42.99505" lon="2.81508">
        <ele>93.380402</ele>
        <time>2016-06-03T09:09:46Z</time>
      </trkpt>
      <trkpt lat="42.99506" lon="2.81509">
        <ele>93.340828</ele>
        <time>2016-06-03T09:09:47Z</time>
      </trkpt>
      <trkpt lat="42.99503" lon="2.81505">
        <ele>93.397966</ele>
        <time>2016-06-03T09:09:50Z</time>
      </trkpt>
      <trkpt lat="42.99493" lon="2.81489">
        <ele>92.842772</ele>
        <time>2016-06-03T09:09:53Z</time>
      </trkpt>
      <trkpt lat="42.99475" lon="2.81462">
        <ele>92.449879</ele>
        <time>2016-06-03T09:09:57Z</time>
      </trkpt>
      <trkpt lat="42.99458" lon="2.81435">
        <ele>92.906853</ele>
        <time>2016-06-03T09:10:00Z</time>
      </trkpt>
      <trkpt lat="42.99432" lon="2.81397">
        <ele>93.081236</ele>
        <time>2016-06-03T09:10:04Z</time>
      </trkpt>
      <trkpt lat="42.99402" lon="2.81358">
        <ele>93.436679</ele>
        <time>2016-06-03T09:10:08Z</time>
      </trkpt>
      <trkpt lat="42.99383" lon="2.81327">
        <ele>94.823141</ele>
        <time>2016-06-03T09:10:11Z</time>
      </trkpt>
      <trkpt lat="42.99373" lon="2.81305">
        <ele>94.620882</ele>
        <time>2016-06-03T09:10:13Z</time>
      </trkpt>
      <trkpt lat="42.99362" lon="2.81284">
        <ele>94.40401</ele>
        <time>2016-06-03T09:10:15Z</time>
      </trkpt>
      <trkpt lat="42.99353" lon="2.81261">
        <ele>94.813846</ele>
        <time>2016-06-03T09:10:17Z</time>
      </trkpt>
      <trkpt lat="42.99344" lon="2.8124">
        <ele>95.433635</ele>
        <time>2016-06-03T09:10:19Z</time>
      </trkpt>
      <trkpt lat="42.99331" lon="2.81217">
        <ele>96.740276</ele>
        <time>2016-06-03T09:10:22Z</time>
      </trkpt>
      <trkpt lat="42.99322" lon="2.81201">
        <ele>97.359105</ele>
        <time>2016-06-03T09:10:25Z</time>
      </trkpt>
      <trkpt lat="42.99322" lon="2.81197">
        <ele>97.475999</ele>
        <time>2016-06-03T09:10:26Z</time>
      </trkpt>
      <trkpt lat="42.99336" lon="2.81186">
        <ele>97.84365</ele>
        <time>2016-06-03T09:10:29Z</time>
      </trkpt>
      <trkpt lat="42.99351" lon="2.81184">
        <ele>98.088702</ele>
        <time>2016-06-03T09:10:31Z</time>
      </trkpt>
      <trkpt lat="42.99378" lon="2.8118">
        <ele>99.545203</ele>
        <time>2016-06-03T09:10:34Z</time>
      </trkpt>
      <trkpt lat="42.9943" lon="2.81171">
        <ele>97.542798</ele>
        <time>2016-06-03T09:10:39Z</time>
      </trkpt>
      <trkpt lat="42.99462" lon="2.81174">
        <ele>98.057711</ele>
        <time>2016-06-03T09:10:42Z</time>
      </trkpt>
      <trkpt lat="42.99495" lon="2.81186">
        <ele>97.867436</ele>
        <time>2016-06-03T09:10:45Z</time>
      </trkpt>
      <trkpt lat="42.99514" lon="2.81197">
        <ele>98.359031</ele>
        <time>2016-06-03T09:10:47Z</time>
      </trkpt>
      <trkpt lat="42.99544" lon="2.8123">
        <ele>98.409196</ele>
        <time>2016-06-03T09:10:50Z</time>
      </trkpt>
      <trkpt lat="42.99557" lon="2.81246">
        <ele>100.1415</ele>
        <time>2016-06-03T09:10:52Z</time>
      </trkpt>
      <trkpt lat="42.99576" lon="2.81276">
        <ele>101.531671</ele>
        <time>2016-06-03T09:10:56Z</time>
      </trkpt>
      <trkpt lat="42.99593" lon="2.81297">
        <ele>103.516498</ele>
        <time>2016-06-03T09:10:59Z</time>
      </trkpt>
      <trkpt lat="42.99602" lon="2.81309">
        <ele>104.267572</ele>
        <time>2016-06-03T09:11:01Z</time>
      </trkpt>
      <trkpt lat="42.99609" lon="2.81318">
        <ele>104.655128</ele>
        <time>2016-06-03T09:11:03Z</time>
      </trkpt>
      <trkpt lat="42.99613" lon="2.81323">
        <ele>105.362568</ele>
        <time>2016-06-03T09:11:05Z</time>
      </trkpt>
      <trkpt lat="42.99615" lon="2.81325">
        <ele>105.534489</ele>
        <time>2016-06-03T09:11:07Z</time>
      </trkpt>
      <trkpt lat="42.99627" lon="2.81329">
        <ele>105.965437</ele>
        <time>2016-06-03T09:11:10Z</time>
      </trkpt>
      <trkpt lat="42.9964" lon="2.8133">
        <ele>107.17385</ele>
        <time>2016-06-03T09:11:12Z</time>
      </trkpt>
      <trkpt lat="42.99658" lon="2.81316">
        <ele>107.709491</ele>
        <time>2016-06-03T09:11:14Z</time>
      </trkpt>
      <trkpt lat="42.99686" lon="2.81293">
        <ele>107.896863</ele>
        <time>2016-06-03T09:11:17Z</time>
      </trkpt>
      <trkpt lat="42.9971" lon="2.81273">
        <ele>110.274519</ele>
        <time>2016-06-03T09:11:20Z</time>
      </trkpt>
      <trkpt lat="42.99723" lon="2.81252">
        <ele>110.545178</ele>
        <time>2016-06-03T09:11:22Z</time>
      </trkpt>
      <trkpt lat="42.99733" lon="2.81225">
        <ele>113.270684</ele>
        <time>2016-06-03T09:11:24Z</time>
      </trkpt>
      <trkpt lat="42.99747" lon="2.81202">
        <ele>114.398463</ele>
        <time>2016-06-03T09:11:26Z</time>
      </trkpt>
      <trkpt lat="42.99772" lon="2.8117">
        <ele>116.240851</ele>
        <time>2016-06-03T09:11:29Z</time>
      </trkpt>
      <trkpt lat="42.99779" lon="2.81161">
        <ele>117.209734</ele>
        <time>2016-06-03T09:11:30Z</time>
      </trkpt>
      <trkpt lat="42.99805" lon="2.81149">
        <ele>118.518648</ele>
        <time>2016-06-03T09:11:33Z</time>
      </trkpt>
      <trkpt lat="42.99821" lon="2.8115">
        <ele>118.939839</ele>
        <time>2016-06-03T09:11:35Z</time>
      </trkpt>
      <trkpt lat="42.99828" lon="2.81152">
        <ele>119.733484</ele>
        <time>2016-06-03T09:11:36Z</time>
      </trkpt>
      <trkpt lat="42.99841" lon="2.81184">
        <ele>120.286462</ele>
        <time>2016-06-03T09:11:39Z</time>
      </trkpt>
      <trkpt lat="42.99858" lon="2.81201">
        <ele>121.957967</ele>
        <time>2016-06-03T09:11:41Z</time>
      </trkpt>
      <trkpt lat="42.99879" lon="2.81208">
        <ele>123.52102</ele>
        <time>2016-06-03T09:11:43Z</time>
      </trkpt>
      <trkpt lat="42.99916" lon="2.81213">
        <ele>125.845362</ele>
        <time>2016-06-03T09:11:46Z</time>
      </trkpt>
      <trkpt lat="42.99935" lon="2.81218">
        <ele>127.272263</ele>
        <time>2016-06-03T09:11:48Z</time>
      </trkpt>
      <trkpt lat="42.99952" lon="2.81215">
        <ele>128.083403</ele>
        <time>2016-06-03T09:11:50Z</time>
      </trkpt>
      <trkpt lat="42.99967" lon="2.812">
        <ele>128.813139</ele>
        <time>2016-06-03T09:11:52Z</time>
      </trkpt>
      <trkpt lat="42.99988" lon="2.81168">
        <ele>131.159987</ele>
        <time>2016-06-03T09:11:55Z</time>
      </trkpt>
      <trkpt lat="43.00006" lon="2.81148">
        <ele>131.652125</ele>
        <time>2016-06-03T09:11:57Z</time>
      </trkpt>
      <trkpt lat="43.00023" lon="2.81133">
        <ele>131.165479</ele>
        <time>2016-06-03T09:11:59Z</time>
      </trkpt>
      <trkpt lat="43.00035" lon="2.81112">
        <ele>132.433575</ele>
        <time>2016-06-03T09:12:01Z</time>
      </trkpt>
      <trkpt lat="43.00043" lon="2.81085">
        <ele>135.47857</ele>
        <time>2016-06-03T09:12:03Z</time>
      </trkpt>
      <trkpt lat="43.00039" lon="2.81047">
        <ele>136.908859</ele>
        <time>2016-06-03T09:12:05Z</time>
      </trkpt>
      <trkpt lat="43.00038" lon="2.80995">
        <ele>139.275864</ele>
        <time>2016-06-03T09:12:08Z</time>
      </trkpt>
      <trkpt lat="43.00029" lon="2.8096">
        <ele>139.910487</ele>
        <time>2016-06-03T09:12:10Z</time>
      </trkpt>
      <trkpt lat="43.00006" lon="2.80904">
        <ele>140.471463</ele>
        <time>2016-06-03T09:12:13Z</time>
      </trkpt>
      <trkpt lat="42.99994" lon="2.80866">
        <ele>142.366795</ele>
        <time>2016-06-03T09:12:15Z</time>
      </trkpt>
      <trkpt lat="42.99978" lon="2.80834">
        <ele>144.277046</ele>
        <time>2016-06-03T09:12:17Z</time>
      </trkpt>
      <trkpt lat="42.99955" lon="2.80799">
        <ele>146.571643</ele>
        <time>2016-06-03T09:12:20Z</time>
      </trkpt>
      <trkpt lat="42.99946" lon="2.80777">
        <ele>148.052552</ele>
        <time>2016-06-03T09:12:22Z</time>
      </trkpt>
      <trkpt lat="42.99944" lon="2.80745">
        <ele>149.13571</ele>
        <time>2016-06-03T09:12:24Z</time>
      </trkpt>
      <trkpt lat="42.99946" lon="2.80715">
        <ele>150.088442</ele>
        <time>2016-06-03T09:12:26Z</time>
      </trkpt>
      <trkpt lat="42.99951" lon="2.80692">
        <ele>150.984579</ele>
        <time>2016-06-03T09:12:28Z</time>
      </trkpt>
      <trkpt lat="42.99963" lon="2.80676">
        <ele>153.030029</ele>
        <time>2016-06-03T09:12:30Z</time>
      </trkpt>
      <trkpt lat="42.99995" lon="2.80665">
        <ele>154.495232</ele>
        <time>2016-06-03T09:12:33Z</time>
      </trkpt>
      <trkpt lat="43.00039" lon="2.80656">
        <ele>156.754015</ele>
        <time>2016-06-03T09:12:36Z</time>
      </trkpt>
      <trkpt lat="43.00067" lon="2.80652">
        <ele>155.838334</ele>
        <time>2016-06-03T09:12:38Z</time>
      </trkpt>
      <trkpt lat="43.0011" lon="2.80656">
        <ele>158.886541</ele>
        <time>2016-06-03T09:12:41Z</time>
      </trkpt>
      <trkpt lat="43.00153" lon="2.80648">
        <ele>162.947752</ele>
        <time>2016-06-03T09:12:44Z</time>
      </trkpt>
      <trkpt lat="43.00191" lon="2.80642">
        <ele>164.545036</ele>
        <time>2016-06-03T09:12:47Z</time>
      </trkpt>
      <trkpt lat="43.00207" lon="2.80624">
        <ele>165.953475</ele>
        <time>2016-06-03T09:12:49Z</time>
      </trkpt>
      <trkpt lat="43.00215" lon="2.80612">
        <ele>165.72085</ele>
        <time>2016-06-03T09:12:50Z</time>
      </trkpt>
      <trkpt lat="43.00223" lon="2.80581">
        <ele>168.024788</ele>
        <time>2016-06-03T09:12:52Z</time>
      </trkpt>
      <trkpt lat="43.00238" lon="2.80554">
        <ele>169.778761</ele>
        <time>2016-06-03T09:12:54Z</time>
      </trkpt>
      <trkpt lat="43.00271" lon="2.80521">
        <ele>172.322202</ele>
        <time>2016-06-03T09:12:57Z</time>
      </trkpt>
      <trkpt lat="43.0031" lon="2.80513">
        <ele>173.660988</ele>
        <time>2016-06-03T09:13:00Z</time>
      </trkpt>
      <trkpt lat="43.0033" lon="2.80527">
        <ele>175.439536</ele>
        <time>2016-06-03T09:13:02Z</time>
      </trkpt>
      <trkpt lat="43.00346" lon="2.80567">
        <ele>177.740275</ele>
        <time>2016-06-03T09:13:05Z</time>
      </trkpt>
      <trkpt lat="43.0035" lon="2.80589">
        <ele>178.672899</ele>
        <time>2016-06-03T09:13:07Z</time>
      </trkpt>
      <trkpt lat="43.00356" lon="2.80598">
        <ele>178.956254</ele>
        <time>2016-06-03T09:13:08Z</time>
      </trkpt>
      <trkpt lat="43.00373" lon="2.80604">
        <ele>179.269384</ele>
        <time>2016-06-03T09:13:10Z</time>
      </trkpt>
      <trkpt lat="43.00387" lon="2.80597">
        <ele>180.681185</ele>
        <time>2016-06-03T09:13:12Z</time>
      </trkpt>
      <trkpt lat="43.00393" lon="2.80558">
        <ele>183.34815</ele>
        <time>2016-06-03T09:13:14Z</time>
      </trkpt>
      <trkpt lat="43.00419" lon="2.80507">
        <ele>185.858113</ele>
        <time>2016-06-03T09:13:17Z</time>
      </trkpt>
      <trkpt lat="43.00439" lon="2.80477">
        <ele>186.951576</ele>
        <time>2016-06-03T09:13:19Z</time>
      </trkpt>
      <trkpt lat="43.00473" lon="2.80446">
        <ele>188.504858</ele>
        <time>2016-06-03T09:13:22Z</time>
      </trkpt>
      <trkpt lat="43.00491" lon="2.8042">
        <ele>191.913261</ele>
        <time>2016-06-03T09:13:24Z</time>
      </trkpt>
      <trkpt lat="43.00507" lon="2.8037">
        <ele>193.069858</ele>
        <time>2016-06-03T09:13:27Z</time>
      </trkpt>
      <trkpt lat="43.00511" lon="2.80344">
        <ele>195.19129</ele>
        <time>2016-06-03T09:13:29Z</time>
      </trkpt>
      <trkpt lat="43.00506" lon="2.8032">
        <ele>196.158776</ele>
        <time>2016-06-03T09:13:31Z</time>
      </trkpt>
      <trkpt lat="43.00498" lon="2.80306">
        <ele>197.440523</ele>
        <time>2016-06-03T09:13:31Z</time>
      </trkpt>
      <trkpt lat="43.00474" lon="2.80294">
        <ele>198.023769</ele>
        <time>2016-06-03T09:13:33Z</time>
      </trkpt>
      <trkpt lat="43.00459" lon="2.80275">
        <ele>198.077915</ele>
        <time>2016-06-03T09:13:35Z</time>
      </trkpt>
      <trkpt lat="43.00432" lon="2.80203">
        <ele>203.018397</ele>
        <time>2016-06-03T09:13:39Z</time>
      </trkpt>
      <trkpt lat="43.00412" lon="2.80166">
        <ele>203.211024</ele>
        <time>2016-06-03T09:13:41Z</time>
      </trkpt>
      <trkpt lat="43.00384" lon="2.80128">
        <ele>205.91247</ele>
        <time>2016-06-03T09:13:44Z</time>
      </trkpt>
      <trkpt lat="43.00373" lon="2.80099">
        <ele>207.519855</ele>
        <time>2016-06-03T09:13:46Z</time>
      </trkpt>
      <trkpt lat="43.00371" lon="2.80062">
        <ele>209.30419</ele>
        <time>2016-06-03T09:13:48Z</time>
      </trkpt>
      <trkpt lat="43.0038" lon="2.79979">
        <ele>213.006103</ele>
        <time>2016-06-03T09:13:52Z</time>
      </trkpt>
      <trkpt lat="43.00386" lon="2.79945">
        <ele>213.915021</ele>
        <time>2016-06-03T09:13:54Z</time>
      </trkpt>
      <trkpt lat="43.00396" lon="2.79922">
        <ele>214.046883</ele>
        <time>2016-06-03T09:13:56Z</time>
      </trkpt>
      <trkpt lat="43.00413" lon="2.79909">
        <ele>215.107795</ele>
        <time>2016-06-03T09:13:58Z</time>
      </trkpt>
      <trkpt lat="43.00436" lon="2.79912">
        <ele>215.503742</ele>
        <time>2016-06-03T09:14:00Z</time>
      </trkpt>
      <trkpt lat="43.00462" lon="2.79918">
        <ele>216.898206</ele>
        <time>2016-06-03T09:14:02Z</time>
      </trkpt>
      <trkpt lat="43.00477" lon="2.79918">
        <ele>220.550894</ele>
        <time>2016-06-03T09:14:03Z</time>
      </trkpt>
      <trkpt lat="43.00514" lon="2.79891">
        <ele>221.214202</ele>
        <time>2016-06-03T09:14:06Z</time>
      </trkpt>
      <trkpt lat="43.00522" lon="2.79883">
        <ele>224.818016</ele>
        <time>2016-06-03T09:14:07Z</time>
      </trkpt>
      <trkpt lat="43.0054" lon="2.7984">
        <ele>226.798266</ele>
        <time>2016-06-03T09:14:09Z</time>
      </trkpt>
      <trkpt lat="43.0056" lon="2.79807">
        <ele>228.063757</ele>
        <time>2016-06-03T09:14:11Z</time>
      </trkpt>
      <trkpt lat="43.00579" lon="2.79753">
        <ele>230.309277</ele>
        <time>2016-06-03T09:14:14Z</time>
      </trkpt>
      <trkpt lat="43.00595" lon="2.7969">
        <ele>228.739492</ele>
        <time>2016-06-03T09:14:17Z</time>
      </trkpt>
      <trkpt lat="43.00618" lon="2.79632">
        <ele>228.523312</ele>
        <time>2016-06-03T09:14:20Z</time>
      </trkpt>
      <trkpt lat="43.00651" lon="2.7958">
        <ele>228.533942</ele>
        <time>2016-06-03T09:14:23Z</time>
      </trkpt>
      <trkpt lat="43.00675" lon="2.79553">
        <ele>229.920327</ele>
        <time>2016-06-03T09:14:25Z</time>
      </trkpt>
      <trkpt lat="43.00702" lon="2.79532">
        <ele>229.415172</ele>
        <time>2016-06-03T09:14:27Z</time>
      </trkpt>
      <trkpt lat="43.00728" lon="2.79519">
        <ele>230.358327</ele>
        <time>2016-06-03T09:14:29Z</time>
      </trkpt>
      <trkpt lat="43.00753" lon="2.79516">
        <ele>231.304949</ele>
        <time>2016-06-03T09:14:31Z</time>
      </trkpt>
      <trkpt lat="43.00796" lon="2.79523">
        <ele>232.107211</ele>
        <time>2016-06-03T09:14:34Z</time>
      </trkpt>
      <trkpt lat="43.00819" lon="2.79529">
        <ele>232.162002</ele>
        <time>2016-06-03T09:14:36Z</time>
      </trkpt>
      <trkpt lat="43.00838" lon="2.79541">
        <ele>231.804594</ele>
        <time>2016-06-03T09:14:38Z</time>
      </trkpt>
      <trkpt lat="43.00855" lon="2.79539">
        <ele>231.996775</ele>
        <time>2016-06-03T09:14:40Z</time>
      </trkpt>
      <trkpt lat="43.00858" lon="2.79531">
        <ele>231.881533</ele>
        <time>2016-06-03T09:14:41Z</time>
      </trkpt>
      <trkpt lat="43.00877" lon="2.7952">
        <ele>232.600098</ele>
        <time>2016-06-03T09:14:43Z</time>
      </trkpt>
      <trkpt lat="43.00902" lon="2.79511">
        <ele>232.086138</ele>
        <time>2016-06-03T09:14:45Z</time>
      </trkpt>
      <trkpt lat="43.00925" lon="2.79498">
        <ele>232.058618</ele>
        <time>2016-06-03T09:14:47Z</time>
      </trkpt>
      <trkpt lat="43.00944" lon="2.79484">
        <ele>232.573564</ele>
        <time>2016-06-03T09:14:49Z</time>
      </trkpt>
      <trkpt lat="43.00966" lon="2.79482">
        <ele>232.046873</ele>
        <time>2016-06-03T09:14:51Z</time>
      </trkpt>
      <trkpt lat="43.00999" lon="2.79496">
        <ele>231.297956</ele>
        <time>2016-06-03T09:14:54Z</time>
      </trkpt>
      <trkpt lat="43.01019" lon="2.79496">
        <ele>231.54894</ele>
        <time>2016-06-03T09:14:56Z</time>
      </trkpt>
      <trkpt lat="43.0103" lon="2.79493">
        <ele>231.54894</ele>
        <time>2016-06-03T09:14:57Z</time>
      </trkpt>
      <trkpt lat="43.01036" lon="2.79445">
        <ele>233.721564</ele>
        <time>2016-06-03T09:14:59Z</time>
      </trkpt>
      <trkpt lat="43.01057" lon="2.79384">
        <ele>233.025944</ele>
        <time>2016-06-03T09:15:02Z</time>
      </trkpt>
      <trkpt lat="43.01066" lon="2.79345">
        <ele>234.612306</ele>
        <time>2016-06-03T09:15:04Z</time>
      </trkpt>
      <trkpt lat="43.01068" lon="2.79278">
        <ele>236.049929</ele>
        <time>2016-06-03T09:15:07Z</time>
      </trkpt>
      <trkpt lat="43.01079" lon="2.79208">
        <ele>234.707963</ele>
        <time>2016-06-03T09:15:10Z</time>
      </trkpt>
      <trkpt lat="43.01086" lon="2.79119">
        <ele>238.838348</ele>
        <time>2016-06-03T09:15:14Z</time>
      </trkpt>
      <trkpt lat="43.01093" lon="2.7908">
        <ele>239.035707</ele>
        <time>2016-06-03T09:15:16Z</time>
      </trkpt>
      <trkpt lat="43.01112" lon="2.79041">
        <ele>239.158783</ele>
        <time>2016-06-03T09:15:18Z</time>
      </trkpt>
      <trkpt lat="43.01138" lon="2.78993">
        <ele>239.571966</ele>
        <time>2016-06-03T09:15:21Z</time>
      </trkpt>
      <trkpt lat="43.01152" lon="2.78963">
        <ele>241.706928</ele>
        <time>2016-06-03T09:15:23Z</time>
      </trkpt>
      <trkpt lat="43.01153" lon="2.7889">
        <ele>242.60808</ele>
        <time>2016-06-03T09:15:26Z</time>
      </trkpt>
      <trkpt lat="43.01164" lon="2.78824">
        <ele>241.808174</ele>
        <time>2016-06-03T09:15:29Z</time>
      </trkpt>
      <trkpt lat="43.01176" lon="2.78785">
        <ele>244.27406</ele>
        <time>2016-06-03T09:15:31Z</time>
      </trkpt>
      <trkpt lat="43.01196" lon="2.78749">
        <ele>243.516125</ele>
        <time>2016-06-03T09:15:33Z</time>
      </trkpt>
      <trkpt lat="43.01213" lon="2.78712">
        <ele>246.122775</ele>
        <time>2016-06-03T09:15:35Z</time>
      </trkpt>
      <trkpt lat="43.01236" lon="2.78686">
        <ele>247.407771</ele>
        <time>2016-06-03T09:15:37Z</time>
      </trkpt>
      <trkpt lat="43.01258" lon="2.78653">
        <ele>248.240603</ele>
        <time>2016-06-03T09:15:39Z</time>
      </trkpt>
      <trkpt lat="43.01272" lon="2.78622">
        <ele>247.73408</ele>
        <time>2016-06-03T09:15:41Z</time>
      </trkpt>
      <trkpt lat="43.01279" lon="2.78551">
        <ele>249.508016</ele>
        <time>2016-06-03T09:15:44Z</time>
      </trkpt>
      <trkpt lat="43.01291" lon="2.78463">
        <ele>249.475566</ele>
        <time>2016-06-03T09:15:48Z</time>
      </trkpt>
      <trkpt lat="43.013" lon="2.78429">
        <ele>250.06334</ele>
        <time>2016-06-03T09:15:50Z</time>
      </trkpt>
      <trkpt lat="43.01319" lon="2.78404">
        <ele>251.608253</ele>
        <time>2016-06-03T09:15:52Z</time>
      </trkpt>
      <trkpt lat="43.01341" lon="2.78389">
        <ele>250.836958</ele>
        <time>2016-06-03T09:15:54Z</time>
      </trkpt>
      <trkpt lat="43.01362" lon="2.78384">
        <ele>252.089299</ele>
        <time>2016-06-03T09:15:56Z</time>
      </trkpt>
      <trkpt lat="43.01385" lon="2.78388">
        <ele>252.35366</ele>
        <time>2016-06-03T09:15:58Z</time>
      </trkpt>
      <trkpt lat="43.01417" lon="2.78378">
        <ele>253.749962</ele>
        <time>2016-06-03T09:16:01Z</time>
      </trkpt>
      <trkpt lat="43.01435" lon="2.78365">
        <ele>255.891255</ele>
        <time>2016-06-03T09:16:03Z</time>
      </trkpt>
      <trkpt lat="43.01446" lon="2.78329">
        <ele>255.71448</ele>
        <time>2016-06-03T09:16:05Z</time>
      </trkpt>
      <trkpt lat="43.01442" lon="2.78268">
        <ele>257.514303</ele>
        <time>2016-06-03T09:16:07Z</time>
      </trkpt>
      <trkpt lat="43.01433" lon="2.78221">
        <ele>258.512448</ele>
        <time>2016-06-03T09:16:09Z</time>
      </trkpt>
      <trkpt lat="43.01419" lon="2.78177">
        <ele>259.822647</ele>
        <time>2016-06-03T09:16:11Z</time>
      </trkpt>
      <trkpt lat="43.01406" lon="2.7811">
        <ele>261.076746</ele>
        <time>2016-06-03T09:16:14Z</time>
      </trkpt>
      <trkpt lat="43.01397" lon="2.78071">
        <ele>264.339973</ele>
        <time>2016-06-03T09:16:16Z</time>
      </trkpt>
      <trkpt lat="43.01397" lon="2.78042">
        <ele>264.844624</ele>
        <time>2016-06-03T09:16:18Z</time>
      </trkpt>
      <trkpt lat="43.01403" lon="2.78009">
        <ele>267.34381</ele>
        <time>2016-06-03T09:16:20Z</time>
      </trkpt>
      <trkpt lat="43.01418" lon="2.77974">
        <ele>267.804674</ele>
        <time>2016-06-03T09:16:22Z</time>
      </trkpt>
      <trkpt lat="43.01439" lon="2.77937">
        <ele>268.176081</ele>
        <time>2016-06-03T09:16:24Z</time>
      </trkpt>
      <trkpt lat="43.0147" lon="2.77874">
        <ele>272.745655</ele>
        <time>2016-06-03T09:16:27Z</time>
      </trkpt>
      <trkpt lat="43.01498" lon="2.77798">
        <ele>276.336858</ele>
        <time>2016-06-03T09:16:30Z</time>
      </trkpt>
      <trkpt lat="43.0151" lon="2.77747">
        <ele>276.996264</ele>
        <time>2016-06-03T09:16:32Z</time>
      </trkpt>
      <trkpt lat="43.01518" lon="2.77701">
        <ele>280.688174</ele>
        <time>2016-06-03T09:16:34Z</time>
      </trkpt>
      <trkpt lat="43.01513" lon="2.77627">
        <ele>278.933256</ele>
        <time>2016-06-03T09:16:37Z</time>
      </trkpt>
      <trkpt lat="43.01515" lon="2.77585">
        <ele>282.982559</ele>
        <time>2016-06-03T09:16:39Z</time>
      </trkpt>
      <trkpt lat="43.0152" lon="2.77552">
        <ele>284.910684</ele>
        <time>2016-06-03T09:16:41Z</time>
      </trkpt>
      <trkpt lat="43.01537" lon="2.77506">
        <ele>287.760551</ele>
        <time>2016-06-03T09:16:44Z</time>
      </trkpt>
      <trkpt lat="43.01557" lon="2.77478">
        <ele>288.270615</ele>
        <time>2016-06-03T09:16:46Z</time>
      </trkpt>
      <trkpt lat="43.01586" lon="2.77421">
        <ele>290.611559</ele>
        <time>2016-06-03T09:16:49Z</time>
      </trkpt>
      <trkpt lat="43.01613" lon="2.77371">
        <ele>293.208644</ele>
        <time>2016-06-03T09:16:52Z</time>
      </trkpt>
      <trkpt lat="43.01626" lon="2.77338">
        <ele>294.558881</ele>
        <time>2016-06-03T09:16:54Z</time>
      </trkpt>
      <trkpt lat="43.01634" lon="2.77265">
        <ele>296.015048</ele>
        <time>2016-06-03T09:16:58Z</time>
      </trkpt>
      <trkpt lat="43.0164" lon="2.77211">
        <ele>298.693535</ele>
        <time>2016-06-03T09:17:02Z</time>
      </trkpt>
      <trkpt lat="43.01643" lon="2.7719">
        <ele>299.330163</ele>
        <time>2016-06-03T09:17:04Z</time>
      </trkpt>
      <trkpt lat="43.01647" lon="2.77172">
        <ele>300.333657</ele>
        <time>2016-06-03T09:17:06Z</time>
      </trkpt>
      <trkpt lat="43.01654" lon="2.77164">
        <ele>301.332796</ele>
        <time>2016-06-03T09:17:09Z</time>
      </trkpt>
      <trkpt lat="43.01655" lon="2.77163">
        <ele>302.612027</ele>
        <time>2016-06-03T09:17:22Z</time>
      </trkpt>
      <trkpt lat="43.01654" lon="2.77162">
        <ele>302.384024</ele>
        <time>2016-06-03T09:17:23Z</time>
      </trkpt>
      <trkpt lat="43.0166" lon="2.77169">
        <ele>302.79345</ele>
        <time>2016-06-03T09:17:26Z</time>
      </trkpt>
      <trkpt lat="43.01669" lon="2.77188">
        <ele>303.096246</ele>
        <time>2016-06-03T09:17:29Z</time>
      </trkpt>
      <trkpt lat="43.0168" lon="2.772">
        <ele>303.726552</ele>
        <time>2016-06-03T09:17:31Z</time>
      </trkpt>
      <trkpt lat="43.01697" lon="2.77213">
        <ele>303.665621</ele>
        <time>2016-06-03T09:17:34Z</time>
      </trkpt>
      <trkpt lat="43.01712" lon="2.77217">
        <ele>303.973038</ele>
        <time>2016-06-03T09:17:36Z</time>
      </trkpt>
      <trkpt lat="43.01734" lon="2.77231">
        <ele>304.724283</ele>
        <time>2016-06-03T09:17:39Z</time>
      </trkpt>
      <trkpt lat="43.01749" lon="2.7724">
        <ele>304.185584</ele>
        <time>2016-06-03T09:17:42Z</time>
      </trkpt>
      <trkpt lat="43.01759" lon="2.77256">
        <ele>304.361231</ele>
        <time>2016-06-03T09:17:45Z</time>
      </trkpt>
      <trkpt lat="43.01759" lon="2.77277">
        <ele>304.234868</ele>
        <time>2016-06-03T09:17:47Z</time>
      </trkpt>
      <trkpt lat="43.01757" lon="2.77305">
        <ele>303.201622</ele>
        <time>2016-06-03T09:17:49Z</time>
      </trkpt>
      <trkpt lat="43.01752" lon="2.77315">
        <ele>302.511363</ele>
        <time>2016-06-03T09:17:50Z</time>
      </trkpt>
      <trkpt lat="43.01753" lon="2.77336">
        <ele>301.009883</ele>
        <time>2016-06-03T09:17:52Z</time>
      </trkpt>
      <trkpt lat="43.0177" lon="2.77368">
        <ele>299.543968</ele>
        <time>2016-06-03T09:17:55Z</time>
      </trkpt>
      <trkpt lat="43.01804" lon="2.7739">
        <ele>298.444623</ele>
        <time>2016-06-03T09:17:58Z</time>
      </trkpt>
      <trkpt lat="43.01829" lon="2.77406">
        <ele>296.864034</ele>
        <time>2016-06-03T09:18:00Z</time>
      </trkpt>
      <trkpt lat="43.01854" lon="2.77417">
        <ele>295.230958</ele>
        <time>2016-06-03T09:18:02Z</time>
      </trkpt>
      <trkpt lat="43.01876" lon="2.77433">
        <ele>295.56011</ele>
        <time>2016-06-03T09:18:04Z</time>
      </trkpt>
      <trkpt lat="43.01895" lon="2.77458">
        <ele>295.352187</ele>
        <time>2016-06-03T09:18:06Z</time>
      </trkpt>
      <trkpt lat="43.01924" lon="2.77501">
        <ele>293.13168</ele>
        <time>2016-06-03T09:18:09Z</time>
      </trkpt>
      <trkpt lat="43.01954" lon="2.77527">
        <ele>289.691826</ele>
        <time>2016-06-03T09:18:12Z</time>
      </trkpt>
      <trkpt lat="43.01984" lon="2.77523">
        <ele>290.372482</ele>
        <time>2016-06-03T09:18:15Z</time>
      </trkpt>
      <trkpt lat="43.01994" lon="2.77523">
        <ele>289.616891</ele>
        <time>2016-06-03T09:18:16Z</time>
      </trkpt>
      <trkpt lat="43.0201" lon="2.77538">
        <ele>288.39837</ele>
        <time>2016-06-03T09:18:18Z</time>
      </trkpt>
      <trkpt lat="43.02024" lon="2.77558">
        <ele>287.457809</ele>
        <time>2016-06-03T09:18:20Z</time>
      </trkpt>
      <trkpt lat="43.02043" lon="2.7757">
        <ele>285.635217</ele>
        <time>2016-06-03T09:18:22Z</time>
      </trkpt>
      <trkpt lat="43.02073" lon="2.77574">
        <ele>284.788502</ele>
        <time>2016-06-03T09:18:25Z</time>
      </trkpt>
      <trkpt lat="43.02089" lon="2.77588">
        <ele>283.441678</ele>
        <time>2016-06-03T09:18:27Z</time>
      </trkpt>
      <trkpt lat="43.02096" lon="2.77628">
        <ele>283.440692</ele>
        <time>2016-06-03T09:18:30Z</time>
      </trkpt>
      <trkpt lat="43.02104" lon="2.77652">
        <ele>281.16234</ele>
        <time>2016-06-03T09:18:32Z</time>
      </trkpt>
      <trkpt lat="43.02119" lon="2.77674">
        <ele>280.224403</ele>
        <time>2016-06-03T09:18:34Z</time>
      </trkpt>
      <trkpt lat="43.02139" lon="2.77686">
        <ele>280.556514</ele>
        <time>2016-06-03T09:18:36Z</time>
      </trkpt>
      <trkpt lat="43.02158" lon="2.77708">
        <ele>279.420177</ele>
        <time>2016-06-03T09:18:38Z</time>
      </trkpt>
      <trkpt lat="43.02181" lon="2.77754">
        <ele>277.655524</ele>
        <time>2016-06-03T09:18:41Z</time>
      </trkpt>
      <trkpt lat="43.02201" lon="2.77796">
        <ele>276.113419</ele>
        <time>2016-06-03T09:18:44Z</time>
      </trkpt>
      <trkpt lat="43.02218" lon="2.77826">
        <ele>274.140904</ele>
        <time>2016-06-03T09:18:47Z</time>
      </trkpt>
      <trkpt lat="43.02235" lon="2.77837">
        <ele>272.987681</ele>
        <time>2016-06-03T09:18:49Z</time>
      </trkpt>
      <trkpt lat="43.02251" lon="2.77837">
        <ele>272.3165</ele>
        <time>2016-06-03T09:18:51Z</time>
      </trkpt>
      <trkpt lat="43.02265" lon="2.77844">
        <ele>271.6858</ele>
        <time>2016-06-03T09:18:53Z</time>
      </trkpt>
      <trkpt lat="43.02273" lon="2.77863">
        <ele>271.465992</ele>
        <time>2016-06-03T09:18:55Z</time>
      </trkpt>
      <trkpt lat="43.02273" lon="2.7791">
        <ele>272.635273</ele>
        <time>2016-06-03T09:18:58Z</time>
      </trkpt>
      <trkpt lat="43.02274" lon="2.77941">
        <ele>271.718144</ele>
        <time>2016-06-03T09:19:00Z</time>
      </trkpt>
      <trkpt lat="43.0228" lon="2.77969">
        <ele>271.16096</ele>
        <time>2016-06-03T09:19:02Z</time>
      </trkpt>
      <trkpt lat="43.02284" lon="2.77979">
        <ele>270.574649</ele>
        <time>2016-06-03T09:19:03Z</time>
      </trkpt>
      <trkpt lat="43.02315" lon="2.7801">
        <ele>269.252446</ele>
        <time>2016-06-03T09:19:06Z</time>
      </trkpt>
      <trkpt lat="43.02348" lon="2.78042">
        <ele>268.193135</ele>
        <time>2016-06-03T09:19:09Z</time>
      </trkpt>
      <trkpt lat="43.02378" lon="2.78064">
        <ele>267.289702</ele>
        <time>2016-06-03T09:19:12Z</time>
      </trkpt>
      <trkpt lat="43.02409" lon="2.7807">
        <ele>267.128986</ele>
        <time>2016-06-03T09:19:15Z</time>
      </trkpt>
      <trkpt lat="43.02446" lon="2.78052">
        <ele>266.790542</ele>
        <time>2016-06-03T09:19:18Z</time>
      </trkpt>
      <trkpt lat="43.02465" lon="2.7805">
        <ele>266.143915</ele>
        <time>2016-06-03T09:19:20Z</time>
      </trkpt>
      <trkpt lat="43.02488" lon="2.78054">
        <ele>267.288702</ele>
        <time>2016-06-03T09:19:22Z</time>
      </trkpt>
      <trkpt lat="43.02514" lon="2.78068">
        <ele>267.497154</ele>
        <time>2016-06-03T09:19:24Z</time>
      </trkpt>
      <trkpt lat="43.02551" lon="2.78101">
        <ele>266.386192</ele>
        <time>2016-06-03T09:19:27Z</time>
      </trkpt>
      <trkpt lat="43.0258" lon="2.78129">
        <ele>266.542722</ele>
        <time>2016-06-03T09:19:30Z</time>
      </trkpt>
      <trkpt lat="43.02599" lon="2.7814">
        <ele>265.972294</ele>
        <time>2016-06-03T09:19:32Z</time>
      </trkpt>
      <trkpt lat="43.02638" lon="2.78133">
        <ele>265.957495</ele>
        <time>2016-06-03T09:19:35Z</time>
      </trkpt>
      <trkpt lat="43.02683" lon="2.78112">
        <ele>264.589595</ele>
        <time>2016-06-03T09:19:38Z</time>
      </trkpt>
      <trkpt lat="43.02728" lon="2.78093">
        <ele>263.435321</ele>
        <time>2016-06-03T09:19:41Z</time>
      </trkpt>
      <trkpt lat="43.02764" lon="2.78076">
        <ele>263.374996</ele>
        <time>2016-06-03T09:19:44Z</time>
      </trkpt>
      <trkpt lat="43.02787" lon="2.7807">
        <ele>264.147008</ele>
        <time>2016-06-03T09:19:46Z</time>
      </trkpt>
      <trkpt lat="43.02808" lon="2.78072">
        <ele>263.128844</ele>
        <time>2016-06-03T09:19:48Z</time>
      </trkpt>
      <trkpt lat="43.02827" lon="2.78087">
        <ele>260.70913</ele>
        <time>2016-06-03T09:19:50Z</time>
      </trkpt>
      <trkpt lat="43.02845" lon="2.7811">
        <ele>259.77509</ele>
        <time>2016-06-03T09:19:52Z</time>
      </trkpt>
      <trkpt lat="43.02864" lon="2.78131">
        <ele>261.879115</ele>
        <time>2016-06-03T09:19:54Z</time>
      </trkpt>
      <trkpt lat="43.02883" lon="2.78141">
        <ele>262.800117</ele>
        <time>2016-06-03T09:19:56Z</time>
      </trkpt>
      <trkpt lat="43.02905" lon="2.78134">
        <ele>262.411686</ele>
        <time>2016-06-03T09:19:58Z</time>
      </trkpt>
      <trkpt lat="43.02946" lon="2.78132">
        <ele>261.54398</ele>
        <time>2016-06-03T09:20:01Z</time>
      </trkpt>
      <trkpt lat="43.02987" lon="2.78132">
        <ele>259.587334</ele>
        <time>2016-06-03T09:20:04Z</time>
      </trkpt>
      <trkpt lat="43.03009" lon="2.7814">
        <ele>259.357397</ele>
        <time>2016-06-03T09:20:06Z</time>
      </trkpt>
      <trkpt lat="43.03028" lon="2.78162">
        <ele>260.258807</ele>
        <time>2016-06-03T09:20:08Z</time>
      </trkpt>
      <trkpt lat="43.03043" lon="2.78195">
        <ele>259.469688</ele>
        <time>2016-06-03T09:20:10Z</time>
      </trkpt>
      <trkpt lat="43.03067" lon="2.7827">
        <ele>256.628912</ele>
        <time>2016-06-03T09:20:14Z</time>
      </trkpt>
      <trkpt lat="43.03073" lon="2.78306">
        <ele>254.496868</ele>
        <time>2016-06-03T09:20:16Z</time>
      </trkpt>
      <trkpt lat="43.03075" lon="2.78343">
        <ele>255.741439</ele>
        <time>2016-06-03T09:20:18Z</time>
      </trkpt>
      <trkpt lat="43.03066" lon="2.78383">
        <ele>255.929579</ele>
        <time>2016-06-03T09:20:20Z</time>
      </trkpt>
      <trkpt lat="43.03063" lon="2.78421">
        <ele>255.618769</ele>
        <time>2016-06-03T09:20:22Z</time>
      </trkpt>
      <trkpt lat="43.03068" lon="2.78454">
        <ele>256.11275</ele>
        <time>2016-06-03T09:20:24Z</time>
      </trkpt>
      <trkpt lat="43.03088" lon="2.78509">
        <ele>255.691368</ele>
        <time>2016-06-03T09:20:27Z</time>
      </trkpt>
      <trkpt lat="43.0313" lon="2.78617">
        <ele>255.326502</ele>
        <time>2016-06-03T09:20:32Z</time>
      </trkpt>
      <trkpt lat="43.03146" lon="2.7868">
        <ele>255.170927</ele>
        <time>2016-06-03T09:20:35Z</time>
      </trkpt>
      <trkpt lat="43.03167" lon="2.78736">
        <ele>253.969563</ele>
        <time>2016-06-03T09:20:38Z</time>
      </trkpt>
      <trkpt lat="43.03202" lon="2.78795">
        <ele>254.192271</ele>
        <time>2016-06-03T09:20:41Z</time>
      </trkpt>
      <trkpt lat="43.03232" lon="2.7885">
        <ele>253.062609</ele>
        <time>2016-06-03T09:20:44Z</time>
      </trkpt>
      <trkpt lat="43.0326" lon="2.78903">
        <ele>253.010791</ele>
        <time>2016-06-03T09:20:47Z</time>
      </trkpt>
      <trkpt lat="43.03299" lon="2.78958">
        <ele>249.557751</ele>
        <time>2016-06-03T09:20:50Z</time>
      </trkpt>
      <trkpt lat="43.03342" lon="2.79005">
        <ele>248.682134</ele>
        <time>2016-06-03T09:20:53Z</time>
      </trkpt>
      <trkpt lat="43.03382" lon="2.79054">
        <ele>249.257147</ele>
        <time>2016-06-03T09:20:56Z</time>
      </trkpt>
      <trkpt lat="43.03404" lon="2.79087">
        <ele>248.634153</ele>
        <time>2016-06-03T09:20:58Z</time>
      </trkpt>
      <trkpt lat="43.03415" lon="2.79126">
        <ele>247.136673</ele>
        <time>2016-06-03T09:21:00Z</time>
      </trkpt>
      <trkpt lat="43.03425" lon="2.7919">
        <ele>245.478781</ele>
        <time>2016-06-03T09:21:03Z</time>
      </trkpt>
      <trkpt lat="43.0343" lon="2.79226">
        <ele>245.475983</ele>
        <time>2016-06-03T09:21:05Z</time>
      </trkpt>
      <trkpt lat="43.03461" lon="2.7932">
        <ele>244.864954</ele>
        <time>2016-06-03T09:21:10Z</time>
      </trkpt>
      <trkpt lat="43.03472" lon="2.79354">
        <ele>244.813019</ele>
        <time>2016-06-03T09:21:12Z</time>
      </trkpt>
      <trkpt lat="43.03487" lon="2.79371">
        <ele>246.237807</ele>
        <time>2016-06-03T09:21:14Z</time>
      </trkpt>
      <trkpt lat="43.03508" lon="2.79378">
        <ele>246.42813</ele>
        <time>2016-06-03T09:21:16Z</time>
      </trkpt>
      <trkpt lat="43.03536" lon="2.79381">
        <ele>246.338192</ele>
        <time>2016-06-03T09:21:18Z</time>
      </trkpt>
      <trkpt lat="43.0358" lon="2.79375">
        <ele>245.583029</ele>
        <time>2016-06-03T09:21:21Z</time>
      </trkpt>
      <trkpt lat="43.03609" lon="2.79371">
        <ele>244.925293</ele>
        <time>2016-06-03T09:21:23Z</time>
      </trkpt>
      <trkpt lat="43.03638" lon="2.79373">
        <ele>244.210866</ele>
        <time>2016-06-03T09:21:26Z</time>
      </trkpt>
      <trkpt lat="43.03678" lon="2.7939">
        <ele>245.29524</ele>
        <time>2016-06-03T09:21:29Z</time>
      </trkpt>
      <trkpt lat="43.037" lon="2.79408">
        <ele>243.891848</ele>
        <time>2016-06-03T09:21:31Z</time>
      </trkpt>
      <trkpt lat="43.03716" lon="2.79428">
        <ele>244.006276</ele>
        <time>2016-06-03T09:21:33Z</time>
      </trkpt>
      <trkpt lat="43.03736" lon="2.79438">
        <ele>243.95302</ele>
        <time>2016-06-03T09:21:35Z</time>
      </trkpt>
      <trkpt lat="43.03763" lon="2.79438">
        <ele>244.409184</ele>
        <time>2016-06-03T09:21:37Z</time>
      </trkpt>
      <trkpt lat="43.03847" lon="2.79422">
        <ele>242.605826</ele>
        <time>2016-06-03T09:21:42Z</time>
      </trkpt>
      <trkpt lat="43.03899" lon="2.79408">
        <ele>244.275865</ele>
        <time>2016-06-03T09:21:45Z</time>
      </trkpt>
      <trkpt lat="43.03945" lon="2.79394">
        <ele>241.066546</ele>
        <time>2016-06-03T09:21:48Z</time>
      </trkpt>
      <trkpt lat="43.03971" lon="2.79394">
        <ele>240.96121</ele>
        <time>2016-06-03T09:21:50Z</time>
      </trkpt>
      <trkpt lat="43.03993" lon="2.79406">
        <ele>241.453833</ele>
        <time>2016-06-03T09:21:52Z</time>
      </trkpt>
      <trkpt lat="43.04016" lon="2.79432">
        <ele>239.917281</ele>
        <time>2016-06-03T09:21:55Z</time>
      </trkpt>
      <trkpt lat="43.04023" lon="2.79437">
        <ele>240.544794</ele>
        <time>2016-06-03T09:21:56Z</time>
      </trkpt>
      <trkpt lat="43.04055" lon="2.79422">
        <ele>241.702296</ele>
        <time>2016-06-03T09:21:59Z</time>
      </trkpt>
      <trkpt lat="43.04079" lon="2.79419">
        <ele>240.919387</ele>
        <time>2016-06-03T09:22:01Z</time>
      </trkpt>
      <trkpt lat="43.04112" lon="2.79422">
        <ele>238.488504</ele>
        <time>2016-06-03T09:22:04Z</time>
      </trkpt>
      <trkpt lat="43.04127" lon="2.79429">
        <ele>239.326849</ele>
        <time>2016-06-03T09:22:06Z</time>
      </trkpt>
      <trkpt lat="43.04141" lon="2.79447">
        <ele>239.325985</ele>
        <time>2016-06-03T09:22:08Z</time>
      </trkpt>
      <trkpt lat="43.04156" lon="2.79485">
        <ele>240.361755</ele>
        <time>2016-06-03T09:22:11Z</time>
      </trkpt>
      <trkpt lat="43.04172" lon="2.79513">
        <ele>238.610573</ele>
        <time>2016-06-03T09:22:13Z</time>
      </trkpt>
      <trkpt lat="43.04192" lon="2.79571">
        <ele>237.133479</ele>
        <time>2016-06-03T09:22:17Z</time>
      </trkpt>
      <trkpt lat="43.04219" lon="2.79598">
        <ele>236.181731</ele>
        <time>2016-06-03T09:22:20Z</time>
      </trkpt>
      <trkpt lat="43.04237" lon="2.79609">
        <ele>235.788261</ele>
        <time>2016-06-03T09:22:22Z</time>
      </trkpt>
      <trkpt lat="43.04277" lon="2.79585">
        <ele>233.490104</ele>
        <time>2016-06-03T09:22:25Z</time>
      </trkpt>
      <trkpt lat="43.04301" lon="2.79573">
        <ele>233.328384</ele>
        <time>2016-06-03T09:22:27Z</time>
      </trkpt>
      <trkpt lat="43.04325" lon="2.79568">
        <ele>232.138181</ele>
        <time>2016-06-03T09:22:29Z</time>
      </trkpt>
      <trkpt lat="43.04354" lon="2.7957">
        <ele>230.777136</ele>
        <time>2016-06-03T09:22:31Z</time>
      </trkpt>
      <trkpt lat="43.04378" lon="2.79582">
        <ele>229.661351</ele>
        <time>2016-06-03T09:22:33Z</time>
      </trkpt>
      <trkpt lat="43.04405" lon="2.79596">
        <ele>231.068681</ele>
        <time>2016-06-03T09:22:35Z</time>
      </trkpt>
      <trkpt lat="43.04417" lon="2.79606">
        <ele>230.673529</ele>
        <time>2016-06-03T09:22:36Z</time>
      </trkpt>
      <trkpt lat="43.0444" lon="2.7965">
        <ele>227.904917</ele>
        <time>2016-06-03T09:22:39Z</time>
      </trkpt>
      <trkpt lat="43.04458" lon="2.79674">
        <ele>228.231843</ele>
        <time>2016-06-03T09:22:41Z</time>
      </trkpt>
      <trkpt lat="43.04475" lon="2.79687">
        <ele>227.380107</ele>
        <time>2016-06-03T09:22:43Z</time>
      </trkpt>
      <trkpt lat="43.0451" lon="2.79691">
        <ele>224.716706</ele>
        <time>2016-06-03T09:22:46Z</time>
      </trkpt>
      <trkpt lat="43.0454" lon="2.79693">
        <ele>224.024797</ele>
        <time>2016-06-03T09:22:48Z</time>
      </trkpt>
      <trkpt lat="43.04575" lon="2.79702">
        <ele>223.59698</ele>
        <time>2016-06-03T09:22:51Z</time>
      </trkpt>
      <trkpt lat="43.04588" lon="2.79705">
        <ele>224.105166</ele>
        <time>2016-06-03T09:22:53Z</time>
      </trkpt>
      <trkpt lat="43.04598" lon="2.79708">
        <ele>224.605465</ele>
        <time>2016-06-03T09:22:55Z</time>
      </trkpt>
      <trkpt lat="43.046" lon="2.79707">
        <ele>225.599121</ele>
        <time>2016-06-03T09:23:05Z</time>
      </trkpt>
      <trkpt lat="43.04601" lon="2.79706">
        <ele>225.45612</ele>
        <time>2016-06-03T09:23:11Z</time>
      </trkpt>
      <trkpt lat="43.04605" lon="2.79695">
        <ele>225.499986</ele>
        <time>2016-06-03T09:23:13Z</time>
      </trkpt>
      <trkpt lat="43.04609" lon="2.79675">
        <ele>226.758649</ele>
        <time>2016-06-03T09:23:15Z</time>
      </trkpt>
      <trkpt lat="43.04633" lon="2.79598">
        <ele>228.841369</ele>
        <time>2016-06-03T09:23:20Z</time>
      </trkpt>
      <trkpt lat="43.04652" lon="2.79547">
        <ele>230.443897</ele>
        <time>2016-06-03T09:23:23Z</time>
      </trkpt>
      <trkpt lat="43.04667" lon="2.79487">
        <ele>233.678489</ele>
        <time>2016-06-03T09:23:26Z</time>
      </trkpt>
      <trkpt lat="43.04686" lon="2.79393">
        <ele>235.909793</ele>
        <time>2016-06-03T09:23:30Z</time>
      </trkpt>
      <trkpt lat="43.04698" lon="2.79333">
        <ele>237.857397</ele>
        <time>2016-06-03T09:23:33Z</time>
      </trkpt>
      <trkpt lat="43.04712" lon="2.79274">
        <ele>241.946392</ele>
        <time>2016-06-03T09:23:36Z</time>
      </trkpt>
      <trkpt lat="43.04726" lon="2.79248">
        <ele>242.379272</ele>
        <time>2016-06-03T09:23:38Z</time>
      </trkpt>
      <trkpt lat="43.0474" lon="2.7921">
        <ele>244.377752</ele>
        <time>2016-06-03T09:23:41Z</time>
      </trkpt>
      <trkpt lat="43.04747" lon="2.79178">
        <ele>246.029493</ele>
        <time>2016-06-03T09:23:43Z</time>
      </trkpt>
      <trkpt lat="43.04747" lon="2.79124">
        <ele>247.588966</ele>
        <time>2016-06-03T09:23:46Z</time>
      </trkpt>
      <trkpt lat="43.04748" lon="2.79066">
        <ele>250.491481</ele>
        <time>2016-06-03T09:23:50Z</time>
      </trkpt>
      <trkpt lat="43.04749" lon="2.7902">
        <ele>252.329511</ele>
        <time>2016-06-03T09:23:54Z</time>
      </trkpt>
      <trkpt lat="43.04753" lon="2.79006">
        <ele>253.156959</ele>
        <time>2016-06-03T09:23:56Z</time>
      </trkpt>
      <trkpt lat="43.04774" lon="2.7898">
        <ele>253.818798</ele>
        <time>2016-06-03T09:24:00Z</time>
      </trkpt>
      <trkpt lat="43.04786" lon="2.78963">
        <ele>253.962705</ele>
        <time>2016-06-03T09:24:02Z</time>
      </trkpt>
      <trkpt lat="43.04798" lon="2.7895">
        <ele>254.519007</ele>
        <time>2016-06-03T09:24:04Z</time>
      </trkpt>
      <trkpt lat="43.04816" lon="2.78923">
        <ele>255.328621</ele>
        <time>2016-06-03T09:24:07Z</time>
      </trkpt>
      <trkpt lat="43.04828" lon="2.78902">
        <ele>256.109745</ele>
        <time>2016-06-03T09:24:10Z</time>
      </trkpt>
      <trkpt lat="43.04832" lon="2.78896">
        <ele>255.461901</ele>
        <time>2016-06-03T09:24:11Z</time>
      </trkpt>
      <trkpt lat="43.04831" lon="2.78899">
        <ele>255.52549</ele>
        <time>2016-06-03T09:24:12Z</time>
      </trkpt>
      <trkpt lat="43.04834" lon="2.78896">
        <ele>256.114602</ele>
        <time>2016-06-03T09:24:14Z</time>
      </trkpt>
      <trkpt lat="43.04836" lon="2.78896">
        <ele>256.270852</ele>
        <time>2016-06-03T09:24:22Z</time>
      </trkpt>
      <trkpt lat="43.04839" lon="2.78891">
        <ele>256.444641</ele>
        <time>2016-06-03T09:24:35Z</time>
      </trkpt>
      <trkpt lat="43.04839" lon="2.78891">
        <ele>256.318921</ele>
        <time>2016-06-03T09:25:25Z</time>
      </trkpt>
      <trkpt lat="43.04838" lon="2.78891">
        <ele>256.464752</ele>
        <time>2016-06-03T09:25:36Z</time>
      </trkpt>
      <trkpt lat="43.04837" lon="2.78891">
        <ele>256.654921</ele>
        <time>2016-06-03T09:25:41Z</time>
      </trkpt>
      <trkpt lat="43.04838" lon="2.7889">
        <ele>256.070133</ele>
        <time>2016-06-03T09:25:43Z</time>
      </trkpt>
      <trkpt lat="43.04839" lon="2.7889">
        <ele>256.665484</ele>
        <time>2016-06-03T09:25:53Z</time>
      </trkpt>
      <trkpt lat="43.04841" lon="2.78891">
        <ele>256.726243</ele>
        <time>2016-06-03T09:26:31Z</time>
      </trkpt>
      <trkpt lat="43.04841" lon="2.7889">
        <ele>256.527358</ele>
        <time>2016-06-03T09:26:36Z</time>
      </trkpt>
      <trkpt lat="43.04841" lon="2.78888">
        <ele>256.663809</ele>
        <time>2016-06-03T09:26:38Z</time>
      </trkpt>
      <trkpt lat="43.0484" lon="2.78888">
        <ele>256.500414</ele>
        <time>2016-06-03T09:26:41Z</time>
      </trkpt>
      <trkpt lat="43.0484" lon="2.78888">
        <ele>256.580596</ele>
        <time>2016-06-03T09:26:45Z</time>
      </trkpt>
      <trkpt lat="43.04839" lon="2.78889">
        <ele>256.777862</ele>
        <time>2016-06-03T09:26:55Z</time>
      </trkpt>
      <trkpt lat="43.0484" lon="2.78886">
        <ele>256.3046</ele>
        <time>2016-06-03T09:27:12Z</time>
      </trkpt>
      <trkpt lat="43.0485" lon="2.7887">
        <ele>257.05361</ele>
        <time>2016-06-03T09:27:15Z</time>
      </trkpt>
      <trkpt lat="43.04856" lon="2.78853">
        <ele>256.549288</ele>
        <time>2016-06-03T09:27:18Z</time>
      </trkpt>
      <trkpt lat="43.0486" lon="2.78842">
        <ele>256.642012</ele>
        <time>2016-06-03T09:27:20Z</time>
      </trkpt>
      <trkpt lat="43.04862" lon="2.78827">
        <ele>257.363833</ele>
        <time>2016-06-03T09:27:22Z</time>
      </trkpt>
      <trkpt lat="43.04861" lon="2.78815">
        <ele>257.319125</ele>
        <time>2016-06-03T09:27:24Z</time>
      </trkpt>
      <trkpt lat="43.04848" lon="2.78795">
        <ele>258.531078</ele>
        <time>2016-06-03T09:27:27Z</time>
      </trkpt>
      <trkpt lat="43.04838" lon="2.78779">
        <ele>258.812903</ele>
        <time>2016-06-03T09:27:30Z</time>
      </trkpt>
      <trkpt lat="43.04832" lon="2.78763">
        <ele>259.235395</ele>
        <time>2016-06-03T09:27:33Z</time>
      </trkpt>
      <trkpt lat="43.04835" lon="2.78726">
        <ele>259.478153</ele>
        <time>2016-06-03T09:27:36Z</time>
      </trkpt>
      <trkpt lat="43.04854" lon="2.78679">
        <ele>262.54008</ele>
        <time>2016-06-03T09:27:40Z</time>
      </trkpt>
      <trkpt lat="43.04864" lon="2.7865">
        <ele>264.215777</ele>
        <time>2016-06-03T09:27:43Z</time>
      </trkpt>
      <trkpt lat="43.04882" lon="2.78604">
        <ele>266.784444</ele>
        <time>2016-06-03T09:27:47Z</time>
      </trkpt>
      <trkpt lat="43.04888" lon="2.78581">
        <ele>267.410362</ele>
        <time>2016-06-03T09:27:49Z</time>
      </trkpt>
      <trkpt lat="43.0489" lon="2.78542">
        <ele>268.563172</ele>
        <time>2016-06-03T09:27:52Z</time>
      </trkpt>
      <trkpt lat="43.0489" lon="2.78472">
        <ele>267.036719</ele>
        <time>2016-06-03T09:27:56Z</time>
      </trkpt>
      <trkpt lat="43.04886" lon="2.78408">
        <ele>265.58746</ele>
        <time>2016-06-03T09:27:59Z</time>
      </trkpt>
      <trkpt lat="43.04885" lon="2.78321">
        <ele>262.603589</ele>
        <time>2016-06-03T09:28:03Z</time>
      </trkpt>
      <trkpt lat="43.04883" lon="2.78238">
        <ele>259.435943</ele>
        <time>2016-06-03T09:28:07Z</time>
      </trkpt>
      <trkpt lat="43.04883" lon="2.78204">
        <ele>257.865906</ele>
        <time>2016-06-03T09:28:09Z</time>
      </trkpt>
      <trkpt lat="43.04887" lon="2.78171">
        <ele>257.982927</ele>
        <time>2016-06-03T09:28:11Z</time>
      </trkpt>
      <trkpt lat="43.049" lon="2.78139">
        <ele>256.407437</ele>
        <time>2016-06-03T09:28:13Z</time>
      </trkpt>
      <trkpt lat="43.04918" lon="2.78107">
        <ele>254.749441</ele>
        <time>2016-06-03T09:28:15Z</time>
      </trkpt>
      <trkpt lat="43.04956" lon="2.78049">
        <ele>252.83955</ele>
        <time>2016-06-03T09:28:19Z</time>
      </trkpt>
      <trkpt lat="43.0499" lon="2.78011">
        <ele>252.730901</ele>
        <time>2016-06-03T09:28:22Z</time>
      </trkpt>
      <trkpt lat="43.05029" lon="2.77976">
        <ele>249.11905</ele>
        <time>2016-06-03T09:28:25Z</time>
      </trkpt>
      <trkpt lat="43.05063" lon="2.77944">
        <ele>246.561966</ele>
        <time>2016-06-03T09:28:28Z</time>
      </trkpt>
      <trkpt lat="43.05079" lon="2.77917">
        <ele>247.091824</ele>
        <time>2016-06-03T09:28:30Z</time>
      </trkpt>
      <trkpt lat="43.05092" lon="2.77883">
        <ele>246.255697</ele>
        <time>2016-06-03T09:28:32Z</time>
      </trkpt>
      <trkpt lat="43.05101" lon="2.77823">
        <ele>244.722805</ele>
        <time>2016-06-03T09:28:35Z</time>
      </trkpt>
      <trkpt lat="43.051" lon="2.77767">
        <ele>242.646851</ele>
        <time>2016-06-03T09:28:38Z</time>
      </trkpt>
      <trkpt lat="43.05094" lon="2.77732">
        <ele>242.400539</ele>
        <time>2016-06-03T09:28:40Z</time>
      </trkpt>
      <trkpt lat="43.05081" lon="2.77701">
        <ele>241.74166</ele>
        <time>2016-06-03T09:28:42Z</time>
      </trkpt>
      <trkpt lat="43.0506" lon="2.77666">
        <ele>238.739149</ele>
        <time>2016-06-03T09:28:45Z</time>
      </trkpt>
      <trkpt lat="43.05052" lon="2.77647">
        <ele>238.191086</ele>
        <time>2016-06-03T09:28:47Z</time>
      </trkpt>
      <trkpt lat="43.05054" lon="2.77625">
        <ele>237.184426</ele>
        <time>2016-06-03T09:28:49Z</time>
      </trkpt>
      <trkpt lat="43.05064" lon="2.77602">
        <ele>237.577445</ele>
        <time>2016-06-03T09:28:51Z</time>
      </trkpt>
      <trkpt lat="43.0508" lon="2.77577">
        <ele>236.463852</ele>
        <time>2016-06-03T09:28:53Z</time>
      </trkpt>
      <trkpt lat="43.05099" lon="2.77558">
        <ele>236.347468</ele>
        <time>2016-06-03T09:28:55Z</time>
      </trkpt>
      <trkpt lat="43.05122" lon="2.77545">
        <ele>235.180444</ele>
        <time>2016-06-03T09:28:57Z</time>
      </trkpt>
      <trkpt lat="43.05144" lon="2.77538">
        <ele>233.614228</ele>
        <time>2016-06-03T09:28:59Z</time>
      </trkpt>
      <trkpt lat="43.05159" lon="2.77525">
        <ele>232.612992</ele>
        <time>2016-06-03T09:29:01Z</time>
      </trkpt>
      <trkpt lat="43.05165" lon="2.77502">
        <ele>232.102114</ele>
        <time>2016-06-03T09:29:03Z</time>
      </trkpt>
      <trkpt lat="43.0516" lon="2.77472">
        <ele>232.779641</ele>
        <time>2016-06-03T09:29:05Z</time>
      </trkpt>
      <trkpt lat="43.05143" lon="2.77408">
        <ele>229.282967</ele>
        <time>2016-06-03T09:29:09Z</time>
      </trkpt>
      <trkpt lat="43.05128" lon="2.77381">
        <ele>229.741238</ele>
        <time>2016-06-03T09:29:11Z</time>
      </trkpt>
      <trkpt lat="43.05081" lon="2.77345">
        <ele>226.217678</ele>
        <time>2016-06-03T09:29:15Z</time>
      </trkpt>
      <trkpt lat="43.05063" lon="2.77302">
        <ele>225.306431</ele>
        <time>2016-06-03T09:29:18Z</time>
      </trkpt>
      <trkpt lat="43.05052" lon="2.77229">
        <ele>224.565595</ele>
        <time>2016-06-03T09:29:22Z</time>
      </trkpt>
      <trkpt lat="43.05037" lon="2.77169">
        <ele>221.675507</ele>
        <time>2016-06-03T09:29:25Z</time>
      </trkpt>
      <trkpt lat="43.05016" lon="2.771">
        <ele>219.989225</ele>
        <time>2016-06-03T09:29:29Z</time>
      </trkpt>
      <trkpt lat="43.05018" lon="2.77046">
        <ele>218.141398</ele>
        <time>2016-06-03T09:29:32Z</time>
      </trkpt>
      <trkpt lat="43.05014" lon="2.77013">
        <ele>217.455558</ele>
        <time>2016-06-03T09:29:34Z</time>
      </trkpt>
      <trkpt lat="43.05003" lon="2.76978">
        <ele>217.166051</ele>
        <time>2016-06-03T09:29:36Z</time>
      </trkpt>
      <trkpt lat="43.04973" lon="2.76904">
        <ele>212.025275</ele>
        <time>2016-06-03T09:29:40Z</time>
      </trkpt>
      <trkpt lat="43.04959" lon="2.76867">
        <ele>209.797221</ele>
        <time>2016-06-03T09:29:42Z</time>
      </trkpt>
      <trkpt lat="43.04953" lon="2.76835">
        <ele>209.514325</ele>
        <time>2016-06-03T09:29:44Z</time>
      </trkpt>
      <trkpt lat="43.04952" lon="2.768">
        <ele>209.212994</ele>
        <time>2016-06-03T09:29:46Z</time>
      </trkpt>
      <trkpt lat="43.04965" lon="2.76742">
        <ele>206.5378</ele>
        <time>2016-06-03T09:29:49Z</time>
      </trkpt>
      <trkpt lat="43.04974" lon="2.76702">
        <ele>204.494709</ele>
        <time>2016-06-03T09:29:51Z</time>
      </trkpt>
      <trkpt lat="43.04979" lon="2.76656">
        <ele>204.462121</ele>
        <time>2016-06-03T09:29:53Z</time>
      </trkpt>
      <trkpt lat="43.04977" lon="2.76584">
        <ele>202.462323</ele>
        <time>2016-06-03T09:29:56Z</time>
      </trkpt>
      <trkpt lat="43.04976" lon="2.7654">
        <ele>200.391841</ele>
        <time>2016-06-03T09:29:58Z</time>
      </trkpt>
      <trkpt lat="43.0498" lon="2.765">
        <ele>201.935172</ele>
        <time>2016-06-03T09:30:00Z</time>
      </trkpt>
      <trkpt lat="43.04989" lon="2.76456">
        <ele>201.446589</ele>
        <time>2016-06-03T09:30:02Z</time>
      </trkpt>
      <trkpt lat="43.05005" lon="2.76413">
        <ele>200.890266</ele>
        <time>2016-06-03T09:30:04Z</time>
      </trkpt>
      <trkpt lat="43.05022" lon="2.76346">
        <ele>200.311012</ele>
        <time>2016-06-03T09:30:07Z</time>
      </trkpt>
      <trkpt lat="43.05035" lon="2.7627">
        <ele>197.921595</ele>
        <time>2016-06-03T09:30:10Z</time>
      </trkpt>
      <trkpt lat="43.05048" lon="2.7619">
        <ele>196.80575</ele>
        <time>2016-06-03T09:30:13Z</time>
      </trkpt>
      <trkpt lat="43.05058" lon="2.7614">
        <ele>196.696919</ele>
        <time>2016-06-03T09:30:15Z</time>
      </trkpt>
      <trkpt lat="43.0508" lon="2.76065">
        <ele>195.080127</ele>
        <time>2016-06-03T09:30:17Z</time>
      </trkpt>
      <trkpt lat="43.05112" lon="2.75952">
        <ele>193.193839</ele>
        <time>2016-06-03T09:30:21Z</time>
      </trkpt>
      <trkpt lat="43.05139" lon="2.7585">
        <ele>189.539288</ele>
        <time>2016-06-03T09:30:25Z</time>
      </trkpt>
      <trkpt lat="43.05149" lon="2.75803">
        <ele>191.037843</ele>
        <time>2016-06-03T09:30:27Z</time>
      </trkpt>
      <trkpt lat="43.05155" lon="2.75728">
        <ele>187.42705</ele>
        <time>2016-06-03T09:30:30Z</time>
      </trkpt>
      <trkpt lat="43.05158" lon="2.75622">
        <ele>185.358486</ele>
        <time>2016-06-03T09:30:34Z</time>
      </trkpt>
      <trkpt lat="43.05163" lon="2.75486">
        <ele>186.96183</ele>
        <time>2016-06-03T09:30:39Z</time>
      </trkpt>
      <trkpt lat="43.05169" lon="2.75351">
        <ele>185.228928</ele>
        <time>2016-06-03T09:30:44Z</time>
      </trkpt>
      <trkpt lat="43.05173" lon="2.75257">
        <ele>183.385211</ele>
        <time>2016-06-03T09:30:48Z</time>
      </trkpt>
      <trkpt lat="43.05169" lon="2.75215">
        <ele>182.341593</ele>
        <time>2016-06-03T09:30:50Z</time>
      </trkpt>
      <trkpt lat="43.05156" lon="2.75178">
        <ele>182.437892</ele>
        <time>2016-06-03T09:30:52Z</time>
      </trkpt>
      <trkpt lat="43.05112" lon="2.75104">
        <ele>179.717953</ele>
        <time>2016-06-03T09:30:56Z</time>
      </trkpt>
      <trkpt lat="43.05082" lon="2.75052">
        <ele>178.03209</ele>
        <time>2016-06-03T09:30:59Z</time>
      </trkpt>
      <trkpt lat="43.05071" lon="2.7502">
        <ele>176.638095</ele>
        <time>2016-06-03T09:31:01Z</time>
      </trkpt>
      <trkpt lat="43.05071" lon="2.74989">
        <ele>177.626364</ele>
        <time>2016-06-03T09:31:03Z</time>
      </trkpt>
      <trkpt lat="43.05079" lon="2.74954">
        <ele>176.32866</ele>
        <time>2016-06-03T09:31:05Z</time>
      </trkpt>
      <trkpt lat="43.05093" lon="2.74911">
        <ele>175.13004</ele>
        <time>2016-06-03T09:31:08Z</time>
      </trkpt>
      <trkpt lat="43.05095" lon="2.74886">
        <ele>177.700637</ele>
        <time>2016-06-03T09:31:10Z</time>
      </trkpt>
      <trkpt lat="43.05087" lon="2.74859">
        <ele>176.112781</ele>
        <time>2016-06-03T09:31:12Z</time>
      </trkpt>
      <trkpt lat="43.05075" lon="2.74831">
        <ele>177.035092</ele>
        <time>2016-06-03T09:31:14Z</time>
      </trkpt>
      <trkpt lat="43.05034" lon="2.7479">
        <ele>178.773249</ele>
        <time>2016-06-03T09:31:17Z</time>
      </trkpt>
      <trkpt lat="43.04989" lon="2.74752">
        <ele>178.032697</ele>
        <time>2016-06-03T09:31:20Z</time>
      </trkpt>
      <trkpt lat="43.04927" lon="2.74702">
        <ele>179.436555</ele>
        <time>2016-06-03T09:31:24Z</time>
      </trkpt>
      <trkpt lat="43.04863" lon="2.74653">
        <ele>178.736213</ele>
        <time>2016-06-03T09:31:28Z</time>
      </trkpt>
      <trkpt lat="43.04807" lon="2.74609">
        <ele>178.591329</ele>
        <time>2016-06-03T09:31:33Z</time>
      </trkpt>
      <trkpt lat="43.04794" lon="2.74592">
        <ele>178.972736</ele>
        <time>2016-06-03T09:31:35Z</time>
      </trkpt>
      <trkpt lat="43.04787" lon="2.74568">
        <ele>179.511355</ele>
        <time>2016-06-03T09:31:37Z</time>
      </trkpt>
      <trkpt lat="43.04789" lon="2.74532">
        <ele>179.673633</ele>
        <time>2016-06-03T09:31:39Z</time>
      </trkpt>
      <trkpt lat="43.04788" lon="2.74494">
        <ele>180.421204</ele>
        <time>2016-06-03T09:31:42Z</time>
      </trkpt>
      <trkpt lat="43.04794" lon="2.74468">
        <ele>180.894565</ele>
        <time>2016-06-03T09:31:45Z</time>
      </trkpt>
      <trkpt lat="43.048" lon="2.74448">
        <ele>181.742528</ele>
        <time>2016-06-03T09:31:47Z</time>
      </trkpt>
      <trkpt lat="43.04807" lon="2.74434">
        <ele>182.721988</ele>
        <time>2016-06-03T09:31:49Z</time>
      </trkpt>
      <trkpt lat="43.04828" lon="2.74431">
        <ele>183.925871</ele>
        <time>2016-06-03T09:31:52Z</time>
      </trkpt>
      <trkpt lat="43.04837" lon="2.74437">
        <ele>184.066549</ele>
        <time>2016-06-03T09:31:53Z</time>
      </trkpt>
      <trkpt lat="43.04849" lon="2.74435">
        <ele>184.808706</ele>
        <time>2016-06-03T09:31:55Z</time>
      </trkpt>
      <trkpt lat="43.04862" lon="2.74424">
        <ele>185.102412</ele>
        <time>2016-06-03T09:31:57Z</time>
      </trkpt>
      <trkpt lat="43.04871" lon="2.74404">
        <ele>185.122133</ele>
        <time>2016-06-03T09:31:59Z</time>
      </trkpt>
      <trkpt lat="43.04878" lon="2.74382">
        <ele>185.607013</ele>
        <time>2016-06-03T09:32:02Z</time>
      </trkpt>
      <trkpt lat="43.04877" lon="2.74378">
        <ele>185.936732</ele>
        <time>2016-06-03T09:32:03Z</time>
      </trkpt>
      <trkpt lat="43.04882" lon="2.74371">
        <ele>185.581567</ele>
        <time>2016-06-03T09:32:05Z</time>
      </trkpt>
      <trkpt lat="43.0489" lon="2.74367">
        <ele>185.616401</ele>
        <time>2016-06-03T09:32:07Z</time>
      </trkpt>
      <trkpt lat="43.04896" lon="2.74359">
        <ele>185.309312</ele>
        <time>2016-06-03T09:32:09Z</time>
      </trkpt>
      <trkpt lat="43.04903" lon="2.74337">
        <ele>185.01136</ele>
        <time>2016-06-03T09:32:12Z</time>
      </trkpt>
      <trkpt lat="43.04906" lon="2.74321">
        <ele>183.936271</ele>
        <time>2016-06-03T09:32:14Z</time>
      </trkpt>
      <trkpt lat="43.04902" lon="2.743">
        <ele>184.605371</ele>
        <time>2016-06-03T09:32:16Z</time>
      </trkpt>
      <trkpt lat="43.04898" lon="2.74263">
        <ele>183.259664</ele>
        <time>2016-06-03T09:32:19Z</time>
      </trkpt>
      <trkpt lat="43.04894" lon="2.74222">
        <ele>181.282547</ele>
        <time>2016-06-03T09:32:22Z</time>
      </trkpt>
      <trkpt lat="43.04894" lon="2.74196">
        <ele>179.81209</ele>
        <time>2016-06-03T09:32:24Z</time>
      </trkpt>
      <trkpt lat="43.04901" lon="2.74164">
        <ele>179.328902</ele>
        <time>2016-06-03T09:32:26Z</time>
      </trkpt>
      <trkpt lat="43.04925" lon="2.74113">
        <ele>176.961083</ele>
        <time>2016-06-03T09:32:29Z</time>
      </trkpt>
      <trkpt lat="43.04945" lon="2.74078">
        <ele>176.587752</ele>
        <time>2016-06-03T09:32:31Z</time>
      </trkpt>
      <trkpt lat="43.04981" lon="2.74035">
        <ele>174.987996</ele>
        <time>2016-06-03T09:32:34Z</time>
      </trkpt>
      <trkpt lat="43.05009" lon="2.74009">
        <ele>176.015121</ele>
        <time>2016-06-03T09:32:36Z</time>
      </trkpt>
      <trkpt lat="43.05094" lon="2.73954">
        <ele>174.400036</ele>
        <time>2016-06-03T09:32:41Z</time>
      </trkpt>
      <trkpt lat="43.05136" lon="2.73924">
        <ele>173.63343</ele>
        <time>2016-06-03T09:32:44Z</time>
      </trkpt>
      <trkpt lat="43.05159" lon="2.739">
        <ele>175.289338</ele>
        <time>2016-06-03T09:32:46Z</time>
      </trkpt>
      <trkpt lat="43.05181" lon="2.73868">
        <ele>173.879368</ele>
        <time>2016-06-03T09:32:48Z</time>
      </trkpt>
      <trkpt lat="43.0521" lon="2.73805">
        <ele>167.151957</ele>
        <time>2016-06-03T09:32:51Z</time>
      </trkpt>
      <trkpt lat="43.05235" lon="2.7375">
        <ele>163.524384</ele>
        <time>2016-06-03T09:32:54Z</time>
      </trkpt>
      <trkpt lat="43.05254" lon="2.73725">
        <ele>163.640096</ele>
        <time>2016-06-03T09:32:56Z</time>
      </trkpt>
      <trkpt lat="43.05277" lon="2.7371">
        <ele>163.967546</ele>
        <time>2016-06-03T09:32:58Z</time>
      </trkpt>
      <trkpt lat="43.0531" lon="2.73679">
        <ele>168.043344</ele>
        <time>2016-06-03T09:33:01Z</time>
      </trkpt>
      <trkpt lat="43.05322" lon="2.73651">
        <ele>169.778118</ele>
        <time>2016-06-03T09:33:03Z</time>
      </trkpt>
      <trkpt lat="43.05333" lon="2.73591">
        <ele>168.398511</ele>
        <time>2016-06-03T09:33:06Z</time>
      </trkpt>
      <trkpt lat="43.05343" lon="2.73551">
        <ele>169.169197</ele>
        <time>2016-06-03T09:33:08Z</time>
      </trkpt>
      <trkpt lat="43.05361" lon="2.73515">
        <ele>168.320771</ele>
        <time>2016-06-03T09:33:10Z</time>
      </trkpt>
      <trkpt lat="43.05397" lon="2.7346">
        <ele>167.697739</ele>
        <time>2016-06-03T09:33:13Z</time>
      </trkpt>
      <trkpt lat="43.05458" lon="2.73358">
        <ele>167.755844</ele>
        <time>2016-06-03T09:33:18Z</time>
      </trkpt>
      <trkpt lat="43.05508" lon="2.73265">
        <ele>167.05507</ele>
        <time>2016-06-03T09:33:22Z</time>
      </trkpt>
      <trkpt lat="43.05543" lon="2.73204">
        <ele>164.843176</ele>
        <time>2016-06-03T09:33:25Z</time>
      </trkpt>
      <trkpt lat="43.05576" lon="2.73141">
        <ele>161.134612</ele>
        <time>2016-06-03T09:33:29Z</time>
      </trkpt>
      <trkpt lat="43.05592" lon="2.73125">
        <ele>161.691385</ele>
        <time>2016-06-03T09:33:31Z</time>
      </trkpt>
      <trkpt lat="43.05611" lon="2.7312">
        <ele>161.320424</ele>
        <time>2016-06-03T09:33:33Z</time>
      </trkpt>
      <trkpt lat="43.05633" lon="2.73103">
        <ele>162.571271</ele>
        <time>2016-06-03T09:33:35Z</time>
      </trkpt>
      <trkpt lat="43.05655" lon="2.73073">
        <ele>163.686598</ele>
        <time>2016-06-03T09:33:37Z</time>
      </trkpt>
      <trkpt lat="43.05703" lon="2.72997">
        <ele>162.647491</ele>
        <time>2016-06-03T09:33:41Z</time>
      </trkpt>
      <trkpt lat="43.05749" lon="2.72923">
        <ele>162.208746</ele>
        <time>2016-06-03T09:33:45Z</time>
      </trkpt>
      <trkpt lat="43.05788" lon="2.7287">
        <ele>161.058989</ele>
        <time>2016-06-03T09:33:48Z</time>
      </trkpt>
      <trkpt lat="43.05817" lon="2.72839">
        <ele>161.408243</ele>
        <time>2016-06-03T09:33:50Z</time>
      </trkpt>
      <trkpt lat="43.0586" lon="2.72805">
        <ele>159.736982</ele>
        <time>2016-06-03T09:33:53Z</time>
      </trkpt>
      <trkpt lat="43.05884" lon="2.72779">
        <ele>160.026543</ele>
        <time>2016-06-03T09:33:55Z</time>
      </trkpt>
      <trkpt lat="43.05919" lon="2.72725">
        <ele>158.807752</ele>
        <time>2016-06-03T09:33:58Z</time>
      </trkpt>
      <trkpt lat="43.05966" lon="2.72679">
        <ele>157.449047</ele>
        <time>2016-06-03T09:34:01Z</time>
      </trkpt>
      <trkpt lat="43.06017" lon="2.72637">
        <ele>157.630321</ele>
        <time>2016-06-03T09:34:04Z</time>
      </trkpt>
      <trkpt lat="43.06083" lon="2.72594">
        <ele>156.935473</ele>
        <time>2016-06-03T09:34:08Z</time>
      </trkpt>
      <trkpt lat="43.0613" lon="2.72559">
        <ele>156.422849</ele>
        <time>2016-06-03T09:34:11Z</time>
      </trkpt>
      <trkpt lat="43.06176" lon="2.7253">
        <ele>155.958383</ele>
        <time>2016-06-03T09:34:14Z</time>
      </trkpt>
      <trkpt lat="43.06209" lon="2.72512">
        <ele>156.154516</ele>
        <time>2016-06-03T09:34:16Z</time>
      </trkpt>
      <trkpt lat="43.06252" lon="2.72474">
        <ele>155.975795</ele>
        <time>2016-06-03T09:34:19Z</time>
      </trkpt>
      <trkpt lat="43.06278" lon="2.72457">
        <ele>155.667908</ele>
        <time>2016-06-03T09:34:21Z</time>
      </trkpt>
      <trkpt lat="43.06323" lon="2.72446">
        <ele>156.007674</ele>
        <time>2016-06-03T09:34:24Z</time>
      </trkpt>
      <trkpt lat="43.06376" lon="2.72429">
        <ele>155.173096</ele>
        <time>2016-06-03T09:34:27Z</time>
      </trkpt>
      <trkpt lat="43.06413" lon="2.72414">
        <ele>155.942159</ele>
        <time>2016-06-03T09:34:29Z</time>
      </trkpt>
      <trkpt lat="43.06465" lon="2.7239">
        <ele>151.75168</ele>
        <time>2016-06-03T09:34:32Z</time>
      </trkpt>
      <trkpt lat="43.06522" lon="2.72372">
        <ele>150.84632</ele>
        <time>2016-06-03T09:34:35Z</time>
      </trkpt>
      <trkpt lat="43.06581" lon="2.7236">
        <ele>149.946904</ele>
        <time>2016-06-03T09:34:38Z</time>
      </trkpt>
      <trkpt lat="43.0664" lon="2.72352">
        <ele>146.934479</ele>
        <time>2016-06-03T09:34:41Z</time>
      </trkpt>
      <trkpt lat="43.06696" lon="2.72337">
        <ele>149.526134</ele>
        <time>2016-06-03T09:34:44Z</time>
      </trkpt>
      <trkpt lat="43.0676" lon="2.72313">
        <ele>146.116438</ele>
        <time>2016-06-03T09:34:47Z</time>
      </trkpt>
      <trkpt lat="43.06847" lon="2.72288">
        <ele>147.49006</ele>
        <time>2016-06-03T09:34:51Z</time>
      </trkpt>
      <trkpt lat="43.06937" lon="2.72267">
        <ele>143.630292</ele>
        <time>2016-06-03T09:34:55Z</time>
      </trkpt>
      <trkpt lat="43.06992" lon="2.72258">
        <ele>139.673201</ele>
        <time>2016-06-03T09:34:58Z</time>
      </trkpt>
      <trkpt lat="43.07034" lon="2.72252">
        <ele>139.765674</ele>
        <time>2016-06-03T09:35:01Z</time>
      </trkpt>
      <trkpt lat="43.07058" lon="2.7226">
        <ele>140.90894</ele>
        <time>2016-06-03T09:35:03Z</time>
      </trkpt>
      <trkpt lat="43.07082" lon="2.72278">
        <ele>141.751541</ele>
        <time>2016-06-03T09:35:05Z</time>
      </trkpt>
      <trkpt lat="43.0711" lon="2.72291">
        <ele>143.592995</ele>
        <time>2016-06-03T09:35:07Z</time>
      </trkpt>
      <trkpt lat="43.07145" lon="2.72296">
        <ele>141.623408</ele>
        <time>2016-06-03T09:35:09Z</time>
      </trkpt>
      <trkpt lat="43.0719" lon="2.72295">
        <ele>143.113982</ele>
        <time>2016-06-03T09:35:11Z</time>
      </trkpt>
      <trkpt lat="43.07253" lon="2.72295">
        <ele>139.839241</ele>
        <time>2016-06-03T09:35:14Z</time>
      </trkpt>
      <trkpt lat="43.07291" lon="2.72296">
        <ele>139.731328</ele>
        <time>2016-06-03T09:35:16Z</time>
      </trkpt>
      <trkpt lat="43.07343" lon="2.72306">
        <ele>140.026078</ele>
        <time>2016-06-03T09:35:19Z</time>
      </trkpt>
      <trkpt lat="43.07377" lon="2.72319">
        <ele>139.175202</ele>
        <time>2016-06-03T09:35:21Z</time>
      </trkpt>
      <trkpt lat="43.07454" lon="2.72329">
        <ele>141.359511</ele>
        <time>2016-06-03T09:35:25Z</time>
      </trkpt>
      <trkpt lat="43.07521" lon="2.72334">
        <ele>139.398302</ele>
        <time>2016-06-03T09:35:28Z</time>
      </trkpt>
      <trkpt lat="43.07582" lon="2.72335">
        <ele>138.965139</ele>
        <time>2016-06-03T09:35:31Z</time>
      </trkpt>
      <trkpt lat="43.07645" lon="2.72339">
        <ele>138.785106</ele>
        <time>2016-06-03T09:35:34Z</time>
      </trkpt>
      <trkpt lat="43.07703" lon="2.72343">
        <ele>136.830621</ele>
        <time>2016-06-03T09:35:37Z</time>
      </trkpt>
      <trkpt lat="43.07749" lon="2.72346">
        <ele>134.387412</ele>
        <time>2016-06-03T09:35:40Z</time>
      </trkpt>
      <trkpt lat="43.07797" lon="2.72353">
        <ele>135.360696</ele>
        <time>2016-06-03T09:35:43Z</time>
      </trkpt>
      <trkpt lat="43.07847" lon="2.72368">
        <ele>137.234327</ele>
        <time>2016-06-03T09:35:46Z</time>
      </trkpt>
      <trkpt lat="43.07899" lon="2.72385">
        <ele>137.2486</ele>
        <time>2016-06-03T09:35:49Z</time>
      </trkpt>
      <trkpt lat="43.07944" lon="2.72381">
        <ele>138.332071</ele>
        <time>2016-06-03T09:35:52Z</time>
      </trkpt>
      <trkpt lat="43.07975" lon="2.72366">
        <ele>139.067816</ele>
        <time>2016-06-03T09:35:54Z</time>
      </trkpt>
      <trkpt lat="43.08007" lon="2.72359">
        <ele>138.413388</ele>
        <time>2016-06-03T09:35:56Z</time>
      </trkpt>
      <trkpt lat="43.08065" lon="2.72369">
        <ele>141.542854</ele>
        <time>2016-06-03T09:35:59Z</time>
      </trkpt>
      <trkpt lat="43.08104" lon="2.72375">
        <ele>142.838623</ele>
        <time>2016-06-03T09:36:01Z</time>
      </trkpt>
      <trkpt lat="43.08187" lon="2.7239">
        <ele>145.693364</ele>
        <time>2016-06-03T09:36:05Z</time>
      </trkpt>
      <trkpt lat="43.08281" lon="2.724">
        <ele>150.100862</ele>
        <time>2016-06-03T09:36:10Z</time>
      </trkpt>
      <trkpt lat="43.08342" lon="2.72403">
        <ele>147.566625</ele>
        <time>2016-06-03T09:36:13Z</time>
      </trkpt>
      <trkpt lat="43.08426" lon="2.72409">
        <ele>144.204798</ele>
        <time>2016-06-03T09:36:17Z</time>
      </trkpt>
      <trkpt lat="43.08495" lon="2.7242">
        <ele>143.966209</ele>
        <time>2016-06-03T09:36:20Z</time>
      </trkpt>
      <trkpt lat="43.08595" lon="2.72454">
        <ele>137.737894</ele>
        <time>2016-06-03T09:36:24Z</time>
      </trkpt>
      <trkpt lat="43.08702" lon="2.72488">
        <ele>138.170764</ele>
        <time>2016-06-03T09:36:28Z</time>
      </trkpt>
      <trkpt lat="43.08816" lon="2.72527">
        <ele>140.355984</ele>
        <time>2016-06-03T09:36:33Z</time>
      </trkpt>
      <trkpt lat="43.08901" lon="2.72551">
        <ele>137.463467</ele>
        <time>2016-06-03T09:36:37Z</time>
      </trkpt>
      <trkpt lat="43.08996" lon="2.72579">
        <ele>133.231167</ele>
        <time>2016-06-03T09:36:41Z</time>
      </trkpt>
      <trkpt lat="43.09087" lon="2.72607">
        <ele>127.726467</ele>
        <time>2016-06-03T09:36:45Z</time>
      </trkpt>
      <trkpt lat="43.09179" lon="2.72631">
        <ele>126.818569</ele>
        <time>2016-06-03T09:36:49Z</time>
      </trkpt>
      <trkpt lat="43.09284" lon="2.72661">
        <ele>124.230007</ele>
        <time>2016-06-03T09:36:53Z</time>
      </trkpt>
      <trkpt lat="43.09426" lon="2.72698">
        <ele>121.390896</ele>
        <time>2016-06-03T09:36:58Z</time>
      </trkpt>
      <trkpt lat="43.09495" lon="2.7272">
        <ele>117.982632</ele>
        <time>2016-06-03T09:37:01Z</time>
      </trkpt>
      <trkpt lat="43.09545" lon="2.72734">
        <ele>115.263454</ele>
        <time>2016-06-03T09:37:04Z</time>
      </trkpt>
      <trkpt lat="43.0957" lon="2.72737">
        <ele>113.758266</ele>
        <time>2016-06-03T09:37:06Z</time>
      </trkpt>
      <trkpt lat="43.09595" lon="2.72727">
        <ele>114.891445</ele>
        <time>2016-06-03T09:37:08Z</time>
      </trkpt>
      <trkpt lat="43.09662" lon="2.7267">
        <ele>115.485989</ele>
        <time>2016-06-03T09:37:13Z</time>
      </trkpt>
      <trkpt lat="43.09726" lon="2.72617">
        <ele>105.090002</ele>
        <time>2016-06-03T09:37:18Z</time>
      </trkpt>
      <trkpt lat="43.09763" lon="2.72586">
        <ele>103.741119</ele>
        <time>2016-06-03T09:37:22Z</time>
      </trkpt>
      <trkpt lat="43.09775" lon="2.7257">
        <ele>102.043826</ele>
        <time>2016-06-03T09:37:25Z</time>
      </trkpt>
      <trkpt lat="43.09779" lon="2.72557">
        <ele>102.237322</ele>
        <time>2016-06-03T09:37:28Z</time>
      </trkpt>
      <trkpt lat="43.09777" lon="2.72542">
        <ele>101.179324</ele>
        <time>2016-06-03T09:37:30Z</time>
      </trkpt>
      <trkpt lat="43.09761" lon="2.72508">
        <ele>103.499235</ele>
        <time>2016-06-03T09:37:33Z</time>
      </trkpt>
      <trkpt lat="43.0975" lon="2.72474">
        <ele>102.330371</ele>
        <time>2016-06-03T09:37:35Z</time>
      </trkpt>
      <trkpt lat="43.09732" lon="2.72389">
        <ele>101.475345</ele>
        <time>2016-06-03T09:37:39Z</time>
      </trkpt>
      <trkpt lat="43.09708" lon="2.72303">
        <ele>102.010139</ele>
        <time>2016-06-03T09:37:43Z</time>
      </trkpt>
      <trkpt lat="43.09691" lon="2.72257">
        <ele>101.291983</ele>
        <time>2016-06-03T09:37:45Z</time>
      </trkpt>
      <trkpt lat="43.0966" lon="2.72161">
        <ele>102.212298</ele>
        <time>2016-06-03T09:37:49Z</time>
      </trkpt>
      <trkpt lat="43.09635" lon="2.72089">
        <ele>96.700962</ele>
        <time>2016-06-03T09:37:52Z</time>
      </trkpt>
      <trkpt lat="43.0961" lon="2.72023">
        <ele>98.071791</ele>
        <time>2016-06-03T09:37:55Z</time>
      </trkpt>
      <trkpt lat="43.09569" lon="2.7191">
        <ele>96.679229</ele>
        <time>2016-06-03T09:38:00Z</time>
      </trkpt>
      <trkpt lat="43.09546" lon="2.71842">
        <ele>99.762333</ele>
        <time>2016-06-03T09:38:03Z</time>
      </trkpt>
      <trkpt lat="43.0952" lon="2.71768">
        <ele>100.816869</ele>
        <time>2016-06-03T09:38:06Z</time>
      </trkpt>
      <trkpt lat="43.09483" lon="2.71668">
        <ele>100.681938</ele>
        <time>2016-06-03T09:38:10Z</time>
      </trkpt>
      <trkpt lat="43.09456" lon="2.71588">
        <ele>100.271813</ele>
        <time>2016-06-03T09:38:13Z</time>
      </trkpt>
      <trkpt lat="43.09425" lon="2.71511">
        <ele>101.486577</ele>
        <time>2016-06-03T09:38:16Z</time>
      </trkpt>
      <trkpt lat="43.09383" lon="2.71399">
        <ele>102.433624</ele>
        <time>2016-06-03T09:38:20Z</time>
      </trkpt>
      <trkpt lat="43.09348" lon="2.71317">
        <ele>102.733625</ele>
        <time>2016-06-03T09:38:23Z</time>
      </trkpt>
      <trkpt lat="43.09293" lon="2.71182">
        <ele>102.41101</ele>
        <time>2016-06-03T09:38:28Z</time>
      </trkpt>
      <trkpt lat="43.0925" lon="2.71078">
        <ele>103.114624</ele>
        <time>2016-06-03T09:38:32Z</time>
      </trkpt>
      <trkpt lat="43.09229" lon="2.71028">
        <ele>101.219476</ele>
        <time>2016-06-03T09:38:34Z</time>
      </trkpt>
      <trkpt lat="43.0919" lon="2.70956">
        <ele>101.543479</ele>
        <time>2016-06-03T09:38:37Z</time>
      </trkpt>
      <trkpt lat="43.0912" lon="2.70865">
        <ele>100.791943</ele>
        <time>2016-06-03T09:38:41Z</time>
      </trkpt>
      <trkpt lat="43.09035" lon="2.70757">
        <ele>99.870178</ele>
        <time>2016-06-03T09:38:46Z</time>
      </trkpt>
      <trkpt lat="43.08968" lon="2.70671">
        <ele>98.289679</ele>
        <time>2016-06-03T09:38:50Z</time>
      </trkpt>
      <trkpt lat="43.0891" lon="2.70596">
        <ele>99.180171</ele>
        <time>2016-06-03T09:38:54Z</time>
      </trkpt>
      <trkpt lat="43.08873" lon="2.70548">
        <ele>98.824853</ele>
        <time>2016-06-03T09:38:57Z</time>
      </trkpt>
      <trkpt lat="43.08836" lon="2.705">
        <ele>98.680614</ele>
        <time>2016-06-03T09:39:02Z</time>
      </trkpt>
      <trkpt lat="43.08806" lon="2.70458">
        <ele>98.848866</ele>
        <time>2016-06-03T09:39:05Z</time>
      </trkpt>
      <trkpt lat="43.08777" lon="2.70424">
        <ele>99.01624</ele>
        <time>2016-06-03T09:39:09Z</time>
      </trkpt>
      <trkpt lat="43.08719" lon="2.7035">
        <ele>98.388373</ele>
        <time>2016-06-03T09:39:15Z</time>
      </trkpt>
      <trkpt lat="43.08689" lon="2.70317">
        <ele>99.07341</ele>
        <time>2016-06-03T09:39:18Z</time>
      </trkpt>
      <trkpt lat="43.08666" lon="2.70284">
        <ele>98.762985</ele>
        <time>2016-06-03T09:39:21Z</time>
      </trkpt>
      <trkpt lat="43.0865" lon="2.70264">
        <ele>100.146815</ele>
        <time>2016-06-03T09:39:23Z</time>
      </trkpt>
      <trkpt lat="43.0863" lon="2.70233">
        <ele>99.519494</ele>
        <time>2016-06-03T09:39:26Z</time>
      </trkpt>
      <trkpt lat="43.08607" lon="2.70207">
        <ele>100.10399</ele>
        <time>2016-06-03T09:39:29Z</time>
      </trkpt>
      <trkpt lat="43.08585" lon="2.70175">
        <ele>99.667794</ele>
        <time>2016-06-03T09:39:32Z</time>
      </trkpt>
      <trkpt lat="43.0856" lon="2.70145">
        <ele>100.187272</ele>
        <time>2016-06-03T09:39:35Z</time>
      </trkpt>
      <trkpt lat="43.08538" lon="2.70114">
        <ele>99.773321</ele>
        <time>2016-06-03T09:39:38Z</time>
      </trkpt>
      <trkpt lat="43.08512" lon="2.70087">
        <ele>99.426207</ele>
        <time>2016-06-03T09:39:41Z</time>
      </trkpt>
      <trkpt lat="43.08491" lon="2.70059">
        <ele>99.099396</ele>
        <time>2016-06-03T09:39:44Z</time>
      </trkpt>
      <trkpt lat="43.08479" lon="2.70043">
        <ele>98.861685</ele>
        <time>2016-06-03T09:39:46Z</time>
      </trkpt>
      <trkpt lat="43.0847" lon="2.70025">
        <ele>98.727821</ele>
        <time>2016-06-03T09:39:48Z</time>
      </trkpt>
      <trkpt lat="43.08463" lon="2.70004">
        <ele>98.750755</ele>
        <time>2016-06-03T09:39:50Z</time>
      </trkpt>
      <trkpt lat="43.08459" lon="2.6997">
        <ele>98.250966</ele>
        <time>2016-06-03T09:39:53Z</time>
      </trkpt>
      <trkpt lat="43.08456" lon="2.69949">
        <ele>98.311103</ele>
        <time>2016-06-03T09:39:55Z</time>
      </trkpt>
      <trkpt lat="43.08458" lon="2.69918">
        <ele>98.084071</ele>
        <time>2016-06-03T09:39:58Z</time>
      </trkpt>
      <trkpt lat="43.08461" lon="2.6988">
        <ele>97.428263</ele>
        <time>2016-06-03T09:40:01Z</time>
      </trkpt>
      <trkpt lat="43.08464" lon="2.69854">
        <ele>96.513348</ele>
        <time>2016-06-03T09:40:03Z</time>
      </trkpt>
      <trkpt lat="43.08467" lon="2.69833">
        <ele>97.391339</ele>
        <time>2016-06-03T09:40:05Z</time>
      </trkpt>
      <trkpt lat="43.0848" lon="2.69794">
        <ele>98.168592</ele>
        <time>2016-06-03T09:40:08Z</time>
      </trkpt>
      <trkpt lat="43.08487" lon="2.69766">
        <ele>98.90972</ele>
        <time>2016-06-03T09:40:10Z</time>
      </trkpt>
      <trkpt lat="43.08494" lon="2.69701">
        <ele>100.959973</ele>
        <time>2016-06-03T09:40:14Z</time>
      </trkpt>
      <trkpt lat="43.08496" lon="2.69671">
        <ele>102.447781</ele>
        <time>2016-06-03T09:40:16Z</time>
      </trkpt>
      <trkpt lat="43.08493" lon="2.69642">
        <ele>105.082834</ele>
        <time>2016-06-03T09:40:18Z</time>
      </trkpt>
      <trkpt lat="43.08482" lon="2.69615">
        <ele>105.82921</ele>
        <time>2016-06-03T09:40:20Z</time>
      </trkpt>
      <trkpt lat="43.08457" lon="2.69585">
        <ele>108.949848</ele>
        <time>2016-06-03T09:40:23Z</time>
      </trkpt>
      <trkpt lat="43.08434" lon="2.69569">
        <ele>109.623575</ele>
        <time>2016-06-03T09:40:25Z</time>
      </trkpt>
      <trkpt lat="43.08413" lon="2.69546">
        <ele>111.166307</ele>
        <time>2016-06-03T09:40:28Z</time>
      </trkpt>
      <trkpt lat="43.08406" lon="2.69538">
        <ele>111.796874</ele>
        <time>2016-06-03T09:40:30Z</time>
      </trkpt>
      <trkpt lat="43.08405" lon="2.69534">
        <ele>112.19655</ele>
        <time>2016-06-03T09:40:31Z</time>
      </trkpt>
      <trkpt lat="43.084" lon="2.69532">
        <ele>112.566104</ele>
        <time>2016-06-03T09:40:33Z</time>
      </trkpt>
      <trkpt lat="43.08391" lon="2.69525">
        <ele>112.789008</ele>
        <time>2016-06-03T09:40:37Z</time>
      </trkpt>
      <trkpt lat="43.08373" lon="2.69519">
        <ele>113.079801</ele>
        <time>2016-06-03T09:40:40Z</time>
      </trkpt>
      <trkpt lat="43.08355" lon="2.69513">
        <ele>113.080221</ele>
        <time>2016-06-03T09:40:42Z</time>
      </trkpt>
      <trkpt lat="43.08328" lon="2.69497">
        <ele>113.446203</ele>
        <time>2016-06-03T09:40:45Z</time>
      </trkpt>
      <trkpt lat="43.08292" lon="2.69482">
        <ele>113.947648</ele>
        <time>2016-06-03T09:40:48Z</time>
      </trkpt>
      <trkpt lat="43.08262" lon="2.69473">
        <ele>114.235262</ele>
        <time>2016-06-03T09:40:50Z</time>
      </trkpt>
      <trkpt lat="43.08215" lon="2.69454">
        <ele>114.504656</ele>
        <time>2016-06-03T09:40:53Z</time>
      </trkpt>
      <trkpt lat="43.08162" lon="2.69429">
        <ele>114.66969</ele>
        <time>2016-06-03T09:40:56Z</time>
      </trkpt>
      <trkpt lat="43.08088" lon="2.69385">
        <ele>114.874973</ele>
        <time>2016-06-03T09:41:00Z</time>
      </trkpt>
      <trkpt lat="43.08008" lon="2.69343">
        <ele>116.065575</ele>
        <time>2016-06-03T09:41:04Z</time>
      </trkpt>
      <trkpt lat="43.07924" lon="2.69295">
        <ele>116.560183</ele>
        <time>2016-06-03T09:41:08Z</time>
      </trkpt>
      <trkpt lat="43.0784" lon="2.69248">
        <ele>117.25187</ele>
        <time>2016-06-03T09:41:12Z</time>
      </trkpt>
      <trkpt lat="43.0778" lon="2.69217">
        <ele>118.809186</ele>
        <time>2016-06-03T09:41:15Z</time>
      </trkpt>
      <trkpt lat="43.07744" lon="2.69193">
        <ele>121.623174</ele>
        <time>2016-06-03T09:41:17Z</time>
      </trkpt>
      <trkpt lat="43.07714" lon="2.69163">
        <ele>124.829312</ele>
        <time>2016-06-03T09:41:19Z</time>
      </trkpt>
      <trkpt lat="43.07686" lon="2.69126">
        <ele>126.364083</ele>
        <time>2016-06-03T09:41:21Z</time>
      </trkpt>
      <trkpt lat="43.07664" lon="2.69085">
        <ele>128.135944</ele>
        <time>2016-06-03T09:41:23Z</time>
      </trkpt>
      <trkpt lat="43.07646" lon="2.69038">
        <ele>130.504345</ele>
        <time>2016-06-03T09:41:25Z</time>
      </trkpt>
      <trkpt lat="43.07624" lon="2.68968">
        <ele>131.363126</ele>
        <time>2016-06-03T09:41:28Z</time>
      </trkpt>
      <trkpt lat="43.07598" lon="2.68871">
        <ele>133.947406</ele>
        <time>2016-06-03T09:41:32Z</time>
      </trkpt>
      <trkpt lat="43.07582" lon="2.68804">
        <ele>133.594061</ele>
        <time>2016-06-03T09:41:35Z</time>
      </trkpt>
      <trkpt lat="43.07578" lon="2.68758">
        <ele>131.267868</ele>
        <time>2016-06-03T09:41:37Z</time>
      </trkpt>
      <trkpt lat="43.07588" lon="2.68685">
        <ele>130.536688</ele>
        <time>2016-06-03T09:41:40Z</time>
      </trkpt>
      <trkpt lat="43.07596" lon="2.68638">
        <ele>128.992607</ele>
        <time>2016-06-03T09:41:42Z</time>
      </trkpt>
      <trkpt lat="43.07598" lon="2.68592">
        <ele>129.390866</ele>
        <time>2016-06-03T09:41:44Z</time>
      </trkpt>
      <trkpt lat="43.07592" lon="2.68547">
        <ele>129.474997</ele>
        <time>2016-06-03T09:41:46Z</time>
      </trkpt>
      <trkpt lat="43.07577" lon="2.68507">
        <ele>132.08371</ele>
        <time>2016-06-03T09:41:48Z</time>
      </trkpt>
      <trkpt lat="43.07556" lon="2.68469">
        <ele>131.103374</ele>
        <time>2016-06-03T09:41:50Z</time>
      </trkpt>
      <trkpt lat="43.07494" lon="2.68405">
        <ele>128.838388</ele>
        <time>2016-06-03T09:41:54Z</time>
      </trkpt>
      <trkpt lat="43.07454" lon="2.6836">
        <ele>127.450204</ele>
        <time>2016-06-03T09:41:57Z</time>
      </trkpt>
      <trkpt lat="43.07434" lon="2.68321">
        <ele>126.620072</ele>
        <time>2016-06-03T09:41:59Z</time>
      </trkpt>
      <trkpt lat="43.07412" lon="2.6825">
        <ele>126.608923</ele>
        <time>2016-06-03T09:42:02Z</time>
      </trkpt>
      <trkpt lat="43.07396" lon="2.68209">
        <ele>125.043854</ele>
        <time>2016-06-03T09:42:04Z</time>
      </trkpt>
      <trkpt lat="43.07374" lon="2.6818">
        <ele>124.989388</ele>
        <time>2016-06-03T09:42:06Z</time>
      </trkpt>
      <trkpt lat="43.07329" lon="2.68147">
        <ele>124.731082</ele>
        <time>2016-06-03T09:42:09Z</time>
      </trkpt>
      <trkpt lat="43.07301" lon="2.68126">
        <ele>124.139668</ele>
        <time>2016-06-03T09:42:11Z</time>
      </trkpt>
      <trkpt lat="43.0728" lon="2.68095">
        <ele>123.887801</ele>
        <time>2016-06-03T09:42:13Z</time>
      </trkpt>
      <trkpt lat="43.07245" lon="2.6801">
        <ele>123.328694</ele>
        <time>2016-06-03T09:42:17Z</time>
      </trkpt>
      <trkpt lat="43.07228" lon="2.67969">
        <ele>122.973819</ele>
        <time>2016-06-03T09:42:19Z</time>
      </trkpt>
      <trkpt lat="43.07198" lon="2.67919">
        <ele>125.444058</ele>
        <time>2016-06-03T09:42:22Z</time>
      </trkpt>
      <trkpt lat="43.07144" lon="2.67844">
        <ele>124.906439</ele>
        <time>2016-06-03T09:42:26Z</time>
      </trkpt>
      <trkpt lat="43.07086" lon="2.67766">
        <ele>124.278546</ele>
        <time>2016-06-03T09:42:30Z</time>
      </trkpt>
      <trkpt lat="43.07056" lon="2.67731">
        <ele>124.440449</ele>
        <time>2016-06-03T09:42:32Z</time>
      </trkpt>
      <trkpt lat="43.07009" lon="2.67693">
        <ele>123.640516</ele>
        <time>2016-06-03T09:42:35Z</time>
      </trkpt>
      <trkpt lat="43.06974" lon="2.67671">
        <ele>124.041263</ele>
        <time>2016-06-03T09:42:38Z</time>
      </trkpt>
      <trkpt lat="43.06945" lon="2.67672">
        <ele>125.236816</ele>
        <time>2016-06-03T09:42:40Z</time>
      </trkpt>
      <trkpt lat="43.06896" lon="2.67688">
        <ele>125.501797</ele>
        <time>2016-06-03T09:42:43Z</time>
      </trkpt>
      <trkpt lat="43.06865" lon="2.67702">
        <ele>124.765267</ele>
        <time>2016-06-03T09:42:45Z</time>
      </trkpt>
      <trkpt lat="43.06825" lon="2.67733">
        <ele>126.439292</ele>
        <time>2016-06-03T09:42:48Z</time>
      </trkpt>
      <trkpt lat="43.06799" lon="2.67791">
        <ele>126.990011</ele>
        <time>2016-06-03T09:42:51Z</time>
      </trkpt>
      <trkpt lat="43.06778" lon="2.6782">
        <ele>128.213322</ele>
        <time>2016-06-03T09:42:53Z</time>
      </trkpt>
      <trkpt lat="43.06749" lon="2.67831">
        <ele>127.794655</ele>
        <time>2016-06-03T09:42:55Z</time>
      </trkpt>
      <trkpt lat="43.06721" lon="2.67823">
        <ele>127.954584</ele>
        <time>2016-06-03T09:42:57Z</time>
      </trkpt>
      <trkpt lat="43.0668" lon="2.67787">
        <ele>129.674558</ele>
        <time>2016-06-03T09:43:00Z</time>
      </trkpt>
      <trkpt lat="43.06645" lon="2.67745">
        <ele>130.347989</ele>
        <time>2016-06-03T09:43:03Z</time>
      </trkpt>
      <trkpt lat="43.06627" lon="2.67711">
        <ele>131.111289</ele>
        <time>2016-06-03T09:43:05Z</time>
      </trkpt>
      <trkpt lat="43.06609" lon="2.67644">
        <ele>134.462467</ele>
        <time>2016-06-03T09:43:08Z</time>
      </trkpt>
      <trkpt lat="43.06595" lon="2.67576">
        <ele>131.035672</ele>
        <time>2016-06-03T09:43:11Z</time>
      </trkpt>
      <trkpt lat="43.06591" lon="2.67528">
        <ele>134.136757</ele>
        <time>2016-06-03T09:43:13Z</time>
      </trkpt>
      <trkpt lat="43.06597" lon="2.6745">
        <ele>133.790816</ele>
        <time>2016-06-03T09:43:16Z</time>
      </trkpt>
      <trkpt lat="43.06602" lon="2.67382">
        <ele>134.798438</ele>
        <time>2016-06-03T09:43:19Z</time>
      </trkpt>
      <trkpt lat="43.06602" lon="2.67342">
        <ele>134.349464</ele>
        <time>2016-06-03T09:43:21Z</time>
      </trkpt>
      <trkpt lat="43.0659" lon="2.67299">
        <ele>135.660015</ele>
        <time>2016-06-03T09:43:24Z</time>
      </trkpt>
      <trkpt lat="43.06556" lon="2.67284">
        <ele>136.054057</ele>
        <time>2016-06-03T09:43:26Z</time>
      </trkpt>
      <trkpt lat="43.06542" lon="2.67295">
        <ele>136.301133</ele>
        <time>2016-06-03T09:43:27Z</time>
      </trkpt>
      <trkpt lat="43.06518" lon="2.67301">
        <ele>136.778744</ele>
        <time>2016-06-03T09:43:29Z</time>
      </trkpt>
      <trkpt lat="43.06506" lon="2.67308">
        <ele>137.02706</ele>
        <time>2016-06-03T09:43:30Z</time>
      </trkpt>
      <trkpt lat="43.06478" lon="2.67359">
        <ele>137.53139</ele>
        <time>2016-06-03T09:43:33Z</time>
      </trkpt>
      <trkpt lat="43.06459" lon="2.67381">
        <ele>137.256127</ele>
        <time>2016-06-03T09:43:35Z</time>
      </trkpt>
      <trkpt lat="43.06438" lon="2.67383">
        <ele>137.968427</ele>
        <time>2016-06-03T09:43:37Z</time>
      </trkpt>
      <trkpt lat="43.06417" lon="2.67367">
        <ele>138.664891</ele>
        <time>2016-06-03T09:43:39Z</time>
      </trkpt>
      <trkpt lat="43.06388" lon="2.67311">
        <ele>141.700861</ele>
        <time>2016-06-03T09:43:42Z</time>
      </trkpt>
      <trkpt lat="43.06356" lon="2.67254">
        <ele>138.880804</ele>
        <time>2016-06-03T09:43:45Z</time>
      </trkpt>
      <trkpt lat="43.06339" lon="2.67222">
        <ele>139.057826</ele>
        <time>2016-06-03T09:43:47Z</time>
      </trkpt>
      <trkpt lat="43.06322" lon="2.67199">
        <ele>140.82565</ele>
        <time>2016-06-03T09:43:49Z</time>
      </trkpt>
      <trkpt lat="43.06282" lon="2.67181">
        <ele>141.904149</ele>
        <time>2016-06-03T09:43:52Z</time>
      </trkpt>
      <trkpt lat="43.06254" lon="2.67158">
        <ele>140.987533</ele>
        <time>2016-06-03T09:43:55Z</time>
      </trkpt>
      <trkpt lat="43.06238" lon="2.67138">
        <ele>141.103673</ele>
        <time>2016-06-03T09:43:57Z</time>
      </trkpt>
      <trkpt lat="43.06268" lon="2.67098">
        <ele>141.141715</ele>
        <time>2016-06-03T09:43:59Z</time>
      </trkpt>
      <trkpt lat="43.06293" lon="2.6706">
        <ele>143.126442</ele>
        <time>2016-06-03T09:44:02Z</time>
      </trkpt>
      <trkpt lat="43.06309" lon="2.67033">
        <ele>144.193164</ele>
        <time>2016-06-03T09:44:04Z</time>
      </trkpt>
      <trkpt lat="43.06318" lon="2.66969">
        <ele>145.993552</ele>
        <time>2016-06-03T09:44:07Z</time>
      </trkpt>
      <trkpt lat="43.06312" lon="2.66922">
        <ele>144.931703</ele>
        <time>2016-06-03T09:44:09Z</time>
      </trkpt>
      <trkpt lat="43.06296" lon="2.6688">
        <ele>146.18484</ele>
        <time>2016-06-03T09:44:11Z</time>
      </trkpt>
      <trkpt lat="43.0627" lon="2.6685">
        <ele>146.450052</ele>
        <time>2016-06-03T09:44:13Z</time>
      </trkpt>
      <trkpt lat="43.06243" lon="2.66834">
        <ele>147.810512</ele>
        <time>2016-06-03T09:44:15Z</time>
      </trkpt>
      <trkpt lat="43.06214" lon="2.66831">
        <ele>147.226914</ele>
        <time>2016-06-03T09:44:17Z</time>
      </trkpt>
      <trkpt lat="43.06184" lon="2.66838">
        <ele>148.628383</ele>
        <time>2016-06-03T09:44:19Z</time>
      </trkpt>
      <trkpt lat="43.06159" lon="2.66861">
        <ele>147.120899</ele>
        <time>2016-06-03T09:44:21Z</time>
      </trkpt>
      <trkpt lat="43.06134" lon="2.66859">
        <ele>147.709388</ele>
        <time>2016-06-03T09:44:23Z</time>
      </trkpt>
      <trkpt lat="43.06106" lon="2.66842">
        <ele>149.579899</ele>
        <time>2016-06-03T09:44:25Z</time>
      </trkpt>
      <trkpt lat="43.06079" lon="2.66814">
        <ele>150.278101</ele>
        <time>2016-06-03T09:44:27Z</time>
      </trkpt>
      <trkpt lat="43.06046" lon="2.6679">
        <ele>151.225648</ele>
        <time>2016-06-03T09:44:29Z</time>
      </trkpt>
      <trkpt lat="43.05993" lon="2.66766">
        <ele>152.92428</ele>
        <time>2016-06-03T09:44:32Z</time>
      </trkpt>
      <trkpt lat="43.05953" lon="2.66752">
        <ele>152.542731</ele>
        <time>2016-06-03T09:44:34Z</time>
      </trkpt>
      <trkpt lat="43.05923" lon="2.66743">
        <ele>152.268585</ele>
        <time>2016-06-03T09:44:36Z</time>
      </trkpt>
      <trkpt lat="43.05868" lon="2.66745">
        <ele>155.941516</ele>
        <time>2016-06-03T09:44:39Z</time>
      </trkpt>
      <trkpt lat="43.05832" lon="2.66756">
        <ele>155.566222</ele>
        <time>2016-06-03T09:44:41Z</time>
      </trkpt>
      <trkpt lat="43.05779" lon="2.66741">
        <ele>157.813081</ele>
        <time>2016-06-03T09:44:44Z</time>
      </trkpt>
      <trkpt lat="43.05725" lon="2.66711">
        <ele>158.94578</ele>
        <time>2016-06-03T09:44:47Z</time>
      </trkpt>
      <trkpt lat="43.05673" lon="2.66684">
        <ele>158.832969</ele>
        <time>2016-06-03T09:44:50Z</time>
      </trkpt>
      <trkpt lat="43.05595" lon="2.6666">
        <ele>163.184428</ele>
        <time>2016-06-03T09:44:54Z</time>
      </trkpt>
      <trkpt lat="43.05562" lon="2.66644">
        <ele>164.1403</ele>
        <time>2016-06-03T09:44:56Z</time>
      </trkpt>
      <trkpt lat="43.05507" lon="2.66641">
        <ele>163.802323</ele>
        <time>2016-06-03T09:44:59Z</time>
      </trkpt>
      <trkpt lat="43.05482" lon="2.66634">
        <ele>164.212795</ele>
        <time>2016-06-03T09:45:01Z</time>
      </trkpt>
      <trkpt lat="43.0546" lon="2.66617">
        <ele>165.010299</ele>
        <time>2016-06-03T09:45:03Z</time>
      </trkpt>
      <trkpt lat="43.05413" lon="2.6656">
        <ele>166.850284</ele>
        <time>2016-06-03T09:45:08Z</time>
      </trkpt>
      <trkpt lat="43.05381" lon="2.66521">
        <ele>168.668678</ele>
        <time>2016-06-03T09:45:11Z</time>
      </trkpt>
      <trkpt lat="43.05352" lon="2.66485">
        <ele>168.373808</ele>
        <time>2016-06-03T09:45:14Z</time>
      </trkpt>
      <trkpt lat="43.05323" lon="2.66456">
        <ele>170.494399</ele>
        <time>2016-06-03T09:45:17Z</time>
      </trkpt>
      <trkpt lat="43.05283" lon="2.66424">
        <ele>169.659021</ele>
        <time>2016-06-03T09:45:21Z</time>
      </trkpt>
      <trkpt lat="43.05243" lon="2.66389">
        <ele>170.499075</ele>
        <time>2016-06-03T09:45:25Z</time>
      </trkpt>
      <trkpt lat="43.05223" lon="2.6637">
        <ele>170.907515</ele>
        <time>2016-06-03T09:45:27Z</time>
      </trkpt>
      <trkpt lat="43.05208" lon="2.66349">
        <ele>172.337747</ele>
        <time>2016-06-03T09:45:29Z</time>
      </trkpt>
      <trkpt lat="43.05191" lon="2.66312">
        <ele>172.731421</ele>
        <time>2016-06-03T09:45:32Z</time>
      </trkpt>
      <trkpt lat="43.05178" lon="2.66278">
        <ele>173.809456</ele>
        <time>2016-06-03T09:45:35Z</time>
      </trkpt>
      <trkpt lat="43.05166" lon="2.66246">
        <ele>175.245701</ele>
        <time>2016-06-03T09:45:38Z</time>
      </trkpt>
      <trkpt lat="43.05158" lon="2.6621">
        <ele>174.45677</ele>
        <time>2016-06-03T09:45:41Z</time>
      </trkpt>
      <trkpt lat="43.05153" lon="2.66191">
        <ele>175.102416</ele>
        <time>2016-06-03T09:45:43Z</time>
      </trkpt>
      <trkpt lat="43.05141" lon="2.66151">
        <ele>175.763449</ele>
        <time>2016-06-03T09:45:46Z</time>
      </trkpt>
      <trkpt lat="43.05123" lon="2.66085">
        <ele>177.373799</ele>
        <time>2016-06-03T09:45:50Z</time>
      </trkpt>
      <trkpt lat="43.05106" lon="2.66016">
        <ele>179.543969</ele>
        <time>2016-06-03T09:45:54Z</time>
      </trkpt>
      <trkpt lat="43.05094" lon="2.65944">
        <ele>183.109406</ele>
        <time>2016-06-03T09:45:58Z</time>
      </trkpt>
      <trkpt lat="43.05085" lon="2.65867">
        <ele>187.358718</ele>
        <time>2016-06-03T09:46:02Z</time>
      </trkpt>
      <trkpt lat="43.05078" lon="2.65784">
        <ele>189.594005</ele>
        <time>2016-06-03T09:46:06Z</time>
      </trkpt>
      <trkpt lat="43.05067" lon="2.6567">
        <ele>194.150679</ele>
        <time>2016-06-03T09:46:11Z</time>
      </trkpt>
      <trkpt lat="43.05062" lon="2.65632">
        <ele>193.255736</ele>
        <time>2016-06-03T09:46:13Z</time>
      </trkpt>
      <trkpt lat="43.0505" lon="2.65594">
        <ele>196.216114</ele>
        <time>2016-06-03T09:46:15Z</time>
      </trkpt>
      <trkpt lat="43.05025" lon="2.65558">
        <ele>199.478751</ele>
        <time>2016-06-03T09:46:17Z</time>
      </trkpt>
      <trkpt lat="43.04981" lon="2.65477">
        <ele>202.071328</ele>
        <time>2016-06-03T09:46:21Z</time>
      </trkpt>
      <trkpt lat="43.04945" lon="2.65383">
        <ele>204.982044</ele>
        <time>2016-06-03T09:46:25Z</time>
      </trkpt>
      <trkpt lat="43.04924" lon="2.6534">
        <ele>207.458598</ele>
        <time>2016-06-03T09:46:27Z</time>
      </trkpt>
      <trkpt lat="43.04886" lon="2.65281">
        <ele>208.842981</ele>
        <time>2016-06-03T09:46:31Z</time>
      </trkpt>
      <trkpt lat="43.04877" lon="2.65249">
        <ele>209.601681</ele>
        <time>2016-06-03T09:46:33Z</time>
      </trkpt>
      <trkpt lat="43.04879" lon="2.65211">
        <ele>210.935348</ele>
        <time>2016-06-03T09:46:35Z</time>
      </trkpt>
      <trkpt lat="43.04887" lon="2.65177">
        <ele>212.095402</ele>
        <time>2016-06-03T09:46:37Z</time>
      </trkpt>
      <trkpt lat="43.04889" lon="2.65146">
        <ele>212.311412</ele>
        <time>2016-06-03T09:46:39Z</time>
      </trkpt>
      <trkpt lat="43.04886" lon="2.65114">
        <ele>214.379962</ele>
        <time>2016-06-03T09:46:41Z</time>
      </trkpt>
      <trkpt lat="43.04866" lon="2.65081">
        <ele>215.957493</ele>
        <time>2016-06-03T09:46:43Z</time>
      </trkpt>
      <trkpt lat="43.04843" lon="2.65071">
        <ele>217.619175</ele>
        <time>2016-06-03T09:46:44Z</time>
      </trkpt>
      <trkpt lat="43.04793" lon="2.65017">
        <ele>218.758627</ele>
        <time>2016-06-03T09:46:48Z</time>
      </trkpt>
      <trkpt lat="43.04777" lon="2.64985">
        <ele>219.796382</ele>
        <time>2016-06-03T09:46:50Z</time>
      </trkpt>
      <trkpt lat="43.04768" lon="2.64945">
        <ele>221.863135</ele>
        <time>2016-06-03T09:46:52Z</time>
      </trkpt>
      <trkpt lat="43.0476" lon="2.64906">
        <ele>221.99712</ele>
        <time>2016-06-03T09:46:54Z</time>
      </trkpt>
      <trkpt lat="43.04748" lon="2.64875">
        <ele>224.459488</ele>
        <time>2016-06-03T09:46:56Z</time>
      </trkpt>
      <trkpt lat="43.04729" lon="2.64849">
        <ele>224.623311</ele>
        <time>2016-06-03T09:46:58Z</time>
      </trkpt>
      <trkpt lat="43.04706" lon="2.64831">
        <ele>226.89592</ele>
        <time>2016-06-03T09:47:00Z</time>
      </trkpt>
      <trkpt lat="43.04645" lon="2.64853">
        <ele>229.86731</ele>
        <time>2016-06-03T09:47:03Z</time>
      </trkpt>
      <trkpt lat="43.04533" lon="2.6488">
        <ele>231.989571</ele>
        <time>2016-06-03T09:47:08Z</time>
      </trkpt>
      <trkpt lat="43.04503" lon="2.64888">
        <ele>234.2416</ele>
        <time>2016-06-03T09:47:10Z</time>
      </trkpt>
      <trkpt lat="43.04472" lon="2.64885">
        <ele>237.378739</ele>
        <time>2016-06-03T09:47:12Z</time>
      </trkpt>
      <trkpt lat="43.04425" lon="2.64853">
        <ele>239.188174</ele>
        <time>2016-06-03T09:47:15Z</time>
      </trkpt>
      <trkpt lat="43.04378" lon="2.64812">
        <ele>240.83831</ele>
        <time>2016-06-03T09:47:18Z</time>
      </trkpt>
      <trkpt lat="43.0435" lon="2.64785">
        <ele>244.017095</ele>
        <time>2016-06-03T09:47:20Z</time>
      </trkpt>
      <trkpt lat="43.0432" lon="2.64732">
        <ele>245.986531</ele>
        <time>2016-06-03T09:47:23Z</time>
      </trkpt>
      <trkpt lat="43.04303" lon="2.64703">
        <ele>247.613368</ele>
        <time>2016-06-03T09:47:25Z</time>
      </trkpt>
      <trkpt lat="43.04293" lon="2.6469">
        <ele>248.321991</ele>
        <time>2016-06-03T09:47:26Z</time>
      </trkpt>
      <trkpt lat="43.04265" lon="2.64673">
        <ele>249.783055</ele>
        <time>2016-06-03T09:47:28Z</time>
      </trkpt>
      <trkpt lat="43.04207" lon="2.64685">
        <ele>251.985529</ele>
        <time>2016-06-03T09:47:31Z</time>
      </trkpt>
      <trkpt lat="43.04171" lon="2.64688">
        <ele>254.396212</ele>
        <time>2016-06-03T09:47:33Z</time>
      </trkpt>
      <trkpt lat="43.0414" lon="2.6468">
        <ele>256.038228</ele>
        <time>2016-06-03T09:47:35Z</time>
      </trkpt>
      <trkpt lat="43.04116" lon="2.64655">
        <ele>256.529289</ele>
        <time>2016-06-03T09:47:37Z</time>
      </trkpt>
      <trkpt lat="43.04097" lon="2.64618">
        <ele>258.806613</ele>
        <time>2016-06-03T09:47:39Z</time>
      </trkpt>
      <trkpt lat="43.04063" lon="2.64528">
        <ele>262.571522</ele>
        <time>2016-06-03T09:47:43Z</time>
      </trkpt>
      <trkpt lat="43.04043" lon="2.64465">
        <ele>264.430921</ele>
        <time>2016-06-03T09:47:46Z</time>
      </trkpt>
      <trkpt lat="43.04017" lon="2.64434">
        <ele>268.641979</ele>
        <time>2016-06-03T09:47:48Z</time>
      </trkpt>
      <trkpt lat="43.03986" lon="2.64412">
        <ele>272.139512</ele>
        <time>2016-06-03T09:47:50Z</time>
      </trkpt>
      <trkpt lat="43.03952" lon="2.64398">
        <ele>273.944079</ele>
        <time>2016-06-03T09:47:52Z</time>
      </trkpt>
      <trkpt lat="43.03917" lon="2.64392">
        <ele>274.452049</ele>
        <time>2016-06-03T09:47:54Z</time>
      </trkpt>
      <trkpt lat="43.0388" lon="2.64394">
        <ele>277.138571</ele>
        <time>2016-06-03T09:47:57Z</time>
      </trkpt>
      <trkpt lat="43.03865" lon="2.64389">
        <ele>277.100609</ele>
        <time>2016-06-03T09:47:59Z</time>
      </trkpt>
      <trkpt lat="43.03858" lon="2.64379">
        <ele>277.248245</ele>
        <time>2016-06-03T09:48:01Z</time>
      </trkpt>
      <trkpt lat="43.0386" lon="2.64352">
        <ele>278.906427</ele>
        <time>2016-06-03T09:48:04Z</time>
      </trkpt>
      <trkpt lat="43.03864" lon="2.64347">
        <ele>278.906427</ele>
        <time>2016-06-03T09:48:05Z</time>
      </trkpt>
      <trkpt lat="43.03881" lon="2.64343">
        <ele>279.373593</ele>
        <time>2016-06-03T09:48:07Z</time>
      </trkpt>
      <trkpt lat="43.03898" lon="2.64348">
        <ele>280.41452</ele>
        <time>2016-06-03T09:48:09Z</time>
      </trkpt>
      <trkpt lat="43.03915" lon="2.64358">
        <ele>281.336177</ele>
        <time>2016-06-03T09:48:11Z</time>
      </trkpt>
      <trkpt lat="43.03936" lon="2.64363">
        <ele>282.126967</ele>
        <time>2016-06-03T09:48:13Z</time>
      </trkpt>
      <trkpt lat="43.03959" lon="2.64358">
        <ele>283.013557</ele>
        <time>2016-06-03T09:48:15Z</time>
      </trkpt>
      <trkpt lat="43.03984" lon="2.64344">
        <ele>283.684728</ele>
        <time>2016-06-03T09:48:17Z</time>
      </trkpt>
      <trkpt lat="43.04019" lon="2.6432">
        <ele>282.968452</ele>
        <time>2016-06-03T09:48:20Z</time>
      </trkpt>
      <trkpt lat="43.04042" lon="2.64307">
        <ele>282.618023</ele>
        <time>2016-06-03T09:48:22Z</time>
      </trkpt>
      <trkpt lat="43.04063" lon="2.64289">
        <ele>284.119223</ele>
        <time>2016-06-03T09:48:24Z</time>
      </trkpt>
      <trkpt lat="43.04078" lon="2.64261">
        <ele>285.442414</ele>
        <time>2016-06-03T09:48:26Z</time>
      </trkpt>
      <trkpt lat="43.04092" lon="2.64227">
        <ele>285.641097</ele>
        <time>2016-06-03T09:48:28Z</time>
      </trkpt>
      <trkpt lat="43.04109" lon="2.64167">
        <ele>284.49756</ele>
        <time>2016-06-03T09:48:31Z</time>
      </trkpt>
      <trkpt lat="43.04124" lon="2.64138">
        <ele>284.538329</ele>
        <time>2016-06-03T09:48:33Z</time>
      </trkpt>
      <trkpt lat="43.04145" lon="2.64113">
        <ele>284.403663</ele>
        <time>2016-06-03T09:48:35Z</time>
      </trkpt>
      <trkpt lat="43.04189" lon="2.64085">
        <ele>283.935166</ele>
        <time>2016-06-03T09:48:38Z</time>
      </trkpt>
      <trkpt lat="43.0422" lon="2.64069">
        <ele>283.465582</ele>
        <time>2016-06-03T09:48:40Z</time>
      </trkpt>
      <trkpt lat="43.0426" lon="2.64039">
        <ele>283.319941</ele>
        <time>2016-06-03T09:48:43Z</time>
      </trkpt>
      <trkpt lat="43.04281" lon="2.6401">
        <ele>283.045086</ele>
        <time>2016-06-03T09:48:45Z</time>
      </trkpt>
      <trkpt lat="43.04305" lon="2.63954">
        <ele>282.152573</ele>
        <time>2016-06-03T09:48:48Z</time>
      </trkpt>
      <trkpt lat="43.04326" lon="2.63928">
        <ele>281.312705</ele>
        <time>2016-06-03T09:48:50Z</time>
      </trkpt>
      <trkpt lat="43.04355" lon="2.63912">
        <ele>281.948706</ele>
        <time>2016-06-03T09:48:52Z</time>
      </trkpt>
      <trkpt lat="43.04409" lon="2.63899">
        <ele>280.712936</ele>
        <time>2016-06-03T09:48:55Z</time>
      </trkpt>
      <trkpt lat="43.04489" lon="2.63879">
        <ele>279.346316</ele>
        <time>2016-06-03T09:48:58Z</time>
      </trkpt>
      <trkpt lat="43.04559" lon="2.63866">
        <ele>278.631094</ele>
        <time>2016-06-03T09:49:03Z</time>
      </trkpt>
      <trkpt lat="43.04589" lon="2.63856">
        <ele>278.535463</ele>
        <time>2016-06-03T09:49:04Z</time>
      </trkpt>
      <trkpt lat="43.04613" lon="2.63835">
        <ele>277.173946</ele>
        <time>2016-06-03T09:49:06Z</time>
      </trkpt>
      <trkpt lat="43.04634" lon="2.63803">
        <ele>277.672993</ele>
        <time>2016-06-03T09:49:08Z</time>
      </trkpt>
      <trkpt lat="43.04661" lon="2.63741">
        <ele>277.600999</ele>
        <time>2016-06-03T09:49:11Z</time>
      </trkpt>
      <trkpt lat="43.04682" lon="2.63706">
        <ele>275.245652</ele>
        <time>2016-06-03T09:49:13Z</time>
      </trkpt>
      <trkpt lat="43.0471" lon="2.63679">
        <ele>276.090168</ele>
        <time>2016-06-03T09:49:15Z</time>
      </trkpt>
      <trkpt lat="43.04758" lon="2.63649">
        <ele>272.107684</ele>
        <time>2016-06-03T09:49:18Z</time>
      </trkpt>
      <trkpt lat="43.04806" lon="2.63603">
        <ele>271.584033</ele>
        <time>2016-06-03T09:49:21Z</time>
      </trkpt>
      <trkpt lat="43.04841" lon="2.63576">
        <ele>271.092614</ele>
        <time>2016-06-03T09:49:23Z</time>
      </trkpt>
      <trkpt lat="43.04897" lon="2.63545">
        <ele>267.793049</ele>
        <time>2016-06-03T09:49:26Z</time>
      </trkpt>
      <trkpt lat="43.04984" lon="2.63504">
        <ele>264.660271</ele>
        <time>2016-06-03T09:49:31Z</time>
      </trkpt>
      <trkpt lat="43.05016" lon="2.63493">
        <ele>263.324179</ele>
        <time>2016-06-03T09:49:33Z</time>
      </trkpt>
      <trkpt lat="43.05048" lon="2.63494">
        <ele>262.336769</ele>
        <time>2016-06-03T09:49:35Z</time>
      </trkpt>
      <trkpt lat="43.05088" lon="2.63521">
        <ele>259.760892</ele>
        <time>2016-06-03T09:49:38Z</time>
      </trkpt>
      <trkpt lat="43.05125" lon="2.63557">
        <ele>258.539538</ele>
        <time>2016-06-03T09:49:41Z</time>
      </trkpt>
      <trkpt lat="43.05145" lon="2.63572">
        <ele>255.743666</ele>
        <time>2016-06-03T09:49:43Z</time>
      </trkpt>
      <trkpt lat="43.05167" lon="2.63573">
        <ele>255.80036</ele>
        <time>2016-06-03T09:49:45Z</time>
      </trkpt>
      <trkpt lat="43.05194" lon="2.63555">
        <ele>254.874531</ele>
        <time>2016-06-03T09:49:47Z</time>
      </trkpt>
      <trkpt lat="43.05215" lon="2.63536">
        <ele>253.621759</ele>
        <time>2016-06-03T09:49:49Z</time>
      </trkpt>
      <trkpt lat="43.05236" lon="2.63527">
        <ele>252.521148</ele>
        <time>2016-06-03T09:49:51Z</time>
      </trkpt>
      <trkpt lat="43.05285" lon="2.63551">
        <ele>251.994907</ele>
        <time>2016-06-03T09:49:55Z</time>
      </trkpt>
      <trkpt lat="43.05307" lon="2.63556">
        <ele>250.259651</ele>
        <time>2016-06-03T09:49:57Z</time>
      </trkpt>
      <trkpt lat="43.05327" lon="2.63549">
        <ele>250.463644</ele>
        <time>2016-06-03T09:49:59Z</time>
      </trkpt>
      <trkpt lat="43.05346" lon="2.63529">
        <ele>250.300288</ele>
        <time>2016-06-03T09:50:01Z</time>
      </trkpt>
      <trkpt lat="43.05359" lon="2.63472">
        <ele>248.745168</ele>
        <time>2016-06-03T09:50:03Z</time>
      </trkpt>
      <trkpt lat="43.05386" lon="2.63403">
        <ele>247.167607</ele>
        <time>2016-06-03T09:50:06Z</time>
      </trkpt>
      <trkpt lat="43.05411" lon="2.63328">
        <ele>242.147383</ele>
        <time>2016-06-03T09:50:09Z</time>
      </trkpt>
      <trkpt lat="43.05429" lon="2.63287">
        <ele>239.669704</ele>
        <time>2016-06-03T09:50:11Z</time>
      </trkpt>
      <trkpt lat="43.05449" lon="2.63249">
        <ele>240.54727</ele>
        <time>2016-06-03T09:50:13Z</time>
      </trkpt>
      <trkpt lat="43.055" lon="2.63204">
        <ele>238.245902</ele>
        <time>2016-06-03T09:50:16Z</time>
      </trkpt>
      <trkpt lat="43.0553" lon="2.63181">
        <ele>236.639081</ele>
        <time>2016-06-03T09:50:18Z</time>
      </trkpt>
      <trkpt lat="43.05572" lon="2.63141">
        <ele>235.027023</ele>
        <time>2016-06-03T09:50:21Z</time>
      </trkpt>
      <trkpt lat="43.05605" lon="2.63101">
        <ele>233.706675</ele>
        <time>2016-06-03T09:50:24Z</time>
      </trkpt>
      <trkpt lat="43.05618" lon="2.63071">
        <ele>233.383311</ele>
        <time>2016-06-03T09:50:26Z</time>
      </trkpt>
      <trkpt lat="43.05626" lon="2.63041">
        <ele>231.423352</ele>
        <time>2016-06-03T09:50:28Z</time>
      </trkpt>
      <trkpt lat="43.05633" lon="2.63036">
        <ele>230.799781</ele>
        <time>2016-06-03T09:50:29Z</time>
      </trkpt>
      <trkpt lat="43.05648" lon="2.63041">
        <ele>229.472536</ele>
        <time>2016-06-03T09:50:31Z</time>
      </trkpt>
      <trkpt lat="43.05663" lon="2.63055">
        <ele>229.074234</ele>
        <time>2016-06-03T09:50:33Z</time>
      </trkpt>
      <trkpt lat="43.05682" lon="2.63064">
        <ele>228.905133</ele>
        <time>2016-06-03T09:50:35Z</time>
      </trkpt>
      <trkpt lat="43.05693" lon="2.63066">
        <ele>229.218277</ele>
        <time>2016-06-03T09:50:36Z</time>
      </trkpt>
      <trkpt lat="43.05715" lon="2.63049">
        <ele>227.628737</ele>
        <time>2016-06-03T09:50:38Z</time>
      </trkpt>
      <trkpt lat="43.05757" lon="2.62976">
        <ele>227.463201</ele>
        <time>2016-06-03T09:50:42Z</time>
      </trkpt>
      <trkpt lat="43.05789" lon="2.6291">
        <ele>226.735059</ele>
        <time>2016-06-03T09:50:45Z</time>
      </trkpt>
      <trkpt lat="43.05812" lon="2.62807">
        <ele>220.605517</ele>
        <time>2016-06-03T09:50:49Z</time>
      </trkpt>
      <trkpt lat="43.05826" lon="2.6274">
        <ele>219.071213</ele>
        <time>2016-06-03T09:50:52Z</time>
      </trkpt>
      <trkpt lat="43.05828" lon="2.62691">
        <ele>219.648773</ele>
        <time>2016-06-03T09:50:54Z</time>
      </trkpt>
      <trkpt lat="43.05816" lon="2.62598">
        <ele>215.282891</ele>
        <time>2016-06-03T09:50:58Z</time>
      </trkpt>
      <trkpt lat="43.05808" lon="2.62545">
        <ele>213.64646</ele>
        <time>2016-06-03T09:51:01Z</time>
      </trkpt>
      <trkpt lat="43.05819" lon="2.62522">
        <ele>211.283526</ele>
        <time>2016-06-03T09:51:03Z</time>
      </trkpt>
      <trkpt lat="43.05839" lon="2.62506">
        <ele>210.761673</ele>
        <time>2016-06-03T09:51:05Z</time>
      </trkpt>
      <trkpt lat="43.05862" lon="2.62496">
        <ele>210.78233</ele>
        <time>2016-06-03T09:51:07Z</time>
      </trkpt>
      <trkpt lat="43.05888" lon="2.62476">
        <ele>211.223634</ele>
        <time>2016-06-03T09:51:09Z</time>
      </trkpt>
      <trkpt lat="43.05926" lon="2.62434">
        <ele>207.424437</ele>
        <time>2016-06-03T09:51:12Z</time>
      </trkpt>
      <trkpt lat="43.05946" lon="2.62408">
        <ele>205.881824</ele>
        <time>2016-06-03T09:51:14Z</time>
      </trkpt>
      <trkpt lat="43.05963" lon="2.62378">
        <ele>206.031056</ele>
        <time>2016-06-03T09:51:16Z</time>
      </trkpt>
      <trkpt lat="43.05954" lon="2.62308">
        <ele>204.141309</ele>
        <time>2016-06-03T09:51:19Z</time>
      </trkpt>
      <trkpt lat="43.05959" lon="2.62273">
        <ele>203.437332</ele>
        <time>2016-06-03T09:51:21Z</time>
      </trkpt>
      <trkpt lat="43.05979" lon="2.62243">
        <ele>203.001077</ele>
        <time>2016-06-03T09:51:23Z</time>
      </trkpt>
      <trkpt lat="43.06027" lon="2.62204">
        <ele>200.922113</ele>
        <time>2016-06-03T09:51:26Z</time>
      </trkpt>
      <trkpt lat="43.0607" lon="2.62172">
        <ele>198.52898</ele>
        <time>2016-06-03T09:51:29Z</time>
      </trkpt>
      <trkpt lat="43.06092" lon="2.62145">
        <ele>197.244288</ele>
        <time>2016-06-03T09:51:31Z</time>
      </trkpt>
      <trkpt lat="43.06104" lon="2.62106">
        <ele>198.122498</ele>
        <time>2016-06-03T09:51:33Z</time>
      </trkpt>
      <trkpt lat="43.06119" lon="2.62005">
        <ele>195.234943</ele>
        <time>2016-06-03T09:51:37Z</time>
      </trkpt>
      <trkpt lat="43.06134" lon="2.619">
        <ele>189.945884</ele>
        <time>2016-06-03T09:51:41Z</time>
      </trkpt>
      <trkpt lat="43.06135" lon="2.61853">
        <ele>187.158812</ele>
        <time>2016-06-03T09:51:43Z</time>
      </trkpt>
      <trkpt lat="43.0613" lon="2.61813">
        <ele>186.146164</ele>
        <time>2016-06-03T09:51:45Z</time>
      </trkpt>
      <trkpt lat="43.06119" lon="2.61768">
        <ele>186.631011</ele>
        <time>2016-06-03T09:51:48Z</time>
      </trkpt>
      <trkpt lat="43.06124" lon="2.61761">
        <ele>186.218168</ele>
        <time>2016-06-03T09:51:49Z</time>
      </trkpt>
      <trkpt lat="43.06126" lon="2.61748">
        <ele>184.998743</ele>
        <time>2016-06-03T09:51:50Z</time>
      </trkpt>
      <trkpt lat="43.06156" lon="2.61725">
        <ele>184.37583</ele>
        <time>2016-06-03T09:51:53Z</time>
      </trkpt>
      <trkpt lat="43.06173" lon="2.61698">
        <ele>184.101373</ele>
        <time>2016-06-03T09:51:55Z</time>
      </trkpt>
      <trkpt lat="43.06193" lon="2.61638">
        <ele>181.783529</ele>
        <time>2016-06-03T09:51:58Z</time>
      </trkpt>
      <trkpt lat="43.06221" lon="2.61548">
        <ele>180.268601</ele>
        <time>2016-06-03T09:52:02Z</time>
      </trkpt>
      <trkpt lat="43.06238" lon="2.61505">
        <ele>178.939647</ele>
        <time>2016-06-03T09:52:04Z</time>
      </trkpt>
      <trkpt lat="43.06288" lon="2.61418">
        <ele>175.565982</ele>
        <time>2016-06-03T09:52:08Z</time>
      </trkpt>
      <trkpt lat="43.06341" lon="2.61328">
        <ele>172.00418</ele>
        <time>2016-06-03T09:52:12Z</time>
      </trkpt>
      <trkpt lat="43.06383" lon="2.61259">
        <ele>170.58407</ele>
        <time>2016-06-03T09:52:15Z</time>
      </trkpt>
      <trkpt lat="43.06435" lon="2.61167">
        <ele>162.735733</ele>
        <time>2016-06-03T09:52:20Z</time>
      </trkpt>
      <trkpt lat="43.06447" lon="2.61129">
        <ele>163.713371</ele>
        <time>2016-06-03T09:52:22Z</time>
      </trkpt>
      <trkpt lat="43.06459" lon="2.61065">
        <ele>160.143456</ele>
        <time>2016-06-03T09:52:25Z</time>
      </trkpt>
      <trkpt lat="43.06474" lon="2.61026">
        <ele>159.039209</ele>
        <time>2016-06-03T09:52:27Z</time>
      </trkpt>
      <trkpt lat="43.06501" lon="2.60978">
        <ele>156.511957</ele>
        <time>2016-06-03T09:52:30Z</time>
      </trkpt>
      <trkpt lat="43.06523" lon="2.60957">
        <ele>155.067072</ele>
        <time>2016-06-03T09:52:32Z</time>
      </trkpt>
      <trkpt lat="43.06548" lon="2.60947">
        <ele>153.655258</ele>
        <time>2016-06-03T09:52:34Z</time>
      </trkpt>
      <trkpt lat="43.0657" lon="2.60945">
        <ele>153.026068</ele>
        <time>2016-06-03T09:52:36Z</time>
      </trkpt>
      <trkpt lat="43.06581" lon="2.6094">
        <ele>152.207987</ele>
        <time>2016-06-03T09:52:37Z</time>
      </trkpt>
      <trkpt lat="43.06598" lon="2.60919">
        <ele>152.494147</ele>
        <time>2016-06-03T09:52:39Z</time>
      </trkpt>
      <trkpt lat="43.06608" lon="2.6089">
        <ele>151.090756</ele>
        <time>2016-06-03T09:52:41Z</time>
      </trkpt>
      <trkpt lat="43.06617" lon="2.60853">
        <ele>150.208616</ele>
        <time>2016-06-03T09:52:44Z</time>
      </trkpt>
      <trkpt lat="43.06624" lon="2.60832">
        <ele>150.577577</ele>
        <time>2016-06-03T09:52:47Z</time>
      </trkpt>
      <trkpt lat="43.06626" lon="2.60825">
        <ele>151.270488</ele>
        <time>2016-06-03T09:52:49Z</time>
      </trkpt>
      <trkpt lat="43.06626" lon="2.60819">
        <ele>151.882563</ele>
        <time>2016-06-03T09:52:51Z</time>
      </trkpt>
      <trkpt lat="43.06615" lon="2.60795">
        <ele>152.49101</ele>
        <time>2016-06-03T09:52:54Z</time>
      </trkpt>
      <trkpt lat="43.06603" lon="2.60758">
        <ele>155.777065</ele>
        <time>2016-06-03T09:52:57Z</time>
      </trkpt>
      <trkpt lat="43.06595" lon="2.60728">
        <ele>157.26144</ele>
        <time>2016-06-03T09:52:59Z</time>
      </trkpt>
      <trkpt lat="43.06581" lon="2.60701">
        <ele>157.451931</ele>
        <time>2016-06-03T09:53:01Z</time>
      </trkpt>
      <trkpt lat="43.06559" lon="2.60674">
        <ele>157.313208</ele>
        <time>2016-06-03T09:53:03Z</time>
      </trkpt>
      <trkpt lat="43.06526" lon="2.60641">
        <ele>158.92222</ele>
        <time>2016-06-03T09:53:06Z</time>
      </trkpt>
      <trkpt lat="43.06509" lon="2.60612">
        <ele>159.832704</ele>
        <time>2016-06-03T09:53:08Z</time>
      </trkpt>
      <trkpt lat="43.06497" lon="2.60577">
        <ele>162.005836</ele>
        <time>2016-06-03T09:53:10Z</time>
      </trkpt>
      <trkpt lat="43.06484" lon="2.6052">
        <ele>163.186386</ele>
        <time>2016-06-03T09:53:13Z</time>
      </trkpt>
      <trkpt lat="43.06467" lon="2.60484">
        <ele>164.075852</ele>
        <time>2016-06-03T09:53:15Z</time>
      </trkpt>
      <trkpt lat="43.06422" lon="2.60407">
        <ele>164.422357</ele>
        <time>2016-06-03T09:53:19Z</time>
      </trkpt>
      <trkpt lat="43.06373" lon="2.60327">
        <ele>166.141446</ele>
        <time>2016-06-03T09:53:23Z</time>
      </trkpt>
      <trkpt lat="43.06336" lon="2.60264">
        <ele>165.167672</ele>
        <time>2016-06-03T09:53:27Z</time>
      </trkpt>
      <trkpt lat="43.06321" lon="2.60248">
        <ele>165.500953</ele>
        <time>2016-06-03T09:53:29Z</time>
      </trkpt>
      <trkpt lat="43.06302" lon="2.60246">
        <ele>165.367549</ele>
        <time>2016-06-03T09:53:31Z</time>
      </trkpt>
      <trkpt lat="43.06266" lon="2.6026">
        <ele>163.411187</ele>
        <time>2016-06-03T09:53:34Z</time>
      </trkpt>
      <trkpt lat="43.06242" lon="2.60258">
        <ele>162.347779</ele>
        <time>2016-06-03T09:53:36Z</time>
      </trkpt>
      <trkpt lat="43.06211" lon="2.60243">
        <ele>160.563086</ele>
        <time>2016-06-03T09:53:39Z</time>
      </trkpt>
      <trkpt lat="43.06189" lon="2.60243">
        <ele>160.729892</ele>
        <time>2016-06-03T09:53:41Z</time>
      </trkpt>
      <trkpt lat="43.06168" lon="2.60255">
        <ele>158.542988</ele>
        <time>2016-06-03T09:53:43Z</time>
      </trkpt>
      <trkpt lat="43.06137" lon="2.60298">
        <ele>158.282315</ele>
        <time>2016-06-03T09:53:46Z</time>
      </trkpt>
      <trkpt lat="43.06101" lon="2.60338">
        <ele>156.473204</ele>
        <time>2016-06-03T09:53:49Z</time>
      </trkpt>
      <trkpt lat="43.06066" lon="2.60377">
        <ele>155.813514</ele>
        <time>2016-06-03T09:53:52Z</time>
      </trkpt>
      <trkpt lat="43.06014" lon="2.6043">
        <ele>153.362597</ele>
        <time>2016-06-03T09:53:57Z</time>
      </trkpt>
      <trkpt lat="43.05986" lon="2.60458">
        <ele>151.433031</ele>
        <time>2016-06-03T09:54:00Z</time>
      </trkpt>
      <trkpt lat="43.05968" lon="2.60472">
        <ele>150.722463</ele>
        <time>2016-06-03T09:54:02Z</time>
      </trkpt>
      <trkpt lat="43.05949" lon="2.6048">
        <ele>150.09686</ele>
        <time>2016-06-03T09:54:04Z</time>
      </trkpt>
      <trkpt lat="43.05931" lon="2.60484">
        <ele>149.506113</ele>
        <time>2016-06-03T09:54:06Z</time>
      </trkpt>
      <trkpt lat="43.05916" lon="2.60494">
        <ele>149.109513</ele>
        <time>2016-06-03T09:54:08Z</time>
      </trkpt>
      <trkpt lat="43.05898" lon="2.6051">
        <ele>148.250122</ele>
        <time>2016-06-03T09:54:11Z</time>
      </trkpt>
      <trkpt lat="43.05886" lon="2.6051">
        <ele>148.288364</ele>
        <time>2016-06-03T09:54:13Z</time>
      </trkpt>
      <trkpt lat="43.05862" lon="2.60499">
        <ele>148.502326</ele>
        <time>2016-06-03T09:54:16Z</time>
      </trkpt>
      <trkpt lat="43.05851" lon="2.6049">
        <ele>148.643273</ele>
        <time>2016-06-03T09:54:18Z</time>
      </trkpt>
      <trkpt lat="43.05841" lon="2.60471">
        <ele>148.470033</ele>
        <time>2016-06-03T09:54:21Z</time>
      </trkpt>
      <trkpt lat="43.05841" lon="2.60447">
        <ele>149.232248</ele>
        <time>2016-06-03T09:54:24Z</time>
      </trkpt>
      <trkpt lat="43.05849" lon="2.60409">
        <ele>149.564276</ele>
        <time>2016-06-03T09:54:28Z</time>
      </trkpt>
      <trkpt lat="43.05852" lon="2.60392">
        <ele>149.322412</ele>
        <time>2016-06-03T09:54:30Z</time>
      </trkpt>
      <trkpt lat="43.05854" lon="2.60388">
        <ele>149.538864</ele>
        <time>2016-06-03T09:54:31Z</time>
      </trkpt>
      <trkpt lat="43.05856" lon="2.60361">
        <ele>149.653045</ele>
        <time>2016-06-03T09:54:34Z</time>
      </trkpt>
      <trkpt lat="43.05853" lon="2.60331">
        <ele>150.374786</ele>
        <time>2016-06-03T09:54:37Z</time>
      </trkpt>
      <trkpt lat="43.05849" lon="2.60321">
        <ele>150.730723</ele>
        <time>2016-06-03T09:54:38Z</time>
      </trkpt>
      <trkpt lat="43.05851" lon="2.60309">
        <ele>150.492961</ele>
        <time>2016-06-03T09:54:39Z</time>
      </trkpt>
      <trkpt lat="43.05843" lon="2.60293">
        <ele>150.985841</ele>
        <time>2016-06-03T09:54:41Z</time>
      </trkpt>
      <trkpt lat="43.0582" lon="2.60273">
        <ele>151.493307</ele>
        <time>2016-06-03T09:54:44Z</time>
      </trkpt>
      <trkpt lat="43.05794" lon="2.60255">
        <ele>151.948806</ele>
        <time>2016-06-03T09:54:47Z</time>
      </trkpt>
      <trkpt lat="43.0576" lon="2.60239">
        <ele>151.476917</ele>
        <time>2016-06-03T09:54:50Z</time>
      </trkpt>
      <trkpt lat="43.05734" lon="2.60225">
        <ele>153.887913</ele>
        <time>2016-06-03T09:54:53Z</time>
      </trkpt>
      <trkpt lat="43.05721" lon="2.60211">
        <ele>154.077805</ele>
        <time>2016-06-03T09:54:55Z</time>
      </trkpt>
      <trkpt lat="43.05715" lon="2.60196">
        <ele>154.841022</ele>
        <time>2016-06-03T09:54:57Z</time>
      </trkpt>
      <trkpt lat="43.05706" lon="2.60183">
        <ele>155.24991</ele>
        <time>2016-06-03T09:55:00Z</time>
      </trkpt>
      <trkpt lat="43.05692" lon="2.6015">
        <ele>156.11822</ele>
        <time>2016-06-03T09:55:04Z</time>
      </trkpt>
      <trkpt lat="43.05677" lon="2.60122">
        <ele>155.999315</ele>
        <time>2016-06-03T09:55:06Z</time>
      </trkpt>
      <trkpt lat="43.05678" lon="2.60115">
        <ele>156.282744</ele>
        <time>2016-06-03T09:55:07Z</time>
      </trkpt>
      <trkpt lat="43.05657" lon="2.60078">
        <ele>157.556202</ele>
        <time>2016-06-03T09:55:10Z</time>
      </trkpt>
      <trkpt lat="43.05629" lon="2.60054">
        <ele>157.892891</ele>
        <time>2016-06-03T09:55:13Z</time>
      </trkpt>
      <trkpt lat="43.05618" lon="2.60026">
        <ele>158.842285</ele>
        <time>2016-06-03T09:55:15Z</time>
      </trkpt>
      <trkpt lat="43.05618" lon="2.59992">
        <ele>161.060815</ele>
        <time>2016-06-03T09:55:17Z</time>
      </trkpt>
      <trkpt lat="43.05622" lon="2.59957">
        <ele>160.86982</ele>
        <time>2016-06-03T09:55:19Z</time>
      </trkpt>
      <trkpt lat="43.05622" lon="2.59925">
        <ele>162.070107</ele>
        <time>2016-06-03T09:55:21Z</time>
      </trkpt>
      <trkpt lat="43.05614" lon="2.59892">
        <ele>161.982382</ele>
        <time>2016-06-03T09:55:23Z</time>
      </trkpt>
      <trkpt lat="43.05604" lon="2.59864">
        <ele>161.08743</ele>
        <time>2016-06-03T09:55:25Z</time>
      </trkpt>
      <trkpt lat="43.05597" lon="2.59835">
        <ele>161.883047</ele>
        <time>2016-06-03T09:55:27Z</time>
      </trkpt>
      <trkpt lat="43.05604" lon="2.59791">
        <ele>162.788316</ele>
        <time>2016-06-03T09:55:29Z</time>
      </trkpt>
      <trkpt lat="43.05607" lon="2.59734">
        <ele>163.219843</ele>
        <time>2016-06-03T09:55:32Z</time>
      </trkpt>
      <trkpt lat="43.05601" lon="2.59669">
        <ele>165.039648</ele>
        <time>2016-06-03T09:55:35Z</time>
      </trkpt>
      <trkpt lat="43.05605" lon="2.59604">
        <ele>165.497872</ele>
        <time>2016-06-03T09:55:38Z</time>
      </trkpt>
      <trkpt lat="43.05607" lon="2.59535">
        <ele>168.630051</ele>
        <time>2016-06-03T09:55:41Z</time>
      </trkpt>
      <trkpt lat="43.05619" lon="2.59466">
        <ele>168.84212</ele>
        <time>2016-06-03T09:55:44Z</time>
      </trkpt>
      <trkpt lat="43.05626" lon="2.59418">
        <ele>170.999763</ele>
        <time>2016-06-03T09:55:46Z</time>
      </trkpt>
      <trkpt lat="43.05634" lon="2.59371">
        <ele>171.541003</ele>
        <time>2016-06-03T09:55:48Z</time>
      </trkpt>
      <trkpt lat="43.05637" lon="2.5932">
        <ele>172.67675</ele>
        <time>2016-06-03T09:55:50Z</time>
      </trkpt>
      <trkpt lat="43.05637" lon="2.59254">
        <ele>171.979667</ele>
        <time>2016-06-03T09:55:53Z</time>
      </trkpt>
      <trkpt lat="43.05636" lon="2.59224">
        <ele>172.871166</ele>
        <time>2016-06-03T09:55:55Z</time>
      </trkpt>
      <trkpt lat="43.05632" lon="2.59202">
        <ele>172.728527</ele>
        <time>2016-06-03T09:55:57Z</time>
      </trkpt>
      <trkpt lat="43.05621" lon="2.59189">
        <ele>172.562305</ele>
        <time>2016-06-03T09:55:59Z</time>
      </trkpt>
      <trkpt lat="43.05613" lon="2.59185">
        <ele>172.562305</ele>
        <time>2016-06-03T09:56:00Z</time>
      </trkpt>
      <trkpt lat="43.0558" lon="2.59184">
        <ele>172.813862</ele>
        <time>2016-06-03T09:56:02Z</time>
      </trkpt>
      <trkpt lat="43.05566" lon="2.59181">
        <ele>171.866538</ele>
        <time>2016-06-03T09:56:03Z</time>
      </trkpt>
      <trkpt lat="43.05537" lon="2.59162">
        <ele>171.980963</ele>
        <time>2016-06-03T09:56:05Z</time>
      </trkpt>
      <trkpt lat="43.05508" lon="2.59147">
        <ele>171.891249</ele>
        <time>2016-06-03T09:56:07Z</time>
      </trkpt>
      <trkpt lat="43.05468" lon="2.59136">
        <ele>171.611666</ele>
        <time>2016-06-03T09:56:10Z</time>
      </trkpt>
      <trkpt lat="43.05452" lon="2.59119">
        <ele>170.643642</ele>
        <time>2016-06-03T09:56:13Z</time>
      </trkpt>
      <trkpt lat="43.05429" lon="2.59072">
        <ele>170.455767</ele>
        <time>2016-06-03T09:56:16Z</time>
      </trkpt>
      <trkpt lat="43.05417" lon="2.59036">
        <ele>169.736581</ele>
        <time>2016-06-03T09:56:17Z</time>
      </trkpt>
      <trkpt lat="43.0541" lon="2.58997">
        <ele>168.606593</ele>
        <time>2016-06-03T09:56:20Z</time>
      </trkpt>
      <trkpt lat="43.05399" lon="2.58962">
        <ele>168.680488</ele>
        <time>2016-06-03T09:56:22Z</time>
      </trkpt>
      <trkpt lat="43.05395" lon="2.58923">
        <ele>168.611772</ele>
        <time>2016-06-03T09:56:24Z</time>
      </trkpt>
      <trkpt lat="43.05394" lon="2.58859">
        <ele>165.862203</ele>
        <time>2016-06-03T09:56:27Z</time>
      </trkpt>
      <trkpt lat="43.05389" lon="2.58821">
        <ele>165.475628</ele>
        <time>2016-06-03T09:56:29Z</time>
      </trkpt>
      <trkpt lat="43.05375" lon="2.58767">
        <ele>164.991006</ele>
        <time>2016-06-03T09:56:32Z</time>
      </trkpt>
      <trkpt lat="43.05359" lon="2.58719">
        <ele>163.194067</ele>
        <time>2016-06-03T09:56:35Z</time>
      </trkpt>
      <trkpt lat="43.05354" lon="2.58699">
        <ele>163.674382</ele>
        <time>2016-06-03T09:56:36Z</time>
      </trkpt>
      <trkpt lat="43.05333" lon="2.58676">
        <ele>161.809712</ele>
        <time>2016-06-03T09:56:38Z</time>
      </trkpt>
      <trkpt lat="43.05325" lon="2.58662">
        <ele>162.157487</ele>
        <time>2016-06-03T09:56:39Z</time>
      </trkpt>
      <trkpt lat="43.05301" lon="2.58654">
        <ele>161.910197</ele>
        <time>2016-06-03T09:56:41Z</time>
      </trkpt>
      <trkpt lat="43.05291" lon="2.58647">
        <ele>162.135809</ele>
        <time>2016-06-03T09:56:42Z</time>
      </trkpt>
      <trkpt lat="43.05261" lon="2.58649">
        <ele>161.921557</ele>
        <time>2016-06-03T09:56:44Z</time>
      </trkpt>
      <trkpt lat="43.05215" lon="2.58681">
        <ele>163.071985</ele>
        <time>2016-06-03T09:56:47Z</time>
      </trkpt>
      <trkpt lat="43.05144" lon="2.58721">
        <ele>161.102856</ele>
        <time>2016-06-03T09:56:51Z</time>
      </trkpt>
      <trkpt lat="43.05073" lon="2.58764">
        <ele>163.817306</ele>
        <time>2016-06-03T09:56:55Z</time>
      </trkpt>
      <trkpt lat="43.0501" lon="2.58809">
        <ele>164.410512</ele>
        <time>2016-06-03T09:56:59Z</time>
      </trkpt>
      <trkpt lat="43.04967" lon="2.58837">
        <ele>163.460774</ele>
        <time>2016-06-03T09:57:02Z</time>
      </trkpt>
      <trkpt lat="43.04954" lon="2.58846">
        <ele>164.419538</ele>
        <time>2016-06-03T09:57:03Z</time>
      </trkpt>
      <trkpt lat="43.04931" lon="2.58883">
        <ele>166.074633</ele>
        <time>2016-06-03T09:57:05Z</time>
      </trkpt>
      <trkpt lat="43.0489" lon="2.58928">
        <ele>166.384795</ele>
        <time>2016-06-03T09:57:08Z</time>
      </trkpt>
      <trkpt lat="43.04837" lon="2.58973">
        <ele>166.573818</ele>
        <time>2016-06-03T09:57:12Z</time>
      </trkpt>
      <trkpt lat="43.0481" lon="2.58989">
        <ele>167.048827</ele>
        <time>2016-06-03T09:57:14Z</time>
      </trkpt>
      <trkpt lat="43.04781" lon="2.58996">
        <ele>166.866879</ele>
        <time>2016-06-03T09:57:16Z</time>
      </trkpt>
      <trkpt lat="43.04753" lon="2.58994">
        <ele>165.369265</ele>
        <time>2016-06-03T09:57:18Z</time>
      </trkpt>
      <trkpt lat="43.0474" lon="2.5899">
        <ele>165.089886</ele>
        <time>2016-06-03T09:57:19Z</time>
      </trkpt>
      <trkpt lat="43.04717" lon="2.58969">
        <ele>164.80141</ele>
        <time>2016-06-03T09:57:21Z</time>
      </trkpt>
      <trkpt lat="43.04689" lon="2.58938">
        <ele>163.614809</ele>
        <time>2016-06-03T09:57:24Z</time>
      </trkpt>
      <trkpt lat="43.0468" lon="2.5891">
        <ele>164.534232</ele>
        <time>2016-06-03T09:57:26Z</time>
      </trkpt>
      <trkpt lat="43.04687" lon="2.58886">
        <ele>165.306644</ele>
        <time>2016-06-03T09:57:27Z</time>
      </trkpt>
      <trkpt lat="43.04683" lon="2.58833">
        <ele>165.227147</ele>
        <time>2016-06-03T09:57:30Z</time>
      </trkpt>
      <trkpt lat="43.04687" lon="2.58795">
        <ele>165.230425</ele>
        <time>2016-06-03T09:57:32Z</time>
      </trkpt>
      <trkpt lat="43.04707" lon="2.58741">
        <ele>165.702771</ele>
        <time>2016-06-03T09:57:35Z</time>
      </trkpt>
      <trkpt lat="43.04727" lon="2.58706">
        <ele>165.915558</ele>
        <time>2016-06-03T09:57:37Z</time>
      </trkpt>
      <trkpt lat="43.04766" lon="2.58656">
        <ele>166.26995</ele>
        <time>2016-06-03T09:57:40Z</time>
      </trkpt>
      <trkpt lat="43.04807" lon="2.58616">
        <ele>165.680313</ele>
        <time>2016-06-03T09:57:43Z</time>
      </trkpt>
      <trkpt lat="43.04828" lon="2.58599">
        <ele>165.69985</ele>
        <time>2016-06-03T09:57:45Z</time>
      </trkpt>
      <trkpt lat="43.04854" lon="2.58568">
        <ele>166.100971</ele>
        <time>2016-06-03T09:57:48Z</time>
      </trkpt>
      <trkpt lat="43.04867" lon="2.58544">
        <ele>166.506912</ele>
        <time>2016-06-03T09:57:50Z</time>
      </trkpt>
      <trkpt lat="43.04868" lon="2.58497">
        <ele>166.853228</ele>
        <time>2016-06-03T09:57:52Z</time>
      </trkpt>
      <trkpt lat="43.04873" lon="2.58441">
        <ele>166.991264</ele>
        <time>2016-06-03T09:57:55Z</time>
      </trkpt>
      <trkpt lat="43.04874" lon="2.58408">
        <ele>166.564368</ele>
        <time>2016-06-03T09:57:57Z</time>
      </trkpt>
      <trkpt lat="43.04862" lon="2.58378">
        <ele>167.430031</ele>
        <time>2016-06-03T09:57:59Z</time>
      </trkpt>
      <trkpt lat="43.04857" lon="2.5836">
        <ele>167.910614</ele>
        <time>2016-06-03T09:58:00Z</time>
      </trkpt>
      <trkpt lat="43.04849" lon="2.58347">
        <ele>168.144165</ele>
        <time>2016-06-03T09:58:01Z</time>
      </trkpt>
      <trkpt lat="43.04806" lon="2.58323">
        <ele>166.822756</ele>
        <time>2016-06-03T09:58:04Z</time>
      </trkpt>
      <trkpt lat="43.04776" lon="2.58304">
        <ele>167.576831</ele>
        <time>2016-06-03T09:58:06Z</time>
      </trkpt>
      <trkpt lat="43.04742" lon="2.58295">
        <ele>166.549691</ele>
        <time>2016-06-03T09:58:08Z</time>
      </trkpt>
      <trkpt lat="43.04687" lon="2.58286">
        <ele>166.833715</ele>
        <time>2016-06-03T09:58:11Z</time>
      </trkpt>
      <trkpt lat="43.04635" lon="2.58268">
        <ele>165.338946</ele>
        <time>2016-06-03T09:58:14Z</time>
      </trkpt>
      <trkpt lat="43.04589" lon="2.58258">
        <ele>166.567623</ele>
        <time>2016-06-03T09:58:17Z</time>
      </trkpt>
      <trkpt lat="43.04561" lon="2.58256">
        <ele>166.681016</ele>
        <time>2016-06-03T09:58:19Z</time>
      </trkpt>
      <trkpt lat="43.04532" lon="2.58265">
        <ele>168.183966</ele>
        <time>2016-06-03T09:58:21Z</time>
      </trkpt>
      <trkpt lat="43.04494" lon="2.58288">
        <ele>166.262409</ele>
        <time>2016-06-03T09:58:24Z</time>
      </trkpt>
      <trkpt lat="43.04473" lon="2.58299">
        <ele>166.522881</ele>
        <time>2016-06-03T09:58:26Z</time>
      </trkpt>
      <trkpt lat="43.04455" lon="2.58312">
        <ele>167.029778</ele>
        <time>2016-06-03T09:58:28Z</time>
      </trkpt>
      <trkpt lat="43.04436" lon="2.58314">
        <ele>167.206325</ele>
        <time>2016-06-03T09:58:31Z</time>
      </trkpt>
      <trkpt lat="43.04428" lon="2.58316">
        <ele>167.405149</ele>
        <time>2016-06-03T09:58:33Z</time>
      </trkpt>
      <trkpt lat="43.04421" lon="2.58315">
        <ele>167.621132</ele>
        <time>2016-06-03T09:58:36Z</time>
      </trkpt>
      <trkpt lat="43.04416" lon="2.58314">
        <ele>167.71765</ele>
        <time>2016-06-03T09:58:39Z</time>
      </trkpt>
      <trkpt lat="43.0441" lon="2.58312">
        <ele>167.91896</ele>
        <time>2016-06-03T09:58:42Z</time>
      </trkpt>
      <trkpt lat="43.04404" lon="2.58309">
        <ele>167.86468</ele>
        <time>2016-06-03T09:58:45Z</time>
      </trkpt>
      <trkpt lat="43.04394" lon="2.58307">
        <ele>167.958319</ele>
        <time>2016-06-03T09:58:48Z</time>
      </trkpt>
      <trkpt lat="43.04365" lon="2.58294">
        <ele>168.173354</ele>
        <time>2016-06-03T09:58:52Z</time>
      </trkpt>
      <trkpt lat="43.04351" lon="2.58283">
        <ele>168.758636</ele>
        <time>2016-06-03T09:58:54Z</time>
      </trkpt>
      <trkpt lat="43.04336" lon="2.58267">
        <ele>168.388923</ele>
        <time>2016-06-03T09:58:56Z</time>
      </trkpt>
      <trkpt lat="43.04341" lon="2.58232">
        <ele>169.731491</ele>
        <time>2016-06-03T09:58:58Z</time>
      </trkpt>
      <trkpt lat="43.04338" lon="2.58196">
        <ele>170.700296</ele>
        <time>2016-06-03T09:59:00Z</time>
      </trkpt>
      <trkpt lat="43.04334" lon="2.5816">
        <ele>169.936543</ele>
        <time>2016-06-03T09:59:02Z</time>
      </trkpt>
      <trkpt lat="43.04337" lon="2.58099">
        <ele>170.539556</ele>
        <time>2016-06-03T09:59:05Z</time>
      </trkpt>
      <trkpt lat="43.04338" lon="2.58024">
        <ele>171.093974</ele>
        <time>2016-06-03T09:59:08Z</time>
      </trkpt>
      <trkpt lat="43.0434" lon="2.57952">
        <ele>173.227505</ele>
        <time>2016-06-03T09:59:11Z</time>
      </trkpt>
      <trkpt lat="43.0433" lon="2.57876">
        <ele>173.186218</ele>
        <time>2016-06-03T09:59:14Z</time>
      </trkpt>
      <trkpt lat="43.04316" lon="2.5781">
        <ele>174.382885</ele>
        <time>2016-06-03T09:59:17Z</time>
      </trkpt>
      <trkpt lat="43.04291" lon="2.57743">
        <ele>173.425721</ele>
        <time>2016-06-03T09:59:20Z</time>
      </trkpt>
      <trkpt lat="43.0427" lon="2.5768">
        <ele>174.273342</ele>
        <time>2016-06-03T09:59:23Z</time>
      </trkpt>
      <trkpt lat="43.0424" lon="2.5763">
        <ele>176.287343</ele>
        <time>2016-06-03T09:59:26Z</time>
      </trkpt>
      <trkpt lat="43.04205" lon="2.57574">
        <ele>175.732364</ele>
        <time>2016-06-03T09:59:29Z</time>
      </trkpt>
      <trkpt lat="43.04168" lon="2.57528">
        <ele>174.42974</ele>
        <time>2016-06-03T09:59:32Z</time>
      </trkpt>
      <trkpt lat="43.04145" lon="2.57505">
        <ele>173.250149</ele>
        <time>2016-06-03T09:59:34Z</time>
      </trkpt>
      <trkpt lat="43.04123" lon="2.5749">
        <ele>173.091902</ele>
        <time>2016-06-03T09:59:36Z</time>
      </trkpt>
      <trkpt lat="43.04108" lon="2.5747">
        <ele>173.843518</ele>
        <time>2016-06-03T09:59:38Z</time>
      </trkpt>
      <trkpt lat="43.04093" lon="2.5744">
        <ele>174.659231</ele>
        <time>2016-06-03T09:59:40Z</time>
      </trkpt>
      <trkpt lat="43.04069" lon="2.57378">
        <ele>174.542227</ele>
        <time>2016-06-03T09:59:43Z</time>
      </trkpt>
      <trkpt lat="43.04051" lon="2.57332">
        <ele>173.961356</ele>
        <time>2016-06-03T09:59:45Z</time>
      </trkpt>
      <trkpt lat="43.04002" lon="2.57238">
        <ele>172.774711</ele>
        <time>2016-06-03T09:59:49Z</time>
      </trkpt>
      <trkpt lat="43.03979" lon="2.57202">
        <ele>172.181645</ele>
        <time>2016-06-03T09:59:51Z</time>
      </trkpt>
      <trkpt lat="43.03959" lon="2.57144">
        <ele>174.444367</ele>
        <time>2016-06-03T09:59:54Z</time>
      </trkpt>
      <trkpt lat="43.03953" lon="2.57124">
        <ele>174.109242</ele>
        <time>2016-06-03T09:59:55Z</time>
      </trkpt>
      <trkpt lat="43.03949" lon="2.57075">
        <ele>173.651797</ele>
        <time>2016-06-03T09:59:57Z</time>
      </trkpt>
      <trkpt lat="43.03942" lon="2.57035">
        <ele>173.353622</ele>
        <time>2016-06-03T09:59:59Z</time>
      </trkpt>
      <trkpt lat="43.03942" lon="2.56976">
        <ele>174.355846</ele>
        <time>2016-06-03T10:00:02Z</time>
      </trkpt>
      <trkpt lat="43.03949" lon="2.56939">
        <ele>174.086685</ele>
        <time>2016-06-03T10:00:04Z</time>
      </trkpt>
      <trkpt lat="43.03962" lon="2.56908">
        <ele>175.401438</ele>
        <time>2016-06-03T10:00:06Z</time>
      </trkpt>
      <trkpt lat="43.04002" lon="2.56852">
        <ele>175.908956</ele>
        <time>2016-06-03T10:00:10Z</time>
      </trkpt>
      <trkpt lat="43.04022" lon="2.56814">
        <ele>175.604431</ele>
        <time>2016-06-03T10:00:13Z</time>
      </trkpt>
      <trkpt lat="43.04078" lon="2.56782">
        <ele>177.631659</ele>
        <time>2016-06-03T10:00:17Z</time>
      </trkpt>
      <trkpt lat="43.04136" lon="2.56757">
        <ele>175.604099</ele>
        <time>2016-06-03T10:00:21Z</time>
      </trkpt>
      <trkpt lat="43.04163" lon="2.56736">
        <ele>177.622248</ele>
        <time>2016-06-03T10:00:23Z</time>
      </trkpt>
      <trkpt lat="43.0419" lon="2.56703">
        <ele>178.51667</ele>
        <time>2016-06-03T10:00:25Z</time>
      </trkpt>
      <trkpt lat="43.04215" lon="2.56668">
        <ele>178.919666</ele>
        <time>2016-06-03T10:00:27Z</time>
      </trkpt>
      <trkpt lat="43.04252" lon="2.56634">
        <ele>174.950995</ele>
        <time>2016-06-03T10:00:30Z</time>
      </trkpt>
      <trkpt lat="43.04273" lon="2.56605">
        <ele>176.485164</ele>
        <time>2016-06-03T10:00:33Z</time>
      </trkpt>
      <trkpt lat="43.04282" lon="2.56585">
        <ele>175.853161</ele>
        <time>2016-06-03T10:00:35Z</time>
      </trkpt>
      <trkpt lat="43.04285" lon="2.56558">
        <ele>176.405077</ele>
        <time>2016-06-03T10:00:37Z</time>
      </trkpt>
      <trkpt lat="43.04285" lon="2.56543">
        <ele>176.238119</ele>
        <time>2016-06-03T10:00:38Z</time>
      </trkpt>
      <trkpt lat="43.04276" lon="2.56517">
        <ele>176.785014</ele>
        <time>2016-06-03T10:00:40Z</time>
      </trkpt>
      <trkpt lat="43.04251" lon="2.56492">
        <ele>177.350176</ele>
        <time>2016-06-03T10:00:42Z</time>
      </trkpt>
      <trkpt lat="43.04203" lon="2.56473">
        <ele>177.846858</ele>
        <time>2016-06-03T10:00:45Z</time>
      </trkpt>
      <trkpt lat="43.04153" lon="2.56465">
        <ele>177.001687</ele>
        <time>2016-06-03T10:00:48Z</time>
      </trkpt>
      <trkpt lat="43.04104" lon="2.56465">
        <ele>179.141671</ele>
        <time>2016-06-03T10:00:51Z</time>
      </trkpt>
      <trkpt lat="43.04074" lon="2.56476">
        <ele>176.643747</ele>
        <time>2016-06-03T10:00:53Z</time>
      </trkpt>
      <trkpt lat="43.04052" lon="2.56495">
        <ele>178.235136</ele>
        <time>2016-06-03T10:00:55Z</time>
      </trkpt>
      <trkpt lat="43.04036" lon="2.56528">
        <ele>179.616742</ele>
        <time>2016-06-03T10:00:57Z</time>
      </trkpt>
      <trkpt lat="43.04021" lon="2.56568">
        <ele>179.576088</ele>
        <time>2016-06-03T10:00:59Z</time>
      </trkpt>
      <trkpt lat="43.03999" lon="2.56601">
        <ele>179.811447</ele>
        <time>2016-06-03T10:01:01Z</time>
      </trkpt>
      <trkpt lat="43.03958" lon="2.56648">
        <ele>179.139732</ele>
        <time>2016-06-03T10:01:04Z</time>
      </trkpt>
      <trkpt lat="43.03934" lon="2.5668">
        <ele>179.180707</ele>
        <time>2016-06-03T10:01:06Z</time>
      </trkpt>
      <trkpt lat="43.03911" lon="2.567">
        <ele>179.345645</ele>
        <time>2016-06-03T10:01:08Z</time>
      </trkpt>
      <trkpt lat="43.03885" lon="2.56711">
        <ele>179.337517</ele>
        <time>2016-06-03T10:01:10Z</time>
      </trkpt>
      <trkpt lat="43.03819" lon="2.56717">
        <ele>179.702079</ele>
        <time>2016-06-03T10:01:14Z</time>
      </trkpt>
      <trkpt lat="43.03788" lon="2.56718">
        <ele>179.919231</ele>
        <time>2016-06-03T10:01:16Z</time>
      </trkpt>
      <trkpt lat="43.03746" lon="2.56695">
        <ele>180.596396</ele>
        <time>2016-06-03T10:01:19Z</time>
      </trkpt>
      <trkpt lat="43.03721" lon="2.56679">
        <ele>180.185943</ele>
        <time>2016-06-03T10:01:21Z</time>
      </trkpt>
      <trkpt lat="43.03686" lon="2.56612">
        <ele>180.750884</ele>
        <time>2016-06-03T10:01:25Z</time>
      </trkpt>
      <trkpt lat="43.03675" lon="2.56581">
        <ele>181.09697</ele>
        <time>2016-06-03T10:01:27Z</time>
      </trkpt>
      <trkpt lat="43.03666" lon="2.56547">
        <ele>182.250114</ele>
        <time>2016-06-03T10:01:29Z</time>
      </trkpt>
      <trkpt lat="43.03642" lon="2.56492">
        <ele>182.193593</ele>
        <time>2016-06-03T10:01:32Z</time>
      </trkpt>
      <trkpt lat="43.03602" lon="2.56431">
        <ele>183.704012</ele>
        <time>2016-06-03T10:01:35Z</time>
      </trkpt>
      <trkpt lat="43.0356" lon="2.56371">
        <ele>181.133445</ele>
        <time>2016-06-03T10:01:38Z</time>
      </trkpt>
      <trkpt lat="43.03543" lon="2.56333">
        <ele>181.765715</ele>
        <time>2016-06-03T10:01:40Z</time>
      </trkpt>
      <trkpt lat="43.03536" lon="2.56286">
        <ele>181.777859</ele>
        <time>2016-06-03T10:01:42Z</time>
      </trkpt>
      <trkpt lat="43.03537" lon="2.56211">
        <ele>182.678023</ele>
        <time>2016-06-03T10:01:45Z</time>
      </trkpt>
      <trkpt lat="43.03551" lon="2.5614">
        <ele>182.485781</ele>
        <time>2016-06-03T10:01:48Z</time>
      </trkpt>
      <trkpt lat="43.0356" lon="2.56101">
        <ele>183.172848</ele>
        <time>2016-06-03T10:01:50Z</time>
      </trkpt>
      <trkpt lat="43.03589" lon="2.56071">
        <ele>181.208289</ele>
        <time>2016-06-03T10:01:52Z</time>
      </trkpt>
      <trkpt lat="43.0361" lon="2.56044">
        <ele>182.937758</ele>
        <time>2016-06-03T10:01:54Z</time>
      </trkpt>
      <trkpt lat="43.03638" lon="2.56024">
        <ele>183.592241</ele>
        <time>2016-06-03T10:01:56Z</time>
      </trkpt>
      <trkpt lat="43.03667" lon="2.56017">
        <ele>182.322095</ele>
        <time>2016-06-03T10:01:58Z</time>
      </trkpt>
      <trkpt lat="43.03691" lon="2.56002">
        <ele>183.437209</ele>
        <time>2016-06-03T10:02:00Z</time>
      </trkpt>
      <trkpt lat="43.03704" lon="2.55991">
        <ele>185.513915</ele>
        <time>2016-06-03T10:02:01Z</time>
      </trkpt>
      <trkpt lat="43.03734" lon="2.55927">
        <ele>184.016711</ele>
        <time>2016-06-03T10:02:05Z</time>
      </trkpt>
      <trkpt lat="43.03732" lon="2.55896">
        <ele>183.437627</ele>
        <time>2016-06-03T10:02:07Z</time>
      </trkpt>
      <trkpt lat="43.03716" lon="2.55871">
        <ele>185.14605</ele>
        <time>2016-06-03T10:02:09Z</time>
      </trkpt>
      <trkpt lat="43.03685" lon="2.55846">
        <ele>185.250519</ele>
        <time>2016-06-03T10:02:11Z</time>
      </trkpt>
      <trkpt lat="43.03626" lon="2.55825">
        <ele>185.328795</ele>
        <time>2016-06-03T10:02:14Z</time>
      </trkpt>
      <trkpt lat="43.03585" lon="2.55779">
        <ele>184.726783</ele>
        <time>2016-06-03T10:02:17Z</time>
      </trkpt>
      <trkpt lat="43.03569" lon="2.55747">
        <ele>185.111426</ele>
        <time>2016-06-03T10:02:19Z</time>
      </trkpt>
      <trkpt lat="43.03552" lon="2.55677">
        <ele>184.516215</ele>
        <time>2016-06-03T10:02:22Z</time>
      </trkpt>
      <trkpt lat="43.03545" lon="2.55628">
        <ele>185.484428</ele>
        <time>2016-06-03T10:02:24Z</time>
      </trkpt>
      <trkpt lat="43.03541" lon="2.55548">
        <ele>183.83139</ele>
        <time>2016-06-03T10:02:27Z</time>
      </trkpt>
      <trkpt lat="43.03532" lon="2.55482">
        <ele>185.119707</ele>
        <time>2016-06-03T10:02:30Z</time>
      </trkpt>
      <trkpt lat="43.03506" lon="2.55435">
        <ele>185.531761</ele>
        <time>2016-06-03T10:02:33Z</time>
      </trkpt>
      <trkpt lat="43.03496" lon="2.55421">
        <ele>185.596522</ele>
        <time>2016-06-03T10:02:34Z</time>
      </trkpt>
      <trkpt lat="43.0347" lon="2.55408">
        <ele>186.004516</ele>
        <time>2016-06-03T10:02:36Z</time>
      </trkpt>
      <trkpt lat="43.03431" lon="2.55413">
        <ele>187.59431</ele>
        <time>2016-06-03T10:02:38Z</time>
      </trkpt>
      <trkpt lat="43.034" lon="2.5543">
        <ele>187.069526</ele>
        <time>2016-06-03T10:02:40Z</time>
      </trkpt>
      <trkpt lat="43.03378" lon="2.55448">
        <ele>187.350736</ele>
        <time>2016-06-03T10:02:42Z</time>
      </trkpt>
      <trkpt lat="43.03354" lon="2.5546">
        <ele>187.073035</ele>
        <time>2016-06-03T10:02:44Z</time>
      </trkpt>
      <trkpt lat="43.03341" lon="2.5546">
        <ele>187.484492</ele>
        <time>2016-06-03T10:02:45Z</time>
      </trkpt>
      <trkpt lat="43.03327" lon="2.55446">
        <ele>187.622327</ele>
        <time>2016-06-03T10:02:46Z</time>
      </trkpt>
      <trkpt lat="43.03312" lon="2.55441">
        <ele>186.745157</ele>
        <time>2016-06-03T10:02:47Z</time>
      </trkpt>
      <trkpt lat="43.033" lon="2.55421">
        <ele>187.189003</ele>
        <time>2016-06-03T10:02:48Z</time>
      </trkpt>
      <trkpt lat="43.03296" lon="2.55402">
        <ele>186.947055</ele>
        <time>2016-06-03T10:02:49Z</time>
      </trkpt>
      <trkpt lat="43.03279" lon="2.55371">
        <ele>188.706598</ele>
        <time>2016-06-03T10:02:51Z</time>
      </trkpt>
      <trkpt lat="43.03259" lon="2.55312">
        <ele>188.62431</ele>
        <time>2016-06-03T10:02:54Z</time>
      </trkpt>
      <trkpt lat="43.03241" lon="2.5528">
        <ele>189.501966</ele>
        <time>2016-06-03T10:02:56Z</time>
      </trkpt>
      <trkpt lat="43.03219" lon="2.55259">
        <ele>190.01968</ele>
        <time>2016-06-03T10:02:58Z</time>
      </trkpt>
      <trkpt lat="43.03176" lon="2.55243">
        <ele>190.07183</ele>
        <time>2016-06-03T10:03:01Z</time>
      </trkpt>
      <trkpt lat="43.03139" lon="2.55193">
        <ele>192.230015</ele>
        <time>2016-06-03T10:03:04Z</time>
      </trkpt>
      <trkpt lat="43.03099" lon="2.55141">
        <ele>191.601842</ele>
        <time>2016-06-03T10:03:07Z</time>
      </trkpt>
      <trkpt lat="43.03065" lon="2.55095">
        <ele>192.237692</ele>
        <time>2016-06-03T10:03:10Z</time>
      </trkpt>
      <trkpt lat="43.03066" lon="2.55071">
        <ele>191.75747</ele>
        <time>2016-06-03T10:03:11Z</time>
      </trkpt>
      <trkpt lat="43.03057" lon="2.55032">
        <ele>192.540998</ele>
        <time>2016-06-03T10:03:13Z</time>
      </trkpt>
      <trkpt lat="43.0304" lon="2.54998">
        <ele>193.135553</ele>
        <time>2016-06-03T10:03:15Z</time>
      </trkpt>
      <trkpt lat="43.0302" lon="2.54971">
        <ele>193.178435</ele>
        <time>2016-06-03T10:03:17Z</time>
      </trkpt>
      <trkpt lat="43.02994" lon="2.54947">
        <ele>195.119675</ele>
        <time>2016-06-03T10:03:19Z</time>
      </trkpt>
      <trkpt lat="43.02954" lon="2.54897">
        <ele>193.628459</ele>
        <time>2016-06-03T10:03:22Z</time>
      </trkpt>
      <trkpt lat="43.02935" lon="2.54867">
        <ele>194.636663</ele>
        <time>2016-06-03T10:03:24Z</time>
      </trkpt>
      <trkpt lat="43.02916" lon="2.5481">
        <ele>194.235336</ele>
        <time>2016-06-03T10:03:27Z</time>
      </trkpt>
      <trkpt lat="43.02898" lon="2.54774">
        <ele>196.982881</ele>
        <time>2016-06-03T10:03:28Z</time>
      </trkpt>
      <trkpt lat="43.02836" lon="2.54737">
        <ele>195.731341</ele>
        <time>2016-06-03T10:03:32Z</time>
      </trkpt>
      <trkpt lat="43.0278" lon="2.54701">
        <ele>195.327868</ele>
        <time>2016-06-03T10:03:34Z</time>
      </trkpt>
      <trkpt lat="43.02747" lon="2.54687">
        <ele>196.3325</ele>
        <time>2016-06-03T10:03:36Z</time>
      </trkpt>
      <trkpt lat="43.02703" lon="2.54676">
        <ele>195.556095</ele>
        <time>2016-06-03T10:03:39Z</time>
      </trkpt>
      <trkpt lat="43.02688" lon="2.54654">
        <ele>195.747614</ele>
        <time>2016-06-03T10:03:41Z</time>
      </trkpt>
      <trkpt lat="43.02678" lon="2.54629">
        <ele>195.830282</ele>
        <time>2016-06-03T10:03:43Z</time>
      </trkpt>
      <trkpt lat="43.0267" lon="2.54593">
        <ele>195.709081</ele>
        <time>2016-06-03T10:03:46Z</time>
      </trkpt>
      <trkpt lat="43.02651" lon="2.54579">
        <ele>196.518851</ele>
        <time>2016-06-03T10:03:48Z</time>
      </trkpt>
      <trkpt lat="43.02624" lon="2.54579">
        <ele>198.328219</ele>
        <time>2016-06-03T10:03:50Z</time>
      </trkpt>
      <trkpt lat="43.02582" lon="2.54598">
        <ele>199.306349</ele>
        <time>2016-06-03T10:03:52Z</time>
      </trkpt>
      <trkpt lat="43.02505" lon="2.54614">
        <ele>200.457501</ele>
        <time>2016-06-03T10:03:56Z</time>
      </trkpt>
      <trkpt lat="43.02467" lon="2.54623">
        <ele>200.979048</ele>
        <time>2016-06-03T10:03:58Z</time>
      </trkpt>
      <trkpt lat="43.02415" lon="2.54645">
        <ele>203.002634</ele>
        <time>2016-06-03T10:04:01Z</time>
      </trkpt>
      <trkpt lat="43.02386" lon="2.54666">
        <ele>203.970056</ele>
        <time>2016-06-03T10:04:03Z</time>
      </trkpt>
      <trkpt lat="43.02361" lon="2.5469">
        <ele>206.987877</ele>
        <time>2016-06-03T10:04:05Z</time>
      </trkpt>
      <trkpt lat="43.02336" lon="2.54726">
        <ele>206.978079</ele>
        <time>2016-06-03T10:04:07Z</time>
      </trkpt>
      <trkpt lat="43.02315" lon="2.54768">
        <ele>208.22183</ele>
        <time>2016-06-03T10:04:09Z</time>
      </trkpt>
      <trkpt lat="43.02296" lon="2.54827">
        <ele>209.091854</ele>
        <time>2016-06-03T10:04:12Z</time>
      </trkpt>
      <trkpt lat="43.02279" lon="2.54852">
        <ele>210.263183</ele>
        <time>2016-06-03T10:04:14Z</time>
      </trkpt>
      <trkpt lat="43.0227" lon="2.54862">
        <ele>211.567004</ele>
        <time>2016-06-03T10:04:15Z</time>
      </trkpt>
      <trkpt lat="43.02239" lon="2.54873">
        <ele>213.766488</ele>
        <time>2016-06-03T10:04:17Z</time>
      </trkpt>
      <trkpt lat="43.02219" lon="2.54874">
        <ele>213.930063</ele>
        <time>2016-06-03T10:04:18Z</time>
      </trkpt>
      <trkpt lat="43.02197" lon="2.54866">
        <ele>213.405378</ele>
        <time>2016-06-03T10:04:19Z</time>
      </trkpt>
      <trkpt lat="43.0213" lon="2.54876">
        <ele>216.123686</ele>
        <time>2016-06-03T10:04:23Z</time>
      </trkpt>
      <trkpt lat="43.02086" lon="2.54866">
        <ele>217.741486</ele>
        <time>2016-06-03T10:04:26Z</time>
      </trkpt>
      <trkpt lat="43.02063" lon="2.54868">
        <ele>219.039523</ele>
        <time>2016-06-03T10:04:28Z</time>
      </trkpt>
      <trkpt lat="43.02053" lon="2.54874">
        <ele>219.189142</ele>
        <time>2016-06-03T10:04:29Z</time>
      </trkpt>
      <trkpt lat="43.02027" lon="2.549">
        <ele>218.397252</ele>
        <time>2016-06-03T10:04:31Z</time>
      </trkpt>
      <trkpt lat="43.01989" lon="2.54929">
        <ele>220.018461</ele>
        <time>2016-06-03T10:04:34Z</time>
      </trkpt>
      <trkpt lat="43.01954" lon="2.54942">
        <ele>219.377358</ele>
        <time>2016-06-03T10:04:37Z</time>
      </trkpt>
      <trkpt lat="43.01931" lon="2.54925">
        <ele>220.980109</ele>
        <time>2016-06-03T10:04:39Z</time>
      </trkpt>
      <trkpt lat="43.01912" lon="2.54893">
        <ele>222.889059</ele>
        <time>2016-06-03T10:04:41Z</time>
      </trkpt>
      <trkpt lat="43.01909" lon="2.54847">
        <ele>220.46671</ele>
        <time>2016-06-03T10:04:43Z</time>
      </trkpt>
      <trkpt lat="43.01906" lon="2.54835">
        <ele>222.018379</ele>
        <time>2016-06-03T10:04:44Z</time>
      </trkpt>
      <trkpt lat="43.01908" lon="2.54813">
        <ele>222.061134</ele>
        <time>2016-06-03T10:04:46Z</time>
      </trkpt>
      <trkpt lat="43.01921" lon="2.54779">
        <ele>222.48837</ele>
        <time>2016-06-03T10:04:49Z</time>
      </trkpt>
      <trkpt lat="43.01952" lon="2.54712">
        <ele>221.036991</ele>
        <time>2016-06-03T10:04:53Z</time>
      </trkpt>
      <trkpt lat="43.01972" lon="2.54664">
        <ele>221.895417</ele>
        <time>2016-06-03T10:04:56Z</time>
      </trkpt>
      <trkpt lat="43.01975" lon="2.54629">
        <ele>222.856453</ele>
        <time>2016-06-03T10:04:58Z</time>
      </trkpt>
      <trkpt lat="43.01974" lon="2.54568">
        <ele>219.940122</ele>
        <time>2016-06-03T10:05:01Z</time>
      </trkpt>
      <trkpt lat="43.01977" lon="2.54535">
        <ele>219.680087</ele>
        <time>2016-06-03T10:05:03Z</time>
      </trkpt>
      <trkpt lat="43.01987" lon="2.5451">
        <ele>221.038412</ele>
        <time>2016-06-03T10:05:05Z</time>
      </trkpt>
      <trkpt lat="43.02028" lon="2.54496">
        <ele>220.446692</ele>
        <time>2016-06-03T10:05:08Z</time>
      </trkpt>
      <trkpt lat="43.02053" lon="2.54489">
        <ele>219.84692</ele>
        <time>2016-06-03T10:05:10Z</time>
      </trkpt>
      <trkpt lat="43.02073" lon="2.54476">
        <ele>219.662739</ele>
        <time>2016-06-03T10:05:12Z</time>
      </trkpt>
      <trkpt lat="43.02084" lon="2.54451">
        <ele>219.971948</ele>
        <time>2016-06-03T10:05:14Z</time>
      </trkpt>
      <trkpt lat="43.02085" lon="2.54426">
        <ele>220.000094</ele>
        <time>2016-06-03T10:05:16Z</time>
      </trkpt>
      <trkpt lat="43.0207" lon="2.54399">
        <ele>219.826649</ele>
        <time>2016-06-03T10:05:18Z</time>
      </trkpt>
      <trkpt lat="43.02061" lon="2.54388">
        <ele>219.591726</ele>
        <time>2016-06-03T10:05:19Z</time>
      </trkpt>
      <trkpt lat="43.0205" lon="2.54382">
        <ele>219.872875</ele>
        <time>2016-06-03T10:05:20Z</time>
      </trkpt>
      <trkpt lat="43.02017" lon="2.54394">
        <ele>222.230136</ele>
        <time>2016-06-03T10:05:22Z</time>
      </trkpt>
      <trkpt lat="43.01946" lon="2.54403">
        <ele>223.066032</ele>
        <time>2016-06-03T10:05:26Z</time>
      </trkpt>
      <trkpt lat="43.01913" lon="2.54403">
        <ele>224.342092</ele>
        <time>2016-06-03T10:05:28Z</time>
      </trkpt>
      <trkpt lat="43.0188" lon="2.54392">
        <ele>226.337848</ele>
        <time>2016-06-03T10:05:30Z</time>
      </trkpt>
      <trkpt lat="43.01828" lon="2.54362">
        <ele>226.160889</ele>
        <time>2016-06-03T10:05:33Z</time>
      </trkpt>
      <trkpt lat="43.01766" lon="2.54327">
        <ele>230.882128</ele>
        <time>2016-06-03T10:05:37Z</time>
      </trkpt>
      <trkpt lat="43.01744" lon="2.54308">
        <ele>231.536516</ele>
        <time>2016-06-03T10:05:39Z</time>
      </trkpt>
      <trkpt lat="43.01732" lon="2.54282">
        <ele>230.905487</ele>
        <time>2016-06-03T10:05:41Z</time>
      </trkpt>
      <trkpt lat="43.01729" lon="2.54263">
        <ele>231.661852</ele>
        <time>2016-06-03T10:05:42Z</time>
      </trkpt>
      <trkpt lat="43.01733" lon="2.54212">
        <ele>231.899712</ele>
        <time>2016-06-03T10:05:44Z</time>
      </trkpt>
      <trkpt lat="43.01734" lon="2.54096">
        <ele>233.675894</ele>
        <time>2016-06-03T10:05:48Z</time>
      </trkpt>
      <trkpt lat="43.01734" lon="2.54039">
        <ele>231.92707</ele>
        <time>2016-06-03T10:05:50Z</time>
      </trkpt>
      <trkpt lat="43.01737" lon="2.53996">
        <ele>231.744584</ele>
        <time>2016-06-03T10:05:52Z</time>
      </trkpt>
      <trkpt lat="43.01746" lon="2.53958">
        <ele>232.158872</ele>
        <time>2016-06-03T10:05:54Z</time>
      </trkpt>
      <trkpt lat="43.01769" lon="2.539">
        <ele>232.002717</ele>
        <time>2016-06-03T10:05:57Z</time>
      </trkpt>
      <trkpt lat="43.01781" lon="2.5384">
        <ele>231.934034</ele>
        <time>2016-06-03T10:06:00Z</time>
      </trkpt>
      <trkpt lat="43.01767" lon="2.53753">
        <ele>234.138284</ele>
        <time>2016-06-03T10:06:04Z</time>
      </trkpt>
      <trkpt lat="43.01734" lon="2.53726">
        <ele>233.012734</ele>
        <time>2016-06-03T10:06:06Z</time>
      </trkpt>
      <trkpt lat="43.0168" lon="2.53659">
        <ele>229.165294</ele>
        <time>2016-06-03T10:06:10Z</time>
      </trkpt>
      <trkpt lat="43.01657" lon="2.53643">
        <ele>227.901556</ele>
        <time>2016-06-03T10:06:12Z</time>
      </trkpt>
      <trkpt lat="43.01647" lon="2.53642">
        <ele>228.827961</ele>
        <time>2016-06-03T10:06:13Z</time>
      </trkpt>
      <trkpt lat="43.01617" lon="2.53673">
        <ele>230.652587</ele>
        <time>2016-06-03T10:06:15Z</time>
      </trkpt>
      <trkpt lat="43.01566" lon="2.53713">
        <ele>227.716987</ele>
        <time>2016-06-03T10:06:18Z</time>
      </trkpt>
      <trkpt lat="43.01517" lon="2.53754">
        <ele>223.231428</ele>
        <time>2016-06-03T10:06:21Z</time>
      </trkpt>
      <trkpt lat="43.01493" lon="2.53773">
        <ele>223.295264</ele>
        <time>2016-06-03T10:06:23Z</time>
      </trkpt>
      <trkpt lat="43.01484" lon="2.53806">
        <ele>223.393445</ele>
        <time>2016-06-03T10:06:25Z</time>
      </trkpt>
      <trkpt lat="43.01489" lon="2.53847">
        <ele>222.36351</ele>
        <time>2016-06-03T10:06:28Z</time>
      </trkpt>
      <trkpt lat="43.01492" lon="2.53854">
        <ele>222.406523</ele>
        <time>2016-06-03T10:06:29Z</time>
      </trkpt>
      <trkpt lat="43.01503" lon="2.53862">
        <ele>222.159007</ele>
        <time>2016-06-03T10:06:32Z</time>
      </trkpt>
      <trkpt lat="43.01525" lon="2.53865">
        <ele>222.961433</ele>
        <time>2016-06-03T10:06:35Z</time>
      </trkpt>
      <trkpt lat="43.01571" lon="2.53882">
        <ele>225.299111</ele>
        <time>2016-06-03T10:06:39Z</time>
      </trkpt>
      <trkpt lat="43.01595" lon="2.53894">
        <ele>225.108734</ele>
        <time>2016-06-03T10:06:42Z</time>
      </trkpt>
      <trkpt lat="43.01605" lon="2.53906">
        <ele>225.904575</ele>
        <time>2016-06-03T10:06:44Z</time>
      </trkpt>
      <trkpt lat="43.01605" lon="2.53955">
        <ele>227.33519</ele>
        <time>2016-06-03T10:06:48Z</time>
      </trkpt>
      <trkpt lat="43.01592" lon="2.54033">
        <ele>232.206552</ele>
        <time>2016-06-03T10:06:52Z</time>
      </trkpt>
      <trkpt lat="43.01573" lon="2.54097">
        <ele>234.664714</ele>
        <time>2016-06-03T10:06:55Z</time>
      </trkpt>
      <trkpt lat="43.01552" lon="2.54213">
        <ele>237.275588</ele>
        <time>2016-06-03T10:07:00Z</time>
      </trkpt>
      <trkpt lat="43.01547" lon="2.54251">
        <ele>237.632263</ele>
        <time>2016-06-03T10:07:02Z</time>
      </trkpt>
      <trkpt lat="43.01548" lon="2.54289">
        <ele>236.265895</ele>
        <time>2016-06-03T10:07:04Z</time>
      </trkpt>
      <trkpt lat="43.01553" lon="2.54323">
        <ele>237.338641</ele>
        <time>2016-06-03T10:07:06Z</time>
      </trkpt>
      <trkpt lat="43.01548" lon="2.54359">
        <ele>239.040696</ele>
        <time>2016-06-03T10:07:09Z</time>
      </trkpt>
      <trkpt lat="43.01532" lon="2.54382">
        <ele>239.565294</ele>
        <time>2016-06-03T10:07:11Z</time>
      </trkpt>
      <trkpt lat="43.01496" lon="2.54405">
        <ele>241.909598</ele>
        <time>2016-06-03T10:07:14Z</time>
      </trkpt>
      <trkpt lat="43.01469" lon="2.54421">
        <ele>243.072463</ele>
        <time>2016-06-03T10:07:16Z</time>
      </trkpt>
      <trkpt lat="43.01447" lon="2.54445">
        <ele>243.985609</ele>
        <time>2016-06-03T10:07:18Z</time>
      </trkpt>
      <trkpt lat="43.01424" lon="2.5446">
        <ele>245.041363</ele>
        <time>2016-06-03T10:07:20Z</time>
      </trkpt>
      <trkpt lat="43.01382" lon="2.54476">
        <ele>243.667621</ele>
        <time>2016-06-03T10:07:23Z</time>
      </trkpt>
      <trkpt lat="43.01349" lon="2.5448">
        <ele>243.712351</ele>
        <time>2016-06-03T10:07:26Z</time>
      </trkpt>
      <trkpt lat="43.01331" lon="2.54471">
        <ele>243.012481</ele>
        <time>2016-06-03T10:07:28Z</time>
      </trkpt>
      <trkpt lat="43.01322" lon="2.54464">
        <ele>243.544662</ele>
        <time>2016-06-03T10:07:29Z</time>
      </trkpt>
      <trkpt lat="43.01308" lon="2.5444">
        <ele>243.167461</ele>
        <time>2016-06-03T10:07:31Z</time>
      </trkpt>
      <trkpt lat="43.01286" lon="2.54428">
        <ele>244.14824</ele>
        <time>2016-06-03T10:07:33Z</time>
      </trkpt>
      <trkpt lat="43.01261" lon="2.54423">
        <ele>243.436131</ele>
        <time>2016-06-03T10:07:35Z</time>
      </trkpt>
      <trkpt lat="43.0122" lon="2.54438">
        <ele>242.583261</ele>
        <time>2016-06-03T10:07:38Z</time>
      </trkpt>
      <trkpt lat="43.01191" lon="2.54485">
        <ele>243.185527</ele>
        <time>2016-06-03T10:07:41Z</time>
      </trkpt>
      <trkpt lat="43.0117" lon="2.54531">
        <ele>243.199697</ele>
        <time>2016-06-03T10:07:44Z</time>
      </trkpt>
      <trkpt lat="43.01153" lon="2.54548">
        <ele>242.642321</ele>
        <time>2016-06-03T10:07:46Z</time>
      </trkpt>
      <trkpt lat="43.01119" lon="2.54564">
        <ele>241.756291</ele>
        <time>2016-06-03T10:07:49Z</time>
      </trkpt>
      <trkpt lat="43.01097" lon="2.54582">
        <ele>240.120183</ele>
        <time>2016-06-03T10:07:51Z</time>
      </trkpt>
      <trkpt lat="43.0108" lon="2.54586">
        <ele>239.326607</ele>
        <time>2016-06-03T10:07:53Z</time>
      </trkpt>
      <trkpt lat="43.01072" lon="2.54583">
        <ele>239.160426</ele>
        <time>2016-06-03T10:07:54Z</time>
      </trkpt>
      <trkpt lat="43.0106" lon="2.54567">
        <ele>238.903584</ele>
        <time>2016-06-03T10:07:56Z</time>
      </trkpt>
      <trkpt lat="43.01049" lon="2.54541">
        <ele>238.652281</ele>
        <time>2016-06-03T10:07:58Z</time>
      </trkpt>
      <trkpt lat="43.01042" lon="2.5453">
        <ele>238.169709</ele>
        <time>2016-06-03T10:07:59Z</time>
      </trkpt>
      <trkpt lat="43.01001" lon="2.54515">
        <ele>236.170072</ele>
        <time>2016-06-03T10:08:02Z</time>
      </trkpt>
      <trkpt lat="43.00989" lon="2.54514">
        <ele>236.01246</ele>
        <time>2016-06-03T10:08:03Z</time>
      </trkpt>
      <trkpt lat="43.00966" lon="2.54527">
        <ele>234.262774</ele>
        <time>2016-06-03T10:08:05Z</time>
      </trkpt>
      <trkpt lat="43.00949" lon="2.54549">
        <ele>234.675986</ele>
        <time>2016-06-03T10:08:07Z</time>
      </trkpt>
      <trkpt lat="43.00937" lon="2.54584">
        <ele>235.135446</ele>
        <time>2016-06-03T10:08:09Z</time>
      </trkpt>
      <trkpt lat="43.00931" lon="2.5462">
        <ele>233.907009</ele>
        <time>2016-06-03T10:08:11Z</time>
      </trkpt>
      <trkpt lat="43.00935" lon="2.54661">
        <ele>235.142556</ele>
        <time>2016-06-03T10:08:13Z</time>
      </trkpt>
      <trkpt lat="43.00946" lon="2.54703">
        <ele>233.79957</ele>
        <time>2016-06-03T10:08:15Z</time>
      </trkpt>
      <trkpt lat="43.00964" lon="2.54741">
        <ele>233.761317</ele>
        <time>2016-06-03T10:08:17Z</time>
      </trkpt>
      <trkpt lat="43.00975" lon="2.54778">
        <ele>231.869664</ele>
        <time>2016-06-03T10:08:19Z</time>
      </trkpt>
      <trkpt lat="43.00981" lon="2.54823">
        <ele>231.995404</ele>
        <time>2016-06-03T10:08:22Z</time>
      </trkpt>
      <trkpt lat="43.00973" lon="2.54844">
        <ele>232.872029</ele>
        <time>2016-06-03T10:08:24Z</time>
      </trkpt>
      <trkpt lat="43.00966" lon="2.54854">
        <ele>233.924859</ele>
        <time>2016-06-03T10:08:25Z</time>
      </trkpt>
      <trkpt lat="43.00947" lon="2.54864">
        <ele>234.806487</ele>
        <time>2016-06-03T10:08:26Z</time>
      </trkpt>
      <trkpt lat="43.00904" lon="2.54927">
        <ele>234.961872</ele>
        <time>2016-06-03T10:08:30Z</time>
      </trkpt>
      <trkpt lat="43.00871" lon="2.54979">
        <ele>237.904077</ele>
        <time>2016-06-03T10:08:33Z</time>
      </trkpt>
      <trkpt lat="43.00834" lon="2.55027">
        <ele>239.682452</ele>
        <time>2016-06-03T10:08:36Z</time>
      </trkpt>
      <trkpt lat="43.00816" lon="2.55073">
        <ele>242.271561</ele>
        <time>2016-06-03T10:08:39Z</time>
      </trkpt>
      <trkpt lat="43.00808" lon="2.551">
        <ele>242.415697</ele>
        <time>2016-06-03T10:08:41Z</time>
      </trkpt>
      <trkpt lat="43.0081" lon="2.55116">
        <ele>243.528776</ele>
        <time>2016-06-03T10:08:43Z</time>
      </trkpt>
      <trkpt lat="43.00795" lon="2.55122">
        <ele>244.147284</ele>
        <time>2016-06-03T10:08:45Z</time>
      </trkpt>
      <trkpt lat="43.00763" lon="2.55122">
        <ele>246.241503</ele>
        <time>2016-06-03T10:08:48Z</time>
      </trkpt>
      <trkpt lat="43.00745" lon="2.5511">
        <ele>246.745616</ele>
        <time>2016-06-03T10:08:50Z</time>
      </trkpt>
      <trkpt lat="43.00725" lon="2.55093">
        <ele>248.725536</ele>
        <time>2016-06-03T10:08:52Z</time>
      </trkpt>
      <trkpt lat="43.00702" lon="2.55083">
        <ele>250.65707</ele>
        <time>2016-06-03T10:08:54Z</time>
      </trkpt>
      <trkpt lat="43.00659" lon="2.55091">
        <ele>252.614856</ele>
        <time>2016-06-03T10:08:57Z</time>
      </trkpt>
      <trkpt lat="43.00645" lon="2.55089">
        <ele>253.135776</ele>
        <time>2016-06-03T10:08:58Z</time>
      </trkpt>
      <trkpt lat="43.00616" lon="2.55098">
        <ele>255.201367</ele>
        <time>2016-06-03T10:09:00Z</time>
      </trkpt>
      <trkpt lat="43.00581" lon="2.55117">
        <ele>255.344349</ele>
        <time>2016-06-03T10:09:03Z</time>
      </trkpt>
      <trkpt lat="43.00561" lon="2.55123">
        <ele>257.174634</ele>
        <time>2016-06-03T10:09:05Z</time>
      </trkpt>
      <trkpt lat="43.00551" lon="2.55122">
        <ele>258.3957</ele>
        <time>2016-06-03T10:09:06Z</time>
      </trkpt>
      <trkpt lat="43.00544" lon="2.55099">
        <ele>259.062797</ele>
        <time>2016-06-03T10:09:07Z</time>
      </trkpt>
      <trkpt lat="43.00524" lon="2.55075">
        <ele>260.372159</ele>
        <time>2016-06-03T10:09:10Z</time>
      </trkpt>
      <trkpt lat="43.00517" lon="2.55074">
        <ele>260.665206</ele>
        <time>2016-06-03T10:09:11Z</time>
      </trkpt>
      <trkpt lat="43.00508" lon="2.55105">
        <ele>262.048728</ele>
        <time>2016-06-03T10:09:13Z</time>
      </trkpt>
      <trkpt lat="43.00496" lon="2.55125">
        <ele>262.690833</ele>
        <time>2016-06-03T10:09:15Z</time>
      </trkpt>
      <trkpt lat="43.00479" lon="2.55138">
        <ele>264.690245</ele>
        <time>2016-06-03T10:09:17Z</time>
      </trkpt>
      <trkpt lat="43.00463" lon="2.5514">
        <ele>266.005793</ele>
        <time>2016-06-03T10:09:18Z</time>
      </trkpt>
      <trkpt lat="43.00441" lon="2.55163">
        <ele>267.156117</ele>
        <time>2016-06-03T10:09:20Z</time>
      </trkpt>
      <trkpt lat="43.0041" lon="2.55209">
        <ele>269.341074</ele>
        <time>2016-06-03T10:09:23Z</time>
      </trkpt>
      <trkpt lat="43.00391" lon="2.55248">
        <ele>271.111679</ele>
        <time>2016-06-03T10:09:26Z</time>
      </trkpt>
      <trkpt lat="43.00384" lon="2.55251">
        <ele>272.131566</ele>
        <time>2016-06-03T10:09:27Z</time>
      </trkpt>
      <trkpt lat="43.00371" lon="2.55241">
        <ele>272.720304</ele>
        <time>2016-06-03T10:09:29Z</time>
      </trkpt>
      <trkpt lat="43.00356" lon="2.55243">
        <ele>272.916251</ele>
        <time>2016-06-03T10:09:31Z</time>
      </trkpt>
      <trkpt lat="43.00348" lon="2.55247">
        <ele>272.975674</ele>
        <time>2016-06-03T10:09:32Z</time>
      </trkpt>
      <trkpt lat="43.00329" lon="2.55283">
        <ele>273.622703</ele>
        <time>2016-06-03T10:09:35Z</time>
      </trkpt>
      <trkpt lat="43.00325" lon="2.55293">
        <ele>274.288066</ele>
        <time>2016-06-03T10:09:36Z</time>
      </trkpt>
      <trkpt lat="43.00335" lon="2.55329">
        <ele>276.517292</ele>
        <time>2016-06-03T10:09:39Z</time>
      </trkpt>
      <trkpt lat="43.00341" lon="2.55338">
        <ele>277.530798</ele>
        <time>2016-06-03T10:09:40Z</time>
      </trkpt>
      <trkpt lat="43.00375" lon="2.55342">
        <ele>279.795848</ele>
        <time>2016-06-03T10:09:42Z</time>
      </trkpt>
      <trkpt lat="43.00414" lon="2.55339">
        <ele>281.279173</ele>
        <time>2016-06-03T10:09:45Z</time>
      </trkpt>
      <trkpt lat="43.00428" lon="2.55337">
        <ele>283.217422</ele>
        <time>2016-06-03T10:09:46Z</time>
      </trkpt>
      <trkpt lat="43.00452" lon="2.55308">
        <ele>283.344955</ele>
        <time>2016-06-03T10:09:48Z</time>
      </trkpt>
      <trkpt lat="43.00472" lon="2.55296">
        <ele>284.616857</ele>
        <time>2016-06-03T10:09:50Z</time>
      </trkpt>
      <trkpt lat="43.00484" lon="2.55294">
        <ele>285.419419</ele>
        <time>2016-06-03T10:09:52Z</time>
      </trkpt>
      <trkpt lat="43.00493" lon="2.55298">
        <ele>286.932531</ele>
        <time>2016-06-03T10:09:54Z</time>
      </trkpt>
      <trkpt lat="43.00462" lon="2.55343">
        <ele>290.04037</ele>
        <time>2016-06-03T10:09:58Z</time>
      </trkpt>
      <trkpt lat="43.00452" lon="2.55393">
        <ele>290.539205</ele>
        <time>2016-06-03T10:10:01Z</time>
      </trkpt>
      <trkpt lat="43.00462" lon="2.55423">
        <ele>293.243212</ele>
        <time>2016-06-03T10:10:03Z</time>
      </trkpt>
      <trkpt lat="43.00491" lon="2.55458">
        <ele>294.580976</ele>
        <time>2016-06-03T10:10:06Z</time>
      </trkpt>
      <trkpt lat="43.00511" lon="2.5549">
        <ele>295.182469</ele>
        <time>2016-06-03T10:10:09Z</time>
      </trkpt>
      <trkpt lat="43.00514" lon="2.55507">
        <ele>296.653043</ele>
        <time>2016-06-03T10:10:11Z</time>
      </trkpt>
      <trkpt lat="43.00531" lon="2.5556">
        <ele>297.295321</ele>
        <time>2016-06-03T10:10:18Z</time>
      </trkpt>
      <trkpt lat="43.00542" lon="2.55595">
        <ele>297.295319</ele>
        <time>2016-06-03T10:10:22Z</time>
      </trkpt>
      <trkpt lat="43.00465" lon="2.55634">
        <ele>302.742512</ele>
        <time>2016-06-03T10:10:26Z</time>
      </trkpt>
      <trkpt lat="43.00469" lon="2.55637">
        <ele>302.656937</ele>
        <time>2016-06-03T10:10:27Z</time>
      </trkpt>
      <trkpt lat="43.00447" lon="2.55683">
        <ele>306.237026</ele>
        <time>2016-06-03T10:10:32Z</time>
      </trkpt>
      <trkpt lat="43.00425" lon="2.55713">
        <ele>306.832598</ele>
        <time>2016-06-03T10:10:35Z</time>
      </trkpt>
      <trkpt lat="43.00411" lon="2.55756">
        <ele>309.41739</ele>
        <time>2016-06-03T10:10:37Z</time>
      </trkpt>
      <trkpt lat="43.00405" lon="2.55806">
        <ele>310.647615</ele>
        <time>2016-06-03T10:10:41Z</time>
      </trkpt>
      <trkpt lat="43.00407" lon="2.5584">
        <ele>312.096163</ele>
        <time>2016-06-03T10:10:43Z</time>
      </trkpt>
      <trkpt lat="43.00447" lon="2.5587">
        <ele>314.15408</ele>
        <time>2016-06-03T10:10:46Z</time>
      </trkpt>
      <trkpt lat="43.00461" lon="2.55873">
        <ele>315.025413</ele>
        <time>2016-06-03T10:10:47Z</time>
      </trkpt>
      <trkpt lat="43.00487" lon="2.55868">
        <ele>315.480098</ele>
        <time>2016-06-03T10:10:49Z</time>
      </trkpt>
      <trkpt lat="43.00506" lon="2.5587">
        <ele>317.085806</ele>
        <time>2016-06-03T10:10:51Z</time>
      </trkpt>
      <trkpt lat="43.00508" lon="2.55878">
        <ele>317.551246</ele>
        <time>2016-06-03T10:10:52Z</time>
      </trkpt>
      <trkpt lat="43.00517" lon="2.55896">
        <ele>318.872148</ele>
        <time>2016-06-03T10:10:54Z</time>
      </trkpt>
      <trkpt lat="43.00512" lon="2.55924">
        <ele>319.233486</ele>
        <time>2016-06-03T10:10:56Z</time>
      </trkpt>
      <trkpt lat="43.00506" lon="2.55961">
        <ele>320.535788</ele>
        <time>2016-06-03T10:10:59Z</time>
      </trkpt>
      <trkpt lat="43.00489" lon="2.56013">
        <ele>322.695681</ele>
        <time>2016-06-03T10:11:02Z</time>
      </trkpt>
      <trkpt lat="43.00476" lon="2.56074">
        <ele>324.057082</ele>
        <time>2016-06-03T10:11:05Z</time>
      </trkpt>
      <trkpt lat="43.00473" lon="2.56119">
        <ele>324.656724</ele>
        <time>2016-06-03T10:11:07Z</time>
      </trkpt>
      <trkpt lat="43.00474" lon="2.56139">
        <ele>323.394705</ele>
        <time>2016-06-03T10:11:08Z</time>
      </trkpt>
      <trkpt lat="43.00468" lon="2.56172">
        <ele>323.461908</ele>
        <time>2016-06-03T10:11:10Z</time>
      </trkpt>
      <trkpt lat="43.00468" lon="2.56183">
        <ele>323.904863</ele>
        <time>2016-06-03T10:11:11Z</time>
      </trkpt>
      <trkpt lat="43.00472" lon="2.56192">
        <ele>322.925819</ele>
        <time>2016-06-03T10:11:12Z</time>
      </trkpt>
      <trkpt lat="43.00466" lon="2.56202">
        <ele>322.886857</ele>
        <time>2016-06-03T10:11:13Z</time>
      </trkpt>
      <trkpt lat="43.00435" lon="2.56205">
        <ele>323.013513</ele>
        <time>2016-06-03T10:11:16Z</time>
      </trkpt>
      <trkpt lat="43.00396" lon="2.562">
        <ele>322.208561</ele>
        <time>2016-06-03T10:11:19Z</time>
      </trkpt>
      <trkpt lat="43.00374" lon="2.56186">
        <ele>322.860905</ele>
        <time>2016-06-03T10:11:21Z</time>
      </trkpt>
      <trkpt lat="43.0036" lon="2.5616">
        <ele>322.666922</ele>
        <time>2016-06-03T10:11:23Z</time>
      </trkpt>
      <trkpt lat="43.00354" lon="2.56133">
        <ele>323.189938</ele>
        <time>2016-06-03T10:11:25Z</time>
      </trkpt>
      <trkpt lat="43.00356" lon="2.56102">
        <ele>323.340989</ele>
        <time>2016-06-03T10:11:27Z</time>
      </trkpt>
      <trkpt lat="43.00364" lon="2.5607">
        <ele>324.63893</ele>
        <time>2016-06-03T10:11:29Z</time>
      </trkpt>
      <trkpt lat="43.00365" lon="2.5602">
        <ele>325.043671</ele>
        <time>2016-06-03T10:11:32Z</time>
      </trkpt>
      <trkpt lat="43.00354" lon="2.55962">
        <ele>326.116313</ele>
        <time>2016-06-03T10:11:35Z</time>
      </trkpt>
      <trkpt lat="43.00329" lon="2.55919">
        <ele>327.268957</ele>
        <time>2016-06-03T10:11:38Z</time>
      </trkpt>
      <trkpt lat="43.00312" lon="2.55892">
        <ele>326.89268</ele>
        <time>2016-06-03T10:11:40Z</time>
      </trkpt>
      <trkpt lat="43.0029" lon="2.55885">
        <ele>328.612963</ele>
        <time>2016-06-03T10:11:42Z</time>
      </trkpt>
      <trkpt lat="43.00262" lon="2.55876">
        <ele>328.122064</ele>
        <time>2016-06-03T10:11:44Z</time>
      </trkpt>
      <trkpt lat="43.00236" lon="2.55874">
        <ele>329.978511</ele>
        <time>2016-06-03T10:11:46Z</time>
      </trkpt>
      <trkpt lat="43.00196" lon="2.55891">
        <ele>330.494613</ele>
        <time>2016-06-03T10:11:49Z</time>
      </trkpt>
      <trkpt lat="43.00173" lon="2.55895">
        <ele>330.856523</ele>
        <time>2016-06-03T10:11:51Z</time>
      </trkpt>
      <trkpt lat="43.00139" lon="2.55883">
        <ele>332.560135</ele>
        <time>2016-06-03T10:11:54Z</time>
      </trkpt>
      <trkpt lat="43.0013" lon="2.55883">
        <ele>332.749059</ele>
        <time>2016-06-03T10:11:55Z</time>
      </trkpt>
      <trkpt lat="43.00118" lon="2.5589">
        <ele>333.234057</ele>
        <time>2016-06-03T10:11:57Z</time>
      </trkpt>
      <trkpt lat="43.00109" lon="2.55912">
        <ele>334.360732</ele>
        <time>2016-06-03T10:11:59Z</time>
      </trkpt>
      <trkpt lat="43.00098" lon="2.55966">
        <ele>334.233286</ele>
        <time>2016-06-03T10:12:02Z</time>
      </trkpt>
      <trkpt lat="43.00096" lon="2.56001">
        <ele>335.493285</ele>
        <time>2016-06-03T10:12:04Z</time>
      </trkpt>
      <trkpt lat="43.001" lon="2.56033">
        <ele>333.041502</ele>
        <time>2016-06-03T10:12:06Z</time>
      </trkpt>
      <trkpt lat="43.00104" lon="2.56059">
        <ele>333.667584</ele>
        <time>2016-06-03T10:12:08Z</time>
      </trkpt>
      <trkpt lat="43.00105" lon="2.56071">
        <ele>333.580114</ele>
        <time>2016-06-03T10:12:09Z</time>
      </trkpt>
      <trkpt lat="43.00079" lon="2.56115">
        <ele>333.020882</ele>
        <time>2016-06-03T10:12:13Z</time>
      </trkpt>
      <trkpt lat="43.00062" lon="2.56138">
        <ele>332.056108</ele>
        <time>2016-06-03T10:12:16Z</time>
      </trkpt>
      <trkpt lat="43.00054" lon="2.56144">
        <ele>332.059003</ele>
        <time>2016-06-03T10:12:19Z</time>
      </trkpt>
      <trkpt lat="43.00049" lon="2.56147">
        <ele>332.125405</ele>
        <time>2016-06-03T10:12:22Z</time>
      </trkpt>
      <trkpt lat="43.00046" lon="2.56148">
        <ele>332.15669</ele>
        <time>2016-06-03T10:12:24Z</time>
      </trkpt>
      <trkpt lat="43.00046" lon="2.56148">
        <ele>332.362221</ele>
        <time>2016-06-03T10:12:35Z</time>
      </trkpt>
      <trkpt lat="43.00045" lon="2.56141">
        <ele>331.123375</ele>
        <time>2016-06-03T10:13:51Z</time>
      </trkpt>
      <trkpt lat="43.00044" lon="2.5614">
        <ele>330.076964</ele>
        <time>2016-06-03T10:15:25Z</time>
      </trkpt>
      <trkpt lat="43.00044" lon="2.56139">
        <ele>330.302478</ele>
        <time>2016-06-03T10:15:27Z</time>
      </trkpt>
      <trkpt lat="43.00043" lon="2.5614">
        <ele>330.65455</ele>
        <time>2016-06-03T10:15:30Z</time>
      </trkpt>
      <trkpt lat="43.00042" lon="2.56138">
        <ele>330.408907</ele>
        <time>2016-06-03T10:15:33Z</time>
      </trkpt>
      <trkpt lat="43.00041" lon="2.56139">
        <ele>330.458573</ele>
        <time>2016-06-03T10:15:36Z</time>
      </trkpt>
      <trkpt lat="43.00039" lon="2.56139">
        <ele>330.400928</ele>
        <time>2016-06-03T10:15:39Z</time>
      </trkpt>
      <trkpt lat="43.00039" lon="2.56139">
        <ele>332.408253</ele>
        <time>2016-06-03T10:15:52Z</time>
      </trkpt>
      <trkpt lat="43.00039" lon="2.56139">
        <ele>332.571012</ele>
        <time>2016-06-03T10:16:31Z</time>
      </trkpt>
      <trkpt lat="43.00041" lon="2.56142">
        <ele>332.407656</ele>
        <time>2016-06-03T10:16:33Z</time>
      </trkpt>
      <trkpt lat="43.00042" lon="2.56142">
        <ele>332.116153</ele>
        <time>2016-06-03T10:16:38Z</time>
      </trkpt>
      <trkpt lat="43.00045" lon="2.56142">
        <ele>332.329857</ele>
        <time>2016-06-03T10:16:48Z</time>
      </trkpt>
      <trkpt lat="43.00045" lon="2.56142">
        <ele>332.291181</ele>
        <time>2016-06-03T10:16:51Z</time>
      </trkpt>
      <trkpt lat="43.00045" lon="2.56142">
        <ele>332.323827</ele>
        <time>2016-06-03T10:17:04Z</time>
      </trkpt>
      <trkpt lat="43.00046" lon="2.56144">
        <ele>332.280319</ele>
        <time>2016-06-03T10:17:36Z</time>
      </trkpt>
      <trkpt lat="43.00046" lon="2.56144">
        <ele>332.169634</ele>
        <time>2016-06-03T10:17:40Z</time>
      </trkpt>
      <trkpt lat="43.00045" lon="2.56145">
        <ele>332.286247</ele>
        <time>2016-06-03T10:17:43Z</time>
      </trkpt>
      <trkpt lat="43.00044" lon="2.56147">
        <ele>332.13793</ele>
        <time>2016-06-03T10:17:54Z</time>
      </trkpt>
      <trkpt lat="43.00047" lon="2.56145">
        <ele>332.439324</ele>
        <time>2016-06-03T10:18:03Z</time>
      </trkpt>
      <trkpt lat="43.00046" lon="2.56146">
        <ele>332.245241</ele>
        <time>2016-06-03T10:18:19Z</time>
      </trkpt>
      <trkpt lat="43.00046" lon="2.56146">
        <ele>332.292356</ele>
        <time>2016-06-03T10:19:11Z</time>
      </trkpt>
      <trkpt lat="43.00047" lon="2.56144">
        <ele>332.143953</ele>
        <time>2016-06-03T10:19:12Z</time>
      </trkpt>
      <trkpt lat="43.00045" lon="2.56143">
        <ele>332.290629</ele>
        <time>2016-06-03T10:19:15Z</time>
      </trkpt>
      <trkpt lat="43.00044" lon="2.56143">
        <ele>332.399427</ele>
        <time>2016-06-03T10:19:27Z</time>
      </trkpt>
      <trkpt lat="43.00044" lon="2.56143">
        <ele>332.458022</ele>
        <time>2016-06-03T10:19:59Z</time>
      </trkpt>
      <trkpt lat="43.00045" lon="2.56144">
        <ele>332.358327</ele>
        <time>2016-06-03T10:20:10Z</time>
      </trkpt>
      <trkpt lat="43.00044" lon="2.56145">
        <ele>332.162714</ele>
        <time>2016-06-03T10:20:31Z</time>
      </trkpt>
      <trkpt lat="43.00038" lon="2.56151">
        <ele>331.991632</ele>
        <time>2016-06-03T10:20:34Z</time>
      </trkpt>
      <trkpt lat="43.00034" lon="2.56162">
        <ele>332.119642</ele>
        <time>2016-06-03T10:20:36Z</time>
      </trkpt>
      <trkpt lat="43.00025" lon="2.56175">
        <ele>332.645762</ele>
        <time>2016-06-03T10:20:38Z</time>
      </trkpt>
      <trkpt lat="43.00019" lon="2.56188">
        <ele>332.925823</ele>
        <time>2016-06-03T10:20:41Z</time>
      </trkpt>
      <trkpt lat="43.00016" lon="2.56213">
        <ele>332.688122</ele>
        <time>2016-06-03T10:20:43Z</time>
      </trkpt>
      <trkpt lat="43.00018" lon="2.56242">
        <ele>333.222307</ele>
        <time>2016-06-03T10:20:46Z</time>
      </trkpt>
      <trkpt lat="43.00019" lon="2.56264">
        <ele>333.429008</ele>
        <time>2016-06-03T10:20:48Z</time>
      </trkpt>
      <trkpt lat="43.00027" lon="2.56292">
        <ele>333.818981</ele>
        <time>2016-06-03T10:20:51Z</time>
      </trkpt>
      <trkpt lat="43.00035" lon="2.56322">
        <ele>334.64071</ele>
        <time>2016-06-03T10:20:54Z</time>
      </trkpt>
      <trkpt lat="43.00043" lon="2.56344">
        <ele>335.371746</ele>
        <time>2016-06-03T10:20:56Z</time>
      </trkpt>
      <trkpt lat="43.00058" lon="2.56379">
        <ele>337.013527</ele>
        <time>2016-06-03T10:20:59Z</time>
      </trkpt>
      <trkpt lat="43.00069" lon="2.56419">
        <ele>339.015883</ele>
        <time>2016-06-03T10:21:02Z</time>
      </trkpt>
      <trkpt lat="43.00077" lon="2.5647">
        <ele>342.406636</ele>
        <time>2016-06-03T10:21:06Z</time>
      </trkpt>
      <trkpt lat="43.00086" lon="2.56505">
        <ele>344.719328</ele>
        <time>2016-06-03T10:21:10Z</time>
      </trkpt>
      <trkpt lat="43.001" lon="2.56522">
        <ele>346.333775</ele>
        <time>2016-06-03T10:21:13Z</time>
      </trkpt>
      <trkpt lat="43.00119" lon="2.56532">
        <ele>348.616631</ele>
        <time>2016-06-03T10:21:15Z</time>
      </trkpt>
      <trkpt lat="43.0014" lon="2.56548">
        <ele>350.643751</ele>
        <time>2016-06-03T10:21:17Z</time>
      </trkpt>
      <trkpt lat="43.00164" lon="2.56559">
        <ele>352.696023</ele>
        <time>2016-06-03T10:21:19Z</time>
      </trkpt>
      <trkpt lat="43.00194" lon="2.56574">
        <ele>355.55486</ele>
        <time>2016-06-03T10:21:22Z</time>
      </trkpt>
      <trkpt lat="43.00202" lon="2.5658">
        <ele>355.98528</ele>
        <time>2016-06-03T10:21:23Z</time>
      </trkpt>
      <trkpt lat="43.00211" lon="2.56598">
        <ele>357.705241</ele>
        <time>2016-06-03T10:21:25Z</time>
      </trkpt>
      <trkpt lat="43.00223" lon="2.56651">
        <ele>359.5794</ele>
        <time>2016-06-03T10:21:28Z</time>
      </trkpt>
      <trkpt lat="43.00221" lon="2.56703">
        <ele>362.443103</ele>
        <time>2016-06-03T10:21:31Z</time>
      </trkpt>
      <trkpt lat="43.00213" lon="2.5673">
        <ele>363.628309</ele>
        <time>2016-06-03T10:21:33Z</time>
      </trkpt>
      <trkpt lat="43.002" lon="2.56753">
        <ele>365.810419</ele>
        <time>2016-06-03T10:21:35Z</time>
      </trkpt>
      <trkpt lat="43.00194" lon="2.5678">
        <ele>367.898381</ele>
        <time>2016-06-03T10:21:37Z</time>
      </trkpt>
      <trkpt lat="43.00188" lon="2.56835">
        <ele>369.535385</ele>
        <time>2016-06-03T10:21:40Z</time>
      </trkpt>
      <trkpt lat="43.00187" lon="2.56869">
        <ele>371.603071</ele>
        <time>2016-06-03T10:21:42Z</time>
      </trkpt>
      <trkpt lat="43.00188" lon="2.56904">
        <ele>373.693501</ele>
        <time>2016-06-03T10:21:44Z</time>
      </trkpt>
      <trkpt lat="43.0018" lon="2.56938">
        <ele>375.080149</ele>
        <time>2016-06-03T10:21:46Z</time>
      </trkpt>
      <trkpt lat="43.00158" lon="2.57">
        <ele>379.151603</ele>
        <time>2016-06-03T10:21:49Z</time>
      </trkpt>
      <trkpt lat="43.00148" lon="2.57038">
        <ele>380.554269</ele>
        <time>2016-06-03T10:21:51Z</time>
      </trkpt>
      <trkpt lat="43.00125" lon="2.57098">
        <ele>384.090833</ele>
        <time>2016-06-03T10:21:54Z</time>
      </trkpt>
      <trkpt lat="43.00109" lon="2.57158">
        <ele>386.642845</ele>
        <time>2016-06-03T10:21:57Z</time>
      </trkpt>
      <trkpt lat="43.00088" lon="2.57211">
        <ele>388.901642</ele>
        <time>2016-06-03T10:22:00Z</time>
      </trkpt>
      <trkpt lat="43.00068" lon="2.57256">
        <ele>392.458512</ele>
        <time>2016-06-03T10:22:02Z</time>
      </trkpt>
      <trkpt lat="43.00059" lon="2.57294">
        <ele>393.182941</ele>
        <time>2016-06-03T10:22:04Z</time>
      </trkpt>
      <trkpt lat="43.00045" lon="2.57325">
        <ele>395.420693</ele>
        <time>2016-06-03T10:22:06Z</time>
      </trkpt>
      <trkpt lat="43.00023" lon="2.57366">
        <ele>398.580328</ele>
        <time>2016-06-03T10:22:09Z</time>
      </trkpt>
      <trkpt lat="43.00003" lon="2.57431">
        <ele>403.084635</ele>
        <time>2016-06-03T10:22:12Z</time>
      </trkpt>
      <trkpt lat="42.99991" lon="2.5747">
        <ele>404.808868</ele>
        <time>2016-06-03T10:22:14Z</time>
      </trkpt>
      <trkpt lat="42.99964" lon="2.57542">
        <ele>409.340384</ele>
        <time>2016-06-03T10:22:18Z</time>
      </trkpt>
      <trkpt lat="42.99934" lon="2.5761">
        <ele>413.386572</ele>
        <time>2016-06-03T10:22:22Z</time>
      </trkpt>
      <trkpt lat="42.99912" lon="2.57648">
        <ele>415.771555</ele>
        <time>2016-06-03T10:22:25Z</time>
      </trkpt>
      <trkpt lat="42.999" lon="2.57666">
        <ele>417.798175</ele>
        <time>2016-06-03T10:22:27Z</time>
      </trkpt>
      <trkpt lat="42.999" lon="2.57683">
        <ele>419.148445</ele>
        <time>2016-06-03T10:22:29Z</time>
      </trkpt>
      <trkpt lat="42.99903" lon="2.57697">
        <ele>419.659099</ele>
        <time>2016-06-03T10:22:31Z</time>
      </trkpt>
      <trkpt lat="42.99921" lon="2.57698">
        <ele>422.209037</ele>
        <time>2016-06-03T10:22:33Z</time>
      </trkpt>
      <trkpt lat="42.99948" lon="2.57675">
        <ele>424.331919</ele>
        <time>2016-06-03T10:22:35Z</time>
      </trkpt>
      <trkpt lat="42.99966" lon="2.57657">
        <ele>425.786708</ele>
        <time>2016-06-03T10:22:37Z</time>
      </trkpt>
      <trkpt lat="42.99987" lon="2.57648">
        <ele>427.568403</ele>
        <time>2016-06-03T10:22:39Z</time>
      </trkpt>
      <trkpt lat="43.00008" lon="2.57653">
        <ele>428.764786</ele>
        <time>2016-06-03T10:22:41Z</time>
      </trkpt>
      <trkpt lat="43.00025" lon="2.57666">
        <ele>430.825303</ele>
        <time>2016-06-03T10:22:43Z</time>
      </trkpt>
      <trkpt lat="43.00036" lon="2.57674">
        <ele>431.599686</ele>
        <time>2016-06-03T10:22:45Z</time>
      </trkpt>
      <trkpt lat="43.00053" lon="2.57675">
        <ele>432.695728</ele>
        <time>2016-06-03T10:22:47Z</time>
      </trkpt>
      <trkpt lat="43.00064" lon="2.5765">
        <ele>434.362959</ele>
        <time>2016-06-03T10:22:49Z</time>
      </trkpt>
      <trkpt lat="43.00055" lon="2.57584">
        <ele>436.733287</ele>
        <time>2016-06-03T10:22:53Z</time>
      </trkpt>
      <trkpt lat="43.00054" lon="2.57561">
        <ele>438.761956</ele>
        <time>2016-06-03T10:22:55Z</time>
      </trkpt>
      <trkpt lat="43.00073" lon="2.57517">
        <ele>441.174245</ele>
        <time>2016-06-03T10:22:58Z</time>
      </trkpt>
      <trkpt lat="43.00106" lon="2.57458">
        <ele>445.318956</ele>
        <time>2016-06-03T10:23:02Z</time>
      </trkpt>
      <trkpt lat="43.00148" lon="2.574">
        <ele>450.037372</ele>
        <time>2016-06-03T10:23:06Z</time>
      </trkpt>
      <trkpt lat="43.00164" lon="2.57382">
        <ele>451.446752</ele>
        <time>2016-06-03T10:23:08Z</time>
      </trkpt>
      <trkpt lat="43.00184" lon="2.57373">
        <ele>452.821623</ele>
        <time>2016-06-03T10:23:10Z</time>
      </trkpt>
      <trkpt lat="43.00202" lon="2.57376">
        <ele>454.522837</ele>
        <time>2016-06-03T10:23:12Z</time>
      </trkpt>
      <trkpt lat="43.00223" lon="2.57393">
        <ele>456.848718</ele>
        <time>2016-06-03T10:23:14Z</time>
      </trkpt>
      <trkpt lat="43.00261" lon="2.57411">
        <ele>457.492247</ele>
        <time>2016-06-03T10:23:17Z</time>
      </trkpt>
      <trkpt lat="43.00281" lon="2.57419">
        <ele>460.929416</ele>
        <time>2016-06-03T10:23:19Z</time>
      </trkpt>
      <trkpt lat="43.00294" lon="2.57431">
        <ele>463.090672</ele>
        <time>2016-06-03T10:23:21Z</time>
      </trkpt>
      <trkpt lat="43.00296" lon="2.57446">
        <ele>466.429295</ele>
        <time>2016-06-03T10:23:23Z</time>
      </trkpt>
      <trkpt lat="43.00291" lon="2.57458">
        <ele>469.222027</ele>
        <time>2016-06-03T10:23:25Z</time>
      </trkpt>
      <trkpt lat="43.00286" lon="2.57466">
        <ele>470.314273</ele>
        <time>2016-06-03T10:23:28Z</time>
      </trkpt>
      <trkpt lat="43.00285" lon="2.57468">
        <ele>470.990241</ele>
        <time>2016-06-03T10:23:31Z</time>
      </trkpt>
      <trkpt lat="43.0028" lon="2.57476">
        <ele>471.160245</ele>
        <time>2016-06-03T10:23:34Z</time>
      </trkpt>
      <trkpt lat="43.00271" lon="2.57492">
        <ele>471.98643</ele>
        <time>2016-06-03T10:23:36Z</time>
      </trkpt>
      <trkpt lat="43.00259" lon="2.57504">
        <ele>473.103348</ele>
        <time>2016-06-03T10:23:38Z</time>
      </trkpt>
      <trkpt lat="43.00241" lon="2.57511">
        <ele>474.268622</ele>
        <time>2016-06-03T10:23:40Z</time>
      </trkpt>
      <trkpt lat="43.00222" lon="2.57509">
        <ele>474.541784</ele>
        <time>2016-06-03T10:23:42Z</time>
      </trkpt>
      <trkpt lat="43.00202" lon="2.57514">
        <ele>475.054749</ele>
        <time>2016-06-03T10:23:44Z</time>
      </trkpt>
      <trkpt lat="43.00185" lon="2.57528">
        <ele>475.891872</ele>
        <time>2016-06-03T10:23:46Z</time>
      </trkpt>
      <trkpt lat="43.0017" lon="2.57565">
        <ele>476.126708</ele>
        <time>2016-06-03T10:23:48Z</time>
      </trkpt>
      <trkpt lat="43.00155" lon="2.57627">
        <ele>477.112538</ele>
        <time>2016-06-03T10:23:51Z</time>
      </trkpt>
      <trkpt lat="43.00123" lon="2.57733">
        <ele>478.128299</ele>
        <time>2016-06-03T10:23:56Z</time>
      </trkpt>
      <trkpt lat="43.00108" lon="2.57771">
        <ele>479.721648</ele>
        <time>2016-06-03T10:23:58Z</time>
      </trkpt>
      <trkpt lat="43.00079" lon="2.57822">
        <ele>482.13801</ele>
        <time>2016-06-03T10:24:01Z</time>
      </trkpt>
      <trkpt lat="43.00053" lon="2.57862">
        <ele>483.783372</ele>
        <time>2016-06-03T10:24:04Z</time>
      </trkpt>
      <trkpt lat="43.00039" lon="2.57873">
        <ele>485.307734</ele>
        <time>2016-06-03T10:24:06Z</time>
      </trkpt>
      <trkpt lat="43.00024" lon="2.57871">
        <ele>485.475298</ele>
        <time>2016-06-03T10:24:08Z</time>
      </trkpt>
      <trkpt lat="43.00013" lon="2.57854">
        <ele>486.581794</ele>
        <time>2016-06-03T10:24:10Z</time>
      </trkpt>
      <trkpt lat="43" lon="2.5783">
        <ele>486.446729</ele>
        <time>2016-06-03T10:24:12Z</time>
      </trkpt>
      <trkpt lat="42.99993" lon="2.5782">
        <ele>487.225542</ele>
        <time>2016-06-03T10:24:13Z</time>
      </trkpt>
      <trkpt lat="42.99973" lon="2.57821">
        <ele>487.93746</ele>
        <time>2016-06-03T10:24:15Z</time>
      </trkpt>
      <trkpt lat="42.99952" lon="2.57828">
        <ele>488.288511</ele>
        <time>2016-06-03T10:24:17Z</time>
      </trkpt>
      <trkpt lat="42.99924" lon="2.57871">
        <ele>490.735608</ele>
        <time>2016-06-03T10:24:20Z</time>
      </trkpt>
      <trkpt lat="42.99908" lon="2.57898">
        <ele>491.585173</ele>
        <time>2016-06-03T10:24:22Z</time>
      </trkpt>
      <trkpt lat="42.9988" lon="2.57925">
        <ele>493.217547</ele>
        <time>2016-06-03T10:24:25Z</time>
      </trkpt>
      <trkpt lat="42.99866" lon="2.57955">
        <ele>494.925619</ele>
        <time>2016-06-03T10:24:27Z</time>
      </trkpt>
      <trkpt lat="42.99855" lon="2.57983">
        <ele>495.546132</ele>
        <time>2016-06-03T10:24:29Z</time>
      </trkpt>
      <trkpt lat="42.99837" lon="2.58003">
        <ele>496.894337</ele>
        <time>2016-06-03T10:24:31Z</time>
      </trkpt>
      <trkpt lat="42.99813" lon="2.58019">
        <ele>498.290162</ele>
        <time>2016-06-03T10:24:33Z</time>
      </trkpt>
      <trkpt lat="42.99795" lon="2.58041">
        <ele>499.308092</ele>
        <time>2016-06-03T10:24:35Z</time>
      </trkpt>
      <trkpt lat="42.99782" lon="2.58065">
        <ele>499.80924</ele>
        <time>2016-06-03T10:24:37Z</time>
      </trkpt>
      <trkpt lat="42.99777" lon="2.58125">
        <ele>501.500956</ele>
        <time>2016-06-03T10:24:41Z</time>
      </trkpt>
      <trkpt lat="42.99768" lon="2.58145">
        <ele>502.423122</ele>
        <time>2016-06-03T10:24:43Z</time>
      </trkpt>
      <trkpt lat="42.99763" lon="2.58151">
        <ele>502.619614</ele>
        <time>2016-06-03T10:24:44Z</time>
      </trkpt>
      <trkpt lat="42.99755" lon="2.58153">
        <ele>503.051726</ele>
        <time>2016-06-03T10:24:45Z</time>
      </trkpt>
      <trkpt lat="42.99731" lon="2.58142">
        <ele>503.875063</ele>
        <time>2016-06-03T10:24:47Z</time>
      </trkpt>
      <trkpt lat="42.99706" lon="2.58126">
        <ele>504.121905</ele>
        <time>2016-06-03T10:24:49Z</time>
      </trkpt>
      <trkpt lat="42.99683" lon="2.58121">
        <ele>504.495314</ele>
        <time>2016-06-03T10:24:51Z</time>
      </trkpt>
      <trkpt lat="42.99648" lon="2.58151">
        <ele>506.954496</ele>
        <time>2016-06-03T10:24:54Z</time>
      </trkpt>
      <trkpt lat="42.99626" lon="2.58173">
        <ele>507.404729</ele>
        <time>2016-06-03T10:24:56Z</time>
      </trkpt>
      <trkpt lat="42.99604" lon="2.58189">
        <ele>509.358911</ele>
        <time>2016-06-03T10:24:58Z</time>
      </trkpt>
      <trkpt lat="42.99578" lon="2.582">
        <ele>510.376887</ele>
        <time>2016-06-03T10:25:00Z</time>
      </trkpt>
      <trkpt lat="42.99556" lon="2.58203">
        <ele>511.428133</ele>
        <time>2016-06-03T10:25:02Z</time>
      </trkpt>
      <trkpt lat="42.99532" lon="2.58195">
        <ele>511.23762</ele>
        <time>2016-06-03T10:25:04Z</time>
      </trkpt>
      <trkpt lat="42.99512" lon="2.58175">
        <ele>512.733886</ele>
        <time>2016-06-03T10:25:06Z</time>
      </trkpt>
      <trkpt lat="42.99473" lon="2.58113">
        <ele>512.217038</ele>
        <time>2016-06-03T10:25:10Z</time>
      </trkpt>
      <trkpt lat="42.99443" lon="2.58067">
        <ele>512.164263</ele>
        <time>2016-06-03T10:25:13Z</time>
      </trkpt>
      <trkpt lat="42.99409" lon="2.58029">
        <ele>510.744699</ele>
        <time>2016-06-03T10:25:16Z</time>
      </trkpt>
      <trkpt lat="42.99385" lon="2.58008">
        <ele>509.497201</ele>
        <time>2016-06-03T10:25:18Z</time>
      </trkpt>
      <trkpt lat="42.99328" lon="2.57976">
        <ele>506.725638</ele>
        <time>2016-06-03T10:25:22Z</time>
      </trkpt>
      <trkpt lat="42.99289" lon="2.57951">
        <ele>502.011329</ele>
        <time>2016-06-03T10:25:25Z</time>
      </trkpt>
      <trkpt lat="42.99267" lon="2.57942">
        <ele>501.120186</ele>
        <time>2016-06-03T10:25:27Z</time>
      </trkpt>
      <trkpt lat="42.99248" lon="2.57928">
        <ele>499.178256</ele>
        <time>2016-06-03T10:25:29Z</time>
      </trkpt>
      <trkpt lat="42.9923" lon="2.57907">
        <ele>497.009944</ele>
        <time>2016-06-03T10:25:31Z</time>
      </trkpt>
      <trkpt lat="42.99204" lon="2.57841">
        <ele>494.405594</ele>
        <time>2016-06-03T10:25:36Z</time>
      </trkpt>
      <trkpt lat="42.99188" lon="2.5784">
        <ele>493.212721</ele>
        <time>2016-06-03T10:25:39Z</time>
      </trkpt>
      <trkpt lat="42.99174" lon="2.57855">
        <ele>493.864022</ele>
        <time>2016-06-03T10:25:41Z</time>
      </trkpt>
      <trkpt lat="42.99156" lon="2.57859">
        <ele>493.246813</ele>
        <time>2016-06-03T10:25:43Z</time>
      </trkpt>
      <trkpt lat="42.99135" lon="2.57854">
        <ele>493.073707</ele>
        <time>2016-06-03T10:25:45Z</time>
      </trkpt>
      <trkpt lat="42.99104" lon="2.57828">
        <ele>492.421683</ele>
        <time>2016-06-03T10:25:48Z</time>
      </trkpt>
      <trkpt lat="42.99085" lon="2.57805">
        <ele>492.207118</ele>
        <time>2016-06-03T10:25:50Z</time>
      </trkpt>
      <trkpt lat="42.99066" lon="2.57758">
        <ele>489.366862</ele>
        <time>2016-06-03T10:25:53Z</time>
      </trkpt>
      <trkpt lat="42.99047" lon="2.57707">
        <ele>487.867591</ele>
        <time>2016-06-03T10:25:56Z</time>
      </trkpt>
      <trkpt lat="42.99033" lon="2.57677">
        <ele>485.572783</ele>
        <time>2016-06-03T10:25:58Z</time>
      </trkpt>
      <trkpt lat="42.99015" lon="2.57659">
        <ele>485.911309</ele>
        <time>2016-06-03T10:26:00Z</time>
      </trkpt>
      <trkpt lat="42.98987" lon="2.57648">
        <ele>482.889441</ele>
        <time>2016-06-03T10:26:02Z</time>
      </trkpt>
      <trkpt lat="42.9896" lon="2.57648">
        <ele>482.154928</ele>
        <time>2016-06-03T10:26:04Z</time>
      </trkpt>
      <trkpt lat="42.98935" lon="2.57635">
        <ele>480.289968</ele>
        <time>2016-06-03T10:26:06Z</time>
      </trkpt>
      <trkpt lat="42.98913" lon="2.57613">
        <ele>478.653027</ele>
        <time>2016-06-03T10:26:08Z</time>
      </trkpt>
      <trkpt lat="42.98885" lon="2.57597">
        <ele>478.11633</ele>
        <time>2016-06-03T10:26:10Z</time>
      </trkpt>
      <trkpt lat="42.98822" lon="2.57582">
        <ele>474.009713</ele>
        <time>2016-06-03T10:26:14Z</time>
      </trkpt>
      <trkpt lat="42.98794" lon="2.57571">
        <ele>470.901007</ele>
        <time>2016-06-03T10:26:16Z</time>
      </trkpt>
      <trkpt lat="42.98766" lon="2.57554">
        <ele>470.454061</ele>
        <time>2016-06-03T10:26:18Z</time>
      </trkpt>
      <trkpt lat="42.98729" lon="2.57509">
        <ele>466.966478</ele>
        <time>2016-06-03T10:26:21Z</time>
      </trkpt>
      <trkpt lat="42.98692" lon="2.57455">
        <ele>462.02872</ele>
        <time>2016-06-03T10:26:24Z</time>
      </trkpt>
      <trkpt lat="42.98669" lon="2.57432">
        <ele>461.062388</ele>
        <time>2016-06-03T10:26:26Z</time>
      </trkpt>
      <trkpt lat="42.98637" lon="2.57417">
        <ele>460.552573</ele>
        <time>2016-06-03T10:26:29Z</time>
      </trkpt>
      <trkpt lat="42.98626" lon="2.57414">
        <ele>459.948651</ele>
        <time>2016-06-03T10:26:30Z</time>
      </trkpt>
      <trkpt lat="42.98614" lon="2.57433">
        <ele>460.251251</ele>
        <time>2016-06-03T10:26:32Z</time>
      </trkpt>
      <trkpt lat="42.98601" lon="2.57466">
        <ele>459.95793</ele>
        <time>2016-06-03T10:26:34Z</time>
      </trkpt>
      <trkpt lat="42.98585" lon="2.57494">
        <ele>459.127786</ele>
        <time>2016-06-03T10:26:36Z</time>
      </trkpt>
      <trkpt lat="42.98566" lon="2.57518">
        <ele>458.265812</ele>
        <time>2016-06-03T10:26:38Z</time>
      </trkpt>
      <trkpt lat="42.98544" lon="2.57522">
        <ele>457.402941</ele>
        <time>2016-06-03T10:26:40Z</time>
      </trkpt>
      <trkpt lat="42.98533" lon="2.57523">
        <ele>458.258578</ele>
        <time>2016-06-03T10:26:41Z</time>
      </trkpt>
      <trkpt lat="42.98495" lon="2.575">
        <ele>456.597132</ele>
        <time>2016-06-03T10:26:44Z</time>
      </trkpt>
      <trkpt lat="42.98479" lon="2.57476">
        <ele>455.649452</ele>
        <time>2016-06-03T10:26:46Z</time>
      </trkpt>
      <trkpt lat="42.98461" lon="2.57444">
        <ele>454.55674</ele>
        <time>2016-06-03T10:26:48Z</time>
      </trkpt>
      <trkpt lat="42.98439" lon="2.5742">
        <ele>453.535197</ele>
        <time>2016-06-03T10:26:50Z</time>
      </trkpt>
      <trkpt lat="42.98414" lon="2.57404">
        <ele>452.674243</ele>
        <time>2016-06-03T10:26:52Z</time>
      </trkpt>
      <trkpt lat="42.98387" lon="2.57394">
        <ele>452.739451</ele>
        <time>2016-06-03T10:26:54Z</time>
      </trkpt>
      <trkpt lat="42.98363" lon="2.57394">
        <ele>451.072283</ele>
        <time>2016-06-03T10:26:56Z</time>
      </trkpt>
      <trkpt lat="42.9834" lon="2.57404">
        <ele>450.374807</ele>
        <time>2016-06-03T10:26:58Z</time>
      </trkpt>
      <trkpt lat="42.98309" lon="2.57442">
        <ele>449.446518</ele>
        <time>2016-06-03T10:27:01Z</time>
      </trkpt>
      <trkpt lat="42.98286" lon="2.57458">
        <ele>448.654588</ele>
        <time>2016-06-03T10:27:03Z</time>
      </trkpt>
      <trkpt lat="42.98266" lon="2.5748">
        <ele>446.680322</ele>
        <time>2016-06-03T10:27:05Z</time>
      </trkpt>
      <trkpt lat="42.98234" lon="2.57546">
        <ele>444.282001</ele>
        <time>2016-06-03T10:27:09Z</time>
      </trkpt>
      <trkpt lat="42.98207" lon="2.57586">
        <ele>442.658372</ele>
        <time>2016-06-03T10:27:12Z</time>
      </trkpt>
      <trkpt lat="42.98201" lon="2.57597">
        <ele>442.5045</ele>
        <time>2016-06-03T10:27:13Z</time>
      </trkpt>
      <trkpt lat="42.9818" lon="2.57605">
        <ele>441.054821</ele>
        <time>2016-06-03T10:27:15Z</time>
      </trkpt>
      <trkpt lat="42.98142" lon="2.57611">
        <ele>439.262492</ele>
        <time>2016-06-03T10:27:18Z</time>
      </trkpt>
      <trkpt lat="42.98114" lon="2.57628">
        <ele>438.112591</ele>
        <time>2016-06-03T10:27:20Z</time>
      </trkpt>
      <trkpt lat="42.98068" lon="2.57663">
        <ele>437.64567</ele>
        <time>2016-06-03T10:27:23Z</time>
      </trkpt>
      <trkpt lat="42.98021" lon="2.57689">
        <ele>439.741381</ele>
        <time>2016-06-03T10:27:26Z</time>
      </trkpt>
      <trkpt lat="42.97978" lon="2.5771">
        <ele>442.280655</ele>
        <time>2016-06-03T10:27:29Z</time>
      </trkpt>
      <trkpt lat="42.97948" lon="2.57711">
        <ele>443.815678</ele>
        <time>2016-06-03T10:27:31Z</time>
      </trkpt>
      <trkpt lat="42.97903" lon="2.57697">
        <ele>445.876968</ele>
        <time>2016-06-03T10:27:34Z</time>
      </trkpt>
      <trkpt lat="42.97875" lon="2.57677">
        <ele>447.752611</ele>
        <time>2016-06-03T10:27:36Z</time>
      </trkpt>
      <trkpt lat="42.97833" lon="2.57659">
        <ele>450.359135</ele>
        <time>2016-06-03T10:27:39Z</time>
      </trkpt>
      <trkpt lat="42.9782" lon="2.57655">
        <ele>448.365749</ele>
        <time>2016-06-03T10:27:40Z</time>
      </trkpt>
      <trkpt lat="42.97801" lon="2.5766">
        <ele>451.932814</ele>
        <time>2016-06-03T10:27:42Z</time>
      </trkpt>
      <trkpt lat="42.97768" lon="2.57677">
        <ele>453.356383</ele>
        <time>2016-06-03T10:27:45Z</time>
      </trkpt>
      <trkpt lat="42.97753" lon="2.57677">
        <ele>453.942261</ele>
        <time>2016-06-03T10:27:47Z</time>
      </trkpt>
      <trkpt lat="42.97749" lon="2.57674">
        <ele>454.188757</ele>
        <time>2016-06-03T10:27:48Z</time>
      </trkpt>
      <trkpt lat="42.9774" lon="2.57641">
        <ele>455.351671</ele>
        <time>2016-06-03T10:27:51Z</time>
      </trkpt>
      <trkpt lat="42.97756" lon="2.57614">
        <ele>456.840563</ele>
        <time>2016-06-03T10:27:53Z</time>
      </trkpt>
      <trkpt lat="42.97765" lon="2.5759">
        <ele>457.241209</ele>
        <time>2016-06-03T10:27:55Z</time>
      </trkpt>
      <trkpt lat="42.9777" lon="2.57581">
        <ele>456.745098</ele>
        <time>2016-06-03T10:27:56Z</time>
      </trkpt>
      <trkpt lat="42.9777" lon="2.57554">
        <ele>458.127551</ele>
        <time>2016-06-03T10:27:58Z</time>
      </trkpt>
      <trkpt lat="42.97761" lon="2.57506">
        <ele>458.350597</ele>
        <time>2016-06-03T10:28:01Z</time>
      </trkpt>
      <trkpt lat="42.97749" lon="2.57497">
        <ele>458.914227</ele>
        <time>2016-06-03T10:28:02Z</time>
      </trkpt>
      <trkpt lat="42.97732" lon="2.57472">
        <ele>458.592074</ele>
        <time>2016-06-03T10:28:04Z</time>
      </trkpt>
      <trkpt lat="42.97712" lon="2.5746">
        <ele>458.891719</ele>
        <time>2016-06-03T10:28:06Z</time>
      </trkpt>
      <trkpt lat="42.97683" lon="2.57457">
        <ele>459.42928</ele>
        <time>2016-06-03T10:28:09Z</time>
      </trkpt>
      <trkpt lat="42.97661" lon="2.57481">
        <ele>458.788356</ele>
        <time>2016-06-03T10:28:11Z</time>
      </trkpt>
      <trkpt lat="42.9764" lon="2.57488">
        <ele>459.761881</ele>
        <time>2016-06-03T10:28:13Z</time>
      </trkpt>
      <trkpt lat="42.97616" lon="2.57487">
        <ele>460.613238</ele>
        <time>2016-06-03T10:28:16Z</time>
      </trkpt>
      <trkpt lat="42.97602" lon="2.575">
        <ele>461.753608</ele>
        <time>2016-06-03T10:28:18Z</time>
      </trkpt>
      <trkpt lat="42.97571" lon="2.57545">
        <ele>463.678611</ele>
        <time>2016-06-03T10:28:22Z</time>
      </trkpt>
      <trkpt lat="42.97553" lon="2.57564">
        <ele>464.675284</ele>
        <time>2016-06-03T10:28:24Z</time>
      </trkpt>
      <trkpt lat="42.97518" lon="2.57588">
        <ele>464.758335</ele>
        <time>2016-06-03T10:28:27Z</time>
      </trkpt>
      <trkpt lat="42.97498" lon="2.57607">
        <ele>465.419702</ele>
        <time>2016-06-03T10:28:29Z</time>
      </trkpt>
      <trkpt lat="42.97489" lon="2.57615">
        <ele>466.240738</ele>
        <time>2016-06-03T10:28:30Z</time>
      </trkpt>
      <trkpt lat="42.97466" lon="2.57615">
        <ele>466.578245</ele>
        <time>2016-06-03T10:28:32Z</time>
      </trkpt>
      <trkpt lat="42.97445" lon="2.57623">
        <ele>467.622721</ele>
        <time>2016-06-03T10:28:34Z</time>
      </trkpt>
      <trkpt lat="42.97414" lon="2.57654">
        <ele>468.75859</ele>
        <time>2016-06-03T10:28:37Z</time>
      </trkpt>
      <trkpt lat="42.97396" lon="2.57671">
        <ele>467.84481</ele>
        <time>2016-06-03T10:28:39Z</time>
      </trkpt>
      <trkpt lat="42.97389" lon="2.57697">
        <ele>470.47314</ele>
        <time>2016-06-03T10:28:41Z</time>
      </trkpt>
      <trkpt lat="42.97386" lon="2.57727">
        <ele>471.604993</ele>
        <time>2016-06-03T10:28:43Z</time>
      </trkpt>
      <trkpt lat="42.97371" lon="2.57783">
        <ele>473.139365</ele>
        <time>2016-06-03T10:28:46Z</time>
      </trkpt>
      <trkpt lat="42.9735" lon="2.57863">
        <ele>473.383382</ele>
        <time>2016-06-03T10:28:50Z</time>
      </trkpt>
      <trkpt lat="42.97342" lon="2.57891">
        <ele>475.608694</ele>
        <time>2016-06-03T10:28:52Z</time>
      </trkpt>
      <trkpt lat="42.97338" lon="2.57928">
        <ele>476.534047</ele>
        <time>2016-06-03T10:28:54Z</time>
      </trkpt>
      <trkpt lat="42.97353" lon="2.57972">
        <ele>478.101926</ele>
        <time>2016-06-03T10:28:57Z</time>
      </trkpt>
      <trkpt lat="42.97369" lon="2.57997">
        <ele>478.11293</ele>
        <time>2016-06-03T10:28:59Z</time>
      </trkpt>
      <trkpt lat="42.97376" lon="2.58026">
        <ele>478.584468</ele>
        <time>2016-06-03T10:29:01Z</time>
      </trkpt>
      <trkpt lat="42.97378" lon="2.58039">
        <ele>478.814905</ele>
        <time>2016-06-03T10:29:02Z</time>
      </trkpt>
      <trkpt lat="42.97371" lon="2.58061">
        <ele>478.377812</ele>
        <time>2016-06-03T10:29:04Z</time>
      </trkpt>
      <trkpt lat="42.97364" lon="2.58073">
        <ele>480.088351</ele>
        <time>2016-06-03T10:29:11Z</time>
      </trkpt>
      <trkpt lat="42.97365" lon="2.58074">
        <ele>480.27137</ele>
        <time>2016-06-03T10:29:12Z</time>
      </trkpt>
      <trkpt lat="42.97363" lon="2.58075">
        <ele>480.195943</ele>
        <time>2016-06-03T10:29:13Z</time>
      </trkpt>
      <trkpt lat="42.97348" lon="2.58067">
        <ele>480.182751</ele>
        <time>2016-06-03T10:29:16Z</time>
      </trkpt>
      <trkpt lat="42.97319" lon="2.58059">
        <ele>479.482927</ele>
        <time>2016-06-03T10:29:19Z</time>
      </trkpt>
      <trkpt lat="42.97281" lon="2.58066">
        <ele>478.46862</ele>
        <time>2016-06-03T10:29:22Z</time>
      </trkpt>
      <trkpt lat="42.97216" lon="2.58088">
        <ele>476.950061</ele>
        <time>2016-06-03T10:29:26Z</time>
      </trkpt>
      <trkpt lat="42.97167" lon="2.58106">
        <ele>474.301338</ele>
        <time>2016-06-03T10:29:29Z</time>
      </trkpt>
      <trkpt lat="42.97137" lon="2.58115">
        <ele>474.129444</ele>
        <time>2016-06-03T10:29:31Z</time>
      </trkpt>
      <trkpt lat="42.97109" lon="2.5811">
        <ele>473.456856</ele>
        <time>2016-06-03T10:29:33Z</time>
      </trkpt>
      <trkpt lat="42.97071" lon="2.58094">
        <ele>471.913212</ele>
        <time>2016-06-03T10:29:36Z</time>
      </trkpt>
      <trkpt lat="42.97044" lon="2.58091">
        <ele>470.81924</ele>
        <time>2016-06-03T10:29:38Z</time>
      </trkpt>
      <trkpt lat="42.97018" lon="2.58106">
        <ele>470.716114</ele>
        <time>2016-06-03T10:29:40Z</time>
      </trkpt>
      <trkpt lat="42.96991" lon="2.58115">
        <ele>468.531438</ele>
        <time>2016-06-03T10:29:42Z</time>
      </trkpt>
      <trkpt lat="42.96966" lon="2.58109">
        <ele>467.174913</ele>
        <time>2016-06-03T10:29:44Z</time>
      </trkpt>
      <trkpt lat="42.96944" lon="2.58094">
        <ele>466.635411</ele>
        <time>2016-06-03T10:29:46Z</time>
      </trkpt>
      <trkpt lat="42.96934" lon="2.58085">
        <ele>465.560734</ele>
        <time>2016-06-03T10:29:47Z</time>
      </trkpt>
      <trkpt lat="42.96909" lon="2.5808">
        <ele>464.82114</ele>
        <time>2016-06-03T10:29:49Z</time>
      </trkpt>
      <trkpt lat="42.96897" lon="2.58081">
        <ele>465.141133</ele>
        <time>2016-06-03T10:29:50Z</time>
      </trkpt>
      <trkpt lat="42.96877" lon="2.58102">
        <ele>464.145144</ele>
        <time>2016-06-03T10:29:52Z</time>
      </trkpt>
      <trkpt lat="42.96859" lon="2.58129">
        <ele>462.567975</ele>
        <time>2016-06-03T10:29:54Z</time>
      </trkpt>
      <trkpt lat="42.96839" lon="2.58142">
        <ele>461.754723</ele>
        <time>2016-06-03T10:29:56Z</time>
      </trkpt>
      <trkpt lat="42.96811" lon="2.58146">
        <ele>460.311946</ele>
        <time>2016-06-03T10:29:58Z</time>
      </trkpt>
      <trkpt lat="42.96767" lon="2.58124">
        <ele>459.188866</ele>
        <time>2016-06-03T10:30:01Z</time>
      </trkpt>
      <trkpt lat="42.96722" lon="2.58096">
        <ele>456.353274</ele>
        <time>2016-06-03T10:30:04Z</time>
      </trkpt>
      <trkpt lat="42.96682" lon="2.58076">
        <ele>456.431242</ele>
        <time>2016-06-03T10:30:07Z</time>
      </trkpt>
      <trkpt lat="42.96658" lon="2.58056">
        <ele>454.764975</ele>
        <time>2016-06-03T10:30:09Z</time>
      </trkpt>
      <trkpt lat="42.96625" lon="2.57983">
        <ele>450.39759</ele>
        <time>2016-06-03T10:30:13Z</time>
      </trkpt>
      <trkpt lat="42.9659" lon="2.57941">
        <ele>448.943201</ele>
        <time>2016-06-03T10:30:16Z</time>
      </trkpt>
      <trkpt lat="42.96542" lon="2.57924">
        <ele>447.46823</ele>
        <time>2016-06-03T10:30:19Z</time>
      </trkpt>
      <trkpt lat="42.96515" lon="2.57914">
        <ele>446.821256</ele>
        <time>2016-06-03T10:30:21Z</time>
      </trkpt>
      <trkpt lat="42.96495" lon="2.57894">
        <ele>445.097153</ele>
        <time>2016-06-03T10:30:23Z</time>
      </trkpt>
      <trkpt lat="42.96483" lon="2.57861">
        <ele>445.020316</ele>
        <time>2016-06-03T10:30:25Z</time>
      </trkpt>
      <trkpt lat="42.96473" lon="2.57817">
        <ele>443.854462</ele>
        <time>2016-06-03T10:30:27Z</time>
      </trkpt>
      <trkpt lat="42.96451" lon="2.57754">
        <ele>441.750178</ele>
        <time>2016-06-03T10:30:30Z</time>
      </trkpt>
      <trkpt lat="42.96426" lon="2.5772">
        <ele>441.057699</ele>
        <time>2016-06-03T10:30:32Z</time>
      </trkpt>
      <trkpt lat="42.96414" lon="2.57707">
        <ele>441.30411</ele>
        <time>2016-06-03T10:30:33Z</time>
      </trkpt>
      <trkpt lat="42.96398" lon="2.57676">
        <ele>439.831786</ele>
        <time>2016-06-03T10:30:35Z</time>
      </trkpt>
      <trkpt lat="42.96389" lon="2.57636">
        <ele>438.917074</ele>
        <time>2016-06-03T10:30:37Z</time>
      </trkpt>
      <trkpt lat="42.96372" lon="2.57598">
        <ele>437.519958</ele>
        <time>2016-06-03T10:30:39Z</time>
      </trkpt>
      <trkpt lat="42.96352" lon="2.57525">
        <ele>436.092514</ele>
        <time>2016-06-03T10:30:42Z</time>
      </trkpt>
      <trkpt lat="42.96328" lon="2.57455">
        <ele>433.980569</ele>
        <time>2016-06-03T10:30:45Z</time>
      </trkpt>
      <trkpt lat="42.96309" lon="2.57412">
        <ele>437.847478</ele>
        <time>2016-06-03T10:30:47Z</time>
      </trkpt>
      <trkpt lat="42.96272" lon="2.57304">
        <ele>438.194329</ele>
        <time>2016-06-03T10:30:51Z</time>
      </trkpt>
      <trkpt lat="42.96247" lon="2.57215">
        <ele>437.722752</ele>
        <time>2016-06-03T10:30:54Z</time>
      </trkpt>
      <trkpt lat="42.96223" lon="2.57143">
        <ele>437.55467</ele>
        <time>2016-06-03T10:30:57Z</time>
      </trkpt>
      <trkpt lat="42.96206" lon="2.57066">
        <ele>439.390712</ele>
        <time>2016-06-03T10:31:01Z</time>
      </trkpt>
      <trkpt lat="42.9619" lon="2.57063">
        <ele>439.863101</ele>
        <time>2016-06-03T10:31:02Z</time>
      </trkpt>
      <trkpt lat="42.96166" lon="2.57048">
        <ele>440.011274</ele>
        <time>2016-06-03T10:31:04Z</time>
      </trkpt>
      <trkpt lat="42.96136" lon="2.57054">
        <ele>441.549176</ele>
        <time>2016-06-03T10:31:06Z</time>
      </trkpt>
      <trkpt lat="42.96121" lon="2.57071">
        <ele>441.278642</ele>
        <time>2016-06-03T10:31:07Z</time>
      </trkpt>
      <trkpt lat="42.96092" lon="2.5709">
        <ele>441.237928</ele>
        <time>2016-06-03T10:31:09Z</time>
      </trkpt>
      <trkpt lat="42.96071" lon="2.57122">
        <ele>441.8827</ele>
        <time>2016-06-03T10:31:11Z</time>
      </trkpt>
      <trkpt lat="42.9605" lon="2.57142">
        <ele>442.345957</ele>
        <time>2016-06-03T10:31:13Z</time>
      </trkpt>
      <trkpt lat="42.96025" lon="2.57143">
        <ele>442.786527</ele>
        <time>2016-06-03T10:31:15Z</time>
      </trkpt>
      <trkpt lat="42.96013" lon="2.57142">
        <ele>443.280093</ele>
        <time>2016-06-03T10:31:16Z</time>
      </trkpt>
      <trkpt lat="42.95983" lon="2.57123">
        <ele>443.897745</ele>
        <time>2016-06-03T10:31:18Z</time>
      </trkpt>
      <trkpt lat="42.95944" lon="2.57069">
        <ele>445.206228</ele>
        <time>2016-06-03T10:31:21Z</time>
      </trkpt>
      <trkpt lat="42.95907" lon="2.57006">
        <ele>443.608995</ele>
        <time>2016-06-03T10:31:24Z</time>
      </trkpt>
      <trkpt lat="42.95868" lon="2.5696">
        <ele>443.77203</ele>
        <time>2016-06-03T10:31:27Z</time>
      </trkpt>
      <trkpt lat="42.95844" lon="2.56936">
        <ele>444.344274</ele>
        <time>2016-06-03T10:31:29Z</time>
      </trkpt>
      <trkpt lat="42.95827" lon="2.56909">
        <ele>444.753496</ele>
        <time>2016-06-03T10:31:31Z</time>
      </trkpt>
      <trkpt lat="42.95809" lon="2.56858">
        <ele>445.014518</ele>
        <time>2016-06-03T10:31:34Z</time>
      </trkpt>
      <trkpt lat="42.95799" lon="2.56827">
        <ele>445.903946</ele>
        <time>2016-06-03T10:31:36Z</time>
      </trkpt>
      <trkpt lat="42.9579" lon="2.56795">
        <ele>445.367098</ele>
        <time>2016-06-03T10:31:38Z</time>
      </trkpt>
      <trkpt lat="42.95786" lon="2.56763">
        <ele>444.911202</ele>
        <time>2016-06-03T10:31:40Z</time>
      </trkpt>
      <trkpt lat="42.95779" lon="2.56741">
        <ele>445.806768</ele>
        <time>2016-06-03T10:31:42Z</time>
      </trkpt>
      <trkpt lat="42.95765" lon="2.56718">
        <ele>446.880135</ele>
        <time>2016-06-03T10:31:44Z</time>
      </trkpt>
      <trkpt lat="42.95746" lon="2.56707">
        <ele>447.003992</ele>
        <time>2016-06-03T10:31:46Z</time>
      </trkpt>
      <trkpt lat="42.95704" lon="2.5669">
        <ele>447.964586</ele>
        <time>2016-06-03T10:31:50Z</time>
      </trkpt>
      <trkpt lat="42.95659" lon="2.56662">
        <ele>448.957414</ele>
        <time>2016-06-03T10:31:55Z</time>
      </trkpt>
      <trkpt lat="42.95642" lon="2.56646">
        <ele>449.874954</ele>
        <time>2016-06-03T10:31:57Z</time>
      </trkpt>
      <trkpt lat="42.95628" lon="2.56622">
        <ele>449.963078</ele>
        <time>2016-06-03T10:31:59Z</time>
      </trkpt>
      <trkpt lat="42.95622" lon="2.56609">
        <ele>450.089264</ele>
        <time>2016-06-03T10:32:00Z</time>
      </trkpt>
      <trkpt lat="42.95623" lon="2.56592">
        <ele>450.673969</ele>
        <time>2016-06-03T10:32:01Z</time>
      </trkpt>
      <trkpt lat="42.95607" lon="2.56551">
        <ele>450.843966</ele>
        <time>2016-06-03T10:32:04Z</time>
      </trkpt>
      <trkpt lat="42.95587" lon="2.56511">
        <ele>452.187567</ele>
        <time>2016-06-03T10:32:07Z</time>
      </trkpt>
      <trkpt lat="42.95576" lon="2.56481">
        <ele>452.82053</ele>
        <time>2016-06-03T10:32:10Z</time>
      </trkpt>
      <trkpt lat="42.95568" lon="2.56465">
        <ele>453.421924</ele>
        <time>2016-06-03T10:32:12Z</time>
      </trkpt>
      <trkpt lat="42.95564" lon="2.56449">
        <ele>453.812166</ele>
        <time>2016-06-03T10:32:13Z</time>
      </trkpt>
      <trkpt lat="42.95567" lon="2.56435">
        <ele>453.809102</ele>
        <time>2016-06-03T10:32:16Z</time>
      </trkpt>
      <trkpt lat="42.95577" lon="2.56407">
        <ele>453.69572</ele>
        <time>2016-06-03T10:32:18Z</time>
      </trkpt>
      <trkpt lat="42.95588" lon="2.56382">
        <ele>453.987929</ele>
        <time>2016-06-03T10:32:21Z</time>
      </trkpt>
      <trkpt lat="42.95598" lon="2.56368">
        <ele>453.990223</ele>
        <time>2016-06-03T10:32:23Z</time>
      </trkpt>
      <trkpt lat="42.95615" lon="2.56351">
        <ele>454.411718</ele>
        <time>2016-06-03T10:32:26Z</time>
      </trkpt>
      <trkpt lat="42.95642" lon="2.56337">
        <ele>454.726725</ele>
        <time>2016-06-03T10:32:30Z</time>
      </trkpt>
      <trkpt lat="42.95659" lon="2.56329">
        <ele>455.969292</ele>
        <time>2016-06-03T10:32:33Z</time>
      </trkpt>
      <trkpt lat="42.95676" lon="2.56325">
        <ele>456.752446</ele>
        <time>2016-06-03T10:32:36Z</time>
      </trkpt>
      <trkpt lat="42.95695" lon="2.56318">
        <ele>458.221637</ele>
        <time>2016-06-03T10:32:39Z</time>
      </trkpt>
      <trkpt lat="42.95715" lon="2.56309">
        <ele>459.753053</ele>
        <time>2016-06-03T10:32:42Z</time>
      </trkpt>
      <trkpt lat="42.95744" lon="2.56299">
        <ele>460.837311</ele>
        <time>2016-06-03T10:32:45Z</time>
      </trkpt>
      <trkpt lat="42.95777" lon="2.56287">
        <ele>462.433379</ele>
        <time>2016-06-03T10:32:48Z</time>
      </trkpt>
      <trkpt lat="42.95815" lon="2.56275">
        <ele>463.841269</ele>
        <time>2016-06-03T10:32:51Z</time>
      </trkpt>
      <trkpt lat="42.95845" lon="2.56267">
        <ele>465.829546</ele>
        <time>2016-06-03T10:32:53Z</time>
      </trkpt>
      <trkpt lat="42.9592" lon="2.56262">
        <ele>469.783492</ele>
        <time>2016-06-03T10:32:58Z</time>
      </trkpt>
      <trkpt lat="42.95967" lon="2.56259">
        <ele>472.905595</ele>
        <time>2016-06-03T10:33:01Z</time>
      </trkpt>
      <trkpt lat="42.95998" lon="2.56249">
        <ele>474.859932</ele>
        <time>2016-06-03T10:33:03Z</time>
      </trkpt>
      <trkpt lat="42.9603" lon="2.56232">
        <ele>476.799117</ele>
        <time>2016-06-03T10:33:05Z</time>
      </trkpt>
      <trkpt lat="42.96074" lon="2.56199">
        <ele>478.571794</ele>
        <time>2016-06-03T10:33:08Z</time>
      </trkpt>
      <trkpt lat="42.96094" lon="2.56172">
        <ele>481.11241</ele>
        <time>2016-06-03T10:33:10Z</time>
      </trkpt>
      <trkpt lat="42.96101" lon="2.56156">
        <ele>481.007984</ele>
        <time>2016-06-03T10:33:11Z</time>
      </trkpt>
      <trkpt lat="42.96104" lon="2.56119">
        <ele>483.379153</ele>
        <time>2016-06-03T10:33:13Z</time>
      </trkpt>
      <trkpt lat="42.96102" lon="2.56074">
        <ele>485.636455</ele>
        <time>2016-06-03T10:33:15Z</time>
      </trkpt>
      <trkpt lat="42.96105" lon="2.55998">
        <ele>487.977788</ele>
        <time>2016-06-03T10:33:18Z</time>
      </trkpt>
      <trkpt lat="42.96102" lon="2.55953">
        <ele>488.133969</ele>
        <time>2016-06-03T10:33:20Z</time>
      </trkpt>
      <trkpt lat="42.96102" lon="2.55911">
        <ele>490.867375</ele>
        <time>2016-06-03T10:33:22Z</time>
      </trkpt>
      <trkpt lat="42.96119" lon="2.55871">
        <ele>494.004074</ele>
        <time>2016-06-03T10:33:24Z</time>
      </trkpt>
      <trkpt lat="42.96142" lon="2.5583">
        <ele>494.939598</ele>
        <time>2016-06-03T10:33:26Z</time>
      </trkpt>
      <trkpt lat="42.96173" lon="2.55754">
        <ele>500.184513</ele>
        <time>2016-06-03T10:33:29Z</time>
      </trkpt>
      <trkpt lat="42.96212" lon="2.55639">
        <ele>503.416369</ele>
        <time>2016-06-03T10:33:33Z</time>
      </trkpt>
      <trkpt lat="42.96234" lon="2.5557">
        <ele>506.630927</ele>
        <time>2016-06-03T10:33:36Z</time>
      </trkpt>
      <trkpt lat="42.96238" lon="2.55525">
        <ele>509.761281</ele>
        <time>2016-06-03T10:33:38Z</time>
      </trkpt>
      <trkpt lat="42.9623" lon="2.55454">
        <ele>512.561951</ele>
        <time>2016-06-03T10:33:41Z</time>
      </trkpt>
      <trkpt lat="42.96229" lon="2.55409">
        <ele>514.209071</ele>
        <time>2016-06-03T10:33:43Z</time>
      </trkpt>
      <trkpt lat="42.9624" lon="2.5534">
        <ele>516.00599</ele>
        <time>2016-06-03T10:33:46Z</time>
      </trkpt>
      <trkpt lat="42.96243" lon="2.55291">
        <ele>517.330257</ele>
        <time>2016-06-03T10:33:48Z</time>
      </trkpt>
      <trkpt lat="42.96239" lon="2.55241">
        <ele>520.335286</ele>
        <time>2016-06-03T10:33:50Z</time>
      </trkpt>
      <trkpt lat="42.96218" lon="2.55137">
        <ele>525.863501</ele>
        <time>2016-06-03T10:33:54Z</time>
      </trkpt>
      <trkpt lat="42.96205" lon="2.55088">
        <ele>526.495855</ele>
        <time>2016-06-03T10:33:56Z</time>
      </trkpt>
      <trkpt lat="42.9618" lon="2.55034">
        <ele>529.634592</ele>
        <time>2016-06-03T10:33:59Z</time>
      </trkpt>
      <trkpt lat="42.96167" lon="2.54937">
        <ele>534.42763</ele>
        <time>2016-06-03T10:34:03Z</time>
      </trkpt>
      <trkpt lat="42.96148" lon="2.54835">
        <ele>537.564775</ele>
        <time>2016-06-03T10:34:07Z</time>
      </trkpt>
      <trkpt lat="42.96128" lon="2.54789">
        <ele>540.068732</ele>
        <time>2016-06-03T10:34:09Z</time>
      </trkpt>
      <trkpt lat="42.96094" lon="2.54727">
        <ele>544.489671</ele>
        <time>2016-06-03T10:34:12Z</time>
      </trkpt>
      <trkpt lat="42.96073" lon="2.54654">
        <ele>545.669536</ele>
        <time>2016-06-03T10:34:15Z</time>
      </trkpt>
      <trkpt lat="42.9606" lon="2.54605">
        <ele>547.417459</ele>
        <time>2016-06-03T10:34:17Z</time>
      </trkpt>
      <trkpt lat="42.96051" lon="2.54548">
        <ele>550.648537</ele>
        <time>2016-06-03T10:34:19Z</time>
      </trkpt>
      <trkpt lat="42.96048" lon="2.5442">
        <ele>555.867014</ele>
        <time>2016-06-03T10:34:23Z</time>
      </trkpt>
      <trkpt lat="42.96048" lon="2.54322">
        <ele>558.511734</ele>
        <time>2016-06-03T10:34:26Z</time>
      </trkpt>
      <trkpt lat="42.9605" lon="2.54206">
        <ele>561.53796</ele>
        <time>2016-06-03T10:34:30Z</time>
      </trkpt>
      <trkpt lat="42.96051" lon="2.54106">
        <ele>560.816804</ele>
        <time>2016-06-03T10:34:33Z</time>
      </trkpt>
      <trkpt lat="42.96046" lon="2.53999">
        <ele>558.462568</ele>
        <time>2016-06-03T10:34:36Z</time>
      </trkpt>
      <trkpt lat="42.9604" lon="2.53807">
        <ele>554.918721</ele>
        <time>2016-06-03T10:34:41Z</time>
      </trkpt>
      <trkpt lat="42.96035" lon="2.5369">
        <ele>553.644333</ele>
        <time>2016-06-03T10:34:44Z</time>
      </trkpt>
      <trkpt lat="42.96031" lon="2.53531">
        <ele>549.104788</ele>
        <time>2016-06-03T10:34:48Z</time>
      </trkpt>
      <trkpt lat="42.96025" lon="2.53416">
        <ele>543.582201</ele>
        <time>2016-06-03T10:34:51Z</time>
      </trkpt>
      <trkpt lat="42.9602" lon="2.53283">
        <ele>537.001366</ele>
        <time>2016-06-03T10:34:55Z</time>
      </trkpt>
      <trkpt lat="42.96016" lon="2.53183">
        <ele>535.455607</ele>
        <time>2016-06-03T10:34:59Z</time>
      </trkpt>
      <trkpt lat="42.96013" lon="2.53121">
        <ele>534.255153</ele>
        <time>2016-06-03T10:35:03Z</time>
      </trkpt>
      <trkpt lat="42.96012" lon="2.53087">
        <ele>534.101867</ele>
        <time>2016-06-03T10:35:06Z</time>
      </trkpt>
      <trkpt lat="42.96011" lon="2.53061">
        <ele>534.569204</ele>
        <time>2016-06-03T10:35:10Z</time>
      </trkpt>
      <trkpt lat="42.96009" lon="2.53053">
        <ele>534.472042</ele>
        <time>2016-06-03T10:35:12Z</time>
      </trkpt>
      <trkpt lat="42.96005" lon="2.53049">
        <ele>534.777915</ele>
        <time>2016-06-03T10:35:14Z</time>
      </trkpt>
      <trkpt lat="42.95999" lon="2.53046">
        <ele>535.266081</ele>
        <time>2016-06-03T10:35:17Z</time>
      </trkpt>
      <trkpt lat="42.95997" lon="2.53047">
        <ele>535.263958</ele>
        <time>2016-06-03T10:35:21Z</time>
      </trkpt>
      <trkpt lat="42.95997" lon="2.53048">
        <ele>535.186754</ele>
        <time>2016-06-03T10:35:23Z</time>
      </trkpt>
      <trkpt lat="42.95998" lon="2.53048">
        <ele>535.170535</ele>
        <time>2016-06-03T10:35:27Z</time>
      </trkpt>
      <trkpt lat="42.95998" lon="2.53048">
        <ele>535.149149</ele>
        <time>2016-06-03T10:35:28Z</time>
      </trkpt>
      <trkpt lat="42.95997" lon="2.53052">
        <ele>535.157201</ele>
        <time>2016-06-03T10:35:31Z</time>
      </trkpt>
      <trkpt lat="42.96" lon="2.53052">
        <ele>535.287333</ele>
        <time>2016-06-03T10:35:33Z</time>
      </trkpt>
      <trkpt lat="42.96006" lon="2.53048">
        <ele>534.960851</ele>
        <time>2016-06-03T10:35:35Z</time>
      </trkpt>
      <trkpt lat="42.96009" lon="2.53028">
        <ele>534.993573</ele>
        <time>2016-06-03T10:35:37Z</time>
      </trkpt>
      <trkpt lat="42.96011" lon="2.52997">
        <ele>534.868258</ele>
        <time>2016-06-03T10:35:40Z</time>
      </trkpt>
      <trkpt lat="42.96012" lon="2.52968">
        <ele>535.442363</ele>
        <time>2016-06-03T10:35:43Z</time>
      </trkpt>
      <trkpt lat="42.96012" lon="2.52956">
        <ele>535.763639</ele>
        <time>2016-06-03T10:35:45Z</time>
      </trkpt>
      <trkpt lat="42.96014" lon="2.52945">
        <ele>536.004035</ele>
        <time>2016-06-03T10:35:47Z</time>
      </trkpt>
      <trkpt lat="42.96015" lon="2.52923">
        <ele>536.522649</ele>
        <time>2016-06-03T10:35:50Z</time>
      </trkpt>
      <trkpt lat="42.96016" lon="2.52899">
        <ele>537.866706</ele>
        <time>2016-06-03T10:35:54Z</time>
      </trkpt>
      <trkpt lat="42.96018" lon="2.52883">
        <ele>538.26097</ele>
        <time>2016-06-03T10:35:58Z</time>
      </trkpt>
      <trkpt lat="42.96016" lon="2.52862">
        <ele>538.799925</ele>
        <time>2016-06-03T10:36:01Z</time>
      </trkpt>
      <trkpt lat="42.96018" lon="2.52844">
        <ele>538.920398</ele>
        <time>2016-06-03T10:36:03Z</time>
      </trkpt>
      <trkpt lat="42.96017" lon="2.52822">
        <ele>538.8654</ele>
        <time>2016-06-03T10:36:06Z</time>
      </trkpt>
      <trkpt lat="42.96018" lon="2.52799">
        <ele>538.900501</ele>
        <time>2016-06-03T10:36:09Z</time>
      </trkpt>
      <trkpt lat="42.96018" lon="2.52785">
        <ele>538.497707</ele>
        <time>2016-06-03T10:36:11Z</time>
      </trkpt>
      <trkpt lat="42.96017" lon="2.52773">
        <ele>537.934786</ele>
        <time>2016-06-03T10:36:13Z</time>
      </trkpt>
      <trkpt lat="42.9602" lon="2.52745">
        <ele>537.143135</ele>
        <time>2016-06-03T10:36:17Z</time>
      </trkpt>
      <trkpt lat="42.96023" lon="2.5273">
        <ele>537.114767</ele>
        <time>2016-06-03T10:36:20Z</time>
      </trkpt>
      <trkpt lat="42.96024" lon="2.5271">
        <ele>537.212635</ele>
        <time>2016-06-03T10:36:23Z</time>
      </trkpt>
      <trkpt lat="42.96024" lon="2.52688">
        <ele>538.597074</ele>
        <time>2016-06-03T10:36:26Z</time>
      </trkpt>
      <trkpt lat="42.96025" lon="2.52682">
        <ele>539.030111</ele>
        <time>2016-06-03T10:36:27Z</time>
      </trkpt>
      <trkpt lat="42.96024" lon="2.52678">
        <ele>539.837343</ele>
        <time>2016-06-03T10:36:29Z</time>
      </trkpt>
      <trkpt lat="42.96024" lon="2.52674">
        <ele>539.923846</ele>
        <time>2016-06-03T10:36:31Z</time>
      </trkpt>
      <trkpt lat="42.96026" lon="2.52672">
        <ele>539.858515</ele>
        <time>2016-06-03T10:36:36Z</time>
      </trkpt>
      <trkpt lat="42.96024" lon="2.5267">
        <ele>539.858515</ele>
        <time>2016-06-03T10:36:37Z</time>
      </trkpt>
      <trkpt lat="42.96017" lon="2.52668">
        <ele>539.768121</ele>
        <time>2016-06-03T10:36:40Z</time>
      </trkpt>
      <trkpt lat="42.96012" lon="2.52666">
        <ele>539.796372</ele>
        <time>2016-06-03T10:36:42Z</time>
      </trkpt>
      <trkpt lat="42.96011" lon="2.52663">
        <ele>539.499601</ele>
        <time>2016-06-03T10:36:45Z</time>
      </trkpt>
      <trkpt lat="42.96009" lon="2.52662">
        <ele>539.442029</ele>
        <time>2016-06-03T10:36:48Z</time>
      </trkpt>
      <trkpt lat="42.96009" lon="2.52663">
        <ele>539.459351</ele>
        <time>2016-06-03T10:36:58Z</time>
      </trkpt>
      <trkpt lat="42.9601" lon="2.52663">
        <ele>539.466891</ele>
        <time>2016-06-03T10:37:24Z</time>
      </trkpt>
      <trkpt lat="42.96009" lon="2.52662">
        <ele>539.219692</ele>
        <time>2016-06-03T10:39:07Z</time>
      </trkpt>
      <trkpt lat="42.96011" lon="2.52664">
        <ele>539.108551</ele>
        <time>2016-06-03T10:40:00Z</time>
      </trkpt>
      <trkpt lat="42.96011" lon="2.52665">
        <ele>539.198484</ele>
        <time>2016-06-03T10:40:09Z</time>
      </trkpt>
      <trkpt lat="42.9601" lon="2.52667">
        <ele>539.361326</ele>
        <time>2016-06-03T10:40:24Z</time>
      </trkpt>
      <trkpt lat="42.96011" lon="2.52667">
        <ele>539.417866</ele>
        <time>2016-06-03T10:40:27Z</time>
      </trkpt>
      <trkpt lat="42.96011" lon="2.52666">
        <ele>539.317068</ele>
        <time>2016-06-03T10:40:29Z</time>
      </trkpt>
      <trkpt lat="42.9601" lon="2.52666">
        <ele>539.382876</ele>
        <time>2016-06-03T10:40:32Z</time>
      </trkpt>
      <trkpt lat="42.96009" lon="2.52664">
        <ele>539.204779</ele>
        <time>2016-06-03T10:40:34Z</time>
      </trkpt>
      <trkpt lat="42.96008" lon="2.52663">
        <ele>538.814783</ele>
        <time>2016-06-03T10:40:36Z</time>
      </trkpt>
      <trkpt lat="42.96007" lon="2.52664">
        <ele>538.636647</ele>
        <time>2016-06-03T10:40:38Z</time>
      </trkpt>
      <trkpt lat="42.96005" lon="2.52667">
        <ele>538.469348</ele>
        <time>2016-06-03T10:40:41Z</time>
      </trkpt>
      <trkpt lat="42.96004" lon="2.52671">
        <ele>538.113517</ele>
        <time>2016-06-03T10:40:45Z</time>
      </trkpt>
      <trkpt lat="42.96004" lon="2.52672">
        <ele>538.030201</ele>
        <time>2016-06-03T10:40:48Z</time>
      </trkpt>
      <trkpt lat="42.96005" lon="2.52673">
        <ele>537.665032</ele>
        <time>2016-06-03T10:40:55Z</time>
      </trkpt>
      <trkpt lat="42.96003" lon="2.5267">
        <ele>537.899073</ele>
        <time>2016-06-03T10:41:05Z</time>
      </trkpt>
      <trkpt lat="42.96002" lon="2.52669">
        <ele>536.93146</ele>
        <time>2016-06-03T10:49:04Z</time>
      </trkpt>
      <trkpt lat="42.96002" lon="2.52669">
        <ele>537.027778</ele>
        <time>2016-06-03T10:53:35Z</time>
      </trkpt>
      <trkpt lat="42.96002" lon="2.52671">
        <ele>536.706782</ele>
        <time>2016-06-03T10:53:45Z</time>
      </trkpt>
      <trkpt lat="42.96002" lon="2.52671">
        <ele>539.158261</ele>
        <time>2016-06-03T11:11:05Z</time>
      </trkpt>
      <trkpt lat="42.96005" lon="2.52671">
        <ele>539.161603</ele>
        <time>2016-06-03T11:11:10Z</time>
      </trkpt>
      <trkpt lat="42.96" lon="2.52674">
        <ele>539.187106</ele>
        <time>2016-06-03T11:11:21Z</time>
      </trkpt>
      <trkpt lat="42.96" lon="2.52674">
        <ele>539.331023</ele>
        <time>2016-06-03T11:12:30Z</time>
      </trkpt>
      <trkpt lat="42.95999" lon="2.52673">
        <ele>539.243752</ele>
        <time>2016-06-03T11:12:35Z</time>
      </trkpt>
      <trkpt lat="42.95998" lon="2.52672">
        <ele>544.529579</ele>
        <time>2016-06-03T11:12:52Z</time>
      </trkpt>
      <trkpt lat="42.95999" lon="2.52671">
        <ele>544.9422</ele>
        <time>2016-06-03T11:13:01Z</time>
      </trkpt>
      <trkpt lat="42.95999" lon="2.52671">
        <ele>545.128583</ele>
        <time>2016-06-03T11:14:46Z</time>
      </trkpt>
      <trkpt lat="42.95998" lon="2.5267">
        <ele>545.364578</ele>
        <time>2016-06-03T11:14:51Z</time>
      </trkpt>
      <trkpt lat="42.95998" lon="2.52671">
        <ele>545.590165</ele>
        <time>2016-06-03T11:15:02Z</time>
      </trkpt>
      <trkpt lat="42.95998" lon="2.52671">
        <ele>545.692185</ele>
        <time>2016-06-03T11:15:11Z</time>
      </trkpt>
      <trkpt lat="42.95998" lon="2.52672">
        <ele>545.96028</ele>
        <time>2016-06-03T11:15:22Z</time>
      </trkpt>
      <trkpt lat="42.95998" lon="2.52672">
        <ele>546.355521</ele>
        <time>2016-06-03T11:16:30Z</time>
      </trkpt>
      <trkpt lat="42.96002" lon="2.52672">
        <ele>546.461621</ele>
        <time>2016-06-03T11:16:40Z</time>
      </trkpt>
      <trkpt lat="42.96004" lon="2.52671">
        <ele>546.314228</ele>
        <time>2016-06-03T11:20:06Z</time>
      </trkpt>
      <trkpt lat="42.96004" lon="2.52671">
        <ele>546.123879</ele>
        <time>2016-06-03T11:20:11Z</time>
      </trkpt>
      <trkpt lat="42.95999" lon="2.52671">
        <ele>546.289964</ele>
        <time>2016-06-03T11:20:21Z</time>
      </trkpt>
      <trkpt lat="42.96" lon="2.52671">
        <ele>545.325901</ele>
        <time>2016-06-03T11:21:49Z</time>
      </trkpt>
      <trkpt lat="42.96" lon="2.52671">
        <ele>545.838835</ele>
        <time>2016-06-03T11:22:31Z</time>
      </trkpt>
      <trkpt lat="42.96001" lon="2.5267">
        <ele>545.823919</ele>
        <time>2016-06-03T11:22:38Z</time>
      </trkpt>
      <trkpt lat="42.96002" lon="2.52669">
        <ele>545.689023</ele>
        <time>2016-06-03T11:22:47Z</time>
      </trkpt>
      <trkpt lat="42.96003" lon="2.5267">
        <ele>546.186626</ele>
        <time>2016-06-03T11:22:58Z</time>
      </trkpt>
      <trkpt lat="42.96003" lon="2.5267">
        <ele>545.911828</ele>
        <time>2016-06-03T11:23:08Z</time>
      </trkpt>
      <trkpt lat="42.96003" lon="2.5267">
        <ele>548.846771</ele>
        <time>2016-06-03T11:30:44Z</time>
      </trkpt>
      <trkpt lat="42.96003" lon="2.52672">
        <ele>548.819738</ele>
        <time>2016-06-03T11:30:45Z</time>
      </trkpt>
      <trkpt lat="42.96004" lon="2.52668">
        <ele>548.988414</ele>
        <time>2016-06-03T11:30:49Z</time>
      </trkpt>
      <trkpt lat="42.96005" lon="2.52666">
        <ele>549.027499</ele>
        <time>2016-06-03T11:30:51Z</time>
      </trkpt>
      <trkpt lat="42.96004" lon="2.52664">
        <ele>549.283163</ele>
        <time>2016-06-03T11:30:53Z</time>
      </trkpt>
      <trkpt lat="42.96005" lon="2.52663">
        <ele>549.540335</ele>
        <time>2016-06-03T11:30:55Z</time>
      </trkpt>
      <trkpt lat="42.96007" lon="2.52662">
        <ele>550.06192</ele>
        <time>2016-06-03T11:30:58Z</time>
      </trkpt>
      <trkpt lat="42.96009" lon="2.52664">
        <ele>550.303201</ele>
        <time>2016-06-03T11:31:07Z</time>
      </trkpt>
      <trkpt lat="42.9601" lon="2.52665">
        <ele>550.042081</ele>
        <time>2016-06-03T11:31:20Z</time>
      </trkpt>
      <trkpt lat="42.96011" lon="2.52665">
        <ele>550.314378</ele>
        <time>2016-06-03T11:31:30Z</time>
      </trkpt>
      <trkpt lat="42.96013" lon="2.52666">
        <ele>550.059054</ele>
        <time>2016-06-03T11:33:11Z</time>
      </trkpt>
      <trkpt lat="42.96012" lon="2.52665">
        <ele>550.283989</ele>
        <time>2016-06-03T11:33:20Z</time>
      </trkpt>
      <trkpt lat="42.96012" lon="2.52665">
        <ele>550.665004</ele>
        <time>2016-06-03T11:33:57Z</time>
      </trkpt>
      <trkpt lat="42.96013" lon="2.52668">
        <ele>550.280219</ele>
        <time>2016-06-03T11:34:07Z</time>
      </trkpt>
      <trkpt lat="42.96013" lon="2.52668">
        <ele>550.328445</ele>
        <time>2016-06-03T11:34:19Z</time>
      </trkpt>
      <trkpt lat="42.96013" lon="2.52665">
        <ele>550.376271</ele>
        <time>2016-06-03T11:34:20Z</time>
      </trkpt>
      <trkpt lat="42.96015" lon="2.52669">
        <ele>550.36557</ele>
        <time>2016-06-03T11:34:23Z</time>
      </trkpt>
      <trkpt lat="42.96018" lon="2.52672">
        <ele>550.139502</ele>
        <time>2016-06-03T11:34:26Z</time>
      </trkpt>
      <trkpt lat="42.96021" lon="2.52673">
        <ele>549.740709</ele>
        <time>2016-06-03T11:34:28Z</time>
      </trkpt>
      <trkpt lat="42.96024" lon="2.52678">
        <ele>548.904666</ele>
        <time>2016-06-03T11:34:30Z</time>
      </trkpt>
      <trkpt lat="42.96023" lon="2.52703">
        <ele>547.737343</ele>
        <time>2016-06-03T11:34:33Z</time>
      </trkpt>
      <trkpt lat="42.96022" lon="2.52727">
        <ele>546.569986</ele>
        <time>2016-06-03T11:34:36Z</time>
      </trkpt>
      <trkpt lat="42.96019" lon="2.52753">
        <ele>547.009144</ele>
        <time>2016-06-03T11:34:39Z</time>
      </trkpt>
      <trkpt lat="42.9602" lon="2.52763">
        <ele>547.035981</ele>
        <time>2016-06-03T11:34:40Z</time>
      </trkpt>
      <trkpt lat="42.96014" lon="2.5277">
        <ele>547.387194</ele>
        <time>2016-06-03T11:34:41Z</time>
      </trkpt>
      <trkpt lat="42.96014" lon="2.52787">
        <ele>547.378872</ele>
        <time>2016-06-03T11:34:43Z</time>
      </trkpt>
      <trkpt lat="42.96016" lon="2.52808">
        <ele>548.085801</ele>
        <time>2016-06-03T11:34:46Z</time>
      </trkpt>
      <trkpt lat="42.96017" lon="2.52843">
        <ele>548.621979</ele>
        <time>2016-06-03T11:34:50Z</time>
      </trkpt>
      <trkpt lat="42.96017" lon="2.5286">
        <ele>548.590108</ele>
        <time>2016-06-03T11:34:52Z</time>
      </trkpt>
      <trkpt lat="42.96014" lon="2.52889">
        <ele>548.102698</ele>
        <time>2016-06-03T11:34:55Z</time>
      </trkpt>
      <trkpt lat="42.96013" lon="2.52917">
        <ele>547.079407</ele>
        <time>2016-06-03T11:34:58Z</time>
      </trkpt>
      <trkpt lat="42.96014" lon="2.52935">
        <ele>546.752247</ele>
        <time>2016-06-03T11:35:01Z</time>
      </trkpt>
      <trkpt lat="42.96013" lon="2.52943">
        <ele>546.163705</ele>
        <time>2016-06-03T11:35:03Z</time>
      </trkpt>
      <trkpt lat="42.96008" lon="2.52943">
        <ele>545.682918</ele>
        <time>2016-06-03T11:35:05Z</time>
      </trkpt>
      <trkpt lat="42.96006" lon="2.52927">
        <ele>545.481432</ele>
        <time>2016-06-03T11:35:08Z</time>
      </trkpt>
      <trkpt lat="42.96006" lon="2.52905">
        <ele>545.36692</ele>
        <time>2016-06-03T11:35:10Z</time>
      </trkpt>
      <trkpt lat="42.95997" lon="2.52866">
        <ele>545.273734</ele>
        <time>2016-06-03T11:35:13Z</time>
      </trkpt>
      <trkpt lat="42.95988" lon="2.52839">
        <ele>544.875118</ele>
        <time>2016-06-03T11:35:15Z</time>
      </trkpt>
      <trkpt lat="42.95967" lon="2.52798">
        <ele>544.737364</ele>
        <time>2016-06-03T11:35:18Z</time>
      </trkpt>
      <trkpt lat="42.95935" lon="2.52742">
        <ele>542.450552</ele>
        <time>2016-06-03T11:35:22Z</time>
      </trkpt>
      <trkpt lat="42.95915" lon="2.52719">
        <ele>540.85156</ele>
        <time>2016-06-03T11:35:24Z</time>
      </trkpt>
      <trkpt lat="42.95878" lon="2.52701">
        <ele>538.666428</ele>
        <time>2016-06-03T11:35:27Z</time>
      </trkpt>
      <trkpt lat="42.95856" lon="2.52692">
        <ele>537.003104</ele>
        <time>2016-06-03T11:35:29Z</time>
      </trkpt>
      <trkpt lat="42.95841" lon="2.52675">
        <ele>536.218152</ele>
        <time>2016-06-03T11:35:31Z</time>
      </trkpt>
      <trkpt lat="42.95832" lon="2.52648">
        <ele>535.191505</ele>
        <time>2016-06-03T11:35:33Z</time>
      </trkpt>
      <trkpt lat="42.95832" lon="2.52605">
        <ele>533.932646</ele>
        <time>2016-06-03T11:35:36Z</time>
      </trkpt>
      <trkpt lat="42.9582" lon="2.52581">
        <ele>532.956068</ele>
        <time>2016-06-03T11:35:38Z</time>
      </trkpt>
      <trkpt lat="42.958" lon="2.52562">
        <ele>532.123074</ele>
        <time>2016-06-03T11:35:40Z</time>
      </trkpt>
      <trkpt lat="42.95782" lon="2.52537">
        <ele>530.459225</ele>
        <time>2016-06-03T11:35:42Z</time>
      </trkpt>
      <trkpt lat="42.95761" lon="2.52488">
        <ele>528.381477</ele>
        <time>2016-06-03T11:35:45Z</time>
      </trkpt>
      <trkpt lat="42.95738" lon="2.52448">
        <ele>526.233677</ele>
        <time>2016-06-03T11:35:48Z</time>
      </trkpt>
      <trkpt lat="42.9573" lon="2.5242">
        <ele>524.771465</ele>
        <time>2016-06-03T11:35:50Z</time>
      </trkpt>
      <trkpt lat="42.9573" lon="2.52369">
        <ele>522.522992</ele>
        <time>2016-06-03T11:35:53Z</time>
      </trkpt>
      <trkpt lat="42.95724" lon="2.52309">
        <ele>520.062619</ele>
        <time>2016-06-03T11:35:56Z</time>
      </trkpt>
      <trkpt lat="42.95715" lon="2.52249">
        <ele>516.840434</ele>
        <time>2016-06-03T11:35:59Z</time>
      </trkpt>
      <trkpt lat="42.95706" lon="2.52216">
        <ele>515.715645</ele>
        <time>2016-06-03T11:36:01Z</time>
      </trkpt>
      <trkpt lat="42.95689" lon="2.52191">
        <ele>515.274386</ele>
        <time>2016-06-03T11:36:03Z</time>
      </trkpt>
      <trkpt lat="42.95677" lon="2.5216">
        <ele>513.898914</ele>
        <time>2016-06-03T11:36:05Z</time>
      </trkpt>
      <trkpt lat="42.95665" lon="2.52098">
        <ele>511.969478</ele>
        <time>2016-06-03T11:36:08Z</time>
      </trkpt>
      <trkpt lat="42.95653" lon="2.52035">
        <ele>509.009645</ele>
        <time>2016-06-03T11:36:11Z</time>
      </trkpt>
      <trkpt lat="42.95649" lon="2.51994">
        <ele>507.33427</ele>
        <time>2016-06-03T11:36:13Z</time>
      </trkpt>
      <trkpt lat="42.95652" lon="2.51916">
        <ele>503.66905</ele>
        <time>2016-06-03T11:36:17Z</time>
      </trkpt>
      <trkpt lat="42.95641" lon="2.51886">
        <ele>502.556955</ele>
        <time>2016-06-03T11:36:19Z</time>
      </trkpt>
      <trkpt lat="42.95626" lon="2.5186">
        <ele>500.870271</ele>
        <time>2016-06-03T11:36:21Z</time>
      </trkpt>
      <trkpt lat="42.95619" lon="2.51823">
        <ele>499.672262</ele>
        <time>2016-06-03T11:36:23Z</time>
      </trkpt>
      <trkpt lat="42.95621" lon="2.51783">
        <ele>498.606738</ele>
        <time>2016-06-03T11:36:25Z</time>
      </trkpt>
      <trkpt lat="42.95636" lon="2.51746">
        <ele>495.997904</ele>
        <time>2016-06-03T11:36:27Z</time>
      </trkpt>
      <trkpt lat="42.95645" lon="2.51709">
        <ele>495.136732</ele>
        <time>2016-06-03T11:36:29Z</time>
      </trkpt>
      <trkpt lat="42.95643" lon="2.51651">
        <ele>493.42571</ele>
        <time>2016-06-03T11:36:32Z</time>
      </trkpt>
      <trkpt lat="42.95642" lon="2.5162">
        <ele>492.546032</ele>
        <time>2016-06-03T11:36:34Z</time>
      </trkpt>
      <trkpt lat="42.95639" lon="2.51605">
        <ele>492.424173</ele>
        <time>2016-06-03T11:36:35Z</time>
      </trkpt>
      <trkpt lat="42.95631" lon="2.51591">
        <ele>491.659743</ele>
        <time>2016-06-03T11:36:36Z</time>
      </trkpt>
      <trkpt lat="42.95604" lon="2.51576">
        <ele>489.657396</ele>
        <time>2016-06-03T11:36:38Z</time>
      </trkpt>
      <trkpt lat="42.95586" lon="2.51557">
        <ele>488.715152</ele>
        <time>2016-06-03T11:36:40Z</time>
      </trkpt>
      <trkpt lat="42.95579" lon="2.51531">
        <ele>487.249087</ele>
        <time>2016-06-03T11:36:42Z</time>
      </trkpt>
      <trkpt lat="42.95593" lon="2.51466">
        <ele>484.609947</ele>
        <time>2016-06-03T11:36:45Z</time>
      </trkpt>
      <trkpt lat="42.95605" lon="2.514">
        <ele>483.424232</ele>
        <time>2016-06-03T11:36:48Z</time>
      </trkpt>
      <trkpt lat="42.95622" lon="2.51338">
        <ele>480.267109</ele>
        <time>2016-06-03T11:36:51Z</time>
      </trkpt>
      <trkpt lat="42.95631" lon="2.51295">
        <ele>478.981467</ele>
        <time>2016-06-03T11:36:53Z</time>
      </trkpt>
      <trkpt lat="42.95634" lon="2.51235">
        <ele>476.713305</ele>
        <time>2016-06-03T11:36:56Z</time>
      </trkpt>
      <trkpt lat="42.95631" lon="2.51199">
        <ele>475.4709</ele>
        <time>2016-06-03T11:36:58Z</time>
      </trkpt>
      <trkpt lat="42.9562" lon="2.51167">
        <ele>473.523505</ele>
        <time>2016-06-03T11:37:00Z</time>
      </trkpt>
      <trkpt lat="42.95616" lon="2.51137">
        <ele>472.341194</ele>
        <time>2016-06-03T11:37:02Z</time>
      </trkpt>
      <trkpt lat="42.95617" lon="2.51124">
        <ele>471.997672</ele>
        <time>2016-06-03T11:37:03Z</time>
      </trkpt>
      <trkpt lat="42.95631" lon="2.51103">
        <ele>470.258833</ele>
        <time>2016-06-03T11:37:06Z</time>
      </trkpt>
      <trkpt lat="42.9564" lon="2.51098">
        <ele>470.010741</ele>
        <time>2016-06-03T11:37:07Z</time>
      </trkpt>
      <trkpt lat="42.95658" lon="2.51108">
        <ele>469.086003</ele>
        <time>2016-06-03T11:37:09Z</time>
      </trkpt>
      <trkpt lat="42.95672" lon="2.51126">
        <ele>467.675424</ele>
        <time>2016-06-03T11:37:11Z</time>
      </trkpt>
      <trkpt lat="42.95688" lon="2.5113">
        <ele>466.397733</ele>
        <time>2016-06-03T11:37:13Z</time>
      </trkpt>
      <trkpt lat="42.95703" lon="2.51124">
        <ele>465.555474</ele>
        <time>2016-06-03T11:37:15Z</time>
      </trkpt>
      <trkpt lat="42.95716" lon="2.51109">
        <ele>465.210015</ele>
        <time>2016-06-03T11:37:17Z</time>
      </trkpt>
      <trkpt lat="42.95726" lon="2.5108">
        <ele>464.352848</ele>
        <time>2016-06-03T11:37:20Z</time>
      </trkpt>
      <trkpt lat="42.95713" lon="2.51048">
        <ele>463.934273</ele>
        <time>2016-06-03T11:37:21Z</time>
      </trkpt>
      <trkpt lat="42.95683" lon="2.51025">
        <ele>462.037916</ele>
        <time>2016-06-03T11:37:24Z</time>
      </trkpt>
      <trkpt lat="42.95655" lon="2.50974">
        <ele>459.417848</ele>
        <time>2016-06-03T11:37:27Z</time>
      </trkpt>
      <trkpt lat="42.9564" lon="2.5095">
        <ele>458.749481</ele>
        <time>2016-06-03T11:37:29Z</time>
      </trkpt>
      <trkpt lat="42.95634" lon="2.50928">
        <ele>457.767242</ele>
        <time>2016-06-03T11:37:31Z</time>
      </trkpt>
      <trkpt lat="42.95636" lon="2.50901">
        <ele>456.527875</ele>
        <time>2016-06-03T11:37:33Z</time>
      </trkpt>
      <trkpt lat="42.9566" lon="2.50859">
        <ele>454.820918</ele>
        <time>2016-06-03T11:37:36Z</time>
      </trkpt>
      <trkpt lat="42.95672" lon="2.50827">
        <ele>453.485718</ele>
        <time>2016-06-03T11:37:38Z</time>
      </trkpt>
      <trkpt lat="42.95676" lon="2.5079">
        <ele>452.218726</ele>
        <time>2016-06-03T11:37:40Z</time>
      </trkpt>
      <trkpt lat="42.95675" lon="2.50754">
        <ele>450.190716</ele>
        <time>2016-06-03T11:37:42Z</time>
      </trkpt>
      <trkpt lat="42.95682" lon="2.50719">
        <ele>449.532581</ele>
        <time>2016-06-03T11:37:44Z</time>
      </trkpt>
      <trkpt lat="42.9571" lon="2.50645">
        <ele>445.64109</ele>
        <time>2016-06-03T11:37:48Z</time>
      </trkpt>
      <trkpt lat="42.95726" lon="2.50593">
        <ele>443.923913</ele>
        <time>2016-06-03T11:37:51Z</time>
      </trkpt>
      <trkpt lat="42.95735" lon="2.50562">
        <ele>441.292981</ele>
        <time>2016-06-03T11:37:53Z</time>
      </trkpt>
      <trkpt lat="42.95763" lon="2.5052">
        <ele>440.340636</ele>
        <time>2016-06-03T11:37:56Z</time>
      </trkpt>
      <trkpt lat="42.95773" lon="2.50504">
        <ele>440.340636</ele>
        <time>2016-06-03T11:37:57Z</time>
      </trkpt>
      <trkpt lat="42.95788" lon="2.50451">
        <ele>438.239448</ele>
        <time>2016-06-03T11:38:00Z</time>
      </trkpt>
      <trkpt lat="42.9579" lon="2.50414">
        <ele>436.618894</ele>
        <time>2016-06-03T11:38:02Z</time>
      </trkpt>
      <trkpt lat="42.9578" lon="2.5038">
        <ele>435.485521</ele>
        <time>2016-06-03T11:38:04Z</time>
      </trkpt>
      <trkpt lat="42.9578" lon="2.50349">
        <ele>433.785466</ele>
        <time>2016-06-03T11:38:06Z</time>
      </trkpt>
      <trkpt lat="42.95797" lon="2.50318">
        <ele>432.617582</ele>
        <time>2016-06-03T11:38:08Z</time>
      </trkpt>
      <trkpt lat="42.95818" lon="2.50296">
        <ele>431.005949</ele>
        <time>2016-06-03T11:38:10Z</time>
      </trkpt>
      <trkpt lat="42.95829" lon="2.50287">
        <ele>430.331926</ele>
        <time>2016-06-03T11:38:11Z</time>
      </trkpt>
      <trkpt lat="42.9587" lon="2.50283">
        <ele>429.195699</ele>
        <time>2016-06-03T11:38:14Z</time>
      </trkpt>
      <trkpt lat="42.95926" lon="2.50272">
        <ele>425.301616</ele>
        <time>2016-06-03T11:38:17Z</time>
      </trkpt>
      <trkpt lat="42.95969" lon="2.50259">
        <ele>422.30856</ele>
        <time>2016-06-03T11:38:20Z</time>
      </trkpt>
      <trkpt lat="42.95994" lon="2.50241">
        <ele>421.096003</ele>
        <time>2016-06-03T11:38:22Z</time>
      </trkpt>
      <trkpt lat="42.96022" lon="2.50199">
        <ele>419.728893</ele>
        <time>2016-06-03T11:38:25Z</time>
      </trkpt>
      <trkpt lat="42.96009" lon="2.50188">
        <ele>419.154299</ele>
        <time>2016-06-03T11:38:26Z</time>
      </trkpt>
      <trkpt lat="42.95999" lon="2.50168">
        <ele>419.025588</ele>
        <time>2016-06-03T11:38:27Z</time>
      </trkpt>
      <trkpt lat="42.95971" lon="2.50143">
        <ele>417.996373</ele>
        <time>2016-06-03T11:38:29Z</time>
      </trkpt>
      <trkpt lat="42.9596" lon="2.50121">
        <ele>415.679786</ele>
        <time>2016-06-03T11:38:31Z</time>
      </trkpt>
      <trkpt lat="42.95958" lon="2.50106">
        <ele>415.189448</ele>
        <time>2016-06-03T11:38:32Z</time>
      </trkpt>
      <trkpt lat="42.9596" lon="2.50093">
        <ele>414.404346</ele>
        <time>2016-06-03T11:38:33Z</time>
      </trkpt>
      <trkpt lat="42.95988" lon="2.50088">
        <ele>413.957903</ele>
        <time>2016-06-03T11:38:34Z</time>
      </trkpt>
      <trkpt lat="42.96005" lon="2.50063">
        <ele>412.845248</ele>
        <time>2016-06-03T11:38:36Z</time>
      </trkpt>
      <trkpt lat="42.9601" lon="2.50049">
        <ele>412.192238</ele>
        <time>2016-06-03T11:38:37Z</time>
      </trkpt>
      <trkpt lat="42.96007" lon="2.50013">
        <ele>412.304535</ele>
        <time>2016-06-03T11:38:39Z</time>
      </trkpt>
      <trkpt lat="42.95995" lon="2.5">
        <ele>410.629881</ele>
        <time>2016-06-03T11:38:40Z</time>
      </trkpt>
      <trkpt lat="42.95989" lon="2.49967">
        <ele>409.200937</ele>
        <time>2016-06-03T11:38:42Z</time>
      </trkpt>
      <trkpt lat="42.95988" lon="2.49949">
        <ele>408.737058</ele>
        <time>2016-06-03T11:38:43Z</time>
      </trkpt>
      <trkpt lat="42.95998" lon="2.49916">
        <ele>408.07387</ele>
        <time>2016-06-03T11:38:45Z</time>
      </trkpt>
      <trkpt lat="42.96003" lon="2.49885">
        <ele>406.045354</ele>
        <time>2016-06-03T11:38:47Z</time>
      </trkpt>
      <trkpt lat="42.96001" lon="2.49872">
        <ele>405.736392</ele>
        <time>2016-06-03T11:38:48Z</time>
      </trkpt>
      <trkpt lat="42.95986" lon="2.49851">
        <ele>404.747032</ele>
        <time>2016-06-03T11:38:50Z</time>
      </trkpt>
      <trkpt lat="42.95975" lon="2.49846">
        <ele>404.751</ele>
        <time>2016-06-03T11:38:51Z</time>
      </trkpt>
      <trkpt lat="42.95954" lon="2.49844">
        <ele>404.111519</ele>
        <time>2016-06-03T11:38:53Z</time>
      </trkpt>
      <trkpt lat="42.95939" lon="2.49815">
        <ele>404.00479</ele>
        <time>2016-06-03T11:38:55Z</time>
      </trkpt>
      <trkpt lat="42.95927" lon="2.49778">
        <ele>404.201347</ele>
        <time>2016-06-03T11:38:57Z</time>
      </trkpt>
      <trkpt lat="42.95921" lon="2.49742">
        <ele>402.475787</ele>
        <time>2016-06-03T11:38:59Z</time>
      </trkpt>
      <trkpt lat="42.95909" lon="2.49712">
        <ele>400.994712</ele>
        <time>2016-06-03T11:39:01Z</time>
      </trkpt>
      <trkpt lat="42.95879" lon="2.49666">
        <ele>399.608857</ele>
        <time>2016-06-03T11:39:04Z</time>
      </trkpt>
      <trkpt lat="42.95866" lon="2.49635">
        <ele>396.823773</ele>
        <time>2016-06-03T11:39:06Z</time>
      </trkpt>
      <trkpt lat="42.95859" lon="2.49614">
        <ele>395.602329</ele>
        <time>2016-06-03T11:39:08Z</time>
      </trkpt>
      <trkpt lat="42.95844" lon="2.49601">
        <ele>396.462382</ele>
        <time>2016-06-03T11:39:10Z</time>
      </trkpt>
      <trkpt lat="42.95813" lon="2.49579">
        <ele>394.02461</ele>
        <time>2016-06-03T11:39:12Z</time>
      </trkpt>
      <trkpt lat="42.95794" lon="2.49555">
        <ele>391.89421</ele>
        <time>2016-06-03T11:39:14Z</time>
      </trkpt>
      <trkpt lat="42.95782" lon="2.49532">
        <ele>391.063264</ele>
        <time>2016-06-03T11:39:16Z</time>
      </trkpt>
      <trkpt lat="42.95769" lon="2.49517">
        <ele>390.495031</ele>
        <time>2016-06-03T11:39:18Z</time>
      </trkpt>
      <trkpt lat="42.9576" lon="2.49512">
        <ele>390.080357</ele>
        <time>2016-06-03T11:39:19Z</time>
      </trkpt>
      <trkpt lat="42.95752" lon="2.49513">
        <ele>389.675506</ele>
        <time>2016-06-03T11:39:20Z</time>
      </trkpt>
      <trkpt lat="42.95732" lon="2.4953">
        <ele>388.721931</ele>
        <time>2016-06-03T11:39:22Z</time>
      </trkpt>
      <trkpt lat="42.95695" lon="2.49554">
        <ele>387.633024</ele>
        <time>2016-06-03T11:39:24Z</time>
      </trkpt>
      <trkpt lat="42.95652" lon="2.49565">
        <ele>385.813089</ele>
        <time>2016-06-03T11:39:27Z</time>
      </trkpt>
      <trkpt lat="42.95603" lon="2.49554">
        <ele>383.748488</ele>
        <time>2016-06-03T11:39:30Z</time>
      </trkpt>
      <trkpt lat="42.95564" lon="2.49539">
        <ele>381.680735</ele>
        <time>2016-06-03T11:39:33Z</time>
      </trkpt>
      <trkpt lat="42.95547" lon="2.49525">
        <ele>380.559771</ele>
        <time>2016-06-03T11:39:35Z</time>
      </trkpt>
      <trkpt lat="42.95537" lon="2.49502">
        <ele>379.438339</ele>
        <time>2016-06-03T11:39:37Z</time>
      </trkpt>
      <trkpt lat="42.95531" lon="2.49459">
        <ele>379.540548</ele>
        <time>2016-06-03T11:39:40Z</time>
      </trkpt>
      <trkpt lat="42.95531" lon="2.49449">
        <ele>379.255723</ele>
        <time>2016-06-03T11:39:41Z</time>
      </trkpt>
      <trkpt lat="42.9555" lon="2.49441">
        <ele>379.25144</ele>
        <time>2016-06-03T11:39:43Z</time>
      </trkpt>
      <trkpt lat="42.95582" lon="2.49421">
        <ele>379.653682</ele>
        <time>2016-06-03T11:39:46Z</time>
      </trkpt>
      <trkpt lat="42.95599" lon="2.49406">
        <ele>379.441129</ele>
        <time>2016-06-03T11:39:48Z</time>
      </trkpt>
      <trkpt lat="42.95611" lon="2.4938">
        <ele>379.434665</ele>
        <time>2016-06-03T11:39:50Z</time>
      </trkpt>
      <trkpt lat="42.95613" lon="2.49363">
        <ele>379.52276</ele>
        <time>2016-06-03T11:39:51Z</time>
      </trkpt>
      <trkpt lat="42.95588" lon="2.49341">
        <ele>380.817838</ele>
        <time>2016-06-03T11:39:52Z</time>
      </trkpt>
      <trkpt lat="42.95556" lon="2.4928">
        <ele>381.819846</ele>
        <time>2016-06-03T11:39:55Z</time>
      </trkpt>
      <trkpt lat="42.95523" lon="2.49226">
        <ele>383.380974</ele>
        <time>2016-06-03T11:39:58Z</time>
      </trkpt>
      <trkpt lat="42.95508" lon="2.49188">
        <ele>384.112147</ele>
        <time>2016-06-03T11:40:00Z</time>
      </trkpt>
      <trkpt lat="42.95501" lon="2.49142">
        <ele>385.411271</ele>
        <time>2016-06-03T11:40:02Z</time>
      </trkpt>
      <trkpt lat="42.95501" lon="2.49092">
        <ele>386.970418</ele>
        <time>2016-06-03T11:40:04Z</time>
      </trkpt>
      <trkpt lat="42.9549" lon="2.49019">
        <ele>388.760219</ele>
        <time>2016-06-03T11:40:07Z</time>
      </trkpt>
      <trkpt lat="42.95486" lon="2.48972">
        <ele>388.655495</ele>
        <time>2016-06-03T11:40:09Z</time>
      </trkpt>
      <trkpt lat="42.95489" lon="2.48923">
        <ele>390.243014</ele>
        <time>2016-06-03T11:40:11Z</time>
      </trkpt>
      <trkpt lat="42.95497" lon="2.48871">
        <ele>391.26023</ele>
        <time>2016-06-03T11:40:13Z</time>
      </trkpt>
      <trkpt lat="42.95518" lon="2.48801">
        <ele>392.993549</ele>
        <time>2016-06-03T11:40:16Z</time>
      </trkpt>
      <trkpt lat="42.95531" lon="2.48725">
        <ele>394.887793</ele>
        <time>2016-06-03T11:40:19Z</time>
      </trkpt>
      <trkpt lat="42.95534" lon="2.48679">
        <ele>396.623304</ele>
        <time>2016-06-03T11:40:21Z</time>
      </trkpt>
      <trkpt lat="42.95529" lon="2.48607">
        <ele>399.339708</ele>
        <time>2016-06-03T11:40:24Z</time>
      </trkpt>
      <trkpt lat="42.95535" lon="2.48531">
        <ele>400.315956</ele>
        <time>2016-06-03T11:40:27Z</time>
      </trkpt>
      <trkpt lat="42.95542" lon="2.48465">
        <ele>401.44805</ele>
        <time>2016-06-03T11:40:30Z</time>
      </trkpt>
      <trkpt lat="42.95543" lon="2.48427">
        <ele>401.748255</ele>
        <time>2016-06-03T11:40:32Z</time>
      </trkpt>
      <trkpt lat="42.95526" lon="2.48377">
        <ele>403.486483</ele>
        <time>2016-06-03T11:40:35Z</time>
      </trkpt>
      <trkpt lat="42.95489" lon="2.48366">
        <ele>405.22977</ele>
        <time>2016-06-03T11:40:37Z</time>
      </trkpt>
      <trkpt lat="42.95456" lon="2.48344">
        <ele>405.224264</ele>
        <time>2016-06-03T11:40:39Z</time>
      </trkpt>
      <trkpt lat="42.9542" lon="2.4833">
        <ele>408.265712</ele>
        <time>2016-06-03T11:40:41Z</time>
      </trkpt>
      <trkpt lat="42.95381" lon="2.48282">
        <ele>408.159716</ele>
        <time>2016-06-03T11:40:44Z</time>
      </trkpt>
      <trkpt lat="42.95362" lon="2.48243">
        <ele>409.90355</ele>
        <time>2016-06-03T11:40:46Z</time>
      </trkpt>
      <trkpt lat="42.9534" lon="2.48187">
        <ele>411.624937</ele>
        <time>2016-06-03T11:40:48Z</time>
      </trkpt>
      <trkpt lat="42.95325" lon="2.48123">
        <ele>414.432736</ele>
        <time>2016-06-03T11:40:51Z</time>
      </trkpt>
      <trkpt lat="42.95307" lon="2.48084">
        <ele>414.633749</ele>
        <time>2016-06-03T11:40:53Z</time>
      </trkpt>
      <trkpt lat="42.95287" lon="2.48058">
        <ele>414.816561</ele>
        <time>2016-06-03T11:40:55Z</time>
      </trkpt>
      <trkpt lat="42.95252" lon="2.48029">
        <ele>417.625863</ele>
        <time>2016-06-03T11:40:58Z</time>
      </trkpt>
      <trkpt lat="42.95213" lon="2.48038">
        <ele>419.249834</ele>
        <time>2016-06-03T11:41:01Z</time>
      </trkpt>
      <trkpt lat="42.9519" lon="2.48036">
        <ele>420.356656</ele>
        <time>2016-06-03T11:41:03Z</time>
      </trkpt>
      <trkpt lat="42.95171" lon="2.48033">
        <ele>420.813556</ele>
        <time>2016-06-03T11:41:05Z</time>
      </trkpt>
      <trkpt lat="42.95155" lon="2.48041">
        <ele>422.711505</ele>
        <time>2016-06-03T11:41:07Z</time>
      </trkpt>
      <trkpt lat="42.95131" lon="2.48094">
        <ele>424.672592</ele>
        <time>2016-06-03T11:41:10Z</time>
      </trkpt>
      <trkpt lat="42.95112" lon="2.48132">
        <ele>424.548337</ele>
        <time>2016-06-03T11:41:12Z</time>
      </trkpt>
      <trkpt lat="42.95077" lon="2.48163">
        <ele>425.194979</ele>
        <time>2016-06-03T11:41:15Z</time>
      </trkpt>
      <trkpt lat="42.95051" lon="2.48161">
        <ele>425.103589</ele>
        <time>2016-06-03T11:41:17Z</time>
      </trkpt>
      <trkpt lat="42.95037" lon="2.48154">
        <ele>426.017072</ele>
        <time>2016-06-03T11:41:18Z</time>
      </trkpt>
      <trkpt lat="42.95027" lon="2.48141">
        <ele>425.877836</ele>
        <time>2016-06-03T11:41:19Z</time>
      </trkpt>
      <trkpt lat="42.95004" lon="2.48132">
        <ele>428.775494</ele>
        <time>2016-06-03T11:41:21Z</time>
      </trkpt>
      <trkpt lat="42.9498" lon="2.48147">
        <ele>428.994825</ele>
        <time>2016-06-03T11:41:23Z</time>
      </trkpt>
      <trkpt lat="42.94958" lon="2.48154">
        <ele>430.038436</ele>
        <time>2016-06-03T11:41:25Z</time>
      </trkpt>
      <trkpt lat="42.94922" lon="2.48128">
        <ele>432.61163</ele>
        <time>2016-06-03T11:41:28Z</time>
      </trkpt>
      <trkpt lat="42.94898" lon="2.48105">
        <ele>433.458778</ele>
        <time>2016-06-03T11:41:30Z</time>
      </trkpt>
      <trkpt lat="42.94868" lon="2.48091">
        <ele>434.981649</ele>
        <time>2016-06-03T11:41:32Z</time>
      </trkpt>
      <trkpt lat="42.94836" lon="2.4808">
        <ele>437.157086</ele>
        <time>2016-06-03T11:41:35Z</time>
      </trkpt>
      <trkpt lat="42.94826" lon="2.48078">
        <ele>438.045681</ele>
        <time>2016-06-03T11:41:36Z</time>
      </trkpt>
      <trkpt lat="42.94814" lon="2.48062">
        <ele>438.756551</ele>
        <time>2016-06-03T11:41:38Z</time>
      </trkpt>
      <trkpt lat="42.94812" lon="2.48036">
        <ele>440.328529</ele>
        <time>2016-06-03T11:41:40Z</time>
      </trkpt>
      <trkpt lat="42.94817" lon="2.48023">
        <ele>440.328529</ele>
        <time>2016-06-03T11:41:41Z</time>
      </trkpt>
      <trkpt lat="42.94838" lon="2.48012">
        <ele>440.801011</ele>
        <time>2016-06-03T11:41:42Z</time>
      </trkpt>
      <trkpt lat="42.94847" lon="2.47979">
        <ele>441.832218</ele>
        <time>2016-06-03T11:41:44Z</time>
      </trkpt>
      <trkpt lat="42.94854" lon="2.47974">
        <ele>442.051269</ele>
        <time>2016-06-03T11:41:45Z</time>
      </trkpt>
      <trkpt lat="42.94855" lon="2.47965">
        <ele>442.585716</ele>
        <time>2016-06-03T11:41:46Z</time>
      </trkpt>
      <trkpt lat="42.94845" lon="2.47945">
        <ele>443.570269</ele>
        <time>2016-06-03T11:41:48Z</time>
      </trkpt>
      <trkpt lat="42.94833" lon="2.4794">
        <ele>444.429594</ele>
        <time>2016-06-03T11:41:49Z</time>
      </trkpt>
      <trkpt lat="42.94812" lon="2.47945">
        <ele>446.506135</ele>
        <time>2016-06-03T11:41:51Z</time>
      </trkpt>
      <trkpt lat="42.94799" lon="2.47956">
        <ele>446.899164</ele>
        <time>2016-06-03T11:41:53Z</time>
      </trkpt>
      <trkpt lat="42.94772" lon="2.47962">
        <ele>449.268145</ele>
        <time>2016-06-03T11:41:55Z</time>
      </trkpt>
      <trkpt lat="42.94741" lon="2.47959">
        <ele>450.362882</ele>
        <time>2016-06-03T11:41:57Z</time>
      </trkpt>
      <trkpt lat="42.94713" lon="2.47946">
        <ele>451.645339</ele>
        <time>2016-06-03T11:41:59Z</time>
      </trkpt>
      <trkpt lat="42.94676" lon="2.47937">
        <ele>453.109888</ele>
        <time>2016-06-03T11:42:01Z</time>
      </trkpt>
      <trkpt lat="42.94646" lon="2.47916">
        <ele>454.976632</ele>
        <time>2016-06-03T11:42:03Z</time>
      </trkpt>
      <trkpt lat="42.94603" lon="2.47863">
        <ele>456.939868</ele>
        <time>2016-06-03T11:42:06Z</time>
      </trkpt>
      <trkpt lat="42.94577" lon="2.47839">
        <ele>459.485524</ele>
        <time>2016-06-03T11:42:08Z</time>
      </trkpt>
      <trkpt lat="42.94555" lon="2.47826">
        <ele>460.993042</ele>
        <time>2016-06-03T11:42:10Z</time>
      </trkpt>
      <trkpt lat="42.94524" lon="2.47794">
        <ele>462.577068</ele>
        <time>2016-06-03T11:42:13Z</time>
      </trkpt>
      <trkpt lat="42.94494" lon="2.47749">
        <ele>464.62551</ele>
        <time>2016-06-03T11:42:16Z</time>
      </trkpt>
      <trkpt lat="42.9448" lon="2.47716">
        <ele>466.922193</ele>
        <time>2016-06-03T11:42:18Z</time>
      </trkpt>
      <trkpt lat="42.94472" lon="2.4766">
        <ele>469.830979</ele>
        <time>2016-06-03T11:42:21Z</time>
      </trkpt>
      <trkpt lat="42.94464" lon="2.47591">
        <ele>471.787129</ele>
        <time>2016-06-03T11:42:24Z</time>
      </trkpt>
      <trkpt lat="42.94458" lon="2.47542">
        <ele>473.747321</ele>
        <time>2016-06-03T11:42:26Z</time>
      </trkpt>
      <trkpt lat="42.94462" lon="2.47441">
        <ele>478.50598</ele>
        <time>2016-06-03T11:42:30Z</time>
      </trkpt>
      <trkpt lat="42.94468" lon="2.47363">
        <ele>481.078918</ele>
        <time>2016-06-03T11:42:33Z</time>
      </trkpt>
      <trkpt lat="42.94468" lon="2.47317">
        <ele>482.243276</ele>
        <time>2016-06-03T11:42:35Z</time>
      </trkpt>
      <trkpt lat="42.94459" lon="2.47271">
        <ele>483.073481</ele>
        <time>2016-06-03T11:42:37Z</time>
      </trkpt>
      <trkpt lat="42.94447" lon="2.47229">
        <ele>484.453634</ele>
        <time>2016-06-03T11:42:39Z</time>
      </trkpt>
      <trkpt lat="42.94443" lon="2.47184">
        <ele>485.726439</ele>
        <time>2016-06-03T11:42:41Z</time>
      </trkpt>
      <trkpt lat="42.94448" lon="2.4714">
        <ele>486.819163</ele>
        <time>2016-06-03T11:42:43Z</time>
      </trkpt>
      <trkpt lat="42.94447" lon="2.47099">
        <ele>488.1515</ele>
        <time>2016-06-03T11:42:45Z</time>
      </trkpt>
      <trkpt lat="42.94435" lon="2.47063">
        <ele>489.49582</ele>
        <time>2016-06-03T11:42:47Z</time>
      </trkpt>
      <trkpt lat="42.94431" lon="2.47023">
        <ele>490.393985</ele>
        <time>2016-06-03T11:42:49Z</time>
      </trkpt>
      <trkpt lat="42.94435" lon="2.46951">
        <ele>492.217287</ele>
        <time>2016-06-03T11:42:52Z</time>
      </trkpt>
      <trkpt lat="42.94417" lon="2.46871">
        <ele>494.649487</ele>
        <time>2016-06-03T11:42:55Z</time>
      </trkpt>
      <trkpt lat="42.94402" lon="2.46823">
        <ele>491.308064</ele>
        <time>2016-06-03T11:42:57Z</time>
      </trkpt>
      <trkpt lat="42.94386" lon="2.4674">
        <ele>474.972412</ele>
        <time>2016-06-03T11:43:01Z</time>
      </trkpt>
      <trkpt lat="42.94387" lon="2.46697">
        <ele>476.494873</ele>
        <time>2016-06-03T11:43:03Z</time>
      </trkpt>
      <trkpt lat="42.94419" lon="2.46605">
        <ele>479.245361</ele>
        <time>2016-06-03T11:43:07Z</time>
      </trkpt>
      <trkpt lat="42.94431" lon="2.4656">
        <ele>481.116455</ele>
        <time>2016-06-03T11:43:09Z</time>
      </trkpt>
      <trkpt lat="42.94436" lon="2.46516">
        <ele>483.156006</ele>
        <time>2016-06-03T11:43:11Z</time>
      </trkpt>
      <trkpt lat="42.94431" lon="2.46465">
        <ele>485.232544</ele>
        <time>2016-06-03T11:43:13Z</time>
      </trkpt>
      <trkpt lat="42.94408" lon="2.46391">
        <ele>487.078125</ele>
        <time>2016-06-03T11:43:16Z</time>
      </trkpt>
      <trkpt lat="42.94387" lon="2.46348">
        <ele>489.336426</ele>
        <time>2016-06-03T11:43:18Z</time>
      </trkpt>
      <trkpt lat="42.94365" lon="2.46313">
        <ele>488.732666</ele>
        <time>2016-06-03T11:43:20Z</time>
      </trkpt>
      <trkpt lat="42.94355" lon="2.46282">
        <ele>490.455322</ele>
        <time>2016-06-03T11:43:22Z</time>
      </trkpt>
      <trkpt lat="42.94354" lon="2.46247">
        <ele>489.927856</ele>
        <time>2016-06-03T11:43:24Z</time>
      </trkpt>
      <trkpt lat="42.94375" lon="2.46197">
        <ele>490.863525</ele>
        <time>2016-06-03T11:43:27Z</time>
      </trkpt>
      <trkpt lat="42.94382" lon="2.46166">
        <ele>491.474854</ele>
        <time>2016-06-03T11:43:29Z</time>
      </trkpt>
      <trkpt lat="42.94381" lon="2.46138">
        <ele>489.881348</ele>
        <time>2016-06-03T11:43:31Z</time>
      </trkpt>
      <trkpt lat="42.94359" lon="2.46111">
        <ele>489.242188</ele>
        <time>2016-06-03T11:43:33Z</time>
      </trkpt>
      <trkpt lat="42.94343" lon="2.46101">
        <ele>488.846436</ele>
        <time>2016-06-03T11:43:34Z</time>
      </trkpt>
      <trkpt lat="42.94327" lon="2.46072">
        <ele>488.959961</ele>
        <time>2016-06-03T11:43:36Z</time>
      </trkpt>
      <trkpt lat="42.94314" lon="2.46028">
        <ele>490.286621</ele>
        <time>2016-06-03T11:43:38Z</time>
      </trkpt>
      <trkpt lat="42.94309" lon="2.45984">
        <ele>492.245605</ele>
        <time>2016-06-03T11:43:40Z</time>
      </trkpt>
      <trkpt lat="42.94308" lon="2.45965">
        <ele>492.311279</ele>
        <time>2016-06-03T11:43:41Z</time>
      </trkpt>
      <trkpt lat="42.94326" lon="2.45904">
        <ele>494.731445</ele>
        <time>2016-06-03T11:43:44Z</time>
      </trkpt>
      <trkpt lat="42.94357" lon="2.45842">
        <ele>496.462402</ele>
        <time>2016-06-03T11:43:47Z</time>
      </trkpt>
      <trkpt lat="42.94378" lon="2.45768">
        <ele>499.851562</ele>
        <time>2016-06-03T11:43:50Z</time>
      </trkpt>
      <trkpt lat="42.94396" lon="2.45693">
        <ele>503.751587</ele>
        <time>2016-06-03T11:43:53Z</time>
      </trkpt>
      <trkpt lat="42.94427" lon="2.45563">
        <ele>509.870605</ele>
        <time>2016-06-03T11:43:58Z</time>
      </trkpt>
      <trkpt lat="42.94437" lon="2.4552">
        <ele>510.643799</ele>
        <time>2016-06-03T11:44:00Z</time>
      </trkpt>
      <trkpt lat="42.94447" lon="2.4548">
        <ele>512.428955</ele>
        <time>2016-06-03T11:44:02Z</time>
      </trkpt>
      <trkpt lat="42.94444" lon="2.45415">
        <ele>514.572021</ele>
        <time>2016-06-03T11:44:05Z</time>
      </trkpt>
      <trkpt lat="42.94436" lon="2.45367">
        <ele>514.817505</ele>
        <time>2016-06-03T11:44:07Z</time>
      </trkpt>
      <trkpt lat="42.94412" lon="2.45319">
        <ele>516.147217</ele>
        <time>2016-06-03T11:44:09Z</time>
      </trkpt>
      <trkpt lat="42.94388" lon="2.45247">
        <ele>518.086182</ele>
        <time>2016-06-03T11:44:12Z</time>
      </trkpt>
      <trkpt lat="42.94357" lon="2.45183">
        <ele>518.518555</ele>
        <time>2016-06-03T11:44:15Z</time>
      </trkpt>
      <trkpt lat="42.94342" lon="2.45183">
        <ele>518.933838</ele>
        <time>2016-06-03T11:44:16Z</time>
      </trkpt>
      <trkpt lat="42.94326" lon="2.45153">
        <ele>520.480835</ele>
        <time>2016-06-03T11:44:18Z</time>
      </trkpt>
      <trkpt lat="42.94313" lon="2.4512">
        <ele>518.137207</ele>
        <time>2016-06-03T11:44:20Z</time>
      </trkpt>
      <trkpt lat="42.94304" lon="2.4507">
        <ele>520.710449</ele>
        <time>2016-06-03T11:44:22Z</time>
      </trkpt>
      <trkpt lat="42.94305" lon="2.45051">
        <ele>521.03833</ele>
        <time>2016-06-03T11:44:23Z</time>
      </trkpt>
      <trkpt lat="42.94319" lon="2.45028">
        <ele>520.879883</ele>
        <time>2016-06-03T11:44:24Z</time>
      </trkpt>
      <trkpt lat="42.94326" lon="2.44978">
        <ele>525.001831</ele>
        <time>2016-06-03T11:44:26Z</time>
      </trkpt>
      <trkpt lat="42.94329" lon="2.44934">
        <ele>526.138428</ele>
        <time>2016-06-03T11:44:28Z</time>
      </trkpt>
      <trkpt lat="42.94323" lon="2.44873">
        <ele>527.385376</ele>
        <time>2016-06-03T11:44:31Z</time>
      </trkpt>
      <trkpt lat="42.94315" lon="2.4482">
        <ele>530.646484</ele>
        <time>2016-06-03T11:44:33Z</time>
      </trkpt>
      <trkpt lat="42.94319" lon="2.44788">
        <ele>530.724976</ele>
        <time>2016-06-03T11:44:35Z</time>
      </trkpt>
      <trkpt lat="42.94338" lon="2.44754">
        <ele>534.007812</ele>
        <time>2016-06-03T11:44:38Z</time>
      </trkpt>
      <trkpt lat="42.94345" lon="2.44707">
        <ele>535.611938</ele>
        <time>2016-06-03T11:44:41Z</time>
      </trkpt>
      <trkpt lat="42.94344" lon="2.44689">
        <ele>535.882568</ele>
        <time>2016-06-03T11:44:42Z</time>
      </trkpt>
      <trkpt lat="42.94321" lon="2.44662">
        <ele>537.855957</ele>
        <time>2016-06-03T11:44:44Z</time>
      </trkpt>
      <trkpt lat="42.94315" lon="2.44645">
        <ele>538.091553</ele>
        <time>2016-06-03T11:44:45Z</time>
      </trkpt>
      <trkpt lat="42.94318" lon="2.44615">
        <ele>537.409668</ele>
        <time>2016-06-03T11:44:47Z</time>
      </trkpt>
      <trkpt lat="42.94346" lon="2.44531">
        <ele>543.591919</ele>
        <time>2016-06-03T11:44:51Z</time>
      </trkpt>
      <trkpt lat="42.94355" lon="2.44496">
        <ele>547.096313</ele>
        <time>2016-06-03T11:44:53Z</time>
      </trkpt>
      <trkpt lat="42.94358" lon="2.44459">
        <ele>547.66687</ele>
        <time>2016-06-03T11:44:55Z</time>
      </trkpt>
      <trkpt lat="42.9435" lon="2.44421">
        <ele>548.02063</ele>
        <time>2016-06-03T11:44:57Z</time>
      </trkpt>
      <trkpt lat="42.94328" lon="2.44385">
        <ele>551.629639</ele>
        <time>2016-06-03T11:44:59Z</time>
      </trkpt>
      <trkpt lat="42.94313" lon="2.44345">
        <ele>553.222412</ele>
        <time>2016-06-03T11:45:01Z</time>
      </trkpt>
      <trkpt lat="42.94303" lon="2.44242">
        <ele>558.278809</ele>
        <time>2016-06-03T11:45:05Z</time>
      </trkpt>
      <trkpt lat="42.94295" lon="2.44163">
        <ele>561.589355</ele>
        <time>2016-06-03T11:45:08Z</time>
      </trkpt>
      <trkpt lat="42.94288" lon="2.44049">
        <ele>566.196045</ele>
        <time>2016-06-03T11:45:12Z</time>
      </trkpt>
      <trkpt lat="42.94281" lon="2.43968">
        <ele>570.069092</ele>
        <time>2016-06-03T11:45:15Z</time>
      </trkpt>
      <trkpt lat="42.94278" lon="2.43922">
        <ele>572.681763</ele>
        <time>2016-06-03T11:45:17Z</time>
      </trkpt>
      <trkpt lat="42.94274" lon="2.43862">
        <ele>576.2146</ele>
        <time>2016-06-03T11:45:20Z</time>
      </trkpt>
      <trkpt lat="42.94296" lon="2.43804">
        <ele>578.858643</ele>
        <time>2016-06-03T11:45:23Z</time>
      </trkpt>
      <trkpt lat="42.94322" lon="2.43741">
        <ele>582.46228</ele>
        <time>2016-06-03T11:45:26Z</time>
      </trkpt>
      <trkpt lat="42.94341" lon="2.43676">
        <ele>586.959961</ele>
        <time>2016-06-03T11:45:29Z</time>
      </trkpt>
      <trkpt lat="42.94345" lon="2.43625">
        <ele>590.549561</ele>
        <time>2016-06-03T11:45:31Z</time>
      </trkpt>
      <trkpt lat="42.94353" lon="2.43573">
        <ele>594.265625</ele>
        <time>2016-06-03T11:45:33Z</time>
      </trkpt>
      <trkpt lat="42.94367" lon="2.43529">
        <ele>595.537109</ele>
        <time>2016-06-03T11:45:35Z</time>
      </trkpt>
      <trkpt lat="42.94375" lon="2.43483">
        <ele>599.564087</ele>
        <time>2016-06-03T11:45:37Z</time>
      </trkpt>
      <trkpt lat="42.94377" lon="2.43405">
        <ele>603.366699</ele>
        <time>2016-06-03T11:45:40Z</time>
      </trkpt>
      <trkpt lat="42.9438" lon="2.43361">
        <ele>604.982544</ele>
        <time>2016-06-03T11:45:42Z</time>
      </trkpt>
      <trkpt lat="42.9439" lon="2.43324">
        <ele>606.32959</ele>
        <time>2016-06-03T11:45:44Z</time>
      </trkpt>
      <trkpt lat="42.94416" lon="2.43274">
        <ele>607.643188</ele>
        <time>2016-06-03T11:45:47Z</time>
      </trkpt>
      <trkpt lat="42.94438" lon="2.43241">
        <ele>611.706177</ele>
        <time>2016-06-03T11:45:49Z</time>
      </trkpt>
      <trkpt lat="42.94442" lon="2.43201">
        <ele>609.060303</ele>
        <time>2016-06-03T11:45:51Z</time>
      </trkpt>
      <trkpt lat="42.94458" lon="2.43145">
        <ele>612.175781</ele>
        <time>2016-06-03T11:45:54Z</time>
      </trkpt>
      <trkpt lat="42.94484" lon="2.43087">
        <ele>611.513184</ele>
        <time>2016-06-03T11:45:57Z</time>
      </trkpt>
      <trkpt lat="42.94497" lon="2.4305">
        <ele>610.079468</ele>
        <time>2016-06-03T11:45:59Z</time>
      </trkpt>
      <trkpt lat="42.94516" lon="2.43022">
        <ele>613.253174</ele>
        <time>2016-06-03T11:46:01Z</time>
      </trkpt>
      <trkpt lat="42.94565" lon="2.43001">
        <ele>609.623901</ele>
        <time>2016-06-03T11:46:04Z</time>
      </trkpt>
      <trkpt lat="42.94599" lon="2.42992">
        <ele>608.469849</ele>
        <time>2016-06-03T11:46:06Z</time>
      </trkpt>
      <trkpt lat="42.94632" lon="2.42969">
        <ele>606.862793</ele>
        <time>2016-06-03T11:46:08Z</time>
      </trkpt>
      <trkpt lat="42.94674" lon="2.42925">
        <ele>608.996953</ele>
        <time>2016-06-03T11:46:11Z</time>
      </trkpt>
      <trkpt lat="42.94698" lon="2.42897">
        <ele>606.382579</ele>
        <time>2016-06-03T11:46:13Z</time>
      </trkpt>
      <trkpt lat="42.94713" lon="2.42864">
        <ele>605.309821</ele>
        <time>2016-06-03T11:46:15Z</time>
      </trkpt>
      <trkpt lat="42.94714" lon="2.42828">
        <ele>603.780906</ele>
        <time>2016-06-03T11:46:17Z</time>
      </trkpt>
      <trkpt lat="42.94704" lon="2.42796">
        <ele>601.284788</ele>
        <time>2016-06-03T11:46:19Z</time>
      </trkpt>
      <trkpt lat="42.94675" lon="2.4277">
        <ele>601.398166</ele>
        <time>2016-06-03T11:46:21Z</time>
      </trkpt>
      <trkpt lat="42.9463" lon="2.42756">
        <ele>598.712157</ele>
        <time>2016-06-03T11:46:23Z</time>
      </trkpt>
      <trkpt lat="42.94562" lon="2.42726">
        <ele>595.558684</ele>
        <time>2016-06-03T11:46:27Z</time>
      </trkpt>
      <trkpt lat="42.94536" lon="2.42705">
        <ele>593.407119</ele>
        <time>2016-06-03T11:46:29Z</time>
      </trkpt>
      <trkpt lat="42.94518" lon="2.42673">
        <ele>592.355346</ele>
        <time>2016-06-03T11:46:31Z</time>
      </trkpt>
      <trkpt lat="42.94505" lon="2.4262">
        <ele>589.402254</ele>
        <time>2016-06-03T11:46:34Z</time>
      </trkpt>
      <trkpt lat="42.9454" lon="2.42579">
        <ele>587.775191</ele>
        <time>2016-06-03T11:46:37Z</time>
      </trkpt>
      <trkpt lat="42.94598" lon="2.4253">
        <ele>585.326588</ele>
        <time>2016-06-03T11:46:41Z</time>
      </trkpt>
      <trkpt lat="42.94626" lon="2.42508">
        <ele>584.578661</ele>
        <time>2016-06-03T11:46:43Z</time>
      </trkpt>
      <trkpt lat="42.94655" lon="2.42495">
        <ele>582.11984</ele>
        <time>2016-06-03T11:46:45Z</time>
      </trkpt>
      <trkpt lat="42.94699" lon="2.42487">
        <ele>580.66624</ele>
        <time>2016-06-03T11:46:48Z</time>
      </trkpt>
      <trkpt lat="42.94727" lon="2.42496">
        <ele>579.314031</ele>
        <time>2016-06-03T11:46:50Z</time>
      </trkpt>
      <trkpt lat="42.94767" lon="2.42521">
        <ele>576.941024</ele>
        <time>2016-06-03T11:46:53Z</time>
      </trkpt>
      <trkpt lat="42.94796" lon="2.42525">
        <ele>575.192266</ele>
        <time>2016-06-03T11:46:55Z</time>
      </trkpt>
      <trkpt lat="42.94843" lon="2.42521">
        <ele>572.566958</ele>
        <time>2016-06-03T11:46:58Z</time>
      </trkpt>
      <trkpt lat="42.9487" lon="2.42513">
        <ele>570.580115</ele>
        <time>2016-06-03T11:47:00Z</time>
      </trkpt>
      <trkpt lat="42.94879" lon="2.42504">
        <ele>569.661829</ele>
        <time>2016-06-03T11:47:01Z</time>
      </trkpt>
      <trkpt lat="42.94893" lon="2.42459">
        <ele>567.627442</ele>
        <time>2016-06-03T11:47:04Z</time>
      </trkpt>
      <trkpt lat="42.94881" lon="2.42423">
        <ele>567.596095</ele>
        <time>2016-06-03T11:47:06Z</time>
      </trkpt>
      <trkpt lat="42.94831" lon="2.42334">
        <ele>563.777825</ele>
        <time>2016-06-03T11:47:10Z</time>
      </trkpt>
      <trkpt lat="42.94806" lon="2.4227">
        <ele>560.333123</ele>
        <time>2016-06-03T11:47:13Z</time>
      </trkpt>
      <trkpt lat="42.94799" lon="2.42228">
        <ele>557.396501</ele>
        <time>2016-06-03T11:47:15Z</time>
      </trkpt>
      <trkpt lat="42.94805" lon="2.42185">
        <ele>554.449689</ele>
        <time>2016-06-03T11:47:17Z</time>
      </trkpt>
      <trkpt lat="42.94814" lon="2.42144">
        <ele>550.870611</ele>
        <time>2016-06-03T11:47:19Z</time>
      </trkpt>
      <trkpt lat="42.94815" lon="2.42104">
        <ele>550.034552</ele>
        <time>2016-06-03T11:47:21Z</time>
      </trkpt>
      <trkpt lat="42.94813" lon="2.42077">
        <ele>549.417486</ele>
        <time>2016-06-03T11:47:22Z</time>
      </trkpt>
      <trkpt lat="42.94789" lon="2.4203">
        <ele>547.502364</ele>
        <time>2016-06-03T11:47:24Z</time>
      </trkpt>
      <trkpt lat="42.94766" lon="2.41968">
        <ele>543.284979</ele>
        <time>2016-06-03T11:47:27Z</time>
      </trkpt>
      <trkpt lat="42.94758" lon="2.41936">
        <ele>541.71849</ele>
        <time>2016-06-03T11:47:29Z</time>
      </trkpt>
      <trkpt lat="42.94762" lon="2.41903">
        <ele>540.378199</ele>
        <time>2016-06-03T11:47:31Z</time>
      </trkpt>
      <trkpt lat="42.94786" lon="2.41876">
        <ele>538.833806</ele>
        <time>2016-06-03T11:47:33Z</time>
      </trkpt>
      <trkpt lat="42.94826" lon="2.41845">
        <ele>535.153964</ele>
        <time>2016-06-03T11:47:36Z</time>
      </trkpt>
      <trkpt lat="42.94847" lon="2.41821">
        <ele>534.132238</ele>
        <time>2016-06-03T11:47:38Z</time>
      </trkpt>
      <trkpt lat="42.94858" lon="2.4178">
        <ele>532.46176</ele>
        <time>2016-06-03T11:47:40Z</time>
      </trkpt>
      <trkpt lat="42.94864" lon="2.41737">
        <ele>530.862968</ele>
        <time>2016-06-03T11:47:42Z</time>
      </trkpt>
      <trkpt lat="42.94861" lon="2.41672">
        <ele>528.29631</ele>
        <time>2016-06-03T11:47:45Z</time>
      </trkpt>
      <trkpt lat="42.94819" lon="2.41585">
        <ele>523.20189</ele>
        <time>2016-06-03T11:47:49Z</time>
      </trkpt>
      <trkpt lat="42.94807" lon="2.41552">
        <ele>522.345381</ele>
        <time>2016-06-03T11:47:51Z</time>
      </trkpt>
      <trkpt lat="42.94803" lon="2.41515">
        <ele>521.541834</ele>
        <time>2016-06-03T11:47:53Z</time>
      </trkpt>
      <trkpt lat="42.94806" lon="2.41474">
        <ele>519.999312</ele>
        <time>2016-06-03T11:47:55Z</time>
      </trkpt>
      <trkpt lat="42.94798" lon="2.4141">
        <ele>517.660026</ele>
        <time>2016-06-03T11:47:58Z</time>
      </trkpt>
      <trkpt lat="42.94771" lon="2.41304">
        <ele>513.774123</ele>
        <time>2016-06-03T11:48:02Z</time>
      </trkpt>
      <trkpt lat="42.94743" lon="2.41217">
        <ele>509.625698</ele>
        <time>2016-06-03T11:48:06Z</time>
      </trkpt>
      <trkpt lat="42.94737" lon="2.41179">
        <ele>507.592806</ele>
        <time>2016-06-03T11:48:08Z</time>
      </trkpt>
      <trkpt lat="42.94737" lon="2.41146">
        <ele>505.429114</ele>
        <time>2016-06-03T11:48:10Z</time>
      </trkpt>
      <trkpt lat="42.9475" lon="2.41117">
        <ele>504.531501</ele>
        <time>2016-06-03T11:48:12Z</time>
      </trkpt>
      <trkpt lat="42.94755" lon="2.41081">
        <ele>503.495834</ele>
        <time>2016-06-03T11:48:14Z</time>
      </trkpt>
      <trkpt lat="42.94748" lon="2.41016">
        <ele>500.528229</ele>
        <time>2016-06-03T11:48:17Z</time>
      </trkpt>
      <trkpt lat="42.94747" lon="2.40969">
        <ele>499.56285</ele>
        <time>2016-06-03T11:48:19Z</time>
      </trkpt>
      <trkpt lat="42.94755" lon="2.40901">
        <ele>496.684438</ele>
        <time>2016-06-03T11:48:22Z</time>
      </trkpt>
      <trkpt lat="42.94761" lon="2.40869">
        <ele>494.331593</ele>
        <time>2016-06-03T11:48:24Z</time>
      </trkpt>
      <trkpt lat="42.94778" lon="2.40847">
        <ele>492.071649</ele>
        <time>2016-06-03T11:48:26Z</time>
      </trkpt>
      <trkpt lat="42.94802" lon="2.40836">
        <ele>491.059802</ele>
        <time>2016-06-03T11:48:28Z</time>
      </trkpt>
      <trkpt lat="42.94828" lon="2.40832">
        <ele>489.667017</ele>
        <time>2016-06-03T11:48:30Z</time>
      </trkpt>
      <trkpt lat="42.94846" lon="2.40816">
        <ele>487.703559</ele>
        <time>2016-06-03T11:48:32Z</time>
      </trkpt>
      <trkpt lat="42.94854" lon="2.40805">
        <ele>487.267676</ele>
        <time>2016-06-03T11:48:33Z</time>
      </trkpt>
      <trkpt lat="42.94855" lon="2.40774">
        <ele>486.632267</ele>
        <time>2016-06-03T11:48:35Z</time>
      </trkpt>
      <trkpt lat="42.94861" lon="2.40745">
        <ele>485.689215</ele>
        <time>2016-06-03T11:48:37Z</time>
      </trkpt>
      <trkpt lat="42.94886" lon="2.40709">
        <ele>484.905507</ele>
        <time>2016-06-03T11:48:40Z</time>
      </trkpt>
      <trkpt lat="42.94899" lon="2.40679">
        <ele>483.801804</ele>
        <time>2016-06-03T11:48:42Z</time>
      </trkpt>
      <trkpt lat="42.94894" lon="2.4064">
        <ele>482.293096</ele>
        <time>2016-06-03T11:48:44Z</time>
      </trkpt>
      <trkpt lat="42.94888" lon="2.40623">
        <ele>483.115345</ele>
        <time>2016-06-03T11:48:45Z</time>
      </trkpt>
      <trkpt lat="42.94883" lon="2.40587">
        <ele>482.216072</ele>
        <time>2016-06-03T11:48:47Z</time>
      </trkpt>
      <trkpt lat="42.94883" lon="2.4055">
        <ele>481.136295</ele>
        <time>2016-06-03T11:48:49Z</time>
      </trkpt>
      <trkpt lat="42.94918" lon="2.4052">
        <ele>478.204178</ele>
        <time>2016-06-03T11:48:52Z</time>
      </trkpt>
      <trkpt lat="42.94963" lon="2.40504">
        <ele>476.249828</ele>
        <time>2016-06-03T11:48:55Z</time>
      </trkpt>
      <trkpt lat="42.94991" lon="2.4049">
        <ele>474.700175</ele>
        <time>2016-06-03T11:48:57Z</time>
      </trkpt>
      <trkpt lat="42.9501" lon="2.4047">
        <ele>472.921922</ele>
        <time>2016-06-03T11:48:59Z</time>
      </trkpt>
      <trkpt lat="42.95023" lon="2.40442">
        <ele>471.379452</ele>
        <time>2016-06-03T11:49:01Z</time>
      </trkpt>
      <trkpt lat="42.95024" lon="2.40402">
        <ele>469.98768</ele>
        <time>2016-06-03T11:49:03Z</time>
      </trkpt>
      <trkpt lat="42.95029" lon="2.40367">
        <ele>468.649244</ele>
        <time>2016-06-03T11:49:05Z</time>
      </trkpt>
      <trkpt lat="42.95042" lon="2.40341">
        <ele>466.552316</ele>
        <time>2016-06-03T11:49:07Z</time>
      </trkpt>
      <trkpt lat="42.95064" lon="2.40321">
        <ele>466.354589</ele>
        <time>2016-06-03T11:49:09Z</time>
      </trkpt>
      <trkpt lat="42.95084" lon="2.40286">
        <ele>464.906183</ele>
        <time>2016-06-03T11:49:11Z</time>
      </trkpt>
      <trkpt lat="42.95108" lon="2.40231">
        <ele>459.690957</ele>
        <time>2016-06-03T11:49:14Z</time>
      </trkpt>
      <trkpt lat="42.95134" lon="2.40191">
        <ele>457.168776</ele>
        <time>2016-06-03T11:49:17Z</time>
      </trkpt>
      <trkpt lat="42.95141" lon="2.40178">
        <ele>456.581394</ele>
        <time>2016-06-03T11:49:18Z</time>
      </trkpt>
      <trkpt lat="42.95138" lon="2.40109">
        <ele>454.683333</ele>
        <time>2016-06-03T11:49:22Z</time>
      </trkpt>
      <trkpt lat="42.95139" lon="2.4009">
        <ele>453.621286</ele>
        <time>2016-06-03T11:49:23Z</time>
      </trkpt>
      <trkpt lat="42.95156" lon="2.40054">
        <ele>450.62635</ele>
        <time>2016-06-03T11:49:25Z</time>
      </trkpt>
      <trkpt lat="42.95168" lon="2.39998">
        <ele>449.714192</ele>
        <time>2016-06-03T11:49:28Z</time>
      </trkpt>
      <trkpt lat="42.95183" lon="2.39945">
        <ele>446.555732</ele>
        <time>2016-06-03T11:49:31Z</time>
      </trkpt>
      <trkpt lat="42.95187" lon="2.39908">
        <ele>444.746538</ele>
        <time>2016-06-03T11:49:33Z</time>
      </trkpt>
      <trkpt lat="42.95187" lon="2.39873">
        <ele>442.765536</ele>
        <time>2016-06-03T11:49:35Z</time>
      </trkpt>
      <trkpt lat="42.95195" lon="2.39846">
        <ele>440.948433</ele>
        <time>2016-06-03T11:49:37Z</time>
      </trkpt>
      <trkpt lat="42.95221" lon="2.39812">
        <ele>438.303327</ele>
        <time>2016-06-03T11:49:40Z</time>
      </trkpt>
      <trkpt lat="42.9523" lon="2.39778">
        <ele>436.864718</ele>
        <time>2016-06-03T11:49:42Z</time>
      </trkpt>
      <trkpt lat="42.95236" lon="2.39742">
        <ele>436.922315</ele>
        <time>2016-06-03T11:49:44Z</time>
      </trkpt>
      <trkpt lat="42.95247" lon="2.39711">
        <ele>435.015776</ele>
        <time>2016-06-03T11:49:46Z</time>
      </trkpt>
      <trkpt lat="42.95269" lon="2.3969">
        <ele>433.754913</ele>
        <time>2016-06-03T11:49:48Z</time>
      </trkpt>
      <trkpt lat="42.95305" lon="2.39661">
        <ele>431.577356</ele>
        <time>2016-06-03T11:49:51Z</time>
      </trkpt>
      <trkpt lat="42.9533" lon="2.3964">
        <ele>429.452217</ele>
        <time>2016-06-03T11:49:54Z</time>
      </trkpt>
      <trkpt lat="42.95344" lon="2.39637">
        <ele>428.387901</ele>
        <time>2016-06-03T11:49:56Z</time>
      </trkpt>
      <trkpt lat="42.95351" lon="2.39648">
        <ele>427.191938</ele>
        <time>2016-06-03T11:49:58Z</time>
      </trkpt>
      <trkpt lat="42.95354" lon="2.39658">
        <ele>426.646206</ele>
        <time>2016-06-03T11:49:59Z</time>
      </trkpt>
      <trkpt lat="42.9535" lon="2.39705">
        <ele>425.73779</ele>
        <time>2016-06-03T11:50:02Z</time>
      </trkpt>
      <trkpt lat="42.95349" lon="2.39756">
        <ele>423.215706</ele>
        <time>2016-06-03T11:50:05Z</time>
      </trkpt>
      <trkpt lat="42.95351" lon="2.39787">
        <ele>421.663179</ele>
        <time>2016-06-03T11:50:08Z</time>
      </trkpt>
      <trkpt lat="42.95375" lon="2.39789">
        <ele>421.134183</ele>
        <time>2016-06-03T11:50:10Z</time>
      </trkpt>
      <trkpt lat="42.95398" lon="2.39757">
        <ele>420.537462</ele>
        <time>2016-06-03T11:50:13Z</time>
      </trkpt>
      <trkpt lat="42.95427" lon="2.39717">
        <ele>418.0596</ele>
        <time>2016-06-03T11:50:16Z</time>
      </trkpt>
      <trkpt lat="42.95446" lon="2.39681">
        <ele>415.728392</ele>
        <time>2016-06-03T11:50:18Z</time>
      </trkpt>
      <trkpt lat="42.95461" lon="2.39626">
        <ele>413.79734</ele>
        <time>2016-06-03T11:50:21Z</time>
      </trkpt>
      <trkpt lat="42.95474" lon="2.39599">
        <ele>412.103862</ele>
        <time>2016-06-03T11:50:23Z</time>
      </trkpt>
      <trkpt lat="42.95495" lon="2.39585">
        <ele>410.27533</ele>
        <time>2016-06-03T11:50:25Z</time>
      </trkpt>
      <trkpt lat="42.95516" lon="2.39586">
        <ele>409.161792</ele>
        <time>2016-06-03T11:50:27Z</time>
      </trkpt>
      <trkpt lat="42.95536" lon="2.3959">
        <ele>407.841086</ele>
        <time>2016-06-03T11:50:29Z</time>
      </trkpt>
      <trkpt lat="42.95547" lon="2.3959">
        <ele>407.190599</ele>
        <time>2016-06-03T11:50:30Z</time>
      </trkpt>
      <trkpt lat="42.95572" lon="2.39566">
        <ele>406.456754</ele>
        <time>2016-06-03T11:50:33Z</time>
      </trkpt>
      <trkpt lat="42.95579" lon="2.39558">
        <ele>405.991538</ele>
        <time>2016-06-03T11:50:34Z</time>
      </trkpt>
      <trkpt lat="42.95575" lon="2.39535">
        <ele>405.049822</ele>
        <time>2016-06-03T11:50:36Z</time>
      </trkpt>
      <trkpt lat="42.9557" lon="2.39514">
        <ele>404.597118</ele>
        <time>2016-06-03T11:50:38Z</time>
      </trkpt>
      <trkpt lat="42.95538" lon="2.39487">
        <ele>403.579537</ele>
        <time>2016-06-03T11:50:40Z</time>
      </trkpt>
      <trkpt lat="42.95514" lon="2.39472">
        <ele>402.523537</ele>
        <time>2016-06-03T11:50:42Z</time>
      </trkpt>
      <trkpt lat="42.95489" lon="2.39468">
        <ele>402.286358</ele>
        <time>2016-06-03T11:50:44Z</time>
      </trkpt>
      <trkpt lat="42.95455" lon="2.39478">
        <ele>399.739367</ele>
        <time>2016-06-03T11:50:47Z</time>
      </trkpt>
      <trkpt lat="42.95436" lon="2.39489">
        <ele>399.17913</ele>
        <time>2016-06-03T11:50:49Z</time>
      </trkpt>
      <trkpt lat="42.95419" lon="2.39493">
        <ele>397.850096</ele>
        <time>2016-06-03T11:50:51Z</time>
      </trkpt>
      <trkpt lat="42.95412" lon="2.39468">
        <ele>396.702464</ele>
        <time>2016-06-03T11:50:53Z</time>
      </trkpt>
      <trkpt lat="42.95413" lon="2.39416">
        <ele>395.241291</ele>
        <time>2016-06-03T11:50:56Z</time>
      </trkpt>
      <trkpt lat="42.95414" lon="2.39346">
        <ele>392.309418</ele>
        <time>2016-06-03T11:51:00Z</time>
      </trkpt>
      <trkpt lat="42.95412" lon="2.39304">
        <ele>391.705099</ele>
        <time>2016-06-03T11:51:03Z</time>
      </trkpt>
      <trkpt lat="42.95394" lon="2.39265">
        <ele>391.570185</ele>
        <time>2016-06-03T11:51:06Z</time>
      </trkpt>
      <trkpt lat="42.95366" lon="2.39223">
        <ele>389.952325</ele>
        <time>2016-06-03T11:51:09Z</time>
      </trkpt>
      <trkpt lat="42.95352" lon="2.3919">
        <ele>389.234667</ele>
        <time>2016-06-03T11:51:11Z</time>
      </trkpt>
      <trkpt lat="42.95341" lon="2.39145">
        <ele>388.037886</ele>
        <time>2016-06-03T11:51:14Z</time>
      </trkpt>
      <trkpt lat="42.95346" lon="2.39115">
        <ele>386.515163</ele>
        <time>2016-06-03T11:51:16Z</time>
      </trkpt>
      <trkpt lat="42.95357" lon="2.39066">
        <ele>384.664222</ele>
        <time>2016-06-03T11:51:19Z</time>
      </trkpt>
      <trkpt lat="42.95366" lon="2.39037">
        <ele>383.258515</ele>
        <time>2016-06-03T11:51:21Z</time>
      </trkpt>
      <trkpt lat="42.95369" lon="2.39019">
        <ele>382.846583</ele>
        <time>2016-06-03T11:51:23Z</time>
      </trkpt>
      <trkpt lat="42.95375" lon="2.39001">
        <ele>382.039185</ele>
        <time>2016-06-03T11:51:27Z</time>
      </trkpt>
      <trkpt lat="42.95376" lon="2.38999">
        <ele>381.801834</ele>
        <time>2016-06-03T11:51:30Z</time>
      </trkpt>
      <trkpt lat="42.95376" lon="2.38999">
        <ele>382.015209</ele>
        <time>2016-06-03T11:51:40Z</time>
      </trkpt>
      <trkpt lat="42.95379" lon="2.39">
        <ele>381.270237</ele>
        <time>2016-06-03T11:52:20Z</time>
      </trkpt>
      <trkpt lat="42.95381" lon="2.39">
        <ele>380.840303</ele>
        <time>2016-06-03T11:52:28Z</time>
      </trkpt>
      <trkpt lat="42.95386" lon="2.38981">
        <ele>380.178067</ele>
        <time>2016-06-03T11:52:31Z</time>
      </trkpt>
      <trkpt lat="42.95393" lon="2.38963">
        <ele>379.466916</ele>
        <time>2016-06-03T11:52:33Z</time>
      </trkpt>
      <trkpt lat="42.95413" lon="2.38929">
        <ele>379.736794</ele>
        <time>2016-06-03T11:52:36Z</time>
      </trkpt>
      <trkpt lat="42.95441" lon="2.38893">
        <ele>378.593881</ele>
        <time>2016-06-03T11:52:40Z</time>
      </trkpt>
      <trkpt lat="42.95459" lon="2.38864">
        <ele>377.429605</ele>
        <time>2016-06-03T11:52:43Z</time>
      </trkpt>
      <trkpt lat="42.95441" lon="2.38832">
        <ele>377.456236</ele>
        <time>2016-06-03T11:52:44Z</time>
      </trkpt>
      <trkpt lat="42.9543" lon="2.38772">
        <ele>375.186873</ele>
        <time>2016-06-03T11:52:47Z</time>
      </trkpt>
      <trkpt lat="42.95422" lon="2.38726">
        <ele>373.46001</ele>
        <time>2016-06-03T11:52:50Z</time>
      </trkpt>
      <trkpt lat="42.9542" lon="2.3871">
        <ele>373.726906</ele>
        <time>2016-06-03T11:52:51Z</time>
      </trkpt>
      <trkpt lat="42.95403" lon="2.38679">
        <ele>372.476919</ele>
        <time>2016-06-03T11:52:53Z</time>
      </trkpt>
      <trkpt lat="42.95376" lon="2.38645">
        <ele>371.203017</ele>
        <time>2016-06-03T11:52:56Z</time>
      </trkpt>
      <trkpt lat="42.95362" lon="2.38619">
        <ele>370.583705</ele>
        <time>2016-06-03T11:52:58Z</time>
      </trkpt>
      <trkpt lat="42.95349" lon="2.38587">
        <ele>370.275845</ele>
        <time>2016-06-03T11:53:00Z</time>
      </trkpt>
      <trkpt lat="42.95339" lon="2.38532">
        <ele>369.162425</ele>
        <time>2016-06-03T11:53:03Z</time>
      </trkpt>
      <trkpt lat="42.9533" lon="2.38482">
        <ele>369.199265</ele>
        <time>2016-06-03T11:53:06Z</time>
      </trkpt>
      <trkpt lat="42.95318" lon="2.38452">
        <ele>368.549074</ele>
        <time>2016-06-03T11:53:08Z</time>
      </trkpt>
      <trkpt lat="42.95292" lon="2.38412">
        <ele>367.908397</ele>
        <time>2016-06-03T11:53:11Z</time>
      </trkpt>
      <trkpt lat="42.95277" lon="2.38387">
        <ele>367.409948</ele>
        <time>2016-06-03T11:53:13Z</time>
      </trkpt>
      <trkpt lat="42.95268" lon="2.38349">
        <ele>366.790969</ele>
        <time>2016-06-03T11:53:15Z</time>
      </trkpt>
      <trkpt lat="42.95259" lon="2.38294">
        <ele>365.646101</ele>
        <time>2016-06-03T11:53:18Z</time>
      </trkpt>
      <trkpt lat="42.95257" lon="2.38252">
        <ele>364.703437</ele>
        <time>2016-06-03T11:53:20Z</time>
      </trkpt>
      <trkpt lat="42.9525" lon="2.38207">
        <ele>365.502814</ele>
        <time>2016-06-03T11:53:22Z</time>
      </trkpt>
      <trkpt lat="42.95225" lon="2.38141">
        <ele>364.139707</ele>
        <time>2016-06-03T11:53:25Z</time>
      </trkpt>
      <trkpt lat="42.95207" lon="2.38079">
        <ele>362.761058</ele>
        <time>2016-06-03T11:53:28Z</time>
      </trkpt>
      <trkpt lat="42.95196" lon="2.38018">
        <ele>363.194599</ele>
        <time>2016-06-03T11:53:31Z</time>
      </trkpt>
      <trkpt lat="42.95197" lon="2.37978">
        <ele>363.850311</ele>
        <time>2016-06-03T11:53:33Z</time>
      </trkpt>
      <trkpt lat="42.95193" lon="2.37923">
        <ele>362.748783</ele>
        <time>2016-06-03T11:53:36Z</time>
      </trkpt>
      <trkpt lat="42.95191" lon="2.37904">
        <ele>363.120761</ele>
        <time>2016-06-03T11:53:37Z</time>
      </trkpt>
      <trkpt lat="42.95193" lon="2.37903">
        <ele>363.299422</ele>
        <time>2016-06-03T11:53:38Z</time>
      </trkpt>
      <trkpt lat="42.95179" lon="2.37835">
        <ele>362.273265</ele>
        <time>2016-06-03T11:53:42Z</time>
      </trkpt>
      <trkpt lat="42.95163" lon="2.37769">
        <ele>362.245163</ele>
        <time>2016-06-03T11:53:46Z</time>
      </trkpt>
      <trkpt lat="42.95153" lon="2.37721">
        <ele>361.834272</ele>
        <time>2016-06-03T11:53:49Z</time>
      </trkpt>
      <trkpt lat="42.95153" lon="2.37696">
        <ele>361.868529</ele>
        <time>2016-06-03T11:53:51Z</time>
      </trkpt>
      <trkpt lat="42.95158" lon="2.37675">
        <ele>361.903226</ele>
        <time>2016-06-03T11:53:53Z</time>
      </trkpt>
      <trkpt lat="42.95181" lon="2.3763">
        <ele>361.2537</ele>
        <time>2016-06-03T11:53:57Z</time>
      </trkpt>
      <trkpt lat="42.95197" lon="2.37602">
        <ele>361.324204</ele>
        <time>2016-06-03T11:54:00Z</time>
      </trkpt>
      <trkpt lat="42.95211" lon="2.37573">
        <ele>360.994954</ele>
        <time>2016-06-03T11:54:03Z</time>
      </trkpt>
      <trkpt lat="42.9522" lon="2.37555">
        <ele>360.28534</ele>
        <time>2016-06-03T11:54:05Z</time>
      </trkpt>
      <trkpt lat="42.95238" lon="2.37522">
        <ele>359.546876</ele>
        <time>2016-06-03T11:54:09Z</time>
      </trkpt>
      <trkpt lat="42.95246" lon="2.37488">
        <ele>359.077134</ele>
        <time>2016-06-03T11:54:12Z</time>
      </trkpt>
      <trkpt lat="42.95252" lon="2.37454">
        <ele>360.058399</ele>
        <time>2016-06-03T11:54:15Z</time>
      </trkpt>
      <trkpt lat="42.95263" lon="2.37416">
        <ele>359.270719</ele>
        <time>2016-06-03T11:54:19Z</time>
      </trkpt>
      <trkpt lat="42.95269" lon="2.37401">
        <ele>359.324658</ele>
        <time>2016-06-03T11:54:21Z</time>
      </trkpt>
      <trkpt lat="42.95284" lon="2.37379">
        <ele>358.904614</ele>
        <time>2016-06-03T11:54:24Z</time>
      </trkpt>
      <trkpt lat="42.95311" lon="2.37352">
        <ele>358.030261</ele>
        <time>2016-06-03T11:54:27Z</time>
      </trkpt>
      <trkpt lat="42.9534" lon="2.37329">
        <ele>357.666271</ele>
        <time>2016-06-03T11:54:30Z</time>
      </trkpt>
      <trkpt lat="42.95364" lon="2.37307">
        <ele>356.969763</ele>
        <time>2016-06-03T11:54:33Z</time>
      </trkpt>
      <trkpt lat="42.95378" lon="2.37289">
        <ele>356.705636</ele>
        <time>2016-06-03T11:54:35Z</time>
      </trkpt>
      <trkpt lat="42.95388" lon="2.37268">
        <ele>355.921401</ele>
        <time>2016-06-03T11:54:37Z</time>
      </trkpt>
      <trkpt lat="42.95386" lon="2.3724">
        <ele>355.973379</ele>
        <time>2016-06-03T11:54:39Z</time>
      </trkpt>
      <trkpt lat="42.95367" lon="2.37142">
        <ele>354.817425</ele>
        <time>2016-06-03T11:54:44Z</time>
      </trkpt>
      <trkpt lat="42.9536" lon="2.37099">
        <ele>354.59803</ele>
        <time>2016-06-03T11:54:46Z</time>
      </trkpt>
      <trkpt lat="42.95347" lon="2.37028">
        <ele>353.182176</ele>
        <time>2016-06-03T11:54:49Z</time>
      </trkpt>
      <trkpt lat="42.95335" lon="2.36963">
        <ele>353.72696</ele>
        <time>2016-06-03T11:54:52Z</time>
      </trkpt>
      <trkpt lat="42.95319" lon="2.36888">
        <ele>352.83803</ele>
        <time>2016-06-03T11:54:55Z</time>
      </trkpt>
      <trkpt lat="42.95307" lon="2.36823">
        <ele>351.198564</ele>
        <time>2016-06-03T11:54:58Z</time>
      </trkpt>
      <trkpt lat="42.95299" lon="2.3679">
        <ele>352.028104</ele>
        <time>2016-06-03T11:55:00Z</time>
      </trkpt>
      <trkpt lat="42.95285" lon="2.36764">
        <ele>352.027163</ele>
        <time>2016-06-03T11:55:02Z</time>
      </trkpt>
      <trkpt lat="42.95264" lon="2.36743">
        <ele>352.306405</ele>
        <time>2016-06-03T11:55:04Z</time>
      </trkpt>
      <trkpt lat="42.95236" lon="2.36723">
        <ele>351.646318</ele>
        <time>2016-06-03T11:55:06Z</time>
      </trkpt>
      <trkpt lat="42.95196" lon="2.3671">
        <ele>352.276991</ele>
        <time>2016-06-03T11:55:09Z</time>
      </trkpt>
      <trkpt lat="42.95178" lon="2.36689">
        <ele>350.834477</ele>
        <time>2016-06-03T11:55:11Z</time>
      </trkpt>
      <trkpt lat="42.95168" lon="2.36655">
        <ele>350.430505</ele>
        <time>2016-06-03T11:55:13Z</time>
      </trkpt>
      <trkpt lat="42.9516" lon="2.36593">
        <ele>348.816796</ele>
        <time>2016-06-03T11:55:16Z</time>
      </trkpt>
      <trkpt lat="42.95152" lon="2.36495">
        <ele>350.516439</ele>
        <time>2016-06-03T11:55:20Z</time>
      </trkpt>
      <trkpt lat="42.95145" lon="2.36446">
        <ele>349.673069</ele>
        <time>2016-06-03T11:55:22Z</time>
      </trkpt>
      <trkpt lat="42.95132" lon="2.36396">
        <ele>348.064159</ele>
        <time>2016-06-03T11:55:24Z</time>
      </trkpt>
      <trkpt lat="42.95095" lon="2.36322">
        <ele>347.869349</ele>
        <time>2016-06-03T11:55:27Z</time>
      </trkpt>
      <trkpt lat="42.95058" lon="2.36244">
        <ele>346.562509</ele>
        <time>2016-06-03T11:55:30Z</time>
      </trkpt>
      <trkpt lat="42.95" lon="2.36116">
        <ele>347.182227</ele>
        <time>2016-06-03T11:55:35Z</time>
      </trkpt>
      <trkpt lat="42.94951" lon="2.36011">
        <ele>347.885991</ele>
        <time>2016-06-03T11:55:39Z</time>
      </trkpt>
      <trkpt lat="42.94916" lon="2.35942">
        <ele>346.073145</ele>
        <time>2016-06-03T11:55:42Z</time>
      </trkpt>
      <trkpt lat="42.94861" lon="2.35824">
        <ele>346.244041</ele>
        <time>2016-06-03T11:55:47Z</time>
      </trkpt>
      <trkpt lat="42.94828" lon="2.35754">
        <ele>345.090637</ele>
        <time>2016-06-03T11:55:50Z</time>
      </trkpt>
      <trkpt lat="42.94804" lon="2.35712">
        <ele>344.930006</ele>
        <time>2016-06-03T11:55:52Z</time>
      </trkpt>
      <trkpt lat="42.94754" lon="2.35644">
        <ele>343.928805</ele>
        <time>2016-06-03T11:55:56Z</time>
      </trkpt>
      <trkpt lat="42.94736" lon="2.3561">
        <ele>344.08641</ele>
        <time>2016-06-03T11:55:58Z</time>
      </trkpt>
      <trkpt lat="42.94725" lon="2.35566">
        <ele>343.153406</ele>
        <time>2016-06-03T11:56:00Z</time>
      </trkpt>
      <trkpt lat="42.94732" lon="2.35515">
        <ele>342.639184</ele>
        <time>2016-06-03T11:56:02Z</time>
      </trkpt>
      <trkpt lat="42.94748" lon="2.35436">
        <ele>343.067586</ele>
        <time>2016-06-03T11:56:05Z</time>
      </trkpt>
      <trkpt lat="42.94757" lon="2.35341">
        <ele>340.776161</ele>
        <time>2016-06-03T11:56:09Z</time>
      </trkpt>
      <trkpt lat="42.94765" lon="2.35301">
        <ele>338.926263</ele>
        <time>2016-06-03T11:56:11Z</time>
      </trkpt>
      <trkpt lat="42.94803" lon="2.35222">
        <ele>335.694904</ele>
        <time>2016-06-03T11:56:15Z</time>
      </trkpt>
      <trkpt lat="42.94832" lon="2.35156">
        <ele>333.201234</ele>
        <time>2016-06-03T11:56:19Z</time>
      </trkpt>
      <trkpt lat="42.94827" lon="2.35125">
        <ele>332.892695</ele>
        <time>2016-06-03T11:56:21Z</time>
      </trkpt>
      <trkpt lat="42.94801" lon="2.35064">
        <ele>331.911527</ele>
        <time>2016-06-03T11:56:25Z</time>
      </trkpt>
      <trkpt lat="42.94781" lon="2.35035">
        <ele>331.121269</ele>
        <time>2016-06-03T11:56:27Z</time>
      </trkpt>
      <trkpt lat="42.94745" lon="2.35029">
        <ele>330.330335</ele>
        <time>2016-06-03T11:56:29Z</time>
      </trkpt>
      <trkpt lat="42.94716" lon="2.35011">
        <ele>329.791662</ele>
        <time>2016-06-03T11:56:31Z</time>
      </trkpt>
      <trkpt lat="42.94697" lon="2.34975">
        <ele>329.247195</ele>
        <time>2016-06-03T11:56:33Z</time>
      </trkpt>
      <trkpt lat="42.94681" lon="2.34924">
        <ele>327.835193</ele>
        <time>2016-06-03T11:56:35Z</time>
      </trkpt>
      <trkpt lat="42.94665" lon="2.34862">
        <ele>325.962071</ele>
        <time>2016-06-03T11:56:38Z</time>
      </trkpt>
      <trkpt lat="42.94663" lon="2.34831">
        <ele>325.098163</ele>
        <time>2016-06-03T11:56:40Z</time>
      </trkpt>
      <trkpt lat="42.94666" lon="2.34818">
        <ele>324.068244</ele>
        <time>2016-06-03T11:56:41Z</time>
      </trkpt>
      <trkpt lat="42.94687" lon="2.34797">
        <ele>324.415131</ele>
        <time>2016-06-03T11:56:43Z</time>
      </trkpt>
      <trkpt lat="42.9473" lon="2.34779">
        <ele>321.404681</ele>
        <time>2016-06-03T11:56:46Z</time>
      </trkpt>
      <trkpt lat="42.94755" lon="2.34755">
        <ele>321.271289</ele>
        <time>2016-06-03T11:56:48Z</time>
      </trkpt>
      <trkpt lat="42.94786" lon="2.34682">
        <ele>319.905333</ele>
        <time>2016-06-03T11:56:51Z</time>
      </trkpt>
      <trkpt lat="42.94829" lon="2.34588">
        <ele>314.77243</ele>
        <time>2016-06-03T11:56:55Z</time>
      </trkpt>
      <trkpt lat="42.94846" lon="2.34553">
        <ele>314.967187</ele>
        <time>2016-06-03T11:56:57Z</time>
      </trkpt>
      <trkpt lat="42.94868" lon="2.34529">
        <ele>313.126078</ele>
        <time>2016-06-03T11:56:59Z</time>
      </trkpt>
      <trkpt lat="42.94913" lon="2.34519">
        <ele>311.99106</ele>
        <time>2016-06-03T11:57:02Z</time>
      </trkpt>
      <trkpt lat="42.94939" lon="2.34505">
        <ele>310.379987</ele>
        <time>2016-06-03T11:57:04Z</time>
      </trkpt>
      <trkpt lat="42.94963" lon="2.34453">
        <ele>309.829675</ele>
        <time>2016-06-03T11:57:07Z</time>
      </trkpt>
      <trkpt lat="42.9498" lon="2.34414">
        <ele>309.378841</ele>
        <time>2016-06-03T11:57:09Z</time>
      </trkpt>
      <trkpt lat="42.9499" lon="2.34372">
        <ele>308.214228</ele>
        <time>2016-06-03T11:57:11Z</time>
      </trkpt>
      <trkpt lat="42.9499" lon="2.34297">
        <ele>307.790369</ele>
        <time>2016-06-03T11:57:14Z</time>
      </trkpt>
      <trkpt lat="42.94998" lon="2.34246">
        <ele>306.378105</ele>
        <time>2016-06-03T11:57:16Z</time>
      </trkpt>
      <trkpt lat="42.95015" lon="2.34179">
        <ele>304.412308</ele>
        <time>2016-06-03T11:57:19Z</time>
      </trkpt>
      <trkpt lat="42.95023" lon="2.3415">
        <ele>302.908732</ele>
        <time>2016-06-03T11:57:21Z</time>
      </trkpt>
      <trkpt lat="42.95043" lon="2.34132">
        <ele>301.283354</ele>
        <time>2016-06-03T11:57:23Z</time>
      </trkpt>
      <trkpt lat="42.95066" lon="2.34119">
        <ele>300.176</ele>
        <time>2016-06-03T11:57:25Z</time>
      </trkpt>
      <trkpt lat="42.95076" lon="2.341">
        <ele>299.177157</ele>
        <time>2016-06-03T11:57:27Z</time>
      </trkpt>
      <trkpt lat="42.95081" lon="2.34088">
        <ele>299.511219</ele>
        <time>2016-06-03T11:57:28Z</time>
      </trkpt>
      <trkpt lat="42.95082" lon="2.3404">
        <ele>297.836111</ele>
        <time>2016-06-03T11:57:30Z</time>
      </trkpt>
      <trkpt lat="42.95081" lon="2.34001">
        <ele>297.616374</ele>
        <time>2016-06-03T11:57:32Z</time>
      </trkpt>
      <trkpt lat="42.9509" lon="2.33961">
        <ele>297.727648</ele>
        <time>2016-06-03T11:57:34Z</time>
      </trkpt>
      <trkpt lat="42.95112" lon="2.33897">
        <ele>293.430409</ele>
        <time>2016-06-03T11:57:37Z</time>
      </trkpt>
      <trkpt lat="42.95121" lon="2.33824">
        <ele>293.651617</ele>
        <time>2016-06-03T11:57:40Z</time>
      </trkpt>
      <trkpt lat="42.95126" lon="2.33783">
        <ele>291.09343</ele>
        <time>2016-06-03T11:57:42Z</time>
      </trkpt>
      <trkpt lat="42.95127" lon="2.33746">
        <ele>290.077226</ele>
        <time>2016-06-03T11:57:44Z</time>
      </trkpt>
      <trkpt lat="42.95092" lon="2.3368">
        <ele>287.827</ele>
        <time>2016-06-03T11:57:47Z</time>
      </trkpt>
      <trkpt lat="42.9505" lon="2.33595">
        <ele>285.485891</ele>
        <time>2016-06-03T11:57:51Z</time>
      </trkpt>
      <trkpt lat="42.9503" lon="2.3356">
        <ele>284.027308</ele>
        <time>2016-06-03T11:57:53Z</time>
      </trkpt>
      <trkpt lat="42.95008" lon="2.33528">
        <ele>282.958071</ele>
        <time>2016-06-03T11:57:55Z</time>
      </trkpt>
      <trkpt lat="42.94972" lon="2.33506">
        <ele>285.549134</ele>
        <time>2016-06-03T11:57:57Z</time>
      </trkpt>
      <trkpt lat="42.94907" lon="2.33471">
        <ele>282.8666</ele>
        <time>2016-06-03T11:58:01Z</time>
      </trkpt>
      <trkpt lat="42.94881" lon="2.3344">
        <ele>282.689162</ele>
        <time>2016-06-03T11:58:03Z</time>
      </trkpt>
      <trkpt lat="42.94842" lon="2.33384">
        <ele>280.540553</ele>
        <time>2016-06-03T11:58:06Z</time>
      </trkpt>
      <trkpt lat="42.94785" lon="2.33298">
        <ele>279.259171</ele>
        <time>2016-06-03T11:58:10Z</time>
      </trkpt>
      <trkpt lat="42.94739" lon="2.33229">
        <ele>280.521679</ele>
        <time>2016-06-03T11:58:13Z</time>
      </trkpt>
      <trkpt lat="42.94701" lon="2.33165">
        <ele>280.707842</ele>
        <time>2016-06-03T11:58:16Z</time>
      </trkpt>
      <trkpt lat="42.94681" lon="2.33121">
        <ele>280.114391</ele>
        <time>2016-06-03T11:58:18Z</time>
      </trkpt>
      <trkpt lat="42.94661" lon="2.3304">
        <ele>277.781804</ele>
        <time>2016-06-03T11:58:21Z</time>
      </trkpt>
      <trkpt lat="42.94638" lon="2.32929">
        <ele>278.620414</ele>
        <time>2016-06-03T11:58:25Z</time>
      </trkpt>
      <trkpt lat="42.94632" lon="2.32881">
        <ele>277.554226</ele>
        <time>2016-06-03T11:58:27Z</time>
      </trkpt>
      <trkpt lat="42.94633" lon="2.32804">
        <ele>276.420463</ele>
        <time>2016-06-03T11:58:30Z</time>
      </trkpt>
      <trkpt lat="42.94635" lon="2.32707">
        <ele>274.392098</ele>
        <time>2016-06-03T11:58:34Z</time>
      </trkpt>
      <trkpt lat="42.94638" lon="2.32618">
        <ele>272.927787</ele>
        <time>2016-06-03T11:58:38Z</time>
      </trkpt>
      <trkpt lat="42.9464" lon="2.3256">
        <ele>271.828203</ele>
        <time>2016-06-03T11:58:41Z</time>
      </trkpt>
      <trkpt lat="42.9464" lon="2.3253">
        <ele>271.282713</ele>
        <time>2016-06-03T11:58:43Z</time>
      </trkpt>
      <trkpt lat="42.94642" lon="2.32492">
        <ele>270.511097</ele>
        <time>2016-06-03T11:58:46Z</time>
      </trkpt>
      <trkpt lat="42.94642" lon="2.32448">
        <ele>269.886166</ele>
        <time>2016-06-03T11:58:50Z</time>
      </trkpt>
      <trkpt lat="42.94642" lon="2.32417">
        <ele>269.78562</ele>
        <time>2016-06-03T11:58:53Z</time>
      </trkpt>
      <trkpt lat="42.94636" lon="2.3237">
        <ele>270.258119</ele>
        <time>2016-06-03T11:58:57Z</time>
      </trkpt>
      <trkpt lat="42.94629" lon="2.32331">
        <ele>269.043377</ele>
        <time>2016-06-03T11:59:00Z</time>
      </trkpt>
      <trkpt lat="42.94616" lon="2.32287">
        <ele>268.829951</ele>
        <time>2016-06-03T11:59:03Z</time>
      </trkpt>
      <trkpt lat="42.94594" lon="2.32208">
        <ele>268.127651</ele>
        <time>2016-06-03T11:59:06Z</time>
      </trkpt>
      <trkpt lat="42.94579" lon="2.32167">
        <ele>268.035387</ele>
        <time>2016-06-03T11:59:09Z</time>
      </trkpt>
      <trkpt lat="42.94545" lon="2.32094">
        <ele>269.003675</ele>
        <time>2016-06-03T11:59:12Z</time>
      </trkpt>
      <trkpt lat="42.94496" lon="2.3199">
        <ele>268.695803</ele>
        <time>2016-06-03T11:59:16Z</time>
      </trkpt>
      <trkpt lat="42.94446" lon="2.31888">
        <ele>266.62938</ele>
        <time>2016-06-03T11:59:19Z</time>
      </trkpt>
      <trkpt lat="42.94419" lon="2.31829">
        <ele>264.996191</ele>
        <time>2016-06-03T11:59:23Z</time>
      </trkpt>
      <trkpt lat="42.94388" lon="2.31785">
        <ele>263.957442</ele>
        <time>2016-06-03T11:59:25Z</time>
      </trkpt>
      <trkpt lat="42.94317" lon="2.31761">
        <ele>263.214295</ele>
        <time>2016-06-03T11:59:29Z</time>
      </trkpt>
      <trkpt lat="42.94289" lon="2.31757">
        <ele>262.133493</ele>
        <time>2016-06-03T11:59:32Z</time>
      </trkpt>
      <trkpt lat="42.94263" lon="2.31756">
        <ele>263.036855</ele>
        <time>2016-06-03T11:59:33Z</time>
      </trkpt>
      <trkpt lat="42.94239" lon="2.31742">
        <ele>262.07275</ele>
        <time>2016-06-03T11:59:35Z</time>
      </trkpt>
      <trkpt lat="42.94219" lon="2.31719">
        <ele>263.029087</ele>
        <time>2016-06-03T11:59:37Z</time>
      </trkpt>
      <trkpt lat="42.94198" lon="2.31679">
        <ele>263.12961</ele>
        <time>2016-06-03T11:59:41Z</time>
      </trkpt>
      <trkpt lat="42.94187" lon="2.31652">
        <ele>263.329139</ele>
        <time>2016-06-03T11:59:42Z</time>
      </trkpt>
      <trkpt lat="42.94169" lon="2.31593">
        <ele>262.963848</ele>
        <time>2016-06-03T11:59:46Z</time>
      </trkpt>
      <trkpt lat="42.9416" lon="2.31543">
        <ele>263.002808</ele>
        <time>2016-06-03T11:59:51Z</time>
      </trkpt>
      <trkpt lat="42.94158" lon="2.31523">
        <ele>262.890067</ele>
        <time>2016-06-03T11:59:52Z</time>
      </trkpt>
      <trkpt lat="42.94159" lon="2.31507">
        <ele>262.433921</ele>
        <time>2016-06-03T11:59:54Z</time>
      </trkpt>
      <trkpt lat="42.94156" lon="2.31495">
        <ele>262.524616</ele>
        <time>2016-06-03T11:59:57Z</time>
      </trkpt>
      <trkpt lat="42.94147" lon="2.31491">
        <ele>262.842314</ele>
        <time>2016-06-03T11:59:58Z</time>
      </trkpt>
      <trkpt lat="42.94134" lon="2.31494">
        <ele>263.1437</ele>
        <time>2016-06-03T12:00:00Z</time>
      </trkpt>
      <trkpt lat="42.94119" lon="2.31502">
        <ele>262.798067</ele>
        <time>2016-06-03T12:00:02Z</time>
      </trkpt>
      <trkpt lat="42.9411" lon="2.31504">
        <ele>262.963461</ele>
        <time>2016-06-03T12:00:03Z</time>
      </trkpt>
      <trkpt lat="42.94078" lon="2.31543">
        <ele>263.908785</ele>
        <time>2016-06-03T12:00:06Z</time>
      </trkpt>
      <trkpt lat="42.94056" lon="2.31569">
        <ele>264.377414</ele>
        <time>2016-06-03T12:00:08Z</time>
      </trkpt>
      <trkpt lat="42.9403" lon="2.31591">
        <ele>264.428697</ele>
        <time>2016-06-03T12:00:11Z</time>
      </trkpt>
      <trkpt lat="42.93998" lon="2.31606">
        <ele>264.833713</ele>
        <time>2016-06-03T12:00:12Z</time>
      </trkpt>
      <trkpt lat="42.93922" lon="2.31626">
        <ele>266.149949</ele>
        <time>2016-06-03T12:00:17Z</time>
      </trkpt>
      <trkpt lat="42.9387" lon="2.31639">
        <ele>267.258668</ele>
        <time>2016-06-03T12:00:20Z</time>
      </trkpt>
      <trkpt lat="42.93837" lon="2.31643">
        <ele>269.539066</ele>
        <time>2016-06-03T12:00:22Z</time>
      </trkpt>
      <trkpt lat="42.93802" lon="2.31637">
        <ele>269.671321</ele>
        <time>2016-06-03T12:00:23Z</time>
      </trkpt>
      <trkpt lat="42.93749" lon="2.31614">
        <ele>269.893894</ele>
        <time>2016-06-03T12:00:27Z</time>
      </trkpt>
      <trkpt lat="42.93695" lon="2.31588">
        <ele>272.408579</ele>
        <time>2016-06-03T12:00:29Z</time>
      </trkpt>
      <trkpt lat="42.93663" lon="2.31574">
        <ele>273.340526</ele>
        <time>2016-06-03T12:00:31Z</time>
      </trkpt>
      <trkpt lat="42.93632" lon="2.3157">
        <ele>273.616611</ele>
        <time>2016-06-03T12:00:34Z</time>
      </trkpt>
      <trkpt lat="42.93599" lon="2.31574">
        <ele>275.777764</ele>
        <time>2016-06-03T12:00:35Z</time>
      </trkpt>
      <trkpt lat="42.93568" lon="2.31587">
        <ele>276.548164</ele>
        <time>2016-06-03T12:00:38Z</time>
      </trkpt>
      <trkpt lat="42.93538" lon="2.3159">
        <ele>276.007339</ele>
        <time>2016-06-03T12:00:39Z</time>
      </trkpt>
      <trkpt lat="42.93473" lon="2.31593">
        <ele>277.652611</ele>
        <time>2016-06-03T12:00:42Z</time>
      </trkpt>
      <trkpt lat="42.93404" lon="2.31601">
        <ele>280.451061</ele>
        <time>2016-06-03T12:00:45Z</time>
      </trkpt>
      <trkpt lat="42.93327" lon="2.316">
        <ele>284.432352</ele>
        <time>2016-06-03T12:00:49Z</time>
      </trkpt>
      <trkpt lat="42.93268" lon="2.31595">
        <ele>288.163825</ele>
        <time>2016-06-03T12:00:52Z</time>
      </trkpt>
      <trkpt lat="42.93214" lon="2.31582">
        <ele>285.085737</ele>
        <time>2016-06-03T12:00:54Z</time>
      </trkpt>
      <trkpt lat="42.93175" lon="2.31576">
        <ele>284.504687</ele>
        <time>2016-06-03T12:00:56Z</time>
      </trkpt>
      <trkpt lat="42.93056" lon="2.31588">
        <ele>280.395357</ele>
        <time>2016-06-03T12:01:02Z</time>
      </trkpt>
      <trkpt lat="42.92984" lon="2.31596">
        <ele>281.213685</ele>
        <time>2016-06-03T12:01:04Z</time>
      </trkpt>
      <trkpt lat="42.92918" lon="2.316">
        <ele>280.662177</ele>
        <time>2016-06-03T12:01:07Z</time>
      </trkpt>
      <trkpt lat="42.92844" lon="2.31606">
        <ele>278.341356</ele>
        <time>2016-06-03T12:01:11Z</time>
      </trkpt>
      <trkpt lat="42.92785" lon="2.31613">
        <ele>279.686556</ele>
        <time>2016-06-03T12:01:15Z</time>
      </trkpt>
      <trkpt lat="42.92748" lon="2.31603">
        <ele>278.391475</ele>
        <time>2016-06-03T12:01:18Z</time>
      </trkpt>
      <trkpt lat="42.92725" lon="2.31591">
        <ele>279.759876</ele>
        <time>2016-06-03T12:01:20Z</time>
      </trkpt>
      <trkpt lat="42.92699" lon="2.31552">
        <ele>278.008075</ele>
        <time>2016-06-03T12:01:22Z</time>
      </trkpt>
      <trkpt lat="42.92675" lon="2.31514">
        <ele>277.848918</ele>
        <time>2016-06-03T12:01:25Z</time>
      </trkpt>
      <trkpt lat="42.92648" lon="2.31487">
        <ele>278.539098</ele>
        <time>2016-06-03T12:01:26Z</time>
      </trkpt>
      <trkpt lat="42.92616" lon="2.3147">
        <ele>280.212543</ele>
        <time>2016-06-03T12:01:28Z</time>
      </trkpt>
      <trkpt lat="42.92586" lon="2.3146">
        <ele>280.152104</ele>
        <time>2016-06-03T12:01:30Z</time>
      </trkpt>
      <trkpt lat="42.92558" lon="2.31458">
        <ele>281.037369</ele>
        <time>2016-06-03T12:01:32Z</time>
      </trkpt>
      <trkpt lat="42.92533" lon="2.31466">
        <ele>282.65811</ele>
        <time>2016-06-03T12:01:34Z</time>
      </trkpt>
      <trkpt lat="42.92519" lon="2.31476">
        <ele>281.677319</ele>
        <time>2016-06-03T12:01:35Z</time>
      </trkpt>
      <trkpt lat="42.92489" lon="2.31532">
        <ele>282.524493</ele>
        <time>2016-06-03T12:01:39Z</time>
      </trkpt>
      <trkpt lat="42.9247" lon="2.31574">
        <ele>284.300995</ele>
        <time>2016-06-03T12:01:40Z</time>
      </trkpt>
      <trkpt lat="42.92458" lon="2.31619">
        <ele>285.586859</ele>
        <time>2016-06-03T12:01:42Z</time>
      </trkpt>
      <trkpt lat="42.92451" lon="2.31686">
        <ele>287.985585</ele>
        <time>2016-06-03T12:01:45Z</time>
      </trkpt>
      <trkpt lat="42.92454" lon="2.31704">
        <ele>288.425352</ele>
        <time>2016-06-03T12:01:47Z</time>
      </trkpt>
      <trkpt lat="42.92446" lon="2.31739">
        <ele>289.599461</ele>
        <time>2016-06-03T12:01:49Z</time>
      </trkpt>
      <trkpt lat="42.92414" lon="2.31781">
        <ele>291.470921</ele>
        <time>2016-06-03T12:01:51Z</time>
      </trkpt>
      <trkpt lat="42.92397" lon="2.31772">
        <ele>291.617793</ele>
        <time>2016-06-03T12:01:53Z</time>
      </trkpt>
      <trkpt lat="42.92369" lon="2.31782">
        <ele>293.409068</ele>
        <time>2016-06-03T12:01:55Z</time>
      </trkpt>
      <trkpt lat="42.92355" lon="2.31783">
        <ele>294.35351</ele>
        <time>2016-06-03T12:01:55Z</time>
      </trkpt>
      <trkpt lat="42.92269" lon="2.31749">
        <ele>295.086591</ele>
        <time>2016-06-03T12:02:01Z</time>
      </trkpt>
      <trkpt lat="42.92241" lon="2.31745">
        <ele>294.383596</ele>
        <time>2016-06-03T12:02:02Z</time>
      </trkpt>
      <trkpt lat="42.92212" lon="2.3175">
        <ele>294.908571</ele>
        <time>2016-06-03T12:02:04Z</time>
      </trkpt>
      <trkpt lat="42.92187" lon="2.3176">
        <ele>293.832061</ele>
        <time>2016-06-03T12:02:06Z</time>
      </trkpt>
      <trkpt lat="42.92166" lon="2.31779">
        <ele>294.325374</ele>
        <time>2016-06-03T12:02:09Z</time>
      </trkpt>
      <trkpt lat="42.92145" lon="2.31826">
        <ele>297.632159</ele>
        <time>2016-06-03T12:02:12Z</time>
      </trkpt>
      <trkpt lat="42.9214" lon="2.31867">
        <ele>300.042365</ele>
        <time>2016-06-03T12:02:13Z</time>
      </trkpt>
      <trkpt lat="42.92144" lon="2.31902">
        <ele>300.936873</ele>
        <time>2016-06-03T12:02:16Z</time>
      </trkpt>
      <trkpt lat="42.92152" lon="2.31931">
        <ele>301.02202</ele>
        <time>2016-06-03T12:02:17Z</time>
      </trkpt>
      <trkpt lat="42.92168" lon="2.31958">
        <ele>302.266747</ele>
        <time>2016-06-03T12:02:20Z</time>
      </trkpt>
      <trkpt lat="42.92179" lon="2.31999">
        <ele>304.146397</ele>
        <time>2016-06-03T12:02:23Z</time>
      </trkpt>
      <trkpt lat="42.92182" lon="2.32035">
        <ele>304.536474</ele>
        <time>2016-06-03T12:02:26Z</time>
      </trkpt>
      <trkpt lat="42.92181" lon="2.32055">
        <ele>304.990145</ele>
        <time>2016-06-03T12:02:27Z</time>
      </trkpt>
      <trkpt lat="42.92174" lon="2.32072">
        <ele>305.101298</ele>
        <time>2016-06-03T12:02:29Z</time>
      </trkpt>
      <trkpt lat="42.92162" lon="2.32082">
        <ele>305.265282</ele>
        <time>2016-06-03T12:02:32Z</time>
      </trkpt>
      <trkpt lat="42.9214" lon="2.32081">
        <ele>305.788257</ele>
        <time>2016-06-03T12:02:34Z</time>
      </trkpt>
      <trkpt lat="42.92105" lon="2.32054">
        <ele>306.317031</ele>
        <time>2016-06-03T12:02:39Z</time>
      </trkpt>
      <trkpt lat="42.92082" lon="2.3204">
        <ele>305.851535</ele>
        <time>2016-06-03T12:02:42Z</time>
      </trkpt>
      <trkpt lat="42.92057" lon="2.32026">
        <ele>306.040467</ele>
        <time>2016-06-03T12:02:44Z</time>
      </trkpt>
      <trkpt lat="42.92033" lon="2.3201">
        <ele>305.306338</ele>
        <time>2016-06-03T12:02:48Z</time>
      </trkpt>
      <trkpt lat="42.92018" lon="2.31999">
        <ele>304.896702</ele>
        <time>2016-06-03T12:02:49Z</time>
      </trkpt>
      <trkpt lat="42.91993" lon="2.31987">
        <ele>304.962341</ele>
        <time>2016-06-03T12:02:52Z</time>
      </trkpt>
      <trkpt lat="42.91956" lon="2.31966">
        <ele>303.806794</ele>
        <time>2016-06-03T12:02:57Z</time>
      </trkpt>
      <trkpt lat="42.9193" lon="2.31956">
        <ele>303.926</ele>
        <time>2016-06-03T12:03:00Z</time>
      </trkpt>
      <trkpt lat="42.91903" lon="2.31945">
        <ele>304.922558</ele>
        <time>2016-06-03T12:03:03Z</time>
      </trkpt>
      <trkpt lat="42.91888" lon="2.31938">
        <ele>305.612016</ele>
        <time>2016-06-03T12:03:05Z</time>
      </trkpt>
      <trkpt lat="42.91859" lon="2.31924">
        <ele>306.417519</ele>
        <time>2016-06-03T12:03:08Z</time>
      </trkpt>
      <trkpt lat="42.91833" lon="2.31913">
        <ele>306.849453</ele>
        <time>2016-06-03T12:03:12Z</time>
      </trkpt>
      <trkpt lat="42.91812" lon="2.31902">
        <ele>307.412473</ele>
        <time>2016-06-03T12:03:15Z</time>
      </trkpt>
      <trkpt lat="42.91798" lon="2.31897">
        <ele>307.860283</ele>
        <time>2016-06-03T12:03:16Z</time>
      </trkpt>
      <trkpt lat="42.9177" lon="2.31883">
        <ele>308.45199</ele>
        <time>2016-06-03T12:03:19Z</time>
      </trkpt>
      <trkpt lat="42.91752" lon="2.31867">
        <ele>309.129598</ele>
        <time>2016-06-03T12:03:22Z</time>
      </trkpt>
      <trkpt lat="42.91735" lon="2.31848">
        <ele>309.122487</ele>
        <time>2016-06-03T12:03:25Z</time>
      </trkpt>
      <trkpt lat="42.91721" lon="2.31837">
        <ele>309.283754</ele>
        <time>2016-06-03T12:03:28Z</time>
      </trkpt>
      <trkpt lat="42.91696" lon="2.31821">
        <ele>309.742427</ele>
        <time>2016-06-03T12:03:30Z</time>
      </trkpt>
      <trkpt lat="42.91681" lon="2.31819">
        <ele>309.611074</ele>
        <time>2016-06-03T12:03:32Z</time>
      </trkpt>
      <trkpt lat="42.91669" lon="2.318">
        <ele>309.351581</ele>
        <time>2016-06-03T12:03:35Z</time>
      </trkpt>
      <trkpt lat="42.91659" lon="2.3178">
        <ele>309.338177</ele>
        <time>2016-06-03T12:03:37Z</time>
      </trkpt>
      <trkpt lat="42.91646" lon="2.31762">
        <ele>309.291774</ele>
        <time>2016-06-03T12:03:38Z</time>
      </trkpt>
      <trkpt lat="42.91632" lon="2.31747">
        <ele>309.431668</ele>
        <time>2016-06-03T12:03:40Z</time>
      </trkpt>
      <trkpt lat="42.91601" lon="2.31754">
        <ele>309.891236</ele>
        <time>2016-06-03T12:03:43Z</time>
      </trkpt>
      <trkpt lat="42.91567" lon="2.31764">
        <ele>310.242493</ele>
        <time>2016-06-03T12:03:47Z</time>
      </trkpt>
      <trkpt lat="42.91541" lon="2.3177">
        <ele>310.468005</ele>
        <time>2016-06-03T12:03:50Z</time>
      </trkpt>
      <trkpt lat="42.91507" lon="2.31782">
        <ele>309.892319</ele>
        <time>2016-06-03T12:03:54Z</time>
      </trkpt>
      <trkpt lat="42.91488" lon="2.31795">
        <ele>310.575881</ele>
        <time>2016-06-03T12:03:57Z</time>
      </trkpt>
      <trkpt lat="42.9148" lon="2.31803">
        <ele>310.423937</ele>
        <time>2016-06-03T12:03:59Z</time>
      </trkpt>
      <trkpt lat="42.91453" lon="2.31824">
        <ele>309.715316</ele>
        <time>2016-06-03T12:04:03Z</time>
      </trkpt>
      <trkpt lat="42.91431" lon="2.31837">
        <ele>310.335103</ele>
        <time>2016-06-03T12:04:06Z</time>
      </trkpt>
      <trkpt lat="42.91419" lon="2.31845">
        <ele>310.613133</ele>
        <time>2016-06-03T12:04:07Z</time>
      </trkpt>
      <trkpt lat="42.914" lon="2.31839">
        <ele>310.297695</ele>
        <time>2016-06-03T12:04:09Z</time>
      </trkpt>
      <trkpt lat="42.91369" lon="2.31806">
        <ele>311.374864</ele>
        <time>2016-06-03T12:04:12Z</time>
      </trkpt>
      <trkpt lat="42.9134" lon="2.31766">
        <ele>311.475139</ele>
        <time>2016-06-03T12:04:16Z</time>
      </trkpt>
      <trkpt lat="42.91306" lon="2.31756">
        <ele>311.192609</ele>
        <time>2016-06-03T12:04:18Z</time>
      </trkpt>
      <trkpt lat="42.91252" lon="2.31725">
        <ele>311.790156</ele>
        <time>2016-06-03T12:04:22Z</time>
      </trkpt>
      <trkpt lat="42.91229" lon="2.31717">
        <ele>312.432088</ele>
        <time>2016-06-03T12:04:24Z</time>
      </trkpt>
      <trkpt lat="42.9121" lon="2.31718">
        <ele>312.951252</ele>
        <time>2016-06-03T12:04:26Z</time>
      </trkpt>
      <trkpt lat="42.91159" lon="2.31738">
        <ele>314.543611</ele>
        <time>2016-06-03T12:04:29Z</time>
      </trkpt>
      <trkpt lat="42.91121" lon="2.31768">
        <ele>314.817191</ele>
        <time>2016-06-03T12:04:32Z</time>
      </trkpt>
      <trkpt lat="42.91095" lon="2.31796">
        <ele>316.637261</ele>
        <time>2016-06-03T12:04:34Z</time>
      </trkpt>
      <trkpt lat="42.91064" lon="2.31847">
        <ele>317.628067</ele>
        <time>2016-06-03T12:04:37Z</time>
      </trkpt>
      <trkpt lat="42.91043" lon="2.31875">
        <ele>319.66414</ele>
        <time>2016-06-03T12:04:39Z</time>
      </trkpt>
      <trkpt lat="42.90982" lon="2.31918">
        <ele>319.886236</ele>
        <time>2016-06-03T12:04:43Z</time>
      </trkpt>
      <trkpt lat="42.90938" lon="2.31948">
        <ele>321.837678</ele>
        <time>2016-06-03T12:04:47Z</time>
      </trkpt>
      <trkpt lat="42.90916" lon="2.31956">
        <ele>322.326168</ele>
        <time>2016-06-03T12:04:49Z</time>
      </trkpt>
      <trkpt lat="42.90888" lon="2.31955">
        <ele>323.474343</ele>
        <time>2016-06-03T12:04:51Z</time>
      </trkpt>
      <trkpt lat="42.90841" lon="2.31933">
        <ele>324.58172</ele>
        <time>2016-06-03T12:04:54Z</time>
      </trkpt>
      <trkpt lat="42.90793" lon="2.31921">
        <ele>325.208975</ele>
        <time>2016-06-03T12:04:57Z</time>
      </trkpt>
      <trkpt lat="42.90753" lon="2.3191">
        <ele>326.987913</ele>
        <time>2016-06-03T12:05:00Z</time>
      </trkpt>
      <trkpt lat="42.90733" lon="2.31899">
        <ele>327.224451</ele>
        <time>2016-06-03T12:05:02Z</time>
      </trkpt>
      <trkpt lat="42.90717" lon="2.31874">
        <ele>327.120702</ele>
        <time>2016-06-03T12:05:04Z</time>
      </trkpt>
      <trkpt lat="42.90698" lon="2.31816">
        <ele>327.29517</ele>
        <time>2016-06-03T12:05:07Z</time>
      </trkpt>
      <trkpt lat="42.90687" lon="2.31786">
        <ele>325.690693</ele>
        <time>2016-06-03T12:05:09Z</time>
      </trkpt>
      <trkpt lat="42.90683" lon="2.31741">
        <ele>325.100038</ele>
        <time>2016-06-03T12:05:12Z</time>
      </trkpt>
      <trkpt lat="42.90683" lon="2.31726">
        <ele>324.975929</ele>
        <time>2016-06-03T12:05:13Z</time>
      </trkpt>
      <trkpt lat="42.90699" lon="2.31692">
        <ele>323.673515</ele>
        <time>2016-06-03T12:05:15Z</time>
      </trkpt>
      <trkpt lat="42.90705" lon="2.31659">
        <ele>323.898443</ele>
        <time>2016-06-03T12:05:17Z</time>
      </trkpt>
      <trkpt lat="42.90706" lon="2.31628">
        <ele>323.038615</ele>
        <time>2016-06-03T12:05:19Z</time>
      </trkpt>
      <trkpt lat="42.90691" lon="2.31595">
        <ele>322.788382</ele>
        <time>2016-06-03T12:05:21Z</time>
      </trkpt>
      <trkpt lat="42.90671" lon="2.31576">
        <ele>324.777215</ele>
        <time>2016-06-03T12:05:23Z</time>
      </trkpt>
      <trkpt lat="42.90658" lon="2.31569">
        <ele>323.811672</ele>
        <time>2016-06-03T12:05:24Z</time>
      </trkpt>
      <trkpt lat="42.90611" lon="2.31585">
        <ele>326.105671</ele>
        <time>2016-06-03T12:05:27Z</time>
      </trkpt>
      <trkpt lat="42.9058" lon="2.31601">
        <ele>326.065372</ele>
        <time>2016-06-03T12:05:29Z</time>
      </trkpt>
      <trkpt lat="42.90539" lon="2.31614">
        <ele>326.678975</ele>
        <time>2016-06-03T12:05:32Z</time>
      </trkpt>
      <trkpt lat="42.90528" lon="2.31621">
        <ele>327.3906</ele>
        <time>2016-06-03T12:05:33Z</time>
      </trkpt>
      <trkpt lat="42.90504" lon="2.31616">
        <ele>327.273549</ele>
        <time>2016-06-03T12:05:35Z</time>
      </trkpt>
      <trkpt lat="42.90494" lon="2.3161">
        <ele>327.804452</ele>
        <time>2016-06-03T12:05:36Z</time>
      </trkpt>
      <trkpt lat="42.90469" lon="2.31549">
        <ele>328.049003</ele>
        <time>2016-06-03T12:05:39Z</time>
      </trkpt>
      <trkpt lat="42.90463" lon="2.31526">
        <ele>328.606518</ele>
        <time>2016-06-03T12:05:40Z</time>
      </trkpt>
      <trkpt lat="42.90468" lon="2.31508">
        <ele>329.103219</ele>
        <time>2016-06-03T12:05:41Z</time>
      </trkpt>
      <trkpt lat="42.90457" lon="2.31476">
        <ele>330.975873</ele>
        <time>2016-06-03T12:05:43Z</time>
      </trkpt>
      <trkpt lat="42.90437" lon="2.31448">
        <ele>330.99484</ele>
        <time>2016-06-03T12:05:45Z</time>
      </trkpt>
      <trkpt lat="42.90424" lon="2.31419">
        <ele>330.276733</ele>
        <time>2016-06-03T12:05:47Z</time>
      </trkpt>
      <trkpt lat="42.90409" lon="2.31396">
        <ele>330.660204</ele>
        <time>2016-06-03T12:05:49Z</time>
      </trkpt>
      <trkpt lat="42.9039" lon="2.31384">
        <ele>332.193542</ele>
        <time>2016-06-03T12:05:51Z</time>
      </trkpt>
      <trkpt lat="42.90366" lon="2.31386">
        <ele>332.15237</ele>
        <time>2016-06-03T12:05:53Z</time>
      </trkpt>
      <trkpt lat="42.90314" lon="2.31371">
        <ele>334.686997</ele>
        <time>2016-06-03T12:05:56Z</time>
      </trkpt>
      <trkpt lat="42.9029" lon="2.31353">
        <ele>334.514763</ele>
        <time>2016-06-03T12:05:58Z</time>
      </trkpt>
      <trkpt lat="42.90271" lon="2.3133">
        <ele>335.337643</ele>
        <time>2016-06-03T12:06:00Z</time>
      </trkpt>
      <trkpt lat="42.90254" lon="2.31315">
        <ele>336.450974</ele>
        <time>2016-06-03T12:06:02Z</time>
      </trkpt>
      <trkpt lat="42.90245" lon="2.31311">
        <ele>335.934824</ele>
        <time>2016-06-03T12:06:03Z</time>
      </trkpt>
      <trkpt lat="42.90239" lon="2.31315">
        <ele>336.589309</ele>
        <time>2016-06-03T12:06:04Z</time>
      </trkpt>
      <trkpt lat="42.90203" lon="2.31316">
        <ele>337.21858</ele>
        <time>2016-06-03T12:06:06Z</time>
      </trkpt>
      <trkpt lat="42.90157" lon="2.3131">
        <ele>338.280826</ele>
        <time>2016-06-03T12:06:09Z</time>
      </trkpt>
      <trkpt lat="42.90144" lon="2.31311">
        <ele>338.830171</ele>
        <time>2016-06-03T12:06:10Z</time>
      </trkpt>
      <trkpt lat="42.90112" lon="2.31328">
        <ele>340.036663</ele>
        <time>2016-06-03T12:06:13Z</time>
      </trkpt>
      <trkpt lat="42.90084" lon="2.31311">
        <ele>341.593569</ele>
        <time>2016-06-03T12:06:16Z</time>
      </trkpt>
      <trkpt lat="42.90063" lon="2.31287">
        <ele>341.86445</ele>
        <time>2016-06-03T12:06:18Z</time>
      </trkpt>
      <trkpt lat="42.90034" lon="2.31275">
        <ele>342.288037</ele>
        <time>2016-06-03T12:06:20Z</time>
      </trkpt>
      <trkpt lat="42.90002" lon="2.31271">
        <ele>343.492051</ele>
        <time>2016-06-03T12:06:22Z</time>
      </trkpt>
      <trkpt lat="42.89953" lon="2.31274">
        <ele>344.057479</ele>
        <time>2016-06-03T12:06:25Z</time>
      </trkpt>
      <trkpt lat="42.89926" lon="2.31274">
        <ele>343.994862</ele>
        <time>2016-06-03T12:06:28Z</time>
      </trkpt>
      <trkpt lat="42.89898" lon="2.31281">
        <ele>345.197734</ele>
        <time>2016-06-03T12:06:30Z</time>
      </trkpt>
      <trkpt lat="42.8986" lon="2.31278">
        <ele>346.06901</ele>
        <time>2016-06-03T12:06:32Z</time>
      </trkpt>
      <trkpt lat="42.8985" lon="2.31281">
        <ele>347.105602</ele>
        <time>2016-06-03T12:06:34Z</time>
      </trkpt>
      <trkpt lat="42.89837" lon="2.31305">
        <ele>347.326868</ele>
        <time>2016-06-03T12:06:36Z</time>
      </trkpt>
      <trkpt lat="42.89827" lon="2.31334">
        <ele>346.94</ele>
        <time>2016-06-03T12:06:38Z</time>
      </trkpt>
      <trkpt lat="42.89819" lon="2.31369">
        <ele>347.715074</ele>
        <time>2016-06-03T12:06:40Z</time>
      </trkpt>
      <trkpt lat="42.8982" lon="2.31439">
        <ele>347.253977</ele>
        <time>2016-06-03T12:06:43Z</time>
      </trkpt>
      <trkpt lat="42.89814" lon="2.31498">
        <ele>347.821786</ele>
        <time>2016-06-03T12:06:46Z</time>
      </trkpt>
      <trkpt lat="42.89804" lon="2.3152">
        <ele>347.56917</ele>
        <time>2016-06-03T12:06:48Z</time>
      </trkpt>
      <trkpt lat="42.89789" lon="2.31529">
        <ele>347.271758</ele>
        <time>2016-06-03T12:06:50Z</time>
      </trkpt>
      <trkpt lat="42.89772" lon="2.31517">
        <ele>347.116385</ele>
        <time>2016-06-03T12:06:52Z</time>
      </trkpt>
      <trkpt lat="42.89738" lon="2.31483">
        <ele>347.631303</ele>
        <time>2016-06-03T12:06:55Z</time>
      </trkpt>
      <trkpt lat="42.89704" lon="2.31451">
        <ele>347.507241</ele>
        <time>2016-06-03T12:06:58Z</time>
      </trkpt>
      <trkpt lat="42.89689" lon="2.31403">
        <ele>347.285693</ele>
        <time>2016-06-03T12:07:01Z</time>
      </trkpt>
      <trkpt lat="42.8968" lon="2.31359">
        <ele>348.422071</ele>
        <time>2016-06-03T12:07:03Z</time>
      </trkpt>
      <trkpt lat="42.89654" lon="2.31304">
        <ele>346.431279</ele>
        <time>2016-06-03T12:07:06Z</time>
      </trkpt>
      <trkpt lat="42.89646" lon="2.31294">
        <ele>347.269884</ele>
        <time>2016-06-03T12:07:07Z</time>
      </trkpt>
      <trkpt lat="42.89632" lon="2.31257">
        <ele>347.650334</ele>
        <time>2016-06-03T12:07:10Z</time>
      </trkpt>
      <trkpt lat="42.89622" lon="2.3124">
        <ele>347.193265</ele>
        <time>2016-06-03T12:07:12Z</time>
      </trkpt>
      <trkpt lat="42.89601" lon="2.31241">
        <ele>347.695045</ele>
        <time>2016-06-03T12:07:14Z</time>
      </trkpt>
      <trkpt lat="42.89596" lon="2.31263">
        <ele>350.238232</ele>
        <time>2016-06-03T12:07:16Z</time>
      </trkpt>
      <trkpt lat="42.89602" lon="2.31303">
        <ele>351.323209</ele>
        <time>2016-06-03T12:07:18Z</time>
      </trkpt>
      <trkpt lat="42.89617" lon="2.31367">
        <ele>355.762795</ele>
        <time>2016-06-03T12:07:21Z</time>
      </trkpt>
      <trkpt lat="42.89616" lon="2.31404">
        <ele>357.333689</ele>
        <time>2016-06-03T12:07:23Z</time>
      </trkpt>
      <trkpt lat="42.89607" lon="2.31434">
        <ele>359.653138</ele>
        <time>2016-06-03T12:07:25Z</time>
      </trkpt>
      <trkpt lat="42.89586" lon="2.31448">
        <ele>362.325677</ele>
        <time>2016-06-03T12:07:27Z</time>
      </trkpt>
      <trkpt lat="42.8956" lon="2.31462">
        <ele>365.952181</ele>
        <time>2016-06-03T12:07:29Z</time>
      </trkpt>
      <trkpt lat="42.89535" lon="2.31478">
        <ele>367.771404</ele>
        <time>2016-06-03T12:07:31Z</time>
      </trkpt>
      <trkpt lat="42.89495" lon="2.31488">
        <ele>371.363306</ele>
        <time>2016-06-03T12:07:34Z</time>
      </trkpt>
      <trkpt lat="42.89457" lon="2.31519">
        <ele>374.525562</ele>
        <time>2016-06-03T12:07:37Z</time>
      </trkpt>
      <trkpt lat="42.89421" lon="2.31534">
        <ele>376.773965</ele>
        <time>2016-06-03T12:07:40Z</time>
      </trkpt>
      <trkpt lat="42.89396" lon="2.31536">
        <ele>377.285629</ele>
        <time>2016-06-03T12:07:42Z</time>
      </trkpt>
      <trkpt lat="42.89373" lon="2.31528">
        <ele>378.496676</ele>
        <time>2016-06-03T12:07:44Z</time>
      </trkpt>
      <trkpt lat="42.89353" lon="2.31508">
        <ele>378.804975</ele>
        <time>2016-06-03T12:07:46Z</time>
      </trkpt>
      <trkpt lat="42.89338" lon="2.31474">
        <ele>380.247914</ele>
        <time>2016-06-03T12:07:48Z</time>
      </trkpt>
      <trkpt lat="42.89293" lon="2.31387">
        <ele>382.94658</ele>
        <time>2016-06-03T12:07:53Z</time>
      </trkpt>
      <trkpt lat="42.89276" lon="2.31345">
        <ele>383.902053</ele>
        <time>2016-06-03T12:07:56Z</time>
      </trkpt>
      <trkpt lat="42.89255" lon="2.3132">
        <ele>385.08558</ele>
        <time>2016-06-03T12:07:59Z</time>
      </trkpt>
      <trkpt lat="42.89251" lon="2.31319">
        <ele>385.358511</ele>
        <time>2016-06-03T12:08:00Z</time>
      </trkpt>
      <trkpt lat="42.89252" lon="2.31328">
        <ele>386.438107</ele>
        <time>2016-06-03T12:08:01Z</time>
      </trkpt>
      <trkpt lat="42.89237" lon="2.31379">
        <ele>386.646488</ele>
        <time>2016-06-03T12:08:03Z</time>
      </trkpt>
      <trkpt lat="42.89219" lon="2.31407">
        <ele>386.853921</ele>
        <time>2016-06-03T12:08:05Z</time>
      </trkpt>
      <trkpt lat="42.89184" lon="2.31448">
        <ele>388.705133</ele>
        <time>2016-06-03T12:08:08Z</time>
      </trkpt>
      <trkpt lat="42.89167" lon="2.31478">
        <ele>390.825355</ele>
        <time>2016-06-03T12:08:10Z</time>
      </trkpt>
      <trkpt lat="42.89147" lon="2.31497">
        <ele>391.819235</ele>
        <time>2016-06-03T12:08:12Z</time>
      </trkpt>
      <trkpt lat="42.89104" lon="2.31515">
        <ele>393.463203</ele>
        <time>2016-06-03T12:08:15Z</time>
      </trkpt>
      <trkpt lat="42.89075" lon="2.31535">
        <ele>394.306042</ele>
        <time>2016-06-03T12:08:17Z</time>
      </trkpt>
      <trkpt lat="42.89026" lon="2.31581">
        <ele>396.412318</ele>
        <time>2016-06-03T12:08:21Z</time>
      </trkpt>
      <trkpt lat="42.89008" lon="2.31607">
        <ele>396.990307</ele>
        <time>2016-06-03T12:08:23Z</time>
      </trkpt>
      <trkpt lat="42.88993" lon="2.31657">
        <ele>397.737285</ele>
        <time>2016-06-03T12:08:26Z</time>
      </trkpt>
      <trkpt lat="42.88977" lon="2.31677">
        <ele>397.741216</ele>
        <time>2016-06-03T12:08:28Z</time>
      </trkpt>
      <trkpt lat="42.8894" lon="2.31705">
        <ele>399.156922</ele>
        <time>2016-06-03T12:08:31Z</time>
      </trkpt>
      <trkpt lat="42.88903" lon="2.31743">
        <ele>401.667208</ele>
        <time>2016-06-03T12:08:34Z</time>
      </trkpt>
      <trkpt lat="42.88876" lon="2.3176">
        <ele>402.343725</ele>
        <time>2016-06-03T12:08:36Z</time>
      </trkpt>
      <trkpt lat="42.88847" lon="2.31773">
        <ele>403.406421</ele>
        <time>2016-06-03T12:08:38Z</time>
      </trkpt>
      <trkpt lat="42.88845" lon="2.31766">
        <ele>403.846239</ele>
        <time>2016-06-03T12:08:39Z</time>
      </trkpt>
      <trkpt lat="42.88824" lon="2.31752">
        <ele>403.894079</ele>
        <time>2016-06-03T12:08:41Z</time>
      </trkpt>
      <trkpt lat="42.88809" lon="2.31728">
        <ele>405.371359</ele>
        <time>2016-06-03T12:08:43Z</time>
      </trkpt>
      <trkpt lat="42.88791" lon="2.31711">
        <ele>405.280682</ele>
        <time>2016-06-03T12:08:45Z</time>
      </trkpt>
      <trkpt lat="42.88763" lon="2.31711">
        <ele>408.023247</ele>
        <time>2016-06-03T12:08:47Z</time>
      </trkpt>
      <trkpt lat="42.88741" lon="2.31719">
        <ele>406.847674</ele>
        <time>2016-06-03T12:08:49Z</time>
      </trkpt>
      <trkpt lat="42.88724" lon="2.31748">
        <ele>409.671788</ele>
        <time>2016-06-03T12:08:51Z</time>
      </trkpt>
      <trkpt lat="42.88709" lon="2.31781">
        <ele>411.46208</ele>
        <time>2016-06-03T12:08:53Z</time>
      </trkpt>
      <trkpt lat="42.88688" lon="2.31811">
        <ele>413.487728</ele>
        <time>2016-06-03T12:08:55Z</time>
      </trkpt>
      <trkpt lat="42.88661" lon="2.31831">
        <ele>413.814581</ele>
        <time>2016-06-03T12:08:57Z</time>
      </trkpt>
      <trkpt lat="42.88633" lon="2.31838">
        <ele>416.643615</ele>
        <time>2016-06-03T12:08:59Z</time>
      </trkpt>
      <trkpt lat="42.88588" lon="2.31836">
        <ele>417.879965</ele>
        <time>2016-06-03T12:09:02Z</time>
      </trkpt>
      <trkpt lat="42.88563" lon="2.31836">
        <ele>419.296456</ele>
        <time>2016-06-03T12:09:04Z</time>
      </trkpt>
      <trkpt lat="42.8855" lon="2.31842">
        <ele>419.685261</ele>
        <time>2016-06-03T12:09:05Z</time>
      </trkpt>
      <trkpt lat="42.88513" lon="2.31919">
        <ele>423.264493</ele>
        <time>2016-06-03T12:09:09Z</time>
      </trkpt>
      <trkpt lat="42.88493" lon="2.31951">
        <ele>423.189187</ele>
        <time>2016-06-03T12:09:11Z</time>
      </trkpt>
      <trkpt lat="42.88441" lon="2.3199">
        <ele>425.623811</ele>
        <time>2016-06-03T12:09:14Z</time>
      </trkpt>
      <trkpt lat="42.88388" lon="2.32032">
        <ele>430.948452</ele>
        <time>2016-06-03T12:09:17Z</time>
      </trkpt>
      <trkpt lat="42.88332" lon="2.32069">
        <ele>434.210493</ele>
        <time>2016-06-03T12:09:20Z</time>
      </trkpt>
      <trkpt lat="42.88264" lon="2.32117">
        <ele>437.096085</ele>
        <time>2016-06-03T12:09:24Z</time>
      </trkpt>
      <trkpt lat="42.88229" lon="2.32158">
        <ele>438.957202</ele>
        <time>2016-06-03T12:09:27Z</time>
      </trkpt>
      <trkpt lat="42.88206" lon="2.32178">
        <ele>439.555453</ele>
        <time>2016-06-03T12:09:29Z</time>
      </trkpt>
      <trkpt lat="42.88154" lon="2.32205">
        <ele>439.182577</ele>
        <time>2016-06-03T12:09:33Z</time>
      </trkpt>
      <trkpt lat="42.88132" lon="2.3221">
        <ele>437.510502</ele>
        <time>2016-06-03T12:09:35Z</time>
      </trkpt>
      <trkpt lat="42.88107" lon="2.322">
        <ele>436.383746</ele>
        <time>2016-06-03T12:09:37Z</time>
      </trkpt>
      <trkpt lat="42.88083" lon="2.32183">
        <ele>436.700972</ele>
        <time>2016-06-03T12:09:39Z</time>
      </trkpt>
      <trkpt lat="42.88056" lon="2.32171">
        <ele>435.699983</ele>
        <time>2016-06-03T12:09:41Z</time>
      </trkpt>
      <trkpt lat="42.88028" lon="2.32167">
        <ele>435.929969</ele>
        <time>2016-06-03T12:09:43Z</time>
      </trkpt>
      <trkpt lat="42.87984" lon="2.32168">
        <ele>435.204124</ele>
        <time>2016-06-03T12:09:46Z</time>
      </trkpt>
      <trkpt lat="42.87945" lon="2.32175">
        <ele>435.046349</ele>
        <time>2016-06-03T12:09:49Z</time>
      </trkpt>
      <trkpt lat="42.87923" lon="2.32184">
        <ele>434.962244</ele>
        <time>2016-06-03T12:09:51Z</time>
      </trkpt>
      <trkpt lat="42.87899" lon="2.32215">
        <ele>435.04092</ele>
        <time>2016-06-03T12:09:54Z</time>
      </trkpt>
      <trkpt lat="42.87887" lon="2.3224">
        <ele>435.226076</ele>
        <time>2016-06-03T12:09:56Z</time>
      </trkpt>
      <trkpt lat="42.87885" lon="2.32269">
        <ele>436.683806</ele>
        <time>2016-06-03T12:09:58Z</time>
      </trkpt>
      <trkpt lat="42.8789" lon="2.32317">
        <ele>439.209112</ele>
        <time>2016-06-03T12:10:01Z</time>
      </trkpt>
      <trkpt lat="42.87893" lon="2.32351">
        <ele>440.535383</ele>
        <time>2016-06-03T12:10:03Z</time>
      </trkpt>
      <trkpt lat="42.87888" lon="2.32385">
        <ele>443.243782</ele>
        <time>2016-06-03T12:10:05Z</time>
      </trkpt>
      <trkpt lat="42.87886" lon="2.32436">
        <ele>444.195057</ele>
        <time>2016-06-03T12:10:08Z</time>
      </trkpt>
      <trkpt lat="42.87891" lon="2.32468">
        <ele>446.172614</ele>
        <time>2016-06-03T12:10:10Z</time>
      </trkpt>
      <trkpt lat="42.87903" lon="2.32495">
        <ele>448.113042</ele>
        <time>2016-06-03T12:10:12Z</time>
      </trkpt>
      <trkpt lat="42.87933" lon="2.32514">
        <ele>448.883126</ele>
        <time>2016-06-03T12:10:14Z</time>
      </trkpt>
      <trkpt lat="42.87945" lon="2.32537">
        <ele>450.512488</ele>
        <time>2016-06-03T12:10:16Z</time>
      </trkpt>
      <trkpt lat="42.87942" lon="2.32565">
        <ele>451.92859</ele>
        <time>2016-06-03T12:10:18Z</time>
      </trkpt>
      <trkpt lat="42.87934" lon="2.32595">
        <ele>453.413023</ele>
        <time>2016-06-03T12:10:20Z</time>
      </trkpt>
      <trkpt lat="42.87935" lon="2.32623">
        <ele>455.19666</ele>
        <time>2016-06-03T12:10:22Z</time>
      </trkpt>
      <trkpt lat="42.87941" lon="2.32653">
        <ele>457.141853</ele>
        <time>2016-06-03T12:10:24Z</time>
      </trkpt>
      <trkpt lat="42.87963" lon="2.32679">
        <ele>458.085668</ele>
        <time>2016-06-03T12:10:26Z</time>
      </trkpt>
      <trkpt lat="42.87978" lon="2.32707">
        <ele>460.257468</ele>
        <time>2016-06-03T12:10:28Z</time>
      </trkpt>
      <trkpt lat="42.87984" lon="2.32742">
        <ele>462.497796</ele>
        <time>2016-06-03T12:10:30Z</time>
      </trkpt>
      <trkpt lat="42.8798" lon="2.32785">
        <ele>464.682618</ele>
        <time>2016-06-03T12:10:32Z</time>
      </trkpt>
      <trkpt lat="42.87962" lon="2.32842">
        <ele>467.976787</ele>
        <time>2016-06-03T12:10:35Z</time>
      </trkpt>
      <trkpt lat="42.87947" lon="2.32869">
        <ele>469.092603</ele>
        <time>2016-06-03T12:10:37Z</time>
      </trkpt>
      <trkpt lat="42.8793" lon="2.32891">
        <ele>471.358069</ele>
        <time>2016-06-03T12:10:39Z</time>
      </trkpt>
      <trkpt lat="42.87909" lon="2.32911">
        <ele>471.482421</ele>
        <time>2016-06-03T12:10:41Z</time>
      </trkpt>
      <trkpt lat="42.87895" lon="2.32936">
        <ele>469.997449</ele>
        <time>2016-06-03T12:10:43Z</time>
      </trkpt>
      <trkpt lat="42.87868" lon="2.33006">
        <ele>468.489574</ele>
        <time>2016-06-03T12:10:47Z</time>
      </trkpt>
      <trkpt lat="42.87851" lon="2.33065">
        <ele>464.844744</ele>
        <time>2016-06-03T12:10:50Z</time>
      </trkpt>
      <trkpt lat="42.8784" lon="2.33105">
        <ele>462.975369</ele>
        <time>2016-06-03T12:10:52Z</time>
      </trkpt>
      <trkpt lat="42.8783" lon="2.33173">
        <ele>464.102977</ele>
        <time>2016-06-03T12:10:55Z</time>
      </trkpt>
      <trkpt lat="42.87822" lon="2.33243">
        <ele>461.23913</ele>
        <time>2016-06-03T12:10:58Z</time>
      </trkpt>
      <trkpt lat="42.87813" lon="2.33284">
        <ele>460.279328</ele>
        <time>2016-06-03T12:11:00Z</time>
      </trkpt>
      <trkpt lat="42.87793" lon="2.33344">
        <ele>460.044568</ele>
        <time>2016-06-03T12:11:03Z</time>
      </trkpt>
      <trkpt lat="42.87763" lon="2.33401">
        <ele>457.976054</ele>
        <time>2016-06-03T12:11:06Z</time>
      </trkpt>
      <trkpt lat="42.87731" lon="2.33458">
        <ele>456.489357</ele>
        <time>2016-06-03T12:11:09Z</time>
      </trkpt>
      <trkpt lat="42.87698" lon="2.33504">
        <ele>455.058845</ele>
        <time>2016-06-03T12:11:12Z</time>
      </trkpt>
      <trkpt lat="42.87681" lon="2.33535">
        <ele>454.7228</ele>
        <time>2016-06-03T12:11:14Z</time>
      </trkpt>
      <trkpt lat="42.87672" lon="2.33567">
        <ele>454.217164</ele>
        <time>2016-06-03T12:11:16Z</time>
      </trkpt>
      <trkpt lat="42.87674" lon="2.33601">
        <ele>454.684785</ele>
        <time>2016-06-03T12:11:18Z</time>
      </trkpt>
      <trkpt lat="42.87679" lon="2.33636">
        <ele>454.361286</ele>
        <time>2016-06-03T12:11:20Z</time>
      </trkpt>
      <trkpt lat="42.87675" lon="2.33675">
        <ele>453.573164</ele>
        <time>2016-06-03T12:11:22Z</time>
      </trkpt>
      <trkpt lat="42.87658" lon="2.33763">
        <ele>452.055796</ele>
        <time>2016-06-03T12:11:26Z</time>
      </trkpt>
      <trkpt lat="42.87654" lon="2.33809">
        <ele>451.937483</ele>
        <time>2016-06-03T12:11:28Z</time>
      </trkpt>
      <trkpt lat="42.87654" lon="2.33869">
        <ele>452.004506</ele>
        <time>2016-06-03T12:11:31Z</time>
      </trkpt>
      <trkpt lat="42.87656" lon="2.33887">
        <ele>454.298004</ele>
        <time>2016-06-03T12:11:32Z</time>
      </trkpt>
      <trkpt lat="42.87686" lon="2.33915">
        <ele>454.283521</ele>
        <time>2016-06-03T12:11:34Z</time>
      </trkpt>
      <trkpt lat="42.87717" lon="2.33961">
        <ele>456.371785</ele>
        <time>2016-06-03T12:11:37Z</time>
      </trkpt>
      <trkpt lat="42.87728" lon="2.33995">
        <ele>457.435061</ele>
        <time>2016-06-03T12:11:39Z</time>
      </trkpt>
      <trkpt lat="42.87735" lon="2.3405">
        <ele>459.726142</ele>
        <time>2016-06-03T12:11:42Z</time>
      </trkpt>
      <trkpt lat="42.87729" lon="2.34076">
        <ele>460.012671</ele>
        <time>2016-06-03T12:11:44Z</time>
      </trkpt>
      <trkpt lat="42.87713" lon="2.34092">
        <ele>461.651515</ele>
        <time>2016-06-03T12:11:46Z</time>
      </trkpt>
      <trkpt lat="42.87698" lon="2.34109">
        <ele>460.900697</ele>
        <time>2016-06-03T12:11:48Z</time>
      </trkpt>
      <trkpt lat="42.87691" lon="2.34133">
        <ele>461.734132</ele>
        <time>2016-06-03T12:11:50Z</time>
      </trkpt>
      <trkpt lat="42.87692" lon="2.34162">
        <ele>462.550083</ele>
        <time>2016-06-03T12:11:52Z</time>
      </trkpt>
      <trkpt lat="42.87713" lon="2.34259">
        <ele>459.88297</ele>
        <time>2016-06-03T12:11:56Z</time>
      </trkpt>
      <trkpt lat="42.87737" lon="2.34391">
        <ele>457.252227</ele>
        <time>2016-06-03T12:12:01Z</time>
      </trkpt>
      <trkpt lat="42.87744" lon="2.34442">
        <ele>456.319346</ele>
        <time>2016-06-03T12:12:03Z</time>
      </trkpt>
      <trkpt lat="42.87745" lon="2.34491">
        <ele>456.326926</ele>
        <time>2016-06-03T12:12:05Z</time>
      </trkpt>
      <trkpt lat="42.8774" lon="2.34558">
        <ele>457.269369</ele>
        <time>2016-06-03T12:12:08Z</time>
      </trkpt>
      <trkpt lat="42.87735" lon="2.34596">
        <ele>457.086585</ele>
        <time>2016-06-03T12:12:10Z</time>
      </trkpt>
      <trkpt lat="42.87734" lon="2.34632">
        <ele>456.948449</ele>
        <time>2016-06-03T12:12:12Z</time>
      </trkpt>
      <trkpt lat="42.87738" lon="2.3465">
        <ele>456.466479</ele>
        <time>2016-06-03T12:12:13Z</time>
      </trkpt>
      <trkpt lat="42.87757" lon="2.34681">
        <ele>455.41232</ele>
        <time>2016-06-03T12:12:15Z</time>
      </trkpt>
      <trkpt lat="42.87798" lon="2.34717">
        <ele>455.639082</ele>
        <time>2016-06-03T12:12:18Z</time>
      </trkpt>
      <trkpt lat="42.87834" lon="2.34748">
        <ele>456.100368</ele>
        <time>2016-06-03T12:12:21Z</time>
      </trkpt>
      <trkpt lat="42.8785" lon="2.3477">
        <ele>455.820731</ele>
        <time>2016-06-03T12:12:23Z</time>
      </trkpt>
      <trkpt lat="42.87856" lon="2.34795">
        <ele>455.907436</ele>
        <time>2016-06-03T12:12:25Z</time>
      </trkpt>
      <trkpt lat="42.87851" lon="2.34822">
        <ele>457.332654</ele>
        <time>2016-06-03T12:12:27Z</time>
      </trkpt>
      <trkpt lat="42.87833" lon="2.34864">
        <ele>457.142137</ele>
        <time>2016-06-03T12:12:30Z</time>
      </trkpt>
      <trkpt lat="42.87822" lon="2.34885">
        <ele>457.904574</ele>
        <time>2016-06-03T12:12:32Z</time>
      </trkpt>
      <trkpt lat="42.87788" lon="2.3491">
        <ele>459.195584</ele>
        <time>2016-06-03T12:12:35Z</time>
      </trkpt>
      <trkpt lat="42.8775" lon="2.34936">
        <ele>459.490049</ele>
        <time>2016-06-03T12:12:38Z</time>
      </trkpt>
      <trkpt lat="42.87704" lon="2.34975">
        <ele>460.673748</ele>
        <time>2016-06-03T12:12:42Z</time>
      </trkpt>
      <trkpt lat="42.87671" lon="2.34998">
        <ele>460.405123</ele>
        <time>2016-06-03T12:12:46Z</time>
      </trkpt>
      <trkpt lat="42.87643" lon="2.35011">
        <ele>461.156251</ele>
        <time>2016-06-03T12:12:49Z</time>
      </trkpt>
      <trkpt lat="42.87627" lon="2.35024">
        <ele>461.48061</ele>
        <time>2016-06-03T12:12:51Z</time>
      </trkpt>
      <trkpt lat="42.87608" lon="2.35053">
        <ele>461.760508</ele>
        <time>2016-06-03T12:12:54Z</time>
      </trkpt>
      <trkpt lat="42.87584" lon="2.35093">
        <ele>462.28542</ele>
        <time>2016-06-03T12:12:58Z</time>
      </trkpt>
      <trkpt lat="42.87567" lon="2.3512">
        <ele>463.65051</ele>
        <time>2016-06-03T12:13:01Z</time>
      </trkpt>
      <trkpt lat="42.87541" lon="2.35158">
        <ele>465.370668</ele>
        <time>2016-06-03T12:13:05Z</time>
      </trkpt>
      <trkpt lat="42.87521" lon="2.35185">
        <ele>467.032106</ele>
        <time>2016-06-03T12:13:08Z</time>
      </trkpt>
      <trkpt lat="42.8749" lon="2.35233">
        <ele>467.754397</ele>
        <time>2016-06-03T12:13:12Z</time>
      </trkpt>
      <trkpt lat="42.87459" lon="2.35277">
        <ele>469.572204</ele>
        <time>2016-06-03T12:13:16Z</time>
      </trkpt>
      <trkpt lat="42.87441" lon="2.35301">
        <ele>470.913498</ele>
        <time>2016-06-03T12:13:19Z</time>
      </trkpt>
      <trkpt lat="42.87438" lon="2.35314">
        <ele>471.558226</ele>
        <time>2016-06-03T12:13:21Z</time>
      </trkpt>
      <trkpt lat="42.87441" lon="2.35329">
        <ele>471.696965</ele>
        <time>2016-06-03T12:13:23Z</time>
      </trkpt>
      <trkpt lat="42.87464" lon="2.35333">
        <ele>473.963333</ele>
        <time>2016-06-03T12:13:25Z</time>
      </trkpt>
      <trkpt lat="42.87484" lon="2.35334">
        <ele>474.602196</ele>
        <time>2016-06-03T12:13:27Z</time>
      </trkpt>
      <trkpt lat="42.87501" lon="2.35342">
        <ele>475.256131</ele>
        <time>2016-06-03T12:13:29Z</time>
      </trkpt>
      <trkpt lat="42.87514" lon="2.3536">
        <ele>475.578465</ele>
        <time>2016-06-03T12:13:31Z</time>
      </trkpt>
      <trkpt lat="42.87526" lon="2.35395">
        <ele>477.894694</ele>
        <time>2016-06-03T12:13:34Z</time>
      </trkpt>
      <trkpt lat="42.87545" lon="2.35414">
        <ele>478.935996</ele>
        <time>2016-06-03T12:13:36Z</time>
      </trkpt>
      <trkpt lat="42.87574" lon="2.35434">
        <ele>480.849431</ele>
        <time>2016-06-03T12:13:39Z</time>
      </trkpt>
      <trkpt lat="42.87598" lon="2.35465">
        <ele>482.664923</ele>
        <time>2016-06-03T12:13:42Z</time>
      </trkpt>
      <trkpt lat="42.8761" lon="2.35483">
        <ele>483.729271</ele>
        <time>2016-06-03T12:13:43Z</time>
      </trkpt>
      <trkpt lat="42.87615" lon="2.35507">
        <ele>484.97401</ele>
        <time>2016-06-03T12:13:45Z</time>
      </trkpt>
      <trkpt lat="42.87612" lon="2.35556">
        <ele>486.277257</ele>
        <time>2016-06-03T12:13:49Z</time>
      </trkpt>
      <trkpt lat="42.87613" lon="2.3559">
        <ele>487.78045</ele>
        <time>2016-06-03T12:13:51Z</time>
      </trkpt>
      <trkpt lat="42.87621" lon="2.35642">
        <ele>490.600058</ele>
        <time>2016-06-03T12:13:54Z</time>
      </trkpt>
      <trkpt lat="42.87627" lon="2.35683">
        <ele>491.022049</ele>
        <time>2016-06-03T12:13:57Z</time>
      </trkpt>
      <trkpt lat="42.87639" lon="2.35768">
        <ele>494.327443</ele>
        <time>2016-06-03T12:14:02Z</time>
      </trkpt>
      <trkpt lat="42.87643" lon="2.35798">
        <ele>495.936573</ele>
        <time>2016-06-03T12:14:04Z</time>
      </trkpt>
      <trkpt lat="42.87656" lon="2.35832">
        <ele>496.574557</ele>
        <time>2016-06-03T12:14:06Z</time>
      </trkpt>
      <trkpt lat="42.87685" lon="2.35883">
        <ele>499.618556</ele>
        <time>2016-06-03T12:14:10Z</time>
      </trkpt>
      <trkpt lat="42.87697" lon="2.35898">
        <ele>500.477159</ele>
        <time>2016-06-03T12:14:12Z</time>
      </trkpt>
      <trkpt lat="42.87717" lon="2.35897">
        <ele>502.060937</ele>
        <time>2016-06-03T12:14:14Z</time>
      </trkpt>
      <trkpt lat="42.87741" lon="2.35896">
        <ele>502.743294</ele>
        <time>2016-06-03T12:14:16Z</time>
      </trkpt>
      <trkpt lat="42.87767" lon="2.359">
        <ele>502.167766</ele>
        <time>2016-06-03T12:14:18Z</time>
      </trkpt>
      <trkpt lat="42.8779" lon="2.35892">
        <ele>505.460407</ele>
        <time>2016-06-03T12:14:20Z</time>
      </trkpt>
      <trkpt lat="42.87808" lon="2.35879">
        <ele>506.423051</ele>
        <time>2016-06-03T12:14:22Z</time>
      </trkpt>
      <trkpt lat="42.87829" lon="2.3588">
        <ele>506.828808</ele>
        <time>2016-06-03T12:14:24Z</time>
      </trkpt>
      <trkpt lat="42.87845" lon="2.35898">
        <ele>508.475141</ele>
        <time>2016-06-03T12:14:26Z</time>
      </trkpt>
      <trkpt lat="42.87859" lon="2.35947">
        <ele>511.619545</ele>
        <time>2016-06-03T12:14:29Z</time>
      </trkpt>
      <trkpt lat="42.87868" lon="2.3599">
        <ele>512.692556</ele>
        <time>2016-06-03T12:14:32Z</time>
      </trkpt>
      <trkpt lat="42.87873" lon="2.35997">
        <ele>513.332591</ele>
        <time>2016-06-03T12:14:33Z</time>
      </trkpt>
      <trkpt lat="42.87892" lon="2.36005">
        <ele>513.911458</ele>
        <time>2016-06-03T12:14:35Z</time>
      </trkpt>
      <trkpt lat="42.87908" lon="2.36">
        <ele>515.517509</ele>
        <time>2016-06-03T12:14:37Z</time>
      </trkpt>
      <trkpt lat="42.87922" lon="2.35979">
        <ele>517.019237</ele>
        <time>2016-06-03T12:14:39Z</time>
      </trkpt>
      <trkpt lat="42.87934" lon="2.3598">
        <ele>518.308859</ele>
        <time>2016-06-03T12:14:41Z</time>
      </trkpt>
      <trkpt lat="42.87938" lon="2.35985">
        <ele>518.626283</ele>
        <time>2016-06-03T12:14:42Z</time>
      </trkpt>
      <trkpt lat="42.87938" lon="2.35992">
        <ele>518.987503</ele>
        <time>2016-06-03T12:14:43Z</time>
      </trkpt>
      <trkpt lat="42.87922" lon="2.36021">
        <ele>520.883809</ele>
        <time>2016-06-03T12:14:46Z</time>
      </trkpt>
      <trkpt lat="42.87912" lon="2.36048">
        <ele>522.118699</ele>
        <time>2016-06-03T12:14:48Z</time>
      </trkpt>
      <trkpt lat="42.87912" lon="2.36087">
        <ele>524.008172</ele>
        <time>2016-06-03T12:14:51Z</time>
      </trkpt>
      <trkpt lat="42.87905" lon="2.36106">
        <ele>524.164344</ele>
        <time>2016-06-03T12:14:53Z</time>
      </trkpt>
      <trkpt lat="42.8789" lon="2.36102">
        <ele>526.007267</ele>
        <time>2016-06-03T12:14:55Z</time>
      </trkpt>
      <trkpt lat="42.87863" lon="2.36075">
        <ele>528.665911</ele>
        <time>2016-06-03T12:14:58Z</time>
      </trkpt>
      <trkpt lat="42.87832" lon="2.36051">
        <ele>530.315738</ele>
        <time>2016-06-03T12:15:01Z</time>
      </trkpt>
      <trkpt lat="42.87812" lon="2.36043">
        <ele>531.607384</ele>
        <time>2016-06-03T12:15:03Z</time>
      </trkpt>
      <trkpt lat="42.87802" lon="2.36043">
        <ele>532.034632</ele>
        <time>2016-06-03T12:15:04Z</time>
      </trkpt>
      <trkpt lat="42.87794" lon="2.36048">
        <ele>532.649851</ele>
        <time>2016-06-03T12:15:05Z</time>
      </trkpt>
      <trkpt lat="42.87769" lon="2.36088">
        <ele>535.359509</ele>
        <time>2016-06-03T12:15:08Z</time>
      </trkpt>
      <trkpt lat="42.87741" lon="2.36131">
        <ele>536.691588</ele>
        <time>2016-06-03T12:15:11Z</time>
      </trkpt>
      <trkpt lat="42.87721" lon="2.36176">
        <ele>539.413273</ele>
        <time>2016-06-03T12:15:14Z</time>
      </trkpt>
      <trkpt lat="42.87706" lon="2.36196">
        <ele>539.964147</ele>
        <time>2016-06-03T12:15:16Z</time>
      </trkpt>
      <trkpt lat="42.87688" lon="2.36198">
        <ele>541.19121</ele>
        <time>2016-06-03T12:15:18Z</time>
      </trkpt>
      <trkpt lat="42.87671" lon="2.36196">
        <ele>541.664499</ele>
        <time>2016-06-03T12:15:20Z</time>
      </trkpt>
      <trkpt lat="42.87657" lon="2.36207">
        <ele>543.610015</ele>
        <time>2016-06-03T12:15:22Z</time>
      </trkpt>
      <trkpt lat="42.87647" lon="2.36223">
        <ele>544.178623</ele>
        <time>2016-06-03T12:15:24Z</time>
      </trkpt>
      <trkpt lat="42.87647" lon="2.3624">
        <ele>544.648179</ele>
        <time>2016-06-03T12:15:25Z</time>
      </trkpt>
      <trkpt lat="42.87655" lon="2.36236">
        <ele>545.209603</ele>
        <time>2016-06-03T12:15:26Z</time>
      </trkpt>
      <trkpt lat="42.877" lon="2.36259">
        <ele>546.790685</ele>
        <time>2016-06-03T12:15:29Z</time>
      </trkpt>
      <trkpt lat="42.87726" lon="2.36258">
        <ele>549.538143</ele>
        <time>2016-06-03T12:15:31Z</time>
      </trkpt>
      <trkpt lat="42.87744" lon="2.36249">
        <ele>550.204584</ele>
        <time>2016-06-03T12:15:33Z</time>
      </trkpt>
      <trkpt lat="42.8776" lon="2.36251">
        <ele>551.048443</ele>
        <time>2016-06-03T12:15:35Z</time>
      </trkpt>
      <trkpt lat="42.87767" lon="2.36254">
        <ele>551.241141</ele>
        <time>2016-06-03T12:15:36Z</time>
      </trkpt>
      <trkpt lat="42.87771" lon="2.36285">
        <ele>552.563392</ele>
        <time>2016-06-03T12:15:38Z</time>
      </trkpt>
      <trkpt lat="42.87769" lon="2.36341">
        <ele>554.499479</ele>
        <time>2016-06-03T12:15:41Z</time>
      </trkpt>
      <trkpt lat="42.87764" lon="2.36376">
        <ele>555.132165</ele>
        <time>2016-06-03T12:15:43Z</time>
      </trkpt>
      <trkpt lat="42.87754" lon="2.36404">
        <ele>556.181665</ele>
        <time>2016-06-03T12:15:45Z</time>
      </trkpt>
      <trkpt lat="42.87736" lon="2.36427">
        <ele>557.543114</ele>
        <time>2016-06-03T12:15:47Z</time>
      </trkpt>
      <trkpt lat="42.87713" lon="2.36443">
        <ele>558.100408</ele>
        <time>2016-06-03T12:15:49Z</time>
      </trkpt>
      <trkpt lat="42.87681" lon="2.36449">
        <ele>560.506182</ele>
        <time>2016-06-03T12:15:52Z</time>
      </trkpt>
      <trkpt lat="42.87675" lon="2.36453">
        <ele>560.222127</ele>
        <time>2016-06-03T12:15:53Z</time>
      </trkpt>
      <trkpt lat="42.87669" lon="2.3647">
        <ele>561.30407</ele>
        <time>2016-06-03T12:15:55Z</time>
      </trkpt>
      <trkpt lat="42.87668" lon="2.36479">
        <ele>561.432677</ele>
        <time>2016-06-03T12:15:56Z</time>
      </trkpt>
      <trkpt lat="42.8768" lon="2.36491">
        <ele>561.993668</ele>
        <time>2016-06-03T12:15:58Z</time>
      </trkpt>
      <trkpt lat="42.87684" lon="2.36494">
        <ele>562.746898</ele>
        <time>2016-06-03T12:15:59Z</time>
      </trkpt>
      <trkpt lat="42.87709" lon="2.36488">
        <ele>564.592368</ele>
        <time>2016-06-03T12:16:01Z</time>
      </trkpt>
      <trkpt lat="42.8773" lon="2.36489">
        <ele>565.420127</ele>
        <time>2016-06-03T12:16:03Z</time>
      </trkpt>
      <trkpt lat="42.8775" lon="2.36504">
        <ele>566.751854</ele>
        <time>2016-06-03T12:16:05Z</time>
      </trkpt>
      <trkpt lat="42.87764" lon="2.36562">
        <ele>569.54063</ele>
        <time>2016-06-03T12:16:08Z</time>
      </trkpt>
      <trkpt lat="42.87787" lon="2.36648">
        <ele>571.895314</ele>
        <time>2016-06-03T12:16:12Z</time>
      </trkpt>
      <trkpt lat="42.87796" lon="2.36712">
        <ele>576.295299</ele>
        <time>2016-06-03T12:16:15Z</time>
      </trkpt>
      <trkpt lat="42.87799" lon="2.36751">
        <ele>576.971337</ele>
        <time>2016-06-03T12:16:17Z</time>
      </trkpt>
      <trkpt lat="42.87797" lon="2.36787">
        <ele>578.079233</ele>
        <time>2016-06-03T12:16:19Z</time>
      </trkpt>
      <trkpt lat="42.87801" lon="2.36814">
        <ele>577.992794</ele>
        <time>2016-06-03T12:16:21Z</time>
      </trkpt>
      <trkpt lat="42.87809" lon="2.36833">
        <ele>579.894737</ele>
        <time>2016-06-03T12:16:23Z</time>
      </trkpt>
      <trkpt lat="42.87813" lon="2.36838">
        <ele>579.990177</ele>
        <time>2016-06-03T12:16:24Z</time>
      </trkpt>
      <trkpt lat="42.87829" lon="2.36831">
        <ele>582.035235</ele>
        <time>2016-06-03T12:16:26Z</time>
      </trkpt>
      <trkpt lat="42.87847" lon="2.36817">
        <ele>583.254559</ele>
        <time>2016-06-03T12:16:28Z</time>
      </trkpt>
      <trkpt lat="42.87868" lon="2.36818">
        <ele>584.862727</ele>
        <time>2016-06-03T12:16:30Z</time>
      </trkpt>
      <trkpt lat="42.87891" lon="2.36828">
        <ele>585.879592</ele>
        <time>2016-06-03T12:16:32Z</time>
      </trkpt>
      <trkpt lat="42.87903" lon="2.36845">
        <ele>586.736635</ele>
        <time>2016-06-03T12:16:34Z</time>
      </trkpt>
      <trkpt lat="42.87906" lon="2.36855">
        <ele>587.532811</ele>
        <time>2016-06-03T12:16:35Z</time>
      </trkpt>
      <trkpt lat="42.87894" lon="2.36914">
        <ele>590.354567</ele>
        <time>2016-06-03T12:16:38Z</time>
      </trkpt>
      <trkpt lat="42.87884" lon="2.36979">
        <ele>591.574917</ele>
        <time>2016-06-03T12:16:41Z</time>
      </trkpt>
      <trkpt lat="42.8787" lon="2.37041">
        <ele>594.91776</ele>
        <time>2016-06-03T12:16:45Z</time>
      </trkpt>
      <trkpt lat="42.87855" lon="2.37063">
        <ele>595.56207</ele>
        <time>2016-06-03T12:16:47Z</time>
      </trkpt>
      <trkpt lat="42.87849" lon="2.37085">
        <ele>596.633702</ele>
        <time>2016-06-03T12:16:49Z</time>
      </trkpt>
      <trkpt lat="42.87853" lon="2.37112">
        <ele>597.500742</ele>
        <time>2016-06-03T12:16:51Z</time>
      </trkpt>
      <trkpt lat="42.87872" lon="2.37153">
        <ele>598.125833</ele>
        <time>2016-06-03T12:16:54Z</time>
      </trkpt>
      <trkpt lat="42.87873" lon="2.37241">
        <ele>602.199204</ele>
        <time>2016-06-03T12:16:58Z</time>
      </trkpt>
      <trkpt lat="42.87874" lon="2.37305">
        <ele>604.50785</ele>
        <time>2016-06-03T12:17:01Z</time>
      </trkpt>
      <trkpt lat="42.87873" lon="2.37347">
        <ele>607.469832</ele>
        <time>2016-06-03T12:17:03Z</time>
      </trkpt>
      <trkpt lat="42.8788" lon="2.37414">
        <ele>608.505146</ele>
        <time>2016-06-03T12:17:06Z</time>
      </trkpt>
      <trkpt lat="42.87882" lon="2.37449">
        <ele>610.18903</ele>
        <time>2016-06-03T12:17:08Z</time>
      </trkpt>
      <trkpt lat="42.87862" lon="2.37487">
        <ele>611.144481</ele>
        <time>2016-06-03T12:17:11Z</time>
      </trkpt>
      <trkpt lat="42.87856" lon="2.37499">
        <ele>611.602287</ele>
        <time>2016-06-03T12:17:12Z</time>
      </trkpt>
      <trkpt lat="42.87856" lon="2.37531">
        <ele>613.113992</ele>
        <time>2016-06-03T12:17:14Z</time>
      </trkpt>
      <trkpt lat="42.87872" lon="2.37609">
        <ele>617.062888</ele>
        <time>2016-06-03T12:17:17Z</time>
      </trkpt>
      <trkpt lat="42.87887" lon="2.3772">
        <ele>620.893045</ele>
        <time>2016-06-03T12:17:21Z</time>
      </trkpt>
      <trkpt lat="42.87891" lon="2.37773">
        <ele>622.493541</ele>
        <time>2016-06-03T12:17:23Z</time>
      </trkpt>
      <trkpt lat="42.87901" lon="2.37823">
        <ele>623.831504</ele>
        <time>2016-06-03T12:17:25Z</time>
      </trkpt>
      <trkpt lat="42.87924" lon="2.37897">
        <ele>625.227712</ele>
        <time>2016-06-03T12:17:28Z</time>
      </trkpt>
      <trkpt lat="42.87941" lon="2.37983">
        <ele>628.828157</ele>
        <time>2016-06-03T12:17:32Z</time>
      </trkpt>
      <trkpt lat="42.87943" lon="2.38014">
        <ele>629.198615</ele>
        <time>2016-06-03T12:17:34Z</time>
      </trkpt>
      <trkpt lat="42.8794" lon="2.38027">
        <ele>630.271662</ele>
        <time>2016-06-03T12:17:35Z</time>
      </trkpt>
      <trkpt lat="42.87924" lon="2.38045">
        <ele>630.537208</ele>
        <time>2016-06-03T12:17:37Z</time>
      </trkpt>
      <trkpt lat="42.87917" lon="2.38074">
        <ele>632.681234</ele>
        <time>2016-06-03T12:17:39Z</time>
      </trkpt>
      <trkpt lat="42.87907" lon="2.38098">
        <ele>632.717471</ele>
        <time>2016-06-03T12:17:41Z</time>
      </trkpt>
      <trkpt lat="42.87895" lon="2.38113">
        <ele>633.753133</ele>
        <time>2016-06-03T12:17:43Z</time>
      </trkpt>
      <trkpt lat="42.8788" lon="2.38128">
        <ele>634.067049</ele>
        <time>2016-06-03T12:17:45Z</time>
      </trkpt>
      <trkpt lat="42.87875" lon="2.38136">
        <ele>634.712596</ele>
        <time>2016-06-03T12:17:46Z</time>
      </trkpt>
      <trkpt lat="42.87876" lon="2.3819">
        <ele>637.880148</ele>
        <time>2016-06-03T12:17:49Z</time>
      </trkpt>
      <trkpt lat="42.87893" lon="2.38284">
        <ele>641.836436</ele>
        <time>2016-06-03T12:17:53Z</time>
      </trkpt>
      <trkpt lat="42.87911" lon="2.38352">
        <ele>644.18298</ele>
        <time>2016-06-03T12:17:56Z</time>
      </trkpt>
      <trkpt lat="42.87919" lon="2.38386">
        <ele>644.319916</ele>
        <time>2016-06-03T12:17:58Z</time>
      </trkpt>
      <trkpt lat="42.87919" lon="2.38412">
        <ele>645.679501</ele>
        <time>2016-06-03T12:18:00Z</time>
      </trkpt>
      <trkpt lat="42.87914" lon="2.38422">
        <ele>646.381098</ele>
        <time>2016-06-03T12:18:01Z</time>
      </trkpt>
      <trkpt lat="42.87898" lon="2.38432">
        <ele>648.915831</ele>
        <time>2016-06-03T12:18:03Z</time>
      </trkpt>
      <trkpt lat="42.87878" lon="2.38434">
        <ele>650.452241</ele>
        <time>2016-06-03T12:18:05Z</time>
      </trkpt>
      <trkpt lat="42.87865" lon="2.38446">
        <ele>651.487486</ele>
        <time>2016-06-03T12:18:07Z</time>
      </trkpt>
      <trkpt lat="42.87854" lon="2.38477">
        <ele>653.239697</ele>
        <time>2016-06-03T12:18:09Z</time>
      </trkpt>
      <trkpt lat="42.87873" lon="2.385">
        <ele>653.8389</ele>
        <time>2016-06-03T12:18:10Z</time>
      </trkpt>
      <trkpt lat="42.87888" lon="2.38551">
        <ele>654.345986</ele>
        <time>2016-06-03T12:18:13Z</time>
      </trkpt>
      <trkpt lat="42.87901" lon="2.3861">
        <ele>655.554712</ele>
        <time>2016-06-03T12:18:16Z</time>
      </trkpt>
      <trkpt lat="42.87908" lon="2.3865">
        <ele>656.146803</ele>
        <time>2016-06-03T12:18:18Z</time>
      </trkpt>
      <trkpt lat="42.87907" lon="2.3869">
        <ele>655.121785</ele>
        <time>2016-06-03T12:18:20Z</time>
      </trkpt>
      <trkpt lat="42.879" lon="2.38728">
        <ele>655.291788</ele>
        <time>2016-06-03T12:18:22Z</time>
      </trkpt>
      <trkpt lat="42.87898" lon="2.38769">
        <ele>655.899262</ele>
        <time>2016-06-03T12:18:24Z</time>
      </trkpt>
      <trkpt lat="42.87905" lon="2.38833">
        <ele>655.401888</ele>
        <time>2016-06-03T12:18:27Z</time>
      </trkpt>
      <trkpt lat="42.87913" lon="2.38891">
        <ele>654.655236</ele>
        <time>2016-06-03T12:18:30Z</time>
      </trkpt>
      <trkpt lat="42.87912" lon="2.38925">
        <ele>653.670027</ele>
        <time>2016-06-03T12:18:32Z</time>
      </trkpt>
      <trkpt lat="42.87899" lon="2.38947">
        <ele>653.414731</ele>
        <time>2016-06-03T12:18:34Z</time>
      </trkpt>
      <trkpt lat="42.87882" lon="2.38966">
        <ele>652.951384</ele>
        <time>2016-06-03T12:18:36Z</time>
      </trkpt>
      <trkpt lat="42.8786" lon="2.38973">
        <ele>652.73301</ele>
        <time>2016-06-03T12:18:38Z</time>
      </trkpt>
      <trkpt lat="42.87839" lon="2.38992">
        <ele>652.527971</ele>
        <time>2016-06-03T12:18:40Z</time>
      </trkpt>
      <trkpt lat="42.87827" lon="2.3902">
        <ele>652.093537</ele>
        <time>2016-06-03T12:18:42Z</time>
      </trkpt>
      <trkpt lat="42.87824" lon="2.3906">
        <ele>651.985753</ele>
        <time>2016-06-03T12:18:44Z</time>
      </trkpt>
      <trkpt lat="42.87826" lon="2.39155">
        <ele>650.864127</ele>
        <time>2016-06-03T12:18:48Z</time>
      </trkpt>
      <trkpt lat="42.87826" lon="2.39251">
        <ele>650.091755</ele>
        <time>2016-06-03T12:18:52Z</time>
      </trkpt>
      <trkpt lat="42.87831" lon="2.39323">
        <ele>649.73234</ele>
        <time>2016-06-03T12:18:55Z</time>
      </trkpt>
      <trkpt lat="42.87843" lon="2.39392">
        <ele>647.446168</ele>
        <time>2016-06-03T12:18:58Z</time>
      </trkpt>
      <trkpt lat="42.8785" lon="2.39452">
        <ele>648.007888</ele>
        <time>2016-06-03T12:19:01Z</time>
      </trkpt>
      <trkpt lat="42.87843" lon="2.39516">
        <ele>647.58998</ele>
        <time>2016-06-03T12:19:04Z</time>
      </trkpt>
      <trkpt lat="42.87841" lon="2.39558">
        <ele>647.394225</ele>
        <time>2016-06-03T12:19:06Z</time>
      </trkpt>
      <trkpt lat="42.87842" lon="2.39597">
        <ele>646.492482</ele>
        <time>2016-06-03T12:19:08Z</time>
      </trkpt>
      <trkpt lat="42.87836" lon="2.39629">
        <ele>645.032591</ele>
        <time>2016-06-03T12:19:10Z</time>
      </trkpt>
      <trkpt lat="42.87831" lon="2.39657">
        <ele>645.2271</ele>
        <time>2016-06-03T12:19:12Z</time>
      </trkpt>
      <trkpt lat="42.87829" lon="2.39671">
        <ele>645.219844</ele>
        <time>2016-06-03T12:19:13Z</time>
      </trkpt>
      <trkpt lat="42.87848" lon="2.3972">
        <ele>644.185781</ele>
        <time>2016-06-03T12:19:16Z</time>
      </trkpt>
      <trkpt lat="42.87855" lon="2.39749">
        <ele>644.241225</ele>
        <time>2016-06-03T12:19:18Z</time>
      </trkpt>
      <trkpt lat="42.87844" lon="2.39778">
        <ele>644.856849</ele>
        <time>2016-06-03T12:19:20Z</time>
      </trkpt>
      <trkpt lat="42.87825" lon="2.39798">
        <ele>644.604694</ele>
        <time>2016-06-03T12:19:22Z</time>
      </trkpt>
      <trkpt lat="42.87789" lon="2.39814">
        <ele>644.31185</ele>
        <time>2016-06-03T12:19:25Z</time>
      </trkpt>
      <trkpt lat="42.87744" lon="2.39788">
        <ele>644.438276</ele>
        <time>2016-06-03T12:19:28Z</time>
      </trkpt>
      <trkpt lat="42.87721" lon="2.39772">
        <ele>643.361576</ele>
        <time>2016-06-03T12:19:30Z</time>
      </trkpt>
      <trkpt lat="42.87696" lon="2.39774">
        <ele>643.776116</ele>
        <time>2016-06-03T12:19:32Z</time>
      </trkpt>
      <trkpt lat="42.87651" lon="2.3979">
        <ele>643.169595</ele>
        <time>2016-06-03T12:19:35Z</time>
      </trkpt>
      <trkpt lat="42.87608" lon="2.39817">
        <ele>642.683532</ele>
        <time>2016-06-03T12:19:38Z</time>
      </trkpt>
      <trkpt lat="42.87573" lon="2.39856">
        <ele>642.067807</ele>
        <time>2016-06-03T12:19:41Z</time>
      </trkpt>
      <trkpt lat="42.87547" lon="2.39877">
        <ele>640.218201</ele>
        <time>2016-06-03T12:19:43Z</time>
      </trkpt>
      <trkpt lat="42.87519" lon="2.39897">
        <ele>641.251401</ele>
        <time>2016-06-03T12:19:45Z</time>
      </trkpt>
      <trkpt lat="42.87464" lon="2.39967">
        <ele>639.122626</ele>
        <time>2016-06-03T12:19:50Z</time>
      </trkpt>
      <trkpt lat="42.87437" lon="2.40019">
        <ele>637.379476</ele>
        <time>2016-06-03T12:19:53Z</time>
      </trkpt>
      <trkpt lat="42.87417" lon="2.40068">
        <ele>634.663302</ele>
        <time>2016-06-03T12:19:56Z</time>
      </trkpt>
      <trkpt lat="42.87407" lon="2.40104">
        <ele>632.876738</ele>
        <time>2016-06-03T12:19:58Z</time>
      </trkpt>
      <trkpt lat="42.87408" lon="2.40136">
        <ele>631.802607</ele>
        <time>2016-06-03T12:20:00Z</time>
      </trkpt>
      <trkpt lat="42.87425" lon="2.40191">
        <ele>629.935239</ele>
        <time>2016-06-03T12:20:03Z</time>
      </trkpt>
      <trkpt lat="42.87431" lon="2.40226">
        <ele>628.606792</ele>
        <time>2016-06-03T12:20:05Z</time>
      </trkpt>
      <trkpt lat="42.87431" lon="2.40243">
        <ele>628.512498</ele>
        <time>2016-06-03T12:20:06Z</time>
      </trkpt>
      <trkpt lat="42.87423" lon="2.40274">
        <ele>625.284225</ele>
        <time>2016-06-03T12:20:08Z</time>
      </trkpt>
      <trkpt lat="42.87424" lon="2.4031">
        <ele>625.075475</ele>
        <time>2016-06-03T12:20:10Z</time>
      </trkpt>
      <trkpt lat="42.87428" lon="2.40371">
        <ele>622.59463</ele>
        <time>2016-06-03T12:20:13Z</time>
      </trkpt>
      <trkpt lat="42.87428" lon="2.40432">
        <ele>620.456174</ele>
        <time>2016-06-03T12:20:16Z</time>
      </trkpt>
      <trkpt lat="42.87426" lon="2.40465">
        <ele>618.750132</ele>
        <time>2016-06-03T12:20:18Z</time>
      </trkpt>
      <trkpt lat="42.87393" lon="2.40508">
        <ele>616.175241</ele>
        <time>2016-06-03T12:20:21Z</time>
      </trkpt>
      <trkpt lat="42.87382" lon="2.40519">
        <ele>614.779465</ele>
        <time>2016-06-03T12:20:22Z</time>
      </trkpt>
      <trkpt lat="42.87364" lon="2.40522">
        <ele>613.151283</ele>
        <time>2016-06-03T12:20:23Z</time>
      </trkpt>
      <trkpt lat="42.87354" lon="2.40531">
        <ele>613.843288</ele>
        <time>2016-06-03T12:20:24Z</time>
      </trkpt>
      <trkpt lat="42.87323" lon="2.40598">
        <ele>610.771824</ele>
        <time>2016-06-03T12:20:28Z</time>
      </trkpt>
      <trkpt lat="42.873" lon="2.40646">
        <ele>608.674971</ele>
        <time>2016-06-03T12:20:31Z</time>
      </trkpt>
      <trkpt lat="42.87286" lon="2.40667">
        <ele>607.081397</ele>
        <time>2016-06-03T12:20:33Z</time>
      </trkpt>
      <trkpt lat="42.87272" lon="2.4068">
        <ele>606.890068</ele>
        <time>2016-06-03T12:20:35Z</time>
      </trkpt>
      <trkpt lat="42.87249" lon="2.40675">
        <ele>605.46187</ele>
        <time>2016-06-03T12:20:37Z</time>
      </trkpt>
      <trkpt lat="42.87231" lon="2.40692">
        <ele>603.777458</ele>
        <time>2016-06-03T12:20:39Z</time>
      </trkpt>
      <trkpt lat="42.87222" lon="2.40713">
        <ele>602.591358</ele>
        <time>2016-06-03T12:20:41Z</time>
      </trkpt>
      <trkpt lat="42.8722" lon="2.40753">
        <ele>600.896868</ele>
        <time>2016-06-03T12:20:44Z</time>
      </trkpt>
      <trkpt lat="42.87225" lon="2.40778">
        <ele>600.168998</ele>
        <time>2016-06-03T12:20:46Z</time>
      </trkpt>
      <trkpt lat="42.87237" lon="2.40809">
        <ele>599.319778</ele>
        <time>2016-06-03T12:20:48Z</time>
      </trkpt>
      <trkpt lat="42.87257" lon="2.40874">
        <ele>595.688817</ele>
        <time>2016-06-03T12:20:52Z</time>
      </trkpt>
      <trkpt lat="42.87261" lon="2.40887">
        <ele>594.894118</ele>
        <time>2016-06-03T12:20:52Z</time>
      </trkpt>
      <trkpt lat="42.87259" lon="2.409">
        <ele>594.162707</ele>
        <time>2016-06-03T12:20:54Z</time>
      </trkpt>
      <trkpt lat="42.87263" lon="2.4091">
        <ele>593.174291</ele>
        <time>2016-06-03T12:20:55Z</time>
      </trkpt>
      <trkpt lat="42.87258" lon="2.40937">
        <ele>591.519631</ele>
        <time>2016-06-03T12:20:57Z</time>
      </trkpt>
      <trkpt lat="42.87235" lon="2.40964">
        <ele>589.936503</ele>
        <time>2016-06-03T12:20:59Z</time>
      </trkpt>
      <trkpt lat="42.87217" lon="2.40991">
        <ele>588.717111</ele>
        <time>2016-06-03T12:21:01Z</time>
      </trkpt>
      <trkpt lat="42.87209" lon="2.41008">
        <ele>587.845297</ele>
        <time>2016-06-03T12:21:02Z</time>
      </trkpt>
      <trkpt lat="42.87205" lon="2.41043">
        <ele>587.170051</ele>
        <time>2016-06-03T12:21:04Z</time>
      </trkpt>
      <trkpt lat="42.87187" lon="2.41098">
        <ele>585.01795</ele>
        <time>2016-06-03T12:21:07Z</time>
      </trkpt>
      <trkpt lat="42.87181" lon="2.4113">
        <ele>583.445356</ele>
        <time>2016-06-03T12:21:09Z</time>
      </trkpt>
      <trkpt lat="42.87183" lon="2.4116">
        <ele>581.647936</ele>
        <time>2016-06-03T12:21:11Z</time>
      </trkpt>
      <trkpt lat="42.87187" lon="2.41192">
        <ele>580.42017</ele>
        <time>2016-06-03T12:21:13Z</time>
      </trkpt>
      <trkpt lat="42.87178" lon="2.41279">
        <ele>576.23205</ele>
        <time>2016-06-03T12:21:18Z</time>
      </trkpt>
      <trkpt lat="42.87166" lon="2.41317">
        <ele>574.45176</ele>
        <time>2016-06-03T12:21:20Z</time>
      </trkpt>
      <trkpt lat="42.87142" lon="2.41357">
        <ele>571.80132</ele>
        <time>2016-06-03T12:21:23Z</time>
      </trkpt>
      <trkpt lat="42.87135" lon="2.4137">
        <ele>571.20943</ele>
        <time>2016-06-03T12:21:24Z</time>
      </trkpt>
      <trkpt lat="42.87132" lon="2.41398">
        <ele>569.970247</ele>
        <time>2016-06-03T12:21:26Z</time>
      </trkpt>
      <trkpt lat="42.87136" lon="2.41423">
        <ele>568.907795</ele>
        <time>2016-06-03T12:21:28Z</time>
      </trkpt>
      <trkpt lat="42.87132" lon="2.41445">
        <ele>567.578303</ele>
        <time>2016-06-03T12:21:30Z</time>
      </trkpt>
      <trkpt lat="42.87116" lon="2.41468">
        <ele>566.083305</ele>
        <time>2016-06-03T12:21:33Z</time>
      </trkpt>
      <trkpt lat="42.87084" lon="2.41473">
        <ele>564.679747</ele>
        <time>2016-06-03T12:21:35Z</time>
      </trkpt>
      <trkpt lat="42.87049" lon="2.41502">
        <ele>563.659539</ele>
        <time>2016-06-03T12:21:38Z</time>
      </trkpt>
      <trkpt lat="42.87036" lon="2.41539">
        <ele>562.094349</ele>
        <time>2016-06-03T12:21:40Z</time>
      </trkpt>
      <trkpt lat="42.87018" lon="2.41571">
        <ele>561.40038</ele>
        <time>2016-06-03T12:21:42Z</time>
      </trkpt>
      <trkpt lat="42.86993" lon="2.41596">
        <ele>556.802063</ele>
        <time>2016-06-03T12:21:44Z</time>
      </trkpt>
      <trkpt lat="42.86939" lon="2.41624">
        <ele>555.815321</ele>
        <time>2016-06-03T12:21:47Z</time>
      </trkpt>
      <trkpt lat="42.8691" lon="2.41661">
        <ele>552.642987</ele>
        <time>2016-06-03T12:21:50Z</time>
      </trkpt>
      <trkpt lat="42.86894" lon="2.41688">
        <ele>551.48694</ele>
        <time>2016-06-03T12:21:52Z</time>
      </trkpt>
      <trkpt lat="42.86883" lon="2.41749">
        <ele>547.461207</ele>
        <time>2016-06-03T12:21:55Z</time>
      </trkpt>
      <trkpt lat="42.86885" lon="2.4178">
        <ele>546.918244</ele>
        <time>2016-06-03T12:21:57Z</time>
      </trkpt>
      <trkpt lat="42.86884" lon="2.41808">
        <ele>544.793257</ele>
        <time>2016-06-03T12:21:59Z</time>
      </trkpt>
      <trkpt lat="42.8688" lon="2.41829">
        <ele>544.883604</ele>
        <time>2016-06-03T12:22:01Z</time>
      </trkpt>
      <trkpt lat="42.86867" lon="2.41839">
        <ele>544.1779</ele>
        <time>2016-06-03T12:22:02Z</time>
      </trkpt>
      <trkpt lat="42.86856" lon="2.41865">
        <ele>543.45837</ele>
        <time>2016-06-03T12:22:04Z</time>
      </trkpt>
      <trkpt lat="42.86851" lon="2.41907">
        <ele>542.020224</ele>
        <time>2016-06-03T12:22:06Z</time>
      </trkpt>
      <trkpt lat="42.86829" lon="2.41964">
        <ele>538.414149</ele>
        <time>2016-06-03T12:22:09Z</time>
      </trkpt>
      <trkpt lat="42.86812" lon="2.4202">
        <ele>536.602425</ele>
        <time>2016-06-03T12:22:12Z</time>
      </trkpt>
      <trkpt lat="42.868" lon="2.42056">
        <ele>534.058585</ele>
        <time>2016-06-03T12:22:14Z</time>
      </trkpt>
      <trkpt lat="42.86782" lon="2.42084">
        <ele>532.136689</ele>
        <time>2016-06-03T12:22:16Z</time>
      </trkpt>
      <trkpt lat="42.86742" lon="2.42123">
        <ele>529.933993</ele>
        <time>2016-06-03T12:22:19Z</time>
      </trkpt>
      <trkpt lat="42.86719" lon="2.42152">
        <ele>528.953842</ele>
        <time>2016-06-03T12:22:21Z</time>
      </trkpt>
      <trkpt lat="42.86692" lon="2.42199">
        <ele>526.362064</ele>
        <time>2016-06-03T12:22:24Z</time>
      </trkpt>
      <trkpt lat="42.86671" lon="2.42223">
        <ele>524.6026</ele>
        <time>2016-06-03T12:22:26Z</time>
      </trkpt>
      <trkpt lat="42.86641" lon="2.42244">
        <ele>521.484404</ele>
        <time>2016-06-03T12:22:28Z</time>
      </trkpt>
      <trkpt lat="42.86595" lon="2.42292">
        <ele>520.891526</ele>
        <time>2016-06-03T12:22:31Z</time>
      </trkpt>
      <trkpt lat="42.8655" lon="2.42344">
        <ele>519.288237</ele>
        <time>2016-06-03T12:22:34Z</time>
      </trkpt>
      <trkpt lat="42.86511" lon="2.42387">
        <ele>513.464408</ele>
        <time>2016-06-03T12:22:37Z</time>
      </trkpt>
      <trkpt lat="42.86488" lon="2.42418">
        <ele>510.798973</ele>
        <time>2016-06-03T12:22:39Z</time>
      </trkpt>
      <trkpt lat="42.86472" lon="2.42452">
        <ele>510.003515</ele>
        <time>2016-06-03T12:22:41Z</time>
      </trkpt>
      <trkpt lat="42.86461" lon="2.4249">
        <ele>508.3394</ele>
        <time>2016-06-03T12:22:43Z</time>
      </trkpt>
      <trkpt lat="42.86445" lon="2.4252">
        <ele>505.797719</ele>
        <time>2016-06-03T12:22:45Z</time>
      </trkpt>
      <trkpt lat="42.86414" lon="2.42569">
        <ele>503.627777</ele>
        <time>2016-06-03T12:22:48Z</time>
      </trkpt>
      <trkpt lat="42.86369" lon="2.42624">
        <ele>498.431665</ele>
        <time>2016-06-03T12:22:52Z</time>
      </trkpt>
      <trkpt lat="42.86347" lon="2.42651">
        <ele>496.454091</ele>
        <time>2016-06-03T12:22:54Z</time>
      </trkpt>
      <trkpt lat="42.86332" lon="2.42677">
        <ele>495.193388</ele>
        <time>2016-06-03T12:22:56Z</time>
      </trkpt>
      <trkpt lat="42.86323" lon="2.42735">
        <ele>493.712857</ele>
        <time>2016-06-03T12:22:59Z</time>
      </trkpt>
      <trkpt lat="42.86321" lon="2.42751">
        <ele>492.462099</ele>
        <time>2016-06-03T12:23:00Z</time>
      </trkpt>
      <trkpt lat="42.86329" lon="2.42783">
        <ele>490.473897</ele>
        <time>2016-06-03T12:23:03Z</time>
      </trkpt>
      <trkpt lat="42.8634" lon="2.42792">
        <ele>488.844337</ele>
        <time>2016-06-03T12:23:05Z</time>
      </trkpt>
      <trkpt lat="42.86354" lon="2.4279">
        <ele>488.680341</ele>
        <time>2016-06-03T12:23:06Z</time>
      </trkpt>
      <trkpt lat="42.86364" lon="2.42796">
        <ele>487.680047</ele>
        <time>2016-06-03T12:23:07Z</time>
      </trkpt>
      <trkpt lat="42.86375" lon="2.42816">
        <ele>486.843687</ele>
        <time>2016-06-03T12:23:09Z</time>
      </trkpt>
      <trkpt lat="42.86372" lon="2.42837">
        <ele>485.986008</ele>
        <time>2016-06-03T12:23:11Z</time>
      </trkpt>
      <trkpt lat="42.86361" lon="2.42854">
        <ele>485.378791</ele>
        <time>2016-06-03T12:23:13Z</time>
      </trkpt>
      <trkpt lat="42.86345" lon="2.42863">
        <ele>485.207749</ele>
        <time>2016-06-03T12:23:15Z</time>
      </trkpt>
      <trkpt lat="42.8631" lon="2.42884">
        <ele>484.267459</ele>
        <time>2016-06-03T12:23:18Z</time>
      </trkpt>
      <trkpt lat="42.86288" lon="2.42903">
        <ele>483.616143</ele>
        <time>2016-06-03T12:23:20Z</time>
      </trkpt>
      <trkpt lat="42.86274" lon="2.42931">
        <ele>483.207793</ele>
        <time>2016-06-03T12:23:22Z</time>
      </trkpt>
      <trkpt lat="42.86263" lon="2.42969">
        <ele>482.092238</ele>
        <time>2016-06-03T12:23:24Z</time>
      </trkpt>
      <trkpt lat="42.86265" lon="2.43006">
        <ele>481.613788</ele>
        <time>2016-06-03T12:23:26Z</time>
      </trkpt>
      <trkpt lat="42.86262" lon="2.43079">
        <ele>482.178112</ele>
        <time>2016-06-03T12:23:29Z</time>
      </trkpt>
      <trkpt lat="42.86259" lon="2.43123">
        <ele>482.349544</ele>
        <time>2016-06-03T12:23:31Z</time>
      </trkpt>
      <trkpt lat="42.86264" lon="2.43218">
        <ele>482.225026</ele>
        <time>2016-06-03T12:23:35Z</time>
      </trkpt>
      <trkpt lat="42.86263" lon="2.43295">
        <ele>482.446723</ele>
        <time>2016-06-03T12:23:38Z</time>
      </trkpt>
      <trkpt lat="42.86261" lon="2.43374">
        <ele>481.280208</ele>
        <time>2016-06-03T12:23:41Z</time>
      </trkpt>
      <trkpt lat="42.86255" lon="2.43468">
        <ele>480.50378</ele>
        <time>2016-06-03T12:23:45Z</time>
      </trkpt>
      <trkpt lat="42.86225" lon="2.43581">
        <ele>479.183404</ele>
        <time>2016-06-03T12:23:50Z</time>
      </trkpt>
      <trkpt lat="42.86212" lon="2.43638">
        <ele>476.066639</ele>
        <time>2016-06-03T12:23:53Z</time>
      </trkpt>
      <trkpt lat="42.862" lon="2.43713">
        <ele>475.08196</ele>
        <time>2016-06-03T12:23:57Z</time>
      </trkpt>
      <trkpt lat="42.86195" lon="2.43756">
        <ele>472.243594</ele>
        <time>2016-06-03T12:24:01Z</time>
      </trkpt>
      <trkpt lat="42.86194" lon="2.43769">
        <ele>472.083241</ele>
        <time>2016-06-03T12:24:04Z</time>
      </trkpt>
      <trkpt lat="42.86195" lon="2.43771">
        <ele>472.144109</ele>
        <time>2016-06-03T12:24:14Z</time>
      </trkpt>
      <trkpt lat="42.86196" lon="2.43775">
        <ele>471.941293</ele>
        <time>2016-06-03T12:24:27Z</time>
      </trkpt>
      <trkpt lat="42.86198" lon="2.43801">
        <ele>470.982583</ele>
        <time>2016-06-03T12:24:31Z</time>
      </trkpt>
      <trkpt lat="42.86199" lon="2.43844">
        <ele>470.669479</ele>
        <time>2016-06-03T12:24:34Z</time>
      </trkpt>
      <trkpt lat="42.86199" lon="2.43878">
        <ele>470.295836</ele>
        <time>2016-06-03T12:24:36Z</time>
      </trkpt>
      <trkpt lat="42.8621" lon="2.43933">
        <ele>469.455961</ele>
        <time>2016-06-03T12:24:39Z</time>
      </trkpt>
      <trkpt lat="42.86225" lon="2.43979">
        <ele>469.139368</ele>
        <time>2016-06-03T12:24:42Z</time>
      </trkpt>
      <trkpt lat="42.86227" lon="2.44002">
        <ele>468.457947</ele>
        <time>2016-06-03T12:24:44Z</time>
      </trkpt>
      <trkpt lat="42.86219" lon="2.44021">
        <ele>468.497802</ele>
        <time>2016-06-03T12:24:46Z</time>
      </trkpt>
      <trkpt lat="42.86194" lon="2.44057">
        <ele>468.234844</ele>
        <time>2016-06-03T12:24:49Z</time>
      </trkpt>
      <trkpt lat="42.8618" lon="2.44086">
        <ele>467.717894</ele>
        <time>2016-06-03T12:24:51Z</time>
      </trkpt>
      <trkpt lat="42.86174" lon="2.44141">
        <ele>467.97229</ele>
        <time>2016-06-03T12:24:54Z</time>
      </trkpt>
      <trkpt lat="42.86172" lon="2.44204">
        <ele>467.025807</ele>
        <time>2016-06-03T12:24:57Z</time>
      </trkpt>
      <trkpt lat="42.86168" lon="2.4427">
        <ele>467.61926</ele>
        <time>2016-06-03T12:25:00Z</time>
      </trkpt>
      <trkpt lat="42.86155" lon="2.44354">
        <ele>467.301682</ele>
        <time>2016-06-03T12:25:04Z</time>
      </trkpt>
      <trkpt lat="42.86147" lon="2.444">
        <ele>466.887357</ele>
        <time>2016-06-03T12:25:07Z</time>
      </trkpt>
      <trkpt lat="42.8615" lon="2.44419">
        <ele>467.304001</ele>
        <time>2016-06-03T12:25:09Z</time>
      </trkpt>
      <trkpt lat="42.86185" lon="2.44423">
        <ele>469.025071</ele>
        <time>2016-06-03T12:25:12Z</time>
      </trkpt>
      <trkpt lat="42.8622" lon="2.44417">
        <ele>470.067513</ele>
        <time>2016-06-03T12:25:15Z</time>
      </trkpt>
      <trkpt lat="42.8623" lon="2.44417">
        <ele>469.636092</ele>
        <time>2016-06-03T12:25:16Z</time>
      </trkpt>
      <trkpt lat="42.86239" lon="2.44436">
        <ele>469.862525</ele>
        <time>2016-06-03T12:25:18Z</time>
      </trkpt>
      <trkpt lat="42.86239" lon="2.44456">
        <ele>470.531122</ele>
        <time>2016-06-03T12:25:20Z</time>
      </trkpt>
      <trkpt lat="42.86228" lon="2.44475">
        <ele>471.377065</ele>
        <time>2016-06-03T12:25:22Z</time>
      </trkpt>
      <trkpt lat="42.86212" lon="2.44492">
        <ele>473.51785</ele>
        <time>2016-06-03T12:25:24Z</time>
      </trkpt>
      <trkpt lat="42.86184" lon="2.44525">
        <ele>475.725713</ele>
        <time>2016-06-03T12:25:27Z</time>
      </trkpt>
      <trkpt lat="42.8617" lon="2.44546">
        <ele>476.312831</ele>
        <time>2016-06-03T12:25:29Z</time>
      </trkpt>
      <trkpt lat="42.86166" lon="2.44574">
        <ele>477.496549</ele>
        <time>2016-06-03T12:25:31Z</time>
      </trkpt>
      <trkpt lat="42.8617" lon="2.44602">
        <ele>479.224919</ele>
        <time>2016-06-03T12:25:33Z</time>
      </trkpt>
      <trkpt lat="42.86177" lon="2.44614">
        <ele>480.952788</ele>
        <time>2016-06-03T12:25:34Z</time>
      </trkpt>
      <trkpt lat="42.86207" lon="2.44639">
        <ele>481.887957</ele>
        <time>2016-06-03T12:25:36Z</time>
      </trkpt>
      <trkpt lat="42.86246" lon="2.44685">
        <ele>481.510333</ele>
        <time>2016-06-03T12:25:39Z</time>
      </trkpt>
      <trkpt lat="42.8627" lon="2.44712">
        <ele>481.680014</ele>
        <time>2016-06-03T12:25:41Z</time>
      </trkpt>
      <trkpt lat="42.86285" lon="2.44738">
        <ele>483.926094</ele>
        <time>2016-06-03T12:25:43Z</time>
      </trkpt>
      <trkpt lat="42.863" lon="2.44797">
        <ele>485.085571</ele>
        <time>2016-06-03T12:25:46Z</time>
      </trkpt>
      <trkpt lat="42.86314" lon="2.44888">
        <ele>488.157804</ele>
        <time>2016-06-03T12:25:50Z</time>
      </trkpt>
      <trkpt lat="42.8632" lon="2.44972">
        <ele>492.101278</ele>
        <time>2016-06-03T12:25:54Z</time>
      </trkpt>
      <trkpt lat="42.8632" lon="2.45007">
        <ele>494.138758</ele>
        <time>2016-06-03T12:25:56Z</time>
      </trkpt>
      <trkpt lat="42.8632" lon="2.45041">
        <ele>492.525138</ele>
        <time>2016-06-03T12:25:58Z</time>
      </trkpt>
      <trkpt lat="42.86308" lon="2.45073">
        <ele>490.621686</ele>
        <time>2016-06-03T12:26:00Z</time>
      </trkpt>
      <trkpt lat="42.86274" lon="2.45122">
        <ele>487.280557</ele>
        <time>2016-06-03T12:26:03Z</time>
      </trkpt>
      <trkpt lat="42.8624" lon="2.45165">
        <ele>483.65791</ele>
        <time>2016-06-03T12:26:06Z</time>
      </trkpt>
      <trkpt lat="42.86213" lon="2.45206">
        <ele>479.658326</ele>
        <time>2016-06-03T12:26:09Z</time>
      </trkpt>
      <trkpt lat="42.86203" lon="2.45235">
        <ele>478.251383</ele>
        <time>2016-06-03T12:26:11Z</time>
      </trkpt>
      <trkpt lat="42.86202" lon="2.45267">
        <ele>477.08963</ele>
        <time>2016-06-03T12:26:13Z</time>
      </trkpt>
      <trkpt lat="42.86211" lon="2.45304">
        <ele>474.869126</ele>
        <time>2016-06-03T12:26:15Z</time>
      </trkpt>
      <trkpt lat="42.86215" lon="2.45342">
        <ele>474.13828</ele>
        <time>2016-06-03T12:26:17Z</time>
      </trkpt>
      <trkpt lat="42.8621" lon="2.45403">
        <ele>470.034614</ele>
        <time>2016-06-03T12:26:20Z</time>
      </trkpt>
      <trkpt lat="42.86211" lon="2.45435">
        <ele>467.517709</ele>
        <time>2016-06-03T12:26:22Z</time>
      </trkpt>
      <trkpt lat="42.86214" lon="2.45452">
        <ele>467.236409</ele>
        <time>2016-06-03T12:26:23Z</time>
      </trkpt>
      <trkpt lat="42.86227" lon="2.45483">
        <ele>463.95227</ele>
        <time>2016-06-03T12:26:25Z</time>
      </trkpt>
      <trkpt lat="42.8623" lon="2.45545">
        <ele>461.991613</ele>
        <time>2016-06-03T12:26:28Z</time>
      </trkpt>
      <trkpt lat="42.86239" lon="2.45606">
        <ele>458.207835</ele>
        <time>2016-06-03T12:26:31Z</time>
      </trkpt>
      <trkpt lat="42.86237" lon="2.45646">
        <ele>456.750754</ele>
        <time>2016-06-03T12:26:33Z</time>
      </trkpt>
      <trkpt lat="42.86222" lon="2.45709">
        <ele>454.663449</ele>
        <time>2016-06-03T12:26:36Z</time>
      </trkpt>
      <trkpt lat="42.86199" lon="2.4577">
        <ele>452.17647</ele>
        <time>2016-06-03T12:26:39Z</time>
      </trkpt>
      <trkpt lat="42.86177" lon="2.45823">
        <ele>449.241311</ele>
        <time>2016-06-03T12:26:42Z</time>
      </trkpt>
      <trkpt lat="42.86172" lon="2.45855">
        <ele>448.687079</ele>
        <time>2016-06-03T12:26:44Z</time>
      </trkpt>
      <trkpt lat="42.86173" lon="2.45902">
        <ele>448.160384</ele>
        <time>2016-06-03T12:26:47Z</time>
      </trkpt>
      <trkpt lat="42.86183" lon="2.45957">
        <ele>447.426875</ele>
        <time>2016-06-03T12:26:51Z</time>
      </trkpt>
      <trkpt lat="42.8619" lon="2.45987">
        <ele>447.259745</ele>
        <time>2016-06-03T12:26:54Z</time>
      </trkpt>
      <trkpt lat="42.86188" lon="2.46">
        <ele>447.713095</ele>
        <time>2016-06-03T12:26:56Z</time>
      </trkpt>
      <trkpt lat="42.86179" lon="2.46008">
        <ele>447.626092</ele>
        <time>2016-06-03T12:26:58Z</time>
      </trkpt>
      <trkpt lat="42.86159" lon="2.46012">
        <ele>446.308089</ele>
        <time>2016-06-03T12:27:01Z</time>
      </trkpt>
      <trkpt lat="42.86143" lon="2.46015">
        <ele>447.11294</ele>
        <time>2016-06-03T12:27:03Z</time>
      </trkpt>
      <trkpt lat="42.86106" lon="2.46014">
        <ele>445.625585</ele>
        <time>2016-06-03T12:27:06Z</time>
      </trkpt>
      <trkpt lat="42.86077" lon="2.46011">
        <ele>444.501872</ele>
        <time>2016-06-03T12:27:09Z</time>
      </trkpt>
      <trkpt lat="42.86075" lon="2.46015">
        <ele>444.455694</ele>
        <time>2016-06-03T12:27:10Z</time>
      </trkpt>
      <trkpt lat="42.86059" lon="2.4602">
        <ele>444.533126</ele>
        <time>2016-06-03T12:27:12Z</time>
      </trkpt>
      <trkpt lat="42.86053" lon="2.46026">
        <ele>444.401949</ele>
        <time>2016-06-03T12:27:13Z</time>
      </trkpt>
      <trkpt lat="42.86046" lon="2.46045">
        <ele>444.405397</ele>
        <time>2016-06-03T12:27:15Z</time>
      </trkpt>
      <trkpt lat="42.86031" lon="2.46057">
        <ele>444.206169</ele>
        <time>2016-06-03T12:27:17Z</time>
      </trkpt>
      <trkpt lat="42.85999" lon="2.4606">
        <ele>443.632888</ele>
        <time>2016-06-03T12:27:20Z</time>
      </trkpt>
      <trkpt lat="42.85977" lon="2.46067">
        <ele>442.891015</ele>
        <time>2016-06-03T12:27:22Z</time>
      </trkpt>
      <trkpt lat="42.85952" lon="2.46075">
        <ele>442.357188</ele>
        <time>2016-06-03T12:27:24Z</time>
      </trkpt>
      <trkpt lat="42.85917" lon="2.46097">
        <ele>441.567368</ele>
        <time>2016-06-03T12:27:27Z</time>
      </trkpt>
      <trkpt lat="42.8587" lon="2.4614">
        <ele>439.259102</ele>
        <time>2016-06-03T12:27:31Z</time>
      </trkpt>
      <trkpt lat="42.85837" lon="2.46168">
        <ele>438.86595</ele>
        <time>2016-06-03T12:27:34Z</time>
      </trkpt>
      <trkpt lat="42.85812" lon="2.46182">
        <ele>438.427599</ele>
        <time>2016-06-03T12:27:36Z</time>
      </trkpt>
      <trkpt lat="42.85758" lon="2.46198">
        <ele>437.685573</ele>
        <time>2016-06-03T12:27:40Z</time>
      </trkpt>
      <trkpt lat="42.8574" lon="2.46209">
        <ele>436.252324</ele>
        <time>2016-06-03T12:27:42Z</time>
      </trkpt>
      <trkpt lat="42.85711" lon="2.46237">
        <ele>435.808204</ele>
        <time>2016-06-03T12:27:45Z</time>
      </trkpt>
      <trkpt lat="42.85684" lon="2.46283">
        <ele>435.057132</ele>
        <time>2016-06-03T12:27:48Z</time>
      </trkpt>
      <trkpt lat="42.8564" lon="2.46371">
        <ele>432.463416</ele>
        <time>2016-06-03T12:27:53Z</time>
      </trkpt>
      <trkpt lat="42.85618" lon="2.46414">
        <ele>431.22735</ele>
        <time>2016-06-03T12:27:56Z</time>
      </trkpt>
      <trkpt lat="42.85601" lon="2.46438">
        <ele>431.106299</ele>
        <time>2016-06-03T12:27:58Z</time>
      </trkpt>
      <trkpt lat="42.85581" lon="2.46454">
        <ele>430.307424</ele>
        <time>2016-06-03T12:28:00Z</time>
      </trkpt>
      <trkpt lat="42.85561" lon="2.4646">
        <ele>429.176095</ele>
        <time>2016-06-03T12:28:01Z</time>
      </trkpt>
      <trkpt lat="42.85515" lon="2.46494">
        <ele>428.291192</ele>
        <time>2016-06-03T12:28:06Z</time>
      </trkpt>
      <trkpt lat="42.85467" lon="2.46547">
        <ele>426.359933</ele>
        <time>2016-06-03T12:28:09Z</time>
      </trkpt>
      <trkpt lat="42.85424" lon="2.46597">
        <ele>424.249329</ele>
        <time>2016-06-03T12:28:12Z</time>
      </trkpt>
      <trkpt lat="42.85386" lon="2.46635">
        <ele>422.564667</ele>
        <time>2016-06-03T12:28:15Z</time>
      </trkpt>
      <trkpt lat="42.85365" lon="2.46645">
        <ele>422.291176</ele>
        <time>2016-06-03T12:28:17Z</time>
      </trkpt>
      <trkpt lat="42.85334" lon="2.46647">
        <ele>421.030693</ele>
        <time>2016-06-03T12:28:20Z</time>
      </trkpt>
      <trkpt lat="42.85324" lon="2.46652">
        <ele>421.281951</ele>
        <time>2016-06-03T12:28:21Z</time>
      </trkpt>
      <trkpt lat="42.85311" lon="2.46684">
        <ele>421.304445</ele>
        <time>2016-06-03T12:28:23Z</time>
      </trkpt>
      <trkpt lat="42.85295" lon="2.46744">
        <ele>420.682154</ele>
        <time>2016-06-03T12:28:26Z</time>
      </trkpt>
      <trkpt lat="42.85277" lon="2.46835">
        <ele>419.980698</ele>
        <time>2016-06-03T12:28:30Z</time>
      </trkpt>
      <trkpt lat="42.85259" lon="2.46926">
        <ele>416.793626</ele>
        <time>2016-06-03T12:28:34Z</time>
      </trkpt>
      <trkpt lat="42.8525" lon="2.46979">
        <ele>415.147658</ele>
        <time>2016-06-03T12:28:37Z</time>
      </trkpt>
      <trkpt lat="42.85243" lon="2.47004">
        <ele>415.329986</ele>
        <time>2016-06-03T12:28:39Z</time>
      </trkpt>
      <trkpt lat="42.85229" lon="2.47022">
        <ele>414.988668</ele>
        <time>2016-06-03T12:28:41Z</time>
      </trkpt>
      <trkpt lat="42.85208" lon="2.47041">
        <ele>416.113286</ele>
        <time>2016-06-03T12:28:43Z</time>
      </trkpt>
      <trkpt lat="42.85126" lon="2.47047">
        <ele>412.380629</ele>
        <time>2016-06-03T12:28:48Z</time>
      </trkpt>
      <trkpt lat="42.851" lon="2.47042">
        <ele>412.291208</ele>
        <time>2016-06-03T12:28:50Z</time>
      </trkpt>
      <trkpt lat="42.8508" lon="2.4703">
        <ele>412.227789</ele>
        <time>2016-06-03T12:28:52Z</time>
      </trkpt>
      <trkpt lat="42.85067" lon="2.47015">
        <ele>409.849475</ele>
        <time>2016-06-03T12:28:54Z</time>
      </trkpt>
      <trkpt lat="42.8505" lon="2.47024">
        <ele>410.657862</ele>
        <time>2016-06-03T12:28:56Z</time>
      </trkpt>
      <trkpt lat="42.85016" lon="2.47039">
        <ele>409.795431</ele>
        <time>2016-06-03T12:28:59Z</time>
      </trkpt>
      <trkpt lat="42.84989" lon="2.47066">
        <ele>408.215919</ele>
        <time>2016-06-03T12:29:02Z</time>
      </trkpt>
      <trkpt lat="42.84964" lon="2.47098">
        <ele>406.539998</ele>
        <time>2016-06-03T12:29:05Z</time>
      </trkpt>
      <trkpt lat="42.84942" lon="2.47123">
        <ele>407.185669</ele>
        <time>2016-06-03T12:29:08Z</time>
      </trkpt>
      <trkpt lat="42.84927" lon="2.47139">
        <ele>406.083267</ele>
        <time>2016-06-03T12:29:11Z</time>
      </trkpt>
      <trkpt lat="42.8491" lon="2.47147">
        <ele>405.381403</ele>
        <time>2016-06-03T12:29:13Z</time>
      </trkpt>
      <trkpt lat="42.84891" lon="2.47143">
        <ele>405.301129</ele>
        <time>2016-06-03T12:29:15Z</time>
      </trkpt>
      <trkpt lat="42.8486" lon="2.47127">
        <ele>404.184884</ele>
        <time>2016-06-03T12:29:18Z</time>
      </trkpt>
      <trkpt lat="42.84835" lon="2.4711">
        <ele>403.798762</ele>
        <time>2016-06-03T12:29:21Z</time>
      </trkpt>
      <trkpt lat="42.84817" lon="2.47094">
        <ele>403.71201</ele>
        <time>2016-06-03T12:29:24Z</time>
      </trkpt>
      <trkpt lat="42.84806" lon="2.47078">
        <ele>402.816696</ele>
        <time>2016-06-03T12:29:26Z</time>
      </trkpt>
      <trkpt lat="42.84797" lon="2.47046">
        <ele>402.063248</ele>
        <time>2016-06-03T12:29:29Z</time>
      </trkpt>
      <trkpt lat="42.84796" lon="2.47022">
        <ele>401.134127</ele>
        <time>2016-06-03T12:29:31Z</time>
      </trkpt>
      <trkpt lat="42.848" lon="2.46995">
        <ele>400.609388</ele>
        <time>2016-06-03T12:29:33Z</time>
      </trkpt>
      <trkpt lat="42.84811" lon="2.46954">
        <ele>399.877019</ele>
        <time>2016-06-03T12:29:36Z</time>
      </trkpt>
      <trkpt lat="42.84817" lon="2.46916">
        <ele>398.867498</ele>
        <time>2016-06-03T12:29:39Z</time>
      </trkpt>
      <trkpt lat="42.84814" lon="2.46893">
        <ele>397.878607</ele>
        <time>2016-06-03T12:29:41Z</time>
      </trkpt>
      <trkpt lat="42.84801" lon="2.46871">
        <ele>398.104115</ele>
        <time>2016-06-03T12:29:43Z</time>
      </trkpt>
      <trkpt lat="42.84781" lon="2.46842">
        <ele>397.140766</ele>
        <time>2016-06-03T12:29:46Z</time>
      </trkpt>
      <trkpt lat="42.84772" lon="2.46822">
        <ele>396.290134</ele>
        <time>2016-06-03T12:29:48Z</time>
      </trkpt>
      <trkpt lat="42.84768" lon="2.46808">
        <ele>395.957882</ele>
        <time>2016-06-03T12:29:50Z</time>
      </trkpt>
      <trkpt lat="42.84761" lon="2.468">
        <ele>395.203013</ele>
        <time>2016-06-03T12:29:52Z</time>
      </trkpt>
      <trkpt lat="42.84757" lon="2.46797">
        <ele>394.838221</ele>
        <time>2016-06-03T12:29:53Z</time>
      </trkpt>
      <trkpt lat="42.84752" lon="2.46804">
        <ele>394.332791</ele>
        <time>2016-06-03T12:29:54Z</time>
      </trkpt>
      <trkpt lat="42.84748" lon="2.46821">
        <ele>393.574106</ele>
        <time>2016-06-03T12:29:56Z</time>
      </trkpt>
      <trkpt lat="42.84718" lon="2.46901">
        <ele>392.303085</ele>
        <time>2016-06-03T12:30:01Z</time>
      </trkpt>
      <trkpt lat="42.84703" lon="2.46929">
        <ele>391.294914</ele>
        <time>2016-06-03T12:30:04Z</time>
      </trkpt>
      <trkpt lat="42.84693" lon="2.4694">
        <ele>391.294914</ele>
        <time>2016-06-03T12:30:05Z</time>
      </trkpt>
      <trkpt lat="42.84692" lon="2.46946">
        <ele>391.049975</ele>
        <time>2016-06-03T12:30:06Z</time>
      </trkpt>
      <trkpt lat="42.84675" lon="2.46955">
        <ele>390.589483</ele>
        <time>2016-06-03T12:30:08Z</time>
      </trkpt>
      <trkpt lat="42.8466" lon="2.46968">
        <ele>389.965573</ele>
        <time>2016-06-03T12:30:10Z</time>
      </trkpt>
      <trkpt lat="42.84645" lon="2.46976">
        <ele>389.213401</ele>
        <time>2016-06-03T12:30:12Z</time>
      </trkpt>
      <trkpt lat="42.84631" lon="2.46991">
        <ele>388.735125</ele>
        <time>2016-06-03T12:30:14Z</time>
      </trkpt>
      <trkpt lat="42.84622" lon="2.47009">
        <ele>388.033895</ele>
        <time>2016-06-03T12:30:16Z</time>
      </trkpt>
      <trkpt lat="42.84617" lon="2.47022">
        <ele>387.566417</ele>
        <time>2016-06-03T12:30:17Z</time>
      </trkpt>
      <trkpt lat="42.8462" lon="2.47067">
        <ele>386.900491</ele>
        <time>2016-06-03T12:30:20Z</time>
      </trkpt>
      <trkpt lat="42.84622" lon="2.4712">
        <ele>385.915908</ele>
        <time>2016-06-03T12:30:24Z</time>
      </trkpt>
      <trkpt lat="42.84624" lon="2.47143">
        <ele>385.28682</ele>
        <time>2016-06-03T12:30:26Z</time>
      </trkpt>
      <trkpt lat="42.8462" lon="2.47165">
        <ele>384.501802</ele>
        <time>2016-06-03T12:30:28Z</time>
      </trkpt>
      <trkpt lat="42.84619" lon="2.47174">
        <ele>384.315705</ele>
        <time>2016-06-03T12:30:29Z</time>
      </trkpt>
      <trkpt lat="42.84627" lon="2.47193">
        <ele>383.968977</ele>
        <time>2016-06-03T12:30:31Z</time>
      </trkpt>
      <trkpt lat="42.84641" lon="2.47211">
        <ele>383.936099</ele>
        <time>2016-06-03T12:30:33Z</time>
      </trkpt>
      <trkpt lat="42.84656" lon="2.47225">
        <ele>383.198495</ele>
        <time>2016-06-03T12:30:35Z</time>
      </trkpt>
      <trkpt lat="42.84665" lon="2.47246">
        <ele>382.89963</ele>
        <time>2016-06-03T12:30:37Z</time>
      </trkpt>
      <trkpt lat="42.84679" lon="2.47294">
        <ele>381.143159</ele>
        <time>2016-06-03T12:30:41Z</time>
      </trkpt>
      <trkpt lat="42.84684" lon="2.47337">
        <ele>380.172048</ele>
        <time>2016-06-03T12:30:44Z</time>
      </trkpt>
      <trkpt lat="42.84684" lon="2.47414">
        <ele>377.473917</ele>
        <time>2016-06-03T12:30:49Z</time>
      </trkpt>
      <trkpt lat="42.84684" lon="2.47454">
        <ele>376.182053</ele>
        <time>2016-06-03T12:30:52Z</time>
      </trkpt>
      <trkpt lat="42.84684" lon="2.47475">
        <ele>375.842006</ele>
        <time>2016-06-03T12:30:54Z</time>
      </trkpt>
      <trkpt lat="42.84679" lon="2.47494">
        <ele>375.529807</ele>
        <time>2016-06-03T12:30:56Z</time>
      </trkpt>
      <trkpt lat="42.84673" lon="2.4751">
        <ele>375.304746</ele>
        <time>2016-06-03T12:30:58Z</time>
      </trkpt>
      <trkpt lat="42.84654" lon="2.47528">
        <ele>374.417689</ele>
        <time>2016-06-03T12:31:00Z</time>
      </trkpt>
      <trkpt lat="42.84636" lon="2.47554">
        <ele>373.720395</ele>
        <time>2016-06-03T12:31:03Z</time>
      </trkpt>
      <trkpt lat="42.84626" lon="2.47575">
        <ele>373.238353</ele>
        <time>2016-06-03T12:31:05Z</time>
      </trkpt>
      <trkpt lat="42.84631" lon="2.47629">
        <ele>372.715264</ele>
        <time>2016-06-03T12:31:08Z</time>
      </trkpt>
      <trkpt lat="42.84633" lon="2.47655">
        <ele>371.172225</ele>
        <time>2016-06-03T12:31:10Z</time>
      </trkpt>
      <trkpt lat="42.84624" lon="2.47696">
        <ele>370.664976</ele>
        <time>2016-06-03T12:31:13Z</time>
      </trkpt>
      <trkpt lat="42.84613" lon="2.47738">
        <ele>369.515906</ele>
        <time>2016-06-03T12:31:16Z</time>
      </trkpt>
      <trkpt lat="42.84598" lon="2.47772">
        <ele>369.783415</ele>
        <time>2016-06-03T12:31:19Z</time>
      </trkpt>
      <trkpt lat="42.84573" lon="2.47802">
        <ele>369.99911</ele>
        <time>2016-06-03T12:31:22Z</time>
      </trkpt>
      <trkpt lat="42.84559" lon="2.47817">
        <ele>370.052973</ele>
        <time>2016-06-03T12:31:24Z</time>
      </trkpt>
      <trkpt lat="42.84541" lon="2.47823">
        <ele>371.740733</ele>
        <time>2016-06-03T12:31:27Z</time>
      </trkpt>
      <trkpt lat="42.84531" lon="2.4782">
        <ele>371.008915</ele>
        <time>2016-06-03T12:31:29Z</time>
      </trkpt>
      <trkpt lat="42.84519" lon="2.47825">
        <ele>370.722793</ele>
        <time>2016-06-03T12:31:31Z</time>
      </trkpt>
      <trkpt lat="42.84508" lon="2.47836">
        <ele>371.785929</ele>
        <time>2016-06-03T12:31:33Z</time>
      </trkpt>
      <trkpt lat="42.84493" lon="2.47845">
        <ele>371.592874</ele>
        <time>2016-06-03T12:31:35Z</time>
      </trkpt>
      <trkpt lat="42.84488" lon="2.47853">
        <ele>371.996735</ele>
        <time>2016-06-03T12:31:36Z</time>
      </trkpt>
      <trkpt lat="42.8447" lon="2.47854">
        <ele>372.331856</ele>
        <time>2016-06-03T12:31:39Z</time>
      </trkpt>
      <trkpt lat="42.84464" lon="2.47853">
        <ele>372.690595</ele>
        <time>2016-06-03T12:31:40Z</time>
      </trkpt>
      <trkpt lat="42.84459" lon="2.47846">
        <ele>373.276062</ele>
        <time>2016-06-03T12:31:43Z</time>
      </trkpt>
      <trkpt lat="42.84459" lon="2.47843">
        <ele>373.425031</ele>
        <time>2016-06-03T12:31:45Z</time>
      </trkpt>
      <trkpt lat="42.84457" lon="2.47841">
        <ele>373.342352</ele>
        <time>2016-06-03T12:31:51Z</time>
      </trkpt>
      <trkpt lat="42.84458" lon="2.47843">
        <ele>373.325573</ele>
        <time>2016-06-03T12:31:55Z</time>
      </trkpt>
      <trkpt lat="42.84458" lon="2.47843">
        <ele>373.213672</ele>
        <time>2016-06-03T12:31:58Z</time>
      </trkpt>
      <trkpt lat="42.84463" lon="2.47843">
        <ele>373.213672</ele>
        <time>2016-06-03T12:31:59Z</time>
      </trkpt>
      <trkpt lat="42.84463" lon="2.47841">
        <ele>373.161116</ele>
        <time>2016-06-03T12:32:07Z</time>
      </trkpt>
      <trkpt lat="42.84466" lon="2.47847">
        <ele>372.712025</ele>
        <time>2016-06-03T12:32:10Z</time>
      </trkpt>
      <trkpt lat="42.84467" lon="2.47853">
        <ele>373.293892</ele>
        <time>2016-06-03T12:32:15Z</time>
      </trkpt>
      <trkpt lat="42.84467" lon="2.47854">
        <ele>373.869449</ele>
        <time>2016-06-03T12:32:25Z</time>
      </trkpt>
      <trkpt lat="42.84466" lon="2.47852">
        <ele>373.957111</ele>
        <time>2016-06-03T12:32:31Z</time>
      </trkpt>
      <trkpt lat="42.84465" lon="2.47852">
        <ele>374.497695</ele>
        <time>2016-06-03T12:32:33Z</time>
      </trkpt>
      <trkpt lat="42.84465" lon="2.47851">
        <ele>373.407949</ele>
        <time>2016-06-03T12:32:44Z</time>
      </trkpt>
      <trkpt lat="42.84468" lon="2.4785">
        <ele>373.405843</ele>
        <time>2016-06-03T12:33:01Z</time>
      </trkpt>
      <trkpt lat="42.84468" lon="2.47851">
        <ele>373.175414</ele>
        <time>2016-06-03T12:33:03Z</time>
      </trkpt>
      <trkpt lat="42.8447" lon="2.47852">
        <ele>373.907393</ele>
        <time>2016-06-03T12:33:17Z</time>
      </trkpt>
      <trkpt lat="42.8447" lon="2.4785">
        <ele>373.063415</ele>
        <time>2016-06-03T12:33:45Z</time>
      </trkpt>
      <trkpt lat="42.8447" lon="2.4785">
        <ele>373.240327</ele>
        <time>2016-06-03T12:33:46Z</time>
      </trkpt>
      <trkpt lat="42.84471" lon="2.47851">
        <ele>372.910382</ele>
        <time>2016-06-03T12:33:49Z</time>
      </trkpt>
      <trkpt lat="42.84472" lon="2.4785">
        <ele>373.296385</ele>
        <time>2016-06-03T12:34:02Z</time>
      </trkpt>
      <trkpt lat="42.84469" lon="2.47848">
        <ele>373.299418</ele>
        <time>2016-06-03T12:34:04Z</time>
      </trkpt>
      <trkpt lat="42.84467" lon="2.47848">
        <ele>373.391101</ele>
        <time>2016-06-03T12:34:07Z</time>
      </trkpt>
      <trkpt lat="42.84467" lon="2.47847">
        <ele>373.258959</ele>
        <time>2016-06-03T12:34:16Z</time>
      </trkpt>
      <trkpt lat="42.84467" lon="2.47847">
        <ele>373.411365</ele>
        <time>2016-06-03T12:34:34Z</time>
      </trkpt>
      <trkpt lat="42.84466" lon="2.47845">
        <ele>373.412029</ele>
        <time>2016-06-03T12:34:35Z</time>
      </trkpt>
      <trkpt lat="42.84463" lon="2.47846">
        <ele>373.337356</ele>
        <time>2016-06-03T12:34:39Z</time>
      </trkpt>
      <trkpt lat="42.84462" lon="2.47845">
        <ele>373.262845</ele>
        <time>2016-06-03T12:34:41Z</time>
      </trkpt>
      <trkpt lat="42.84464" lon="2.47847">
        <ele>373.169949</ele>
        <time>2016-06-03T12:34:44Z</time>
      </trkpt>
      <trkpt lat="42.84465" lon="2.47849">
        <ele>373.124684</ele>
        <time>2016-06-03T12:34:52Z</time>
      </trkpt>
      <trkpt lat="42.84465" lon="2.47851">
        <ele>373.505752</ele>
        <time>2016-06-03T12:34:56Z</time>
      </trkpt>
      <trkpt lat="42.84466" lon="2.47851">
        <ele>373.509367</ele>
        <time>2016-06-03T12:34:57Z</time>
      </trkpt>
      <trkpt lat="42.84465" lon="2.47851">
        <ele>373.626004</ele>
        <time>2016-06-03T12:35:07Z</time>
      </trkpt>
      <trkpt lat="42.84462" lon="2.47847">
        <ele>373.648118</ele>
        <time>2016-06-03T12:35:16Z</time>
      </trkpt>
      <trkpt lat="42.84459" lon="2.47846">
        <ele>373.813586</ele>
        <time>2016-06-03T12:35:24Z</time>
      </trkpt>
      <trkpt lat="42.8446" lon="2.4785">
        <ele>373.692193</ele>
        <time>2016-06-03T12:35:36Z</time>
      </trkpt>
      <trkpt lat="42.84461" lon="2.4785">
        <ele>373.637403</ele>
        <time>2016-06-03T12:35:38Z</time>
      </trkpt>
      <trkpt lat="42.84461" lon="2.4785">
        <ele>373.553403</ele>
        <time>2016-06-03T12:35:41Z</time>
      </trkpt>
      <trkpt lat="42.8446" lon="2.4785">
        <ele>373.367442</ele>
        <time>2016-06-03T12:35:44Z</time>
      </trkpt>
      <trkpt lat="42.84459" lon="2.4785">
        <ele>374.006748</ele>
        <time>2016-06-03T12:35:54Z</time>
      </trkpt>
      <trkpt lat="42.84462" lon="2.47845">
        <ele>373.794917</ele>
        <time>2016-06-03T12:36:00Z</time>
      </trkpt>
      <trkpt lat="42.84463" lon="2.47847">
        <ele>373.743009</ele>
        <time>2016-06-03T12:36:09Z</time>
      </trkpt>
      <trkpt lat="42.84463" lon="2.47847">
        <ele>373.825144</ele>
        <time>2016-06-03T12:36:27Z</time>
      </trkpt>
      <trkpt lat="42.84462" lon="2.47846">
        <ele>373.827033</ele>
        <time>2016-06-03T12:36:28Z</time>
      </trkpt>
      <trkpt lat="42.84463" lon="2.47847">
        <ele>373.590808</ele>
        <time>2016-06-03T12:36:30Z</time>
      </trkpt>
      <trkpt lat="42.84464" lon="2.47847">
        <ele>373.60559</ele>
        <time>2016-06-03T12:36:40Z</time>
      </trkpt>
      <trkpt lat="42.84464" lon="2.47843">
        <ele>373.396977</ele>
        <time>2016-06-03T12:36:45Z</time>
      </trkpt>
      <trkpt lat="42.8446" lon="2.47842">
        <ele>373.344904</ele>
        <time>2016-06-03T12:36:47Z</time>
      </trkpt>
      <trkpt lat="42.84448" lon="2.47843">
        <ele>373.50891</ele>
        <time>2016-06-03T12:36:50Z</time>
      </trkpt>
      <trkpt lat="42.8444" lon="2.47844">
        <ele>373.621953</ele>
        <time>2016-06-03T12:36:52Z</time>
      </trkpt>
      <trkpt lat="42.84428" lon="2.47852">
        <ele>374.013698</ele>
        <time>2016-06-03T12:36:54Z</time>
      </trkpt>
      <trkpt lat="42.84419" lon="2.47855">
        <ele>373.995002</ele>
        <time>2016-06-03T12:36:56Z</time>
      </trkpt>
      <trkpt lat="42.8441" lon="2.47862">
        <ele>375.176105</ele>
        <time>2016-06-03T12:36:58Z</time>
      </trkpt>
      <trkpt lat="42.84401" lon="2.47872">
        <ele>374.838957</ele>
        <time>2016-06-03T12:37:00Z</time>
      </trkpt>
      <trkpt lat="42.84387" lon="2.47893">
        <ele>375.773371</ele>
        <time>2016-06-03T12:37:03Z</time>
      </trkpt>
      <trkpt lat="42.84369" lon="2.47921">
        <ele>377.020593</ele>
        <time>2016-06-03T12:37:06Z</time>
      </trkpt>
      <trkpt lat="42.84352" lon="2.47964">
        <ele>377.275228</ele>
        <time>2016-06-03T12:37:09Z</time>
      </trkpt>
      <trkpt lat="42.8434" lon="2.47986">
        <ele>377.588403</ele>
        <time>2016-06-03T12:37:11Z</time>
      </trkpt>
      <trkpt lat="42.84323" lon="2.47994">
        <ele>378.025992</ele>
        <time>2016-06-03T12:37:13Z</time>
      </trkpt>
      <trkpt lat="42.84316" lon="2.47989">
        <ele>378.716114</ele>
        <time>2016-06-03T12:37:14Z</time>
      </trkpt>
      <trkpt lat="42.84295" lon="2.47995">
        <ele>378.97752</ele>
        <time>2016-06-03T12:37:17Z</time>
      </trkpt>
      <trkpt lat="42.84282" lon="2.47995">
        <ele>379.140311</ele>
        <time>2016-06-03T12:37:19Z</time>
      </trkpt>
      <trkpt lat="42.84275" lon="2.47987">
        <ele>379.459935</ele>
        <time>2016-06-03T12:37:21Z</time>
      </trkpt>
      <trkpt lat="42.84267" lon="2.47984">
        <ele>379.596028</ele>
        <time>2016-06-03T12:37:24Z</time>
      </trkpt>
      <trkpt lat="42.84266" lon="2.47983">
        <ele>379.833086</ele>
        <time>2016-06-03T12:37:25Z</time>
      </trkpt>
      <trkpt lat="42.84266" lon="2.47981">
        <ele>380.109513</ele>
        <time>2016-06-03T12:37:34Z</time>
      </trkpt>
      <trkpt lat="42.84265" lon="2.47982">
        <ele>380.053423</ele>
        <time>2016-06-03T12:37:41Z</time>
      </trkpt>
      <trkpt lat="42.84265" lon="2.47982">
        <ele>379.576626</ele>
        <time>2016-06-03T12:37:46Z</time>
      </trkpt>
      <trkpt lat="42.84264" lon="2.47984">
        <ele>379.814817</ele>
        <time>2016-06-03T12:37:49Z</time>
      </trkpt>
      <trkpt lat="42.84268" lon="2.47987">
        <ele>379.535706</ele>
        <time>2016-06-03T12:37:57Z</time>
      </trkpt>
      <trkpt lat="42.84272" lon="2.4799">
        <ele>379.525755</ele>
        <time>2016-06-03T12:38:06Z</time>
      </trkpt>
      <trkpt lat="42.84272" lon="2.47988">
        <ele>379.924708</ele>
        <time>2016-06-03T12:38:12Z</time>
      </trkpt>
      <trkpt lat="42.84272" lon="2.47988">
        <ele>380.111223</ele>
        <time>2016-06-03T12:38:17Z</time>
      </trkpt>
      <trkpt lat="42.8427" lon="2.47982">
        <ele>380.250104</ele>
        <time>2016-06-03T12:38:27Z</time>
      </trkpt>
      <trkpt lat="42.84269" lon="2.47981">
        <ele>379.956233</ele>
        <time>2016-06-03T12:38:41Z</time>
      </trkpt>
      <trkpt lat="42.84271" lon="2.47985">
        <ele>379.811619</ele>
        <time>2016-06-03T12:38:47Z</time>
      </trkpt>
      <trkpt lat="42.8427" lon="2.47986">
        <ele>379.914202</ele>
        <time>2016-06-03T12:38:49Z</time>
      </trkpt>
      <trkpt lat="42.84268" lon="2.47985">
        <ele>379.801</ele>
        <time>2016-06-03T12:38:52Z</time>
      </trkpt>
      <trkpt lat="42.84266" lon="2.47982">
        <ele>379.700113</ele>
        <time>2016-06-03T12:38:55Z</time>
      </trkpt>
      <trkpt lat="42.84266" lon="2.47982">
        <ele>379.351172</ele>
        <time>2016-06-03T12:39:01Z</time>
      </trkpt>
      <trkpt lat="42.84265" lon="2.47988">
        <ele>379.526309</ele>
        <time>2016-06-03T12:39:12Z</time>
      </trkpt>
      <trkpt lat="42.84265" lon="2.47988">
        <ele>379.59125</ele>
        <time>2016-06-03T12:39:38Z</time>
      </trkpt>
      <trkpt lat="42.84263" lon="2.47985">
        <ele>379.335048</ele>
        <time>2016-06-03T12:39:39Z</time>
      </trkpt>
      <trkpt lat="42.84266" lon="2.47984">
        <ele>380.106688</ele>
        <time>2016-06-03T12:39:44Z</time>
      </trkpt>
      <trkpt lat="42.84267" lon="2.47985">
        <ele>379.869752</ele>
        <time>2016-06-03T12:39:49Z</time>
      </trkpt>
      <trkpt lat="42.84268" lon="2.47986">
        <ele>379.683029</ele>
        <time>2016-06-03T12:39:50Z</time>
      </trkpt>
      <trkpt lat="42.84267" lon="2.47986">
        <ele>379.859075</ele>
        <time>2016-06-03T12:39:54Z</time>
      </trkpt>
      <trkpt lat="42.84268" lon="2.47987">
        <ele>379.550325</ele>
        <time>2016-06-03T12:40:06Z</time>
      </trkpt>
      <trkpt lat="42.84271" lon="2.4799">
        <ele>379.099382</ele>
        <time>2016-06-03T12:40:19Z</time>
      </trkpt>
      <trkpt lat="42.84271" lon="2.47989">
        <ele>379.45255</ele>
        <time>2016-06-03T12:40:30Z</time>
      </trkpt>
      <trkpt lat="42.8427" lon="2.4799">
        <ele>379.154922</ele>
        <time>2016-06-03T12:40:40Z</time>
      </trkpt>
      <trkpt lat="42.84269" lon="2.47991">
        <ele>378.471315</ele>
        <time>2016-06-03T12:40:45Z</time>
      </trkpt>
      <trkpt lat="42.84269" lon="2.47992">
        <ele>378.787225</ele>
        <time>2016-06-03T12:40:49Z</time>
      </trkpt>
      <trkpt lat="42.84267" lon="2.47993">
        <ele>378.612806</ele>
        <time>2016-06-03T12:40:51Z</time>
      </trkpt>
      <trkpt lat="42.84264" lon="2.47993">
        <ele>378.403527</ele>
        <time>2016-06-03T12:40:53Z</time>
      </trkpt>
      <trkpt lat="42.8426" lon="2.47998">
        <ele>378.585962</ele>
        <time>2016-06-03T12:40:56Z</time>
      </trkpt>
      <trkpt lat="42.8425" lon="2.48002">
        <ele>379.14927</ele>
        <time>2016-06-03T12:40:59Z</time>
      </trkpt>
      <trkpt lat="42.84237" lon="2.48002">
        <ele>379.602963</ele>
        <time>2016-06-03T12:41:01Z</time>
      </trkpt>
      <trkpt lat="42.84224" lon="2.48006">
        <ele>380.488505</ele>
        <time>2016-06-03T12:41:03Z</time>
      </trkpt>
      <trkpt lat="42.84203" lon="2.47999">
        <ele>381.07588</ele>
        <time>2016-06-03T12:41:07Z</time>
      </trkpt>
      <trkpt lat="42.8419" lon="2.47992">
        <ele>381.430644</ele>
        <time>2016-06-03T12:41:09Z</time>
      </trkpt>
      <trkpt lat="42.8418" lon="2.47997">
        <ele>381.729631</ele>
        <time>2016-06-03T12:41:11Z</time>
      </trkpt>
      <trkpt lat="42.84175" lon="2.47994">
        <ele>381.943097</ele>
        <time>2016-06-03T12:41:12Z</time>
      </trkpt>
      <trkpt lat="42.84175" lon="2.48001">
        <ele>382.287062</ele>
        <time>2016-06-03T12:41:13Z</time>
      </trkpt>
      <trkpt lat="42.84171" lon="2.47999">
        <ele>382.425327</ele>
        <time>2016-06-03T12:41:15Z</time>
      </trkpt>
      <trkpt lat="42.84168" lon="2.48001">
        <ele>383.039909</ele>
        <time>2016-06-03T12:41:16Z</time>
      </trkpt>
      <trkpt lat="42.84161" lon="2.4799">
        <ele>383.524026</ele>
        <time>2016-06-03T12:41:18Z</time>
      </trkpt>
      <trkpt lat="42.84161" lon="2.47982">
        <ele>384.117661</ele>
        <time>2016-06-03T12:41:20Z</time>
      </trkpt>
      <trkpt lat="42.84138" lon="2.47976">
        <ele>384.341216</ele>
        <time>2016-06-03T12:41:24Z</time>
      </trkpt>
      <trkpt lat="42.84126" lon="2.47975">
        <ele>384.692466</ele>
        <time>2016-06-03T12:41:27Z</time>
      </trkpt>
      <trkpt lat="42.84125" lon="2.47978">
        <ele>384.866264</ele>
        <time>2016-06-03T12:41:29Z</time>
      </trkpt>
      <trkpt lat="42.84123" lon="2.47982">
        <ele>384.778025</ele>
        <time>2016-06-03T12:41:31Z</time>
      </trkpt>
      <trkpt lat="42.84121" lon="2.47982">
        <ele>384.734722</ele>
        <time>2016-06-03T12:41:33Z</time>
      </trkpt>
      <trkpt lat="42.84118" lon="2.4798">
        <ele>384.607588</ele>
        <time>2016-06-03T12:41:36Z</time>
      </trkpt>
      <trkpt lat="42.84111" lon="2.4797">
        <ele>384.895969</ele>
        <time>2016-06-03T12:41:40Z</time>
      </trkpt>
      <trkpt lat="42.84109" lon="2.47954">
        <ele>385.101152</ele>
        <time>2016-06-03T12:41:45Z</time>
      </trkpt>
      <trkpt lat="42.84111" lon="2.47946">
        <ele>385.484406</ele>
        <time>2016-06-03T12:41:51Z</time>
      </trkpt>
      <trkpt lat="42.84111" lon="2.4794">
        <ele>385.472302</ele>
        <time>2016-06-03T12:42:01Z</time>
      </trkpt>
      <trkpt lat="42.84109" lon="2.47937">
        <ele>385.149055</ele>
        <time>2016-06-03T12:43:38Z</time>
      </trkpt>
      <trkpt lat="42.84108" lon="2.47931">
        <ele>385.258656</ele>
        <time>2016-06-03T12:43:42Z</time>
      </trkpt>
      <trkpt lat="42.84105" lon="2.47928">
        <ele>385.072738</ele>
        <time>2016-06-03T12:43:45Z</time>
      </trkpt>
      <trkpt lat="42.84104" lon="2.47925">
        <ele>385.06032</ele>
        <time>2016-06-03T12:43:48Z</time>
      </trkpt>
      <trkpt lat="42.84104" lon="2.47918">
        <ele>384.990387</ele>
        <time>2016-06-03T12:43:56Z</time>
      </trkpt>
      <trkpt lat="42.84102" lon="2.47911">
        <ele>385.523742</ele>
        <time>2016-06-03T12:44:07Z</time>
      </trkpt>
      <trkpt lat="42.84101" lon="2.47907">
        <ele>385.635101</ele>
        <time>2016-06-03T12:44:48Z</time>
      </trkpt>
      <trkpt lat="42.84099" lon="2.4791">
        <ele>385.291798</ele>
        <time>2016-06-03T12:44:50Z</time>
      </trkpt>
      <trkpt lat="42.841" lon="2.47909">
        <ele>385.519863</ele>
        <time>2016-06-03T12:44:52Z</time>
      </trkpt>
      <trkpt lat="42.84106" lon="2.47904">
        <ele>385.457218</ele>
        <time>2016-06-03T12:44:57Z</time>
      </trkpt>
      <trkpt lat="42.8411" lon="2.47898">
        <ele>384.286695</ele>
        <time>2016-06-03T12:45:06Z</time>
      </trkpt>
      <trkpt lat="42.84107" lon="2.479">
        <ele>384.329075</ele>
        <time>2016-06-03T12:45:07Z</time>
      </trkpt>
      <trkpt lat="42.84096" lon="2.47894">
        <ele>385.012177</ele>
        <time>2016-06-03T12:45:11Z</time>
      </trkpt>
      <trkpt lat="42.84085" lon="2.47877">
        <ele>385.273942</ele>
        <time>2016-06-03T12:45:13Z</time>
      </trkpt>
      <trkpt lat="42.84082" lon="2.47868">
        <ele>385.517573</ele>
        <time>2016-06-03T12:45:14Z</time>
      </trkpt>
      <trkpt lat="42.84072" lon="2.47867">
        <ele>385.597982</ele>
        <time>2016-06-03T12:45:16Z</time>
      </trkpt>
      <trkpt lat="42.84068" lon="2.47867">
        <ele>385.799815</ele>
        <time>2016-06-03T12:45:17Z</time>
      </trkpt>
      <trkpt lat="42.84064" lon="2.47854">
        <ele>385.139385</ele>
        <time>2016-06-03T12:45:19Z</time>
      </trkpt>
      <trkpt lat="42.84059" lon="2.47869">
        <ele>385.25118</ele>
        <time>2016-06-03T12:45:20Z</time>
      </trkpt>
      <trkpt lat="42.8406" lon="2.47861">
        <ele>385.517477</ele>
        <time>2016-06-03T12:45:21Z</time>
      </trkpt>
      <trkpt lat="42.84056" lon="2.4787">
        <ele>385.44892</ele>
        <time>2016-06-03T12:45:23Z</time>
      </trkpt>
      <trkpt lat="42.84054" lon="2.47869">
        <ele>385.734808</ele>
        <time>2016-06-03T12:45:26Z</time>
      </trkpt>
      <trkpt lat="42.84054" lon="2.4787">
        <ele>385.805896</ele>
        <time>2016-06-03T12:45:39Z</time>
      </trkpt>
      <trkpt lat="42.84053" lon="2.47863">
        <ele>385.609453</ele>
        <time>2016-06-03T12:45:51Z</time>
      </trkpt>
      <trkpt lat="42.84053" lon="2.47863">
        <ele>385.746637</ele>
        <time>2016-06-03T12:46:16Z</time>
      </trkpt>
      <trkpt lat="42.84053" lon="2.47856">
        <ele>385.804201</ele>
        <time>2016-06-03T12:46:26Z</time>
      </trkpt>
      <trkpt lat="42.84052" lon="2.47857">
        <ele>385.576407</ele>
        <time>2016-06-03T12:46:48Z</time>
      </trkpt>
      <trkpt lat="42.84048" lon="2.47868">
        <ele>385.094072</ele>
        <time>2016-06-03T12:46:51Z</time>
      </trkpt>
      <trkpt lat="42.84042" lon="2.47876">
        <ele>385.327064</ele>
        <time>2016-06-03T12:46:53Z</time>
      </trkpt>
      <trkpt lat="42.84032" lon="2.47882">
        <ele>385.27334</ele>
        <time>2016-06-03T12:46:54Z</time>
      </trkpt>
      <trkpt lat="42.84025" lon="2.47898">
        <ele>385.560115</ele>
        <time>2016-06-03T12:46:55Z</time>
      </trkpt>
      <trkpt lat="42.84013" lon="2.47905">
        <ele>385.714717</ele>
        <time>2016-06-03T12:46:57Z</time>
      </trkpt>
      <trkpt lat="42.84006" lon="2.47913">
        <ele>385.666322</ele>
        <time>2016-06-03T12:46:58Z</time>
      </trkpt>
      <trkpt lat="42.84002" lon="2.47912">
        <ele>385.558794</ele>
        <time>2016-06-03T12:46:59Z</time>
      </trkpt>
      <trkpt lat="42.83995" lon="2.47921">
        <ele>385.429736</ele>
        <time>2016-06-03T12:47:00Z</time>
      </trkpt>
      <trkpt lat="42.83982" lon="2.47924">
        <ele>385.849015</ele>
        <time>2016-06-03T12:47:03Z</time>
      </trkpt>
      <trkpt lat="42.83977" lon="2.47922">
        <ele>386.104798</ele>
        <time>2016-06-03T12:47:04Z</time>
      </trkpt>
      <trkpt lat="42.83963" lon="2.47931">
        <ele>386.286552</ele>
        <time>2016-06-03T12:47:06Z</time>
      </trkpt>
      <trkpt lat="42.83958" lon="2.47929">
        <ele>385.949055</ele>
        <time>2016-06-03T12:47:07Z</time>
      </trkpt>
      <trkpt lat="42.83958" lon="2.47926">
        <ele>386.005078</ele>
        <time>2016-06-03T12:47:08Z</time>
      </trkpt>
      <trkpt lat="42.83946" lon="2.47941">
        <ele>386.627842</ele>
        <time>2016-06-03T12:47:10Z</time>
      </trkpt>
      <trkpt lat="42.83934" lon="2.47944">
        <ele>386.745298</ele>
        <time>2016-06-03T12:47:13Z</time>
      </trkpt>
      <trkpt lat="42.83921" lon="2.47966">
        <ele>386.81478</ele>
        <time>2016-06-03T12:47:15Z</time>
      </trkpt>
      <trkpt lat="42.83914" lon="2.47973">
        <ele>387.073683</ele>
        <time>2016-06-03T12:47:17Z</time>
      </trkpt>
      <trkpt lat="42.83912" lon="2.47978">
        <ele>386.982061</ele>
        <time>2016-06-03T12:47:18Z</time>
      </trkpt>
      <trkpt lat="42.83909" lon="2.47981">
        <ele>387.078741</ele>
        <time>2016-06-03T12:47:20Z</time>
      </trkpt>
      <trkpt lat="42.8391" lon="2.47976">
        <ele>387.154127</ele>
        <time>2016-06-03T12:47:21Z</time>
      </trkpt>
      <trkpt lat="42.83905" lon="2.47985">
        <ele>387.154127</ele>
        <time>2016-06-03T12:47:22Z</time>
      </trkpt>
      <trkpt lat="42.83906" lon="2.4798">
        <ele>387.221891</ele>
        <time>2016-06-03T12:47:24Z</time>
      </trkpt>
      <trkpt lat="42.83903" lon="2.47973">
        <ele>386.99745</ele>
        <time>2016-06-03T12:47:27Z</time>
      </trkpt>
      <trkpt lat="42.83904" lon="2.47973">
        <ele>387.563315</ele>
        <time>2016-06-03T12:47:31Z</time>
      </trkpt>
      <trkpt lat="42.83902" lon="2.47974">
        <ele>387.486102</ele>
        <time>2016-06-03T12:47:32Z</time>
      </trkpt>
      <trkpt lat="42.83902" lon="2.47972">
        <ele>387.637888</ele>
        <time>2016-06-03T12:47:41Z</time>
      </trkpt>
      <trkpt lat="42.83901" lon="2.47973">
        <ele>387.396553</ele>
        <time>2016-06-03T12:47:47Z</time>
      </trkpt>
      <trkpt lat="42.83899" lon="2.47973">
        <ele>387.584063</ele>
        <time>2016-06-03T12:47:49Z</time>
      </trkpt>
      <trkpt lat="42.83898" lon="2.47974">
        <ele>388.106143</ele>
        <time>2016-06-03T12:47:53Z</time>
      </trkpt>
      <trkpt lat="42.83898" lon="2.47974">
        <ele>387.878569</ele>
        <time>2016-06-03T12:47:55Z</time>
      </trkpt>
      <trkpt lat="42.83898" lon="2.47973">
        <ele>387.795688</ele>
        <time>2016-06-03T12:47:58Z</time>
      </trkpt>
      <trkpt lat="42.83897" lon="2.47973">
        <ele>387.052395</ele>
        <time>2016-06-03T12:48:08Z</time>
      </trkpt>
      <trkpt lat="42.83897" lon="2.47979">
        <ele>387.569217</ele>
        <time>2016-06-03T12:48:16Z</time>
      </trkpt>
      <trkpt lat="42.83898" lon="2.47979">
        <ele>387.497005</ele>
        <time>2016-06-03T12:48:18Z</time>
      </trkpt>
      <trkpt lat="42.83899" lon="2.4798">
        <ele>387.481473</ele>
        <time>2016-06-03T12:48:29Z</time>
      </trkpt>
      <trkpt lat="42.83899" lon="2.47982">
        <ele>387.417549</ele>
        <time>2016-06-03T12:48:33Z</time>
      </trkpt>
      <trkpt lat="42.83899" lon="2.47983">
        <ele>387.802801</ele>
        <time>2016-06-03T12:48:35Z</time>
      </trkpt>
      <trkpt lat="42.83901" lon="2.47981">
        <ele>387.592132</ele>
        <time>2016-06-03T12:48:38Z</time>
      </trkpt>
      <trkpt lat="42.83901" lon="2.4798">
        <ele>387.442273</ele>
        <time>2016-06-03T12:48:43Z</time>
      </trkpt>
      <trkpt lat="42.83896" lon="2.47977">
        <ele>387.249341</ele>
        <time>2016-06-03T12:48:47Z</time>
      </trkpt>
      <trkpt lat="42.83883" lon="2.47973">
        <ele>387.054991</ele>
        <time>2016-06-03T12:48:50Z</time>
      </trkpt>
      <trkpt lat="42.83857" lon="2.47978">
        <ele>387.668421</ele>
        <time>2016-06-03T12:48:54Z</time>
      </trkpt>
      <trkpt lat="42.83845" lon="2.47988">
        <ele>387.640268</ele>
        <time>2016-06-03T12:48:57Z</time>
      </trkpt>
      <trkpt lat="42.8384" lon="2.47994">
        <ele>387.955725</ele>
        <time>2016-06-03T12:48:58Z</time>
      </trkpt>
      <trkpt lat="42.83834" lon="2.48021">
        <ele>388.117587</ele>
        <time>2016-06-03T12:49:01Z</time>
      </trkpt>
      <trkpt lat="42.83835" lon="2.48041">
        <ele>388.775999</ele>
        <time>2016-06-03T12:49:03Z</time>
      </trkpt>
      <trkpt lat="42.83842" lon="2.48073">
        <ele>388.890991</ele>
        <time>2016-06-03T12:49:06Z</time>
      </trkpt>
      <trkpt lat="42.83843" lon="2.48093">
        <ele>389.084128</ele>
        <time>2016-06-03T12:49:08Z</time>
      </trkpt>
      <trkpt lat="42.83837" lon="2.48113">
        <ele>389.370125</ele>
        <time>2016-06-03T12:49:10Z</time>
      </trkpt>
      <trkpt lat="42.83824" lon="2.48137">
        <ele>389.636347</ele>
        <time>2016-06-03T12:49:13Z</time>
      </trkpt>
      <trkpt lat="42.83813" lon="2.48152">
        <ele>389.393349</ele>
        <time>2016-06-03T12:49:18Z</time>
      </trkpt>
      <trkpt lat="42.83813" lon="2.48153">
        <ele>389.402261</ele>
        <time>2016-06-03T12:49:19Z</time>
      </trkpt>
      <trkpt lat="42.83813" lon="2.48152">
        <ele>389.279229</ele>
        <time>2016-06-03T12:49:25Z</time>
      </trkpt>
      <trkpt lat="42.83812" lon="2.48153">
        <ele>389.232233</ele>
        <time>2016-06-03T12:49:35Z</time>
      </trkpt>
      <trkpt lat="42.8381" lon="2.48154">
        <ele>389.308321</ele>
        <time>2016-06-03T12:49:45Z</time>
      </trkpt>
      <trkpt lat="42.8381" lon="2.48153">
        <ele>389.256085</ele>
        <time>2016-06-03T12:49:54Z</time>
      </trkpt>
      <trkpt lat="42.83809" lon="2.48151">
        <ele>389.182091</ele>
        <time>2016-06-03T12:49:57Z</time>
      </trkpt>
      <trkpt lat="42.83809" lon="2.48151">
        <ele>389.088114</ele>
        <time>2016-06-03T12:50:07Z</time>
      </trkpt>
      <trkpt lat="42.83812" lon="2.48147">
        <ele>389.085616</ele>
        <time>2016-06-03T12:50:09Z</time>
      </trkpt>
      <trkpt lat="42.83814" lon="2.48139">
        <ele>388.755031</ele>
        <time>2016-06-03T12:50:12Z</time>
      </trkpt>
      <trkpt lat="42.83815" lon="2.48126">
        <ele>386.446152</ele>
        <time>2016-06-03T12:50:16Z</time>
      </trkpt>
      <trkpt lat="42.83816" lon="2.48122">
        <ele>386.366047</ele>
        <time>2016-06-03T12:50:27Z</time>
      </trkpt>
      <trkpt lat="42.83815" lon="2.48124">
        <ele>386.553492</ele>
        <time>2016-06-03T12:50:37Z</time>
      </trkpt>
      <trkpt lat="42.83815" lon="2.48124">
        <ele>386.774361</ele>
        <time>2016-06-03T12:50:55Z</time>
      </trkpt>
      <trkpt lat="42.83815" lon="2.48123">
        <ele>386.871088</ele>
        <time>2016-06-03T12:51:05Z</time>
      </trkpt>
      <trkpt lat="42.83817" lon="2.48121">
        <ele>386.597857</ele>
        <time>2016-06-03T12:52:33Z</time>
      </trkpt>
      <trkpt lat="42.83817" lon="2.48121">
        <ele>386.428722</ele>
        <time>2016-06-03T12:52:58Z</time>
      </trkpt>
      <trkpt lat="42.83816" lon="2.48123">
        <ele>386.471686</ele>
        <time>2016-06-03T12:53:01Z</time>
      </trkpt>
      <trkpt lat="42.83816" lon="2.48123">
        <ele>386.453068</ele>
        <time>2016-06-03T12:53:13Z</time>
      </trkpt>
      <trkpt lat="42.83816" lon="2.48123">
        <ele>386.895546</ele>
        <time>2016-06-03T12:53:51Z</time>
      </trkpt>
      <trkpt lat="42.83812" lon="2.48122">
        <ele>387.03366</ele>
        <time>2016-06-03T12:54:01Z</time>
      </trkpt>
      <trkpt lat="42.83812" lon="2.48119">
        <ele>386.769031</ele>
        <time>2016-06-03T12:54:08Z</time>
      </trkpt>
      <trkpt lat="42.83812" lon="2.48118">
        <ele>387.115181</ele>
        <time>2016-06-03T12:54:12Z</time>
      </trkpt>
      <trkpt lat="42.83809" lon="2.48119">
        <ele>387.152377</ele>
        <time>2016-06-03T12:54:16Z</time>
      </trkpt>
      <trkpt lat="42.83806" lon="2.4812">
        <ele>387.05488</ele>
        <time>2016-06-03T12:54:18Z</time>
      </trkpt>
      <trkpt lat="42.83805" lon="2.48124">
        <ele>387.13505</ele>
        <time>2016-06-03T12:54:20Z</time>
      </trkpt>
      <trkpt lat="42.83806" lon="2.48129">
        <ele>387.36824</ele>
        <time>2016-06-03T12:54:22Z</time>
      </trkpt>
      <trkpt lat="42.8381" lon="2.48135">
        <ele>387.624996</ele>
        <time>2016-06-03T12:54:25Z</time>
      </trkpt>
      <trkpt lat="42.83814" lon="2.48143">
        <ele>387.923279</ele>
        <time>2016-06-03T12:54:28Z</time>
      </trkpt>
      <trkpt lat="42.83814" lon="2.48149">
        <ele>388.23425</ele>
        <time>2016-06-03T12:54:30Z</time>
      </trkpt>
      <trkpt lat="42.83811" lon="2.48155">
        <ele>388.559691</ele>
        <time>2016-06-03T12:54:32Z</time>
      </trkpt>
      <trkpt lat="42.83803" lon="2.48161">
        <ele>388.471071</ele>
        <time>2016-06-03T12:54:35Z</time>
      </trkpt>
      <trkpt lat="42.83757" lon="2.48188">
        <ele>389.31486</ele>
        <time>2016-06-03T12:54:43Z</time>
      </trkpt>
      <trkpt lat="42.83735" lon="2.48194">
        <ele>389.213179</ele>
        <time>2016-06-03T12:54:45Z</time>
      </trkpt>
      <trkpt lat="42.83725" lon="2.48194">
        <ele>389.064955</ele>
        <time>2016-06-03T12:54:47Z</time>
      </trkpt>
      <trkpt lat="42.83717" lon="2.48193">
        <ele>388.750735</ele>
        <time>2016-06-03T12:54:49Z</time>
      </trkpt>
      <trkpt lat="42.83703" lon="2.48195">
        <ele>389.277426</ele>
        <time>2016-06-03T12:54:53Z</time>
      </trkpt>
      <trkpt lat="42.83687" lon="2.482">
        <ele>388.882559</ele>
        <time>2016-06-03T12:54:56Z</time>
      </trkpt>
      <trkpt lat="42.83678" lon="2.482">
        <ele>388.745037</ele>
        <time>2016-06-03T12:54:58Z</time>
      </trkpt>
      <trkpt lat="42.83667" lon="2.48195">
        <ele>388.29444</ele>
        <time>2016-06-03T12:55:01Z</time>
      </trkpt>
      <trkpt lat="42.83666" lon="2.48189">
        <ele>388.898657</ele>
        <time>2016-06-03T12:55:10Z</time>
      </trkpt>
      <trkpt lat="42.83666" lon="2.48187">
        <ele>388.329825</ele>
        <time>2016-06-03T12:55:24Z</time>
      </trkpt>
      <trkpt lat="42.83657" lon="2.4818">
        <ele>387.739139</ele>
        <time>2016-06-03T12:55:28Z</time>
      </trkpt>
      <trkpt lat="42.8364" lon="2.48175">
        <ele>388.394522</ele>
        <time>2016-06-03T12:55:30Z</time>
      </trkpt>
      <trkpt lat="42.83626" lon="2.48168">
        <ele>388.532136</ele>
        <time>2016-06-03T12:55:32Z</time>
      </trkpt>
      <trkpt lat="42.8361" lon="2.48151">
        <ele>388.573862</ele>
        <time>2016-06-03T12:55:35Z</time>
      </trkpt>
      <trkpt lat="42.83596" lon="2.48125">
        <ele>388.03217</ele>
        <time>2016-06-03T12:55:38Z</time>
      </trkpt>
      <trkpt lat="42.83587" lon="2.48109">
        <ele>388.022519</ele>
        <time>2016-06-03T12:55:40Z</time>
      </trkpt>
      <trkpt lat="42.83578" lon="2.48076">
        <ele>388.122493</ele>
        <time>2016-06-03T12:55:44Z</time>
      </trkpt>
      <trkpt lat="42.83578" lon="2.48067">
        <ele>388.057784</ele>
        <time>2016-06-03T12:55:45Z</time>
      </trkpt>
      <trkpt lat="42.83574" lon="2.48057">
        <ele>388.395284</ele>
        <time>2016-06-03T12:55:47Z</time>
      </trkpt>
      <trkpt lat="42.83576" lon="2.48047">
        <ele>388.716386</ele>
        <time>2016-06-03T12:55:49Z</time>
      </trkpt>
      <trkpt lat="42.83575" lon="2.48036">
        <ele>388.246372</ele>
        <time>2016-06-03T12:55:52Z</time>
      </trkpt>
      <trkpt lat="42.83574" lon="2.48033">
        <ele>388.343957</ele>
        <time>2016-06-03T12:55:54Z</time>
      </trkpt>
      <trkpt lat="42.83573" lon="2.48031">
        <ele>388.373717</ele>
        <time>2016-06-03T12:55:56Z</time>
      </trkpt>
      <trkpt lat="42.83572" lon="2.48027">
        <ele>388.294993</ele>
        <time>2016-06-03T12:55:59Z</time>
      </trkpt>
      <trkpt lat="42.83569" lon="2.48018">
        <ele>388.065343</ele>
        <time>2016-06-03T12:56:03Z</time>
      </trkpt>
      <trkpt lat="42.83567" lon="2.4801">
        <ele>388.256382</ele>
        <time>2016-06-03T12:56:05Z</time>
      </trkpt>
      <trkpt lat="42.83568" lon="2.48">
        <ele>387.954012</ele>
        <time>2016-06-03T12:56:07Z</time>
      </trkpt>
      <trkpt lat="42.83572" lon="2.47989">
        <ele>387.425311</ele>
        <time>2016-06-03T12:56:10Z</time>
      </trkpt>
      <trkpt lat="42.83574" lon="2.47984">
        <ele>387.853376</ele>
        <time>2016-06-03T12:56:19Z</time>
      </trkpt>
      <trkpt lat="42.83573" lon="2.47984">
        <ele>387.803848</ele>
        <time>2016-06-03T12:56:28Z</time>
      </trkpt>
      <trkpt lat="42.83572" lon="2.4798">
        <ele>387.837166</ele>
        <time>2016-06-03T12:56:30Z</time>
      </trkpt>
      <trkpt lat="42.8357" lon="2.47975">
        <ele>387.817321</ele>
        <time>2016-06-03T12:56:33Z</time>
      </trkpt>
      <trkpt lat="42.83568" lon="2.47973">
        <ele>387.692923</ele>
        <time>2016-06-03T12:56:36Z</time>
      </trkpt>
      <trkpt lat="42.83568" lon="2.47971">
        <ele>387.815966</ele>
        <time>2016-06-03T12:56:48Z</time>
      </trkpt>
      <trkpt lat="42.8357" lon="2.4797">
        <ele>387.504482</ele>
        <time>2016-06-03T12:56:50Z</time>
      </trkpt>
      <trkpt lat="42.8357" lon="2.47972">
        <ele>388.287666</ele>
        <time>2016-06-03T12:56:59Z</time>
      </trkpt>
      <trkpt lat="42.83572" lon="2.47972">
        <ele>388.16077</ele>
        <time>2016-06-03T12:57:13Z</time>
      </trkpt>
      <trkpt lat="42.83574" lon="2.47973">
        <ele>387.712271</ele>
        <time>2016-06-03T12:57:16Z</time>
      </trkpt>
      <trkpt lat="42.83578" lon="2.47975">
        <ele>387.749889</ele>
        <time>2016-06-03T12:57:20Z</time>
      </trkpt>
      <trkpt lat="42.83578" lon="2.47977">
        <ele>388.442806</ele>
        <time>2016-06-03T12:57:32Z</time>
      </trkpt>
      <trkpt lat="42.83575" lon="2.47978">
        <ele>387.950399</ele>
        <time>2016-06-03T12:57:37Z</time>
      </trkpt>
      <trkpt lat="42.83578" lon="2.47977">
        <ele>387.68518</ele>
        <time>2016-06-03T12:57:40Z</time>
      </trkpt>
      <trkpt lat="42.8358" lon="2.47978">
        <ele>387.787802</ele>
        <time>2016-06-03T12:57:42Z</time>
      </trkpt>
      <trkpt lat="42.8358" lon="2.47979">
        <ele>387.553487</ele>
        <time>2016-06-03T12:57:55Z</time>
      </trkpt>
      <trkpt lat="42.83579" lon="2.47982">
        <ele>387.58017</ele>
        <time>2016-06-03T12:58:06Z</time>
      </trkpt>
      <trkpt lat="42.83579" lon="2.4798">
        <ele>387.236261</ele>
        <time>2016-06-03T12:58:43Z</time>
      </trkpt>
      <trkpt lat="42.83577" lon="2.47979">
        <ele>387.515729</ele>
        <time>2016-06-03T12:58:46Z</time>
      </trkpt>
      <trkpt lat="42.83574" lon="2.47977">
        <ele>387.363285</ele>
        <time>2016-06-03T12:58:49Z</time>
      </trkpt>
      <trkpt lat="42.83573" lon="2.47973">
        <ele>387.591149</ele>
        <time>2016-06-03T12:58:53Z</time>
      </trkpt>
      <trkpt lat="42.83574" lon="2.47969">
        <ele>387.688971</ele>
        <time>2016-06-03T12:58:55Z</time>
      </trkpt>
      <trkpt lat="42.83576" lon="2.47967">
        <ele>387.765912</ele>
        <time>2016-06-03T12:59:04Z</time>
      </trkpt>
      <trkpt lat="42.83572" lon="2.47968">
        <ele>387.873884</ele>
        <time>2016-06-03T12:59:13Z</time>
      </trkpt>
      <trkpt lat="42.83575" lon="2.47964">
        <ele>387.534359</ele>
        <time>2016-06-03T13:00:31Z</time>
      </trkpt>
      <trkpt lat="42.83576" lon="2.47962">
        <ele>387.471918</ele>
        <time>2016-06-03T13:00:43Z</time>
      </trkpt>
      <trkpt lat="42.83575" lon="2.47962">
        <ele>387.451868</ele>
        <time>2016-06-03T13:00:47Z</time>
      </trkpt>
      <trkpt lat="42.83574" lon="2.47964">
        <ele>387.374612</ele>
        <time>2016-06-03T13:00:58Z</time>
      </trkpt>
      <trkpt lat="42.83573" lon="2.47965">
        <ele>387.067391</ele>
        <time>2016-06-03T13:01:11Z</time>
      </trkpt>
      <trkpt lat="42.83575" lon="2.47964">
        <ele>387.068524</ele>
        <time>2016-06-03T13:01:21Z</time>
      </trkpt>
      <trkpt lat="42.83577" lon="2.47964">
        <ele>387.074743</ele>
        <time>2016-06-03T13:01:22Z</time>
      </trkpt>
      <trkpt lat="42.83575" lon="2.47966">
        <ele>387.08081</ele>
        <time>2016-06-03T13:01:25Z</time>
      </trkpt>
      <trkpt lat="42.83574" lon="2.47967">
        <ele>387.283673</ele>
        <time>2016-06-03T13:01:31Z</time>
      </trkpt>
      <trkpt lat="42.83573" lon="2.47967">
        <ele>387.277381</ele>
        <time>2016-06-03T13:01:40Z</time>
      </trkpt>
      <trkpt lat="42.83573" lon="2.47968">
        <ele>387.375234</ele>
        <time>2016-06-03T13:01:49Z</time>
      </trkpt>
      <trkpt lat="42.83571" lon="2.47968">
        <ele>386.93835</ele>
        <time>2016-06-03T13:02:29Z</time>
      </trkpt>
      <trkpt lat="42.8357" lon="2.47972">
        <ele>387.016524</ele>
        <time>2016-06-03T13:02:33Z</time>
      </trkpt>
      <trkpt lat="42.8357" lon="2.47974">
        <ele>386.906947</ele>
        <time>2016-06-03T13:02:35Z</time>
      </trkpt>
      <trkpt lat="42.83571" lon="2.47975">
        <ele>386.608208</ele>
        <time>2016-06-03T13:02:37Z</time>
      </trkpt>
      <trkpt lat="42.83573" lon="2.47973">
        <ele>386.765357</ele>
        <time>2016-06-03T13:02:39Z</time>
      </trkpt>
      <trkpt lat="42.83574" lon="2.47965">
        <ele>386.84366</ele>
        <time>2016-06-03T13:02:41Z</time>
      </trkpt>
      <trkpt lat="42.83573" lon="2.47955">
        <ele>386.673524</ele>
        <time>2016-06-03T13:02:45Z</time>
      </trkpt>
      <trkpt lat="42.83573" lon="2.47953">
        <ele>386.763668</ele>
        <time>2016-06-03T13:02:47Z</time>
      </trkpt>
      <trkpt lat="42.83574" lon="2.47953">
        <ele>387.204921</ele>
        <time>2016-06-03T13:02:49Z</time>
      </trkpt>
      <trkpt lat="42.83575" lon="2.4796">
        <ele>386.975169</ele>
        <time>2016-06-03T13:02:52Z</time>
      </trkpt>
      <trkpt lat="42.83574" lon="2.47966">
        <ele>387.054852</ele>
        <time>2016-06-03T13:02:55Z</time>
      </trkpt>
      <trkpt lat="42.83575" lon="2.47973">
        <ele>387.504855</ele>
        <time>2016-06-03T13:02:58Z</time>
      </trkpt>
      <trkpt lat="42.83575" lon="2.47979">
        <ele>387.284923</ele>
        <time>2016-06-03T13:03:00Z</time>
      </trkpt>
      <trkpt lat="42.83572" lon="2.47981">
        <ele>387.326493</ele>
        <time>2016-06-03T13:03:02Z</time>
      </trkpt>
      <trkpt lat="42.83573" lon="2.47989">
        <ele>387.459431</ele>
        <time>2016-06-03T13:03:06Z</time>
      </trkpt>
      <trkpt lat="42.83573" lon="2.47996">
        <ele>387.492088</ele>
        <time>2016-06-03T13:03:09Z</time>
      </trkpt>
      <trkpt lat="42.83574" lon="2.48001">
        <ele>387.820544</ele>
        <time>2016-06-03T13:03:11Z</time>
      </trkpt>
      <trkpt lat="42.8357" lon="2.48006">
        <ele>388.101012</ele>
        <time>2016-06-03T13:03:14Z</time>
      </trkpt>
      <trkpt lat="42.8357" lon="2.48008">
        <ele>387.644896</ele>
        <time>2016-06-03T13:03:16Z</time>
      </trkpt>
      <trkpt lat="42.83571" lon="2.48014">
        <ele>387.756877</ele>
        <time>2016-06-03T13:03:19Z</time>
      </trkpt>
      <trkpt lat="42.8357" lon="2.4802">
        <ele>388.080853</ele>
        <time>2016-06-03T13:03:22Z</time>
      </trkpt>
      <trkpt lat="42.83569" lon="2.48024">
        <ele>388.221655</ele>
        <time>2016-06-03T13:03:25Z</time>
      </trkpt>
      <trkpt lat="42.8357" lon="2.48026">
        <ele>388.381729</ele>
        <time>2016-06-03T13:03:27Z</time>
      </trkpt>
      <trkpt lat="42.8357" lon="2.48027">
        <ele>388.247276</ele>
        <time>2016-06-03T13:03:29Z</time>
      </trkpt>
      <trkpt lat="42.8356" lon="2.4803">
        <ele>388.220064</ele>
        <time>2016-06-03T13:03:33Z</time>
      </trkpt>
      <trkpt lat="42.83557" lon="2.48031">
        <ele>388.355548</ele>
        <time>2016-06-03T13:03:35Z</time>
      </trkpt>
      <trkpt lat="42.83556" lon="2.48034">
        <ele>388.117808</ele>
        <time>2016-06-03T13:03:37Z</time>
      </trkpt>
      <trkpt lat="42.83556" lon="2.48025">
        <ele>388.107784</ele>
        <time>2016-06-03T13:03:41Z</time>
      </trkpt>
      <trkpt lat="42.83555" lon="2.48022">
        <ele>388.193171</ele>
        <time>2016-06-03T13:03:44Z</time>
      </trkpt>
      <trkpt lat="42.83554" lon="2.48021">
        <ele>388.176476</ele>
        <time>2016-06-03T13:03:45Z</time>
      </trkpt>
      <trkpt lat="42.83549" lon="2.48028">
        <ele>387.867545</ele>
        <time>2016-06-03T13:03:49Z</time>
      </trkpt>
      <trkpt lat="42.83547" lon="2.48031">
        <ele>388.358401</ele>
        <time>2016-06-03T13:03:52Z</time>
      </trkpt>
      <trkpt lat="42.83545" lon="2.48036">
        <ele>388.3815</ele>
        <time>2016-06-03T13:04:02Z</time>
      </trkpt>
      <trkpt lat="42.83551" lon="2.4803">
        <ele>386.109772</ele>
        <time>2016-06-03T13:04:25Z</time>
      </trkpt>
      <trkpt lat="42.8355" lon="2.4803">
        <ele>386.109772</ele>
        <time>2016-06-03T13:04:25Z</time>
      </trkpt>
      <trkpt lat="42.83557" lon="2.48023">
        <ele>386.031189</ele>
        <time>2016-06-03T13:04:46Z</time>
      </trkpt>
      <trkpt lat="42.8359" lon="2.48041">
        <ele>388.694822</ele>
        <time>2016-06-03T13:05:48Z</time>
      </trkpt>
      <trkpt lat="42.83592" lon="2.48037">
        <ele>388.653728</ele>
        <time>2016-06-03T13:05:49Z</time>
      </trkpt>
      <trkpt lat="42.8356" lon="2.48028">
        <ele>388.802529</ele>
        <time>2016-06-03T13:05:51Z</time>
      </trkpt>
      <trkpt lat="42.83557" lon="2.48026">
        <ele>388.778162</ele>
        <time>2016-06-03T13:05:54Z</time>
      </trkpt>
      <trkpt lat="42.83556" lon="2.48025">
        <ele>388.821662</ele>
        <time>2016-06-03T13:05:56Z</time>
      </trkpt>
      <trkpt lat="42.83557" lon="2.48025">
        <ele>388.85571</ele>
        <time>2016-06-03T13:05:58Z</time>
      </trkpt>
      <trkpt lat="42.83556" lon="2.48024">
        <ele>388.92244</ele>
        <time>2016-06-03T13:06:07Z</time>
      </trkpt>
      <trkpt lat="42.83556" lon="2.48024">
        <ele>390.628188</ele>
        <time>2016-06-03T13:17:22Z</time>
      </trkpt>
      <trkpt lat="42.83559" lon="2.48025">
        <ele>390.452242</ele>
        <time>2016-06-03T13:17:31Z</time>
      </trkpt>
      <trkpt lat="42.83561" lon="2.48025">
        <ele>390.578325</ele>
        <time>2016-06-03T13:18:11Z</time>
      </trkpt>
      <trkpt lat="42.8356" lon="2.48026">
        <ele>390.679431</ele>
        <time>2016-06-03T13:18:13Z</time>
      </trkpt>
      <trkpt lat="42.83561" lon="2.48026">
        <ele>391.080626</ele>
        <time>2016-06-03T13:18:15Z</time>
      </trkpt>
      <trkpt lat="42.83563" lon="2.48024">
        <ele>391.585809</ele>
        <time>2016-06-03T13:18:17Z</time>
      </trkpt>
      <trkpt lat="42.83563" lon="2.48019">
        <ele>387.084728</ele>
        <time>2016-06-03T13:18:20Z</time>
      </trkpt>
      <trkpt lat="42.83564" lon="2.48015">
        <ele>386.518838</ele>
        <time>2016-06-03T13:18:23Z</time>
      </trkpt>
      <trkpt lat="42.83567" lon="2.4801">
        <ele>386.326354</ele>
        <time>2016-06-03T13:18:27Z</time>
      </trkpt>
      <trkpt lat="42.83569" lon="2.48007">
        <ele>386.043525</ele>
        <time>2016-06-03T13:18:30Z</time>
      </trkpt>
      <trkpt lat="42.83569" lon="2.48007">
        <ele>386.148336</ele>
        <time>2016-06-03T13:18:32Z</time>
      </trkpt>
      <trkpt lat="42.83571" lon="2.48004">
        <ele>386.307984</ele>
        <time>2016-06-03T13:18:35Z</time>
      </trkpt>
      <trkpt lat="42.83572" lon="2.48001">
        <ele>385.918673</ele>
        <time>2016-06-03T13:18:38Z</time>
      </trkpt>
      <trkpt lat="42.83573" lon="2.47999">
        <ele>386.258039</ele>
        <time>2016-06-03T13:18:40Z</time>
      </trkpt>
      <trkpt lat="42.83571" lon="2.47994">
        <ele>385.755911</ele>
        <time>2016-06-03T13:18:44Z</time>
      </trkpt>
      <trkpt lat="42.8357" lon="2.47992">
        <ele>386.025668</ele>
        <time>2016-06-03T13:18:46Z</time>
      </trkpt>
      <trkpt lat="42.83568" lon="2.4799">
        <ele>385.744979</ele>
        <time>2016-06-03T13:18:49Z</time>
      </trkpt>
      <trkpt lat="42.83567" lon="2.47987">
        <ele>385.803566</ele>
        <time>2016-06-03T13:18:51Z</time>
      </trkpt>
      <trkpt lat="42.83567" lon="2.4798">
        <ele>385.629917</ele>
        <time>2016-06-03T13:18:55Z</time>
      </trkpt>
      <trkpt lat="42.83567" lon="2.47975">
        <ele>385.619938</ele>
        <time>2016-06-03T13:18:59Z</time>
      </trkpt>
      <trkpt lat="42.83567" lon="2.47973">
        <ele>385.870475</ele>
        <time>2016-06-03T13:19:10Z</time>
      </trkpt>
      <trkpt lat="42.83568" lon="2.47972">
        <ele>385.842681</ele>
        <time>2016-06-03T13:19:36Z</time>
      </trkpt>
      <trkpt lat="42.83568" lon="2.47972">
        <ele>386.028686</ele>
        <time>2016-06-03T13:19:44Z</time>
      </trkpt>
      <trkpt lat="42.83563" lon="2.47973">
        <ele>386.242566</ele>
        <time>2016-06-03T13:19:54Z</time>
      </trkpt>
      <trkpt lat="42.83563" lon="2.47974">
        <ele>385.697273</ele>
        <time>2016-06-03T13:20:44Z</time>
      </trkpt>
      <trkpt lat="42.83565" lon="2.47975">
        <ele>385.615478</ele>
        <time>2016-06-03T13:20:48Z</time>
      </trkpt>
      <trkpt lat="42.83564" lon="2.47979">
        <ele>385.790952</ele>
        <time>2016-06-03T13:20:51Z</time>
      </trkpt>
      <trkpt lat="42.83562" lon="2.4799">
        <ele>385.962755</ele>
        <time>2016-06-03T13:20:54Z</time>
      </trkpt>
      <trkpt lat="42.83562" lon="2.48008">
        <ele>385.694234</ele>
        <time>2016-06-03T13:20:58Z</time>
      </trkpt>
      <trkpt lat="42.83562" lon="2.48021">
        <ele>386.087932</ele>
        <time>2016-06-03T13:21:01Z</time>
      </trkpt>
      <trkpt lat="42.8356" lon="2.4803">
        <ele>385.91017</ele>
        <time>2016-06-03T13:21:03Z</time>
      </trkpt>
      <trkpt lat="42.83555" lon="2.48041">
        <ele>386.327618</ele>
        <time>2016-06-03T13:21:06Z</time>
      </trkpt>
      <trkpt lat="42.83546" lon="2.48049">
        <ele>386.264409</ele>
        <time>2016-06-03T13:21:09Z</time>
      </trkpt>
      <trkpt lat="42.83533" lon="2.48059">
        <ele>386.065119</ele>
        <time>2016-06-03T13:21:11Z</time>
      </trkpt>
      <trkpt lat="42.83513" lon="2.48077">
        <ele>385.561443</ele>
        <time>2016-06-03T13:21:14Z</time>
      </trkpt>
      <trkpt lat="42.83497" lon="2.48093">
        <ele>385.972041</ele>
        <time>2016-06-03T13:21:16Z</time>
      </trkpt>
      <trkpt lat="42.83476" lon="2.48106">
        <ele>385.676495</ele>
        <time>2016-06-03T13:21:18Z</time>
      </trkpt>
      <trkpt lat="42.83451" lon="2.48107">
        <ele>385.544863</ele>
        <time>2016-06-03T13:21:20Z</time>
      </trkpt>
      <trkpt lat="42.83425" lon="2.48089">
        <ele>384.944561</ele>
        <time>2016-06-03T13:21:24Z</time>
      </trkpt>
      <trkpt lat="42.83411" lon="2.4809">
        <ele>385.091917</ele>
        <time>2016-06-03T13:21:26Z</time>
      </trkpt>
      <trkpt lat="42.83405" lon="2.48095">
        <ele>384.972588</ele>
        <time>2016-06-03T13:21:27Z</time>
      </trkpt>
      <trkpt lat="42.83398" lon="2.48117">
        <ele>385.2534</ele>
        <time>2016-06-03T13:21:29Z</time>
      </trkpt>
      <trkpt lat="42.83389" lon="2.4815">
        <ele>384.640247</ele>
        <time>2016-06-03T13:21:32Z</time>
      </trkpt>
      <trkpt lat="42.83387" lon="2.48197">
        <ele>384.85473</ele>
        <time>2016-06-03T13:21:35Z</time>
      </trkpt>
      <trkpt lat="42.83383" lon="2.48249">
        <ele>383.47269</ele>
        <time>2016-06-03T13:21:38Z</time>
      </trkpt>
      <trkpt lat="42.83388" lon="2.48283">
        <ele>383.49719</ele>
        <time>2016-06-03T13:21:40Z</time>
      </trkpt>
      <trkpt lat="42.83407" lon="2.48339">
        <ele>382.683557</ele>
        <time>2016-06-03T13:21:43Z</time>
      </trkpt>
      <trkpt lat="42.83427" lon="2.4837">
        <ele>382.359182</ele>
        <time>2016-06-03T13:21:45Z</time>
      </trkpt>
      <trkpt lat="42.83472" lon="2.48419">
        <ele>381.814663</ele>
        <time>2016-06-03T13:21:48Z</time>
      </trkpt>
      <trkpt lat="42.83518" lon="2.48475">
        <ele>381.172131</ele>
        <time>2016-06-03T13:21:52Z</time>
      </trkpt>
      <trkpt lat="42.83521" lon="2.48519">
        <ele>380.183963</ele>
        <time>2016-06-03T13:21:55Z</time>
      </trkpt>
      <trkpt lat="42.83519" lon="2.48548">
        <ele>380.13785</ele>
        <time>2016-06-03T13:21:57Z</time>
      </trkpt>
      <trkpt lat="42.83508" lon="2.48571">
        <ele>379.785145</ele>
        <time>2016-06-03T13:21:59Z</time>
      </trkpt>
      <trkpt lat="42.83514" lon="2.48606">
        <ele>379.137927</ele>
        <time>2016-06-03T13:22:01Z</time>
      </trkpt>
      <trkpt lat="42.83543" lon="2.48662">
        <ele>380.438955</ele>
        <time>2016-06-03T13:22:04Z</time>
      </trkpt>
      <trkpt lat="42.83561" lon="2.487">
        <ele>379.474013</ele>
        <time>2016-06-03T13:22:06Z</time>
      </trkpt>
      <trkpt lat="42.8358" lon="2.48754">
        <ele>378.973167</ele>
        <time>2016-06-03T13:22:09Z</time>
      </trkpt>
      <trkpt lat="42.83594" lon="2.48813">
        <ele>376.546243</ele>
        <time>2016-06-03T13:22:12Z</time>
      </trkpt>
      <trkpt lat="42.83604" lon="2.4885">
        <ele>377.974046</ele>
        <time>2016-06-03T13:22:14Z</time>
      </trkpt>
      <trkpt lat="42.83613" lon="2.48894">
        <ele>377.415155</ele>
        <time>2016-06-03T13:22:16Z</time>
      </trkpt>
      <trkpt lat="42.83611" lon="2.48962">
        <ele>376.600767</ele>
        <time>2016-06-03T13:22:19Z</time>
      </trkpt>
      <trkpt lat="42.83608" lon="2.48983">
        <ele>376.419917</ele>
        <time>2016-06-03T13:22:20Z</time>
      </trkpt>
      <trkpt lat="42.83583" lon="2.49031">
        <ele>373.788851</ele>
        <time>2016-06-03T13:22:23Z</time>
      </trkpt>
      <trkpt lat="42.83566" lon="2.49072">
        <ele>374.878439</ele>
        <time>2016-06-03T13:22:26Z</time>
      </trkpt>
      <trkpt lat="42.83584" lon="2.49118">
        <ele>374.428156</ele>
        <time>2016-06-03T13:22:29Z</time>
      </trkpt>
      <trkpt lat="42.83599" lon="2.49149">
        <ele>372.466752</ele>
        <time>2016-06-03T13:22:31Z</time>
      </trkpt>
      <trkpt lat="42.83604" lon="2.49184">
        <ele>371.186805</ele>
        <time>2016-06-03T13:22:33Z</time>
      </trkpt>
      <trkpt lat="42.83599" lon="2.49219">
        <ele>370.237082</ele>
        <time>2016-06-03T13:22:35Z</time>
      </trkpt>
      <trkpt lat="42.83578" lon="2.49238">
        <ele>367.98788</ele>
        <time>2016-06-03T13:22:37Z</time>
      </trkpt>
      <trkpt lat="42.83561" lon="2.49249">
        <ele>367.489706</ele>
        <time>2016-06-03T13:22:39Z</time>
      </trkpt>
      <trkpt lat="42.83536" lon="2.49221">
        <ele>366.5488</ele>
        <time>2016-06-03T13:22:41Z</time>
      </trkpt>
      <trkpt lat="42.83499" lon="2.49194">
        <ele>364.341069</ele>
        <time>2016-06-03T13:22:44Z</time>
      </trkpt>
      <trkpt lat="42.83472" lon="2.49196">
        <ele>361.608096</ele>
        <time>2016-06-03T13:22:46Z</time>
      </trkpt>
      <trkpt lat="42.83444" lon="2.49204">
        <ele>360.767118</ele>
        <time>2016-06-03T13:22:48Z</time>
      </trkpt>
      <trkpt lat="42.83419" lon="2.49225">
        <ele>356.849604</ele>
        <time>2016-06-03T13:22:50Z</time>
      </trkpt>
      <trkpt lat="42.834" lon="2.49252">
        <ele>356.234759</ele>
        <time>2016-06-03T13:22:52Z</time>
      </trkpt>
      <trkpt lat="42.83391" lon="2.49302">
        <ele>354.026892</ele>
        <time>2016-06-03T13:22:55Z</time>
      </trkpt>
      <trkpt lat="42.83382" lon="2.49328">
        <ele>351.67642</ele>
        <time>2016-06-03T13:22:57Z</time>
      </trkpt>
      <trkpt lat="42.83364" lon="2.49339">
        <ele>348.936659</ele>
        <time>2016-06-03T13:22:59Z</time>
      </trkpt>
      <trkpt lat="42.83349" lon="2.49356">
        <ele>349.479988</ele>
        <time>2016-06-03T13:23:01Z</time>
      </trkpt>
      <trkpt lat="42.83343" lon="2.49406">
        <ele>346.730663</ele>
        <time>2016-06-03T13:23:04Z</time>
      </trkpt>
      <trkpt lat="42.83334" lon="2.4943">
        <ele>344.562011</ele>
        <time>2016-06-03T13:23:06Z</time>
      </trkpt>
      <trkpt lat="42.83327" lon="2.4944">
        <ele>343.39839</ele>
        <time>2016-06-03T13:23:07Z</time>
      </trkpt>
      <trkpt lat="42.83305" lon="2.49451">
        <ele>340.817959</ele>
        <time>2016-06-03T13:23:09Z</time>
      </trkpt>
      <trkpt lat="42.83279" lon="2.49496">
        <ele>339.356098</ele>
        <time>2016-06-03T13:23:12Z</time>
      </trkpt>
      <trkpt lat="42.83256" lon="2.49532">
        <ele>335.542163</ele>
        <time>2016-06-03T13:23:14Z</time>
      </trkpt>
      <trkpt lat="42.83227" lon="2.49587">
        <ele>332.378799</ele>
        <time>2016-06-03T13:23:17Z</time>
      </trkpt>
      <trkpt lat="42.83213" lon="2.4962">
        <ele>333.574256</ele>
        <time>2016-06-03T13:23:19Z</time>
      </trkpt>
      <trkpt lat="42.83189" lon="2.49652">
        <ele>328.883055</ele>
        <time>2016-06-03T13:23:22Z</time>
      </trkpt>
      <trkpt lat="42.83181" lon="2.49651">
        <ele>328.895852</ele>
        <time>2016-06-03T13:23:23Z</time>
      </trkpt>
      <trkpt lat="42.83171" lon="2.49664">
        <ele>326.101967</ele>
        <time>2016-06-03T13:23:25Z</time>
      </trkpt>
      <trkpt lat="42.83167" lon="2.49672">
        <ele>326.721672</ele>
        <time>2016-06-03T13:23:26Z</time>
      </trkpt>
      <trkpt lat="42.83174" lon="2.49709">
        <ele>325.046271</ele>
        <time>2016-06-03T13:23:29Z</time>
      </trkpt>
      <trkpt lat="42.83173" lon="2.4972">
        <ele>324.261479</ele>
        <time>2016-06-03T13:23:30Z</time>
      </trkpt>
      <trkpt lat="42.83169" lon="2.49728">
        <ele>323.477242</ele>
        <time>2016-06-03T13:23:31Z</time>
      </trkpt>
      <trkpt lat="42.8315" lon="2.49737">
        <ele>321.80107</ele>
        <time>2016-06-03T13:23:33Z</time>
      </trkpt>
      <trkpt lat="42.8313" lon="2.49727">
        <ele>321.506075</ele>
        <time>2016-06-03T13:23:35Z</time>
      </trkpt>
      <trkpt lat="42.8311" lon="2.49724">
        <ele>319.724593</ele>
        <time>2016-06-03T13:23:37Z</time>
      </trkpt>
      <trkpt lat="42.83088" lon="2.49744">
        <ele>320.508785</ele>
        <time>2016-06-03T13:23:39Z</time>
      </trkpt>
      <trkpt lat="42.83064" lon="2.49755">
        <ele>319.32725</ele>
        <time>2016-06-03T13:23:41Z</time>
      </trkpt>
      <trkpt lat="42.83026" lon="2.49762">
        <ele>316.223769</ele>
        <time>2016-06-03T13:23:44Z</time>
      </trkpt>
      <trkpt lat="42.83005" lon="2.49754">
        <ele>315.148361</ele>
        <time>2016-06-03T13:23:46Z</time>
      </trkpt>
      <trkpt lat="42.82984" lon="2.49736">
        <ele>313.458209</ele>
        <time>2016-06-03T13:23:48Z</time>
      </trkpt>
      <trkpt lat="42.82957" lon="2.49725">
        <ele>313.654648</ele>
        <time>2016-06-03T13:23:50Z</time>
      </trkpt>
      <trkpt lat="42.82927" lon="2.49719">
        <ele>311.008519</ele>
        <time>2016-06-03T13:23:52Z</time>
      </trkpt>
      <trkpt lat="42.82871" lon="2.49693">
        <ele>308.177515</ele>
        <time>2016-06-03T13:23:56Z</time>
      </trkpt>
      <trkpt lat="42.82841" lon="2.4966">
        <ele>306.117579</ele>
        <time>2016-06-03T13:23:59Z</time>
      </trkpt>
      <trkpt lat="42.82823" lon="2.49629">
        <ele>304.937824</ele>
        <time>2016-06-03T13:24:01Z</time>
      </trkpt>
      <trkpt lat="42.82803" lon="2.49604">
        <ele>303.452938</ele>
        <time>2016-06-03T13:24:03Z</time>
      </trkpt>
      <trkpt lat="42.82777" lon="2.49588">
        <ele>302.518035</ele>
        <time>2016-06-03T13:24:05Z</time>
      </trkpt>
      <trkpt lat="42.82751" lon="2.49579">
        <ele>300.420657</ele>
        <time>2016-06-03T13:24:07Z</time>
      </trkpt>
      <trkpt lat="42.82726" lon="2.49583">
        <ele>298.201735</ele>
        <time>2016-06-03T13:24:09Z</time>
      </trkpt>
      <trkpt lat="42.82686" lon="2.49612">
        <ele>297.821644</ele>
        <time>2016-06-03T13:24:12Z</time>
      </trkpt>
      <trkpt lat="42.82669" lon="2.49637">
        <ele>296.38553</ele>
        <time>2016-06-03T13:24:14Z</time>
      </trkpt>
      <trkpt lat="42.82648" lon="2.49655">
        <ele>294.484282</ele>
        <time>2016-06-03T13:24:16Z</time>
      </trkpt>
      <trkpt lat="42.82619" lon="2.49667">
        <ele>294.028304</ele>
        <time>2016-06-03T13:24:18Z</time>
      </trkpt>
      <trkpt lat="42.82591" lon="2.49684">
        <ele>293.518971</ele>
        <time>2016-06-03T13:24:20Z</time>
      </trkpt>
      <trkpt lat="42.82565" lon="2.49698">
        <ele>291.882915</ele>
        <time>2016-06-03T13:24:22Z</time>
      </trkpt>
      <trkpt lat="42.82532" lon="2.49709">
        <ele>289.263967</ele>
        <time>2016-06-03T13:24:25Z</time>
      </trkpt>
      <trkpt lat="42.82507" lon="2.49735">
        <ele>288.975155</ele>
        <time>2016-06-03T13:24:28Z</time>
      </trkpt>
      <trkpt lat="42.82492" lon="2.49753">
        <ele>285.905857</ele>
        <time>2016-06-03T13:24:30Z</time>
      </trkpt>
      <trkpt lat="42.82467" lon="2.49754">
        <ele>286.512218</ele>
        <time>2016-06-03T13:24:32Z</time>
      </trkpt>
      <trkpt lat="42.82443" lon="2.49747">
        <ele>285.191408</ele>
        <time>2016-06-03T13:24:34Z</time>
      </trkpt>
      <trkpt lat="42.82413" lon="2.4975">
        <ele>285.706338</ele>
        <time>2016-06-03T13:24:36Z</time>
      </trkpt>
      <trkpt lat="42.8236" lon="2.49776">
        <ele>285.905935</ele>
        <time>2016-06-03T13:24:39Z</time>
      </trkpt>
      <trkpt lat="42.8231" lon="2.49799">
        <ele>284.128011</ele>
        <time>2016-06-03T13:24:42Z</time>
      </trkpt>
      <trkpt lat="42.82273" lon="2.49808">
        <ele>281.523822</ele>
        <time>2016-06-03T13:24:44Z</time>
      </trkpt>
      <trkpt lat="42.82215" lon="2.49811">
        <ele>277.398537</ele>
        <time>2016-06-03T13:24:47Z</time>
      </trkpt>
      <trkpt lat="42.82163" lon="2.49808">
        <ele>280.770348</ele>
        <time>2016-06-03T13:24:50Z</time>
      </trkpt>
      <trkpt lat="42.82129" lon="2.49804">
        <ele>280.464073</ele>
        <time>2016-06-03T13:24:52Z</time>
      </trkpt>
      <trkpt lat="42.82094" lon="2.49787">
        <ele>280.57296</ele>
        <time>2016-06-03T13:24:54Z</time>
      </trkpt>
      <trkpt lat="42.82046" lon="2.49767">
        <ele>277.280724</ele>
        <time>2016-06-03T13:24:57Z</time>
      </trkpt>
      <trkpt lat="42.82011" lon="2.49761">
        <ele>276.359093</ele>
        <time>2016-06-03T13:24:59Z</time>
      </trkpt>
      <trkpt lat="42.81975" lon="2.49769">
        <ele>275.165489</ele>
        <time>2016-06-03T13:25:01Z</time>
      </trkpt>
      <trkpt lat="42.81902" lon="2.49797">
        <ele>271.176906</ele>
        <time>2016-06-03T13:25:05Z</time>
      </trkpt>
      <trkpt lat="42.8185" lon="2.49817">
        <ele>269.104515</ele>
        <time>2016-06-03T13:25:08Z</time>
      </trkpt>
      <trkpt lat="42.81803" lon="2.49846">
        <ele>266.875601</ele>
        <time>2016-06-03T13:25:11Z</time>
      </trkpt>
      <trkpt lat="42.81746" lon="2.49906">
        <ele>264.853012</ele>
        <time>2016-06-03T13:25:15Z</time>
      </trkpt>
      <trkpt lat="42.81691" lon="2.49958">
        <ele>261.891197</ele>
        <time>2016-06-03T13:25:19Z</time>
      </trkpt>
      <trkpt lat="42.81653" lon="2.49992">
        <ele>261.363913</ele>
        <time>2016-06-03T13:25:22Z</time>
      </trkpt>
      <trkpt lat="42.81622" lon="2.50012">
        <ele>262.387286</ele>
        <time>2016-06-03T13:25:24Z</time>
      </trkpt>
      <trkpt lat="42.81589" lon="2.50028">
        <ele>262.695204</ele>
        <time>2016-06-03T13:25:26Z</time>
      </trkpt>
      <trkpt lat="42.81556" lon="2.50049">
        <ele>262.504509</ele>
        <time>2016-06-03T13:25:28Z</time>
      </trkpt>
      <trkpt lat="42.81515" lon="2.50082">
        <ele>262.134898</ele>
        <time>2016-06-03T13:25:31Z</time>
      </trkpt>
      <trkpt lat="42.81459" lon="2.50119">
        <ele>261.15739</ele>
        <time>2016-06-03T13:25:35Z</time>
      </trkpt>
      <trkpt lat="42.81423" lon="2.50142">
        <ele>261.475918</ele>
        <time>2016-06-03T13:25:38Z</time>
      </trkpt>
      <trkpt lat="42.814" lon="2.50164">
        <ele>261.115057</ele>
        <time>2016-06-03T13:25:41Z</time>
      </trkpt>
      <trkpt lat="42.81387" lon="2.50189">
        <ele>262.787226</ele>
        <time>2016-06-03T13:25:44Z</time>
      </trkpt>
      <trkpt lat="42.81371" lon="2.50202">
        <ele>263.736701</ele>
        <time>2016-06-03T13:25:47Z</time>
      </trkpt>
      <trkpt lat="42.81365" lon="2.50197">
        <ele>263.832781</ele>
        <time>2016-06-03T13:25:48Z</time>
      </trkpt>
      <trkpt lat="42.81345" lon="2.5021">
        <ele>262.955985</ele>
        <time>2016-06-03T13:25:51Z</time>
      </trkpt>
      <trkpt lat="42.81329" lon="2.50232">
        <ele>262.10372</ele>
        <time>2016-06-03T13:25:54Z</time>
      </trkpt>
      <trkpt lat="42.8132" lon="2.50242">
        <ele>262.135739</ele>
        <time>2016-06-03T13:25:56Z</time>
      </trkpt>
      <trkpt lat="42.81314" lon="2.50246">
        <ele>262.658214</ele>
        <time>2016-06-03T13:25:57Z</time>
      </trkpt>
      <trkpt lat="42.81303" lon="2.50239">
        <ele>262.219899</ele>
        <time>2016-06-03T13:25:59Z</time>
      </trkpt>
      <trkpt lat="42.81286" lon="2.50232">
        <ele>261.984491</ele>
        <time>2016-06-03T13:26:02Z</time>
      </trkpt>
      <trkpt lat="42.81272" lon="2.50224">
        <ele>262.352664</ele>
        <time>2016-06-03T13:26:05Z</time>
      </trkpt>
      <trkpt lat="42.81259" lon="2.50228">
        <ele>261.52086</ele>
        <time>2016-06-03T13:26:08Z</time>
      </trkpt>
      <trkpt lat="42.81251" lon="2.5024">
        <ele>261.565672</ele>
        <time>2016-06-03T13:26:10Z</time>
      </trkpt>
      <trkpt lat="42.81243" lon="2.50267">
        <ele>261.089401</ele>
        <time>2016-06-03T13:26:13Z</time>
      </trkpt>
      <trkpt lat="42.81232" lon="2.50296">
        <ele>260.036335</ele>
        <time>2016-06-03T13:26:16Z</time>
      </trkpt>
      <trkpt lat="42.81225" lon="2.50321">
        <ele>260.260891</ele>
        <time>2016-06-03T13:26:19Z</time>
      </trkpt>
      <trkpt lat="42.81224" lon="2.50328">
        <ele>259.998839</ele>
        <time>2016-06-03T13:26:20Z</time>
      </trkpt>
      <trkpt lat="42.81208" lon="2.50335">
        <ele>259.939104</ele>
        <time>2016-06-03T13:26:22Z</time>
      </trkpt>
      <trkpt lat="42.81201" lon="2.50335">
        <ele>259.526887</ele>
        <time>2016-06-03T13:26:23Z</time>
      </trkpt>
      <trkpt lat="42.81189" lon="2.50345">
        <ele>259.503801</ele>
        <time>2016-06-03T13:26:24Z</time>
      </trkpt>
      <trkpt lat="42.8118" lon="2.50334">
        <ele>259.732887</ele>
        <time>2016-06-03T13:26:25Z</time>
      </trkpt>
      <trkpt lat="42.81172" lon="2.50332">
        <ele>259.704758</ele>
        <time>2016-06-03T13:26:26Z</time>
      </trkpt>
      <trkpt lat="42.81158" lon="2.5032">
        <ele>260.138204</ele>
        <time>2016-06-03T13:26:28Z</time>
      </trkpt>
      <trkpt lat="42.8115" lon="2.50318">
        <ele>260.055013</ele>
        <time>2016-06-03T13:26:29Z</time>
      </trkpt>
      <trkpt lat="42.8113" lon="2.50328">
        <ele>259.620779</ele>
        <time>2016-06-03T13:26:32Z</time>
      </trkpt>
      <trkpt lat="42.8113" lon="2.50348">
        <ele>259.825055</ele>
        <time>2016-06-03T13:26:34Z</time>
      </trkpt>
      <trkpt lat="42.81125" lon="2.5036">
        <ele>259.821321</ele>
        <time>2016-06-03T13:26:36Z</time>
      </trkpt>
      <trkpt lat="42.81126" lon="2.50379">
        <ele>260.235166</ele>
        <time>2016-06-03T13:26:38Z</time>
      </trkpt>
      <trkpt lat="42.8113" lon="2.50403">
        <ele>260.859074</ele>
        <time>2016-06-03T13:26:40Z</time>
      </trkpt>
      <trkpt lat="42.81135" lon="2.50429">
        <ele>260.946364</ele>
        <time>2016-06-03T13:26:42Z</time>
      </trkpt>
      <trkpt lat="42.81137" lon="2.50468">
        <ele>260.927356</ele>
        <time>2016-06-03T13:26:45Z</time>
      </trkpt>
      <trkpt lat="42.81146" lon="2.50494">
        <ele>261.668949</ele>
        <time>2016-06-03T13:26:48Z</time>
      </trkpt>
      <trkpt lat="42.81149" lon="2.50524">
        <ele>261.721893</ele>
        <time>2016-06-03T13:26:51Z</time>
      </trkpt>
      <trkpt lat="42.81152" lon="2.50544">
        <ele>261.28435</ele>
        <time>2016-06-03T13:26:53Z</time>
      </trkpt>
      <trkpt lat="42.81152" lon="2.50565">
        <ele>262.001852</ele>
        <time>2016-06-03T13:26:55Z</time>
      </trkpt>
      <trkpt lat="42.81158" lon="2.5061">
        <ele>263.36733</ele>
        <time>2016-06-03T13:26:59Z</time>
      </trkpt>
      <trkpt lat="42.8116" lon="2.50632">
        <ele>262.900368</ele>
        <time>2016-06-03T13:27:01Z</time>
      </trkpt>
      <trkpt lat="42.81154" lon="2.50642">
        <ele>263.449468</ele>
        <time>2016-06-03T13:27:02Z</time>
      </trkpt>
      <trkpt lat="42.81145" lon="2.5068">
        <ele>262.961229</ele>
        <time>2016-06-03T13:27:05Z</time>
      </trkpt>
      <trkpt lat="42.81139" lon="2.50721">
        <ele>264.779989</ele>
        <time>2016-06-03T13:27:08Z</time>
      </trkpt>
      <trkpt lat="42.81137" lon="2.5077">
        <ele>266.09352</ele>
        <time>2016-06-03T13:27:11Z</time>
      </trkpt>
      <trkpt lat="42.81135" lon="2.50799">
        <ele>266.582488</ele>
        <time>2016-06-03T13:27:13Z</time>
      </trkpt>
      <trkpt lat="42.8114" lon="2.50853">
        <ele>268.85672</ele>
        <time>2016-06-03T13:27:17Z</time>
      </trkpt>
      <trkpt lat="42.81148" lon="2.50886">
        <ele>269.618585</ele>
        <time>2016-06-03T13:27:20Z</time>
      </trkpt>
      <trkpt lat="42.81167" lon="2.5093">
        <ele>268.873117</ele>
        <time>2016-06-03T13:27:24Z</time>
      </trkpt>
      <trkpt lat="42.81171" lon="2.50947">
        <ele>268.414671</ele>
        <time>2016-06-03T13:27:26Z</time>
      </trkpt>
      <trkpt lat="42.8117" lon="2.50954">
        <ele>269.022337</ele>
        <time>2016-06-03T13:27:27Z</time>
      </trkpt>
      <trkpt lat="42.81163" lon="2.50964">
        <ele>268.443411</ele>
        <time>2016-06-03T13:27:29Z</time>
      </trkpt>
      <trkpt lat="42.81158" lon="2.50967">
        <ele>269.342004</ele>
        <time>2016-06-03T13:27:31Z</time>
      </trkpt>
      <trkpt lat="42.8115" lon="2.50963">
        <ele>269.39102</ele>
        <time>2016-06-03T13:27:33Z</time>
      </trkpt>
      <trkpt lat="42.81145" lon="2.50945">
        <ele>269.362315</ele>
        <time>2016-06-03T13:27:35Z</time>
      </trkpt>
      <trkpt lat="42.81144" lon="2.50923">
        <ele>269.195294</ele>
        <time>2016-06-03T13:27:37Z</time>
      </trkpt>
      <trkpt lat="42.81138" lon="2.50893">
        <ele>269.210066</ele>
        <time>2016-06-03T13:27:40Z</time>
      </trkpt>
      <trkpt lat="42.81133" lon="2.5087">
        <ele>269.824026</ele>
        <time>2016-06-03T13:27:42Z</time>
      </trkpt>
      <trkpt lat="42.81124" lon="2.50846">
        <ele>270.514083</ele>
        <time>2016-06-03T13:27:44Z</time>
      </trkpt>
      <trkpt lat="42.81113" lon="2.50804">
        <ele>271.188139</ele>
        <time>2016-06-03T13:27:47Z</time>
      </trkpt>
      <trkpt lat="42.81107" lon="2.50776">
        <ele>271.646736</ele>
        <time>2016-06-03T13:27:49Z</time>
      </trkpt>
      <trkpt lat="42.8109" lon="2.50723">
        <ele>271.724488</ele>
        <time>2016-06-03T13:27:53Z</time>
      </trkpt>
      <trkpt lat="42.81074" lon="2.50667">
        <ele>271.351896</ele>
        <time>2016-06-03T13:27:57Z</time>
      </trkpt>
      <trkpt lat="42.81063" lon="2.50631">
        <ele>271.802216</ele>
        <time>2016-06-03T13:28:00Z</time>
      </trkpt>
      <trkpt lat="42.81052" lon="2.506">
        <ele>271.680319</ele>
        <time>2016-06-03T13:28:03Z</time>
      </trkpt>
      <trkpt lat="42.81046" lon="2.50575">
        <ele>270.83883</ele>
        <time>2016-06-03T13:28:05Z</time>
      </trkpt>
      <trkpt lat="42.81039" lon="2.50522">
        <ele>269.616797</ele>
        <time>2016-06-03T13:28:09Z</time>
      </trkpt>
      <trkpt lat="42.81034" lon="2.50492">
        <ele>268.25519</ele>
        <time>2016-06-03T13:28:11Z</time>
      </trkpt>
      <trkpt lat="42.81014" lon="2.50474">
        <ele>268.040517</ele>
        <time>2016-06-03T13:28:12Z</time>
      </trkpt>
      <trkpt lat="42.81027" lon="2.50457">
        <ele>267.370823</ele>
        <time>2016-06-03T13:28:14Z</time>
      </trkpt>
      <trkpt lat="42.81028" lon="2.50427">
        <ele>265.743255</ele>
        <time>2016-06-03T13:28:17Z</time>
      </trkpt>
      <trkpt lat="42.81025" lon="2.50414">
        <ele>265.29272</ele>
        <time>2016-06-03T13:28:19Z</time>
      </trkpt>
      <trkpt lat="42.81022" lon="2.50412">
        <ele>264.689014</ele>
        <time>2016-06-03T13:28:20Z</time>
      </trkpt>
      <trkpt lat="42.81019" lon="2.50421">
        <ele>264.193024</ele>
        <time>2016-06-03T13:28:21Z</time>
      </trkpt>
      <trkpt lat="42.81008" lon="2.50424">
        <ele>263.774398</ele>
        <time>2016-06-03T13:28:23Z</time>
      </trkpt>
      <trkpt lat="42.80984" lon="2.50429">
        <ele>262.21486</ele>
        <time>2016-06-03T13:28:26Z</time>
      </trkpt>
      <trkpt lat="42.80966" lon="2.50427">
        <ele>260.996829</ele>
        <time>2016-06-03T13:28:28Z</time>
      </trkpt>
      <trkpt lat="42.80959" lon="2.50397">
        <ele>259.967326</ele>
        <time>2016-06-03T13:28:30Z</time>
      </trkpt>
      <trkpt lat="42.80946" lon="2.5038">
        <ele>258.773636</ele>
        <time>2016-06-03T13:28:32Z</time>
      </trkpt>
      <trkpt lat="42.80939" lon="2.50352">
        <ele>258.018759</ele>
        <time>2016-06-03T13:28:34Z</time>
      </trkpt>
      <trkpt lat="42.80936" lon="2.50331">
        <ele>257.512208</ele>
        <time>2016-06-03T13:28:36Z</time>
      </trkpt>
      <trkpt lat="42.80927" lon="2.50311">
        <ele>255.691548</ele>
        <time>2016-06-03T13:28:39Z</time>
      </trkpt>
      <trkpt lat="42.8092" lon="2.50286">
        <ele>255.010975</ele>
        <time>2016-06-03T13:28:42Z</time>
      </trkpt>
      <trkpt lat="42.80918" lon="2.5028">
        <ele>255.37325</ele>
        <time>2016-06-03T13:28:43Z</time>
      </trkpt>
      <trkpt lat="42.80919" lon="2.50277">
        <ele>255.084704</ele>
        <time>2016-06-03T13:28:44Z</time>
      </trkpt>
      <trkpt lat="42.80919" lon="2.50276">
        <ele>255.467624</ele>
        <time>2016-06-03T13:28:54Z</time>
      </trkpt>
      <trkpt lat="42.80917" lon="2.50274">
        <ele>255.350302</ele>
        <time>2016-06-03T13:29:13Z</time>
      </trkpt>
      <trkpt lat="42.80915" lon="2.50274">
        <ele>255.411259</ele>
        <time>2016-06-03T13:29:14Z</time>
      </trkpt>
      <trkpt lat="42.80918" lon="2.50264">
        <ele>255.123214</ele>
        <time>2016-06-03T13:29:16Z</time>
      </trkpt>
      <trkpt lat="42.80913" lon="2.50262">
        <ele>255.158499</ele>
        <time>2016-06-03T13:29:17Z</time>
      </trkpt>
      <trkpt lat="42.80915" lon="2.50244">
        <ele>254.825939</ele>
        <time>2016-06-03T13:29:20Z</time>
      </trkpt>
      <trkpt lat="42.80916" lon="2.50242">
        <ele>255.059461</ele>
        <time>2016-06-03T13:29:23Z</time>
      </trkpt>
      <trkpt lat="42.80916" lon="2.50244">
        <ele>254.844882</ele>
        <time>2016-06-03T13:29:24Z</time>
      </trkpt>
      <trkpt lat="42.80915" lon="2.50239">
        <ele>254.818561</ele>
        <time>2016-06-03T13:29:27Z</time>
      </trkpt>
      <trkpt lat="42.80908" lon="2.50233">
        <ele>255.033635</ele>
        <time>2016-06-03T13:29:29Z</time>
      </trkpt>
      <trkpt lat="42.80874" lon="2.50232">
        <ele>255.290007</ele>
        <time>2016-06-03T13:29:32Z</time>
      </trkpt>
      <trkpt lat="42.80841" lon="2.50237">
        <ele>254.350168</ele>
        <time>2016-06-03T13:29:35Z</time>
      </trkpt>
      <trkpt lat="42.80814" lon="2.50239">
        <ele>255.855992</ele>
        <time>2016-06-03T13:29:38Z</time>
      </trkpt>
      <trkpt lat="42.80782" lon="2.50237">
        <ele>252.844082</ele>
        <time>2016-06-03T13:29:41Z</time>
      </trkpt>
      <trkpt lat="42.80743" lon="2.50241">
        <ele>255.058038</ele>
        <time>2016-06-03T13:29:44Z</time>
      </trkpt>
      <trkpt lat="42.80703" lon="2.50241">
        <ele>253.938379</ele>
        <time>2016-06-03T13:29:47Z</time>
      </trkpt>
      <trkpt lat="42.80658" lon="2.50249">
        <ele>254.190914</ele>
        <time>2016-06-03T13:29:50Z</time>
      </trkpt>
      <trkpt lat="42.80622" lon="2.5026">
        <ele>256.484994</ele>
        <time>2016-06-03T13:29:53Z</time>
      </trkpt>
      <trkpt lat="42.80602" lon="2.50259">
        <ele>257.094339</ele>
        <time>2016-06-03T13:29:55Z</time>
      </trkpt>
      <trkpt lat="42.80558" lon="2.50238">
        <ele>256.193256</ele>
        <time>2016-06-03T13:29:59Z</time>
      </trkpt>
      <trkpt lat="42.80521" lon="2.5022">
        <ele>256.137692</ele>
        <time>2016-06-03T13:30:02Z</time>
      </trkpt>
      <trkpt lat="42.80481" lon="2.50207">
        <ele>258.87042</ele>
        <time>2016-06-03T13:30:05Z</time>
      </trkpt>
      <trkpt lat="42.80456" lon="2.50194">
        <ele>260.528691</ele>
        <time>2016-06-03T13:30:07Z</time>
      </trkpt>
      <trkpt lat="42.80423" lon="2.50139">
        <ele>261.748916</ele>
        <time>2016-06-03T13:30:11Z</time>
      </trkpt>
      <trkpt lat="42.80403" lon="2.50082">
        <ele>259.97475</ele>
        <time>2016-06-03T13:30:14Z</time>
      </trkpt>
      <trkpt lat="42.80383" lon="2.50022">
        <ele>259.428404</ele>
        <time>2016-06-03T13:30:17Z</time>
      </trkpt>
      <trkpt lat="42.80363" lon="2.49964">
        <ele>258.321604</ele>
        <time>2016-06-03T13:30:20Z</time>
      </trkpt>
      <trkpt lat="42.80344" lon="2.49925">
        <ele>257.575103</ele>
        <time>2016-06-03T13:30:22Z</time>
      </trkpt>
      <trkpt lat="42.80324" lon="2.49898">
        <ele>256.974527</ele>
        <time>2016-06-03T13:30:24Z</time>
      </trkpt>
      <trkpt lat="42.80283" lon="2.49861">
        <ele>253.612072</ele>
        <time>2016-06-03T13:30:27Z</time>
      </trkpt>
      <trkpt lat="42.80238" lon="2.49825">
        <ele>250.673536</ele>
        <time>2016-06-03T13:30:30Z</time>
      </trkpt>
      <trkpt lat="42.80192" lon="2.49795">
        <ele>248.13889</ele>
        <time>2016-06-03T13:30:33Z</time>
      </trkpt>
      <trkpt lat="42.80143" lon="2.49783">
        <ele>248.523706</ele>
        <time>2016-06-03T13:30:36Z</time>
      </trkpt>
      <trkpt lat="42.8011" lon="2.4978">
        <ele>248.552613</ele>
        <time>2016-06-03T13:30:38Z</time>
      </trkpt>
      <trkpt lat="42.8008" lon="2.49784">
        <ele>249.109613</ele>
        <time>2016-06-03T13:30:40Z</time>
      </trkpt>
      <trkpt lat="42.80041" lon="2.49798">
        <ele>247.321288</ele>
        <time>2016-06-03T13:30:43Z</time>
      </trkpt>
      <trkpt lat="42.80028" lon="2.4979">
        <ele>246.409685</ele>
        <time>2016-06-03T13:30:44Z</time>
      </trkpt>
      <trkpt lat="42.80023" lon="2.4979">
        <ele>247.011387</ele>
        <time>2016-06-03T13:30:45Z</time>
      </trkpt>
      <trkpt lat="42.80005" lon="2.49774">
        <ele>246.020178</ele>
        <time>2016-06-03T13:30:48Z</time>
      </trkpt>
      <trkpt lat="42.79982" lon="2.49761">
        <ele>245.498312</ele>
        <time>2016-06-03T13:30:52Z</time>
      </trkpt>
      <trkpt lat="42.79964" lon="2.49754">
        <ele>245.785404</ele>
        <time>2016-06-03T13:30:55Z</time>
      </trkpt>
      <trkpt lat="42.79943" lon="2.49748">
        <ele>244.866608</ele>
        <time>2016-06-03T13:30:59Z</time>
      </trkpt>
      <trkpt lat="42.79934" lon="2.49723">
        <ele>244.32122</ele>
        <time>2016-06-03T13:31:02Z</time>
      </trkpt>
      <trkpt lat="42.79928" lon="2.49703">
        <ele>244.393128</ele>
        <time>2016-06-03T13:31:04Z</time>
      </trkpt>
      <trkpt lat="42.79904" lon="2.49697">
        <ele>245.697438</ele>
        <time>2016-06-03T13:31:07Z</time>
      </trkpt>
      <trkpt lat="42.79883" lon="2.49691">
        <ele>246.978412</ele>
        <time>2016-06-03T13:31:10Z</time>
      </trkpt>
      <trkpt lat="42.79881" lon="2.49689">
        <ele>248.09112</ele>
        <time>2016-06-03T13:31:11Z</time>
      </trkpt>
      <trkpt lat="42.79881" lon="2.4969">
        <ele>247.902755</ele>
        <time>2016-06-03T13:31:13Z</time>
      </trkpt>
      <trkpt lat="42.7988" lon="2.4969">
        <ele>247.907769</ele>
        <time>2016-06-03T13:31:18Z</time>
      </trkpt>
      <trkpt lat="42.7988" lon="2.49693">
        <ele>248.013203</ele>
        <time>2016-06-03T13:31:19Z</time>
      </trkpt>
      <trkpt lat="42.79869" lon="2.49694">
        <ele>247.916857</ele>
        <time>2016-06-03T13:31:22Z</time>
      </trkpt>
      <trkpt lat="42.79835" lon="2.49678">
        <ele>250.499881</ele>
        <time>2016-06-03T13:31:26Z</time>
      </trkpt>
      <trkpt lat="42.79801" lon="2.49673">
        <ele>252.078042</ele>
        <time>2016-06-03T13:31:29Z</time>
      </trkpt>
      <trkpt lat="42.79757" lon="2.49679">
        <ele>251.043532</ele>
        <time>2016-06-03T13:31:32Z</time>
      </trkpt>
      <trkpt lat="42.79729" lon="2.49682">
        <ele>250.745645</ele>
        <time>2016-06-03T13:31:34Z</time>
      </trkpt>
      <trkpt lat="42.79693" lon="2.49678">
        <ele>247.58881</ele>
        <time>2016-06-03T13:31:37Z</time>
      </trkpt>
      <trkpt lat="42.79671" lon="2.49685">
        <ele>247.553008</ele>
        <time>2016-06-03T13:31:39Z</time>
      </trkpt>
      <trkpt lat="42.7965" lon="2.49711">
        <ele>247.822871</ele>
        <time>2016-06-03T13:31:41Z</time>
      </trkpt>
      <trkpt lat="42.79621" lon="2.4977">
        <ele>244.714656</ele>
        <time>2016-06-03T13:31:44Z</time>
      </trkpt>
      <trkpt lat="42.79581" lon="2.49862">
        <ele>242.04709</ele>
        <time>2016-06-03T13:31:48Z</time>
      </trkpt>
      <trkpt lat="42.79535" lon="2.4996">
        <ele>241.852369</ele>
        <time>2016-06-03T13:31:52Z</time>
      </trkpt>
      <trkpt lat="42.79494" lon="2.5003">
        <ele>242.190367</ele>
        <time>2016-06-03T13:31:55Z</time>
      </trkpt>
      <trkpt lat="42.79418" lon="2.50138">
        <ele>240.040512</ele>
        <time>2016-06-03T13:32:00Z</time>
      </trkpt>
      <trkpt lat="42.79388" lon="2.50182">
        <ele>239.58657</ele>
        <time>2016-06-03T13:32:02Z</time>
      </trkpt>
      <trkpt lat="42.79352" lon="2.50258">
        <ele>239.787203</ele>
        <time>2016-06-03T13:32:05Z</time>
      </trkpt>
      <trkpt lat="42.79326" lon="2.50331">
        <ele>240.086365</ele>
        <time>2016-06-03T13:32:08Z</time>
      </trkpt>
      <trkpt lat="42.79316" lon="2.5041">
        <ele>241.475947</ele>
        <time>2016-06-03T13:32:11Z</time>
      </trkpt>
      <trkpt lat="42.79318" lon="2.50467">
        <ele>240.789293</ele>
        <time>2016-06-03T13:32:13Z</time>
      </trkpt>
      <trkpt lat="42.79329" lon="2.50559">
        <ele>238.113116</ele>
        <time>2016-06-03T13:32:16Z</time>
      </trkpt>
      <trkpt lat="42.79349" lon="2.50674">
        <ele>240.861761</ele>
        <time>2016-06-03T13:32:20Z</time>
      </trkpt>
      <trkpt lat="42.79358" lon="2.50799">
        <ele>237.349053</ele>
        <time>2016-06-03T13:32:24Z</time>
      </trkpt>
      <trkpt lat="42.79354" lon="2.50862">
        <ele>238.928874</ele>
        <time>2016-06-03T13:32:26Z</time>
      </trkpt>
      <trkpt lat="42.79345" lon="2.50961">
        <ele>238.193582</ele>
        <time>2016-06-03T13:32:29Z</time>
      </trkpt>
      <trkpt lat="42.79338" lon="2.51088">
        <ele>234.735355</ele>
        <time>2016-06-03T13:32:33Z</time>
      </trkpt>
      <trkpt lat="42.79332" lon="2.51184">
        <ele>234.273023</ele>
        <time>2016-06-03T13:32:36Z</time>
      </trkpt>
      <trkpt lat="42.79324" lon="2.51247">
        <ele>234.42203</ele>
        <time>2016-06-03T13:32:38Z</time>
      </trkpt>
      <trkpt lat="42.79312" lon="2.51309">
        <ele>234.860538</ele>
        <time>2016-06-03T13:32:40Z</time>
      </trkpt>
      <trkpt lat="42.79301" lon="2.51398">
        <ele>235.521675</ele>
        <time>2016-06-03T13:32:43Z</time>
      </trkpt>
      <trkpt lat="42.79286" lon="2.51484">
        <ele>235.179519</ele>
        <time>2016-06-03T13:32:46Z</time>
      </trkpt>
      <trkpt lat="42.79273" lon="2.51541">
        <ele>235.43748</ele>
        <time>2016-06-03T13:32:48Z</time>
      </trkpt>
      <trkpt lat="42.79263" lon="2.51598">
        <ele>234.234515</ele>
        <time>2016-06-03T13:32:50Z</time>
      </trkpt>
      <trkpt lat="42.79241" lon="2.51683">
        <ele>234.674856</ele>
        <time>2016-06-03T13:32:53Z</time>
      </trkpt>
      <trkpt lat="42.79223" lon="2.51757">
        <ele>232.757083</ele>
        <time>2016-06-03T13:32:56Z</time>
      </trkpt>
      <trkpt lat="42.79205" lon="2.51831">
        <ele>234.920261</ele>
        <time>2016-06-03T13:32:59Z</time>
      </trkpt>
      <trkpt lat="42.7919" lon="2.51878">
        <ele>233.759933</ele>
        <time>2016-06-03T13:33:01Z</time>
      </trkpt>
      <trkpt lat="42.79144" lon="2.51975">
        <ele>233.464261</ele>
        <time>2016-06-03T13:33:05Z</time>
      </trkpt>
      <trkpt lat="42.79107" lon="2.52056">
        <ele>232.196284</ele>
        <time>2016-06-03T13:33:08Z</time>
      </trkpt>
      <trkpt lat="42.79076" lon="2.52126">
        <ele>232.720417</ele>
        <time>2016-06-03T13:33:11Z</time>
      </trkpt>
      <trkpt lat="42.79049" lon="2.52168">
        <ele>231.140677</ele>
        <time>2016-06-03T13:33:13Z</time>
      </trkpt>
      <trkpt lat="42.7903" lon="2.52212">
        <ele>231.358644</ele>
        <time>2016-06-03T13:33:15Z</time>
      </trkpt>
      <trkpt lat="42.79012" lon="2.52282">
        <ele>229.236867</ele>
        <time>2016-06-03T13:33:18Z</time>
      </trkpt>
      <trkpt lat="42.78993" lon="2.52317">
        <ele>229.901782</ele>
        <time>2016-06-03T13:33:20Z</time>
      </trkpt>
      <trkpt lat="42.78966" lon="2.52345">
        <ele>231.405051</ele>
        <time>2016-06-03T13:33:22Z</time>
      </trkpt>
      <trkpt lat="42.78914" lon="2.52381">
        <ele>231.245575</ele>
        <time>2016-06-03T13:33:25Z</time>
      </trkpt>
      <trkpt lat="42.78844" lon="2.52421">
        <ele>228.168651</ele>
        <time>2016-06-03T13:33:29Z</time>
      </trkpt>
      <trkpt lat="42.78812" lon="2.52439">
        <ele>229.21543</ele>
        <time>2016-06-03T13:33:31Z</time>
      </trkpt>
      <trkpt lat="42.78763" lon="2.52451">
        <ele>228.125533</ele>
        <time>2016-06-03T13:33:34Z</time>
      </trkpt>
      <trkpt lat="42.78709" lon="2.52448">
        <ele>229.098208</ele>
        <time>2016-06-03T13:33:37Z</time>
      </trkpt>
      <trkpt lat="42.78678" lon="2.52434">
        <ele>229.364319</ele>
        <time>2016-06-03T13:33:39Z</time>
      </trkpt>
      <trkpt lat="42.78661" lon="2.5243">
        <ele>228.606017</ele>
        <time>2016-06-03T13:33:40Z</time>
      </trkpt>
      <trkpt lat="42.78631" lon="2.5241">
        <ele>227.273721</ele>
        <time>2016-06-03T13:33:42Z</time>
      </trkpt>
      <trkpt lat="42.78613" lon="2.52372">
        <ele>228.25135</ele>
        <time>2016-06-03T13:33:44Z</time>
      </trkpt>
      <trkpt lat="42.78591" lon="2.52339">
        <ele>226.091051</ele>
        <time>2016-06-03T13:33:46Z</time>
      </trkpt>
      <trkpt lat="42.78565" lon="2.52262">
        <ele>227.353462</ele>
        <time>2016-06-03T13:33:50Z</time>
      </trkpt>
      <trkpt lat="42.78556" lon="2.52215">
        <ele>227.50752</ele>
        <time>2016-06-03T13:33:52Z</time>
      </trkpt>
      <trkpt lat="42.78546" lon="2.52151">
        <ele>226.778772</ele>
        <time>2016-06-03T13:33:55Z</time>
      </trkpt>
      <trkpt lat="42.78532" lon="2.52112">
        <ele>227.237545</ele>
        <time>2016-06-03T13:33:57Z</time>
      </trkpt>
      <trkpt lat="42.78512" lon="2.52077">
        <ele>225.437201</ele>
        <time>2016-06-03T13:33:59Z</time>
      </trkpt>
      <trkpt lat="42.78485" lon="2.52051">
        <ele>226.159163</ele>
        <time>2016-06-03T13:34:01Z</time>
      </trkpt>
      <trkpt lat="42.78456" lon="2.52037">
        <ele>225.782909</ele>
        <time>2016-06-03T13:34:03Z</time>
      </trkpt>
      <trkpt lat="42.78428" lon="2.52015">
        <ele>224.240282</ele>
        <time>2016-06-03T13:34:05Z</time>
      </trkpt>
      <trkpt lat="42.78386" lon="2.5201">
        <ele>225.705378</ele>
        <time>2016-06-03T13:34:08Z</time>
      </trkpt>
      <trkpt lat="42.78322" lon="2.52025">
        <ele>224.60537</ele>
        <time>2016-06-03T13:34:12Z</time>
      </trkpt>
      <trkpt lat="42.78273" lon="2.52051">
        <ele>225.588732</ele>
        <time>2016-06-03T13:34:15Z</time>
      </trkpt>
      <trkpt lat="42.78244" lon="2.52062">
        <ele>226.251099</ele>
        <time>2016-06-03T13:34:17Z</time>
      </trkpt>
      <trkpt lat="42.78215" lon="2.5206">
        <ele>227.226834</ele>
        <time>2016-06-03T13:34:19Z</time>
      </trkpt>
      <trkpt lat="42.78197" lon="2.52044">
        <ele>226.740984</ele>
        <time>2016-06-03T13:34:21Z</time>
      </trkpt>
      <trkpt lat="42.78191" lon="2.52036">
        <ele>227.313259</ele>
        <time>2016-06-03T13:34:22Z</time>
      </trkpt>
      <trkpt lat="42.78194" lon="2.52015">
        <ele>227.860121</ele>
        <time>2016-06-03T13:34:24Z</time>
      </trkpt>
      <trkpt lat="42.78213" lon="2.51964">
        <ele>229.101259</ele>
        <time>2016-06-03T13:34:27Z</time>
      </trkpt>
      <trkpt lat="42.78223" lon="2.51925">
        <ele>228.982566</ele>
        <time>2016-06-03T13:34:29Z</time>
      </trkpt>
      <trkpt lat="42.78227" lon="2.51881">
        <ele>230.480683</ele>
        <time>2016-06-03T13:34:31Z</time>
      </trkpt>
      <trkpt lat="42.78226" lon="2.51832">
        <ele>230.355928</ele>
        <time>2016-06-03T13:34:34Z</time>
      </trkpt>
      <trkpt lat="42.7822" lon="2.51806">
        <ele>231.854352</ele>
        <time>2016-06-03T13:34:36Z</time>
      </trkpt>
      <trkpt lat="42.78205" lon="2.51796">
        <ele>230.42356</ele>
        <time>2016-06-03T13:34:37Z</time>
      </trkpt>
      <trkpt lat="42.78169" lon="2.51741">
        <ele>228.390439</ele>
        <time>2016-06-03T13:34:41Z</time>
      </trkpt>
      <trkpt lat="42.7816" lon="2.51719">
        <ele>228.062632</ele>
        <time>2016-06-03T13:34:43Z</time>
      </trkpt>
      <trkpt lat="42.78143" lon="2.51711">
        <ele>227.932545</ele>
        <time>2016-06-03T13:34:45Z</time>
      </trkpt>
      <trkpt lat="42.78134" lon="2.51713">
        <ele>228.331765</ele>
        <time>2016-06-03T13:34:47Z</time>
      </trkpt>
      <trkpt lat="42.7812" lon="2.51728">
        <ele>229.705854</ele>
        <time>2016-06-03T13:34:49Z</time>
      </trkpt>
      <trkpt lat="42.78102" lon="2.51732">
        <ele>230.381755</ele>
        <time>2016-06-03T13:34:51Z</time>
      </trkpt>
      <trkpt lat="42.7807" lon="2.51723">
        <ele>231.681796</ele>
        <time>2016-06-03T13:34:54Z</time>
      </trkpt>
      <trkpt lat="42.78034" lon="2.51727">
        <ele>232.099866</ele>
        <time>2016-06-03T13:34:57Z</time>
      </trkpt>
      <trkpt lat="42.78002" lon="2.51765">
        <ele>231.806915</ele>
        <time>2016-06-03T13:35:00Z</time>
      </trkpt>
      <trkpt lat="42.77982" lon="2.51788">
        <ele>230.516505</ele>
        <time>2016-06-03T13:35:02Z</time>
      </trkpt>
      <trkpt lat="42.77972" lon="2.51804">
        <ele>230.204898</ele>
        <time>2016-06-03T13:35:03Z</time>
      </trkpt>
      <trkpt lat="42.77952" lon="2.51864">
        <ele>229.508247</ele>
        <time>2016-06-03T13:35:06Z</time>
      </trkpt>
      <trkpt lat="42.77945" lon="2.51966">
        <ele>231.613052</ele>
        <time>2016-06-03T13:35:10Z</time>
      </trkpt>
      <trkpt lat="42.7794" lon="2.52017">
        <ele>228.370562</ele>
        <time>2016-06-03T13:35:12Z</time>
      </trkpt>
      <trkpt lat="42.77943" lon="2.5208">
        <ele>228.036926</ele>
        <time>2016-06-03T13:35:15Z</time>
      </trkpt>
      <trkpt lat="42.77943" lon="2.5211">
        <ele>228.910787</ele>
        <time>2016-06-03T13:35:17Z</time>
      </trkpt>
      <trkpt lat="42.7793" lon="2.52133">
        <ele>228.00049</ele>
        <time>2016-06-03T13:35:19Z</time>
      </trkpt>
      <trkpt lat="42.77906" lon="2.52161">
        <ele>226.017431</ele>
        <time>2016-06-03T13:35:22Z</time>
      </trkpt>
      <trkpt lat="42.7784" lon="2.5219">
        <ele>226.718424</ele>
        <time>2016-06-03T13:35:26Z</time>
      </trkpt>
      <trkpt lat="42.77795" lon="2.52216">
        <ele>226.176971</ele>
        <time>2016-06-03T13:35:29Z</time>
      </trkpt>
      <trkpt lat="42.77779" lon="2.52224">
        <ele>225.429154</ele>
        <time>2016-06-03T13:35:30Z</time>
      </trkpt>
      <trkpt lat="42.77754" lon="2.52255">
        <ele>226.754082</ele>
        <time>2016-06-03T13:35:32Z</time>
      </trkpt>
      <trkpt lat="42.77737" lon="2.52311">
        <ele>225.473093</ele>
        <time>2016-06-03T13:35:34Z</time>
      </trkpt>
      <trkpt lat="42.77742" lon="2.52325">
        <ele>225.634127</ele>
        <time>2016-06-03T13:35:36Z</time>
      </trkpt>
      <trkpt lat="42.77756" lon="2.52342">
        <ele>224.691902</ele>
        <time>2016-06-03T13:35:37Z</time>
      </trkpt>
      <trkpt lat="42.77766" lon="2.52389">
        <ele>223.687635</ele>
        <time>2016-06-03T13:35:40Z</time>
      </trkpt>
      <trkpt lat="42.77766" lon="2.52399">
        <ele>223.086258</ele>
        <time>2016-06-03T13:35:41Z</time>
      </trkpt>
      <trkpt lat="42.77752" lon="2.52428">
        <ele>221.740338</ele>
        <time>2016-06-03T13:35:44Z</time>
      </trkpt>
      <trkpt lat="42.77742" lon="2.52429">
        <ele>221.780123</ele>
        <time>2016-06-03T13:35:45Z</time>
      </trkpt>
      <trkpt lat="42.7772" lon="2.52402">
        <ele>221.249651</ele>
        <time>2016-06-03T13:35:47Z</time>
      </trkpt>
      <trkpt lat="42.77698" lon="2.52383">
        <ele>221.671242</ele>
        <time>2016-06-03T13:35:49Z</time>
      </trkpt>
      <trkpt lat="42.77685" lon="2.52339">
        <ele>219.531139</ele>
        <time>2016-06-03T13:35:51Z</time>
      </trkpt>
      <trkpt lat="42.77679" lon="2.52298">
        <ele>219.754963</ele>
        <time>2016-06-03T13:35:53Z</time>
      </trkpt>
      <trkpt lat="42.77664" lon="2.52265">
        <ele>218.554628</ele>
        <time>2016-06-03T13:35:55Z</time>
      </trkpt>
      <trkpt lat="42.77641" lon="2.52241">
        <ele>218.370412</ele>
        <time>2016-06-03T13:35:57Z</time>
      </trkpt>
      <trkpt lat="42.7759" lon="2.52222">
        <ele>217.731833</ele>
        <time>2016-06-03T13:36:00Z</time>
      </trkpt>
      <trkpt lat="42.77561" lon="2.52209">
        <ele>217.390676</ele>
        <time>2016-06-03T13:36:02Z</time>
      </trkpt>
      <trkpt lat="42.77535" lon="2.52191">
        <ele>216.887568</ele>
        <time>2016-06-03T13:36:04Z</time>
      </trkpt>
      <trkpt lat="42.77532" lon="2.52176">
        <ele>216.324024</ele>
        <time>2016-06-03T13:36:05Z</time>
      </trkpt>
      <trkpt lat="42.7752" lon="2.52151">
        <ele>215.876665</ele>
        <time>2016-06-03T13:36:07Z</time>
      </trkpt>
      <trkpt lat="42.77522" lon="2.52116">
        <ele>215.011752</ele>
        <time>2016-06-03T13:36:09Z</time>
      </trkpt>
      <trkpt lat="42.77515" lon="2.52009">
        <ele>216.058466</ele>
        <time>2016-06-03T13:36:13Z</time>
      </trkpt>
      <trkpt lat="42.77498" lon="2.51935">
        <ele>215.914754</ele>
        <time>2016-06-03T13:36:16Z</time>
      </trkpt>
      <trkpt lat="42.77483" lon="2.5187">
        <ele>214.549729</ele>
        <time>2016-06-03T13:36:19Z</time>
      </trkpt>
      <trkpt lat="42.77457" lon="2.51815">
        <ele>214.488336</ele>
        <time>2016-06-03T13:36:22Z</time>
      </trkpt>
      <trkpt lat="42.77416" lon="2.51774">
        <ele>213.425163</ele>
        <time>2016-06-03T13:36:25Z</time>
      </trkpt>
      <trkpt lat="42.7739" lon="2.51752">
        <ele>211.359691</ele>
        <time>2016-06-03T13:36:27Z</time>
      </trkpt>
      <trkpt lat="42.77366" lon="2.51739">
        <ele>211.80726</ele>
        <time>2016-06-03T13:36:29Z</time>
      </trkpt>
      <trkpt lat="42.77342" lon="2.51734">
        <ele>210.58254</ele>
        <time>2016-06-03T13:36:31Z</time>
      </trkpt>
      <trkpt lat="42.77325" lon="2.51725">
        <ele>210.3241</ele>
        <time>2016-06-03T13:36:33Z</time>
      </trkpt>
      <trkpt lat="42.77317" lon="2.51718">
        <ele>208.667188</ele>
        <time>2016-06-03T13:36:34Z</time>
      </trkpt>
      <trkpt lat="42.77313" lon="2.51687">
        <ele>209.205837</ele>
        <time>2016-06-03T13:36:36Z</time>
      </trkpt>
      <trkpt lat="42.77318" lon="2.51651">
        <ele>208.949771</ele>
        <time>2016-06-03T13:36:38Z</time>
      </trkpt>
      <trkpt lat="42.77323" lon="2.51635">
        <ele>209.185452</ele>
        <time>2016-06-03T13:36:39Z</time>
      </trkpt>
      <trkpt lat="42.77325" lon="2.51609">
        <ele>209.584198</ele>
        <time>2016-06-03T13:36:40Z</time>
      </trkpt>
      <trkpt lat="42.77311" lon="2.51564">
        <ele>209.689171</ele>
        <time>2016-06-03T13:36:42Z</time>
      </trkpt>
      <trkpt lat="42.77278" lon="2.51485">
        <ele>209.009885</ele>
        <time>2016-06-03T13:36:46Z</time>
      </trkpt>
      <trkpt lat="42.77257" lon="2.51452">
        <ele>209.55186</ele>
        <time>2016-06-03T13:36:48Z</time>
      </trkpt>
      <trkpt lat="42.7723" lon="2.51431">
        <ele>209.542071</ele>
        <time>2016-06-03T13:36:50Z</time>
      </trkpt>
      <trkpt lat="42.77211" lon="2.51407">
        <ele>208.926719</ele>
        <time>2016-06-03T13:36:52Z</time>
      </trkpt>
      <trkpt lat="42.77196" lon="2.51375">
        <ele>208.013812</ele>
        <time>2016-06-03T13:36:54Z</time>
      </trkpt>
      <trkpt lat="42.77176" lon="2.5133">
        <ele>207.727014</ele>
        <time>2016-06-03T13:36:57Z</time>
      </trkpt>
      <trkpt lat="42.77166" lon="2.51319">
        <ele>207.304748</ele>
        <time>2016-06-03T13:36:58Z</time>
      </trkpt>
      <trkpt lat="42.77126" lon="2.51308">
        <ele>207.996732</ele>
        <time>2016-06-03T13:37:01Z</time>
      </trkpt>
      <trkpt lat="42.77094" lon="2.51323">
        <ele>207.450651</ele>
        <time>2016-06-03T13:37:03Z</time>
      </trkpt>
      <trkpt lat="42.77058" lon="2.51357">
        <ele>206.266772</ele>
        <time>2016-06-03T13:37:06Z</time>
      </trkpt>
      <trkpt lat="42.77047" lon="2.51382">
        <ele>206.007777</ele>
        <time>2016-06-03T13:37:08Z</time>
      </trkpt>
      <trkpt lat="42.77042" lon="2.5139">
        <ele>205.097733</ele>
        <time>2016-06-03T13:37:09Z</time>
      </trkpt>
      <trkpt lat="42.77025" lon="2.51392">
        <ele>204.132735</ele>
        <time>2016-06-03T13:37:11Z</time>
      </trkpt>
      <trkpt lat="42.77002" lon="2.51383">
        <ele>204.625044</ele>
        <time>2016-06-03T13:37:13Z</time>
      </trkpt>
      <trkpt lat="42.76973" lon="2.51387">
        <ele>206.971369</ele>
        <time>2016-06-03T13:37:15Z</time>
      </trkpt>
      <trkpt lat="42.76931" lon="2.51403">
        <ele>209.57093</ele>
        <time>2016-06-03T13:37:18Z</time>
      </trkpt>
      <trkpt lat="42.76885" lon="2.51396">
        <ele>209.918069</ele>
        <time>2016-06-03T13:37:21Z</time>
      </trkpt>
      <trkpt lat="42.76861" lon="2.51385">
        <ele>210.330338</ele>
        <time>2016-06-03T13:37:23Z</time>
      </trkpt>
      <trkpt lat="42.76839" lon="2.5136">
        <ele>210.893741</ele>
        <time>2016-06-03T13:37:25Z</time>
      </trkpt>
      <trkpt lat="42.76823" lon="2.51329">
        <ele>210.243126</ele>
        <time>2016-06-03T13:37:27Z</time>
      </trkpt>
      <trkpt lat="42.76813" lon="2.513">
        <ele>210.484253</ele>
        <time>2016-06-03T13:37:29Z</time>
      </trkpt>
      <trkpt lat="42.7681" lon="2.51271">
        <ele>209.827386</ele>
        <time>2016-06-03T13:37:31Z</time>
      </trkpt>
      <trkpt lat="42.76821" lon="2.51242">
        <ele>210.249664</ele>
        <time>2016-06-03T13:37:33Z</time>
      </trkpt>
      <trkpt lat="42.76826" lon="2.51216">
        <ele>209.948186</ele>
        <time>2016-06-03T13:37:35Z</time>
      </trkpt>
      <trkpt lat="42.76808" lon="2.51194">
        <ele>210.450452</ele>
        <time>2016-06-03T13:37:38Z</time>
      </trkpt>
      <trkpt lat="42.76801" lon="2.51192">
        <ele>210.584273</ele>
        <time>2016-06-03T13:37:39Z</time>
      </trkpt>
      <trkpt lat="42.76778" lon="2.51204">
        <ele>210.227533</ele>
        <time>2016-06-03T13:37:41Z</time>
      </trkpt>
      <trkpt lat="42.76756" lon="2.51202">
        <ele>210.045254</ele>
        <time>2016-06-03T13:37:43Z</time>
      </trkpt>
      <trkpt lat="42.76746" lon="2.51196">
        <ele>210.272746</ele>
        <time>2016-06-03T13:37:44Z</time>
      </trkpt>
      <trkpt lat="42.76721" lon="2.5115">
        <ele>209.868836</ele>
        <time>2016-06-03T13:37:47Z</time>
      </trkpt>
      <trkpt lat="42.76704" lon="2.51123">
        <ele>210.749455</ele>
        <time>2016-06-03T13:37:49Z</time>
      </trkpt>
      <trkpt lat="42.7668" lon="2.51103">
        <ele>210.496985</ele>
        <time>2016-06-03T13:37:51Z</time>
      </trkpt>
      <trkpt lat="42.76658" lon="2.51089">
        <ele>210.582884</ele>
        <time>2016-06-03T13:37:53Z</time>
      </trkpt>
      <trkpt lat="42.76638" lon="2.51089">
        <ele>210.304017</ele>
        <time>2016-06-03T13:37:55Z</time>
      </trkpt>
      <trkpt lat="42.76617" lon="2.51109">
        <ele>210.19316</ele>
        <time>2016-06-03T13:37:57Z</time>
      </trkpt>
      <trkpt lat="42.76582" lon="2.51156">
        <ele>211.845459</ele>
        <time>2016-06-03T13:38:00Z</time>
      </trkpt>
      <trkpt lat="42.76529" lon="2.51219">
        <ele>212.853904</ele>
        <time>2016-06-03T13:38:04Z</time>
      </trkpt>
      <trkpt lat="42.76483" lon="2.51254">
        <ele>214.257904</ele>
        <time>2016-06-03T13:38:07Z</time>
      </trkpt>
      <trkpt lat="42.76457" lon="2.51273">
        <ele>215.83997</ele>
        <time>2016-06-03T13:38:09Z</time>
      </trkpt>
      <trkpt lat="42.76436" lon="2.51298">
        <ele>217.04339</ele>
        <time>2016-06-03T13:38:11Z</time>
      </trkpt>
      <trkpt lat="42.76423" lon="2.51315">
        <ele>218.061731</ele>
        <time>2016-06-03T13:38:13Z</time>
      </trkpt>
      <trkpt lat="42.76414" lon="2.51322">
        <ele>218.751147</ele>
        <time>2016-06-03T13:38:14Z</time>
      </trkpt>
      <trkpt lat="42.76407" lon="2.51321">
        <ele>219.369679</ele>
        <time>2016-06-03T13:38:15Z</time>
      </trkpt>
      <trkpt lat="42.76397" lon="2.51302">
        <ele>220.755208</ele>
        <time>2016-06-03T13:38:17Z</time>
      </trkpt>
      <trkpt lat="42.76387" lon="2.51273">
        <ele>221.457294</ele>
        <time>2016-06-03T13:38:20Z</time>
      </trkpt>
      <trkpt lat="42.76372" lon="2.51272">
        <ele>222.590969</ele>
        <time>2016-06-03T13:38:22Z</time>
      </trkpt>
      <trkpt lat="42.76344" lon="2.51281">
        <ele>224.610641</ele>
        <time>2016-06-03T13:38:24Z</time>
      </trkpt>
      <trkpt lat="42.76305" lon="2.51325">
        <ele>227.218226</ele>
        <time>2016-06-03T13:38:27Z</time>
      </trkpt>
      <trkpt lat="42.76268" lon="2.51363">
        <ele>229.370261</ele>
        <time>2016-06-03T13:38:30Z</time>
      </trkpt>
      <trkpt lat="42.76232" lon="2.5142">
        <ele>233.597567</ele>
        <time>2016-06-03T13:38:34Z</time>
      </trkpt>
      <trkpt lat="42.7621" lon="2.51459">
        <ele>234.206865</ele>
        <time>2016-06-03T13:38:37Z</time>
      </trkpt>
      <trkpt lat="42.76194" lon="2.5148">
        <ele>236.010418</ele>
        <time>2016-06-03T13:38:39Z</time>
      </trkpt>
      <trkpt lat="42.76158" lon="2.5151">
        <ele>237.394985</ele>
        <time>2016-06-03T13:38:43Z</time>
      </trkpt>
      <trkpt lat="42.76134" lon="2.51531">
        <ele>239.082839</ele>
        <time>2016-06-03T13:38:46Z</time>
      </trkpt>
      <trkpt lat="42.76118" lon="2.51542">
        <ele>240.034813</ele>
        <time>2016-06-03T13:38:48Z</time>
      </trkpt>
      <trkpt lat="42.76094" lon="2.5157">
        <ele>242.374134</ele>
        <time>2016-06-03T13:38:51Z</time>
      </trkpt>
      <trkpt lat="42.76071" lon="2.516">
        <ele>244.955113</ele>
        <time>2016-06-03T13:38:54Z</time>
      </trkpt>
      <trkpt lat="42.76056" lon="2.51618">
        <ele>246.63336</ele>
        <time>2016-06-03T13:38:56Z</time>
      </trkpt>
      <trkpt lat="42.7604" lon="2.51634">
        <ele>248.08266</ele>
        <time>2016-06-03T13:38:59Z</time>
      </trkpt>
      <trkpt lat="42.76029" lon="2.51648">
        <ele>248.446103</ele>
        <time>2016-06-03T13:39:03Z</time>
      </trkpt>
      <trkpt lat="42.76025" lon="2.51655">
        <ele>248.515057</ele>
        <time>2016-06-03T13:39:06Z</time>
      </trkpt>
      <trkpt lat="42.76027" lon="2.51657">
        <ele>248.645459</ele>
        <time>2016-06-03T13:39:08Z</time>
      </trkpt>
      <trkpt lat="42.7603" lon="2.51657">
        <ele>248.504792</ele>
        <time>2016-06-03T13:39:10Z</time>
      </trkpt>
      <trkpt lat="42.76032" lon="2.51655">
        <ele>248.546923</ele>
        <time>2016-06-03T13:39:12Z</time>
      </trkpt>
      <trkpt lat="42.76036" lon="2.51645">
        <ele>248.591747</ele>
        <time>2016-06-03T13:39:15Z</time>
      </trkpt>
      <trkpt lat="42.7605" lon="2.51626">
        <ele>247.97703</ele>
        <time>2016-06-03T13:39:18Z</time>
      </trkpt>
      <trkpt lat="42.76068" lon="2.51606">
        <ele>247.108376</ele>
        <time>2016-06-03T13:39:21Z</time>
      </trkpt>
      <trkpt lat="42.76088" lon="2.51584">
        <ele>244.790676</ele>
        <time>2016-06-03T13:39:24Z</time>
      </trkpt>
      <trkpt lat="42.76116" lon="2.51565">
        <ele>242.380653</ele>
        <time>2016-06-03T13:39:27Z</time>
      </trkpt>
      <trkpt lat="42.76119" lon="2.51553">
        <ele>240.45183</ele>
        <time>2016-06-03T13:39:29Z</time>
      </trkpt>
      <trkpt lat="42.76121" lon="2.5155">
        <ele>239.731811</ele>
        <time>2016-06-03T13:39:30Z</time>
      </trkpt>
      <trkpt lat="42.76134" lon="2.51553">
        <ele>239.80015</ele>
        <time>2016-06-03T13:39:32Z</time>
      </trkpt>
      <trkpt lat="42.76143" lon="2.51563">
        <ele>239.308844</ele>
        <time>2016-06-03T13:39:34Z</time>
      </trkpt>
      <trkpt lat="42.76151" lon="2.51588">
        <ele>238.327624</ele>
        <time>2016-06-03T13:39:37Z</time>
      </trkpt>
      <trkpt lat="42.76146" lon="2.51609">
        <ele>237.096104</ele>
        <time>2016-06-03T13:39:39Z</time>
      </trkpt>
      <trkpt lat="42.76133" lon="2.51638">
        <ele>235.9796</ele>
        <time>2016-06-03T13:39:41Z</time>
      </trkpt>
      <trkpt lat="42.76127" lon="2.51664">
        <ele>235.41916</ele>
        <time>2016-06-03T13:39:43Z</time>
      </trkpt>
      <trkpt lat="42.76114" lon="2.51688">
        <ele>235.044395</ele>
        <time>2016-06-03T13:39:45Z</time>
      </trkpt>
      <trkpt lat="42.7609" lon="2.51728">
        <ele>233.574865</ele>
        <time>2016-06-03T13:39:48Z</time>
      </trkpt>
      <trkpt lat="42.76069" lon="2.51752">
        <ele>231.815153</ele>
        <time>2016-06-03T13:39:50Z</time>
      </trkpt>
      <trkpt lat="42.76044" lon="2.51787">
        <ele>230.17856</ele>
        <time>2016-06-03T13:39:53Z</time>
      </trkpt>
      <trkpt lat="42.76022" lon="2.51811">
        <ele>228.565645</ele>
        <time>2016-06-03T13:39:55Z</time>
      </trkpt>
      <trkpt lat="42.75991" lon="2.51839">
        <ele>226.129529</ele>
        <time>2016-06-03T13:39:58Z</time>
      </trkpt>
      <trkpt lat="42.75956" lon="2.51871">
        <ele>223.15012</ele>
        <time>2016-06-03T13:40:02Z</time>
      </trkpt>
      <trkpt lat="42.75933" lon="2.51892">
        <ele>221.659028</ele>
        <time>2016-06-03T13:40:05Z</time>
      </trkpt>
      <trkpt lat="42.75913" lon="2.51907">
        <ele>220.435869</ele>
        <time>2016-06-03T13:40:08Z</time>
      </trkpt>
      <trkpt lat="42.75903" lon="2.51922">
        <ele>219.612797</ele>
        <time>2016-06-03T13:40:10Z</time>
      </trkpt>
      <trkpt lat="42.7589" lon="2.51948">
        <ele>218.556959</ele>
        <time>2016-06-03T13:40:13Z</time>
      </trkpt>
      <trkpt lat="42.75878" lon="2.51959">
        <ele>217.513204</ele>
        <time>2016-06-03T13:40:15Z</time>
      </trkpt>
      <trkpt lat="42.75861" lon="2.51963">
        <ele>217.157135</ele>
        <time>2016-06-03T13:40:17Z</time>
      </trkpt>
      <trkpt lat="42.7585" lon="2.51972">
        <ele>216.479289</ele>
        <time>2016-06-03T13:40:19Z</time>
      </trkpt>
      <trkpt lat="42.75832" lon="2.52">
        <ele>215.556653</ele>
        <time>2016-06-03T13:40:22Z</time>
      </trkpt>
      <trkpt lat="42.75811" lon="2.52019">
        <ele>213.867946</ele>
        <time>2016-06-03T13:40:25Z</time>
      </trkpt>
      <trkpt lat="42.7579" lon="2.52029">
        <ele>211.972424</ele>
        <time>2016-06-03T13:40:28Z</time>
      </trkpt>
      <trkpt lat="42.75781" lon="2.52043">
        <ele>211.502182</ele>
        <time>2016-06-03T13:40:30Z</time>
      </trkpt>
      <trkpt lat="42.75778" lon="2.5207">
        <ele>211.158201</ele>
        <time>2016-06-03T13:40:33Z</time>
      </trkpt>
      <trkpt lat="42.75773" lon="2.52096">
        <ele>209.359694</ele>
        <time>2016-06-03T13:40:35Z</time>
      </trkpt>
      <trkpt lat="42.75749" lon="2.52153">
        <ele>206.40071</ele>
        <time>2016-06-03T13:40:39Z</time>
      </trkpt>
      <trkpt lat="42.7574" lon="2.52184">
        <ele>205.252902</ele>
        <time>2016-06-03T13:40:41Z</time>
      </trkpt>
      <trkpt lat="42.75719" lon="2.5223">
        <ele>204.015172</ele>
        <time>2016-06-03T13:40:44Z</time>
      </trkpt>
      <trkpt lat="42.75691" lon="2.52281">
        <ele>201.010067</ele>
        <time>2016-06-03T13:40:48Z</time>
      </trkpt>
      <trkpt lat="42.75681" lon="2.52305">
        <ele>199.893949</ele>
        <time>2016-06-03T13:40:50Z</time>
      </trkpt>
      <trkpt lat="42.75671" lon="2.52347">
        <ele>197.747846</ele>
        <time>2016-06-03T13:40:53Z</time>
      </trkpt>
      <trkpt lat="42.75665" lon="2.52388">
        <ele>196.670307</ele>
        <time>2016-06-03T13:40:56Z</time>
      </trkpt>
      <trkpt lat="42.75659" lon="2.5241">
        <ele>195.669907</ele>
        <time>2016-06-03T13:40:58Z</time>
      </trkpt>
      <trkpt lat="42.75646" lon="2.52427">
        <ele>194.93518</ele>
        <time>2016-06-03T13:41:00Z</time>
      </trkpt>
      <trkpt lat="42.75611" lon="2.5245">
        <ele>193.271945</ele>
        <time>2016-06-03T13:41:03Z</time>
      </trkpt>
      <trkpt lat="42.75574" lon="2.52471">
        <ele>190.956653</ele>
        <time>2016-06-03T13:41:06Z</time>
      </trkpt>
      <trkpt lat="42.75534" lon="2.52493">
        <ele>189.514373</ele>
        <time>2016-06-03T13:41:10Z</time>
      </trkpt>
      <trkpt lat="42.75521" lon="2.52504">
        <ele>189.215544</ele>
        <time>2016-06-03T13:41:12Z</time>
      </trkpt>
      <trkpt lat="42.75515" lon="2.52517">
        <ele>190.742389</ele>
        <time>2016-06-03T13:41:14Z</time>
      </trkpt>
      <trkpt lat="42.75513" lon="2.52535">
        <ele>189.857399</ele>
        <time>2016-06-03T13:41:16Z</time>
      </trkpt>
      <trkpt lat="42.75519" lon="2.52569">
        <ele>190.42807</ele>
        <time>2016-06-03T13:41:19Z</time>
      </trkpt>
      <trkpt lat="42.75529" lon="2.52585">
        <ele>190.313499</ele>
        <time>2016-06-03T13:41:21Z</time>
      </trkpt>
      <trkpt lat="42.75544" lon="2.52597">
        <ele>190.829639</ele>
        <time>2016-06-03T13:41:23Z</time>
      </trkpt>
      <trkpt lat="42.75556" lon="2.52616">
        <ele>191.511881</ele>
        <time>2016-06-03T13:41:25Z</time>
      </trkpt>
      <trkpt lat="42.75578" lon="2.52675">
        <ele>191.482631</ele>
        <time>2016-06-03T13:41:29Z</time>
      </trkpt>
      <trkpt lat="42.75601" lon="2.52709">
        <ele>191.870343</ele>
        <time>2016-06-03T13:41:32Z</time>
      </trkpt>
      <trkpt lat="42.75633" lon="2.52747">
        <ele>191.784014</ele>
        <time>2016-06-03T13:41:35Z</time>
      </trkpt>
      <trkpt lat="42.75655" lon="2.52775">
        <ele>192.149005</ele>
        <time>2016-06-03T13:41:37Z</time>
      </trkpt>
      <trkpt lat="42.75692" lon="2.52816">
        <ele>192.825209</ele>
        <time>2016-06-03T13:41:40Z</time>
      </trkpt>
      <trkpt lat="42.75726" lon="2.52852">
        <ele>191.750882</ele>
        <time>2016-06-03T13:41:43Z</time>
      </trkpt>
      <trkpt lat="42.75754" lon="2.52882">
        <ele>192.66277</ele>
        <time>2016-06-03T13:41:46Z</time>
      </trkpt>
      <trkpt lat="42.75769" lon="2.52908">
        <ele>192.939785</ele>
        <time>2016-06-03T13:41:48Z</time>
      </trkpt>
      <trkpt lat="42.75786" lon="2.52957">
        <ele>192.187619</ele>
        <time>2016-06-03T13:41:51Z</time>
      </trkpt>
      <trkpt lat="42.75796" lon="2.52992">
        <ele>192.301577</ele>
        <time>2016-06-03T13:41:53Z</time>
      </trkpt>
      <trkpt lat="42.75798" lon="2.53036">
        <ele>192.218603</ele>
        <time>2016-06-03T13:41:56Z</time>
      </trkpt>
      <trkpt lat="42.75791" lon="2.53062">
        <ele>192.295169</ele>
        <time>2016-06-03T13:41:58Z</time>
      </trkpt>
      <trkpt lat="42.7577" lon="2.53103">
        <ele>191.83377</ele>
        <time>2016-06-03T13:42:01Z</time>
      </trkpt>
      <trkpt lat="42.75757" lon="2.53132">
        <ele>191.317013</ele>
        <time>2016-06-03T13:42:03Z</time>
      </trkpt>
      <trkpt lat="42.75747" lon="2.53165">
        <ele>190.993293</ele>
        <time>2016-06-03T13:42:05Z</time>
      </trkpt>
      <trkpt lat="42.75744" lon="2.53204">
        <ele>190.555246</ele>
        <time>2016-06-03T13:42:07Z</time>
      </trkpt>
      <trkpt lat="42.75748" lon="2.53284">
        <ele>188.112285</ele>
        <time>2016-06-03T13:42:11Z</time>
      </trkpt>
      <trkpt lat="42.75748" lon="2.53337">
        <ele>187.638332</ele>
        <time>2016-06-03T13:42:14Z</time>
      </trkpt>
      <trkpt lat="42.75745" lon="2.53368">
        <ele>186.607395</ele>
        <time>2016-06-03T13:42:16Z</time>
      </trkpt>
      <trkpt lat="42.75734" lon="2.53392">
        <ele>186.468087</ele>
        <time>2016-06-03T13:42:18Z</time>
      </trkpt>
      <trkpt lat="42.75702" lon="2.53425">
        <ele>187.101549</ele>
        <time>2016-06-03T13:42:21Z</time>
      </trkpt>
      <trkpt lat="42.75664" lon="2.53458">
        <ele>187.931927</ele>
        <time>2016-06-03T13:42:24Z</time>
      </trkpt>
      <trkpt lat="42.75643" lon="2.53477">
        <ele>188.341501</ele>
        <time>2016-06-03T13:42:26Z</time>
      </trkpt>
      <trkpt lat="42.75618" lon="2.53516">
        <ele>188.687102</ele>
        <time>2016-06-03T13:42:29Z</time>
      </trkpt>
      <trkpt lat="42.75599" lon="2.53563">
        <ele>191.326811</ele>
        <time>2016-06-03T13:42:32Z</time>
      </trkpt>
      <trkpt lat="42.75578" lon="2.53645">
        <ele>190.992019</ele>
        <time>2016-06-03T13:42:36Z</time>
      </trkpt>
      <trkpt lat="42.75554" lon="2.53712">
        <ele>190.481489</ele>
        <time>2016-06-03T13:42:40Z</time>
      </trkpt>
      <trkpt lat="42.75538" lon="2.53746">
        <ele>190.209569</ele>
        <time>2016-06-03T13:42:42Z</time>
      </trkpt>
      <trkpt lat="42.75513" lon="2.53787">
        <ele>189.970575</ele>
        <time>2016-06-03T13:42:45Z</time>
      </trkpt>
      <trkpt lat="42.75506" lon="2.53823">
        <ele>190.289164</ele>
        <time>2016-06-03T13:42:47Z</time>
      </trkpt>
      <trkpt lat="42.75497" lon="2.53906">
        <ele>190.019106</ele>
        <time>2016-06-03T13:42:51Z</time>
      </trkpt>
      <trkpt lat="42.7548" lon="2.53966">
        <ele>190.966396</ele>
        <time>2016-06-03T13:42:54Z</time>
      </trkpt>
      <trkpt lat="42.75451" lon="2.54036">
        <ele>194.765888</ele>
        <time>2016-06-03T13:42:58Z</time>
      </trkpt>
      <trkpt lat="42.75437" lon="2.54072">
        <ele>194.427343</ele>
        <time>2016-06-03T13:43:00Z</time>
      </trkpt>
      <trkpt lat="42.75421" lon="2.54134">
        <ele>195.243236</ele>
        <time>2016-06-03T13:43:03Z</time>
      </trkpt>
      <trkpt lat="42.75404" lon="2.54198">
        <ele>196.379089</ele>
        <time>2016-06-03T13:43:06Z</time>
      </trkpt>
      <trkpt lat="42.75386" lon="2.54257">
        <ele>196.618106</ele>
        <time>2016-06-03T13:43:09Z</time>
      </trkpt>
      <trkpt lat="42.75371" lon="2.54295">
        <ele>197.024425</ele>
        <time>2016-06-03T13:43:11Z</time>
      </trkpt>
      <trkpt lat="42.75341" lon="2.54348">
        <ele>197.328547</ele>
        <time>2016-06-03T13:43:14Z</time>
      </trkpt>
      <trkpt lat="42.75318" lon="2.54385">
        <ele>197.414123</ele>
        <time>2016-06-03T13:43:16Z</time>
      </trkpt>
      <trkpt lat="42.75283" lon="2.54466">
        <ele>199.954215</ele>
        <time>2016-06-03T13:43:20Z</time>
      </trkpt>
      <trkpt lat="42.75258" lon="2.54528">
        <ele>200.366488</ele>
        <time>2016-06-03T13:43:23Z</time>
      </trkpt>
      <trkpt lat="42.75241" lon="2.54565">
        <ele>199.40655</ele>
        <time>2016-06-03T13:43:25Z</time>
      </trkpt>
      <trkpt lat="42.75213" lon="2.54612">
        <ele>200.554815</ele>
        <time>2016-06-03T13:43:28Z</time>
      </trkpt>
      <trkpt lat="42.75153" lon="2.54683">
        <ele>200.542877</ele>
        <time>2016-06-03T13:43:33Z</time>
      </trkpt>
      <trkpt lat="42.75128" lon="2.54729">
        <ele>201.267578</ele>
        <time>2016-06-03T13:43:36Z</time>
      </trkpt>
      <trkpt lat="42.75107" lon="2.54782">
        <ele>201.722326</ele>
        <time>2016-06-03T13:43:39Z</time>
      </trkpt>
      <trkpt lat="42.75094" lon="2.54841">
        <ele>202.292225</ele>
        <time>2016-06-03T13:43:42Z</time>
      </trkpt>
      <trkpt lat="42.75087" lon="2.54904">
        <ele>202.698426</ele>
        <time>2016-06-03T13:43:45Z</time>
      </trkpt>
      <trkpt lat="42.75092" lon="2.54991">
        <ele>200.233016</ele>
        <time>2016-06-03T13:43:49Z</time>
      </trkpt>
      <trkpt lat="42.75105" lon="2.55051">
        <ele>199.179422</ele>
        <time>2016-06-03T13:43:52Z</time>
      </trkpt>
      <trkpt lat="42.7512" lon="2.55107">
        <ele>195.214518</ele>
        <time>2016-06-03T13:43:55Z</time>
      </trkpt>
      <trkpt lat="42.75128" lon="2.55139">
        <ele>195.354313</ele>
        <time>2016-06-03T13:43:57Z</time>
      </trkpt>
      <trkpt lat="42.75133" lon="2.55191">
        <ele>193.612844</ele>
        <time>2016-06-03T13:44:00Z</time>
      </trkpt>
      <trkpt lat="42.75131" lon="2.55241">
        <ele>193.229349</ele>
        <time>2016-06-03T13:44:03Z</time>
      </trkpt>
      <trkpt lat="42.75126" lon="2.55275">
        <ele>192.951894</ele>
        <time>2016-06-03T13:44:05Z</time>
      </trkpt>
      <trkpt lat="42.75109" lon="2.55322">
        <ele>193.006169</ele>
        <time>2016-06-03T13:44:08Z</time>
      </trkpt>
      <trkpt lat="42.75084" lon="2.55368">
        <ele>194.210924</ele>
        <time>2016-06-03T13:44:11Z</time>
      </trkpt>
      <trkpt lat="42.75057" lon="2.55413">
        <ele>194.906192</ele>
        <time>2016-06-03T13:44:14Z</time>
      </trkpt>
      <trkpt lat="42.75032" lon="2.55457">
        <ele>196.027057</ele>
        <time>2016-06-03T13:44:17Z</time>
      </trkpt>
      <trkpt lat="42.75011" lon="2.55506">
        <ele>197.058937</ele>
        <time>2016-06-03T13:44:20Z</time>
      </trkpt>
      <trkpt lat="42.75003" lon="2.55542">
        <ele>198.360158</ele>
        <time>2016-06-03T13:44:22Z</time>
      </trkpt>
      <trkpt lat="42.74997" lon="2.55605">
        <ele>199.299699</ele>
        <time>2016-06-03T13:44:25Z</time>
      </trkpt>
      <trkpt lat="42.74999" lon="2.55712">
        <ele>199.877488</ele>
        <time>2016-06-03T13:44:30Z</time>
      </trkpt>
      <trkpt lat="42.74996" lon="2.55761">
        <ele>199.925847</ele>
        <time>2016-06-03T13:44:32Z</time>
      </trkpt>
      <trkpt lat="42.74997" lon="2.55822">
        <ele>201.529494</ele>
        <time>2016-06-03T13:44:34Z</time>
      </trkpt>
      <trkpt lat="42.74992" lon="2.55883">
        <ele>201.564004</ele>
        <time>2016-06-03T13:44:38Z</time>
      </trkpt>
      <trkpt lat="42.74984" lon="2.55921">
        <ele>202.314438</ele>
        <time>2016-06-03T13:44:40Z</time>
      </trkpt>
      <trkpt lat="42.74971" lon="2.55961">
        <ele>202.939062</ele>
        <time>2016-06-03T13:44:42Z</time>
      </trkpt>
      <trkpt lat="42.74942" lon="2.56014">
        <ele>203.148367</ele>
        <time>2016-06-03T13:44:45Z</time>
      </trkpt>
      <trkpt lat="42.749" lon="2.5608">
        <ele>203.488654</ele>
        <time>2016-06-03T13:44:49Z</time>
      </trkpt>
      <trkpt lat="42.74872" lon="2.56128">
        <ele>203.070814</ele>
        <time>2016-06-03T13:44:52Z</time>
      </trkpt>
      <trkpt lat="42.74853" lon="2.56177">
        <ele>204.69732</ele>
        <time>2016-06-03T13:44:55Z</time>
      </trkpt>
      <trkpt lat="42.74846" lon="2.56211">
        <ele>205.120561</ele>
        <time>2016-06-03T13:44:57Z</time>
      </trkpt>
      <trkpt lat="42.74855" lon="2.56286">
        <ele>208.861605</ele>
        <time>2016-06-03T13:45:01Z</time>
      </trkpt>
      <trkpt lat="42.7486" lon="2.5635">
        <ele>212.875946</ele>
        <time>2016-06-03T13:45:04Z</time>
      </trkpt>
      <trkpt lat="42.74851" lon="2.56432">
        <ele>216.362042</ele>
        <time>2016-06-03T13:45:07Z</time>
      </trkpt>
      <trkpt lat="42.7484" lon="2.56539">
        <ele>224.060107</ele>
        <time>2016-06-03T13:45:11Z</time>
      </trkpt>
      <trkpt lat="42.74833" lon="2.56588">
        <ele>227.283498</ele>
        <time>2016-06-03T13:45:13Z</time>
      </trkpt>
      <trkpt lat="42.74819" lon="2.56638">
        <ele>229.749753</ele>
        <time>2016-06-03T13:45:15Z</time>
      </trkpt>
      <trkpt lat="42.74806" lon="2.56704">
        <ele>234.411216</ele>
        <time>2016-06-03T13:45:18Z</time>
      </trkpt>
      <trkpt lat="42.74802" lon="2.56747">
        <ele>236.714534</ele>
        <time>2016-06-03T13:45:20Z</time>
      </trkpt>
      <trkpt lat="42.74804" lon="2.56802">
        <ele>239.255383</ele>
        <time>2016-06-03T13:45:23Z</time>
      </trkpt>
      <trkpt lat="42.74811" lon="2.56839">
        <ele>242.770862</ele>
        <time>2016-06-03T13:45:25Z</time>
      </trkpt>
      <trkpt lat="42.74831" lon="2.56879">
        <ele>245.660662</ele>
        <time>2016-06-03T13:45:27Z</time>
      </trkpt>
      <trkpt lat="42.74861" lon="2.56945">
        <ele>250.692209</ele>
        <time>2016-06-03T13:45:30Z</time>
      </trkpt>
      <trkpt lat="42.74888" lon="2.57013">
        <ele>255.914822</ele>
        <time>2016-06-03T13:45:33Z</time>
      </trkpt>
      <trkpt lat="42.74905" lon="2.57086">
        <ele>260.66423</ele>
        <time>2016-06-03T13:45:36Z</time>
      </trkpt>
      <trkpt lat="42.74926" lon="2.57203">
        <ele>268.021826</ele>
        <time>2016-06-03T13:45:41Z</time>
      </trkpt>
      <trkpt lat="42.74928" lon="2.57225">
        <ele>270.255558</ele>
        <time>2016-06-03T13:45:42Z</time>
      </trkpt>
      <trkpt lat="42.74915" lon="2.57294">
        <ele>274.312522</ele>
        <time>2016-06-03T13:45:45Z</time>
      </trkpt>
      <trkpt lat="42.74896" lon="2.57359">
        <ele>276.640097</ele>
        <time>2016-06-03T13:45:48Z</time>
      </trkpt>
      <trkpt lat="42.74877" lon="2.57395">
        <ele>276.897463</ele>
        <time>2016-06-03T13:45:50Z</time>
      </trkpt>
      <trkpt lat="42.7487" lon="2.57428">
        <ele>276.645038</ele>
        <time>2016-06-03T13:45:52Z</time>
      </trkpt>
      <trkpt lat="42.74872" lon="2.57456">
        <ele>276.208366</ele>
        <time>2016-06-03T13:45:54Z</time>
      </trkpt>
      <trkpt lat="42.74876" lon="2.5747">
        <ele>276.89537</ele>
        <time>2016-06-03T13:45:55Z</time>
      </trkpt>
      <trkpt lat="42.74894" lon="2.57489">
        <ele>276.553006</ele>
        <time>2016-06-03T13:45:57Z</time>
      </trkpt>
      <trkpt lat="42.74901" lon="2.575">
        <ele>276.119015</ele>
        <time>2016-06-03T13:45:58Z</time>
      </trkpt>
      <trkpt lat="42.74932" lon="2.57493">
        <ele>276.367717</ele>
        <time>2016-06-03T13:46:00Z</time>
      </trkpt>
      <trkpt lat="42.74953" lon="2.57472">
        <ele>273.404322</ele>
        <time>2016-06-03T13:46:02Z</time>
      </trkpt>
      <trkpt lat="42.74957" lon="2.57461">
        <ele>273.661173</ele>
        <time>2016-06-03T13:46:03Z</time>
      </trkpt>
      <trkpt lat="42.74976" lon="2.57446">
        <ele>271.899324</ele>
        <time>2016-06-03T13:46:05Z</time>
      </trkpt>
      <trkpt lat="42.74985" lon="2.5744">
        <ele>270.584646</ele>
        <time>2016-06-03T13:46:06Z</time>
      </trkpt>
      <trkpt lat="42.75014" lon="2.57444">
        <ele>269.404022</ele>
        <time>2016-06-03T13:46:08Z</time>
      </trkpt>
      <trkpt lat="42.75033" lon="2.57496">
        <ele>268.489973</ele>
        <time>2016-06-03T13:46:11Z</time>
      </trkpt>
      <trkpt lat="42.7506" lon="2.57558">
        <ele>266.187814</ele>
        <time>2016-06-03T13:46:14Z</time>
      </trkpt>
      <trkpt lat="42.7508" lon="2.57627">
        <ele>262.741947</ele>
        <time>2016-06-03T13:46:17Z</time>
      </trkpt>
      <trkpt lat="42.75091" lon="2.57706">
        <ele>262.356755</ele>
        <time>2016-06-03T13:46:20Z</time>
      </trkpt>
      <trkpt lat="42.75094" lon="2.57781">
        <ele>258.127694</ele>
        <time>2016-06-03T13:46:23Z</time>
      </trkpt>
      <trkpt lat="42.75095" lon="2.57852">
        <ele>250.191717</ele>
        <time>2016-06-03T13:46:26Z</time>
      </trkpt>
      <trkpt lat="42.75103" lon="2.57903">
        <ele>248.394383</ele>
        <time>2016-06-03T13:46:29Z</time>
      </trkpt>
      <trkpt lat="42.75128" lon="2.57935">
        <ele>246.434216</ele>
        <time>2016-06-03T13:46:32Z</time>
      </trkpt>
      <trkpt lat="42.7515" lon="2.57942">
        <ele>243.777566</ele>
        <time>2016-06-03T13:46:34Z</time>
      </trkpt>
      <trkpt lat="42.75172" lon="2.57941">
        <ele>242.40092</ele>
        <time>2016-06-03T13:46:36Z</time>
      </trkpt>
      <trkpt lat="42.75193" lon="2.57927">
        <ele>241.093115</ele>
        <time>2016-06-03T13:46:38Z</time>
      </trkpt>
      <trkpt lat="42.75202" lon="2.57916">
        <ele>240.83774</ele>
        <time>2016-06-03T13:46:39Z</time>
      </trkpt>
      <trkpt lat="42.75216" lon="2.57859">
        <ele>238.218354</ele>
        <time>2016-06-03T13:46:42Z</time>
      </trkpt>
      <trkpt lat="42.7522" lon="2.57824">
        <ele>236.473236</ele>
        <time>2016-06-03T13:46:44Z</time>
      </trkpt>
      <trkpt lat="42.75215" lon="2.57773">
        <ele>234.802064</ele>
        <time>2016-06-03T13:46:47Z</time>
      </trkpt>
      <trkpt lat="42.75206" lon="2.57738">
        <ele>233.828664</ele>
        <time>2016-06-03T13:46:49Z</time>
      </trkpt>
      <trkpt lat="42.75192" lon="2.57712">
        <ele>233.018572</ele>
        <time>2016-06-03T13:46:51Z</time>
      </trkpt>
      <trkpt lat="42.75186" lon="2.57697">
        <ele>232.125157</ele>
        <time>2016-06-03T13:46:52Z</time>
      </trkpt>
      <trkpt lat="42.75202" lon="2.57666">
        <ele>230.453842</ele>
        <time>2016-06-03T13:46:55Z</time>
      </trkpt>
      <trkpt lat="42.75208" lon="2.57656">
        <ele>229.863152</ele>
        <time>2016-06-03T13:46:56Z</time>
      </trkpt>
      <trkpt lat="42.75237" lon="2.57663">
        <ele>229.345226</ele>
        <time>2016-06-03T13:46:58Z</time>
      </trkpt>
      <trkpt lat="42.75272" lon="2.57698">
        <ele>227.260699</ele>
        <time>2016-06-03T13:47:01Z</time>
      </trkpt>
      <trkpt lat="42.75296" lon="2.57728">
        <ele>225.391804</ele>
        <time>2016-06-03T13:47:03Z</time>
      </trkpt>
      <trkpt lat="42.75316" lon="2.57763">
        <ele>223.581118</ele>
        <time>2016-06-03T13:47:05Z</time>
      </trkpt>
      <trkpt lat="42.75338" lon="2.57824">
        <ele>218.62061</ele>
        <time>2016-06-03T13:47:08Z</time>
      </trkpt>
      <trkpt lat="42.75344" lon="2.57867">
        <ele>215.375298</ele>
        <time>2016-06-03T13:47:10Z</time>
      </trkpt>
      <trkpt lat="42.75345" lon="2.5792">
        <ele>213.482659</ele>
        <time>2016-06-03T13:47:12Z</time>
      </trkpt>
      <trkpt lat="42.75337" lon="2.57968">
        <ele>210.881258</ele>
        <time>2016-06-03T13:47:14Z</time>
      </trkpt>
      <trkpt lat="42.75334" lon="2.58009">
        <ele>207.526185</ele>
        <time>2016-06-03T13:47:16Z</time>
      </trkpt>
      <trkpt lat="42.75337" lon="2.58052">
        <ele>203.737912</ele>
        <time>2016-06-03T13:47:18Z</time>
      </trkpt>
      <trkpt lat="42.75358" lon="2.58117">
        <ele>201.05503</ele>
        <time>2016-06-03T13:47:21Z</time>
      </trkpt>
      <trkpt lat="42.75383" lon="2.5818">
        <ele>195.938047</ele>
        <time>2016-06-03T13:47:24Z</time>
      </trkpt>
      <trkpt lat="42.75404" lon="2.58218">
        <ele>190.608124</ele>
        <time>2016-06-03T13:47:26Z</time>
      </trkpt>
      <trkpt lat="42.75438" lon="2.58266">
        <ele>187.065361</ele>
        <time>2016-06-03T13:47:29Z</time>
      </trkpt>
      <trkpt lat="42.75464" lon="2.58303">
        <ele>182.300043</ele>
        <time>2016-06-03T13:47:32Z</time>
      </trkpt>
      <trkpt lat="42.75472" lon="2.58337">
        <ele>181.231186</ele>
        <time>2016-06-03T13:47:34Z</time>
      </trkpt>
      <trkpt lat="42.75465" lon="2.58388">
        <ele>180.097838</ele>
        <time>2016-06-03T13:47:36Z</time>
      </trkpt>
      <trkpt lat="42.75471" lon="2.58458">
        <ele>179.545936</ele>
        <time>2016-06-03T13:47:39Z</time>
      </trkpt>
      <trkpt lat="42.75485" lon="2.58549">
        <ele>176.668168</ele>
        <time>2016-06-03T13:47:43Z</time>
      </trkpt>
      <trkpt lat="42.75501" lon="2.58614">
        <ele>171.653633</ele>
        <time>2016-06-03T13:47:46Z</time>
      </trkpt>
      <trkpt lat="42.75531" lon="2.58674">
        <ele>168.989902</ele>
        <time>2016-06-03T13:47:49Z</time>
      </trkpt>
      <trkpt lat="42.75577" lon="2.5874">
        <ele>163.509445</ele>
        <time>2016-06-03T13:47:52Z</time>
      </trkpt>
      <trkpt lat="42.75612" lon="2.58795">
        <ele>158.410998</ele>
        <time>2016-06-03T13:47:55Z</time>
      </trkpt>
      <trkpt lat="42.7563" lon="2.58828">
        <ele>156.079873</ele>
        <time>2016-06-03T13:47:57Z</time>
      </trkpt>
      <trkpt lat="42.75641" lon="2.58867">
        <ele>154.45182</ele>
        <time>2016-06-03T13:47:59Z</time>
      </trkpt>
      <trkpt lat="42.75645" lon="2.5891">
        <ele>152.661248</ele>
        <time>2016-06-03T13:48:01Z</time>
      </trkpt>
      <trkpt lat="42.75653" lon="2.58947">
        <ele>151.323643</ele>
        <time>2016-06-03T13:48:03Z</time>
      </trkpt>
      <trkpt lat="42.7567" lon="2.58982">
        <ele>152.983223</ele>
        <time>2016-06-03T13:48:05Z</time>
      </trkpt>
      <trkpt lat="42.75709" lon="2.59035">
        <ele>152.928488</ele>
        <time>2016-06-03T13:48:08Z</time>
      </trkpt>
      <trkpt lat="42.75733" lon="2.59059">
        <ele>154.512714</ele>
        <time>2016-06-03T13:48:10Z</time>
      </trkpt>
      <trkpt lat="42.75786" lon="2.59094">
        <ele>153.892778</ele>
        <time>2016-06-03T13:48:14Z</time>
      </trkpt>
      <trkpt lat="42.75807" lon="2.59117">
        <ele>153.863946</ele>
        <time>2016-06-03T13:48:16Z</time>
      </trkpt>
      <trkpt lat="42.75822" lon="2.59147">
        <ele>153.589395</ele>
        <time>2016-06-03T13:48:18Z</time>
      </trkpt>
      <trkpt lat="42.75833" lon="2.59183">
        <ele>153.583109</ele>
        <time>2016-06-03T13:48:20Z</time>
      </trkpt>
      <trkpt lat="42.75835" lon="2.59199">
        <ele>152.59675</ele>
        <time>2016-06-03T13:48:21Z</time>
      </trkpt>
      <trkpt lat="42.75821" lon="2.59246">
        <ele>151.046716</ele>
        <time>2016-06-03T13:48:24Z</time>
      </trkpt>
      <trkpt lat="42.7581" lon="2.59279">
        <ele>151.330841</ele>
        <time>2016-06-03T13:48:26Z</time>
      </trkpt>
      <trkpt lat="42.75805" lon="2.59319">
        <ele>150.979861</ele>
        <time>2016-06-03T13:48:28Z</time>
      </trkpt>
      <trkpt lat="42.75808" lon="2.59359">
        <ele>149.650204</ele>
        <time>2016-06-03T13:48:30Z</time>
      </trkpt>
      <trkpt lat="42.75826" lon="2.59418">
        <ele>149.910496</ele>
        <time>2016-06-03T13:48:33Z</time>
      </trkpt>
      <trkpt lat="42.75852" lon="2.59454">
        <ele>147.008107</ele>
        <time>2016-06-03T13:48:35Z</time>
      </trkpt>
      <trkpt lat="42.75879" lon="2.59486">
        <ele>147.278617</ele>
        <time>2016-06-03T13:48:37Z</time>
      </trkpt>
      <trkpt lat="42.75898" lon="2.59522">
        <ele>146.209206</ele>
        <time>2016-06-03T13:48:39Z</time>
      </trkpt>
      <trkpt lat="42.75911" lon="2.59581">
        <ele>145.359086</ele>
        <time>2016-06-03T13:48:42Z</time>
      </trkpt>
      <trkpt lat="42.75917" lon="2.59599">
        <ele>144.617913</ele>
        <time>2016-06-03T13:48:43Z</time>
      </trkpt>
      <trkpt lat="42.75947" lon="2.59635">
        <ele>143.333083</ele>
        <time>2016-06-03T13:48:46Z</time>
      </trkpt>
      <trkpt lat="42.75964" lon="2.59643">
        <ele>144.328919</ele>
        <time>2016-06-03T13:48:47Z</time>
      </trkpt>
      <trkpt lat="42.75997" lon="2.59645">
        <ele>142.626305</ele>
        <time>2016-06-03T13:48:49Z</time>
      </trkpt>
      <trkpt lat="42.76021" lon="2.59669">
        <ele>142.61743</ele>
        <time>2016-06-03T13:48:51Z</time>
      </trkpt>
      <trkpt lat="42.76043" lon="2.59705">
        <ele>143.036967</ele>
        <time>2016-06-03T13:48:53Z</time>
      </trkpt>
      <trkpt lat="42.76067" lon="2.59767">
        <ele>140.790483</ele>
        <time>2016-06-03T13:48:56Z</time>
      </trkpt>
      <trkpt lat="42.76077" lon="2.59809">
        <ele>139.768892</ele>
        <time>2016-06-03T13:48:58Z</time>
      </trkpt>
      <trkpt lat="42.76082" lon="2.59855">
        <ele>137.256548</ele>
        <time>2016-06-03T13:49:00Z</time>
      </trkpt>
      <trkpt lat="42.76087" lon="2.59929">
        <ele>134.946034</ele>
        <time>2016-06-03T13:49:03Z</time>
      </trkpt>
      <trkpt lat="42.76091" lon="2.59974">
        <ele>133.946655</ele>
        <time>2016-06-03T13:49:05Z</time>
      </trkpt>
      <trkpt lat="42.76086" lon="2.60071">
        <ele>133.200804</ele>
        <time>2016-06-03T13:49:09Z</time>
      </trkpt>
      <trkpt lat="42.76081" lon="2.6015">
        <ele>133.668399</ele>
        <time>2016-06-03T13:49:12Z</time>
      </trkpt>
      <trkpt lat="42.76082" lon="2.6023">
        <ele>135.745012</ele>
        <time>2016-06-03T13:49:15Z</time>
      </trkpt>
      <trkpt lat="42.76087" lon="2.60307">
        <ele>135.280364</ele>
        <time>2016-06-03T13:49:18Z</time>
      </trkpt>
      <trkpt lat="42.76091" lon="2.60352">
        <ele>135.174678</ele>
        <time>2016-06-03T13:49:20Z</time>
      </trkpt>
      <trkpt lat="42.76088" lon="2.60386">
        <ele>135.789589</ele>
        <time>2016-06-03T13:49:22Z</time>
      </trkpt>
      <trkpt lat="42.76078" lon="2.60432">
        <ele>136.426924</ele>
        <time>2016-06-03T13:49:25Z</time>
      </trkpt>
      <trkpt lat="42.76078" lon="2.60468">
        <ele>136.242071</ele>
        <time>2016-06-03T13:49:27Z</time>
      </trkpt>
      <trkpt lat="42.76084" lon="2.60506">
        <ele>137.560619</ele>
        <time>2016-06-03T13:49:29Z</time>
      </trkpt>
      <trkpt lat="42.76104" lon="2.60578">
        <ele>138.667686</ele>
        <time>2016-06-03T13:49:32Z</time>
      </trkpt>
      <trkpt lat="42.76119" lon="2.60637">
        <ele>138.221334</ele>
        <time>2016-06-03T13:49:35Z</time>
      </trkpt>
      <trkpt lat="42.76131" lon="2.60666">
        <ele>137.11813</ele>
        <time>2016-06-03T13:49:37Z</time>
      </trkpt>
      <trkpt lat="42.7614" lon="2.60681">
        <ele>136.708822</ele>
        <time>2016-06-03T13:49:38Z</time>
      </trkpt>
      <trkpt lat="42.76165" lon="2.60689">
        <ele>137.69522</ele>
        <time>2016-06-03T13:49:40Z</time>
      </trkpt>
      <trkpt lat="42.76195" lon="2.60683">
        <ele>136.421542</ele>
        <time>2016-06-03T13:49:42Z</time>
      </trkpt>
      <trkpt lat="42.7623" lon="2.60685">
        <ele>134.934835</ele>
        <time>2016-06-03T13:49:44Z</time>
      </trkpt>
      <trkpt lat="42.76266" lon="2.60694">
        <ele>133.542337</ele>
        <time>2016-06-03T13:49:46Z</time>
      </trkpt>
      <trkpt lat="42.76315" lon="2.60719">
        <ele>133.204825</ele>
        <time>2016-06-03T13:49:49Z</time>
      </trkpt>
      <trkpt lat="42.76342" lon="2.60739">
        <ele>133.557777</ele>
        <time>2016-06-03T13:49:51Z</time>
      </trkpt>
      <trkpt lat="42.76375" lon="2.60772">
        <ele>135.096233</ele>
        <time>2016-06-03T13:49:54Z</time>
      </trkpt>
      <trkpt lat="42.76364" lon="2.6079">
        <ele>135.264657</ele>
        <time>2016-06-03T13:49:55Z</time>
      </trkpt>
      <trkpt lat="42.76366" lon="2.6082">
        <ele>135.141737</ele>
        <time>2016-06-03T13:49:57Z</time>
      </trkpt>
      <trkpt lat="42.76378" lon="2.60864">
        <ele>136.252754</ele>
        <time>2016-06-03T13:50:00Z</time>
      </trkpt>
      <trkpt lat="42.76393" lon="2.60895">
        <ele>135.415025</ele>
        <time>2016-06-03T13:50:02Z</time>
      </trkpt>
      <trkpt lat="42.7641" lon="2.60922">
        <ele>133.516627</ele>
        <time>2016-06-03T13:50:04Z</time>
      </trkpt>
      <trkpt lat="42.76427" lon="2.60937">
        <ele>133.458247</ele>
        <time>2016-06-03T13:50:06Z</time>
      </trkpt>
      <trkpt lat="42.76446" lon="2.60953">
        <ele>133.025576</ele>
        <time>2016-06-03T13:50:08Z</time>
      </trkpt>
      <trkpt lat="42.76482" lon="2.60971">
        <ele>129.505021</ele>
        <time>2016-06-03T13:50:11Z</time>
      </trkpt>
      <trkpt lat="42.76518" lon="2.60983">
        <ele>126.211552</ele>
        <time>2016-06-03T13:50:14Z</time>
      </trkpt>
      <trkpt lat="42.76537" lon="2.60988">
        <ele>125.174603</ele>
        <time>2016-06-03T13:50:16Z</time>
      </trkpt>
      <trkpt lat="42.7656" lon="2.60998">
        <ele>123.659407</ele>
        <time>2016-06-03T13:50:19Z</time>
      </trkpt>
      <trkpt lat="42.76573" lon="2.61008">
        <ele>123.257235</ele>
        <time>2016-06-03T13:50:21Z</time>
      </trkpt>
      <trkpt lat="42.7659" lon="2.61026">
        <ele>122.959554</ele>
        <time>2016-06-03T13:50:24Z</time>
      </trkpt>
      <trkpt lat="42.76588" lon="2.61042">
        <ele>123.171921</ele>
        <time>2016-06-03T13:50:26Z</time>
      </trkpt>
      <trkpt lat="42.76576" lon="2.61054">
        <ele>124.506986</ele>
        <time>2016-06-03T13:50:28Z</time>
      </trkpt>
      <trkpt lat="42.76545" lon="2.61065">
        <ele>126.310725</ele>
        <time>2016-06-03T13:50:31Z</time>
      </trkpt>
      <trkpt lat="42.76522" lon="2.61078">
        <ele>127.034158</ele>
        <time>2016-06-03T13:50:33Z</time>
      </trkpt>
      <trkpt lat="42.76492" lon="2.61073">
        <ele>127.185267</ele>
        <time>2016-06-03T13:50:35Z</time>
      </trkpt>
      <trkpt lat="42.76479" lon="2.61076">
        <ele>128.769318</ele>
        <time>2016-06-03T13:50:36Z</time>
      </trkpt>
      <trkpt lat="42.7646" lon="2.61095">
        <ele>129.699404</ele>
        <time>2016-06-03T13:50:38Z</time>
      </trkpt>
      <trkpt lat="42.76449" lon="2.61113">
        <ele>129.345143</ele>
        <time>2016-06-03T13:50:40Z</time>
      </trkpt>
      <trkpt lat="42.76454" lon="2.61141">
        <ele>129.774739</ele>
        <time>2016-06-03T13:50:42Z</time>
      </trkpt>
      <trkpt lat="42.76463" lon="2.61166">
        <ele>131.229703</ele>
        <time>2016-06-03T13:50:44Z</time>
      </trkpt>
      <trkpt lat="42.76492" lon="2.61215">
        <ele>133.250832</ele>
        <time>2016-06-03T13:50:47Z</time>
      </trkpt>
      <trkpt lat="42.76568" lon="2.61317">
        <ele>134.963242</ele>
        <time>2016-06-03T13:50:52Z</time>
      </trkpt>
      <trkpt lat="42.76615" lon="2.61382">
        <ele>134.048501</ele>
        <time>2016-06-03T13:50:55Z</time>
      </trkpt>
      <trkpt lat="42.76644" lon="2.61429">
        <ele>136.15071</ele>
        <time>2016-06-03T13:50:57Z</time>
      </trkpt>
      <trkpt lat="42.76677" lon="2.61498">
        <ele>135.777675</ele>
        <time>2016-06-03T13:51:00Z</time>
      </trkpt>
      <trkpt lat="42.76712" lon="2.61571">
        <ele>132.891142</ele>
        <time>2016-06-03T13:51:04Z</time>
      </trkpt>
      <trkpt lat="42.76718" lon="2.61598">
        <ele>131.480135</ele>
        <time>2016-06-03T13:51:06Z</time>
      </trkpt>
      <trkpt lat="42.76714" lon="2.61625">
        <ele>132.548008</ele>
        <time>2016-06-03T13:51:08Z</time>
      </trkpt>
      <trkpt lat="42.76707" lon="2.61667">
        <ele>136.289186</ele>
        <time>2016-06-03T13:51:11Z</time>
      </trkpt>
      <trkpt lat="42.76708" lon="2.61706">
        <ele>137.751874</ele>
        <time>2016-06-03T13:51:13Z</time>
      </trkpt>
      <trkpt lat="42.76704" lon="2.61739">
        <ele>139.366215</ele>
        <time>2016-06-03T13:51:15Z</time>
      </trkpt>
      <trkpt lat="42.76683" lon="2.61766">
        <ele>141.10231</ele>
        <time>2016-06-03T13:51:17Z</time>
      </trkpt>
      <trkpt lat="42.76675" lon="2.61793">
        <ele>142.6546</ele>
        <time>2016-06-03T13:51:19Z</time>
      </trkpt>
      <trkpt lat="42.7667" lon="2.61826">
        <ele>144.331804</ele>
        <time>2016-06-03T13:51:21Z</time>
      </trkpt>
      <trkpt lat="42.76673" lon="2.61853">
        <ele>145.470353</ele>
        <time>2016-06-03T13:51:23Z</time>
      </trkpt>
      <trkpt lat="42.76665" lon="2.61886">
        <ele>145.098934</ele>
        <time>2016-06-03T13:51:26Z</time>
      </trkpt>
      <trkpt lat="42.76663" lon="2.61907">
        <ele>144.777501</ele>
        <time>2016-06-03T13:51:28Z</time>
      </trkpt>
      <trkpt lat="42.76667" lon="2.61929">
        <ele>145.368402</ele>
        <time>2016-06-03T13:51:30Z</time>
      </trkpt>
      <trkpt lat="42.76685" lon="2.61951">
        <ele>144.719107</ele>
        <time>2016-06-03T13:51:32Z</time>
      </trkpt>
      <trkpt lat="42.76698" lon="2.61972">
        <ele>143.723401</ele>
        <time>2016-06-03T13:51:34Z</time>
      </trkpt>
      <trkpt lat="42.76703" lon="2.61995">
        <ele>141.819691</ele>
        <time>2016-06-03T13:51:36Z</time>
      </trkpt>
      <trkpt lat="42.76703" lon="2.6201">
        <ele>141.459562</ele>
        <time>2016-06-03T13:51:37Z</time>
      </trkpt>
      <trkpt lat="42.76695" lon="2.62023">
        <ele>139.971371</ele>
        <time>2016-06-03T13:51:39Z</time>
      </trkpt>
      <trkpt lat="42.76684" lon="2.62029">
        <ele>139.02796</ele>
        <time>2016-06-03T13:51:40Z</time>
      </trkpt>
      <trkpt lat="42.76656" lon="2.62029">
        <ele>137.358541</ele>
        <time>2016-06-03T13:51:42Z</time>
      </trkpt>
      <trkpt lat="42.76648" lon="2.62015">
        <ele>136.344087</ele>
        <time>2016-06-03T13:51:43Z</time>
      </trkpt>
      <trkpt lat="42.76629" lon="2.62007">
        <ele>134.653041</ele>
        <time>2016-06-03T13:51:44Z</time>
      </trkpt>
      <trkpt lat="42.76607" lon="2.62013">
        <ele>133.377067</ele>
        <time>2016-06-03T13:51:47Z</time>
      </trkpt>
      <trkpt lat="42.76592" lon="2.62032">
        <ele>132.175523</ele>
        <time>2016-06-03T13:51:48Z</time>
      </trkpt>
      <trkpt lat="42.76576" lon="2.62094">
        <ele>131.122569</ele>
        <time>2016-06-03T13:51:52Z</time>
      </trkpt>
      <trkpt lat="42.76558" lon="2.62174">
        <ele>129.384482</ele>
        <time>2016-06-03T13:51:56Z</time>
      </trkpt>
      <trkpt lat="42.76553" lon="2.6224">
        <ele>126.910654</ele>
        <time>2016-06-03T13:51:59Z</time>
      </trkpt>
      <trkpt lat="42.76545" lon="2.62311">
        <ele>126.101907</ele>
        <time>2016-06-03T13:52:02Z</time>
      </trkpt>
      <trkpt lat="42.7653" lon="2.62385">
        <ele>126.568463</ele>
        <time>2016-06-03T13:52:05Z</time>
      </trkpt>
      <trkpt lat="42.76504" lon="2.62491">
        <ele>125.296231</ele>
        <time>2016-06-03T13:52:09Z</time>
      </trkpt>
      <trkpt lat="42.7648" lon="2.62569">
        <ele>125.561956</ele>
        <time>2016-06-03T13:52:12Z</time>
      </trkpt>
      <trkpt lat="42.7645" lon="2.62648">
        <ele>127.912588</ele>
        <time>2016-06-03T13:52:15Z</time>
      </trkpt>
      <trkpt lat="42.76428" lon="2.62719">
        <ele>127.947166</ele>
        <time>2016-06-03T13:52:18Z</time>
      </trkpt>
      <trkpt lat="42.7641" lon="2.62761">
        <ele>128.014036</ele>
        <time>2016-06-03T13:52:20Z</time>
      </trkpt>
      <trkpt lat="42.76377" lon="2.628">
        <ele>129.785022</ele>
        <time>2016-06-03T13:52:23Z</time>
      </trkpt>
      <trkpt lat="42.76358" lon="2.62824">
        <ele>130.838568</ele>
        <time>2016-06-03T13:52:25Z</time>
      </trkpt>
      <trkpt lat="42.76347" lon="2.62854">
        <ele>130.928726</ele>
        <time>2016-06-03T13:52:27Z</time>
      </trkpt>
      <trkpt lat="42.76339" lon="2.62899">
        <ele>133.29974</ele>
        <time>2016-06-03T13:52:29Z</time>
      </trkpt>
      <trkpt lat="42.76315" lon="2.6298">
        <ele>132.83565</ele>
        <time>2016-06-03T13:52:33Z</time>
      </trkpt>
      <trkpt lat="42.76309" lon="2.63013">
        <ele>129.936548</ele>
        <time>2016-06-03T13:52:35Z</time>
      </trkpt>
      <trkpt lat="42.76311" lon="2.63075">
        <ele>132.245947</ele>
        <time>2016-06-03T13:52:38Z</time>
      </trkpt>
      <trkpt lat="42.76335" lon="2.63174">
        <ele>132.120507</ele>
        <time>2016-06-03T13:52:42Z</time>
      </trkpt>
      <trkpt lat="42.76362" lon="2.63275">
        <ele>129.297911</ele>
        <time>2016-06-03T13:52:46Z</time>
      </trkpt>
      <trkpt lat="42.76378" lon="2.63321">
        <ele>128.101334</ele>
        <time>2016-06-03T13:52:48Z</time>
      </trkpt>
      <trkpt lat="42.76385" lon="2.63369">
        <ele>124.638757</ele>
        <time>2016-06-03T13:52:50Z</time>
      </trkpt>
      <trkpt lat="42.76386" lon="2.6342">
        <ele>121.02006</ele>
        <time>2016-06-03T13:52:52Z</time>
      </trkpt>
      <trkpt lat="42.764" lon="2.63493">
        <ele>117.996349</ele>
        <time>2016-06-03T13:52:55Z</time>
      </trkpt>
      <trkpt lat="42.76431" lon="2.63574">
        <ele>115.929294</ele>
        <time>2016-06-03T13:52:58Z</time>
      </trkpt>
      <trkpt lat="42.76484" lon="2.63677">
        <ele>111.51208</ele>
        <time>2016-06-03T13:53:02Z</time>
      </trkpt>
      <trkpt lat="42.76514" lon="2.63745">
        <ele>110.200424</ele>
        <time>2016-06-03T13:53:05Z</time>
      </trkpt>
      <trkpt lat="42.76531" lon="2.63788">
        <ele>108.779158</ele>
        <time>2016-06-03T13:53:07Z</time>
      </trkpt>
      <trkpt lat="42.76538" lon="2.63838">
        <ele>107.13745</ele>
        <time>2016-06-03T13:53:09Z</time>
      </trkpt>
      <trkpt lat="42.76534" lon="2.6392">
        <ele>106.58219</ele>
        <time>2016-06-03T13:53:12Z</time>
      </trkpt>
      <trkpt lat="42.76525" lon="2.64008">
        <ele>108.614592</ele>
        <time>2016-06-03T13:53:15Z</time>
      </trkpt>
      <trkpt lat="42.76519" lon="2.64114">
        <ele>111.652605</ele>
        <time>2016-06-03T13:53:19Z</time>
      </trkpt>
      <trkpt lat="42.76515" lon="2.64178">
        <ele>111.154341</ele>
        <time>2016-06-03T13:53:22Z</time>
      </trkpt>
      <trkpt lat="42.76521" lon="2.64238">
        <ele>111.541354</ele>
        <time>2016-06-03T13:53:25Z</time>
      </trkpt>
      <trkpt lat="42.76553" lon="2.64326">
        <ele>108.084718</ele>
        <time>2016-06-03T13:53:29Z</time>
      </trkpt>
      <trkpt lat="42.76564" lon="2.644">
        <ele>106.677387</ele>
        <time>2016-06-03T13:53:32Z</time>
      </trkpt>
      <trkpt lat="42.76572" lon="2.64481">
        <ele>103.648044</ele>
        <time>2016-06-03T13:53:35Z</time>
      </trkpt>
      <trkpt lat="42.76582" lon="2.64549">
        <ele>100.955087</ele>
        <time>2016-06-03T13:53:38Z</time>
      </trkpt>
      <trkpt lat="42.76591" lon="2.64574">
        <ele>99.572027</ele>
        <time>2016-06-03T13:53:39Z</time>
      </trkpt>
      <trkpt lat="42.76623" lon="2.64613">
        <ele>99.345281</ele>
        <time>2016-06-03T13:53:41Z</time>
      </trkpt>
      <trkpt lat="42.76698" lon="2.6472">
        <ele>100.857183</ele>
        <time>2016-06-03T13:53:46Z</time>
      </trkpt>
      <trkpt lat="42.7673" lon="2.64759">
        <ele>101.28177</ele>
        <time>2016-06-03T13:53:48Z</time>
      </trkpt>
      <trkpt lat="42.76803" lon="2.64834">
        <ele>100.897649</ele>
        <time>2016-06-03T13:53:52Z</time>
      </trkpt>
      <trkpt lat="42.76862" lon="2.64892">
        <ele>98.623906</ele>
        <time>2016-06-03T13:53:56Z</time>
      </trkpt>
      <trkpt lat="42.76884" lon="2.64911">
        <ele>97.568262</ele>
        <time>2016-06-03T13:53:58Z</time>
      </trkpt>
      <trkpt lat="42.76909" lon="2.6493">
        <ele>98.17837</ele>
        <time>2016-06-03T13:54:01Z</time>
      </trkpt>
      <trkpt lat="42.76921" lon="2.64947">
        <ele>98.235573</ele>
        <time>2016-06-03T13:54:03Z</time>
      </trkpt>
      <trkpt lat="42.76928" lon="2.64973">
        <ele>97.89138</ele>
        <time>2016-06-03T13:54:05Z</time>
      </trkpt>
      <trkpt lat="42.7694" lon="2.65003">
        <ele>97.730853</ele>
        <time>2016-06-03T13:54:07Z</time>
      </trkpt>
      <trkpt lat="42.76946" lon="2.65034">
        <ele>97.077074</ele>
        <time>2016-06-03T13:54:09Z</time>
      </trkpt>
      <trkpt lat="42.76943" lon="2.65069">
        <ele>99.215707</ele>
        <time>2016-06-03T13:54:11Z</time>
      </trkpt>
      <trkpt lat="42.76928" lon="2.65128">
        <ele>100.983191</ele>
        <time>2016-06-03T13:54:14Z</time>
      </trkpt>
      <trkpt lat="42.76917" lon="2.65175">
        <ele>100.530944</ele>
        <time>2016-06-03T13:54:17Z</time>
      </trkpt>
      <trkpt lat="42.76914" lon="2.65187">
        <ele>100.563006</ele>
        <time>2016-06-03T13:54:18Z</time>
      </trkpt>
      <trkpt lat="42.7689" lon="2.65186">
        <ele>101.419967</ele>
        <time>2016-06-03T13:54:21Z</time>
      </trkpt>
      <trkpt lat="42.76866" lon="2.65177">
        <ele>103.345757</ele>
        <time>2016-06-03T13:54:23Z</time>
      </trkpt>
      <trkpt lat="42.76818" lon="2.65163">
        <ele>106.454755</ele>
        <time>2016-06-03T13:54:27Z</time>
      </trkpt>
      <trkpt lat="42.76799" lon="2.65145">
        <ele>108.030959</ele>
        <time>2016-06-03T13:54:29Z</time>
      </trkpt>
      <trkpt lat="42.76782" lon="2.6512">
        <ele>109.314254</ele>
        <time>2016-06-03T13:54:31Z</time>
      </trkpt>
      <trkpt lat="42.76766" lon="2.65105">
        <ele>110.129841</ele>
        <time>2016-06-03T13:54:33Z</time>
      </trkpt>
      <trkpt lat="42.76749" lon="2.65097">
        <ele>111.98727</ele>
        <time>2016-06-03T13:54:35Z</time>
      </trkpt>
      <trkpt lat="42.76739" lon="2.65096">
        <ele>111.99722</ele>
        <time>2016-06-03T13:54:36Z</time>
      </trkpt>
      <trkpt lat="42.76731" lon="2.65103">
        <ele>113.385401</ele>
        <time>2016-06-03T13:54:37Z</time>
      </trkpt>
      <trkpt lat="42.76721" lon="2.65128">
        <ele>114.815501</ele>
        <time>2016-06-03T13:54:39Z</time>
      </trkpt>
      <trkpt lat="42.76715" lon="2.65137">
        <ele>115.014973</ele>
        <time>2016-06-03T13:54:40Z</time>
      </trkpt>
      <trkpt lat="42.76716" lon="2.65154">
        <ele>115.625955</ele>
        <time>2016-06-03T13:54:42Z</time>
      </trkpt>
      <trkpt lat="42.76711" lon="2.65199">
        <ele>116.476731</ele>
        <time>2016-06-03T13:54:45Z</time>
      </trkpt>
      <trkpt lat="42.7671" lon="2.65235">
        <ele>116.204874</ele>
        <time>2016-06-03T13:54:48Z</time>
      </trkpt>
      <trkpt lat="42.76709" lon="2.65269">
        <ele>114.923748</ele>
        <time>2016-06-03T13:54:51Z</time>
      </trkpt>
      <trkpt lat="42.76711" lon="2.65286">
        <ele>114.601465</ele>
        <time>2016-06-03T13:54:53Z</time>
      </trkpt>
      <trkpt lat="42.76714" lon="2.65299">
        <ele>113.812005</ele>
        <time>2016-06-03T13:54:55Z</time>
      </trkpt>
      <trkpt lat="42.76718" lon="2.65306">
        <ele>112.823564</ele>
        <time>2016-06-03T13:54:56Z</time>
      </trkpt>
      <trkpt lat="42.7674" lon="2.65313">
        <ele>111.958121</ele>
        <time>2016-06-03T13:54:58Z</time>
      </trkpt>
      <trkpt lat="42.76758" lon="2.65325">
        <ele>109.873085</ele>
        <time>2016-06-03T13:55:00Z</time>
      </trkpt>
      <trkpt lat="42.76776" lon="2.65347">
        <ele>107.700016</ele>
        <time>2016-06-03T13:55:03Z</time>
      </trkpt>
      <trkpt lat="42.76783" lon="2.65359">
        <ele>106.981472</ele>
        <time>2016-06-03T13:55:05Z</time>
      </trkpt>
      <trkpt lat="42.76804" lon="2.65383">
        <ele>103.764803</ele>
        <time>2016-06-03T13:55:09Z</time>
      </trkpt>
      <trkpt lat="42.76814" lon="2.65395">
        <ele>102.834395</ele>
        <time>2016-06-03T13:55:11Z</time>
      </trkpt>
      <trkpt lat="42.76828" lon="2.6542">
        <ele>103.035262</ele>
        <time>2016-06-03T13:55:14Z</time>
      </trkpt>
      <trkpt lat="42.76841" lon="2.6544">
        <ele>103.410113</ele>
        <time>2016-06-03T13:55:16Z</time>
      </trkpt>
      <trkpt lat="42.76856" lon="2.65469">
        <ele>103.072712</ele>
        <time>2016-06-03T13:55:20Z</time>
      </trkpt>
      <trkpt lat="42.76871" lon="2.65494">
        <ele>102.292967</ele>
        <time>2016-06-03T13:55:23Z</time>
      </trkpt>
      <trkpt lat="42.7688" lon="2.65509">
        <ele>101.550337</ele>
        <time>2016-06-03T13:55:25Z</time>
      </trkpt>
      <trkpt lat="42.76888" lon="2.65521">
        <ele>101.429719</ele>
        <time>2016-06-03T13:55:27Z</time>
      </trkpt>
      <trkpt lat="42.76894" lon="2.65528">
        <ele>101.099656</ele>
        <time>2016-06-03T13:55:28Z</time>
      </trkpt>
      <trkpt lat="42.76888" lon="2.65548">
        <ele>99.999488</ele>
        <time>2016-06-03T13:55:30Z</time>
      </trkpt>
      <trkpt lat="42.7687" lon="2.65565">
        <ele>98.607487</ele>
        <time>2016-06-03T13:55:32Z</time>
      </trkpt>
      <trkpt lat="42.76862" lon="2.65583">
        <ele>97.71004</ele>
        <time>2016-06-03T13:55:34Z</time>
      </trkpt>
      <trkpt lat="42.76853" lon="2.65606">
        <ele>97.047903</ele>
        <time>2016-06-03T13:55:37Z</time>
      </trkpt>
      <trkpt lat="42.76845" lon="2.65624">
        <ele>96.310712</ele>
        <time>2016-06-03T13:55:40Z</time>
      </trkpt>
      <trkpt lat="42.76834" lon="2.65638">
        <ele>96.434425</ele>
        <time>2016-06-03T13:55:42Z</time>
      </trkpt>
      <trkpt lat="42.7682" lon="2.65655">
        <ele>96.217267</ele>
        <time>2016-06-03T13:55:44Z</time>
      </trkpt>
      <trkpt lat="42.76788" lon="2.65685">
        <ele>95.483698</ele>
        <time>2016-06-03T13:55:48Z</time>
      </trkpt>
      <trkpt lat="42.76754" lon="2.65714">
        <ele>95.802128</ele>
        <time>2016-06-03T13:55:52Z</time>
      </trkpt>
      <trkpt lat="42.76728" lon="2.65736">
        <ele>96.072301</ele>
        <time>2016-06-03T13:55:55Z</time>
      </trkpt>
      <trkpt lat="42.76682" lon="2.65757">
        <ele>96.684228</ele>
        <time>2016-06-03T13:55:59Z</time>
      </trkpt>
      <trkpt lat="42.76649" lon="2.65781">
        <ele>98.638905</ele>
        <time>2016-06-03T13:56:02Z</time>
      </trkpt>
      <trkpt lat="42.76628" lon="2.65804">
        <ele>100.767828</ele>
        <time>2016-06-03T13:56:04Z</time>
      </trkpt>
      <trkpt lat="42.76605" lon="2.65842">
        <ele>100.962993</ele>
        <time>2016-06-03T13:56:07Z</time>
      </trkpt>
      <trkpt lat="42.76588" lon="2.65876">
        <ele>100.962606</ele>
        <time>2016-06-03T13:56:09Z</time>
      </trkpt>
      <trkpt lat="42.76579" lon="2.65904">
        <ele>100.198693</ele>
        <time>2016-06-03T13:56:11Z</time>
      </trkpt>
      <trkpt lat="42.76562" lon="2.65931">
        <ele>99.840277</ele>
        <time>2016-06-03T13:56:13Z</time>
      </trkpt>
      <trkpt lat="42.76524" lon="2.6597">
        <ele>99.649115</ele>
        <time>2016-06-03T13:56:16Z</time>
      </trkpt>
      <trkpt lat="42.76501" lon="2.65998">
        <ele>99.656149</ele>
        <time>2016-06-03T13:56:18Z</time>
      </trkpt>
      <trkpt lat="42.76473" lon="2.66065">
        <ele>100.641635</ele>
        <time>2016-06-03T13:56:21Z</time>
      </trkpt>
      <trkpt lat="42.76428" lon="2.66135">
        <ele>100.229411</ele>
        <time>2016-06-03T13:56:25Z</time>
      </trkpt>
      <trkpt lat="42.76409" lon="2.66175">
        <ele>99.717472</ele>
        <time>2016-06-03T13:56:27Z</time>
      </trkpt>
      <trkpt lat="42.76375" lon="2.66262">
        <ele>98.739404</ele>
        <time>2016-06-03T13:56:31Z</time>
      </trkpt>
      <trkpt lat="42.76345" lon="2.66317">
        <ele>98.230716</ele>
        <time>2016-06-03T13:56:34Z</time>
      </trkpt>
      <trkpt lat="42.76324" lon="2.66345">
        <ele>98.050379</ele>
        <time>2016-06-03T13:56:36Z</time>
      </trkpt>
      <trkpt lat="42.76302" lon="2.66365">
        <ele>97.515986</ele>
        <time>2016-06-03T13:56:38Z</time>
      </trkpt>
      <trkpt lat="42.76245" lon="2.66389">
        <ele>98.187189</ele>
        <time>2016-06-03T13:56:42Z</time>
      </trkpt>
      <trkpt lat="42.76216" lon="2.66408">
        <ele>96.216701</ele>
        <time>2016-06-03T13:56:44Z</time>
      </trkpt>
      <trkpt lat="42.7618" lon="2.66451">
        <ele>97.263969</ele>
        <time>2016-06-03T13:56:47Z</time>
      </trkpt>
      <trkpt lat="42.76163" lon="2.66498">
        <ele>98.361487</ele>
        <time>2016-06-03T13:56:49Z</time>
      </trkpt>
      <trkpt lat="42.76133" lon="2.66562">
        <ele>97.155323</ele>
        <time>2016-06-03T13:56:52Z</time>
      </trkpt>
      <trkpt lat="42.76108" lon="2.66598">
        <ele>97.510508</ele>
        <time>2016-06-03T13:56:54Z</time>
      </trkpt>
      <trkpt lat="42.76083" lon="2.66622">
        <ele>97.129684</ele>
        <time>2016-06-03T13:56:56Z</time>
      </trkpt>
      <trkpt lat="42.76055" lon="2.66636">
        <ele>96.009423</ele>
        <time>2016-06-03T13:56:58Z</time>
      </trkpt>
      <trkpt lat="42.76009" lon="2.66638">
        <ele>95.199102</ele>
        <time>2016-06-03T13:57:01Z</time>
      </trkpt>
      <trkpt lat="42.75978" lon="2.66645">
        <ele>94.978506</ele>
        <time>2016-06-03T13:57:03Z</time>
      </trkpt>
      <trkpt lat="42.75964" lon="2.66652">
        <ele>95.690437</ele>
        <time>2016-06-03T13:57:04Z</time>
      </trkpt>
      <trkpt lat="42.75928" lon="2.66696">
        <ele>97.350705</ele>
        <time>2016-06-03T13:57:07Z</time>
      </trkpt>
      <trkpt lat="42.75888" lon="2.66746">
        <ele>98.101362</ele>
        <time>2016-06-03T13:57:10Z</time>
      </trkpt>
      <trkpt lat="42.75844" lon="2.66798">
        <ele>99.987476</ele>
        <time>2016-06-03T13:57:13Z</time>
      </trkpt>
      <trkpt lat="42.75796" lon="2.66874">
        <ele>101.778187</ele>
        <time>2016-06-03T13:57:17Z</time>
      </trkpt>
      <trkpt lat="42.75772" lon="2.66904">
        <ele>101.53574</ele>
        <time>2016-06-03T13:57:19Z</time>
      </trkpt>
      <trkpt lat="42.75746" lon="2.66931">
        <ele>100.755061</ele>
        <time>2016-06-03T13:57:21Z</time>
      </trkpt>
      <trkpt lat="42.75723" lon="2.66952">
        <ele>101.266839</ele>
        <time>2016-06-03T13:57:23Z</time>
      </trkpt>
      <trkpt lat="42.75698" lon="2.66988">
        <ele>101.81852</ele>
        <time>2016-06-03T13:57:26Z</time>
      </trkpt>
      <trkpt lat="42.75682" lon="2.6702">
        <ele>102.264885</ele>
        <time>2016-06-03T13:57:28Z</time>
      </trkpt>
      <trkpt lat="42.75656" lon="2.67087">
        <ele>101.401244</ele>
        <time>2016-06-03T13:57:31Z</time>
      </trkpt>
      <trkpt lat="42.75627" lon="2.67158">
        <ele>101.304745</ele>
        <time>2016-06-03T13:57:34Z</time>
      </trkpt>
      <trkpt lat="42.75599" lon="2.67228">
        <ele>101.718067</ele>
        <time>2016-06-03T13:57:37Z</time>
      </trkpt>
      <trkpt lat="42.75574" lon="2.67292">
        <ele>100.866444</ele>
        <time>2016-06-03T13:57:40Z</time>
      </trkpt>
      <trkpt lat="42.75556" lon="2.67345">
        <ele>98.755502</ele>
        <time>2016-06-03T13:57:43Z</time>
      </trkpt>
      <trkpt lat="42.75544" lon="2.67362">
        <ele>99.068966</ele>
        <time>2016-06-03T13:57:45Z</time>
      </trkpt>
      <trkpt lat="42.75528" lon="2.67369">
        <ele>97.037693</ele>
        <time>2016-06-03T13:57:47Z</time>
      </trkpt>
      <trkpt lat="42.75486" lon="2.67348">
        <ele>98.810636</ele>
        <time>2016-06-03T13:57:51Z</time>
      </trkpt>
      <trkpt lat="42.75456" lon="2.67341">
        <ele>99.989359</ele>
        <time>2016-06-03T13:57:54Z</time>
      </trkpt>
      <trkpt lat="42.75436" lon="2.67382">
        <ele>103.333777</ele>
        <time>2016-06-03T13:57:57Z</time>
      </trkpt>
      <trkpt lat="42.75418" lon="2.67404">
        <ele>103.434257</ele>
        <time>2016-06-03T13:57:59Z</time>
      </trkpt>
      <trkpt lat="42.75397" lon="2.6742">
        <ele>104.068793</ele>
        <time>2016-06-03T13:58:02Z</time>
      </trkpt>
      <trkpt lat="42.75386" lon="2.67423">
        <ele>104.934525</ele>
        <time>2016-06-03T13:58:04Z</time>
      </trkpt>
      <trkpt lat="42.75376" lon="2.67418">
        <ele>105.176761</ele>
        <time>2016-06-03T13:58:06Z</time>
      </trkpt>
      <trkpt lat="42.75341" lon="2.67381">
        <ele>105.245614</ele>
        <time>2016-06-03T13:58:10Z</time>
      </trkpt>
      <trkpt lat="42.75302" lon="2.67335">
        <ele>108.551343</ele>
        <time>2016-06-03T13:58:13Z</time>
      </trkpt>
      <trkpt lat="42.75249" lon="2.67264">
        <ele>109.616137</ele>
        <time>2016-06-03T13:58:17Z</time>
      </trkpt>
      <trkpt lat="42.75201" lon="2.67204">
        <ele>109.498571</ele>
        <time>2016-06-03T13:58:20Z</time>
      </trkpt>
      <trkpt lat="42.75157" lon="2.67139">
        <ele>110.569107</ele>
        <time>2016-06-03T13:58:23Z</time>
      </trkpt>
      <trkpt lat="42.75091" lon="2.6705">
        <ele>112.812735</ele>
        <time>2016-06-03T13:58:27Z</time>
      </trkpt>
      <trkpt lat="42.75057" lon="2.67009">
        <ele>114.842602</ele>
        <time>2016-06-03T13:58:29Z</time>
      </trkpt>
      <trkpt lat="42.75" lon="2.66952">
        <ele>117.339885</ele>
        <time>2016-06-03T13:58:32Z</time>
      </trkpt>
      <trkpt lat="42.74964" lon="2.66919">
        <ele>117.471305</ele>
        <time>2016-06-03T13:58:34Z</time>
      </trkpt>
      <trkpt lat="42.74933" lon="2.66885">
        <ele>119.017415</ele>
        <time>2016-06-03T13:58:36Z</time>
      </trkpt>
      <trkpt lat="42.74903" lon="2.66859">
        <ele>119.232506</ele>
        <time>2016-06-03T13:58:38Z</time>
      </trkpt>
      <trkpt lat="42.74874" lon="2.66839">
        <ele>118.86378</ele>
        <time>2016-06-03T13:58:40Z</time>
      </trkpt>
      <trkpt lat="42.74845" lon="2.66827">
        <ele>120.056807</ele>
        <time>2016-06-03T13:58:42Z</time>
      </trkpt>
      <trkpt lat="42.74833" lon="2.66846">
        <ele>121.083588</ele>
        <time>2016-06-03T13:58:43Z</time>
      </trkpt>
      <trkpt lat="42.7481" lon="2.66855">
        <ele>120.376416</ele>
        <time>2016-06-03T13:58:45Z</time>
      </trkpt>
      <trkpt lat="42.74793" lon="2.66879">
        <ele>121.385242</ele>
        <time>2016-06-03T13:58:47Z</time>
      </trkpt>
      <trkpt lat="42.74803" lon="2.66929">
        <ele>123.232011</ele>
        <time>2016-06-03T13:58:49Z</time>
      </trkpt>
      <trkpt lat="42.74803" lon="2.66967">
        <ele>124.27204</ele>
        <time>2016-06-03T13:58:51Z</time>
      </trkpt>
      <trkpt lat="42.748" lon="2.66984">
        <ele>124.641173</ele>
        <time>2016-06-03T13:58:52Z</time>
      </trkpt>
      <trkpt lat="42.74776" lon="2.67012">
        <ele>124.968</ele>
        <time>2016-06-03T13:58:54Z</time>
      </trkpt>
      <trkpt lat="42.74755" lon="2.67027">
        <ele>126.933926</ele>
        <time>2016-06-03T13:58:56Z</time>
      </trkpt>
      <trkpt lat="42.7472" lon="2.67">
        <ele>128.410977</ele>
        <time>2016-06-03T13:58:59Z</time>
      </trkpt>
      <trkpt lat="42.74703" lon="2.66951">
        <ele>129.611774</ele>
        <time>2016-06-03T13:59:02Z</time>
      </trkpt>
      <trkpt lat="42.7471" lon="2.6693">
        <ele>129.661049</ele>
        <time>2016-06-03T13:59:03Z</time>
      </trkpt>
      <trkpt lat="42.74706" lon="2.66904">
        <ele>131.371905</ele>
        <time>2016-06-03T13:59:05Z</time>
      </trkpt>
      <trkpt lat="42.74688" lon="2.66892">
        <ele>132.212837</ele>
        <time>2016-06-03T13:59:07Z</time>
      </trkpt>
      <trkpt lat="42.74667" lon="2.66901">
        <ele>133.759264</ele>
        <time>2016-06-03T13:59:09Z</time>
      </trkpt>
      <trkpt lat="42.74641" lon="2.6692">
        <ele>135.674496</ele>
        <time>2016-06-03T13:59:11Z</time>
      </trkpt>
      <trkpt lat="42.74611" lon="2.66933">
        <ele>136.538147</ele>
        <time>2016-06-03T13:59:13Z</time>
      </trkpt>
      <trkpt lat="42.74579" lon="2.66933">
        <ele>138.846054</ele>
        <time>2016-06-03T13:59:15Z</time>
      </trkpt>
      <trkpt lat="42.74547" lon="2.66918">
        <ele>141.162848</ele>
        <time>2016-06-03T13:59:17Z</time>
      </trkpt>
      <trkpt lat="42.74517" lon="2.66894">
        <ele>142.027143</ele>
        <time>2016-06-03T13:59:19Z</time>
      </trkpt>
      <trkpt lat="42.74486" lon="2.66862">
        <ele>146.419058</ele>
        <time>2016-06-03T13:59:21Z</time>
      </trkpt>
      <trkpt lat="42.74436" lon="2.66817">
        <ele>148.072783</ele>
        <time>2016-06-03T13:59:24Z</time>
      </trkpt>
      <trkpt lat="42.74378" lon="2.66762">
        <ele>150.90264</ele>
        <time>2016-06-03T13:59:28Z</time>
      </trkpt>
      <trkpt lat="42.74346" lon="2.66741">
        <ele>150.520267</ele>
        <time>2016-06-03T13:59:30Z</time>
      </trkpt>
      <trkpt lat="42.7431" lon="2.66728">
        <ele>151.961316</ele>
        <time>2016-06-03T13:59:32Z</time>
      </trkpt>
      <trkpt lat="42.74274" lon="2.6672">
        <ele>153.863191</ele>
        <time>2016-06-03T13:59:34Z</time>
      </trkpt>
      <trkpt lat="42.74262" lon="2.66729">
        <ele>155.614839</ele>
        <time>2016-06-03T13:59:35Z</time>
      </trkpt>
      <trkpt lat="42.74232" lon="2.66738">
        <ele>157.443858</ele>
        <time>2016-06-03T13:59:37Z</time>
      </trkpt>
      <trkpt lat="42.74202" lon="2.66769">
        <ele>159.140192</ele>
        <time>2016-06-03T13:59:39Z</time>
      </trkpt>
      <trkpt lat="42.74169" lon="2.6679">
        <ele>160.945715</ele>
        <time>2016-06-03T13:59:41Z</time>
      </trkpt>
      <trkpt lat="42.7414" lon="2.66797">
        <ele>162.889764</ele>
        <time>2016-06-03T13:59:43Z</time>
      </trkpt>
      <trkpt lat="42.74097" lon="2.66777">
        <ele>165.893162</ele>
        <time>2016-06-03T13:59:46Z</time>
      </trkpt>
      <trkpt lat="42.74068" lon="2.66765">
        <ele>164.77684</ele>
        <time>2016-06-03T13:59:48Z</time>
      </trkpt>
      <trkpt lat="42.74041" lon="2.66762">
        <ele>168.048343</ele>
        <time>2016-06-03T13:59:50Z</time>
      </trkpt>
      <trkpt lat="42.74004" lon="2.66807">
        <ele>168.311329</ele>
        <time>2016-06-03T13:59:53Z</time>
      </trkpt>
      <trkpt lat="42.73985" lon="2.66817">
        <ele>168.209887</ele>
        <time>2016-06-03T13:59:55Z</time>
      </trkpt>
      <trkpt lat="42.73965" lon="2.66807">
        <ele>169.160882</ele>
        <time>2016-06-03T13:59:57Z</time>
      </trkpt>
      <trkpt lat="42.73948" lon="2.66784">
        <ele>169.38646</ele>
        <time>2016-06-03T13:59:59Z</time>
      </trkpt>
      <trkpt lat="42.73951" lon="2.66771">
        <ele>171.020081</ele>
        <time>2016-06-03T14:00:00Z</time>
      </trkpt>
      <trkpt lat="42.73948" lon="2.66728">
        <ele>171.218047</ele>
        <time>2016-06-03T14:00:02Z</time>
      </trkpt>
      <trkpt lat="42.73948" lon="2.66691">
        <ele>171.664652</ele>
        <time>2016-06-03T14:00:04Z</time>
      </trkpt>
      <trkpt lat="42.73943" lon="2.66674">
        <ele>173.680753</ele>
        <time>2016-06-03T14:00:05Z</time>
      </trkpt>
      <trkpt lat="42.73924" lon="2.66657">
        <ele>175.343181</ele>
        <time>2016-06-03T14:00:06Z</time>
      </trkpt>
      <trkpt lat="42.73897" lon="2.6666">
        <ele>175.7239</ele>
        <time>2016-06-03T14:00:09Z</time>
      </trkpt>
      <trkpt lat="42.73883" lon="2.66665">
        <ele>176.764184</ele>
        <time>2016-06-03T14:00:09Z</time>
      </trkpt>
      <trkpt lat="42.73869" lon="2.66702">
        <ele>177.687687</ele>
        <time>2016-06-03T14:00:12Z</time>
      </trkpt>
      <trkpt lat="42.73859" lon="2.66738">
        <ele>179.373273</ele>
        <time>2016-06-03T14:00:14Z</time>
      </trkpt>
      <trkpt lat="42.73839" lon="2.66757">
        <ele>180.726018</ele>
        <time>2016-06-03T14:00:16Z</time>
      </trkpt>
      <trkpt lat="42.73814" lon="2.66769">
        <ele>181.435744</ele>
        <time>2016-06-03T14:00:18Z</time>
      </trkpt>
      <trkpt lat="42.73771" lon="2.66745">
        <ele>184.346098</ele>
        <time>2016-06-03T14:00:21Z</time>
      </trkpt>
      <trkpt lat="42.73746" lon="2.66739">
        <ele>184.498818</ele>
        <time>2016-06-03T14:00:23Z</time>
      </trkpt>
      <trkpt lat="42.73718" lon="2.66745">
        <ele>186.227787</ele>
        <time>2016-06-03T14:00:25Z</time>
      </trkpt>
      <trkpt lat="42.73698" lon="2.66765">
        <ele>188.331074</ele>
        <time>2016-06-03T14:00:27Z</time>
      </trkpt>
      <trkpt lat="42.73679" lon="2.6679">
        <ele>187.838421</ele>
        <time>2016-06-03T14:00:29Z</time>
      </trkpt>
      <trkpt lat="42.73656" lon="2.66802">
        <ele>189.107683</ele>
        <time>2016-06-03T14:00:31Z</time>
      </trkpt>
      <trkpt lat="42.73637" lon="2.66773">
        <ele>190.897699</ele>
        <time>2016-06-03T14:00:33Z</time>
      </trkpt>
      <trkpt lat="42.73612" lon="2.66751">
        <ele>192.454754</ele>
        <time>2016-06-03T14:00:35Z</time>
      </trkpt>
      <trkpt lat="42.73584" lon="2.66738">
        <ele>194.365754</ele>
        <time>2016-06-03T14:00:37Z</time>
      </trkpt>
      <trkpt lat="42.7357" lon="2.66735">
        <ele>193.970031</ele>
        <time>2016-06-03T14:00:38Z</time>
      </trkpt>
      <trkpt lat="42.73517" lon="2.66769">
        <ele>199.064151</ele>
        <time>2016-06-03T14:00:41Z</time>
      </trkpt>
      <trkpt lat="42.73468" lon="2.66805">
        <ele>199.979526</ele>
        <time>2016-06-03T14:00:44Z</time>
      </trkpt>
      <trkpt lat="42.7344" lon="2.66824">
        <ele>200.675284</ele>
        <time>2016-06-03T14:00:46Z</time>
      </trkpt>
      <trkpt lat="42.73417" lon="2.66851">
        <ele>203.317064</ele>
        <time>2016-06-03T14:00:48Z</time>
      </trkpt>
      <trkpt lat="42.73399" lon="2.66901">
        <ele>203.422837</ele>
        <time>2016-06-03T14:00:51Z</time>
      </trkpt>
      <trkpt lat="42.73393" lon="2.66931">
        <ele>204.719334</ele>
        <time>2016-06-03T14:00:53Z</time>
      </trkpt>
      <trkpt lat="42.73388" lon="2.66944">
        <ele>204.829075</ele>
        <time>2016-06-03T14:00:54Z</time>
      </trkpt>
      <trkpt lat="42.73363" lon="2.66962">
        <ele>205.7224</ele>
        <time>2016-06-03T14:00:56Z</time>
      </trkpt>
      <trkpt lat="42.73342" lon="2.66942">
        <ele>207.173773</ele>
        <time>2016-06-03T14:00:58Z</time>
      </trkpt>
      <trkpt lat="42.73317" lon="2.66944">
        <ele>208.813631</ele>
        <time>2016-06-03T14:01:00Z</time>
      </trkpt>
      <trkpt lat="42.73301" lon="2.66969">
        <ele>212.604101</ele>
        <time>2016-06-03T14:01:02Z</time>
      </trkpt>
      <trkpt lat="42.7326" lon="2.67071">
        <ele>214.302878</ele>
        <time>2016-06-03T14:01:07Z</time>
      </trkpt>
      <trkpt lat="42.73242" lon="2.67114">
        <ele>216.807803</ele>
        <time>2016-06-03T14:01:09Z</time>
      </trkpt>
      <trkpt lat="42.73218" lon="2.67152">
        <ele>219.143551</ele>
        <time>2016-06-03T14:01:11Z</time>
      </trkpt>
      <trkpt lat="42.73173" lon="2.67205">
        <ele>220.152437</ele>
        <time>2016-06-03T14:01:15Z</time>
      </trkpt>
      <trkpt lat="42.73154" lon="2.67218">
        <ele>220.946666</ele>
        <time>2016-06-03T14:01:17Z</time>
      </trkpt>
      <trkpt lat="42.73146" lon="2.67219">
        <ele>221.512596</ele>
        <time>2016-06-03T14:01:18Z</time>
      </trkpt>
      <trkpt lat="42.73126" lon="2.6719">
        <ele>223.332148</ele>
        <time>2016-06-03T14:01:21Z</time>
      </trkpt>
      <trkpt lat="42.73115" lon="2.67156">
        <ele>226.121893</ele>
        <time>2016-06-03T14:01:23Z</time>
      </trkpt>
      <trkpt lat="42.73115" lon="2.67139">
        <ele>226.121893</ele>
        <time>2016-06-03T14:01:24Z</time>
      </trkpt>
      <trkpt lat="42.73129" lon="2.67113">
        <ele>226.832644</ele>
        <time>2016-06-03T14:01:25Z</time>
      </trkpt>
      <trkpt lat="42.73135" lon="2.67073">
        <ele>226.80345</ele>
        <time>2016-06-03T14:01:27Z</time>
      </trkpt>
      <trkpt lat="42.73134" lon="2.67039">
        <ele>227.959724</ele>
        <time>2016-06-03T14:01:29Z</time>
      </trkpt>
      <trkpt lat="42.73126" lon="2.67012">
        <ele>229.458231</ele>
        <time>2016-06-03T14:01:31Z</time>
      </trkpt>
      <trkpt lat="42.73119" lon="2.67011">
        <ele>229.419256</ele>
        <time>2016-06-03T14:01:32Z</time>
      </trkpt>
      <trkpt lat="42.73114" lon="2.67002">
        <ele>230.345519</ele>
        <time>2016-06-03T14:01:33Z</time>
      </trkpt>
      <trkpt lat="42.73102" lon="2.67009">
        <ele>230.345207</ele>
        <time>2016-06-03T14:01:34Z</time>
      </trkpt>
      <trkpt lat="42.73082" lon="2.67074">
        <ele>232.578296</ele>
        <time>2016-06-03T14:01:37Z</time>
      </trkpt>
      <trkpt lat="42.73055" lon="2.67129">
        <ele>234.480621</ele>
        <time>2016-06-03T14:01:40Z</time>
      </trkpt>
      <trkpt lat="42.73028" lon="2.67167">
        <ele>235.819388</ele>
        <time>2016-06-03T14:01:43Z</time>
      </trkpt>
      <trkpt lat="42.73008" lon="2.67172">
        <ele>236.741013</ele>
        <time>2016-06-03T14:01:45Z</time>
      </trkpt>
      <trkpt lat="42.72997" lon="2.67169">
        <ele>237.338092</ele>
        <time>2016-06-03T14:01:46Z</time>
      </trkpt>
      <trkpt lat="42.72988" lon="2.67139">
        <ele>237.965246</ele>
        <time>2016-06-03T14:01:48Z</time>
      </trkpt>
      <trkpt lat="42.72994" lon="2.67119">
        <ele>239.684852</ele>
        <time>2016-06-03T14:01:49Z</time>
      </trkpt>
      <trkpt lat="42.73" lon="2.67054">
        <ele>241.519232</ele>
        <time>2016-06-03T14:01:52Z</time>
      </trkpt>
      <trkpt lat="42.73007" lon="2.66987">
        <ele>243.902658</ele>
        <time>2016-06-03T14:01:55Z</time>
      </trkpt>
      <trkpt lat="42.72999" lon="2.66929">
        <ele>244.301746</ele>
        <time>2016-06-03T14:01:58Z</time>
      </trkpt>
      <trkpt lat="42.7298" lon="2.66914">
        <ele>245.45892</ele>
        <time>2016-06-03T14:02:00Z</time>
      </trkpt>
      <trkpt lat="42.72969" lon="2.66909">
        <ele>245.538073</ele>
        <time>2016-06-03T14:02:01Z</time>
      </trkpt>
      <trkpt lat="42.72947" lon="2.66917">
        <ele>248.013892</ele>
        <time>2016-06-03T14:02:03Z</time>
      </trkpt>
      <trkpt lat="42.72927" lon="2.66947">
        <ele>249.773178</ele>
        <time>2016-06-03T14:02:05Z</time>
      </trkpt>
      <trkpt lat="42.72883" lon="2.66987">
        <ele>250.210952</ele>
        <time>2016-06-03T14:02:08Z</time>
      </trkpt>
      <trkpt lat="42.7286" lon="2.67008">
        <ele>252.169223</ele>
        <time>2016-06-03T14:02:10Z</time>
      </trkpt>
      <trkpt lat="42.72833" lon="2.67017">
        <ele>251.314012</ele>
        <time>2016-06-03T14:02:12Z</time>
      </trkpt>
      <trkpt lat="42.72808" lon="2.67005">
        <ele>252.232694</ele>
        <time>2016-06-03T14:02:14Z</time>
      </trkpt>
      <trkpt lat="42.72785" lon="2.66994">
        <ele>255.061447</ele>
        <time>2016-06-03T14:02:16Z</time>
      </trkpt>
      <trkpt lat="42.72744" lon="2.67002">
        <ele>257.445403</ele>
        <time>2016-06-03T14:02:19Z</time>
      </trkpt>
      <trkpt lat="42.72723" lon="2.66993">
        <ele>257.38916</ele>
        <time>2016-06-03T14:02:21Z</time>
      </trkpt>
      <trkpt lat="42.72702" lon="2.66971">
        <ele>258.985817</ele>
        <time>2016-06-03T14:02:23Z</time>
      </trkpt>
      <trkpt lat="42.72689" lon="2.66942">
        <ele>259.180513</ele>
        <time>2016-06-03T14:02:25Z</time>
      </trkpt>
      <trkpt lat="42.72674" lon="2.66922">
        <ele>260.157821</ele>
        <time>2016-06-03T14:02:28Z</time>
      </trkpt>
      <trkpt lat="42.72667" lon="2.66915">
        <ele>260.264324</ele>
        <time>2016-06-03T14:02:30Z</time>
      </trkpt>
      <trkpt lat="42.72635" lon="2.66915">
        <ele>261.136312</ele>
        <time>2016-06-03T14:02:34Z</time>
      </trkpt>
      <trkpt lat="42.72611" lon="2.6693">
        <ele>260.060131</ele>
        <time>2016-06-03T14:02:36Z</time>
      </trkpt>
      <trkpt lat="42.72572" lon="2.66949">
        <ele>258.519321</ele>
        <time>2016-06-03T14:02:39Z</time>
      </trkpt>
      <trkpt lat="42.7256" lon="2.66954">
        <ele>258.905013</ele>
        <time>2016-06-03T14:02:40Z</time>
      </trkpt>
      <trkpt lat="42.72545" lon="2.66945">
        <ele>259.420469</ele>
        <time>2016-06-03T14:02:41Z</time>
      </trkpt>
      <trkpt lat="42.7248" lon="2.66964">
        <ele>258.053601</ele>
        <time>2016-06-03T14:02:45Z</time>
      </trkpt>
      <trkpt lat="42.72424" lon="2.66984">
        <ele>252.935518</ele>
        <time>2016-06-03T14:02:48Z</time>
      </trkpt>
      <trkpt lat="42.72379" lon="2.67013">
        <ele>252.214233</ele>
        <time>2016-06-03T14:02:51Z</time>
      </trkpt>
      <trkpt lat="42.72352" lon="2.67052">
        <ele>250.208992</ele>
        <time>2016-06-03T14:02:54Z</time>
      </trkpt>
      <trkpt lat="42.72341" lon="2.67086">
        <ele>249.714042</ele>
        <time>2016-06-03T14:02:56Z</time>
      </trkpt>
      <trkpt lat="42.7234" lon="2.6714">
        <ele>247.100779</ele>
        <time>2016-06-03T14:02:59Z</time>
      </trkpt>
      <trkpt lat="42.7233" lon="2.67168">
        <ele>246.590463</ele>
        <time>2016-06-03T14:03:01Z</time>
      </trkpt>
      <trkpt lat="42.72323" lon="2.67179">
        <ele>245.981145</ele>
        <time>2016-06-03T14:03:02Z</time>
      </trkpt>
      <trkpt lat="42.72303" lon="2.67175">
        <ele>246.395622</ele>
        <time>2016-06-03T14:03:04Z</time>
      </trkpt>
      <trkpt lat="42.72279" lon="2.67164">
        <ele>246.86285</ele>
        <time>2016-06-03T14:03:06Z</time>
      </trkpt>
      <trkpt lat="42.72252" lon="2.67138">
        <ele>246.037934</ele>
        <time>2016-06-03T14:03:08Z</time>
      </trkpt>
      <trkpt lat="42.72226" lon="2.67113">
        <ele>244.832362</ele>
        <time>2016-06-03T14:03:10Z</time>
      </trkpt>
      <trkpt lat="42.72207" lon="2.67076">
        <ele>242.846568</ele>
        <time>2016-06-03T14:03:12Z</time>
      </trkpt>
      <trkpt lat="42.72194" lon="2.67044">
        <ele>241.843036</ele>
        <time>2016-06-03T14:03:14Z</time>
      </trkpt>
      <trkpt lat="42.72159" lon="2.67">
        <ele>240.573602</ele>
        <time>2016-06-03T14:03:17Z</time>
      </trkpt>
      <trkpt lat="42.72129" lon="2.66993">
        <ele>237.481048</ele>
        <time>2016-06-03T14:03:19Z</time>
      </trkpt>
      <trkpt lat="42.72063" lon="2.6696">
        <ele>236.247354</ele>
        <time>2016-06-03T14:03:23Z</time>
      </trkpt>
      <trkpt lat="42.72028" lon="2.66941">
        <ele>234.933084</ele>
        <time>2016-06-03T14:03:25Z</time>
      </trkpt>
      <trkpt lat="42.71981" lon="2.66913">
        <ele>232.674891</ele>
        <time>2016-06-03T14:03:28Z</time>
      </trkpt>
      <trkpt lat="42.71946" lon="2.66865">
        <ele>230.110647</ele>
        <time>2016-06-03T14:03:32Z</time>
      </trkpt>
      <trkpt lat="42.71927" lon="2.66851">
        <ele>229.574562</ele>
        <time>2016-06-03T14:03:34Z</time>
      </trkpt>
      <trkpt lat="42.71859" lon="2.66881">
        <ele>230.103892</ele>
        <time>2016-06-03T14:03:38Z</time>
      </trkpt>
      <trkpt lat="42.71808" lon="2.66913">
        <ele>227.294784</ele>
        <time>2016-06-03T14:03:40Z</time>
      </trkpt>
      <trkpt lat="42.71754" lon="2.66927">
        <ele>225.295575</ele>
        <time>2016-06-03T14:03:43Z</time>
      </trkpt>
      <trkpt lat="42.71717" lon="2.66936">
        <ele>224.840838</ele>
        <time>2016-06-03T14:03:45Z</time>
      </trkpt>
      <trkpt lat="42.71685" lon="2.66944">
        <ele>221.315006</ele>
        <time>2016-06-03T14:03:47Z</time>
      </trkpt>
      <trkpt lat="42.71634" lon="2.6698">
        <ele>219.402161</ele>
        <time>2016-06-03T14:03:50Z</time>
      </trkpt>
      <trkpt lat="42.71591" lon="2.67001">
        <ele>216.420551</ele>
        <time>2016-06-03T14:03:53Z</time>
      </trkpt>
      <trkpt lat="42.71517" lon="2.66991">
        <ele>212.006953</ele>
        <time>2016-06-03T14:03:58Z</time>
      </trkpt>
      <trkpt lat="42.71501" lon="2.66995">
        <ele>211.589121</ele>
        <time>2016-06-03T14:03:59Z</time>
      </trkpt>
      <trkpt lat="42.71476" lon="2.67031">
        <ele>210.955245</ele>
        <time>2016-06-03T14:04:01Z</time>
      </trkpt>
      <trkpt lat="42.7144" lon="2.67071">
        <ele>207.642906</ele>
        <time>2016-06-03T14:04:04Z</time>
      </trkpt>
      <trkpt lat="42.71421" lon="2.67098">
        <ele>206.176795</ele>
        <time>2016-06-03T14:04:06Z</time>
      </trkpt>
      <trkpt lat="42.71406" lon="2.67135">
        <ele>206.174329</ele>
        <time>2016-06-03T14:04:08Z</time>
      </trkpt>
      <trkpt lat="42.71401" lon="2.67155">
        <ele>205.150708</ele>
        <time>2016-06-03T14:04:09Z</time>
      </trkpt>
      <trkpt lat="42.71405" lon="2.67199">
        <ele>202.366146</ele>
        <time>2016-06-03T14:04:11Z</time>
      </trkpt>
      <trkpt lat="42.71423" lon="2.67234">
        <ele>203.554698</ele>
        <time>2016-06-03T14:04:13Z</time>
      </trkpt>
      <trkpt lat="42.71447" lon="2.67268">
        <ele>201.64702</ele>
        <time>2016-06-03T14:04:15Z</time>
      </trkpt>
      <trkpt lat="42.71458" lon="2.6731">
        <ele>199.502124</ele>
        <time>2016-06-03T14:04:17Z</time>
      </trkpt>
      <trkpt lat="42.71447" lon="2.67355">
        <ele>198.219362</ele>
        <time>2016-06-03T14:04:19Z</time>
      </trkpt>
      <trkpt lat="42.71417" lon="2.67444">
        <ele>192.920457</ele>
        <time>2016-06-03T14:04:23Z</time>
      </trkpt>
      <trkpt lat="42.71408" lon="2.67485">
        <ele>190.435541</ele>
        <time>2016-06-03T14:04:25Z</time>
      </trkpt>
      <trkpt lat="42.71405" lon="2.67531">
        <ele>188.794617</ele>
        <time>2016-06-03T14:04:27Z</time>
      </trkpt>
      <trkpt lat="42.71417" lon="2.67619">
        <ele>184.771775</ele>
        <time>2016-06-03T14:04:31Z</time>
      </trkpt>
      <trkpt lat="42.71434" lon="2.67656">
        <ele>183.782608</ele>
        <time>2016-06-03T14:04:33Z</time>
      </trkpt>
      <trkpt lat="42.71454" lon="2.67688">
        <ele>181.023984</ele>
        <time>2016-06-03T14:04:35Z</time>
      </trkpt>
      <trkpt lat="42.71467" lon="2.67725">
        <ele>179.725749</ele>
        <time>2016-06-03T14:04:37Z</time>
      </trkpt>
      <trkpt lat="42.71461" lon="2.67767">
        <ele>177.616527</ele>
        <time>2016-06-03T14:04:39Z</time>
      </trkpt>
      <trkpt lat="42.71446" lon="2.67805">
        <ele>176.698639</ele>
        <time>2016-06-03T14:04:41Z</time>
      </trkpt>
      <trkpt lat="42.71427" lon="2.67825">
        <ele>176.095708</ele>
        <time>2016-06-03T14:04:42Z</time>
      </trkpt>
      <trkpt lat="42.71408" lon="2.67871">
        <ele>178.209142</ele>
        <time>2016-06-03T14:04:44Z</time>
      </trkpt>
      <trkpt lat="42.71393" lon="2.67972">
        <ele>174.96741</ele>
        <time>2016-06-03T14:04:48Z</time>
      </trkpt>
      <trkpt lat="42.71392" lon="2.68013">
        <ele>173.537531</ele>
        <time>2016-06-03T14:04:50Z</time>
      </trkpt>
      <trkpt lat="42.71405" lon="2.68048">
        <ele>173.452448</ele>
        <time>2016-06-03T14:04:52Z</time>
      </trkpt>
      <trkpt lat="42.71424" lon="2.68077">
        <ele>170.509073</ele>
        <time>2016-06-03T14:04:54Z</time>
      </trkpt>
      <trkpt lat="42.71447" lon="2.68102">
        <ele>168.83815</ele>
        <time>2016-06-03T14:04:56Z</time>
      </trkpt>
      <trkpt lat="42.71456" lon="2.68138">
        <ele>168.495497</ele>
        <time>2016-06-03T14:04:58Z</time>
      </trkpt>
      <trkpt lat="42.71458" lon="2.68159">
        <ele>168.529828</ele>
        <time>2016-06-03T14:04:59Z</time>
      </trkpt>
      <trkpt lat="42.7144" lon="2.68194">
        <ele>167.194399</ele>
        <time>2016-06-03T14:05:01Z</time>
      </trkpt>
      <trkpt lat="42.71418" lon="2.68219">
        <ele>167.67748</ele>
        <time>2016-06-03T14:05:03Z</time>
      </trkpt>
      <trkpt lat="42.71403" lon="2.68229">
        <ele>167.595921</ele>
        <time>2016-06-03T14:05:04Z</time>
      </trkpt>
      <trkpt lat="42.71372" lon="2.68231">
        <ele>165.734815</ele>
        <time>2016-06-03T14:05:06Z</time>
      </trkpt>
      <trkpt lat="42.71318" lon="2.68265">
        <ele>169.817513</ele>
        <time>2016-06-03T14:05:09Z</time>
      </trkpt>
      <trkpt lat="42.71245" lon="2.68319">
        <ele>165.789372</ele>
        <time>2016-06-03T14:05:13Z</time>
      </trkpt>
      <trkpt lat="42.7121" lon="2.68341">
        <ele>165.986123</ele>
        <time>2016-06-03T14:05:15Z</time>
      </trkpt>
      <trkpt lat="42.71174" lon="2.68349">
        <ele>160.356272</ele>
        <time>2016-06-03T14:05:17Z</time>
      </trkpt>
      <trkpt lat="42.71114" lon="2.68355">
        <ele>163.987952</ele>
        <time>2016-06-03T14:05:20Z</time>
      </trkpt>
      <trkpt lat="42.71029" lon="2.68362">
        <ele>164.972541</ele>
        <time>2016-06-03T14:05:24Z</time>
      </trkpt>
      <trkpt lat="42.70939" lon="2.68377">
        <ele>161.907259</ele>
        <time>2016-06-03T14:05:28Z</time>
      </trkpt>
      <trkpt lat="42.70876" lon="2.68386">
        <ele>160.425838</ele>
        <time>2016-06-03T14:05:31Z</time>
      </trkpt>
      <trkpt lat="42.70824" lon="2.684">
        <ele>157.564063</ele>
        <time>2016-06-03T14:05:34Z</time>
      </trkpt>
      <trkpt lat="42.70808" lon="2.68407">
        <ele>159.042223</ele>
        <time>2016-06-03T14:05:35Z</time>
      </trkpt>
      <trkpt lat="42.70773" lon="2.6844">
        <ele>157.008695</ele>
        <time>2016-06-03T14:05:37Z</time>
      </trkpt>
      <trkpt lat="42.70714" lon="2.68486">
        <ele>154.87451</ele>
        <time>2016-06-03T14:05:40Z</time>
      </trkpt>
      <trkpt lat="42.70631" lon="2.68555">
        <ele>154.199509</ele>
        <time>2016-06-03T14:05:44Z</time>
      </trkpt>
      <trkpt lat="42.70576" lon="2.686">
        <ele>150.6259</ele>
        <time>2016-06-03T14:05:47Z</time>
      </trkpt>
      <trkpt lat="42.7054" lon="2.68624">
        <ele>147.513825</ele>
        <time>2016-06-03T14:05:49Z</time>
      </trkpt>
      <trkpt lat="42.70499" lon="2.68647">
        <ele>143.356388</ele>
        <time>2016-06-03T14:05:51Z</time>
      </trkpt>
      <trkpt lat="42.70447" lon="2.68684">
        <ele>141.709976</ele>
        <time>2016-06-03T14:05:54Z</time>
      </trkpt>
      <trkpt lat="42.70396" lon="2.6871">
        <ele>136.913196</ele>
        <time>2016-06-03T14:05:57Z</time>
      </trkpt>
      <trkpt lat="42.70364" lon="2.68721">
        <ele>133.704481</ele>
        <time>2016-06-03T14:05:59Z</time>
      </trkpt>
      <trkpt lat="42.70318" lon="2.68768">
        <ele>130.796668</ele>
        <time>2016-06-03T14:06:02Z</time>
      </trkpt>
      <trkpt lat="42.70292" lon="2.68798">
        <ele>127.912409</ele>
        <time>2016-06-03T14:06:04Z</time>
      </trkpt>
      <trkpt lat="42.70281" lon="2.68814">
        <ele>128.099453</ele>
        <time>2016-06-03T14:06:05Z</time>
      </trkpt>
      <trkpt lat="42.70259" lon="2.68905">
        <ele>124.935701</ele>
        <time>2016-06-03T14:06:09Z</time>
      </trkpt>
      <trkpt lat="42.7024" lon="2.68944">
        <ele>120.604868</ele>
        <time>2016-06-03T14:06:11Z</time>
      </trkpt>
      <trkpt lat="42.70216" lon="2.68974">
        <ele>116.599571</ele>
        <time>2016-06-03T14:06:13Z</time>
      </trkpt>
      <trkpt lat="42.7019" lon="2.68992">
        <ele>115.732161</ele>
        <time>2016-06-03T14:06:15Z</time>
      </trkpt>
      <trkpt lat="42.70172" lon="2.6901">
        <ele>113.030908</ele>
        <time>2016-06-03T14:06:17Z</time>
      </trkpt>
      <trkpt lat="42.70161" lon="2.69036">
        <ele>112.680303</ele>
        <time>2016-06-03T14:06:19Z</time>
      </trkpt>
      <trkpt lat="42.70156" lon="2.69053">
        <ele>113.069485</ele>
        <time>2016-06-03T14:06:20Z</time>
      </trkpt>
      <trkpt lat="42.70159" lon="2.69098">
        <ele>111.980853</ele>
        <time>2016-06-03T14:06:22Z</time>
      </trkpt>
      <trkpt lat="42.70153" lon="2.69171">
        <ele>109.34224</ele>
        <time>2016-06-03T14:06:25Z</time>
      </trkpt>
      <trkpt lat="42.70143" lon="2.69219">
        <ele>107.003475</ele>
        <time>2016-06-03T14:06:27Z</time>
      </trkpt>
      <trkpt lat="42.70121" lon="2.6929">
        <ele>106.789963</ele>
        <time>2016-06-03T14:06:30Z</time>
      </trkpt>
      <trkpt lat="42.70094" lon="2.69379">
        <ele>103.5468</ele>
        <time>2016-06-03T14:06:34Z</time>
      </trkpt>
      <trkpt lat="42.70079" lon="2.69413">
        <ele>101.617121</ele>
        <time>2016-06-03T14:06:36Z</time>
      </trkpt>
      <trkpt lat="42.70056" lon="2.69446">
        <ele>103.103727</ele>
        <time>2016-06-03T14:06:38Z</time>
      </trkpt>
      <trkpt lat="42.70022" lon="2.69458">
        <ele>102.888816</ele>
        <time>2016-06-03T14:06:40Z</time>
      </trkpt>
      <trkpt lat="42.69974" lon="2.69488">
        <ele>102.555393</ele>
        <time>2016-06-03T14:06:44Z</time>
      </trkpt>
      <trkpt lat="42.69966" lon="2.69512">
        <ele>100.59199</ele>
        <time>2016-06-03T14:06:46Z</time>
      </trkpt>
      <trkpt lat="42.69964" lon="2.69562">
        <ele>102.624685</ele>
        <time>2016-06-03T14:06:49Z</time>
      </trkpt>
      <trkpt lat="42.6996" lon="2.69602">
        <ele>100.834773</ele>
        <time>2016-06-03T14:06:51Z</time>
      </trkpt>
      <trkpt lat="42.69958" lon="2.69652">
        <ele>100.207297</ele>
        <time>2016-06-03T14:06:54Z</time>
      </trkpt>
      <trkpt lat="42.69951" lon="2.69673">
        <ele>99.869272</ele>
        <time>2016-06-03T14:06:56Z</time>
      </trkpt>
      <trkpt lat="42.69951" lon="2.69691">
        <ele>100.267768</ele>
        <time>2016-06-03T14:06:58Z</time>
      </trkpt>
      <trkpt lat="42.69944" lon="2.69704">
        <ele>99.674015</ele>
        <time>2016-06-03T14:07:00Z</time>
      </trkpt>
      <trkpt lat="42.69934" lon="2.69715">
        <ele>99.564545</ele>
        <time>2016-06-03T14:07:02Z</time>
      </trkpt>
      <trkpt lat="42.69929" lon="2.69732">
        <ele>98.798012</ele>
        <time>2016-06-03T14:07:04Z</time>
      </trkpt>
      <trkpt lat="42.69934" lon="2.69748">
        <ele>99.01214</ele>
        <time>2016-06-03T14:07:06Z</time>
      </trkpt>
      <trkpt lat="42.69943" lon="2.69759">
        <ele>99.11321</ele>
        <time>2016-06-03T14:07:07Z</time>
      </trkpt>
      <trkpt lat="42.69956" lon="2.69806">
        <ele>100.297711</ele>
        <time>2016-06-03T14:07:10Z</time>
      </trkpt>
      <trkpt lat="42.69961" lon="2.6987">
        <ele>101.528988</ele>
        <time>2016-06-03T14:07:13Z</time>
      </trkpt>
      <trkpt lat="42.6996" lon="2.6997">
        <ele>101.283304</ele>
        <time>2016-06-03T14:07:17Z</time>
      </trkpt>
      <trkpt lat="42.6996" lon="2.70077">
        <ele>101.125377</ele>
        <time>2016-06-03T14:07:22Z</time>
      </trkpt>
      <trkpt lat="42.69965" lon="2.70128">
        <ele>102.84226</ele>
        <time>2016-06-03T14:07:24Z</time>
      </trkpt>
      <trkpt lat="42.69992" lon="2.7023">
        <ele>106.324378</ele>
        <time>2016-06-03T14:07:28Z</time>
      </trkpt>
      <trkpt lat="42.70019" lon="2.70316">
        <ele>104.459869</ele>
        <time>2016-06-03T14:07:31Z</time>
      </trkpt>
      <trkpt lat="42.70035" lon="2.7037">
        <ele>104.439299</ele>
        <time>2016-06-03T14:07:33Z</time>
      </trkpt>
      <trkpt lat="42.70049" lon="2.70429">
        <ele>102.742822</ele>
        <time>2016-06-03T14:07:35Z</time>
      </trkpt>
      <trkpt lat="42.70084" lon="2.70543">
        <ele>102.616003</ele>
        <time>2016-06-03T14:07:39Z</time>
      </trkpt>
      <trkpt lat="42.70097" lon="2.70592">
        <ele>101.732696</ele>
        <time>2016-06-03T14:07:41Z</time>
      </trkpt>
      <trkpt lat="42.70113" lon="2.70634">
        <ele>102.835001</ele>
        <time>2016-06-03T14:07:43Z</time>
      </trkpt>
      <trkpt lat="42.70122" lon="2.70676">
        <ele>103.431803</ele>
        <time>2016-06-03T14:07:45Z</time>
      </trkpt>
      <trkpt lat="42.70123" lon="2.70745">
        <ele>104.425045</ele>
        <time>2016-06-03T14:07:48Z</time>
      </trkpt>
      <trkpt lat="42.7012" lon="2.70851">
        <ele>102.900804</ele>
        <time>2016-06-03T14:07:52Z</time>
      </trkpt>
      <trkpt lat="42.70117" lon="2.7094">
        <ele>103.499688</ele>
        <time>2016-06-03T14:07:55Z</time>
      </trkpt>
      <trkpt lat="42.70114" lon="2.7103">
        <ele>102.797938</ele>
        <time>2016-06-03T14:07:58Z</time>
      </trkpt>
      <trkpt lat="42.70114" lon="2.71117">
        <ele>101.382248</ele>
        <time>2016-06-03T14:08:01Z</time>
      </trkpt>
      <trkpt lat="42.70109" lon="2.71236">
        <ele>101.116428</ele>
        <time>2016-06-03T14:08:05Z</time>
      </trkpt>
      <trkpt lat="42.70107" lon="2.71322">
        <ele>97.811063</ele>
        <time>2016-06-03T14:08:08Z</time>
      </trkpt>
      <trkpt lat="42.70106" lon="2.71407">
        <ele>96.795837</ele>
        <time>2016-06-03T14:08:11Z</time>
      </trkpt>
      <trkpt lat="42.70105" lon="2.71495">
        <ele>97.260211</ele>
        <time>2016-06-03T14:08:14Z</time>
      </trkpt>
      <trkpt lat="42.70102" lon="2.71613">
        <ele>98.271584</ele>
        <time>2016-06-03T14:08:18Z</time>
      </trkpt>
      <trkpt lat="42.701" lon="2.71704">
        <ele>95.58277</ele>
        <time>2016-06-03T14:08:21Z</time>
      </trkpt>
      <trkpt lat="42.701" lon="2.7176">
        <ele>96.382177</ele>
        <time>2016-06-03T14:08:23Z</time>
      </trkpt>
      <trkpt lat="42.70091" lon="2.71842">
        <ele>97.743673</ele>
        <time>2016-06-03T14:08:26Z</time>
      </trkpt>
      <trkpt lat="42.70067" lon="2.71957">
        <ele>97.166996</ele>
        <time>2016-06-03T14:08:30Z</time>
      </trkpt>
      <trkpt lat="42.70039" lon="2.7208">
        <ele>97.55229</ele>
        <time>2016-06-03T14:08:34Z</time>
      </trkpt>
      <trkpt lat="42.70005" lon="2.72222">
        <ele>96.378803</ele>
        <time>2016-06-03T14:08:39Z</time>
      </trkpt>
      <trkpt lat="42.69986" lon="2.72302">
        <ele>94.908547</ele>
        <time>2016-06-03T14:08:42Z</time>
      </trkpt>
      <trkpt lat="42.69965" lon="2.72392">
        <ele>93.425066</ele>
        <time>2016-06-03T14:08:45Z</time>
      </trkpt>
      <trkpt lat="42.69955" lon="2.72415">
        <ele>93.090182</ele>
        <time>2016-06-03T14:08:46Z</time>
      </trkpt>
      <trkpt lat="42.6995" lon="2.72452">
        <ele>91.193833</ele>
        <time>2016-06-03T14:08:48Z</time>
      </trkpt>
      <trkpt lat="42.69945" lon="2.72462">
        <ele>91.929071</ele>
        <time>2016-06-03T14:08:49Z</time>
      </trkpt>
      <trkpt lat="42.69933" lon="2.72523">
        <ele>90.361856</ele>
        <time>2016-06-03T14:08:52Z</time>
      </trkpt>
      <trkpt lat="42.69917" lon="2.72593">
        <ele>89.593075</ele>
        <time>2016-06-03T14:08:56Z</time>
      </trkpt>
      <trkpt lat="42.6991" lon="2.72627">
        <ele>89.143223</ele>
        <time>2016-06-03T14:08:58Z</time>
      </trkpt>
      <trkpt lat="42.69897" lon="2.72665">
        <ele>88.382731</ele>
        <time>2016-06-03T14:09:01Z</time>
      </trkpt>
      <trkpt lat="42.69889" lon="2.72717">
        <ele>88.622279</ele>
        <time>2016-06-03T14:09:05Z</time>
      </trkpt>
      <trkpt lat="42.69882" lon="2.7274">
        <ele>88.513787</ele>
        <time>2016-06-03T14:09:07Z</time>
      </trkpt>
      <trkpt lat="42.69878" lon="2.72764">
        <ele>87.901916</ele>
        <time>2016-06-03T14:09:09Z</time>
      </trkpt>
      <trkpt lat="42.69873" lon="2.72789">
        <ele>87.579308</ele>
        <time>2016-06-03T14:09:11Z</time>
      </trkpt>
      <trkpt lat="42.69866" lon="2.72816">
        <ele>86.519696</ele>
        <time>2016-06-03T14:09:13Z</time>
      </trkpt>
      <trkpt lat="42.69857" lon="2.72853">
        <ele>87.248866</ele>
        <time>2016-06-03T14:09:16Z</time>
      </trkpt>
      <trkpt lat="42.69833" lon="2.72899">
        <ele>87.193748</ele>
        <time>2016-06-03T14:09:20Z</time>
      </trkpt>
      <trkpt lat="42.69814" lon="2.72936">
        <ele>86.089186</ele>
        <time>2016-06-03T14:09:24Z</time>
      </trkpt>
      <trkpt lat="42.69793" lon="2.72959">
        <ele>86.061614</ele>
        <time>2016-06-03T14:09:27Z</time>
      </trkpt>
      <trkpt lat="42.69789" lon="2.72976">
        <ele>86.065437</ele>
        <time>2016-06-03T14:09:29Z</time>
      </trkpt>
      <trkpt lat="42.69775" lon="2.73007">
        <ele>85.935632</ele>
        <time>2016-06-03T14:09:32Z</time>
      </trkpt>
      <trkpt lat="42.69764" lon="2.7304">
        <ele>85.179925</ele>
        <time>2016-06-03T14:09:35Z</time>
      </trkpt>
      <trkpt lat="42.69752" lon="2.73069">
        <ele>85.147459</ele>
        <time>2016-06-03T14:09:37Z</time>
      </trkpt>
      <trkpt lat="42.69747" lon="2.73099">
        <ele>85.4157</ele>
        <time>2016-06-03T14:09:39Z</time>
      </trkpt>
      <trkpt lat="42.6974" lon="2.73164">
        <ele>85.695902</ele>
        <time>2016-06-03T14:09:43Z</time>
      </trkpt>
      <trkpt lat="42.6973" lon="2.73208">
        <ele>85.353785</ele>
        <time>2016-06-03T14:09:46Z</time>
      </trkpt>
      <trkpt lat="42.69717" lon="2.7326">
        <ele>84.299454</ele>
        <time>2016-06-03T14:09:49Z</time>
      </trkpt>
      <trkpt lat="42.69708" lon="2.73298">
        <ele>85.159164</ele>
        <time>2016-06-03T14:09:51Z</time>
      </trkpt>
      <trkpt lat="42.69701" lon="2.7335">
        <ele>84.379852</ele>
        <time>2016-06-03T14:09:54Z</time>
      </trkpt>
      <trkpt lat="42.69692" lon="2.73404">
        <ele>82.354226</ele>
        <time>2016-06-03T14:09:58Z</time>
      </trkpt>
      <trkpt lat="42.69688" lon="2.73442">
        <ele>83.114216</ele>
        <time>2016-06-03T14:10:01Z</time>
      </trkpt>
      <trkpt lat="42.69681" lon="2.73473">
        <ele>82.598398</ele>
        <time>2016-06-03T14:10:04Z</time>
      </trkpt>
      <trkpt lat="42.6967" lon="2.73487">
        <ele>83.005523</ele>
        <time>2016-06-03T14:10:06Z</time>
      </trkpt>
      <trkpt lat="42.69667" lon="2.73512">
        <ele>82.977207</ele>
        <time>2016-06-03T14:10:08Z</time>
      </trkpt>
      <trkpt lat="42.6967" lon="2.73565">
        <ele>83.310688</ele>
        <time>2016-06-03T14:10:11Z</time>
      </trkpt>
      <trkpt lat="42.69665" lon="2.73626">
        <ele>83.013863</ele>
        <time>2016-06-03T14:10:14Z</time>
      </trkpt>
      <trkpt lat="42.69653" lon="2.73717">
        <ele>82.644994</ele>
        <time>2016-06-03T14:10:18Z</time>
      </trkpt>
      <trkpt lat="42.69642" lon="2.73791">
        <ele>83.379839</ele>
        <time>2016-06-03T14:10:21Z</time>
      </trkpt>
      <trkpt lat="42.69629" lon="2.73901">
        <ele>81.89743</ele>
        <time>2016-06-03T14:10:25Z</time>
      </trkpt>
      <trkpt lat="42.69615" lon="2.74014">
        <ele>80.245369</ele>
        <time>2016-06-03T14:10:29Z</time>
      </trkpt>
      <trkpt lat="42.69602" lon="2.74125">
        <ele>80.812619</ele>
        <time>2016-06-03T14:10:33Z</time>
      </trkpt>
      <trkpt lat="42.69588" lon="2.74203">
        <ele>81.33681</ele>
        <time>2016-06-03T14:10:36Z</time>
      </trkpt>
      <trkpt lat="42.6958" lon="2.74287">
        <ele>81.041873</ele>
        <time>2016-06-03T14:10:39Z</time>
      </trkpt>
      <trkpt lat="42.69573" lon="2.74371">
        <ele>80.936418</ele>
        <time>2016-06-03T14:10:42Z</time>
      </trkpt>
      <trkpt lat="42.69561" lon="2.74475">
        <ele>79.794716</ele>
        <time>2016-06-03T14:10:46Z</time>
      </trkpt>
      <trkpt lat="42.69556" lon="2.74527">
        <ele>79.500498</ele>
        <time>2016-06-03T14:10:48Z</time>
      </trkpt>
      <trkpt lat="42.69559" lon="2.74579">
        <ele>79.79851</ele>
        <time>2016-06-03T14:10:50Z</time>
      </trkpt>
      <trkpt lat="42.6957" lon="2.74695">
        <ele>79.373396</ele>
        <time>2016-06-03T14:10:54Z</time>
      </trkpt>
      <trkpt lat="42.69574" lon="2.74749">
        <ele>79.756128</ele>
        <time>2016-06-03T14:10:56Z</time>
      </trkpt>
      <trkpt lat="42.69587" lon="2.74829">
        <ele>79.213048</ele>
        <time>2016-06-03T14:10:59Z</time>
      </trkpt>
      <trkpt lat="42.69593" lon="2.74902">
        <ele>78.811129</ele>
        <time>2016-06-03T14:11:02Z</time>
      </trkpt>
      <trkpt lat="42.69604" lon="2.74995">
        <ele>78.47823</ele>
        <time>2016-06-03T14:11:06Z</time>
      </trkpt>
      <trkpt lat="42.69618" lon="2.75113">
        <ele>79.791877</ele>
        <time>2016-06-03T14:11:11Z</time>
      </trkpt>
      <trkpt lat="42.69622" lon="2.75189">
        <ele>79.308769</ele>
        <time>2016-06-03T14:11:14Z</time>
      </trkpt>
      <trkpt lat="42.69619" lon="2.75265">
        <ele>78.776052</ele>
        <time>2016-06-03T14:11:17Z</time>
      </trkpt>
      <trkpt lat="42.69617" lon="2.75323">
        <ele>78.695345</ele>
        <time>2016-06-03T14:11:19Z</time>
      </trkpt>
      <trkpt lat="42.69611" lon="2.75348">
        <ele>77.827998</ele>
        <time>2016-06-03T14:11:20Z</time>
      </trkpt>
      <trkpt lat="42.69613" lon="2.75436">
        <ele>78.263969</ele>
        <time>2016-06-03T14:11:23Z</time>
      </trkpt>
      <trkpt lat="42.69609" lon="2.75545">
        <ele>78.881856</ele>
        <time>2016-06-03T14:11:27Z</time>
      </trkpt>
      <trkpt lat="42.69606" lon="2.75628">
        <ele>78.059993</ele>
        <time>2016-06-03T14:11:30Z</time>
      </trkpt>
      <trkpt lat="42.69607" lon="2.7567">
        <ele>76.7876</ele>
        <time>2016-06-03T14:11:32Z</time>
      </trkpt>
      <trkpt lat="42.69605" lon="2.75726">
        <ele>75.834862</ele>
        <time>2016-06-03T14:11:35Z</time>
      </trkpt>
      <trkpt lat="42.69599" lon="2.75766">
        <ele>75.909351</ele>
        <time>2016-06-03T14:11:38Z</time>
      </trkpt>
      <trkpt lat="42.6959" lon="2.75792">
        <ele>75.669633</ele>
        <time>2016-06-03T14:11:41Z</time>
      </trkpt>
      <trkpt lat="42.69597" lon="2.7584">
        <ele>76.276914</ele>
        <time>2016-06-03T14:11:45Z</time>
      </trkpt>
      <trkpt lat="42.69595" lon="2.75894">
        <ele>75.333359</ele>
        <time>2016-06-03T14:11:48Z</time>
      </trkpt>
      <trkpt lat="42.69587" lon="2.75978">
        <ele>75.902844</ele>
        <time>2016-06-03T14:11:52Z</time>
      </trkpt>
      <trkpt lat="42.69578" lon="2.76074">
        <ele>74.031791</ele>
        <time>2016-06-03T14:11:56Z</time>
      </trkpt>
      <trkpt lat="42.69571" lon="2.76172">
        <ele>73.511744</ele>
        <time>2016-06-03T14:12:01Z</time>
      </trkpt>
      <trkpt lat="42.69563" lon="2.76237">
        <ele>71.503341</ele>
        <time>2016-06-03T14:12:05Z</time>
      </trkpt>
      <trkpt lat="42.6956" lon="2.76289">
        <ele>71.082719</ele>
        <time>2016-06-03T14:12:08Z</time>
      </trkpt>
      <trkpt lat="42.69554" lon="2.76357">
        <ele>71.537496</ele>
        <time>2016-06-03T14:12:12Z</time>
      </trkpt>
      <trkpt lat="42.69549" lon="2.76405">
        <ele>71.441679</ele>
        <time>2016-06-03T14:12:15Z</time>
      </trkpt>
      <trkpt lat="42.69547" lon="2.76448">
        <ele>71.946885</ele>
        <time>2016-06-03T14:12:18Z</time>
      </trkpt>
      <trkpt lat="42.69545" lon="2.76473">
        <ele>70.815975</ele>
        <time>2016-06-03T14:12:20Z</time>
      </trkpt>
      <trkpt lat="42.6954" lon="2.76494">
        <ele>70.640436</ele>
        <time>2016-06-03T14:12:22Z</time>
      </trkpt>
      <trkpt lat="42.69539" lon="2.76518">
        <ele>71.302541</ele>
        <time>2016-06-03T14:12:24Z</time>
      </trkpt>
      <trkpt lat="42.69535" lon="2.76562">
        <ele>70.191944</ele>
        <time>2016-06-03T14:12:27Z</time>
      </trkpt>
      <trkpt lat="42.6953" lon="2.76606">
        <ele>70.3334</ele>
        <time>2016-06-03T14:12:30Z</time>
      </trkpt>
      <trkpt lat="42.69528" lon="2.76648">
        <ele>69.817214</ele>
        <time>2016-06-03T14:12:33Z</time>
      </trkpt>
      <trkpt lat="42.69526" lon="2.76685">
        <ele>69.795292</ele>
        <time>2016-06-03T14:12:36Z</time>
      </trkpt>
      <trkpt lat="42.69528" lon="2.7671">
        <ele>69.605118</ele>
        <time>2016-06-03T14:12:38Z</time>
      </trkpt>
      <trkpt lat="42.69543" lon="2.76746">
        <ele>70.913399</ele>
        <time>2016-06-03T14:12:41Z</time>
      </trkpt>
      <trkpt lat="42.69561" lon="2.76794">
        <ele>70.527286</ele>
        <time>2016-06-03T14:12:45Z</time>
      </trkpt>
      <trkpt lat="42.69575" lon="2.76829">
        <ele>70.196169</ele>
        <time>2016-06-03T14:12:48Z</time>
      </trkpt>
      <trkpt lat="42.69581" lon="2.76857">
        <ele>69.872855</ele>
        <time>2016-06-03T14:12:51Z</time>
      </trkpt>
      <trkpt lat="42.69586" lon="2.76885">
        <ele>70.288971</ele>
        <time>2016-06-03T14:12:54Z</time>
      </trkpt>
      <trkpt lat="42.69594" lon="2.76928">
        <ele>69.955257</ele>
        <time>2016-06-03T14:12:57Z</time>
      </trkpt>
      <trkpt lat="42.69602" lon="2.76979">
        <ele>69.236741</ele>
        <time>2016-06-03T14:13:01Z</time>
      </trkpt>
      <trkpt lat="42.69604" lon="2.77005">
        <ele>69.789215</ele>
        <time>2016-06-03T14:13:03Z</time>
      </trkpt>
      <trkpt lat="42.69612" lon="2.7703">
        <ele>69.065728</ele>
        <time>2016-06-03T14:13:06Z</time>
      </trkpt>
      <trkpt lat="42.69612" lon="2.77043">
        <ele>68.963247</ele>
        <time>2016-06-03T14:13:08Z</time>
      </trkpt>
      <trkpt lat="42.69611" lon="2.77065">
        <ele>68.858211</ele>
        <time>2016-06-03T14:13:10Z</time>
      </trkpt>
      <trkpt lat="42.69619" lon="2.77089">
        <ele>68.277298</ele>
        <time>2016-06-03T14:13:12Z</time>
      </trkpt>
      <trkpt lat="42.6962" lon="2.77099">
        <ele>68.277298</ele>
        <time>2016-06-03T14:13:13Z</time>
      </trkpt>
      <trkpt lat="42.69626" lon="2.77107">
        <ele>68.038749</ele>
        <time>2016-06-03T14:13:14Z</time>
      </trkpt>
      <trkpt lat="42.69623" lon="2.7713">
        <ele>68.485187</ele>
        <time>2016-06-03T14:13:16Z</time>
      </trkpt>
      <trkpt lat="42.69625" lon="2.77145">
        <ele>68.208508</ele>
        <time>2016-06-03T14:13:18Z</time>
      </trkpt>
      <trkpt lat="42.69629" lon="2.77155">
        <ele>68.267522</ele>
        <time>2016-06-03T14:13:19Z</time>
      </trkpt>
      <trkpt lat="42.6963" lon="2.77193">
        <ele>68.34738</ele>
        <time>2016-06-03T14:13:22Z</time>
      </trkpt>
      <trkpt lat="42.69636" lon="2.77238">
        <ele>67.818696</ele>
        <time>2016-06-03T14:13:25Z</time>
      </trkpt>
      <trkpt lat="42.69636" lon="2.7726">
        <ele>67.159918</ele>
        <time>2016-06-03T14:13:27Z</time>
      </trkpt>
      <trkpt lat="42.69643" lon="2.77287">
        <ele>67.527591</ele>
        <time>2016-06-03T14:13:29Z</time>
      </trkpt>
      <trkpt lat="42.69658" lon="2.77321">
        <ele>67.684749</ele>
        <time>2016-06-03T14:13:32Z</time>
      </trkpt>
      <trkpt lat="42.6968" lon="2.77354">
        <ele>68.989366</ele>
        <time>2016-06-03T14:13:36Z</time>
      </trkpt>
      <trkpt lat="42.69711" lon="2.77397">
        <ele>68.208414</ele>
        <time>2016-06-03T14:13:41Z</time>
      </trkpt>
      <trkpt lat="42.69725" lon="2.77415">
        <ele>67.596673</ele>
        <time>2016-06-03T14:13:43Z</time>
      </trkpt>
      <trkpt lat="42.69748" lon="2.77454">
        <ele>67.725309</ele>
        <time>2016-06-03T14:13:47Z</time>
      </trkpt>
      <trkpt lat="42.69761" lon="2.77471">
        <ele>67.665856</ele>
        <time>2016-06-03T14:13:49Z</time>
      </trkpt>
      <trkpt lat="42.6977" lon="2.77486">
        <ele>67.32685</ele>
        <time>2016-06-03T14:13:51Z</time>
      </trkpt>
      <trkpt lat="42.69787" lon="2.77508">
        <ele>67.676973</ele>
        <time>2016-06-03T14:13:55Z</time>
      </trkpt>
      <trkpt lat="42.69802" lon="2.77521">
        <ele>67.507215</ele>
        <time>2016-06-03T14:13:58Z</time>
      </trkpt>
      <trkpt lat="42.69818" lon="2.77541">
        <ele>67.3085</ele>
        <time>2016-06-03T14:14:01Z</time>
      </trkpt>
      <trkpt lat="42.69842" lon="2.77574">
        <ele>66.698687</ele>
        <time>2016-06-03T14:14:04Z</time>
      </trkpt>
      <trkpt lat="42.69869" lon="2.7761">
        <ele>66.950841</ele>
        <time>2016-06-03T14:14:07Z</time>
      </trkpt>
      <trkpt lat="42.6989" lon="2.77644">
        <ele>67.149734</ele>
        <time>2016-06-03T14:14:10Z</time>
      </trkpt>
      <trkpt lat="42.69931" lon="2.77701">
        <ele>67.177404</ele>
        <time>2016-06-03T14:14:15Z</time>
      </trkpt>
      <trkpt lat="42.69953" lon="2.77733">
        <ele>67.387063</ele>
        <time>2016-06-03T14:14:18Z</time>
      </trkpt>
      <trkpt lat="42.69983" lon="2.77774">
        <ele>67.263509</ele>
        <time>2016-06-03T14:14:22Z</time>
      </trkpt>
      <trkpt lat="42.69997" lon="2.778">
        <ele>67.413193</ele>
        <time>2016-06-03T14:14:25Z</time>
      </trkpt>
      <trkpt lat="42.70005" lon="2.77815">
        <ele>66.879915</ele>
        <time>2016-06-03T14:14:27Z</time>
      </trkpt>
      <trkpt lat="42.70017" lon="2.7783">
        <ele>67.286913</ele>
        <time>2016-06-03T14:14:29Z</time>
      </trkpt>
      <trkpt lat="42.70034" lon="2.77845">
        <ele>67.100234</ele>
        <time>2016-06-03T14:14:31Z</time>
      </trkpt>
      <trkpt lat="42.70057" lon="2.77875">
        <ele>66.063572</ele>
        <time>2016-06-03T14:14:34Z</time>
      </trkpt>
      <trkpt lat="42.70072" lon="2.77892">
        <ele>66.74579</ele>
        <time>2016-06-03T14:14:35Z</time>
      </trkpt>
      <trkpt lat="42.70077" lon="2.779">
        <ele>66.794163</ele>
        <time>2016-06-03T14:14:38Z</time>
      </trkpt>
      <trkpt lat="42.70077" lon="2.77899">
        <ele>67.078079</ele>
        <time>2016-06-03T14:14:40Z</time>
      </trkpt>
      <trkpt lat="42.70077" lon="2.77899">
        <ele>67.277357</ele>
        <time>2016-06-03T14:14:43Z</time>
      </trkpt>
      <trkpt lat="42.70082" lon="2.77905">
        <ele>66.914992</ele>
        <time>2016-06-03T14:14:45Z</time>
      </trkpt>
      <trkpt lat="42.70089" lon="2.77922">
        <ele>67.591571</ele>
        <time>2016-06-03T14:14:48Z</time>
      </trkpt>
      <trkpt lat="42.70117" lon="2.77956">
        <ele>67.426411</ele>
        <time>2016-06-03T14:14:51Z</time>
      </trkpt>
      <trkpt lat="42.70154" lon="2.78002">
        <ele>68.187009</ele>
        <time>2016-06-03T14:14:54Z</time>
      </trkpt>
      <trkpt lat="42.702" lon="2.78069">
        <ele>65.845356</ele>
        <time>2016-06-03T14:14:58Z</time>
      </trkpt>
      <trkpt lat="42.70239" lon="2.78126">
        <ele>69.934518</ele>
        <time>2016-06-03T14:15:01Z</time>
      </trkpt>
      <trkpt lat="42.70279" lon="2.78183">
        <ele>69.760352</ele>
        <time>2016-06-03T14:15:04Z</time>
      </trkpt>
      <trkpt lat="42.7035" lon="2.78274">
        <ele>70.918505</ele>
        <time>2016-06-03T14:15:08Z</time>
      </trkpt>
      <trkpt lat="42.70389" lon="2.78332">
        <ele>67.540155</ele>
        <time>2016-06-03T14:15:11Z</time>
      </trkpt>
      <trkpt lat="42.70432" lon="2.78386">
        <ele>69.22424</ele>
        <time>2016-06-03T14:15:14Z</time>
      </trkpt>
      <trkpt lat="42.70472" lon="2.78444">
        <ele>68.581051</ele>
        <time>2016-06-03T14:15:17Z</time>
      </trkpt>
      <trkpt lat="42.70501" lon="2.7848">
        <ele>68.597632</ele>
        <time>2016-06-03T14:15:19Z</time>
      </trkpt>
      <trkpt lat="42.70532" lon="2.78535">
        <ele>67.212953</ele>
        <time>2016-06-03T14:15:22Z</time>
      </trkpt>
      <trkpt lat="42.70551" lon="2.78581">
        <ele>67.488889</ele>
        <time>2016-06-03T14:15:24Z</time>
      </trkpt>
      <trkpt lat="42.70565" lon="2.7863">
        <ele>66.289494</ele>
        <time>2016-06-03T14:15:26Z</time>
      </trkpt>
      <trkpt lat="42.70582" lon="2.78706">
        <ele>67.422198</ele>
        <time>2016-06-03T14:15:29Z</time>
      </trkpt>
      <trkpt lat="42.70602" lon="2.78782">
        <ele>67.686654</ele>
        <time>2016-06-03T14:15:32Z</time>
      </trkpt>
      <trkpt lat="42.70619" lon="2.7886">
        <ele>68.727425</ele>
        <time>2016-06-03T14:15:35Z</time>
      </trkpt>
      <trkpt lat="42.70644" lon="2.78929">
        <ele>70.587434</ele>
        <time>2016-06-03T14:15:38Z</time>
      </trkpt>
      <trkpt lat="42.70675" lon="2.78998">
        <ele>69.029642</ele>
        <time>2016-06-03T14:15:41Z</time>
      </trkpt>
      <trkpt lat="42.70693" lon="2.79054">
        <ele>67.525068</ele>
        <time>2016-06-03T14:15:43Z</time>
      </trkpt>
      <trkpt lat="42.70732" lon="2.7915">
        <ele>68.053672</ele>
        <time>2016-06-03T14:15:47Z</time>
      </trkpt>
      <trkpt lat="42.70756" lon="2.7922">
        <ele>68.47006</ele>
        <time>2016-06-03T14:15:50Z</time>
      </trkpt>
      <trkpt lat="42.70772" lon="2.79299">
        <ele>65.853192</ele>
        <time>2016-06-03T14:15:53Z</time>
      </trkpt>
      <trkpt lat="42.70787" lon="2.79373">
        <ele>67.567602</ele>
        <time>2016-06-03T14:15:56Z</time>
      </trkpt>
      <trkpt lat="42.70799" lon="2.79417">
        <ele>67.740113</ele>
        <time>2016-06-03T14:15:58Z</time>
      </trkpt>
      <trkpt lat="42.70817" lon="2.79458">
        <ele>70.272064</ele>
        <time>2016-06-03T14:16:00Z</time>
      </trkpt>
      <trkpt lat="42.7085" lon="2.79519">
        <ele>72.022035</ele>
        <time>2016-06-03T14:16:03Z</time>
      </trkpt>
      <trkpt lat="42.70877" lon="2.79556">
        <ele>74.126997</ele>
        <time>2016-06-03T14:16:05Z</time>
      </trkpt>
      <trkpt lat="42.7093" lon="2.79602">
        <ele>78.089326</ele>
        <time>2016-06-03T14:16:08Z</time>
      </trkpt>
      <trkpt lat="42.70995" lon="2.79656">
        <ele>77.60138</ele>
        <time>2016-06-03T14:16:12Z</time>
      </trkpt>
      <trkpt lat="42.71026" lon="2.79687">
        <ele>78.467999</ele>
        <time>2016-06-03T14:16:15Z</time>
      </trkpt>
      <trkpt lat="42.71037" lon="2.79709">
        <ele>80.665966</ele>
        <time>2016-06-03T14:16:17Z</time>
      </trkpt>
      <trkpt lat="42.71043" lon="2.79742">
        <ele>81.198906</ele>
        <time>2016-06-03T14:16:19Z</time>
      </trkpt>
      <trkpt lat="42.71042" lon="2.79808">
        <ele>81.768278</ele>
        <time>2016-06-03T14:16:22Z</time>
      </trkpt>
      <trkpt lat="42.7104" lon="2.79881">
        <ele>81.297498</ele>
        <time>2016-06-03T14:16:25Z</time>
      </trkpt>
      <trkpt lat="42.71047" lon="2.79968">
        <ele>84.470787</ele>
        <time>2016-06-03T14:16:28Z</time>
      </trkpt>
      <trkpt lat="42.71062" lon="2.80088">
        <ele>84.836024</ele>
        <time>2016-06-03T14:16:32Z</time>
      </trkpt>
      <trkpt lat="42.71077" lon="2.80215">
        <ele>81.601179</ele>
        <time>2016-06-03T14:16:36Z</time>
      </trkpt>
      <trkpt lat="42.71082" lon="2.80275">
        <ele>84.307067</ele>
        <time>2016-06-03T14:16:38Z</time>
      </trkpt>
      <trkpt lat="42.71079" lon="2.80369">
        <ele>84.383691</ele>
        <time>2016-06-03T14:16:41Z</time>
      </trkpt>
      <trkpt lat="42.71066" lon="2.80537">
        <ele>83.514052</ele>
        <time>2016-06-03T14:16:46Z</time>
      </trkpt>
      <trkpt lat="42.71056" lon="2.80677">
        <ele>82.773472</ele>
        <time>2016-06-03T14:16:50Z</time>
      </trkpt>
      <trkpt lat="42.71042" lon="2.80854">
        <ele>83.421334</ele>
        <time>2016-06-03T14:16:55Z</time>
      </trkpt>
      <trkpt lat="42.71038" lon="2.80953">
        <ele>80.820505</ele>
        <time>2016-06-03T14:16:58Z</time>
      </trkpt>
      <trkpt lat="42.71042" lon="2.81019">
        <ele>82.317803</ele>
        <time>2016-06-03T14:17:00Z</time>
      </trkpt>
      <trkpt lat="42.7106" lon="2.8112">
        <ele>81.358287</ele>
        <time>2016-06-03T14:17:03Z</time>
      </trkpt>
      <trkpt lat="42.711" lon="2.81294">
        <ele>81.564301</ele>
        <time>2016-06-03T14:17:08Z</time>
      </trkpt>
      <trkpt lat="42.7112" lon="2.81402">
        <ele>81.48242</ele>
        <time>2016-06-03T14:17:11Z</time>
      </trkpt>
      <trkpt lat="42.71135" lon="2.8151">
        <ele>79.524508</ele>
        <time>2016-06-03T14:17:14Z</time>
      </trkpt>
      <trkpt lat="42.71145" lon="2.81618">
        <ele>76.039558</ele>
        <time>2016-06-03T14:17:17Z</time>
      </trkpt>
      <trkpt lat="42.71157" lon="2.8176">
        <ele>72.642793</ele>
        <time>2016-06-03T14:17:21Z</time>
      </trkpt>
      <trkpt lat="42.71168" lon="2.81896">
        <ele>72.089954</ele>
        <time>2016-06-03T14:17:25Z</time>
      </trkpt>
      <trkpt lat="42.71171" lon="2.81987">
        <ele>75.345692</ele>
        <time>2016-06-03T14:17:28Z</time>
      </trkpt>
      <trkpt lat="42.71166" lon="2.82048">
        <ele>75.240345</ele>
        <time>2016-06-03T14:17:30Z</time>
      </trkpt>
      <trkpt lat="42.71155" lon="2.82108">
        <ele>76.878162</ele>
        <time>2016-06-03T14:17:32Z</time>
      </trkpt>
      <trkpt lat="42.71137" lon="2.82166">
        <ele>76.075794</ele>
        <time>2016-06-03T14:17:34Z</time>
      </trkpt>
      <trkpt lat="42.71091" lon="2.82237">
        <ele>76.017994</ele>
        <time>2016-06-03T14:17:37Z</time>
      </trkpt>
      <trkpt lat="42.71025" lon="2.82327">
        <ele>75.073963</ele>
        <time>2016-06-03T14:17:41Z</time>
      </trkpt>
      <trkpt lat="42.70986" lon="2.82399">
        <ele>73.307117</ele>
        <time>2016-06-03T14:17:44Z</time>
      </trkpt>
      <trkpt lat="42.70969" lon="2.82452">
        <ele>71.017994</ele>
        <time>2016-06-03T14:17:46Z</time>
      </trkpt>
      <trkpt lat="42.70955" lon="2.82548">
        <ele>72.986805</ele>
        <time>2016-06-03T14:17:49Z</time>
      </trkpt>
      <trkpt lat="42.70943" lon="2.82671">
        <ele>72.406788</ele>
        <time>2016-06-03T14:17:53Z</time>
      </trkpt>
      <trkpt lat="42.70926" lon="2.82757">
        <ele>72.963917</ele>
        <time>2016-06-03T14:17:56Z</time>
      </trkpt>
      <trkpt lat="42.70905" lon="2.8281">
        <ele>70.192127</ele>
        <time>2016-06-03T14:17:58Z</time>
      </trkpt>
      <trkpt lat="42.70864" lon="2.82878">
        <ele>65.609364</ele>
        <time>2016-06-03T14:18:01Z</time>
      </trkpt>
      <trkpt lat="42.70828" lon="2.82921">
        <ele>62.197354</ele>
        <time>2016-06-03T14:18:03Z</time>
      </trkpt>
      <trkpt lat="42.7077" lon="2.82971">
        <ele>57.797179</ele>
        <time>2016-06-03T14:18:06Z</time>
      </trkpt>
      <trkpt lat="42.70703" lon="2.83007">
        <ele>52.374496</ele>
        <time>2016-06-03T14:18:09Z</time>
      </trkpt>
      <trkpt lat="42.70635" lon="2.83045">
        <ele>52.159204</ele>
        <time>2016-06-03T14:18:12Z</time>
      </trkpt>
      <trkpt lat="42.70569" lon="2.83076">
        <ele>48.56744</ele>
        <time>2016-06-03T14:18:15Z</time>
      </trkpt>
      <trkpt lat="42.70513" lon="2.83116">
        <ele>48.329212</ele>
        <time>2016-06-03T14:18:18Z</time>
      </trkpt>
      <trkpt lat="42.70482" lon="2.83147">
        <ele>47.010378</ele>
        <time>2016-06-03T14:18:20Z</time>
      </trkpt>
      <trkpt lat="42.70455" lon="2.83179">
        <ele>45.689488</ele>
        <time>2016-06-03T14:18:23Z</time>
      </trkpt>
      <trkpt lat="42.7044" lon="2.83192">
        <ele>46.308667</ele>
        <time>2016-06-03T14:18:26Z</time>
      </trkpt>
      <trkpt lat="42.70423" lon="2.83199">
        <ele>46.515735</ele>
        <time>2016-06-03T14:18:29Z</time>
      </trkpt>
      <trkpt lat="42.70413" lon="2.83213">
        <ele>46.424631</ele>
        <time>2016-06-03T14:18:31Z</time>
      </trkpt>
      <trkpt lat="42.70417" lon="2.8323">
        <ele>46.839176</ele>
        <time>2016-06-03T14:18:33Z</time>
      </trkpt>
      <trkpt lat="42.70428" lon="2.8325">
        <ele>47.121217</ele>
        <time>2016-06-03T14:18:35Z</time>
      </trkpt>
      <trkpt lat="42.70443" lon="2.83272">
        <ele>47.506987</ele>
        <time>2016-06-03T14:18:37Z</time>
      </trkpt>
      <trkpt lat="42.70474" lon="2.83349">
        <ele>48.199068</ele>
        <time>2016-06-03T14:18:41Z</time>
      </trkpt>
      <trkpt lat="42.705" lon="2.8341">
        <ele>48.378381</ele>
        <time>2016-06-03T14:18:44Z</time>
      </trkpt>
      <trkpt lat="42.70529" lon="2.83491">
        <ele>48.03021</ele>
        <time>2016-06-03T14:18:48Z</time>
      </trkpt>
      <trkpt lat="42.70543" lon="2.8353">
        <ele>47.391985</ele>
        <time>2016-06-03T14:18:50Z</time>
      </trkpt>
      <trkpt lat="42.70565" lon="2.8358">
        <ele>45.47247</ele>
        <time>2016-06-03T14:18:53Z</time>
      </trkpt>
      <trkpt lat="42.70587" lon="2.83629">
        <ele>46.452783</ele>
        <time>2016-06-03T14:18:57Z</time>
      </trkpt>
      <trkpt lat="42.70594" lon="2.83658">
        <ele>45.856928</ele>
        <time>2016-06-03T14:19:00Z</time>
      </trkpt>
      <trkpt lat="42.7059" lon="2.83678">
        <ele>46.835688</ele>
        <time>2016-06-03T14:19:02Z</time>
      </trkpt>
      <trkpt lat="42.70604" lon="2.83705">
        <ele>47.21407</ele>
        <time>2016-06-03T14:19:05Z</time>
      </trkpt>
      <trkpt lat="42.70622" lon="2.83735">
        <ele>46.952317</ele>
        <time>2016-06-03T14:19:07Z</time>
      </trkpt>
      <trkpt lat="42.70641" lon="2.83779">
        <ele>46.6219</ele>
        <time>2016-06-03T14:19:10Z</time>
      </trkpt>
      <trkpt lat="42.70659" lon="2.8382">
        <ele>45.031505</ele>
        <time>2016-06-03T14:19:13Z</time>
      </trkpt>
      <trkpt lat="42.7067" lon="2.83853">
        <ele>46.10429</ele>
        <time>2016-06-03T14:19:16Z</time>
      </trkpt>
      <trkpt lat="42.70673" lon="2.83875">
        <ele>46.112694</ele>
        <time>2016-06-03T14:19:18Z</time>
      </trkpt>
      <trkpt lat="42.70676" lon="2.83895">
        <ele>45.955405</ele>
        <time>2016-06-03T14:19:20Z</time>
      </trkpt>
      <trkpt lat="42.70678" lon="2.83905">
        <ele>46.050123</ele>
        <time>2016-06-03T14:19:21Z</time>
      </trkpt>
      <trkpt lat="42.707" lon="2.83927">
        <ele>45.811845</ele>
        <time>2016-06-03T14:19:24Z</time>
      </trkpt>
      <trkpt lat="42.7072" lon="2.83971">
        <ele>45.720698</ele>
        <time>2016-06-03T14:19:27Z</time>
      </trkpt>
      <trkpt lat="42.70742" lon="2.8403">
        <ele>45.624882</ele>
        <time>2016-06-03T14:19:31Z</time>
      </trkpt>
      <trkpt lat="42.70758" lon="2.84067">
        <ele>44.720122</ele>
        <time>2016-06-03T14:19:34Z</time>
      </trkpt>
      <trkpt lat="42.70767" lon="2.84092">
        <ele>44.603971</ele>
        <time>2016-06-03T14:19:36Z</time>
      </trkpt>
      <trkpt lat="42.7078" lon="2.84123">
        <ele>44.426167</ele>
        <time>2016-06-03T14:19:39Z</time>
      </trkpt>
      <trkpt lat="42.70803" lon="2.84186">
        <ele>44.425777</ele>
        <time>2016-06-03T14:19:44Z</time>
      </trkpt>
      <trkpt lat="42.70825" lon="2.84237">
        <ele>44.138749</ele>
        <time>2016-06-03T14:19:48Z</time>
      </trkpt>
      <trkpt lat="42.70844" lon="2.84282">
        <ele>44.500483</ele>
        <time>2016-06-03T14:19:52Z</time>
      </trkpt>
      <trkpt lat="42.70858" lon="2.84321">
        <ele>44.399088</ele>
        <time>2016-06-03T14:19:56Z</time>
      </trkpt>
      <trkpt lat="42.70869" lon="2.84353">
        <ele>44.130197</ele>
        <time>2016-06-03T14:19:59Z</time>
      </trkpt>
      <trkpt lat="42.70886" lon="2.84384">
        <ele>44.394427</ele>
        <time>2016-06-03T14:20:02Z</time>
      </trkpt>
      <trkpt lat="42.70899" lon="2.84409">
        <ele>44.044931</ele>
        <time>2016-06-03T14:20:04Z</time>
      </trkpt>
      <trkpt lat="42.70915" lon="2.84457">
        <ele>43.523444</ele>
        <time>2016-06-03T14:20:08Z</time>
      </trkpt>
      <trkpt lat="42.70918" lon="2.84478">
        <ele>43.782249</ele>
        <time>2016-06-03T14:20:10Z</time>
      </trkpt>
      <trkpt lat="42.70915" lon="2.84507">
        <ele>44.310823</ele>
        <time>2016-06-03T14:20:12Z</time>
      </trkpt>
      <trkpt lat="42.70903" lon="2.84547">
        <ele>43.903795</ele>
        <time>2016-06-03T14:20:15Z</time>
      </trkpt>
      <trkpt lat="42.70892" lon="2.8457">
        <ele>43.053033</ele>
        <time>2016-06-03T14:20:17Z</time>
      </trkpt>
      <trkpt lat="42.70883" lon="2.84595">
        <ele>43.571473</ele>
        <time>2016-06-03T14:20:19Z</time>
      </trkpt>
      <trkpt lat="42.70879" lon="2.84631">
        <ele>42.796638</ele>
        <time>2016-06-03T14:20:22Z</time>
      </trkpt>
      <trkpt lat="42.70885" lon="2.84668">
        <ele>42.90118</ele>
        <time>2016-06-03T14:20:25Z</time>
      </trkpt>
      <trkpt lat="42.70892" lon="2.84706">
        <ele>43.247256</ele>
        <time>2016-06-03T14:20:28Z</time>
      </trkpt>
      <trkpt lat="42.70902" lon="2.84761">
        <ele>42.652051</ele>
        <time>2016-06-03T14:20:32Z</time>
      </trkpt>
      <trkpt lat="42.7091" lon="2.84819">
        <ele>42.670616</ele>
        <time>2016-06-03T14:20:36Z</time>
      </trkpt>
      <trkpt lat="42.70916" lon="2.84849">
        <ele>42.451083</ele>
        <time>2016-06-03T14:20:38Z</time>
      </trkpt>
      <trkpt lat="42.70926" lon="2.84877">
        <ele>42.634831</ele>
        <time>2016-06-03T14:20:40Z</time>
      </trkpt>
      <trkpt lat="42.70932" lon="2.84908">
        <ele>42.104295</ele>
        <time>2016-06-03T14:20:42Z</time>
      </trkpt>
      <trkpt lat="42.70937" lon="2.84934">
        <ele>41.941774</ele>
        <time>2016-06-03T14:20:44Z</time>
      </trkpt>
      <trkpt lat="42.70948" lon="2.84981">
        <ele>40.812252</ele>
        <time>2016-06-03T14:20:47Z</time>
      </trkpt>
      <trkpt lat="42.70956" lon="2.85024">
        <ele>41.180002</ele>
        <time>2016-06-03T14:20:50Z</time>
      </trkpt>
      <trkpt lat="42.70962" lon="2.8508">
        <ele>40.341432</ele>
        <time>2016-06-03T14:20:54Z</time>
      </trkpt>
      <trkpt lat="42.70971" lon="2.85116">
        <ele>40.880322</ele>
        <time>2016-06-03T14:20:57Z</time>
      </trkpt>
      <trkpt lat="42.7098" lon="2.85167">
        <ele>40.427406</ele>
        <time>2016-06-03T14:21:01Z</time>
      </trkpt>
      <trkpt lat="42.70989" lon="2.85222">
        <ele>40.371424</ele>
        <time>2016-06-03T14:21:05Z</time>
      </trkpt>
      <trkpt lat="42.70994" lon="2.85258">
        <ele>39.953502</ele>
        <time>2016-06-03T14:21:09Z</time>
      </trkpt>
      <trkpt lat="42.70996" lon="2.85278">
        <ele>40.042521</ele>
        <time>2016-06-03T14:21:12Z</time>
      </trkpt>
      <trkpt lat="42.70994" lon="2.85289">
        <ele>40.158555</ele>
        <time>2016-06-03T14:21:14Z</time>
      </trkpt>
      <trkpt lat="42.70984" lon="2.85312">
        <ele>39.750507</ele>
        <time>2016-06-03T14:21:17Z</time>
      </trkpt>
      <trkpt lat="42.70981" lon="2.85322">
        <ele>40.030066</ele>
        <time>2016-06-03T14:21:18Z</time>
      </trkpt>
      <trkpt lat="42.70996" lon="2.8536">
        <ele>38.996771</ele>
        <time>2016-06-03T14:21:21Z</time>
      </trkpt>
      <trkpt lat="42.71009" lon="2.85389">
        <ele>39.148408</ele>
        <time>2016-06-03T14:21:25Z</time>
      </trkpt>
      <trkpt lat="42.71018" lon="2.85405">
        <ele>39.296589</ele>
        <time>2016-06-03T14:21:26Z</time>
      </trkpt>
      <trkpt lat="42.71019" lon="2.85436">
        <ele>39.967102</ele>
        <time>2016-06-03T14:21:27Z</time>
      </trkpt>
      <trkpt lat="42.71018" lon="2.85427">
        <ele>39.793469</ele>
        <time>2016-06-03T14:21:28Z</time>
      </trkpt>
      <trkpt lat="42.71021" lon="2.85459">
        <ele>40.14659</ele>
        <time>2016-06-03T14:21:31Z</time>
      </trkpt>
      <trkpt lat="42.71025" lon="2.85502">
        <ele>39.730845</ele>
        <time>2016-06-03T14:21:35Z</time>
      </trkpt>
      <trkpt lat="42.71029" lon="2.85543">
        <ele>39.006619</ele>
        <time>2016-06-03T14:21:38Z</time>
      </trkpt>
      <trkpt lat="42.71034" lon="2.85573">
        <ele>38.218803</ele>
        <time>2016-06-03T14:21:40Z</time>
      </trkpt>
      <trkpt lat="42.7104" lon="2.85633">
        <ele>38.581116</ele>
        <time>2016-06-03T14:21:45Z</time>
      </trkpt>
      <trkpt lat="42.71043" lon="2.85675">
        <ele>39.260327</ele>
        <time>2016-06-03T14:21:48Z</time>
      </trkpt>
      <trkpt lat="42.71045" lon="2.85697">
        <ele>38.90283</ele>
        <time>2016-06-03T14:21:51Z</time>
      </trkpt>
      <trkpt lat="42.71054" lon="2.85736">
        <ele>39.046343</ele>
        <time>2016-06-03T14:21:54Z</time>
      </trkpt>
      <trkpt lat="42.71067" lon="2.85787">
        <ele>39.182686</ele>
        <time>2016-06-03T14:21:59Z</time>
      </trkpt>
      <trkpt lat="42.71068" lon="2.85802">
        <ele>39.200304</ele>
        <time>2016-06-03T14:22:01Z</time>
      </trkpt>
      <trkpt lat="42.71062" lon="2.85825">
        <ele>38.903967</ele>
        <time>2016-06-03T14:22:04Z</time>
      </trkpt>
      <trkpt lat="42.71063" lon="2.8587">
        <ele>39.053405</ele>
        <time>2016-06-03T14:22:07Z</time>
      </trkpt>
      <trkpt lat="42.71063" lon="2.85898">
        <ele>39.597841</ele>
        <time>2016-06-03T14:22:09Z</time>
      </trkpt>
      <trkpt lat="42.71055" lon="2.85959">
        <ele>38.84487</ele>
        <time>2016-06-03T14:22:13Z</time>
      </trkpt>
      <trkpt lat="42.71048" lon="2.86006">
        <ele>37.733329</ele>
        <time>2016-06-03T14:22:16Z</time>
      </trkpt>
      <trkpt lat="42.71036" lon="2.86055">
        <ele>38.078215</ele>
        <time>2016-06-03T14:22:19Z</time>
      </trkpt>
      <trkpt lat="42.71014" lon="2.86123">
        <ele>37.11458</ele>
        <time>2016-06-03T14:22:23Z</time>
      </trkpt>
      <trkpt lat="42.70995" lon="2.86173">
        <ele>37.144255</ele>
        <time>2016-06-03T14:22:26Z</time>
      </trkpt>
      <trkpt lat="42.70961" lon="2.86234">
        <ele>36.339215</ele>
        <time>2016-06-03T14:22:30Z</time>
      </trkpt>
      <trkpt lat="42.7095" lon="2.86263">
        <ele>37.125293</ele>
        <time>2016-06-03T14:22:32Z</time>
      </trkpt>
      <trkpt lat="42.70934" lon="2.86308">
        <ele>37.241293</ele>
        <time>2016-06-03T14:22:35Z</time>
      </trkpt>
      <trkpt lat="42.70925" lon="2.86343">
        <ele>36.617865</ele>
        <time>2016-06-03T14:22:38Z</time>
      </trkpt>
      <trkpt lat="42.7092" lon="2.86369">
        <ele>36.500041</ele>
        <time>2016-06-03T14:22:41Z</time>
      </trkpt>
      <trkpt lat="42.70915" lon="2.86382">
        <ele>36.924796</ele>
        <time>2016-06-03T14:22:44Z</time>
      </trkpt>
      <trkpt lat="42.70907" lon="2.86398">
        <ele>36.635888</ele>
        <time>2016-06-03T14:22:47Z</time>
      </trkpt>
      <trkpt lat="42.70898" lon="2.86402">
        <ele>36.119528</ele>
        <time>2016-06-03T14:22:48Z</time>
      </trkpt>
      <trkpt lat="42.70894" lon="2.86416">
        <ele>36.198</ele>
        <time>2016-06-03T14:22:49Z</time>
      </trkpt>
      <trkpt lat="42.709" lon="2.86434">
        <ele>36.633797</ele>
        <time>2016-06-03T14:22:51Z</time>
      </trkpt>
      <trkpt lat="42.70911" lon="2.86444">
        <ele>36.367579</ele>
        <time>2016-06-03T14:22:53Z</time>
      </trkpt>
      <trkpt lat="42.70921" lon="2.86472">
        <ele>36.667894</ele>
        <time>2016-06-03T14:22:55Z</time>
      </trkpt>
      <trkpt lat="42.70934" lon="2.8652">
        <ele>37.18353</ele>
        <time>2016-06-03T14:22:58Z</time>
      </trkpt>
      <trkpt lat="42.70954" lon="2.86592">
        <ele>35.144288</ele>
        <time>2016-06-03T14:23:02Z</time>
      </trkpt>
      <trkpt lat="42.7097" lon="2.86647">
        <ele>34.422261</ele>
        <time>2016-06-03T14:23:05Z</time>
      </trkpt>
      <trkpt lat="42.70992" lon="2.86717">
        <ele>33.922851</ele>
        <time>2016-06-03T14:23:09Z</time>
      </trkpt>
      <trkpt lat="42.70996" lon="2.86756">
        <ele>35.329802</ele>
        <time>2016-06-03T14:23:11Z</time>
      </trkpt>
      <trkpt lat="42.71" lon="2.86813">
        <ele>34.957401</ele>
        <time>2016-06-03T14:23:14Z</time>
      </trkpt>
      <trkpt lat="42.71002" lon="2.86891">
        <ele>33.701496</ele>
        <time>2016-06-03T14:23:18Z</time>
      </trkpt>
      <trkpt lat="42.71005" lon="2.86918">
        <ele>32.924397</ele>
        <time>2016-06-03T14:23:20Z</time>
      </trkpt>
      <trkpt lat="42.71005" lon="2.86932">
        <ele>33.032284</ele>
        <time>2016-06-03T14:23:22Z</time>
      </trkpt>
      <trkpt lat="42.71003" lon="2.86933">
        <ele>33.885546</ele>
        <time>2016-06-03T14:23:23Z</time>
      </trkpt>
      <trkpt lat="42.71003" lon="2.86943">
        <ele>33.962467</ele>
        <time>2016-06-03T14:23:25Z</time>
      </trkpt>
      <trkpt lat="42.70992" lon="2.86952">
        <ele>33.993074</ele>
        <time>2016-06-03T14:23:27Z</time>
      </trkpt>
      <trkpt lat="42.70983" lon="2.86959">
        <ele>33.947652</ele>
        <time>2016-06-03T14:23:29Z</time>
      </trkpt>
      <trkpt lat="42.70969" lon="2.86977">
        <ele>33.496711</ele>
        <time>2016-06-03T14:23:31Z</time>
      </trkpt>
      <trkpt lat="42.70968" lon="2.87012">
        <ele>34.088519</ele>
        <time>2016-06-03T14:23:33Z</time>
      </trkpt>
      <trkpt lat="42.7098" lon="2.87038">
        <ele>33.481877</ele>
        <time>2016-06-03T14:23:35Z</time>
      </trkpt>
      <trkpt lat="42.70993" lon="2.87053">
        <ele>33.292245</ele>
        <time>2016-06-03T14:23:36Z</time>
      </trkpt>
      <trkpt lat="42.70999" lon="2.87098">
        <ele>33.992992</ele>
        <time>2016-06-03T14:23:39Z</time>
      </trkpt>
      <trkpt lat="42.70997" lon="2.87187">
        <ele>33.764703</ele>
        <time>2016-06-03T14:23:43Z</time>
      </trkpt>
      <trkpt lat="42.70999" lon="2.87237">
        <ele>33.289923</ele>
        <time>2016-06-03T14:23:45Z</time>
      </trkpt>
      <trkpt lat="42.71007" lon="2.87307">
        <ele>30.694011</ele>
        <time>2016-06-03T14:23:48Z</time>
      </trkpt>
      <trkpt lat="42.7101" lon="2.87336">
        <ele>31.227227</ele>
        <time>2016-06-03T14:23:50Z</time>
      </trkpt>
      <trkpt lat="42.71015" lon="2.87368">
        <ele>32.283742</ele>
        <time>2016-06-03T14:23:53Z</time>
      </trkpt>
      <trkpt lat="42.71014" lon="2.87393">
        <ele>31.940705</ele>
        <time>2016-06-03T14:23:55Z</time>
      </trkpt>
      <trkpt lat="42.71016" lon="2.87405">
        <ele>32.945478</ele>
        <time>2016-06-03T14:23:56Z</time>
      </trkpt>
      <trkpt lat="42.71012" lon="2.87435">
        <ele>32.470958</ele>
        <time>2016-06-03T14:23:58Z</time>
      </trkpt>
      <trkpt lat="42.71" lon="2.87451">
        <ele>33.21896</ele>
        <time>2016-06-03T14:23:59Z</time>
      </trkpt>
      <trkpt lat="42.70988" lon="2.87488">
        <ele>35.622998</ele>
        <time>2016-06-03T14:24:01Z</time>
      </trkpt>
      <trkpt lat="42.70954" lon="2.87549">
        <ele>36.246047</ele>
        <time>2016-06-03T14:24:04Z</time>
      </trkpt>
      <trkpt lat="42.70926" lon="2.87607">
        <ele>37.910411</ele>
        <time>2016-06-03T14:24:07Z</time>
      </trkpt>
      <trkpt lat="42.70897" lon="2.87678">
        <ele>38.94119</ele>
        <time>2016-06-03T14:24:10Z</time>
      </trkpt>
      <trkpt lat="42.70869" lon="2.87757">
        <ele>37.526478</ele>
        <time>2016-06-03T14:24:13Z</time>
      </trkpt>
      <trkpt lat="42.70839" lon="2.87847">
        <ele>40.652491</ele>
        <time>2016-06-03T14:24:16Z</time>
      </trkpt>
      <trkpt lat="42.70789" lon="2.88001">
        <ele>37.650454</ele>
        <time>2016-06-03T14:24:21Z</time>
      </trkpt>
      <trkpt lat="42.70756" lon="2.88086">
        <ele>42.792957</ele>
        <time>2016-06-03T14:24:24Z</time>
      </trkpt>
      <trkpt lat="42.7072" lon="2.88159">
        <ele>39.190418</ele>
        <time>2016-06-03T14:24:27Z</time>
      </trkpt>
      <trkpt lat="42.70698" lon="2.88196">
        <ele>37.183887</ele>
        <time>2016-06-03T14:24:29Z</time>
      </trkpt>
      <trkpt lat="42.70671" lon="2.88234">
        <ele>32.852861</ele>
        <time>2016-06-03T14:24:32Z</time>
      </trkpt>
      <trkpt lat="42.70649" lon="2.88263">
        <ele>32.027079</ele>
        <time>2016-06-03T14:24:35Z</time>
      </trkpt>
      <trkpt lat="42.70642" lon="2.88264">
        <ele>32.611123</ele>
        <time>2016-06-03T14:24:36Z</time>
      </trkpt>
      <trkpt lat="42.70625" lon="2.88283">
        <ele>32.8435</ele>
        <time>2016-06-03T14:24:39Z</time>
      </trkpt>
      <trkpt lat="42.70601" lon="2.88309">
        <ele>32.256461</ele>
        <time>2016-06-03T14:24:43Z</time>
      </trkpt>
      <trkpt lat="42.70589" lon="2.88321">
        <ele>32.171903</ele>
        <time>2016-06-03T14:24:45Z</time>
      </trkpt>
      <trkpt lat="42.70575" lon="2.88334">
        <ele>31.954711</ele>
        <time>2016-06-03T14:24:48Z</time>
      </trkpt>
      <trkpt lat="42.70567" lon="2.88341">
        <ele>32.531865</ele>
        <time>2016-06-03T14:24:50Z</time>
      </trkpt>
      <trkpt lat="42.70555" lon="2.88347">
        <ele>32.350431</ele>
        <time>2016-06-03T14:24:53Z</time>
      </trkpt>
      <trkpt lat="42.70547" lon="2.88353">
        <ele>33.039419</ele>
        <time>2016-06-03T14:24:55Z</time>
      </trkpt>
      <trkpt lat="42.70534" lon="2.88359">
        <ele>32.555016</ele>
        <time>2016-06-03T14:24:58Z</time>
      </trkpt>
      <trkpt lat="42.70521" lon="2.88365">
        <ele>32.206457</ele>
        <time>2016-06-03T14:25:01Z</time>
      </trkpt>
      <trkpt lat="42.70492" lon="2.88383">
        <ele>32.770386</ele>
        <time>2016-06-03T14:25:05Z</time>
      </trkpt>
      <trkpt lat="42.70475" lon="2.88392">
        <ele>32.283335</ele>
        <time>2016-06-03T14:25:08Z</time>
      </trkpt>
      <trkpt lat="42.70456" lon="2.88406">
        <ele>32.715933</ele>
        <time>2016-06-03T14:25:12Z</time>
      </trkpt>
      <trkpt lat="42.7045" lon="2.88413">
        <ele>32.88312</ele>
        <time>2016-06-03T14:25:15Z</time>
      </trkpt>
      <trkpt lat="42.70444" lon="2.88416">
        <ele>32.827849</ele>
        <time>2016-06-03T14:25:18Z</time>
      </trkpt>
      <trkpt lat="42.7044" lon="2.8842">
        <ele>33.101132</ele>
        <time>2016-06-03T14:25:20Z</time>
      </trkpt>
      <trkpt lat="42.70425" lon="2.88428">
        <ele>33.02292</ele>
        <time>2016-06-03T14:25:24Z</time>
      </trkpt>
      <trkpt lat="42.70415" lon="2.88433">
        <ele>33.789946</ele>
        <time>2016-06-03T14:25:27Z</time>
      </trkpt>
      <trkpt lat="42.70412" lon="2.88434">
        <ele>34.055491</ele>
        <time>2016-06-03T14:25:30Z</time>
      </trkpt>
      <trkpt lat="42.70412" lon="2.88435">
        <ele>33.991353</ele>
        <time>2016-06-03T14:25:32Z</time>
      </trkpt>
      <trkpt lat="42.70412" lon="2.88435">
        <ele>34.071452</ele>
        <time>2016-06-03T14:25:34Z</time>
      </trkpt>
      <trkpt lat="42.70412" lon="2.88435">
        <ele>33.955639</ele>
        <time>2016-06-03T14:25:35Z</time>
      </trkpt>
      <trkpt lat="42.70412" lon="2.88435">
        <ele>33.98401</ele>
        <time>2016-06-03T14:25:37Z</time>
      </trkpt>
      <trkpt lat="42.70412" lon="2.88435">
        <ele>33.744766</ele>
        <time>2016-06-03T14:25:39Z</time>
      </trkpt>
      <trkpt lat="42.70403" lon="2.88437">
        <ele>34.153162</ele>
        <time>2016-06-03T14:25:43Z</time>
      </trkpt>
      <trkpt lat="42.70386" lon="2.88445">
        <ele>34.311322</ele>
        <time>2016-06-03T14:25:47Z</time>
      </trkpt>
      <trkpt lat="42.70377" lon="2.8845">
        <ele>34.839671</ele>
        <time>2016-06-03T14:25:50Z</time>
      </trkpt>
      <trkpt lat="42.70364" lon="2.88461">
        <ele>35.779198</ele>
        <time>2016-06-03T14:25:53Z</time>
      </trkpt>
      <trkpt lat="42.70345" lon="2.88472">
        <ele>34.899515</ele>
        <time>2016-06-03T14:25:56Z</time>
      </trkpt>
      <trkpt lat="42.70334" lon="2.88477">
        <ele>35.984561</ele>
        <time>2016-06-03T14:25:58Z</time>
      </trkpt>
      <trkpt lat="42.70315" lon="2.88489">
        <ele>34.893075</ele>
        <time>2016-06-03T14:26:01Z</time>
      </trkpt>
      <trkpt lat="42.70294" lon="2.885">
        <ele>37.474085</ele>
        <time>2016-06-03T14:26:04Z</time>
      </trkpt>
      <trkpt lat="42.70276" lon="2.88508">
        <ele>37.445066</ele>
        <time>2016-06-03T14:26:07Z</time>
      </trkpt>
      <trkpt lat="42.70262" lon="2.88518">
        <ele>36.94091</ele>
        <time>2016-06-03T14:26:11Z</time>
      </trkpt>
      <trkpt lat="42.70258" lon="2.88519">
        <ele>37.232751</ele>
        <time>2016-06-03T14:26:13Z</time>
      </trkpt>
      <trkpt lat="42.70252" lon="2.88524">
        <ele>37.549343</ele>
        <time>2016-06-03T14:26:15Z</time>
      </trkpt>
      <trkpt lat="42.70239" lon="2.88532">
        <ele>37.756642</ele>
        <time>2016-06-03T14:26:18Z</time>
      </trkpt>
      <trkpt lat="42.70225" lon="2.8854">
        <ele>37.861008</ele>
        <time>2016-06-03T14:26:21Z</time>
      </trkpt>
      <trkpt lat="42.70208" lon="2.88546">
        <ele>38.055702</ele>
        <time>2016-06-03T14:26:24Z</time>
      </trkpt>
      <trkpt lat="42.70189" lon="2.88558">
        <ele>37.561926</ele>
        <time>2016-06-03T14:26:27Z</time>
      </trkpt>
      <trkpt lat="42.70179" lon="2.88566">
        <ele>37.752608</ele>
        <time>2016-06-03T14:26:29Z</time>
      </trkpt>
      <trkpt lat="42.70168" lon="2.88573">
        <ele>38.081983</ele>
        <time>2016-06-03T14:26:31Z</time>
      </trkpt>
      <trkpt lat="42.70153" lon="2.8858">
        <ele>36.358293</ele>
        <time>2016-06-03T14:26:34Z</time>
      </trkpt>
      <trkpt lat="42.70144" lon="2.88584">
        <ele>36.711548</ele>
        <time>2016-06-03T14:26:36Z</time>
      </trkpt>
      <trkpt lat="42.70144" lon="2.88584">
        <ele>36.894717</ele>
        <time>2016-06-03T14:26:37Z</time>
      </trkpt>
      <trkpt lat="42.70144" lon="2.88583">
        <ele>36.505193</ele>
        <time>2016-06-03T14:26:38Z</time>
      </trkpt>
      <trkpt lat="42.70128" lon="2.88579">
        <ele>36.326534</ele>
        <time>2016-06-03T14:26:39Z</time>
      </trkpt>
      <trkpt lat="42.7012" lon="2.88594">
        <ele>36.451407</ele>
        <time>2016-06-03T14:26:41Z</time>
      </trkpt>
      <trkpt lat="42.70116" lon="2.88597">
        <ele>36.457761</ele>
        <time>2016-06-03T14:26:43Z</time>
      </trkpt>
      <trkpt lat="42.70113" lon="2.88599">
        <ele>36.417208</ele>
        <time>2016-06-03T14:26:46Z</time>
      </trkpt>
      <trkpt lat="42.701" lon="2.88606">
        <ele>36.282118</ele>
        <time>2016-06-03T14:26:47Z</time>
      </trkpt>
      <trkpt lat="42.70108" lon="2.88602">
        <ele>36.260152</ele>
        <time>2016-06-03T14:26:48Z</time>
      </trkpt>
      <trkpt lat="42.70096" lon="2.88608">
        <ele>35.991149</ele>
        <time>2016-06-03T14:26:51Z</time>
      </trkpt>
      <trkpt lat="42.70095" lon="2.88604">
        <ele>35.682221</ele>
        <time>2016-06-03T14:26:54Z</time>
      </trkpt>
      <trkpt lat="42.70094" lon="2.88603">
        <ele>35.668083</ele>
        <time>2016-06-03T14:26:56Z</time>
      </trkpt>
      <trkpt lat="42.70065" lon="2.88618">
        <ele>35.496379</ele>
        <time>2016-06-03T14:26:58Z</time>
      </trkpt>
      <trkpt lat="42.70072" lon="2.88614">
        <ele>35.303028</ele>
        <time>2016-06-03T14:26:59Z</time>
      </trkpt>
      <trkpt lat="42.70061" lon="2.88616">
        <ele>35.146048</ele>
        <time>2016-06-03T14:27:01Z</time>
      </trkpt>
      <trkpt lat="42.70055" lon="2.88621">
        <ele>34.610413</ele>
        <time>2016-06-03T14:27:03Z</time>
      </trkpt>
      <trkpt lat="42.70047" lon="2.88625">
        <ele>34.844649</ele>
        <time>2016-06-03T14:27:07Z</time>
      </trkpt>
      <trkpt lat="42.70038" lon="2.88629">
        <ele>34.36482</ele>
        <time>2016-06-03T14:27:11Z</time>
      </trkpt>
      <trkpt lat="42.7002" lon="2.88639">
        <ele>33.812565</ele>
        <time>2016-06-03T14:27:14Z</time>
      </trkpt>
      <trkpt lat="42.70008" lon="2.88645">
        <ele>33.686806</ele>
        <time>2016-06-03T14:27:16Z</time>
      </trkpt>
      <trkpt lat="42.69989" lon="2.88656">
        <ele>33.911315</ele>
        <time>2016-06-03T14:27:19Z</time>
      </trkpt>
      <trkpt lat="42.69989" lon="2.88655">
        <ele>33.469112</ele>
        <time>2016-06-03T14:27:20Z</time>
      </trkpt>
      <trkpt lat="42.69971" lon="2.88662">
        <ele>33.666409</ele>
        <time>2016-06-03T14:27:22Z</time>
      </trkpt>
      <trkpt lat="42.69959" lon="2.88671">
        <ele>33.467935</ele>
        <time>2016-06-03T14:27:24Z</time>
      </trkpt>
      <trkpt lat="42.69929" lon="2.88683">
        <ele>34.054966</ele>
        <time>2016-06-03T14:27:28Z</time>
      </trkpt>
      <trkpt lat="42.69901" lon="2.88697">
        <ele>33.773711</ele>
        <time>2016-06-03T14:27:31Z</time>
      </trkpt>
      <trkpt lat="42.69873" lon="2.8871">
        <ele>33.518775</ele>
        <time>2016-06-03T14:27:34Z</time>
      </trkpt>
      <trkpt lat="42.69845" lon="2.88727">
        <ele>33.157782</ele>
        <time>2016-06-03T14:27:37Z</time>
      </trkpt>
      <trkpt lat="42.69822" lon="2.88739">
        <ele>34.289972</ele>
        <time>2016-06-03T14:27:40Z</time>
      </trkpt>
      <trkpt lat="42.69774" lon="2.88763">
        <ele>33.741742</ele>
        <time>2016-06-03T14:27:45Z</time>
      </trkpt>
      <trkpt lat="42.69745" lon="2.88777">
        <ele>33.77004</ele>
        <time>2016-06-03T14:27:48Z</time>
      </trkpt>
      <trkpt lat="42.69735" lon="2.88783">
        <ele>34.181287</ele>
        <time>2016-06-03T14:27:50Z</time>
      </trkpt>
      <trkpt lat="42.69697" lon="2.88799">
        <ele>34.666698</ele>
        <time>2016-06-03T14:27:53Z</time>
      </trkpt>
      <trkpt lat="42.69692" lon="2.88807">
        <ele>34.666698</ele>
        <time>2016-06-03T14:27:54Z</time>
      </trkpt>
      <trkpt lat="42.69681" lon="2.88806">
        <ele>34.236607</ele>
        <time>2016-06-03T14:27:55Z</time>
      </trkpt>
      <trkpt lat="42.69657" lon="2.88827">
        <ele>34.172142</ele>
        <time>2016-06-03T14:27:57Z</time>
      </trkpt>
      <trkpt lat="42.69634" lon="2.88839">
        <ele>34.381199</ele>
        <time>2016-06-03T14:28:00Z</time>
      </trkpt>
      <trkpt lat="42.69622" lon="2.88847">
        <ele>34.31139</ele>
        <time>2016-06-03T14:28:02Z</time>
      </trkpt>
      <trkpt lat="42.69612" lon="2.8885">
        <ele>34.0546</ele>
        <time>2016-06-03T14:28:04Z</time>
      </trkpt>
      <trkpt lat="42.69611" lon="2.88845">
        <ele>34.076201</ele>
        <time>2016-06-03T14:28:08Z</time>
      </trkpt>
      <trkpt lat="42.69575" lon="2.88858">
        <ele>34.668311</ele>
        <time>2016-06-03T14:28:12Z</time>
      </trkpt>
      <trkpt lat="42.69548" lon="2.88866">
        <ele>34.114127</ele>
        <time>2016-06-03T14:28:15Z</time>
      </trkpt>
      <trkpt lat="42.69534" lon="2.88871">
        <ele>33.842841</ele>
        <time>2016-06-03T14:28:17Z</time>
      </trkpt>
      <trkpt lat="42.69534" lon="2.88874">
        <ele>33.885372</ele>
        <time>2016-06-03T14:28:18Z</time>
      </trkpt>
      <trkpt lat="42.69517" lon="2.88886">
        <ele>34.021149</ele>
        <time>2016-06-03T14:28:20Z</time>
      </trkpt>
      <trkpt lat="42.69504" lon="2.88888">
        <ele>34.27906</ele>
        <time>2016-06-03T14:28:23Z</time>
      </trkpt>
      <trkpt lat="42.695" lon="2.88893">
        <ele>33.992616</ele>
        <time>2016-06-03T14:28:26Z</time>
      </trkpt>
      <trkpt lat="42.69498" lon="2.88895">
        <ele>33.895953</ele>
        <time>2016-06-03T14:28:28Z</time>
      </trkpt>
      <trkpt lat="42.69498" lon="2.88895">
        <ele>33.94568</ele>
        <time>2016-06-03T14:28:30Z</time>
      </trkpt>
      <trkpt lat="42.69498" lon="2.88894">
        <ele>34.111699</ele>
        <time>2016-06-03T14:28:32Z</time>
      </trkpt>
      <trkpt lat="42.69495" lon="2.88899">
        <ele>34.004796</ele>
        <time>2016-06-03T14:28:35Z</time>
      </trkpt>
      <trkpt lat="42.69495" lon="2.88898">
        <ele>34.17952</ele>
        <time>2016-06-03T14:28:36Z</time>
      </trkpt>
      <trkpt lat="42.69494" lon="2.88902">
        <ele>33.878185</ele>
        <time>2016-06-03T14:28:38Z</time>
      </trkpt>
      <trkpt lat="42.69492" lon="2.88904">
        <ele>33.993678</ele>
        <time>2016-06-03T14:28:40Z</time>
      </trkpt>
      <trkpt lat="42.69488" lon="2.88898">
        <ele>33.625353</ele>
        <time>2016-06-03T14:28:42Z</time>
      </trkpt>
      <trkpt lat="42.69479" lon="2.8891">
        <ele>33.790933</ele>
        <time>2016-06-03T14:28:44Z</time>
      </trkpt>
      <trkpt lat="42.69435" lon="2.88954">
        <ele>34.668049</ele>
        <time>2016-06-03T14:28:47Z</time>
      </trkpt>
      <trkpt lat="42.69418" lon="2.88978">
        <ele>34.55963</ele>
        <time>2016-06-03T14:28:49Z</time>
      </trkpt>
      <trkpt lat="42.69395" lon="2.89005">
        <ele>36.788199</ele>
        <time>2016-06-03T14:28:52Z</time>
      </trkpt>
      <trkpt lat="42.69387" lon="2.89014">
        <ele>37.033449</ele>
        <time>2016-06-03T14:28:54Z</time>
      </trkpt>
      <trkpt lat="42.69374" lon="2.89032">
        <ele>37.605374</ele>
        <time>2016-06-03T14:28:57Z</time>
      </trkpt>
      <trkpt lat="42.69365" lon="2.89042">
        <ele>37.760574</ele>
        <time>2016-06-03T14:29:00Z</time>
      </trkpt>
      <trkpt lat="42.69362" lon="2.89044">
        <ele>37.894768</ele>
        <time>2016-06-03T14:29:01Z</time>
      </trkpt>
      <trkpt lat="42.69363" lon="2.89045">
        <ele>38.397989</ele>
        <time>2016-06-03T14:29:02Z</time>
      </trkpt>
      <trkpt lat="42.69332" lon="2.89083">
        <ele>38.789142</ele>
        <time>2016-06-03T14:29:05Z</time>
      </trkpt>
      <trkpt lat="42.69307" lon="2.89116">
        <ele>38.882887</ele>
        <time>2016-06-03T14:29:08Z</time>
      </trkpt>
      <trkpt lat="42.69276" lon="2.89157">
        <ele>40.377039</ele>
        <time>2016-06-03T14:29:12Z</time>
      </trkpt>
      <trkpt lat="42.69261" lon="2.89175">
        <ele>41.369113</ele>
        <time>2016-06-03T14:29:14Z</time>
      </trkpt>
      <trkpt lat="42.69252" lon="2.89189">
        <ele>41.629225</ele>
        <time>2016-06-03T14:29:16Z</time>
      </trkpt>
      <trkpt lat="42.69226" lon="2.89224">
        <ele>42.224011</ele>
        <time>2016-06-03T14:29:19Z</time>
      </trkpt>
      <trkpt lat="42.69206" lon="2.89255">
        <ele>41.278023</ele>
        <time>2016-06-03T14:29:22Z</time>
      </trkpt>
      <trkpt lat="42.69185" lon="2.89282">
        <ele>42.769096</ele>
        <time>2016-06-03T14:29:25Z</time>
      </trkpt>
      <trkpt lat="42.69172" lon="2.89304">
        <ele>42.359595</ele>
        <time>2016-06-03T14:29:28Z</time>
      </trkpt>
      <trkpt lat="42.69171" lon="2.89303">
        <ele>42.299839</ele>
        <time>2016-06-03T14:29:29Z</time>
      </trkpt>
      <trkpt lat="42.69172" lon="2.89305">
        <ele>42.717988</ele>
        <time>2016-06-03T14:29:31Z</time>
      </trkpt>
      <trkpt lat="42.69167" lon="2.89311">
        <ele>42.79605</ele>
        <time>2016-06-03T14:29:41Z</time>
      </trkpt>
      <trkpt lat="42.69165" lon="2.89316">
        <ele>42.653713</ele>
        <time>2016-06-03T14:30:07Z</time>
      </trkpt>
      <trkpt lat="42.69159" lon="2.89323">
        <ele>43.030715</ele>
        <time>2016-06-03T14:30:09Z</time>
      </trkpt>
      <trkpt lat="42.69155" lon="2.89334">
        <ele>43.152058</ele>
        <time>2016-06-03T14:30:10Z</time>
      </trkpt>
      <trkpt lat="42.69158" lon="2.89331">
        <ele>42.942667</ele>
        <time>2016-06-03T14:30:11Z</time>
      </trkpt>
      <trkpt lat="42.69151" lon="2.89367">
        <ele>43.955947</ele>
        <time>2016-06-03T14:30:13Z</time>
      </trkpt>
      <trkpt lat="42.69151" lon="2.89397">
        <ele>44.50225</ele>
        <time>2016-06-03T14:30:15Z</time>
      </trkpt>
      <trkpt lat="42.69148" lon="2.8946">
        <ele>45.272009</ele>
        <time>2016-06-03T14:30:19Z</time>
      </trkpt>
      <trkpt lat="42.6915" lon="2.8948">
        <ele>47.473138</ele>
        <time>2016-06-03T14:30:21Z</time>
      </trkpt>
      <trkpt lat="42.69145" lon="2.89521">
        <ele>47.558736</ele>
        <time>2016-06-03T14:30:23Z</time>
      </trkpt>
      <trkpt lat="42.69141" lon="2.89547">
        <ele>47.593263</ele>
        <time>2016-06-03T14:30:25Z</time>
      </trkpt>
      <trkpt lat="42.69141" lon="2.8957">
        <ele>48.262681</ele>
        <time>2016-06-03T14:30:27Z</time>
      </trkpt>
      <trkpt lat="42.69137" lon="2.89585">
        <ele>48.384651</ele>
        <time>2016-06-03T14:30:29Z</time>
      </trkpt>
      <trkpt lat="42.69137" lon="2.89602">
        <ele>49.564785</ele>
        <time>2016-06-03T14:30:31Z</time>
      </trkpt>
      <trkpt lat="42.69133" lon="2.89649">
        <ele>50.759232</ele>
        <time>2016-06-03T14:30:35Z</time>
      </trkpt>
      <trkpt lat="42.6913" lon="2.89671">
        <ele>50.085368</ele>
        <time>2016-06-03T14:30:37Z</time>
      </trkpt>
      <trkpt lat="42.69128" lon="2.8969">
        <ele>50.834063</ele>
        <time>2016-06-03T14:30:39Z</time>
      </trkpt>
      <trkpt lat="42.69128" lon="2.89707">
        <ele>50.858703</ele>
        <time>2016-06-03T14:30:41Z</time>
      </trkpt>
      <trkpt lat="42.69125" lon="2.89719">
        <ele>51.371303</ele>
        <time>2016-06-03T14:30:43Z</time>
      </trkpt>
      <trkpt lat="42.69123" lon="2.89738">
        <ele>51.431537</ele>
        <time>2016-06-03T14:30:46Z</time>
      </trkpt>
      <trkpt lat="42.69122" lon="2.89741">
        <ele>51.897226</ele>
        <time>2016-06-03T14:30:48Z</time>
      </trkpt>
      <trkpt lat="42.69122" lon="2.89741">
        <ele>51.863307</ele>
        <time>2016-06-03T14:30:51Z</time>
      </trkpt>
      <trkpt lat="42.69122" lon="2.89741">
        <ele>51.848248</ele>
        <time>2016-06-03T14:30:53Z</time>
      </trkpt>
      <trkpt lat="42.69122" lon="2.89741">
        <ele>51.906555</ele>
        <time>2016-06-03T14:30:55Z</time>
      </trkpt>
      <trkpt lat="42.69122" lon="2.89741">
        <ele>51.910731</ele>
        <time>2016-06-03T14:30:57Z</time>
      </trkpt>
      <trkpt lat="42.69122" lon="2.89741">
        <ele>51.840142</ele>
        <time>2016-06-03T14:30:59Z</time>
      </trkpt>
      <trkpt lat="42.69122" lon="2.89741">
        <ele>51.89399</ele>
        <time>2016-06-03T14:31:05Z</time>
      </trkpt>
      <trkpt lat="42.69118" lon="2.89766">
        <ele>52.477403</ele>
        <time>2016-06-03T14:31:08Z</time>
      </trkpt>
      <trkpt lat="42.69114" lon="2.89796">
        <ele>51.654978</ele>
        <time>2016-06-03T14:31:10Z</time>
      </trkpt>
      <trkpt lat="42.69115" lon="2.89823">
        <ele>52.475481</ele>
        <time>2016-06-03T14:31:12Z</time>
      </trkpt>
      <trkpt lat="42.69129" lon="2.89844">
        <ele>53.165585</ele>
        <time>2016-06-03T14:31:14Z</time>
      </trkpt>
      <trkpt lat="42.69154" lon="2.89868">
        <ele>52.939842</ele>
        <time>2016-06-03T14:31:17Z</time>
      </trkpt>
      <trkpt lat="42.69191" lon="2.89897">
        <ele>52.87338</ele>
        <time>2016-06-03T14:31:21Z</time>
      </trkpt>
      <trkpt lat="42.69225" lon="2.89931">
        <ele>53.591057</ele>
        <time>2016-06-03T14:31:25Z</time>
      </trkpt>
      <trkpt lat="42.69261" lon="2.89968">
        <ele>53.818306</ele>
        <time>2016-06-03T14:31:30Z</time>
      </trkpt>
      <trkpt lat="42.69273" lon="2.89981">
        <ele>53.445046</ele>
        <time>2016-06-03T14:31:32Z</time>
      </trkpt>
      <trkpt lat="42.69292" lon="2.8999">
        <ele>54.391419</ele>
        <time>2016-06-03T14:31:35Z</time>
      </trkpt>
      <trkpt lat="42.69315" lon="2.90009">
        <ele>52.854185</ele>
        <time>2016-06-03T14:31:38Z</time>
      </trkpt>
      <trkpt lat="42.69329" lon="2.90031">
        <ele>52.698269</ele>
        <time>2016-06-03T14:31:41Z</time>
      </trkpt>
      <trkpt lat="42.69355" lon="2.90056">
        <ele>52.432269</ele>
        <time>2016-06-03T14:31:45Z</time>
      </trkpt>
      <trkpt lat="42.69374" lon="2.90072">
        <ele>51.92791</ele>
        <time>2016-06-03T14:31:47Z</time>
      </trkpt>
      <trkpt lat="42.69389" lon="2.9009">
        <ele>50.338332</ele>
        <time>2016-06-03T14:31:49Z</time>
      </trkpt>
      <trkpt lat="42.69411" lon="2.9011">
        <ele>50.899797</ele>
        <time>2016-06-03T14:31:53Z</time>
      </trkpt>
      <trkpt lat="42.69415" lon="2.9011">
        <ele>50.855616</ele>
        <time>2016-06-03T14:31:55Z</time>
      </trkpt>
      <trkpt lat="42.69417" lon="2.90112">
        <ele>50.556636</ele>
        <time>2016-06-03T14:31:57Z</time>
      </trkpt>
      <trkpt lat="42.6942" lon="2.90116">
        <ele>50.464564</ele>
        <time>2016-06-03T14:31:59Z</time>
      </trkpt>
      <trkpt lat="42.69429" lon="2.90124">
        <ele>50.304921</ele>
        <time>2016-06-03T14:32:01Z</time>
      </trkpt>
      <trkpt lat="42.69433" lon="2.90125">
        <ele>49.930346</ele>
        <time>2016-06-03T14:32:02Z</time>
      </trkpt>
      <trkpt lat="42.69438" lon="2.90132">
        <ele>50.014964</ele>
        <time>2016-06-03T14:32:04Z</time>
      </trkpt>
      <trkpt lat="42.6944" lon="2.90134">
        <ele>50.276418</ele>
        <time>2016-06-03T14:32:05Z</time>
      </trkpt>
      <trkpt lat="42.69439" lon="2.90128">
        <ele>50.230136</ele>
        <time>2016-06-03T14:32:07Z</time>
      </trkpt>
      <trkpt lat="42.69439" lon="2.9013">
        <ele>49.958762</ele>
        <time>2016-06-03T14:32:09Z</time>
      </trkpt>
      <trkpt lat="42.69446" lon="2.90135">
        <ele>49.895775</ele>
        <time>2016-06-03T14:32:11Z</time>
      </trkpt>
      <trkpt lat="42.69448" lon="2.9014">
        <ele>49.571505</ele>
        <time>2016-06-03T14:32:13Z</time>
      </trkpt>
      <trkpt lat="42.69454" lon="2.90145">
        <ele>49.215384</ele>
        <time>2016-06-03T14:32:16Z</time>
      </trkpt>
      <trkpt lat="42.69464" lon="2.90158">
        <ele>48.904273</ele>
        <time>2016-06-03T14:32:18Z</time>
      </trkpt>
      <trkpt lat="42.695" lon="2.90187">
        <ele>46.626779</ele>
        <time>2016-06-03T14:32:22Z</time>
      </trkpt>
      <trkpt lat="42.6952" lon="2.90208">
        <ele>46.379741</ele>
        <time>2016-06-03T14:32:25Z</time>
      </trkpt>
      <trkpt lat="42.69528" lon="2.9022">
        <ele>46.443801</ele>
        <time>2016-06-03T14:32:27Z</time>
      </trkpt>
      <trkpt lat="42.69527" lon="2.90221">
        <ele>46.405114</ele>
        <time>2016-06-03T14:32:28Z</time>
      </trkpt>
      <trkpt lat="42.69528" lon="2.90223">
        <ele>46.331785</ele>
        <time>2016-06-03T14:32:29Z</time>
      </trkpt>
      <trkpt lat="42.69525" lon="2.90222">
        <ele>46.573684</ele>
        <time>2016-06-03T14:32:31Z</time>
      </trkpt>
      <trkpt lat="42.69524" lon="2.90234">
        <ele>46.808734</ele>
        <time>2016-06-03T14:32:32Z</time>
      </trkpt>
      <trkpt lat="42.69505" lon="2.90269">
        <ele>47.376888</ele>
        <time>2016-06-03T14:32:38Z</time>
      </trkpt>
      <trkpt lat="42.69481" lon="2.90317">
        <ele>48.406258</ele>
        <time>2016-06-03T14:32:44Z</time>
      </trkpt>
      <trkpt lat="42.69493" lon="2.90331">
        <ele>48.222973</ele>
        <time>2016-06-03T14:32:47Z</time>
      </trkpt>
      <trkpt lat="42.69514" lon="2.90351">
        <ele>47.311468</ele>
        <time>2016-06-03T14:32:53Z</time>
      </trkpt>
      <trkpt lat="42.69524" lon="2.90361">
        <ele>46.611445</ele>
        <time>2016-06-03T14:32:58Z</time>
      </trkpt>
      <trkpt lat="42.69524" lon="2.90361">
        <ele>46.321462</ele>
        <time>2016-06-03T14:33:01Z</time>
      </trkpt>
      <trkpt lat="42.69524" lon="2.90361">
        <ele>46.571969</ele>
        <time>2016-06-03T14:33:06Z</time>
      </trkpt>
      <trkpt lat="42.69524" lon="2.90361">
        <ele>46.552131</ele>
        <time>2016-06-03T14:33:13Z</time>
      </trkpt>
      <trkpt lat="42.69524" lon="2.90361">
        <ele>46.565152</ele>
        <time>2016-06-03T14:33:19Z</time>
      </trkpt>
      <trkpt lat="42.69524" lon="2.90361">
        <ele>46.954818</ele>
        <time>2016-06-03T14:33:24Z</time>
      </trkpt>
      <trkpt lat="42.69524" lon="2.90361">
        <ele>46.373119</ele>
        <time>2016-06-03T14:33:27Z</time>
      </trkpt>
      <trkpt lat="42.69525" lon="2.90362">
        <ele>46.794815</ele>
        <time>2016-06-03T14:33:29Z</time>
      </trkpt>
      <trkpt lat="42.69525" lon="2.90362">
        <ele>46.583622</ele>
        <time>2016-06-03T14:33:33Z</time>
      </trkpt>
      <trkpt lat="42.69525" lon="2.90362">
        <ele>46.605478</ele>
        <time>2016-06-03T14:33:36Z</time>
      </trkpt>
      <trkpt lat="42.69524" lon="2.9036">
        <ele>46.404845</ele>
        <time>2016-06-03T14:33:38Z</time>
      </trkpt>
      <trkpt lat="42.69524" lon="2.90361">
        <ele>46.680229</ele>
        <time>2016-06-03T14:33:43Z</time>
      </trkpt>
    </trkseg>
  </trk>
</gpx>